<?xml version="1.0" encoding="UTF-8" standalone="no" ?>
<gpx xmlns="http://www.topografix.com/GPX/1/1" xmlns:xsi="http://www.w3.org/2001/XMLSchema-instance" xsi:schemaLocation="http://www.topografix.com/GPX/1/1 http://www.topografix.com/GPX/1/1/gpx.xsd" version="1.1" creator="VisuGPX - https://www.visugpx.com">
  <metadata>
    <name>Séjour le Jura Et 4 : Chaux des Crotenay -  Marigny</name>
    <desc><![CDATA[Retour de la difficulté avec de belles montées
Etape magnifique avec les cascades du Herisson 

Hébergement La ferme du bois Joli à Marigny]]></desc>
  </metadata>
  <trk>
    <name><![CDATA[SityTrail - Séjour le Jura Et 4 : Chaux des Crotenay -  Marigny ]]></name>
    <desc><![CDATA[Retour de la difficulté avec de belles montées
Etape magnifique avec les cascades du Herisson 

Hébergement La ferme du bois Joli à Marigny]]></desc>
    <trkseg>
      <trkpt lat="46.65856" lon="5.97209">
        <ele>763</ele>
        <time>2025-10-08T05:59:37.856+00:00</time>
      </trkpt>
      <trkpt lat="46.65858" lon="5.9721">
        <ele>763</ele>
        <time>2025-10-08T06:04:21.804+00:00</time>
      </trkpt>
      <trkpt lat="46.65858" lon="5.9721">
        <ele>763</ele>
        <time>2025-10-08T06:04:30.805+00:00</time>
      </trkpt>
      <trkpt lat="46.65857" lon="5.97215">
        <ele>763</ele>
        <time>2025-10-08T06:05:15.804+00:00</time>
      </trkpt>
      <trkpt lat="46.65857" lon="5.9722">
        <ele>763</ele>
        <time>2025-10-08T06:05:19.804+00:00</time>
      </trkpt>
      <trkpt lat="46.65859" lon="5.97224">
        <ele>763</ele>
        <time>2025-10-08T06:05:24.804+00:00</time>
      </trkpt>
      <trkpt lat="46.65858" lon="5.9722">
        <ele>763</ele>
        <time>2025-10-08T06:07:22.306+00:00</time>
      </trkpt>
      <trkpt lat="46.65858" lon="5.97217">
        <ele>763</ele>
        <time>2025-10-08T06:07:26.803+00:00</time>
      </trkpt>
      <trkpt lat="46.65857" lon="5.97217">
        <ele>763</ele>
        <time>2025-10-08T06:07:32.199+00:00</time>
      </trkpt>
      <trkpt lat="46.65858" lon="5.97212">
        <ele>763</ele>
        <time>2025-10-08T06:07:36.385+00:00</time>
      </trkpt>
      <trkpt lat="46.65858" lon="5.97206">
        <ele>764</ele>
        <time>2025-10-08T06:07:40.617+00:00</time>
      </trkpt>
      <trkpt lat="46.6586" lon="5.97204">
        <ele>764</ele>
        <time>2025-10-08T06:07:49.803+00:00</time>
      </trkpt>
      <trkpt lat="46.65863" lon="5.97204">
        <ele>764</ele>
        <time>2025-10-08T06:07:54.234+00:00</time>
      </trkpt>
      <trkpt lat="46.65865" lon="5.97204">
        <ele>764</ele>
        <time>2025-10-08T06:07:58.743+00:00</time>
      </trkpt>
      <trkpt lat="46.65866" lon="5.97205">
        <ele>764</ele>
        <time>2025-10-08T06:08:02.804+00:00</time>
      </trkpt>
      <trkpt lat="46.65867" lon="5.97205">
        <ele>764</ele>
        <time>2025-10-08T06:08:07.803+00:00</time>
      </trkpt>
      <trkpt lat="46.65867" lon="5.97205">
        <ele>764</ele>
        <time>2025-10-08T06:08:12.486+00:00</time>
      </trkpt>
      <trkpt lat="46.65867" lon="5.97204">
        <ele>764</ele>
        <time>2025-10-08T06:08:16.803+00:00</time>
      </trkpt>
      <trkpt lat="46.65868" lon="5.972">
        <ele>764</ele>
        <time>2025-10-08T06:08:21.804+00:00</time>
      </trkpt>
      <trkpt lat="46.65872" lon="5.97197">
        <ele>764</ele>
        <time>2025-10-08T06:08:26.779+00:00</time>
      </trkpt>
      <trkpt lat="46.65873" lon="5.9719">
        <ele>764</ele>
        <time>2025-10-08T06:08:31.378+00:00</time>
      </trkpt>
      <trkpt lat="46.65879" lon="5.97187">
        <ele>764</ele>
        <time>2025-10-08T06:08:35.653+00:00</time>
      </trkpt>
      <trkpt lat="46.65881" lon="5.97184">
        <ele>764</ele>
        <time>2025-10-08T06:08:40.619+00:00</time>
      </trkpt>
      <trkpt lat="46.65883" lon="5.97178">
        <ele>765</ele>
        <time>2025-10-08T06:08:44.803+00:00</time>
      </trkpt>
      <trkpt lat="46.65886" lon="5.97174">
        <ele>765</ele>
        <time>2025-10-08T06:08:49.803+00:00</time>
      </trkpt>
      <trkpt lat="46.65888" lon="5.97168">
        <ele>765</ele>
        <time>2025-10-08T06:08:54.237+00:00</time>
      </trkpt>
      <trkpt lat="46.65891" lon="5.97161">
        <ele>765</ele>
        <time>2025-10-08T06:08:58.716+00:00</time>
      </trkpt>
      <trkpt lat="46.65892" lon="5.97156">
        <ele>765</ele>
        <time>2025-10-08T06:09:02.821+00:00</time>
      </trkpt>
      <trkpt lat="46.65893" lon="5.9715">
        <ele>766</ele>
        <time>2025-10-08T06:09:07.496+00:00</time>
      </trkpt>
      <trkpt lat="46.65893" lon="5.97144">
        <ele>766</ele>
        <time>2025-10-08T06:09:11.803+00:00</time>
      </trkpt>
      <trkpt lat="46.65893" lon="5.97139">
        <ele>766</ele>
        <time>2025-10-08T06:09:16.038+00:00</time>
      </trkpt>
      <trkpt lat="46.65892" lon="5.97134">
        <ele>766</ele>
        <time>2025-10-08T06:09:20.653+00:00</time>
      </trkpt>
      <trkpt lat="46.6589" lon="5.97129">
        <ele>766</ele>
        <time>2025-10-08T06:09:24.680+00:00</time>
      </trkpt>
      <trkpt lat="46.65889" lon="5.97123">
        <ele>767</ele>
        <time>2025-10-08T06:09:29.218+00:00</time>
      </trkpt>
      <trkpt lat="46.65886" lon="5.97118">
        <ele>767</ele>
        <time>2025-10-08T06:09:33.736+00:00</time>
      </trkpt>
      <trkpt lat="46.65884" lon="5.97113">
        <ele>767</ele>
        <time>2025-10-08T06:09:37.804+00:00</time>
      </trkpt>
      <trkpt lat="46.65881" lon="5.97109">
        <ele>767</ele>
        <time>2025-10-08T06:09:42.642+00:00</time>
      </trkpt>
      <trkpt lat="46.65879" lon="5.97104">
        <ele>767</ele>
        <time>2025-10-08T06:09:47.180+00:00</time>
      </trkpt>
      <trkpt lat="46.65875" lon="5.971">
        <ele>767</ele>
        <time>2025-10-08T06:09:51.803+00:00</time>
      </trkpt>
      <trkpt lat="46.65872" lon="5.97096">
        <ele>769</ele>
        <time>2025-10-08T06:09:56.078+00:00</time>
      </trkpt>
      <trkpt lat="46.65869" lon="5.97091">
        <ele>769</ele>
        <time>2025-10-08T06:10:00.217+00:00</time>
      </trkpt>
      <trkpt lat="46.65866" lon="5.97087">
        <ele>769</ele>
        <time>2025-10-08T06:10:04.261+00:00</time>
      </trkpt>
      <trkpt lat="46.65864" lon="5.97083">
        <ele>769</ele>
        <time>2025-10-08T06:10:08.279+00:00</time>
      </trkpt>
      <trkpt lat="46.65862" lon="5.97078">
        <ele>769</ele>
        <time>2025-10-08T06:10:12.358+00:00</time>
      </trkpt>
      <trkpt lat="46.6586" lon="5.97073">
        <ele>769</ele>
        <time>2025-10-08T06:10:16.795+00:00</time>
      </trkpt>
      <trkpt lat="46.65857" lon="5.97068">
        <ele>770</ele>
        <time>2025-10-08T06:10:21.316+00:00</time>
      </trkpt>
      <trkpt lat="46.65854" lon="5.97063">
        <ele>770</ele>
        <time>2025-10-08T06:10:25.803+00:00</time>
      </trkpt>
      <trkpt lat="46.65852" lon="5.97057">
        <ele>770</ele>
        <time>2025-10-08T06:10:30.479+00:00</time>
      </trkpt>
      <trkpt lat="46.65849" lon="5.97051">
        <ele>770</ele>
        <time>2025-10-08T06:10:34.977+00:00</time>
      </trkpt>
      <trkpt lat="46.65847" lon="5.97044">
        <ele>769</ele>
        <time>2025-10-08T06:10:39.438+00:00</time>
      </trkpt>
      <trkpt lat="46.65845" lon="5.97039">
        <ele>771</ele>
        <time>2025-10-08T06:10:44.115+00:00</time>
      </trkpt>
      <trkpt lat="46.65844" lon="5.97034">
        <ele>771</ele>
        <time>2025-10-08T06:10:48.499+00:00</time>
      </trkpt>
      <trkpt lat="46.65842" lon="5.97029">
        <ele>771</ele>
        <time>2025-10-08T06:10:53.073+00:00</time>
      </trkpt>
      <trkpt lat="46.6584" lon="5.97023">
        <ele>771</ele>
        <time>2025-10-08T06:10:57.518+00:00</time>
      </trkpt>
      <trkpt lat="46.65837" lon="5.97016">
        <ele>771</ele>
        <time>2025-10-08T06:11:02.075+00:00</time>
      </trkpt>
      <trkpt lat="46.65834" lon="5.97011">
        <ele>772</ele>
        <time>2025-10-08T06:11:06.638+00:00</time>
      </trkpt>
      <trkpt lat="46.65832" lon="5.97003">
        <ele>772</ele>
        <time>2025-10-08T06:11:11.178+00:00</time>
      </trkpt>
      <trkpt lat="46.6583" lon="5.96999">
        <ele>772</ele>
        <time>2025-10-08T06:11:15.777+00:00</time>
      </trkpt>
      <trkpt lat="46.65828" lon="5.96994">
        <ele>772</ele>
        <time>2025-10-08T06:11:20.238+00:00</time>
      </trkpt>
      <trkpt lat="46.65826" lon="5.96989">
        <ele>772</ele>
        <time>2025-10-08T06:11:24.778+00:00</time>
      </trkpt>
      <trkpt lat="46.65824" lon="5.96985">
        <ele>776</ele>
        <time>2025-10-08T06:11:28.804+00:00</time>
      </trkpt>
      <trkpt lat="46.65819" lon="5.96979">
        <ele>777</ele>
        <time>2025-10-08T06:11:33.456+00:00</time>
      </trkpt>
      <trkpt lat="46.65817" lon="5.96975">
        <ele>777</ele>
        <time>2025-10-08T06:11:38.003+00:00</time>
      </trkpt>
      <trkpt lat="46.65815" lon="5.9697">
        <ele>777</ele>
        <time>2025-10-08T06:11:42.696+00:00</time>
      </trkpt>
      <trkpt lat="46.65813" lon="5.96965">
        <ele>777</ele>
        <time>2025-10-08T06:11:47.294+00:00</time>
      </trkpt>
      <trkpt lat="46.65811" lon="5.96958">
        <ele>781</ele>
        <time>2025-10-08T06:11:51.803+00:00</time>
      </trkpt>
      <trkpt lat="46.65809" lon="5.96952">
        <ele>781</ele>
        <time>2025-10-08T06:11:56.320+00:00</time>
      </trkpt>
      <trkpt lat="46.65807" lon="5.96946">
        <ele>781</ele>
        <time>2025-10-08T06:12:00.339+00:00</time>
      </trkpt>
      <trkpt lat="46.65804" lon="5.96939">
        <ele>781</ele>
        <time>2025-10-08T06:12:04.716+00:00</time>
      </trkpt>
      <trkpt lat="46.65803" lon="5.96934">
        <ele>781</ele>
        <time>2025-10-08T06:12:08.760+00:00</time>
      </trkpt>
      <trkpt lat="46.65801" lon="5.96931">
        <ele>781</ele>
        <time>2025-10-08T06:12:13.803+00:00</time>
      </trkpt>
      <trkpt lat="46.65798" lon="5.96926">
        <ele>785</ele>
        <time>2025-10-08T06:12:18.418+00:00</time>
      </trkpt>
      <trkpt lat="46.65795" lon="5.9692">
        <ele>785</ele>
        <time>2025-10-08T06:12:22.497+00:00</time>
      </trkpt>
      <trkpt lat="46.65793" lon="5.96915">
        <ele>785</ele>
        <time>2025-10-08T06:12:26.803+00:00</time>
      </trkpt>
      <trkpt lat="46.65792" lon="5.96909">
        <ele>785</ele>
        <time>2025-10-08T06:12:31.439+00:00</time>
      </trkpt>
      <trkpt lat="46.65791" lon="5.96903">
        <ele>783</ele>
        <time>2025-10-08T06:12:36.055+00:00</time>
      </trkpt>
      <trkpt lat="46.6579" lon="5.96898">
        <ele>783</ele>
        <time>2025-10-08T06:12:40.439+00:00</time>
      </trkpt>
      <trkpt lat="46.65789" lon="5.96895">
        <ele>783</ele>
        <time>2025-10-08T06:12:44.739+00:00</time>
      </trkpt>
      <trkpt lat="46.65788" lon="5.9689">
        <ele>783</ele>
        <time>2025-10-08T06:12:49.356+00:00</time>
      </trkpt>
      <trkpt lat="46.65789" lon="5.9688">
        <ele>783</ele>
        <time>2025-10-08T06:12:53.804+00:00</time>
      </trkpt>
      <trkpt lat="46.65789" lon="5.96876">
        <ele>783</ele>
        <time>2025-10-08T06:12:58.403+00:00</time>
      </trkpt>
      <trkpt lat="46.65789" lon="5.96868">
        <ele>782</ele>
        <time>2025-10-08T06:13:02.436+00:00</time>
      </trkpt>
      <trkpt lat="46.65788" lon="5.96859">
        <ele>782</ele>
        <time>2025-10-08T06:13:06.659+00:00</time>
      </trkpt>
      <trkpt lat="46.65788" lon="5.96853">
        <ele>782</ele>
        <time>2025-10-08T06:13:10.803+00:00</time>
      </trkpt>
      <trkpt lat="46.65788" lon="5.96848">
        <ele>782</ele>
        <time>2025-10-08T06:13:15.198+00:00</time>
      </trkpt>
      <trkpt lat="46.65788" lon="5.96842">
        <ele>782</ele>
        <time>2025-10-08T06:13:19.559+00:00</time>
      </trkpt>
      <trkpt lat="46.65788" lon="5.96835">
        <ele>782</ele>
        <time>2025-10-08T06:13:23.893+00:00</time>
      </trkpt>
      <trkpt lat="46.65787" lon="5.96828">
        <ele>782</ele>
        <time>2025-10-08T06:13:28.177+00:00</time>
      </trkpt>
      <trkpt lat="46.65786" lon="5.96819">
        <ele>780</ele>
        <time>2025-10-08T06:13:32.477+00:00</time>
      </trkpt>
      <trkpt lat="46.65786" lon="5.96812">
        <ele>780</ele>
        <time>2025-10-08T06:13:36.803+00:00</time>
      </trkpt>
      <trkpt lat="46.65785" lon="5.96808">
        <ele>780</ele>
        <time>2025-10-08T06:13:41.118+00:00</time>
      </trkpt>
      <trkpt lat="46.65784" lon="5.96802">
        <ele>780</ele>
        <time>2025-10-08T06:13:45.359+00:00</time>
      </trkpt>
      <trkpt lat="46.65783" lon="5.96795">
        <ele>780</ele>
        <time>2025-10-08T06:13:49.399+00:00</time>
      </trkpt>
      <trkpt lat="46.65783" lon="5.96789">
        <ele>780</ele>
        <time>2025-10-08T06:13:53.653+00:00</time>
      </trkpt>
      <trkpt lat="46.65782" lon="5.96782">
        <ele>780</ele>
        <time>2025-10-08T06:13:57.698+00:00</time>
      </trkpt>
      <trkpt lat="46.65781" lon="5.96776">
        <ele>780</ele>
        <time>2025-10-08T06:14:01.803+00:00</time>
      </trkpt>
      <trkpt lat="46.6578" lon="5.96769">
        <ele>780</ele>
        <time>2025-10-08T06:14:06.212+00:00</time>
      </trkpt>
      <trkpt lat="46.65772" lon="5.96768">
        <ele>780</ele>
        <time>2025-10-08T06:14:34.803+00:00</time>
      </trkpt>
      <trkpt lat="46.65774" lon="5.96766">
        <ele>780</ele>
        <time>2025-10-08T06:14:39.117+00:00</time>
      </trkpt>
      <trkpt lat="46.6578" lon="5.96758">
        <ele>781</ele>
        <time>2025-10-08T06:14:43.804+00:00</time>
      </trkpt>
      <trkpt lat="46.65785" lon="5.96749">
        <ele>781</ele>
        <time>2025-10-08T06:14:48.375+00:00</time>
      </trkpt>
      <trkpt lat="46.65787" lon="5.96738">
        <ele>781</ele>
        <time>2025-10-08T06:14:52.512+00:00</time>
      </trkpt>
      <trkpt lat="46.65784" lon="5.96727">
        <ele>781</ele>
        <time>2025-10-08T06:14:56.803+00:00</time>
      </trkpt>
      <trkpt lat="46.65782" lon="5.96717">
        <ele>781</ele>
        <time>2025-10-08T06:15:01.412+00:00</time>
      </trkpt>
      <trkpt lat="46.6578" lon="5.96707">
        <ele>781</ele>
        <time>2025-10-08T06:15:05.875+00:00</time>
      </trkpt>
      <trkpt lat="46.65778" lon="5.96699">
        <ele>781</ele>
        <time>2025-10-08T06:15:09.910+00:00</time>
      </trkpt>
      <trkpt lat="46.65777" lon="5.96689">
        <ele>781</ele>
        <time>2025-10-08T06:15:14.475+00:00</time>
      </trkpt>
      <trkpt lat="46.6578" lon="5.96682">
        <ele>781</ele>
        <time>2025-10-08T06:15:18.595+00:00</time>
      </trkpt>
      <trkpt lat="46.65777" lon="5.96673">
        <ele>780</ele>
        <time>2025-10-08T06:15:23.077+00:00</time>
      </trkpt>
      <trkpt lat="46.65776" lon="5.96665">
        <ele>780</ele>
        <time>2025-10-08T06:15:27.803+00:00</time>
      </trkpt>
      <trkpt lat="46.65774" lon="5.96655">
        <ele>780</ele>
        <time>2025-10-08T06:15:32.589+00:00</time>
      </trkpt>
      <trkpt lat="46.65774" lon="5.96647">
        <ele>780</ele>
        <time>2025-10-08T06:15:37.111+00:00</time>
      </trkpt>
      <trkpt lat="46.65775" lon="5.96639">
        <ele>780</ele>
        <time>2025-10-08T06:15:41.556+00:00</time>
      </trkpt>
      <trkpt lat="46.65774" lon="5.96633">
        <ele>780</ele>
        <time>2025-10-08T06:15:45.802+00:00</time>
      </trkpt>
      <trkpt lat="46.65772" lon="5.96626">
        <ele>780</ele>
        <time>2025-10-08T06:15:50.802+00:00</time>
      </trkpt>
      <trkpt lat="46.65771" lon="5.96619">
        <ele>780</ele>
        <time>2025-10-08T06:15:55.416+00:00</time>
      </trkpt>
      <trkpt lat="46.65771" lon="5.96612">
        <ele>780</ele>
        <time>2025-10-08T06:15:59.431+00:00</time>
      </trkpt>
      <trkpt lat="46.6577" lon="5.96605">
        <ele>780</ele>
        <time>2025-10-08T06:16:03.451+00:00</time>
      </trkpt>
      <trkpt lat="46.65769" lon="5.96597">
        <ele>780</ele>
        <time>2025-10-08T06:16:07.803+00:00</time>
      </trkpt>
      <trkpt lat="46.65769" lon="5.96585">
        <ele>779</ele>
        <time>2025-10-08T06:16:12.376+00:00</time>
      </trkpt>
      <trkpt lat="46.6577" lon="5.96578">
        <ele>779</ele>
        <time>2025-10-08T06:16:16.582+00:00</time>
      </trkpt>
      <trkpt lat="46.65769" lon="5.96569">
        <ele>779</ele>
        <time>2025-10-08T06:16:21.411+00:00</time>
      </trkpt>
      <trkpt lat="46.65765" lon="5.96566">
        <ele>779</ele>
        <time>2025-10-08T06:16:26.249+00:00</time>
      </trkpt>
      <trkpt lat="46.65762" lon="5.96556">
        <ele>775</ele>
        <time>2025-10-08T06:16:30.336+00:00</time>
      </trkpt>
      <trkpt lat="46.65761" lon="5.96548">
        <ele>775</ele>
        <time>2025-10-08T06:16:34.458+00:00</time>
      </trkpt>
      <trkpt lat="46.65761" lon="5.96541">
        <ele>775</ele>
        <time>2025-10-08T06:16:39.072+00:00</time>
      </trkpt>
      <trkpt lat="46.65761" lon="5.96535">
        <ele>775</ele>
        <time>2025-10-08T06:16:43.271+00:00</time>
      </trkpt>
      <trkpt lat="46.6576" lon="5.96529">
        <ele>775</ele>
        <time>2025-10-08T06:16:47.349+00:00</time>
      </trkpt>
      <trkpt lat="46.65761" lon="5.96523">
        <ele>775</ele>
        <time>2025-10-08T06:16:51.802+00:00</time>
      </trkpt>
      <trkpt lat="46.6576" lon="5.96514">
        <ele>775</ele>
        <time>2025-10-08T06:16:56.392+00:00</time>
      </trkpt>
      <trkpt lat="46.6576" lon="5.96506">
        <ele>774</ele>
        <time>2025-10-08T06:17:00.802+00:00</time>
      </trkpt>
      <trkpt lat="46.6576" lon="5.96499">
        <ele>774</ele>
        <time>2025-10-08T06:17:04.976+00:00</time>
      </trkpt>
      <trkpt lat="46.6576" lon="5.96494">
        <ele>774</ele>
        <time>2025-10-08T06:17:09.174+00:00</time>
      </trkpt>
      <trkpt lat="46.6576" lon="5.96486">
        <ele>774</ele>
        <time>2025-10-08T06:17:13.577+00:00</time>
      </trkpt>
      <trkpt lat="46.6576" lon="5.96482">
        <ele>774</ele>
        <time>2025-10-08T06:17:17.953+00:00</time>
      </trkpt>
      <trkpt lat="46.6576" lon="5.96475">
        <ele>774</ele>
        <time>2025-10-08T06:17:22.475+00:00</time>
      </trkpt>
      <trkpt lat="46.6576" lon="5.96473">
        <ele>774</ele>
        <time>2025-10-08T06:17:23.522+00:00</time>
      </trkpt>
      <trkpt lat="46.65758" lon="5.96469">
        <ele>774</ele>
        <time>2025-10-08T06:17:31.810+00:00</time>
      </trkpt>
      <trkpt lat="46.65759" lon="5.9646">
        <ele>774</ele>
        <time>2025-10-08T06:17:35.803+00:00</time>
      </trkpt>
      <trkpt lat="46.6576" lon="5.96455">
        <ele>774</ele>
        <time>2025-10-08T06:17:40.572+00:00</time>
      </trkpt>
      <trkpt lat="46.65761" lon="5.96449">
        <ele>774</ele>
        <time>2025-10-08T06:17:44.802+00:00</time>
      </trkpt>
      <trkpt lat="46.65762" lon="5.96443">
        <ele>774</ele>
        <time>2025-10-08T06:17:48.873+00:00</time>
      </trkpt>
      <trkpt lat="46.65762" lon="5.96435">
        <ele>774</ele>
        <time>2025-10-08T06:17:53.652+00:00</time>
      </trkpt>
      <trkpt lat="46.65763" lon="5.96429">
        <ele>774</ele>
        <time>2025-10-08T06:17:58.097+00:00</time>
      </trkpt>
      <trkpt lat="46.65763" lon="5.96421">
        <ele>774</ele>
        <time>2025-10-08T06:18:02.576+00:00</time>
      </trkpt>
      <trkpt lat="46.65764" lon="5.96412">
        <ele>775</ele>
        <time>2025-10-08T06:18:07.073+00:00</time>
      </trkpt>
      <trkpt lat="46.65765" lon="5.96405">
        <ele>775</ele>
        <time>2025-10-08T06:18:11.177+00:00</time>
      </trkpt>
      <trkpt lat="46.65765" lon="5.96397">
        <ele>775</ele>
        <time>2025-10-08T06:18:15.553+00:00</time>
      </trkpt>
      <trkpt lat="46.65764" lon="5.9639">
        <ele>773</ele>
        <time>2025-10-08T06:18:19.673+00:00</time>
      </trkpt>
      <trkpt lat="46.65765" lon="5.96384">
        <ele>775</ele>
        <time>2025-10-08T06:18:23.676+00:00</time>
      </trkpt>
      <trkpt lat="46.65769" lon="5.96375">
        <ele>774</ele>
        <time>2025-10-08T06:18:28.096+00:00</time>
      </trkpt>
      <trkpt lat="46.65772" lon="5.96369">
        <ele>774</ele>
        <time>2025-10-08T06:18:32.455+00:00</time>
      </trkpt>
      <trkpt lat="46.65774" lon="5.96362">
        <ele>774</ele>
        <time>2025-10-08T06:18:36.802+00:00</time>
      </trkpt>
      <trkpt lat="46.65776" lon="5.96356">
        <ele>774</ele>
        <time>2025-10-08T06:18:41.192+00:00</time>
      </trkpt>
      <trkpt lat="46.6578" lon="5.9635">
        <ele>774</ele>
        <time>2025-10-08T06:18:45.691+00:00</time>
      </trkpt>
      <trkpt lat="46.65784" lon="5.96346">
        <ele>772</ele>
        <time>2025-10-08T06:18:50.075+00:00</time>
      </trkpt>
      <trkpt lat="46.65789" lon="5.96342">
        <ele>772</ele>
        <time>2025-10-08T06:18:54.392+00:00</time>
      </trkpt>
      <trkpt lat="46.65794" lon="5.96337">
        <ele>772</ele>
        <time>2025-10-08T06:18:58.803+00:00</time>
      </trkpt>
      <trkpt lat="46.65799" lon="5.96332">
        <ele>772</ele>
        <time>2025-10-08T06:19:03.256+00:00</time>
      </trkpt>
      <trkpt lat="46.65804" lon="5.96327">
        <ele>772</ele>
        <time>2025-10-08T06:19:07.803+00:00</time>
      </trkpt>
      <trkpt lat="46.65809" lon="5.96323">
        <ele>772</ele>
        <time>2025-10-08T06:19:12.436+00:00</time>
      </trkpt>
      <trkpt lat="46.65813" lon="5.96319">
        <ele>772</ele>
        <time>2025-10-08T06:19:16.457+00:00</time>
      </trkpt>
      <trkpt lat="46.65816" lon="5.96317">
        <ele>769</ele>
        <time>2025-10-08T06:19:20.474+00:00</time>
      </trkpt>
      <trkpt lat="46.65821" lon="5.96312">
        <ele>770</ele>
        <time>2025-10-08T06:19:24.876+00:00</time>
      </trkpt>
      <trkpt lat="46.65826" lon="5.96308">
        <ele>770</ele>
        <time>2025-10-08T06:19:29.437+00:00</time>
      </trkpt>
      <trkpt lat="46.65831" lon="5.96305">
        <ele>770</ele>
        <time>2025-10-08T06:19:34.031+00:00</time>
      </trkpt>
      <trkpt lat="46.65836" lon="5.96302">
        <ele>770</ele>
        <time>2025-10-08T06:19:38.493+00:00</time>
      </trkpt>
      <trkpt lat="46.6584" lon="5.96298">
        <ele>770</ele>
        <time>2025-10-08T06:19:42.734+00:00</time>
      </trkpt>
      <trkpt lat="46.65845" lon="5.96294">
        <ele>770</ele>
        <time>2025-10-08T06:19:47.195+00:00</time>
      </trkpt>
      <trkpt lat="46.6585" lon="5.9629">
        <ele>770</ele>
        <time>2025-10-08T06:19:51.710+00:00</time>
      </trkpt>
      <trkpt lat="46.65855" lon="5.96286">
        <ele>770</ele>
        <time>2025-10-08T06:19:56.751+00:00</time>
      </trkpt>
      <trkpt lat="46.65861" lon="5.9628">
        <ele>770</ele>
        <time>2025-10-08T06:20:01.555+00:00</time>
      </trkpt>
      <trkpt lat="46.65865" lon="5.96276">
        <ele>770</ele>
        <time>2025-10-08T06:20:05.591+00:00</time>
      </trkpt>
      <trkpt lat="46.65868" lon="5.9627">
        <ele>770</ele>
        <time>2025-10-08T06:20:10.112+00:00</time>
      </trkpt>
      <trkpt lat="46.6587" lon="5.96263">
        <ele>766</ele>
        <time>2025-10-08T06:20:14.634+00:00</time>
      </trkpt>
      <trkpt lat="46.65871" lon="5.96256">
        <ele>766</ele>
        <time>2025-10-08T06:20:19.216+00:00</time>
      </trkpt>
      <trkpt lat="46.65872" lon="5.96248">
        <ele>766</ele>
        <time>2025-10-08T06:20:23.772+00:00</time>
      </trkpt>
      <trkpt lat="46.65871" lon="5.9624">
        <ele>766</ele>
        <time>2025-10-08T06:20:28.312+00:00</time>
      </trkpt>
      <trkpt lat="46.65869" lon="5.96233">
        <ele>763</ele>
        <time>2025-10-08T06:20:32.816+00:00</time>
      </trkpt>
      <trkpt lat="46.65868" lon="5.96224">
        <ele>763</ele>
        <time>2025-10-08T06:20:37.235+00:00</time>
      </trkpt>
      <trkpt lat="46.65866" lon="5.96216">
        <ele>763</ele>
        <time>2025-10-08T06:20:41.803+00:00</time>
      </trkpt>
      <trkpt lat="46.65865" lon="5.9621">
        <ele>763</ele>
        <time>2025-10-08T06:20:46.270+00:00</time>
      </trkpt>
      <trkpt lat="46.65864" lon="5.96203">
        <ele>761</ele>
        <time>2025-10-08T06:20:50.775+00:00</time>
      </trkpt>
      <trkpt lat="46.65862" lon="5.96194">
        <ele>761</ele>
        <time>2025-10-08T06:20:55.314+00:00</time>
      </trkpt>
      <trkpt lat="46.65861" lon="5.96186">
        <ele>761</ele>
        <time>2025-10-08T06:20:59.716+00:00</time>
      </trkpt>
      <trkpt lat="46.65859" lon="5.96179">
        <ele>761</ele>
        <time>2025-10-08T06:21:04.136+00:00</time>
      </trkpt>
      <trkpt lat="46.65858" lon="5.96171">
        <ele>761</ele>
        <time>2025-10-08T06:21:08.651+00:00</time>
      </trkpt>
      <trkpt lat="46.65857" lon="5.96162">
        <ele>761</ele>
        <time>2025-10-08T06:21:13.333+00:00</time>
      </trkpt>
      <trkpt lat="46.65855" lon="5.96154">
        <ele>761</ele>
        <time>2025-10-08T06:21:17.802+00:00</time>
      </trkpt>
      <trkpt lat="46.65855" lon="5.96146">
        <ele>762</ele>
        <time>2025-10-08T06:21:22.336+00:00</time>
      </trkpt>
      <trkpt lat="46.65854" lon="5.96138">
        <ele>762</ele>
        <time>2025-10-08T06:21:26.802+00:00</time>
      </trkpt>
      <trkpt lat="46.65854" lon="5.9613">
        <ele>762</ele>
        <time>2025-10-08T06:21:31.216+00:00</time>
      </trkpt>
      <trkpt lat="46.65853" lon="5.96121">
        <ele>762</ele>
        <time>2025-10-08T06:21:35.698+00:00</time>
      </trkpt>
      <trkpt lat="46.65852" lon="5.96115">
        <ele>762</ele>
        <time>2025-10-08T06:21:40.131+00:00</time>
      </trkpt>
      <trkpt lat="46.65851" lon="5.96107">
        <ele>762</ele>
        <time>2025-10-08T06:21:44.176+00:00</time>
      </trkpt>
      <trkpt lat="46.6585" lon="5.961">
        <ele>762</ele>
        <time>2025-10-08T06:21:48.536+00:00</time>
      </trkpt>
      <trkpt lat="46.65849" lon="5.96093">
        <ele>762</ele>
        <time>2025-10-08T06:21:52.553+00:00</time>
      </trkpt>
      <trkpt lat="46.65847" lon="5.96085">
        <ele>760</ele>
        <time>2025-10-08T06:21:57.052+00:00</time>
      </trkpt>
      <trkpt lat="46.65845" lon="5.96076">
        <ele>760</ele>
        <time>2025-10-08T06:22:01.710+00:00</time>
      </trkpt>
      <trkpt lat="46.65843" lon="5.9607">
        <ele>760</ele>
        <time>2025-10-08T06:22:05.813+00:00</time>
      </trkpt>
      <trkpt lat="46.65841" lon="5.96064">
        <ele>760</ele>
        <time>2025-10-08T06:22:10.310+00:00</time>
      </trkpt>
      <trkpt lat="46.65839" lon="5.96059">
        <ele>760</ele>
        <time>2025-10-08T06:22:14.455+00:00</time>
      </trkpt>
      <trkpt lat="46.65839" lon="5.96056">
        <ele>760</ele>
        <time>2025-10-08T06:22:23.803+00:00</time>
      </trkpt>
      <trkpt lat="46.65839" lon="5.96055">
        <ele>760</ele>
        <time>2025-10-08T06:22:29.803+00:00</time>
      </trkpt>
      <trkpt lat="46.65839" lon="5.96053">
        <ele>760</ele>
        <time>2025-10-08T06:22:34.802+00:00</time>
      </trkpt>
      <trkpt lat="46.65841" lon="5.96044">
        <ele>760</ele>
        <time>2025-10-08T06:22:39.112+00:00</time>
      </trkpt>
      <trkpt lat="46.65839" lon="5.96038">
        <ele>759</ele>
        <time>2025-10-08T06:22:43.293+00:00</time>
      </trkpt>
      <trkpt lat="46.65837" lon="5.96031">
        <ele>759</ele>
        <time>2025-10-08T06:22:47.611+00:00</time>
      </trkpt>
      <trkpt lat="46.65834" lon="5.96024">
        <ele>759</ele>
        <time>2025-10-08T06:22:52.270+00:00</time>
      </trkpt>
      <trkpt lat="46.65831" lon="5.96017">
        <ele>759</ele>
        <time>2025-10-08T06:22:56.671+00:00</time>
      </trkpt>
      <trkpt lat="46.65828" lon="5.96009">
        <ele>758</ele>
        <time>2025-10-08T06:23:01.192+00:00</time>
      </trkpt>
      <trkpt lat="46.65826" lon="5.96002">
        <ele>758</ele>
        <time>2025-10-08T06:23:05.655+00:00</time>
      </trkpt>
      <trkpt lat="46.65824" lon="5.95996">
        <ele>758</ele>
        <time>2025-10-08T06:23:09.751+00:00</time>
      </trkpt>
      <trkpt lat="46.65822" lon="5.95989">
        <ele>758</ele>
        <time>2025-10-08T06:23:14.272+00:00</time>
      </trkpt>
      <trkpt lat="46.65822" lon="5.95983">
        <ele>757</ele>
        <time>2025-10-08T06:23:18.592+00:00</time>
      </trkpt>
      <trkpt lat="46.6582" lon="5.95976">
        <ele>757</ele>
        <time>2025-10-08T06:23:23.154+00:00</time>
      </trkpt>
      <trkpt lat="46.65819" lon="5.95968">
        <ele>756</ele>
        <time>2025-10-08T06:23:27.573+00:00</time>
      </trkpt>
      <trkpt lat="46.65818" lon="5.9596">
        <ele>756</ele>
        <time>2025-10-08T06:23:32.071+00:00</time>
      </trkpt>
      <trkpt lat="46.65817" lon="5.95953">
        <ele>756</ele>
        <time>2025-10-08T06:23:36.113+00:00</time>
      </trkpt>
      <trkpt lat="46.65817" lon="5.95946">
        <ele>756</ele>
        <time>2025-10-08T06:23:40.132+00:00</time>
      </trkpt>
      <trkpt lat="46.65817" lon="5.95939">
        <ele>756</ele>
        <time>2025-10-08T06:23:44.151+00:00</time>
      </trkpt>
      <trkpt lat="46.65817" lon="5.95931">
        <ele>756</ele>
        <time>2025-10-08T06:23:48.733+00:00</time>
      </trkpt>
      <trkpt lat="46.65818" lon="5.95923">
        <ele>755</ele>
        <time>2025-10-08T06:23:53.313+00:00</time>
      </trkpt>
      <trkpt lat="46.65819" lon="5.95915">
        <ele>755</ele>
        <time>2025-10-08T06:23:57.802+00:00</time>
      </trkpt>
      <trkpt lat="46.65821" lon="5.95908">
        <ele>757</ele>
        <time>2025-10-08T06:24:02.494+00:00</time>
      </trkpt>
      <trkpt lat="46.65821" lon="5.95901">
        <ele>755</ele>
        <time>2025-10-08T06:24:06.555+00:00</time>
      </trkpt>
      <trkpt lat="46.65822" lon="5.95895">
        <ele>755</ele>
        <time>2025-10-08T06:24:10.802+00:00</time>
      </trkpt>
      <trkpt lat="46.65824" lon="5.95887">
        <ele>755</ele>
        <time>2025-10-08T06:24:15.411+00:00</time>
      </trkpt>
      <trkpt lat="46.65824" lon="5.95878">
        <ele>755</ele>
        <time>2025-10-08T06:24:19.802+00:00</time>
      </trkpt>
      <trkpt lat="46.65825" lon="5.9587">
        <ele>755</ele>
        <time>2025-10-08T06:24:28.711+00:00</time>
      </trkpt>
      <trkpt lat="46.65825" lon="5.9587">
        <ele>755</ele>
        <time>2025-10-08T06:24:32.802+00:00</time>
      </trkpt>
      <trkpt lat="46.65824" lon="5.95871">
        <ele>755</ele>
        <time>2025-10-08T06:24:36.803+00:00</time>
      </trkpt>
      <trkpt lat="46.65819" lon="5.95872">
        <ele>751</ele>
        <time>2025-10-08T06:24:40.802+00:00</time>
      </trkpt>
      <trkpt lat="46.65817" lon="5.95866">
        <ele>751</ele>
        <time>2025-10-08T06:24:45.175+00:00</time>
      </trkpt>
      <trkpt lat="46.65815" lon="5.95858">
        <ele>751</ele>
        <time>2025-10-08T06:24:49.374+00:00</time>
      </trkpt>
      <trkpt lat="46.65816" lon="5.95847">
        <ele>751</ele>
        <time>2025-10-08T06:24:53.802+00:00</time>
      </trkpt>
      <trkpt lat="46.65817" lon="5.95838">
        <ele>751</ele>
        <time>2025-10-08T06:24:58.068+00:00</time>
      </trkpt>
      <trkpt lat="46.65818" lon="5.95829">
        <ele>751</ele>
        <time>2025-10-08T06:25:02.416+00:00</time>
      </trkpt>
      <trkpt lat="46.65818" lon="5.95821">
        <ele>751</ele>
        <time>2025-10-08T06:25:06.634+00:00</time>
      </trkpt>
      <trkpt lat="46.65817" lon="5.95813">
        <ele>751</ele>
        <time>2025-10-08T06:25:10.994+00:00</time>
      </trkpt>
      <trkpt lat="46.65817" lon="5.95805">
        <ele>751</ele>
        <time>2025-10-08T06:25:15.153+00:00</time>
      </trkpt>
      <trkpt lat="46.65816" lon="5.95796">
        <ele>751</ele>
        <time>2025-10-08T06:25:19.511+00:00</time>
      </trkpt>
      <trkpt lat="46.65815" lon="5.95789">
        <ele>751</ele>
        <time>2025-10-08T06:25:23.801+00:00</time>
      </trkpt>
      <trkpt lat="46.65815" lon="5.9578">
        <ele>751</ele>
        <time>2025-10-08T06:25:28.332+00:00</time>
      </trkpt>
      <trkpt lat="46.65813" lon="5.95772">
        <ele>751</ele>
        <time>2025-10-08T06:25:32.734+00:00</time>
      </trkpt>
      <trkpt lat="46.65811" lon="5.95765">
        <ele>751</ele>
        <time>2025-10-08T06:25:37.034+00:00</time>
      </trkpt>
      <trkpt lat="46.65809" lon="5.95757">
        <ele>751</ele>
        <time>2025-10-08T06:25:41.472+00:00</time>
      </trkpt>
      <trkpt lat="46.65806" lon="5.95751">
        <ele>751</ele>
        <time>2025-10-08T06:25:45.820+00:00</time>
      </trkpt>
      <trkpt lat="46.65802" lon="5.95743">
        <ele>751</ele>
        <time>2025-10-08T06:25:50.772+00:00</time>
      </trkpt>
      <trkpt lat="46.65798" lon="5.95737">
        <ele>751</ele>
        <time>2025-10-08T06:25:55.114+00:00</time>
      </trkpt>
      <trkpt lat="46.65795" lon="5.9573">
        <ele>752</ele>
        <time>2025-10-08T06:25:59.212+00:00</time>
      </trkpt>
      <trkpt lat="46.65792" lon="5.95724">
        <ele>752</ele>
        <time>2025-10-08T06:26:03.775+00:00</time>
      </trkpt>
      <trkpt lat="46.65789" lon="5.95718">
        <ele>753</ele>
        <time>2025-10-08T06:26:08.313+00:00</time>
      </trkpt>
      <trkpt lat="46.65785" lon="5.95712">
        <ele>753</ele>
        <time>2025-10-08T06:26:12.751+00:00</time>
      </trkpt>
      <trkpt lat="46.65781" lon="5.95707">
        <ele>755</ele>
        <time>2025-10-08T06:26:17.152+00:00</time>
      </trkpt>
      <trkpt lat="46.65778" lon="5.95701">
        <ele>755</ele>
        <time>2025-10-08T06:26:21.530+00:00</time>
      </trkpt>
      <trkpt lat="46.65774" lon="5.95695">
        <ele>755</ele>
        <time>2025-10-08T06:26:25.771+00:00</time>
      </trkpt>
      <trkpt lat="46.6577" lon="5.9569">
        <ele>755</ele>
        <time>2025-10-08T06:26:30.352+00:00</time>
      </trkpt>
      <trkpt lat="46.65767" lon="5.95685">
        <ele>755</ele>
        <time>2025-10-08T06:26:34.801+00:00</time>
      </trkpt>
      <trkpt lat="46.65763" lon="5.95679">
        <ele>758</ele>
        <time>2025-10-08T06:26:39.413+00:00</time>
      </trkpt>
      <trkpt lat="46.65759" lon="5.95672">
        <ele>758</ele>
        <time>2025-10-08T06:26:43.934+00:00</time>
      </trkpt>
      <trkpt lat="46.65755" lon="5.95666">
        <ele>758</ele>
        <time>2025-10-08T06:26:48.456+00:00</time>
      </trkpt>
      <trkpt lat="46.65752" lon="5.95661">
        <ele>758</ele>
        <time>2025-10-08T06:26:52.995+00:00</time>
      </trkpt>
      <trkpt lat="46.65748" lon="5.95656">
        <ele>758</ele>
        <time>2025-10-08T06:26:57.552+00:00</time>
      </trkpt>
      <trkpt lat="46.65744" lon="5.95652">
        <ele>757</ele>
        <time>2025-10-08T06:27:01.801+00:00</time>
      </trkpt>
      <trkpt lat="46.65741" lon="5.95647">
        <ele>757</ele>
        <time>2025-10-08T06:27:05.989+00:00</time>
      </trkpt>
      <trkpt lat="46.65738" lon="5.95641">
        <ele>757</ele>
        <time>2025-10-08T06:27:10.512+00:00</time>
      </trkpt>
      <trkpt lat="46.65735" lon="5.95635">
        <ele>758</ele>
        <time>2025-10-08T06:27:14.532+00:00</time>
      </trkpt>
      <trkpt lat="46.65732" lon="5.95629">
        <ele>758</ele>
        <time>2025-10-08T06:27:19.052+00:00</time>
      </trkpt>
      <trkpt lat="46.6573" lon="5.95622">
        <ele>757</ele>
        <time>2025-10-08T06:27:23.675+00:00</time>
      </trkpt>
      <trkpt lat="46.65728" lon="5.95617">
        <ele>757</ele>
        <time>2025-10-08T06:27:28.172+00:00</time>
      </trkpt>
      <trkpt lat="46.65725" lon="5.9561">
        <ele>757</ele>
        <time>2025-10-08T06:27:32.592+00:00</time>
      </trkpt>
      <trkpt lat="46.65723" lon="5.95604">
        <ele>757</ele>
        <time>2025-10-08T06:27:36.635+00:00</time>
      </trkpt>
      <trkpt lat="46.6572" lon="5.95598">
        <ele>757</ele>
        <time>2025-10-08T06:27:40.672+00:00</time>
      </trkpt>
      <trkpt lat="46.65716" lon="5.95591">
        <ele>756</ele>
        <time>2025-10-08T06:27:45.151+00:00</time>
      </trkpt>
      <trkpt lat="46.65713" lon="5.95585">
        <ele>756</ele>
        <time>2025-10-08T06:27:49.774+00:00</time>
      </trkpt>
      <trkpt lat="46.65711" lon="5.9558">
        <ele>756</ele>
        <time>2025-10-08T06:27:53.801+00:00</time>
      </trkpt>
      <trkpt lat="46.65709" lon="5.95573">
        <ele>756</ele>
        <time>2025-10-08T06:27:58.333+00:00</time>
      </trkpt>
      <trkpt lat="46.65708" lon="5.95567">
        <ele>756</ele>
        <time>2025-10-08T06:28:02.392+00:00</time>
      </trkpt>
      <trkpt lat="46.65706" lon="5.9556">
        <ele>756</ele>
        <time>2025-10-08T06:28:06.694+00:00</time>
      </trkpt>
      <trkpt lat="46.65704" lon="5.95553">
        <ele>756</ele>
        <time>2025-10-08T06:28:11.216+00:00</time>
      </trkpt>
      <trkpt lat="46.65702" lon="5.95547">
        <ele>756</ele>
        <time>2025-10-08T06:28:15.575+00:00</time>
      </trkpt>
      <trkpt lat="46.65701" lon="5.9554">
        <ele>756</ele>
        <time>2025-10-08T06:28:19.801+00:00</time>
      </trkpt>
      <trkpt lat="46.657" lon="5.95532">
        <ele>756</ele>
        <time>2025-10-08T06:28:24.353+00:00</time>
      </trkpt>
      <trkpt lat="46.65699" lon="5.95524">
        <ele>756</ele>
        <time>2025-10-08T06:28:28.801+00:00</time>
      </trkpt>
      <trkpt lat="46.65698" lon="5.95517">
        <ele>756</ele>
        <time>2025-10-08T06:28:32.894+00:00</time>
      </trkpt>
      <trkpt lat="46.65698" lon="5.95508">
        <ele>755</ele>
        <time>2025-10-08T06:28:37.613+00:00</time>
      </trkpt>
      <trkpt lat="46.65698" lon="5.95499">
        <ele>755</ele>
        <time>2025-10-08T06:28:42.032+00:00</time>
      </trkpt>
      <trkpt lat="46.65696" lon="5.95492">
        <ele>755</ele>
        <time>2025-10-08T06:28:46.801+00:00</time>
      </trkpt>
      <trkpt lat="46.65697" lon="5.95483">
        <ele>755</ele>
        <time>2025-10-08T06:28:51.417+00:00</time>
      </trkpt>
      <trkpt lat="46.65698" lon="5.95475">
        <ele>755</ele>
        <time>2025-10-08T06:28:55.972+00:00</time>
      </trkpt>
      <trkpt lat="46.65698" lon="5.95467">
        <ele>755</ele>
        <time>2025-10-08T06:29:00.282+00:00</time>
      </trkpt>
      <trkpt lat="46.65697" lon="5.9546">
        <ele>755</ele>
        <time>2025-10-08T06:29:04.663+00:00</time>
      </trkpt>
      <trkpt lat="46.65697" lon="5.95452">
        <ele>755</ele>
        <time>2025-10-08T06:29:08.975+00:00</time>
      </trkpt>
      <trkpt lat="46.65697" lon="5.95444">
        <ele>755</ele>
        <time>2025-10-08T06:29:13.497+00:00</time>
      </trkpt>
      <trkpt lat="46.65697" lon="5.95436">
        <ele>755</ele>
        <time>2025-10-08T06:29:18.062+00:00</time>
      </trkpt>
      <trkpt lat="46.65697" lon="5.95428">
        <ele>753</ele>
        <time>2025-10-08T06:29:22.336+00:00</time>
      </trkpt>
      <trkpt lat="46.65696" lon="5.9542">
        <ele>753</ele>
        <time>2025-10-08T06:29:26.499+00:00</time>
      </trkpt>
      <trkpt lat="46.65696" lon="5.95411">
        <ele>753</ele>
        <time>2025-10-08T06:29:30.816+00:00</time>
      </trkpt>
      <trkpt lat="46.65693" lon="5.95405">
        <ele>753</ele>
        <time>2025-10-08T06:29:35.278+00:00</time>
      </trkpt>
      <trkpt lat="46.65694" lon="5.95395">
        <ele>752</ele>
        <time>2025-10-08T06:29:39.503+00:00</time>
      </trkpt>
      <trkpt lat="46.65692" lon="5.95388">
        <ele>752</ele>
        <time>2025-10-08T06:29:43.805+00:00</time>
      </trkpt>
      <trkpt lat="46.65696" lon="5.95379">
        <ele>752</ele>
        <time>2025-10-08T06:29:48.059+00:00</time>
      </trkpt>
      <trkpt lat="46.65696" lon="5.95371">
        <ele>749</ele>
        <time>2025-10-08T06:29:52.376+00:00</time>
      </trkpt>
      <trkpt lat="46.65696" lon="5.95363">
        <ele>749</ele>
        <time>2025-10-08T06:29:56.778+00:00</time>
      </trkpt>
      <trkpt lat="46.65695" lon="5.95356">
        <ele>749</ele>
        <time>2025-10-08T06:30:00.798+00:00</time>
      </trkpt>
      <trkpt lat="46.65692" lon="5.95351">
        <ele>749</ele>
        <time>2025-10-08T06:30:04.801+00:00</time>
      </trkpt>
      <trkpt lat="46.65692" lon="5.95352">
        <ele>749</ele>
        <time>2025-10-08T06:31:16.801+00:00</time>
      </trkpt>
      <trkpt lat="46.65693" lon="5.9535">
        <ele>749</ele>
        <time>2025-10-08T06:31:21.802+00:00</time>
      </trkpt>
      <trkpt lat="46.65692" lon="5.95342">
        <ele>748</ele>
        <time>2025-10-08T06:31:25.801+00:00</time>
      </trkpt>
      <trkpt lat="46.65694" lon="5.95336">
        <ele>748</ele>
        <time>2025-10-08T06:31:30.515+00:00</time>
      </trkpt>
      <trkpt lat="46.65694" lon="5.95332">
        <ele>748</ele>
        <time>2025-10-08T06:31:34.801+00:00</time>
      </trkpt>
      <trkpt lat="46.65694" lon="5.95333">
        <ele>748</ele>
        <time>2025-10-08T06:31:49.557+00:00</time>
      </trkpt>
      <trkpt lat="46.65694" lon="5.95332">
        <ele>748</ele>
        <time>2025-10-08T06:31:53.802+00:00</time>
      </trkpt>
      <trkpt lat="46.65694" lon="5.95327">
        <ele>748</ele>
        <time>2025-10-08T06:31:58.723+00:00</time>
      </trkpt>
      <trkpt lat="46.65694" lon="5.95322">
        <ele>748</ele>
        <time>2025-10-08T06:32:02.798+00:00</time>
      </trkpt>
      <trkpt lat="46.65694" lon="5.95316">
        <ele>746</ele>
        <time>2025-10-08T06:32:07.237+00:00</time>
      </trkpt>
      <trkpt lat="46.65694" lon="5.9531">
        <ele>746</ele>
        <time>2025-10-08T06:32:11.462+00:00</time>
      </trkpt>
      <trkpt lat="46.65693" lon="5.95303">
        <ele>746</ele>
        <time>2025-10-08T06:32:15.804+00:00</time>
      </trkpt>
      <trkpt lat="46.65691" lon="5.95298">
        <ele>746</ele>
        <time>2025-10-08T06:32:20+00:00</time>
      </trkpt>
      <trkpt lat="46.65691" lon="5.95292">
        <ele>746</ele>
        <time>2025-10-08T06:32:24.017+00:00</time>
      </trkpt>
      <trkpt lat="46.6569" lon="5.95286">
        <ele>744</ele>
        <time>2025-10-08T06:32:28.035+00:00</time>
      </trkpt>
      <trkpt lat="46.65689" lon="5.95279">
        <ele>744</ele>
        <time>2025-10-08T06:32:32.513+00:00</time>
      </trkpt>
      <trkpt lat="46.65689" lon="5.95272">
        <ele>744</ele>
        <time>2025-10-08T06:32:36.920+00:00</time>
      </trkpt>
      <trkpt lat="46.6569" lon="5.95266">
        <ele>744</ele>
        <time>2025-10-08T06:32:41.233+00:00</time>
      </trkpt>
      <trkpt lat="46.65691" lon="5.9526">
        <ele>744</ele>
        <time>2025-10-08T06:32:45.415+00:00</time>
      </trkpt>
      <trkpt lat="46.65691" lon="5.95253">
        <ele>744</ele>
        <time>2025-10-08T06:32:49.627+00:00</time>
      </trkpt>
      <trkpt lat="46.65691" lon="5.95247">
        <ele>744</ele>
        <time>2025-10-08T06:32:53.802+00:00</time>
      </trkpt>
      <trkpt lat="46.65691" lon="5.95239">
        <ele>744</ele>
        <time>2025-10-08T06:32:58.194+00:00</time>
      </trkpt>
      <trkpt lat="46.65692" lon="5.95234">
        <ele>742</ele>
        <time>2025-10-08T06:33:02.256+00:00</time>
      </trkpt>
      <trkpt lat="46.65692" lon="5.95227">
        <ele>742</ele>
        <time>2025-10-08T06:33:06.555+00:00</time>
      </trkpt>
      <trkpt lat="46.65693" lon="5.9522">
        <ele>742</ele>
        <time>2025-10-08T06:33:10.942+00:00</time>
      </trkpt>
      <trkpt lat="46.65693" lon="5.95213">
        <ele>742</ele>
        <time>2025-10-08T06:33:15.242+00:00</time>
      </trkpt>
      <trkpt lat="46.65694" lon="5.95206">
        <ele>739</ele>
        <time>2025-10-08T06:33:19.753+00:00</time>
      </trkpt>
      <trkpt lat="46.65694" lon="5.95199">
        <ele>739</ele>
        <time>2025-10-08T06:33:24.139+00:00</time>
      </trkpt>
      <trkpt lat="46.65694" lon="5.95192">
        <ele>739</ele>
        <time>2025-10-08T06:33:28.321+00:00</time>
      </trkpt>
      <trkpt lat="46.65694" lon="5.95185">
        <ele>739</ele>
        <time>2025-10-08T06:33:32.577+00:00</time>
      </trkpt>
      <trkpt lat="46.65695" lon="5.95178">
        <ele>736</ele>
        <time>2025-10-08T06:33:36.774+00:00</time>
      </trkpt>
      <trkpt lat="46.65695" lon="5.95171">
        <ele>736</ele>
        <time>2025-10-08T06:33:40.535+00:00</time>
      </trkpt>
      <trkpt lat="46.65694" lon="5.95161">
        <ele>736</ele>
        <time>2025-10-08T06:33:49.801+00:00</time>
      </trkpt>
      <trkpt lat="46.65692" lon="5.95151">
        <ele>734</ele>
        <time>2025-10-08T06:33:54.801+00:00</time>
      </trkpt>
      <trkpt lat="46.65694" lon="5.95147">
        <ele>734</ele>
        <time>2025-10-08T06:33:59.807+00:00</time>
      </trkpt>
      <trkpt lat="46.65694" lon="5.95137">
        <ele>734</ele>
        <time>2025-10-08T06:34:03.801+00:00</time>
      </trkpt>
      <trkpt lat="46.65691" lon="5.95127">
        <ele>734</ele>
        <time>2025-10-08T06:34:08.801+00:00</time>
      </trkpt>
      <trkpt lat="46.65689" lon="5.95117">
        <ele>733</ele>
        <time>2025-10-08T06:34:13.820+00:00</time>
      </trkpt>
      <trkpt lat="46.65688" lon="5.95111">
        <ele>733</ele>
        <time>2025-10-08T06:34:18.080+00:00</time>
      </trkpt>
      <trkpt lat="46.65684" lon="5.95105">
        <ele>733</ele>
        <time>2025-10-08T06:34:22.399+00:00</time>
      </trkpt>
      <trkpt lat="46.65683" lon="5.95099">
        <ele>733</ele>
        <time>2025-10-08T06:34:26.700+00:00</time>
      </trkpt>
      <trkpt lat="46.65681" lon="5.95092">
        <ele>732</ele>
        <time>2025-10-08T06:34:30.976+00:00</time>
      </trkpt>
      <trkpt lat="46.6568" lon="5.95085">
        <ele>731</ele>
        <time>2025-10-08T06:34:35.240+00:00</time>
      </trkpt>
      <trkpt lat="46.65678" lon="5.95078">
        <ele>731</ele>
        <time>2025-10-08T06:34:39.540+00:00</time>
      </trkpt>
      <trkpt lat="46.65677" lon="5.95071">
        <ele>731</ele>
        <time>2025-10-08T06:34:43.798+00:00</time>
      </trkpt>
      <trkpt lat="46.65676" lon="5.95064">
        <ele>730</ele>
        <time>2025-10-08T06:34:48.055+00:00</time>
      </trkpt>
      <trkpt lat="46.65675" lon="5.95055">
        <ele>730</ele>
        <time>2025-10-08T06:34:52.236+00:00</time>
      </trkpt>
      <trkpt lat="46.65674" lon="5.95047">
        <ele>730</ele>
        <time>2025-10-08T06:34:56.524+00:00</time>
      </trkpt>
      <trkpt lat="46.65673" lon="5.9504">
        <ele>729</ele>
        <time>2025-10-08T06:35:00.801+00:00</time>
      </trkpt>
      <trkpt lat="46.65672" lon="5.95033">
        <ele>729</ele>
        <time>2025-10-08T06:35:05.076+00:00</time>
      </trkpt>
      <trkpt lat="46.6567" lon="5.95026">
        <ele>729</ele>
        <time>2025-10-08T06:35:09.359+00:00</time>
      </trkpt>
      <trkpt lat="46.65669" lon="5.95019">
        <ele>729</ele>
        <time>2025-10-08T06:35:13.600+00:00</time>
      </trkpt>
      <trkpt lat="46.65669" lon="5.95013">
        <ele>728</ele>
        <time>2025-10-08T06:35:17.801+00:00</time>
      </trkpt>
      <trkpt lat="46.65667" lon="5.95006">
        <ele>728</ele>
        <time>2025-10-08T06:35:22.600+00:00</time>
      </trkpt>
      <trkpt lat="46.65665" lon="5.94999">
        <ele>728</ele>
        <time>2025-10-08T06:35:26.801+00:00</time>
      </trkpt>
      <trkpt lat="46.65665" lon="5.94992">
        <ele>728</ele>
        <time>2025-10-08T06:35:31.157+00:00</time>
      </trkpt>
      <trkpt lat="46.65664" lon="5.94985">
        <ele>727</ele>
        <time>2025-10-08T06:35:35.440+00:00</time>
      </trkpt>
      <trkpt lat="46.65663" lon="5.94978">
        <ele>727</ele>
        <time>2025-10-08T06:35:39.680+00:00</time>
      </trkpt>
      <trkpt lat="46.65662" lon="5.9497">
        <ele>727</ele>
        <time>2025-10-08T06:35:43.801+00:00</time>
      </trkpt>
      <trkpt lat="46.65661" lon="5.9496">
        <ele>727</ele>
        <time>2025-10-08T06:35:48.800+00:00</time>
      </trkpt>
      <trkpt lat="46.65658" lon="5.94955">
        <ele>727</ele>
        <time>2025-10-08T06:35:53.117+00:00</time>
      </trkpt>
      <trkpt lat="46.65658" lon="5.94945">
        <ele>727</ele>
        <time>2025-10-08T06:35:57.284+00:00</time>
      </trkpt>
      <trkpt lat="46.65658" lon="5.94937">
        <ele>727</ele>
        <time>2025-10-08T06:36:01.420+00:00</time>
      </trkpt>
      <trkpt lat="46.65659" lon="5.94928">
        <ele>727</ele>
        <time>2025-10-08T06:36:05.660+00:00</time>
      </trkpt>
      <trkpt lat="46.65658" lon="5.9492">
        <ele>727</ele>
        <time>2025-10-08T06:36:09.755+00:00</time>
      </trkpt>
      <trkpt lat="46.65658" lon="5.94912">
        <ele>727</ele>
        <time>2025-10-08T06:36:14.089+00:00</time>
      </trkpt>
      <trkpt lat="46.65658" lon="5.94905">
        <ele>727</ele>
        <time>2025-10-08T06:36:18.329+00:00</time>
      </trkpt>
      <trkpt lat="46.65659" lon="5.94897">
        <ele>727</ele>
        <time>2025-10-08T06:36:22.612+00:00</time>
      </trkpt>
      <trkpt lat="46.65659" lon="5.94889">
        <ele>727</ele>
        <time>2025-10-08T06:36:26.800+00:00</time>
      </trkpt>
      <trkpt lat="46.65658" lon="5.94882">
        <ele>727</ele>
        <time>2025-10-08T06:36:31.110+00:00</time>
      </trkpt>
      <trkpt lat="46.65657" lon="5.94874">
        <ele>726</ele>
        <time>2025-10-08T06:36:35.333+00:00</time>
      </trkpt>
      <trkpt lat="46.65655" lon="5.94867">
        <ele>726</ele>
        <time>2025-10-08T06:36:39.675+00:00</time>
      </trkpt>
      <trkpt lat="46.65652" lon="5.94861">
        <ele>724</ele>
        <time>2025-10-08T06:36:43.950+00:00</time>
      </trkpt>
      <trkpt lat="46.65649" lon="5.94855">
        <ele>724</ele>
        <time>2025-10-08T06:36:48.668+00:00</time>
      </trkpt>
      <trkpt lat="46.65646" lon="5.94847">
        <ele>724</ele>
        <time>2025-10-08T06:36:53.053+00:00</time>
      </trkpt>
      <trkpt lat="46.65644" lon="5.9484">
        <ele>722</ele>
        <time>2025-10-08T06:36:57.336+00:00</time>
      </trkpt>
      <trkpt lat="46.65643" lon="5.94833">
        <ele>722</ele>
        <time>2025-10-08T06:37:01.636+00:00</time>
      </trkpt>
      <trkpt lat="46.65642" lon="5.94825">
        <ele>722</ele>
        <time>2025-10-08T06:37:05.952+00:00</time>
      </trkpt>
      <trkpt lat="46.6564" lon="5.94818">
        <ele>720</ele>
        <time>2025-10-08T06:37:10.296+00:00</time>
      </trkpt>
      <trkpt lat="46.65639" lon="5.94811">
        <ele>720</ele>
        <time>2025-10-08T06:37:14.656+00:00</time>
      </trkpt>
      <trkpt lat="46.65637" lon="5.94803">
        <ele>720</ele>
        <time>2025-10-08T06:37:19.075+00:00</time>
      </trkpt>
      <trkpt lat="46.65635" lon="5.94796">
        <ele>720</ele>
        <time>2025-10-08T06:37:23.800+00:00</time>
      </trkpt>
      <trkpt lat="46.65633" lon="5.94792">
        <ele>720</ele>
        <time>2025-10-08T06:37:27.800+00:00</time>
      </trkpt>
      <trkpt lat="46.65633" lon="5.94788">
        <ele>720</ele>
        <time>2025-10-08T06:37:32.068+00:00</time>
      </trkpt>
      <trkpt lat="46.65633" lon="5.94785">
        <ele>720</ele>
        <time>2025-10-08T06:37:36.275+00:00</time>
      </trkpt>
      <trkpt lat="46.65634" lon="5.94782">
        <ele>720</ele>
        <time>2025-10-08T06:37:40.531+00:00</time>
      </trkpt>
      <trkpt lat="46.65636" lon="5.94774">
        <ele>720</ele>
        <time>2025-10-08T06:37:45.096+00:00</time>
      </trkpt>
      <trkpt lat="46.65638" lon="5.94768">
        <ele>720</ele>
        <time>2025-10-08T06:37:49.276+00:00</time>
      </trkpt>
      <trkpt lat="46.6564" lon="5.94762">
        <ele>719</ele>
        <time>2025-10-08T06:37:53.653+00:00</time>
      </trkpt>
      <trkpt lat="46.65642" lon="5.94756">
        <ele>719</ele>
        <time>2025-10-08T06:37:58.090+00:00</time>
      </trkpt>
      <trkpt lat="46.65643" lon="5.9475">
        <ele>719</ele>
        <time>2025-10-08T06:38:02.329+00:00</time>
      </trkpt>
      <trkpt lat="46.65645" lon="5.94743">
        <ele>719</ele>
        <time>2025-10-08T06:38:06.732+00:00</time>
      </trkpt>
      <trkpt lat="46.65647" lon="5.94737">
        <ele>719</ele>
        <time>2025-10-08T06:38:11.211+00:00</time>
      </trkpt>
      <trkpt lat="46.6565" lon="5.94731">
        <ele>719</ele>
        <time>2025-10-08T06:38:15.690+00:00</time>
      </trkpt>
      <trkpt lat="46.65653" lon="5.94724">
        <ele>719</ele>
        <time>2025-10-08T06:38:20.630+00:00</time>
      </trkpt>
      <trkpt lat="46.65656" lon="5.94719">
        <ele>719</ele>
        <time>2025-10-08T06:38:25.075+00:00</time>
      </trkpt>
      <trkpt lat="46.6566" lon="5.94713">
        <ele>719</ele>
        <time>2025-10-08T06:38:29.093+00:00</time>
      </trkpt>
      <trkpt lat="46.65664" lon="5.94707">
        <ele>719</ele>
        <time>2025-10-08T06:38:33.496+00:00</time>
      </trkpt>
      <trkpt lat="46.65667" lon="5.94702">
        <ele>719</ele>
        <time>2025-10-08T06:38:37.769+00:00</time>
      </trkpt>
      <trkpt lat="46.65672" lon="5.94699">
        <ele>719</ele>
        <time>2025-10-08T06:38:41.992+00:00</time>
      </trkpt>
      <trkpt lat="46.65676" lon="5.94694">
        <ele>719</ele>
        <time>2025-10-08T06:38:46.250+00:00</time>
      </trkpt>
      <trkpt lat="46.65679" lon="5.94689">
        <ele>719</ele>
        <time>2025-10-08T06:38:50.379+00:00</time>
      </trkpt>
      <trkpt lat="46.65683" lon="5.94682">
        <ele>719</ele>
        <time>2025-10-08T06:38:54.536+00:00</time>
      </trkpt>
      <trkpt lat="46.65686" lon="5.94674">
        <ele>717</ele>
        <time>2025-10-08T06:38:59.390+00:00</time>
      </trkpt>
      <trkpt lat="46.65688" lon="5.94667">
        <ele>717</ele>
        <time>2025-10-08T06:39:03.800+00:00</time>
      </trkpt>
      <trkpt lat="46.65688" lon="5.94658">
        <ele>717</ele>
        <time>2025-10-08T06:39:08.491+00:00</time>
      </trkpt>
      <trkpt lat="46.65685" lon="5.9465">
        <ele>715</ele>
        <time>2025-10-08T06:39:12.809+00:00</time>
      </trkpt>
      <trkpt lat="46.65681" lon="5.94644">
        <ele>715</ele>
        <time>2025-10-08T06:39:17.297+00:00</time>
      </trkpt>
      <trkpt lat="46.65676" lon="5.94638">
        <ele>716</ele>
        <time>2025-10-08T06:39:21.716+00:00</time>
      </trkpt>
      <trkpt lat="46.65672" lon="5.94634">
        <ele>716</ele>
        <time>2025-10-08T06:39:25.905+00:00</time>
      </trkpt>
      <trkpt lat="46.65667" lon="5.9463">
        <ele>716</ele>
        <time>2025-10-08T06:39:29.975+00:00</time>
      </trkpt>
      <trkpt lat="46.65663" lon="5.94624">
        <ele>715</ele>
        <time>2025-10-08T06:39:34.453+00:00</time>
      </trkpt>
      <trkpt lat="46.65659" lon="5.94618">
        <ele>715</ele>
        <time>2025-10-08T06:39:38.871+00:00</time>
      </trkpt>
      <trkpt lat="46.65654" lon="5.94614">
        <ele>715</ele>
        <time>2025-10-08T06:39:43.351+00:00</time>
      </trkpt>
      <trkpt lat="46.65649" lon="5.9461">
        <ele>714</ele>
        <time>2025-10-08T06:39:47.800+00:00</time>
      </trkpt>
      <trkpt lat="46.65644" lon="5.94605">
        <ele>714</ele>
        <time>2025-10-08T06:39:52.232+00:00</time>
      </trkpt>
      <trkpt lat="46.6564" lon="5.94601">
        <ele>714</ele>
        <time>2025-10-08T06:39:56.729+00:00</time>
      </trkpt>
      <trkpt lat="46.65635" lon="5.94596">
        <ele>714</ele>
        <time>2025-10-08T06:40:01.132+00:00</time>
      </trkpt>
      <trkpt lat="46.65631" lon="5.9459">
        <ele>714</ele>
        <time>2025-10-08T06:40:05.611+00:00</time>
      </trkpt>
      <trkpt lat="46.65627" lon="5.94586">
        <ele>714</ele>
        <time>2025-10-08T06:40:09.731+00:00</time>
      </trkpt>
      <trkpt lat="46.65621" lon="5.94582">
        <ele>714</ele>
        <time>2025-10-08T06:40:13.955+00:00</time>
      </trkpt>
      <trkpt lat="46.65616" lon="5.94576">
        <ele>714</ele>
        <time>2025-10-08T06:40:18.016+00:00</time>
      </trkpt>
      <trkpt lat="46.65611" lon="5.94571">
        <ele>714</ele>
        <time>2025-10-08T06:40:22.037+00:00</time>
      </trkpt>
      <trkpt lat="46.65605" lon="5.94566">
        <ele>714</ele>
        <time>2025-10-08T06:40:26.216+00:00</time>
      </trkpt>
      <trkpt lat="46.65601" lon="5.94562">
        <ele>714</ele>
        <time>2025-10-08T06:40:30.336+00:00</time>
      </trkpt>
      <trkpt lat="46.65597" lon="5.94557">
        <ele>716</ele>
        <time>2025-10-08T06:40:34.550+00:00</time>
      </trkpt>
      <trkpt lat="46.65592" lon="5.94551">
        <ele>716</ele>
        <time>2025-10-08T06:40:38.790+00:00</time>
      </trkpt>
      <trkpt lat="46.65588" lon="5.94546">
        <ele>716</ele>
        <time>2025-10-08T06:40:42.936+00:00</time>
      </trkpt>
      <trkpt lat="46.65584" lon="5.94541">
        <ele>715</ele>
        <time>2025-10-08T06:40:47.373+00:00</time>
      </trkpt>
      <trkpt lat="46.65579" lon="5.94535">
        <ele>715</ele>
        <time>2025-10-08T06:40:51.809+00:00</time>
      </trkpt>
      <trkpt lat="46.65576" lon="5.94529">
        <ele>715</ele>
        <time>2025-10-08T06:40:56.255+00:00</time>
      </trkpt>
      <trkpt lat="46.65572" lon="5.94524">
        <ele>715</ele>
        <time>2025-10-08T06:41:00.349+00:00</time>
      </trkpt>
      <trkpt lat="46.65568" lon="5.9452">
        <ele>715</ele>
        <time>2025-10-08T06:41:04.768+00:00</time>
      </trkpt>
      <trkpt lat="46.65569" lon="5.94512">
        <ele>714</ele>
        <time>2025-10-08T06:41:09.573+00:00</time>
      </trkpt>
      <trkpt lat="46.65569" lon="5.94505">
        <ele>714</ele>
        <time>2025-10-08T06:41:14.035+00:00</time>
      </trkpt>
      <trkpt lat="46.65569" lon="5.94495">
        <ele>714</ele>
        <time>2025-10-08T06:41:18.632+00:00</time>
      </trkpt>
      <trkpt lat="46.65568" lon="5.94489">
        <ele>714</ele>
        <time>2025-10-08T06:41:22.801+00:00</time>
      </trkpt>
      <trkpt lat="46.65564" lon="5.94486">
        <ele>713</ele>
        <time>2025-10-08T06:41:27.395+00:00</time>
      </trkpt>
      <trkpt lat="46.65565" lon="5.94479">
        <ele>713</ele>
        <time>2025-10-08T06:41:31.800+00:00</time>
      </trkpt>
      <trkpt lat="46.65568" lon="5.94477">
        <ele>713</ele>
        <time>2025-10-08T06:41:40.800+00:00</time>
      </trkpt>
      <trkpt lat="46.65567" lon="5.94477">
        <ele>713</ele>
        <time>2025-10-08T06:41:46.800+00:00</time>
      </trkpt>
      <trkpt lat="46.65567" lon="5.94477">
        <ele>713</ele>
        <time>2025-10-08T06:41:51.215+00:00</time>
      </trkpt>
      <trkpt lat="46.65566" lon="5.9447">
        <ele>713</ele>
        <time>2025-10-08T06:41:55.668+00:00</time>
      </trkpt>
      <trkpt lat="46.65566" lon="5.9446">
        <ele>713</ele>
        <time>2025-10-08T06:42:00.173+00:00</time>
      </trkpt>
      <trkpt lat="46.65567" lon="5.94451">
        <ele>713</ele>
        <time>2025-10-08T06:42:04.516+00:00</time>
      </trkpt>
      <trkpt lat="46.65569" lon="5.94445">
        <ele>712</ele>
        <time>2025-10-08T06:42:08.636+00:00</time>
      </trkpt>
      <trkpt lat="46.65569" lon="5.94439">
        <ele>713</ele>
        <time>2025-10-08T06:42:12.672+00:00</time>
      </trkpt>
      <trkpt lat="46.65571" lon="5.94432">
        <ele>712</ele>
        <time>2025-10-08T06:42:16.800+00:00</time>
      </trkpt>
      <trkpt lat="46.65573" lon="5.94425">
        <ele>713</ele>
        <time>2025-10-08T06:42:21.050+00:00</time>
      </trkpt>
      <trkpt lat="46.65576" lon="5.94417">
        <ele>713</ele>
        <time>2025-10-08T06:42:25.632+00:00</time>
      </trkpt>
      <trkpt lat="46.65577" lon="5.94411">
        <ele>713</ele>
        <time>2025-10-08T06:42:29.795+00:00</time>
      </trkpt>
      <trkpt lat="46.65579" lon="5.94404">
        <ele>713</ele>
        <time>2025-10-08T06:42:33.816+00:00</time>
      </trkpt>
      <trkpt lat="46.65581" lon="5.94395">
        <ele>713</ele>
        <time>2025-10-08T06:42:38.292+00:00</time>
      </trkpt>
      <trkpt lat="46.65583" lon="5.94389">
        <ele>713</ele>
        <time>2025-10-08T06:42:42.329+00:00</time>
      </trkpt>
      <trkpt lat="46.65585" lon="5.94381">
        <ele>713</ele>
        <time>2025-10-08T06:42:46.800+00:00</time>
      </trkpt>
      <trkpt lat="46.65587" lon="5.94374">
        <ele>713</ele>
        <time>2025-10-08T06:42:51.150+00:00</time>
      </trkpt>
      <trkpt lat="46.65588" lon="5.94369">
        <ele>713</ele>
        <time>2025-10-08T06:42:55.253+00:00</time>
      </trkpt>
      <trkpt lat="46.6559" lon="5.94365">
        <ele>713</ele>
        <time>2025-10-08T06:42:59.631+00:00</time>
      </trkpt>
      <trkpt lat="46.65591" lon="5.94362">
        <ele>713</ele>
        <time>2025-10-08T06:43:01.800+00:00</time>
      </trkpt>
      <trkpt lat="46.65593" lon="5.94351">
        <ele>713</ele>
        <time>2025-10-08T06:43:11.114+00:00</time>
      </trkpt>
      <trkpt lat="46.65595" lon="5.94348">
        <ele>713</ele>
        <time>2025-10-08T06:43:15.338+00:00</time>
      </trkpt>
      <trkpt lat="46.65595" lon="5.94341">
        <ele>714</ele>
        <time>2025-10-08T06:43:19.801+00:00</time>
      </trkpt>
      <trkpt lat="46.65594" lon="5.94334">
        <ele>714</ele>
        <time>2025-10-08T06:43:24.554+00:00</time>
      </trkpt>
      <trkpt lat="46.65595" lon="5.94327">
        <ele>714</ele>
        <time>2025-10-08T06:43:29.035+00:00</time>
      </trkpt>
      <trkpt lat="46.65596" lon="5.94321">
        <ele>714</ele>
        <time>2025-10-08T06:43:33.118+00:00</time>
      </trkpt>
      <trkpt lat="46.65597" lon="5.94314">
        <ele>714</ele>
        <time>2025-10-08T06:43:37.198+00:00</time>
      </trkpt>
      <trkpt lat="46.65597" lon="5.94309">
        <ele>714</ele>
        <time>2025-10-08T06:43:41.216+00:00</time>
      </trkpt>
      <trkpt lat="46.65596" lon="5.94302">
        <ele>714</ele>
        <time>2025-10-08T06:43:45.472+00:00</time>
      </trkpt>
      <trkpt lat="46.65593" lon="5.94295">
        <ele>714</ele>
        <time>2025-10-08T06:43:50.038+00:00</time>
      </trkpt>
      <trkpt lat="46.65589" lon="5.94291">
        <ele>715</ele>
        <time>2025-10-08T06:43:54.252+00:00</time>
      </trkpt>
      <trkpt lat="46.65585" lon="5.94285">
        <ele>715</ele>
        <time>2025-10-08T06:43:58.800+00:00</time>
      </trkpt>
      <trkpt lat="46.65582" lon="5.94278">
        <ele>715</ele>
        <time>2025-10-08T06:44:03.417+00:00</time>
      </trkpt>
      <trkpt lat="46.65578" lon="5.94271">
        <ele>715</ele>
        <time>2025-10-08T06:44:07.983+00:00</time>
      </trkpt>
      <trkpt lat="46.65575" lon="5.94264">
        <ele>715</ele>
        <time>2025-10-08T06:44:12.559+00:00</time>
      </trkpt>
      <trkpt lat="46.65572" lon="5.94258">
        <ele>715</ele>
        <time>2025-10-08T06:44:16.723+00:00</time>
      </trkpt>
      <trkpt lat="46.65569" lon="5.94251">
        <ele>712</ele>
        <time>2025-10-08T06:44:21.280+00:00</time>
      </trkpt>
      <trkpt lat="46.65566" lon="5.94245">
        <ele>712</ele>
        <time>2025-10-08T06:44:25.800+00:00</time>
      </trkpt>
      <trkpt lat="46.65562" lon="5.94237">
        <ele>712</ele>
        <time>2025-10-08T06:44:30.359+00:00</time>
      </trkpt>
      <trkpt lat="46.6556" lon="5.94231">
        <ele>713</ele>
        <time>2025-10-08T06:44:34.401+00:00</time>
      </trkpt>
      <trkpt lat="46.65557" lon="5.94224">
        <ele>713</ele>
        <time>2025-10-08T06:44:38.800+00:00</time>
      </trkpt>
      <trkpt lat="46.65554" lon="5.94218">
        <ele>713</ele>
        <time>2025-10-08T06:44:42.800+00:00</time>
      </trkpt>
      <trkpt lat="46.6555" lon="5.94211">
        <ele>713</ele>
        <time>2025-10-08T06:44:47.464+00:00</time>
      </trkpt>
      <trkpt lat="46.65548" lon="5.94204">
        <ele>713</ele>
        <time>2025-10-08T06:44:51.983+00:00</time>
      </trkpt>
      <trkpt lat="46.65545" lon="5.94197">
        <ele>713</ele>
        <time>2025-10-08T06:44:56.472+00:00</time>
      </trkpt>
      <trkpt lat="46.65543" lon="5.9419">
        <ele>713</ele>
        <time>2025-10-08T06:45:00.518+00:00</time>
      </trkpt>
      <trkpt lat="46.6554" lon="5.94183">
        <ele>712</ele>
        <time>2025-10-08T06:45:05.061+00:00</time>
      </trkpt>
      <trkpt lat="46.65538" lon="5.94175">
        <ele>713</ele>
        <time>2025-10-08T06:45:09.639+00:00</time>
      </trkpt>
      <trkpt lat="46.65535" lon="5.94169">
        <ele>713</ele>
        <time>2025-10-08T06:45:13.800+00:00</time>
      </trkpt>
      <trkpt lat="46.65536" lon="5.94165">
        <ele>713</ele>
        <time>2025-10-08T06:45:18.078+00:00</time>
      </trkpt>
      <trkpt lat="46.65534" lon="5.94158">
        <ele>713</ele>
        <time>2025-10-08T06:45:22.557+00:00</time>
      </trkpt>
      <trkpt lat="46.6553" lon="5.9415">
        <ele>715</ele>
        <time>2025-10-08T06:45:27.057+00:00</time>
      </trkpt>
      <trkpt lat="46.65528" lon="5.94144">
        <ele>715</ele>
        <time>2025-10-08T06:45:31.219+00:00</time>
      </trkpt>
      <trkpt lat="46.65525" lon="5.94138">
        <ele>715</ele>
        <time>2025-10-08T06:45:35.792+00:00</time>
      </trkpt>
      <trkpt lat="46.65521" lon="5.94132">
        <ele>715</ele>
        <time>2025-10-08T06:45:40.358+00:00</time>
      </trkpt>
      <trkpt lat="46.65517" lon="5.94127">
        <ele>715</ele>
        <time>2025-10-08T06:45:44.813+00:00</time>
      </trkpt>
      <trkpt lat="46.65512" lon="5.94122">
        <ele>716</ele>
        <time>2025-10-08T06:45:49.352+00:00</time>
      </trkpt>
      <trkpt lat="46.65508" lon="5.94117">
        <ele>716</ele>
        <time>2025-10-08T06:45:53.799+00:00</time>
      </trkpt>
      <trkpt lat="46.65502" lon="5.94114">
        <ele>716</ele>
        <time>2025-10-08T06:45:58.277+00:00</time>
      </trkpt>
      <trkpt lat="46.65497" lon="5.9411">
        <ele>716</ele>
        <time>2025-10-08T06:46:02.739+00:00</time>
      </trkpt>
      <trkpt lat="46.65492" lon="5.94106">
        <ele>716</ele>
        <time>2025-10-08T06:46:07.177+00:00</time>
      </trkpt>
      <trkpt lat="46.65488" lon="5.94104">
        <ele>716</ele>
        <time>2025-10-08T06:46:11.195+00:00</time>
      </trkpt>
      <trkpt lat="46.65486" lon="5.94099">
        <ele>718</ele>
        <time>2025-10-08T06:46:15.799+00:00</time>
      </trkpt>
      <trkpt lat="46.65482" lon="5.94099">
        <ele>718</ele>
        <time>2025-10-08T06:46:20.300+00:00</time>
      </trkpt>
      <trkpt lat="46.65479" lon="5.94098">
        <ele>718</ele>
        <time>2025-10-08T06:46:24.618+00:00</time>
      </trkpt>
      <trkpt lat="46.65477" lon="5.94099">
        <ele>718</ele>
        <time>2025-10-08T06:46:28.799+00:00</time>
      </trkpt>
      <trkpt lat="46.65476" lon="5.94098">
        <ele>718</ele>
        <time>2025-10-08T06:46:33.535+00:00</time>
      </trkpt>
      <trkpt lat="46.65469" lon="5.94101">
        <ele>718</ele>
        <time>2025-10-08T06:46:37.579+00:00</time>
      </trkpt>
      <trkpt lat="46.65464" lon="5.94103">
        <ele>718</ele>
        <time>2025-10-08T06:46:41.777+00:00</time>
      </trkpt>
      <trkpt lat="46.65456" lon="5.941">
        <ele>720</ele>
        <time>2025-10-08T06:46:59.799+00:00</time>
      </trkpt>
      <trkpt lat="46.65455" lon="5.94101">
        <ele>720</ele>
        <time>2025-10-08T06:47:04.780+00:00</time>
      </trkpt>
      <trkpt lat="46.65451" lon="5.94098">
        <ele>720</ele>
        <time>2025-10-08T06:47:09.175+00:00</time>
      </trkpt>
      <trkpt lat="46.65449" lon="5.94087">
        <ele>723</ele>
        <time>2025-10-08T06:47:13.516+00:00</time>
      </trkpt>
      <trkpt lat="46.65447" lon="5.9408">
        <ele>723</ele>
        <time>2025-10-08T06:47:17.799+00:00</time>
      </trkpt>
      <trkpt lat="46.65447" lon="5.94078">
        <ele>723</ele>
        <time>2025-10-08T06:47:22.477+00:00</time>
      </trkpt>
      <trkpt lat="46.65445" lon="5.94076">
        <ele>723</ele>
        <time>2025-10-08T06:47:26.554+00:00</time>
      </trkpt>
      <trkpt lat="46.65444" lon="5.9407">
        <ele>723</ele>
        <time>2025-10-08T06:47:31.239+00:00</time>
      </trkpt>
      <trkpt lat="46.65443" lon="5.94064">
        <ele>722</ele>
        <time>2025-10-08T06:47:35.752+00:00</time>
      </trkpt>
      <trkpt lat="46.65443" lon="5.94057">
        <ele>722</ele>
        <time>2025-10-08T06:47:40.258+00:00</time>
      </trkpt>
      <trkpt lat="46.65443" lon="5.94051">
        <ele>722</ele>
        <time>2025-10-08T06:47:44.754+00:00</time>
      </trkpt>
      <trkpt lat="46.65442" lon="5.94044">
        <ele>722</ele>
        <time>2025-10-08T06:47:49.275+00:00</time>
      </trkpt>
      <trkpt lat="46.65439" lon="5.94041">
        <ele>723</ele>
        <time>2025-10-08T06:47:53.636+00:00</time>
      </trkpt>
      <trkpt lat="46.65437" lon="5.94036">
        <ele>723</ele>
        <time>2025-10-08T06:47:58.337+00:00</time>
      </trkpt>
      <trkpt lat="46.65434" lon="5.94031">
        <ele>723</ele>
        <time>2025-10-08T06:48:02.799+00:00</time>
      </trkpt>
      <trkpt lat="46.65431" lon="5.94028">
        <ele>723</ele>
        <time>2025-10-08T06:48:07.135+00:00</time>
      </trkpt>
      <trkpt lat="46.65429" lon="5.94023">
        <ele>725</ele>
        <time>2025-10-08T06:48:11.333+00:00</time>
      </trkpt>
      <trkpt lat="46.65426" lon="5.94019">
        <ele>725</ele>
        <time>2025-10-08T06:48:15.799+00:00</time>
      </trkpt>
      <trkpt lat="46.65422" lon="5.94015">
        <ele>725</ele>
        <time>2025-10-08T06:48:20.800+00:00</time>
      </trkpt>
      <trkpt lat="46.65419" lon="5.94011">
        <ele>728</ele>
        <time>2025-10-08T06:48:25.777+00:00</time>
      </trkpt>
      <trkpt lat="46.65416" lon="5.94007">
        <ele>728</ele>
        <time>2025-10-08T06:48:29.800+00:00</time>
      </trkpt>
      <trkpt lat="46.65413" lon="5.94002">
        <ele>728</ele>
        <time>2025-10-08T06:48:34.736+00:00</time>
      </trkpt>
      <trkpt lat="46.65411" lon="5.93998">
        <ele>728</ele>
        <time>2025-10-08T06:48:39.216+00:00</time>
      </trkpt>
      <trkpt lat="46.65408" lon="5.93994">
        <ele>728</ele>
        <time>2025-10-08T06:48:43.379+00:00</time>
      </trkpt>
      <trkpt lat="46.65405" lon="5.9399">
        <ele>728</ele>
        <time>2025-10-08T06:48:47.822+00:00</time>
      </trkpt>
      <trkpt lat="46.65403" lon="5.93986">
        <ele>732</ele>
        <time>2025-10-08T06:48:52.433+00:00</time>
      </trkpt>
      <trkpt lat="46.654" lon="5.93982">
        <ele>738</ele>
        <time>2025-10-08T06:48:56.997+00:00</time>
      </trkpt>
      <trkpt lat="46.65398" lon="5.93977">
        <ele>738</ele>
        <time>2025-10-08T06:49:01.135+00:00</time>
      </trkpt>
      <trkpt lat="46.65395" lon="5.93973">
        <ele>738</ele>
        <time>2025-10-08T06:49:05.239+00:00</time>
      </trkpt>
      <trkpt lat="46.65392" lon="5.93969">
        <ele>738</ele>
        <time>2025-10-08T06:49:09.539+00:00</time>
      </trkpt>
      <trkpt lat="46.65388" lon="5.93965">
        <ele>738</ele>
        <time>2025-10-08T06:49:14.080+00:00</time>
      </trkpt>
      <trkpt lat="46.65384" lon="5.93961">
        <ele>738</ele>
        <time>2025-10-08T06:49:18.396+00:00</time>
      </trkpt>
      <trkpt lat="46.6538" lon="5.93957">
        <ele>740</ele>
        <time>2025-10-08T06:49:22.799+00:00</time>
      </trkpt>
      <trkpt lat="46.6538" lon="5.93957">
        <ele>740</ele>
        <time>2025-10-08T06:49:27.594+00:00</time>
      </trkpt>
      <trkpt lat="46.65377" lon="5.93954">
        <ele>740</ele>
        <time>2025-10-08T06:49:31.741+00:00</time>
      </trkpt>
      <trkpt lat="46.65372" lon="5.93948">
        <ele>741</ele>
        <time>2025-10-08T06:49:36.177+00:00</time>
      </trkpt>
      <trkpt lat="46.65369" lon="5.93944">
        <ele>741</ele>
        <time>2025-10-08T06:49:40.213+00:00</time>
      </trkpt>
      <trkpt lat="46.65365" lon="5.9394">
        <ele>741</ele>
        <time>2025-10-08T06:49:44.799+00:00</time>
      </trkpt>
      <trkpt lat="46.65361" lon="5.93935">
        <ele>741</ele>
        <time>2025-10-08T06:49:49.018+00:00</time>
      </trkpt>
      <trkpt lat="46.65356" lon="5.93931">
        <ele>741</ele>
        <time>2025-10-08T06:49:53.736+00:00</time>
      </trkpt>
      <trkpt lat="46.65351" lon="5.93928">
        <ele>740</ele>
        <time>2025-10-08T06:49:57.976+00:00</time>
      </trkpt>
      <trkpt lat="46.65346" lon="5.93924">
        <ele>742</ele>
        <time>2025-10-08T06:50:02.576+00:00</time>
      </trkpt>
      <trkpt lat="46.65341" lon="5.93921">
        <ele>742</ele>
        <time>2025-10-08T06:50:06.739+00:00</time>
      </trkpt>
      <trkpt lat="46.65337" lon="5.93918">
        <ele>742</ele>
        <time>2025-10-08T06:50:10.757+00:00</time>
      </trkpt>
      <trkpt lat="46.65331" lon="5.93914">
        <ele>742</ele>
        <time>2025-10-08T06:50:15.799+00:00</time>
      </trkpt>
      <trkpt lat="46.65326" lon="5.93909">
        <ele>742</ele>
        <time>2025-10-08T06:50:19.998+00:00</time>
      </trkpt>
      <trkpt lat="46.65323" lon="5.93904">
        <ele>742</ele>
        <time>2025-10-08T06:50:24.179+00:00</time>
      </trkpt>
      <trkpt lat="46.65319" lon="5.939">
        <ele>742</ele>
        <time>2025-10-08T06:50:28.436+00:00</time>
      </trkpt>
      <trkpt lat="46.65315" lon="5.93895">
        <ele>742</ele>
        <time>2025-10-08T06:50:32.557+00:00</time>
      </trkpt>
      <trkpt lat="46.65312" lon="5.9389">
        <ele>742</ele>
        <time>2025-10-08T06:50:36.620+00:00</time>
      </trkpt>
      <trkpt lat="46.65308" lon="5.93886">
        <ele>742</ele>
        <time>2025-10-08T06:50:40.799+00:00</time>
      </trkpt>
      <trkpt lat="46.65304" lon="5.93882">
        <ele>742</ele>
        <time>2025-10-08T06:50:44.913+00:00</time>
      </trkpt>
      <trkpt lat="46.653" lon="5.93878">
        <ele>742</ele>
        <time>2025-10-08T06:50:49.214+00:00</time>
      </trkpt>
      <trkpt lat="46.65295" lon="5.93875">
        <ele>739</ele>
        <time>2025-10-08T06:50:53.800+00:00</time>
      </trkpt>
      <trkpt lat="46.6529" lon="5.93871">
        <ele>740</ele>
        <time>2025-10-08T06:50:58.538+00:00</time>
      </trkpt>
      <trkpt lat="46.65285" lon="5.93867">
        <ele>740</ele>
        <time>2025-10-08T06:51:03.127+00:00</time>
      </trkpt>
      <trkpt lat="46.6528" lon="5.93864">
        <ele>740</ele>
        <time>2025-10-08T06:51:07.718+00:00</time>
      </trkpt>
      <trkpt lat="46.65275" lon="5.93861">
        <ele>740</ele>
        <time>2025-10-08T06:51:11.754+00:00</time>
      </trkpt>
      <trkpt lat="46.65271" lon="5.93858">
        <ele>740</ele>
        <time>2025-10-08T06:51:15.800+00:00</time>
      </trkpt>
      <trkpt lat="46.65266" lon="5.93855">
        <ele>740</ele>
        <time>2025-10-08T06:51:20.158+00:00</time>
      </trkpt>
      <trkpt lat="46.65262" lon="5.93851">
        <ele>745</ele>
        <time>2025-10-08T06:51:24.178+00:00</time>
      </trkpt>
      <trkpt lat="46.65257" lon="5.93847">
        <ele>745</ele>
        <time>2025-10-08T06:51:28.734+00:00</time>
      </trkpt>
      <trkpt lat="46.65253" lon="5.93843">
        <ele>739</ele>
        <time>2025-10-08T06:51:32.799+00:00</time>
      </trkpt>
      <trkpt lat="46.65249" lon="5.93838">
        <ele>739</ele>
        <time>2025-10-08T06:51:37.129+00:00</time>
      </trkpt>
      <trkpt lat="46.65245" lon="5.93834">
        <ele>739</ele>
        <time>2025-10-08T06:51:41.369+00:00</time>
      </trkpt>
      <trkpt lat="46.65241" lon="5.9383">
        <ele>739</ele>
        <time>2025-10-08T06:51:45.414+00:00</time>
      </trkpt>
      <trkpt lat="46.65238" lon="5.93828">
        <ele>739</ele>
        <time>2025-10-08T06:51:49.474+00:00</time>
      </trkpt>
      <trkpt lat="46.65234" lon="5.93824">
        <ele>745</ele>
        <time>2025-10-08T06:51:53.555+00:00</time>
      </trkpt>
      <trkpt lat="46.6523" lon="5.9382">
        <ele>745</ele>
        <time>2025-10-08T06:51:57.734+00:00</time>
      </trkpt>
      <trkpt lat="46.65226" lon="5.93818">
        <ele>741</ele>
        <time>2025-10-08T06:52:01.752+00:00</time>
      </trkpt>
      <trkpt lat="46.65222" lon="5.93815">
        <ele>741</ele>
        <time>2025-10-08T06:52:05.814+00:00</time>
      </trkpt>
      <trkpt lat="46.65218" lon="5.93811">
        <ele>741</ele>
        <time>2025-10-08T06:52:10.114+00:00</time>
      </trkpt>
      <trkpt lat="46.65214" lon="5.93806">
        <ele>741</ele>
        <time>2025-10-08T06:52:14.354+00:00</time>
      </trkpt>
      <trkpt lat="46.65211" lon="5.93802">
        <ele>741</ele>
        <time>2025-10-08T06:52:18.553+00:00</time>
      </trkpt>
      <trkpt lat="46.65207" lon="5.93796">
        <ele>746</ele>
        <time>2025-10-08T06:52:22.630+00:00</time>
      </trkpt>
      <trkpt lat="46.65203" lon="5.93792">
        <ele>746</ele>
        <time>2025-10-08T06:52:26.799+00:00</time>
      </trkpt>
      <trkpt lat="46.652" lon="5.93788">
        <ele>742</ele>
        <time>2025-10-08T06:52:30.799+00:00</time>
      </trkpt>
      <trkpt lat="46.65197" lon="5.93784">
        <ele>742</ele>
        <time>2025-10-08T06:52:35.233+00:00</time>
      </trkpt>
      <trkpt lat="46.65193" lon="5.93781">
        <ele>742</ele>
        <time>2025-10-08T06:52:39.551+00:00</time>
      </trkpt>
      <trkpt lat="46.65188" lon="5.93777">
        <ele>742</ele>
        <time>2025-10-08T06:52:44.132+00:00</time>
      </trkpt>
      <trkpt lat="46.65183" lon="5.93774">
        <ele>742</ele>
        <time>2025-10-08T06:52:48.151+00:00</time>
      </trkpt>
      <trkpt lat="46.65178" lon="5.93771">
        <ele>747</ele>
        <time>2025-10-08T06:52:52.799+00:00</time>
      </trkpt>
      <trkpt lat="46.65174" lon="5.93767">
        <ele>747</ele>
        <time>2025-10-08T06:52:57.315+00:00</time>
      </trkpt>
      <trkpt lat="46.6517" lon="5.93761">
        <ele>742</ele>
        <time>2025-10-08T06:53:01.350+00:00</time>
      </trkpt>
      <trkpt lat="46.65167" lon="5.93755">
        <ele>742</ele>
        <time>2025-10-08T06:53:05.513+00:00</time>
      </trkpt>
      <trkpt lat="46.65164" lon="5.9375">
        <ele>742</ele>
        <time>2025-10-08T06:53:09.576+00:00</time>
      </trkpt>
      <trkpt lat="46.65161" lon="5.93744">
        <ele>742</ele>
        <time>2025-10-08T06:53:13.713+00:00</time>
      </trkpt>
      <trkpt lat="46.65158" lon="5.93737">
        <ele>742</ele>
        <time>2025-10-08T06:53:17.799+00:00</time>
      </trkpt>
      <trkpt lat="46.65156" lon="5.9373">
        <ele>737</ele>
        <time>2025-10-08T06:53:22.470+00:00</time>
      </trkpt>
      <trkpt lat="46.65153" lon="5.93723">
        <ele>737</ele>
        <time>2025-10-08T06:53:26.553+00:00</time>
      </trkpt>
      <trkpt lat="46.6515" lon="5.93715">
        <ele>740</ele>
        <time>2025-10-08T06:53:31.093+00:00</time>
      </trkpt>
      <trkpt lat="46.65147" lon="5.9371">
        <ele>740</ele>
        <time>2025-10-08T06:53:35.129+00:00</time>
      </trkpt>
      <trkpt lat="46.65143" lon="5.93704">
        <ele>736</ele>
        <time>2025-10-08T06:53:39.651+00:00</time>
      </trkpt>
      <trkpt lat="46.65139" lon="5.93698">
        <ele>736</ele>
        <time>2025-10-08T06:53:44.190+00:00</time>
      </trkpt>
      <trkpt lat="46.65136" lon="5.93692">
        <ele>736</ele>
        <time>2025-10-08T06:53:48.800+00:00</time>
      </trkpt>
      <trkpt lat="46.65133" lon="5.93684">
        <ele>736</ele>
        <time>2025-10-08T06:53:53.294+00:00</time>
      </trkpt>
      <trkpt lat="46.65131" lon="5.93676">
        <ele>736</ele>
        <time>2025-10-08T06:53:57.800+00:00</time>
      </trkpt>
      <trkpt lat="46.65127" lon="5.93671">
        <ele>736</ele>
        <time>2025-10-08T06:54:02.047+00:00</time>
      </trkpt>
      <trkpt lat="46.65123" lon="5.93665">
        <ele>740</ele>
        <time>2025-10-08T06:54:06.629+00:00</time>
      </trkpt>
      <trkpt lat="46.65119" lon="5.93661">
        <ele>740</ele>
        <time>2025-10-08T06:54:10.799+00:00</time>
      </trkpt>
      <trkpt lat="46.65116" lon="5.93657">
        <ele>740</ele>
        <time>2025-10-08T06:54:14.799+00:00</time>
      </trkpt>
      <trkpt lat="46.65111" lon="5.93651">
        <ele>739</ele>
        <time>2025-10-08T06:54:19.751+00:00</time>
      </trkpt>
      <trkpt lat="46.65107" lon="5.93648">
        <ele>739</ele>
        <time>2025-10-08T06:54:24.153+00:00</time>
      </trkpt>
      <trkpt lat="46.65102" lon="5.93647">
        <ele>739</ele>
        <time>2025-10-08T06:54:28.292+00:00</time>
      </trkpt>
      <trkpt lat="46.65098" lon="5.93647">
        <ele>739</ele>
        <time>2025-10-08T06:54:32.799+00:00</time>
      </trkpt>
      <trkpt lat="46.65092" lon="5.93649">
        <ele>741</ele>
        <time>2025-10-08T06:54:37.668+00:00</time>
      </trkpt>
      <trkpt lat="46.65088" lon="5.93652">
        <ele>741</ele>
        <time>2025-10-08T06:54:41.799+00:00</time>
      </trkpt>
      <trkpt lat="46.65083" lon="5.93653">
        <ele>743</ele>
        <time>2025-10-08T06:54:46.268+00:00</time>
      </trkpt>
      <trkpt lat="46.65077" lon="5.93655">
        <ele>743</ele>
        <time>2025-10-08T06:54:50.551+00:00</time>
      </trkpt>
      <trkpt lat="46.65071" lon="5.93656">
        <ele>743</ele>
        <time>2025-10-08T06:54:55.252+00:00</time>
      </trkpt>
      <trkpt lat="46.65066" lon="5.93656">
        <ele>745</ele>
        <time>2025-10-08T06:54:59.798+00:00</time>
      </trkpt>
      <trkpt lat="46.6506" lon="5.93655">
        <ele>745</ele>
        <time>2025-10-08T06:55:03.869+00:00</time>
      </trkpt>
      <trkpt lat="46.65055" lon="5.93652">
        <ele>741</ele>
        <time>2025-10-08T06:55:08.451+00:00</time>
      </trkpt>
      <trkpt lat="46.65049" lon="5.93648">
        <ele>741</ele>
        <time>2025-10-08T06:55:12.793+00:00</time>
      </trkpt>
      <trkpt lat="46.65044" lon="5.93646">
        <ele>741</ele>
        <time>2025-10-08T06:55:16.799+00:00</time>
      </trkpt>
      <trkpt lat="46.65039" lon="5.93642">
        <ele>743</ele>
        <time>2025-10-08T06:55:21.590+00:00</time>
      </trkpt>
      <trkpt lat="46.65034" lon="5.93637">
        <ele>743</ele>
        <time>2025-10-08T06:55:25.799+00:00</time>
      </trkpt>
      <trkpt lat="46.65029" lon="5.93634">
        <ele>743</ele>
        <time>2025-10-08T06:55:30.292+00:00</time>
      </trkpt>
      <trkpt lat="46.65025" lon="5.93632">
        <ele>743</ele>
        <time>2025-10-08T06:55:34.490+00:00</time>
      </trkpt>
      <trkpt lat="46.65021" lon="5.93633">
        <ele>743</ele>
        <time>2025-10-08T06:55:38.799+00:00</time>
      </trkpt>
      <trkpt lat="46.65016" lon="5.93635">
        <ele>743</ele>
        <time>2025-10-08T06:55:43.415+00:00</time>
      </trkpt>
      <trkpt lat="46.65012" lon="5.93637">
        <ele>743</ele>
        <time>2025-10-08T06:55:47.798+00:00</time>
      </trkpt>
      <trkpt lat="46.65008" lon="5.93638">
        <ele>743</ele>
        <time>2025-10-08T06:55:52.133+00:00</time>
      </trkpt>
      <trkpt lat="46.65003" lon="5.9364">
        <ele>743</ele>
        <time>2025-10-08T06:55:56.659+00:00</time>
      </trkpt>
      <trkpt lat="46.64998" lon="5.93641">
        <ele>743</ele>
        <time>2025-10-08T06:56:00.798+00:00</time>
      </trkpt>
      <trkpt lat="46.64992" lon="5.93642">
        <ele>743</ele>
        <time>2025-10-08T06:56:05.798+00:00</time>
      </trkpt>
      <trkpt lat="46.64987" lon="5.93643">
        <ele>743</ele>
        <time>2025-10-08T06:56:10.451+00:00</time>
      </trkpt>
      <trkpt lat="46.64982" lon="5.93644">
        <ele>742</ele>
        <time>2025-10-08T06:56:14.798+00:00</time>
      </trkpt>
      <trkpt lat="46.64976" lon="5.93645">
        <ele>742</ele>
        <time>2025-10-08T06:56:19.799+00:00</time>
      </trkpt>
      <trkpt lat="46.6497" lon="5.93645">
        <ele>742</ele>
        <time>2025-10-08T06:56:24.451+00:00</time>
      </trkpt>
      <trkpt lat="46.64964" lon="5.93645">
        <ele>742</ele>
        <time>2025-10-08T06:56:28.799+00:00</time>
      </trkpt>
      <trkpt lat="46.64958" lon="5.93645">
        <ele>743</ele>
        <time>2025-10-08T06:56:33.648+00:00</time>
      </trkpt>
      <trkpt lat="46.64952" lon="5.93645">
        <ele>743</ele>
        <time>2025-10-08T06:56:38.375+00:00</time>
      </trkpt>
      <trkpt lat="46.64947" lon="5.93644">
        <ele>743</ele>
        <time>2025-10-08T06:56:42.798+00:00</time>
      </trkpt>
      <trkpt lat="46.64942" lon="5.93644">
        <ele>743</ele>
        <time>2025-10-08T06:56:46.932+00:00</time>
      </trkpt>
      <trkpt lat="46.64937" lon="5.93642">
        <ele>743</ele>
        <time>2025-10-08T06:56:51.248+00:00</time>
      </trkpt>
      <trkpt lat="46.64931" lon="5.93641">
        <ele>743</ele>
        <time>2025-10-08T06:56:55.798+00:00</time>
      </trkpt>
      <trkpt lat="46.64926" lon="5.93639">
        <ele>743</ele>
        <time>2025-10-08T06:56:59.920+00:00</time>
      </trkpt>
      <trkpt lat="46.64921" lon="5.93638">
        <ele>743</ele>
        <time>2025-10-08T06:57:04.608+00:00</time>
      </trkpt>
      <trkpt lat="46.64916" lon="5.93636">
        <ele>743</ele>
        <time>2025-10-08T06:57:08.653+00:00</time>
      </trkpt>
      <trkpt lat="46.6491" lon="5.93634">
        <ele>743</ele>
        <time>2025-10-08T06:57:13.207+00:00</time>
      </trkpt>
      <trkpt lat="46.64905" lon="5.93631">
        <ele>743</ele>
        <time>2025-10-08T06:57:17.799+00:00</time>
      </trkpt>
      <trkpt lat="46.649" lon="5.93628">
        <ele>748</ele>
        <time>2025-10-08T06:57:22.252+00:00</time>
      </trkpt>
      <trkpt lat="46.64895" lon="5.93622">
        <ele>741</ele>
        <time>2025-10-08T06:57:26.798+00:00</time>
      </trkpt>
      <trkpt lat="46.6489" lon="5.93617">
        <ele>741</ele>
        <time>2025-10-08T06:57:31.448+00:00</time>
      </trkpt>
      <trkpt lat="46.64885" lon="5.9361">
        <ele>741</ele>
        <time>2025-10-08T06:57:36.514+00:00</time>
      </trkpt>
      <trkpt lat="46.64882" lon="5.93605">
        <ele>741</ele>
        <time>2025-10-08T06:57:40.798+00:00</time>
      </trkpt>
      <trkpt lat="46.64879" lon="5.936">
        <ele>741</ele>
        <time>2025-10-08T06:57:44.798+00:00</time>
      </trkpt>
      <trkpt lat="46.64875" lon="5.93595">
        <ele>744</ele>
        <time>2025-10-08T06:57:49.551+00:00</time>
      </trkpt>
      <trkpt lat="46.6487" lon="5.93591">
        <ele>744</ele>
        <time>2025-10-08T06:57:53.971+00:00</time>
      </trkpt>
      <trkpt lat="46.64866" lon="5.93587">
        <ele>744</ele>
        <time>2025-10-08T06:57:58.432+00:00</time>
      </trkpt>
      <trkpt lat="46.64862" lon="5.93584">
        <ele>744</ele>
        <time>2025-10-08T06:58:02.552+00:00</time>
      </trkpt>
      <trkpt lat="46.64858" lon="5.93582">
        <ele>744</ele>
        <time>2025-10-08T06:58:06.798+00:00</time>
      </trkpt>
      <trkpt lat="46.64854" lon="5.93578">
        <ele>744</ele>
        <time>2025-10-08T06:58:11.357+00:00</time>
      </trkpt>
      <trkpt lat="46.6485" lon="5.93573">
        <ele>744</ele>
        <time>2025-10-08T06:58:15.733+00:00</time>
      </trkpt>
      <trkpt lat="46.64846" lon="5.9357">
        <ele>755</ele>
        <time>2025-10-08T06:58:19.798+00:00</time>
      </trkpt>
      <trkpt lat="46.64841" lon="5.93566">
        <ele>746</ele>
        <time>2025-10-08T06:58:24.708+00:00</time>
      </trkpt>
      <trkpt lat="46.64836" lon="5.93563">
        <ele>746</ele>
        <time>2025-10-08T06:58:28.798+00:00</time>
      </trkpt>
      <trkpt lat="46.64832" lon="5.9356">
        <ele>746</ele>
        <time>2025-10-08T06:58:33.392+00:00</time>
      </trkpt>
      <trkpt lat="46.64827" lon="5.93557">
        <ele>746</ele>
        <time>2025-10-08T06:58:37.798+00:00</time>
      </trkpt>
      <trkpt lat="46.64822" lon="5.93554">
        <ele>746</ele>
        <time>2025-10-08T06:58:42.651+00:00</time>
      </trkpt>
      <trkpt lat="46.64817" lon="5.9355">
        <ele>752</ele>
        <time>2025-10-08T06:58:47.332+00:00</time>
      </trkpt>
      <trkpt lat="46.64814" lon="5.93549">
        <ele>752</ele>
        <time>2025-10-08T06:58:51.412+00:00</time>
      </trkpt>
      <trkpt lat="46.64809" lon="5.93546">
        <ele>752</ele>
        <time>2025-10-08T06:58:55.798+00:00</time>
      </trkpt>
      <trkpt lat="46.64805" lon="5.93544">
        <ele>752</ele>
        <time>2025-10-08T06:58:59.855+00:00</time>
      </trkpt>
      <trkpt lat="46.648" lon="5.93544">
        <ele>752</ele>
        <time>2025-10-08T06:59:04.591+00:00</time>
      </trkpt>
      <trkpt lat="46.64799" lon="5.93545">
        <ele>752</ele>
        <time>2025-10-08T06:59:09.539+00:00</time>
      </trkpt>
      <trkpt lat="46.64795" lon="5.93542">
        <ele>752</ele>
        <time>2025-10-08T06:59:13.798+00:00</time>
      </trkpt>
      <trkpt lat="46.64791" lon="5.9354">
        <ele>741</ele>
        <time>2025-10-08T06:59:18.735+00:00</time>
      </trkpt>
      <trkpt lat="46.64786" lon="5.93538">
        <ele>741</ele>
        <time>2025-10-08T06:59:22.798+00:00</time>
      </trkpt>
      <trkpt lat="46.64781" lon="5.93536">
        <ele>741</ele>
        <time>2025-10-08T06:59:27.393+00:00</time>
      </trkpt>
      <trkpt lat="46.64777" lon="5.93534">
        <ele>741</ele>
        <time>2025-10-08T06:59:31.720+00:00</time>
      </trkpt>
      <trkpt lat="46.64773" lon="5.93532">
        <ele>741</ele>
        <time>2025-10-08T06:59:35.798+00:00</time>
      </trkpt>
      <trkpt lat="46.64769" lon="5.9353">
        <ele>741</ele>
        <time>2025-10-08T06:59:39.798+00:00</time>
      </trkpt>
      <trkpt lat="46.64764" lon="5.93528">
        <ele>741</ele>
        <time>2025-10-08T06:59:44.798+00:00</time>
      </trkpt>
      <trkpt lat="46.64759" lon="5.93526">
        <ele>741</ele>
        <time>2025-10-08T06:59:49.798+00:00</time>
      </trkpt>
      <trkpt lat="46.64755" lon="5.93523">
        <ele>741</ele>
        <time>2025-10-08T06:59:54.377+00:00</time>
      </trkpt>
      <trkpt lat="46.64749" lon="5.93522">
        <ele>741</ele>
        <time>2025-10-08T06:59:58.799+00:00</time>
      </trkpt>
      <trkpt lat="46.64744" lon="5.9352">
        <ele>741</ele>
        <time>2025-10-08T07:00:03.675+00:00</time>
      </trkpt>
      <trkpt lat="46.64739" lon="5.93519">
        <ele>741</ele>
        <time>2025-10-08T07:00:07.798+00:00</time>
      </trkpt>
      <trkpt lat="46.64734" lon="5.93518">
        <ele>749</ele>
        <time>2025-10-08T07:00:12.513+00:00</time>
      </trkpt>
      <trkpt lat="46.6473" lon="5.93516">
        <ele>749</ele>
        <time>2025-10-08T07:00:16.780+00:00</time>
      </trkpt>
      <trkpt lat="46.64726" lon="5.93515">
        <ele>749</ele>
        <time>2025-10-08T07:00:20.797+00:00</time>
      </trkpt>
      <trkpt lat="46.6472" lon="5.93513">
        <ele>736</ele>
        <time>2025-10-08T07:00:25.798+00:00</time>
      </trkpt>
      <trkpt lat="46.64715" lon="5.9351">
        <ele>736</ele>
        <time>2025-10-08T07:00:30.317+00:00</time>
      </trkpt>
      <trkpt lat="46.6471" lon="5.93509">
        <ele>736</ele>
        <time>2025-10-08T07:00:34.455+00:00</time>
      </trkpt>
      <trkpt lat="46.64705" lon="5.93507">
        <ele>739</ele>
        <time>2025-10-08T07:00:38.798+00:00</time>
      </trkpt>
      <trkpt lat="46.64699" lon="5.93506">
        <ele>739</ele>
        <time>2025-10-08T07:00:43.676+00:00</time>
      </trkpt>
      <trkpt lat="46.64695" lon="5.93505">
        <ele>739</ele>
        <time>2025-10-08T07:00:47.678+00:00</time>
      </trkpt>
      <trkpt lat="46.6469" lon="5.93504">
        <ele>739</ele>
        <time>2025-10-08T07:00:51.799+00:00</time>
      </trkpt>
      <trkpt lat="46.64685" lon="5.93503">
        <ele>739</ele>
        <time>2025-10-08T07:00:56.575+00:00</time>
      </trkpt>
      <trkpt lat="46.64681" lon="5.93501">
        <ele>739</ele>
        <time>2025-10-08T07:01:00.798+00:00</time>
      </trkpt>
      <trkpt lat="46.64676" lon="5.93499">
        <ele>744</ele>
        <time>2025-10-08T07:01:05.336+00:00</time>
      </trkpt>
      <trkpt lat="46.64671" lon="5.93497">
        <ele>744</ele>
        <time>2025-10-08T07:01:09.653+00:00</time>
      </trkpt>
      <trkpt lat="46.64666" lon="5.93495">
        <ele>744</ele>
        <time>2025-10-08T07:01:13.798+00:00</time>
      </trkpt>
      <trkpt lat="46.6466" lon="5.93492">
        <ele>744</ele>
        <time>2025-10-08T07:01:18.799+00:00</time>
      </trkpt>
      <trkpt lat="46.64656" lon="5.93487">
        <ele>744</ele>
        <time>2025-10-08T07:01:22.893+00:00</time>
      </trkpt>
      <trkpt lat="46.64652" lon="5.93481">
        <ele>747</ele>
        <time>2025-10-08T07:01:27.133+00:00</time>
      </trkpt>
      <trkpt lat="46.64648" lon="5.93475">
        <ele>747</ele>
        <time>2025-10-08T07:01:31.798+00:00</time>
      </trkpt>
      <trkpt lat="46.64644" lon="5.93471">
        <ele>747</ele>
        <time>2025-10-08T07:01:36.695+00:00</time>
      </trkpt>
      <trkpt lat="46.6464" lon="5.93468">
        <ele>747</ele>
        <time>2025-10-08T07:01:40.817+00:00</time>
      </trkpt>
      <trkpt lat="46.64635" lon="5.93464">
        <ele>747</ele>
        <time>2025-10-08T07:01:45.473+00:00</time>
      </trkpt>
      <trkpt lat="46.64631" lon="5.93461">
        <ele>747</ele>
        <time>2025-10-08T07:01:49.799+00:00</time>
      </trkpt>
      <trkpt lat="46.64627" lon="5.93459">
        <ele>747</ele>
        <time>2025-10-08T07:01:53.798+00:00</time>
      </trkpt>
      <trkpt lat="46.64623" lon="5.93458">
        <ele>743</ele>
        <time>2025-10-08T07:01:58.136+00:00</time>
      </trkpt>
      <trkpt lat="46.64617" lon="5.93456">
        <ele>743</ele>
        <time>2025-10-08T07:02:02.819+00:00</time>
      </trkpt>
      <trkpt lat="46.64612" lon="5.93455">
        <ele>743</ele>
        <time>2025-10-08T07:02:07.399+00:00</time>
      </trkpt>
      <trkpt lat="46.64607" lon="5.93454">
        <ele>743</ele>
        <time>2025-10-08T07:02:11.798+00:00</time>
      </trkpt>
      <trkpt lat="46.64601" lon="5.93453">
        <ele>743</ele>
        <time>2025-10-08T07:02:16.534+00:00</time>
      </trkpt>
      <trkpt lat="46.64596" lon="5.93454">
        <ele>743</ele>
        <time>2025-10-08T07:02:20.798+00:00</time>
      </trkpt>
      <trkpt lat="46.6459" lon="5.93453">
        <ele>743</ele>
        <time>2025-10-08T07:02:25.578+00:00</time>
      </trkpt>
      <trkpt lat="46.64584" lon="5.93452">
        <ele>743</ele>
        <time>2025-10-08T07:02:30.099+00:00</time>
      </trkpt>
      <trkpt lat="46.64578" lon="5.93453">
        <ele>743</ele>
        <time>2025-10-08T07:02:34.637+00:00</time>
      </trkpt>
      <trkpt lat="46.64573" lon="5.93452">
        <ele>743</ele>
        <time>2025-10-08T07:02:38.714+00:00</time>
      </trkpt>
      <trkpt lat="46.64566" lon="5.93451">
        <ele>746</ele>
        <time>2025-10-08T07:02:43.578+00:00</time>
      </trkpt>
      <trkpt lat="46.64561" lon="5.93451">
        <ele>746</ele>
        <time>2025-10-08T07:02:48.098+00:00</time>
      </trkpt>
      <trkpt lat="46.64555" lon="5.9345">
        <ele>746</ele>
        <time>2025-10-08T07:02:52.679+00:00</time>
      </trkpt>
      <trkpt lat="46.6455" lon="5.93449">
        <ele>746</ele>
        <time>2025-10-08T07:02:56.798+00:00</time>
      </trkpt>
      <trkpt lat="46.64544" lon="5.93449">
        <ele>746</ele>
        <time>2025-10-08T07:03:01.799+00:00</time>
      </trkpt>
      <trkpt lat="46.64537" lon="5.9345">
        <ele>747</ele>
        <time>2025-10-08T07:03:06.397+00:00</time>
      </trkpt>
      <trkpt lat="46.64532" lon="5.9345">
        <ele>747</ele>
        <time>2025-10-08T07:03:10.798+00:00</time>
      </trkpt>
      <trkpt lat="46.64526" lon="5.9345">
        <ele>747</ele>
        <time>2025-10-08T07:03:15.618+00:00</time>
      </trkpt>
      <trkpt lat="46.64521" lon="5.93451">
        <ele>747</ele>
        <time>2025-10-08T07:03:20.155+00:00</time>
      </trkpt>
      <trkpt lat="46.64515" lon="5.93453">
        <ele>747</ele>
        <time>2025-10-08T07:03:24.814+00:00</time>
      </trkpt>
      <trkpt lat="46.64509" lon="5.93453">
        <ele>746</ele>
        <time>2025-10-08T07:03:29.574+00:00</time>
      </trkpt>
      <trkpt lat="46.64503" lon="5.93452">
        <ele>746</ele>
        <time>2025-10-08T07:03:34.095+00:00</time>
      </trkpt>
      <trkpt lat="46.64498" lon="5.93452">
        <ele>746</ele>
        <time>2025-10-08T07:03:38.574+00:00</time>
      </trkpt>
      <trkpt lat="46.64492" lon="5.93453">
        <ele>746</ele>
        <time>2025-10-08T07:03:43.198+00:00</time>
      </trkpt>
      <trkpt lat="46.64486" lon="5.93454">
        <ele>746</ele>
        <time>2025-10-08T07:03:47.799+00:00</time>
      </trkpt>
      <trkpt lat="46.64481" lon="5.93455">
        <ele>747</ele>
        <time>2025-10-08T07:03:51.799+00:00</time>
      </trkpt>
      <trkpt lat="46.64476" lon="5.93456">
        <ele>747</ele>
        <time>2025-10-08T07:03:56.303+00:00</time>
      </trkpt>
      <trkpt lat="46.6447" lon="5.93457">
        <ele>747</ele>
        <time>2025-10-08T07:04:00.419+00:00</time>
      </trkpt>
      <trkpt lat="46.64465" lon="5.93457">
        <ele>747</ele>
        <time>2025-10-08T07:04:04.798+00:00</time>
      </trkpt>
      <trkpt lat="46.6446" lon="5.93457">
        <ele>747</ele>
        <time>2025-10-08T07:04:08.918+00:00</time>
      </trkpt>
      <trkpt lat="46.64455" lon="5.93456">
        <ele>747</ele>
        <time>2025-10-08T07:04:13.395+00:00</time>
      </trkpt>
      <trkpt lat="46.6445" lon="5.93454">
        <ele>747</ele>
        <time>2025-10-08T07:04:17.472+00:00</time>
      </trkpt>
      <trkpt lat="46.64445" lon="5.93452">
        <ele>747</ele>
        <time>2025-10-08T07:04:21.799+00:00</time>
      </trkpt>
      <trkpt lat="46.64439" lon="5.9345">
        <ele>747</ele>
        <time>2025-10-08T07:04:26.558+00:00</time>
      </trkpt>
      <trkpt lat="46.64434" lon="5.93448">
        <ele>747</ele>
        <time>2025-10-08T07:04:30.798+00:00</time>
      </trkpt>
      <trkpt lat="46.64429" lon="5.93447">
        <ele>745</ele>
        <time>2025-10-08T07:04:34.978+00:00</time>
      </trkpt>
      <trkpt lat="46.64424" lon="5.93445">
        <ele>745</ele>
        <time>2025-10-08T07:04:39.234+00:00</time>
      </trkpt>
      <trkpt lat="46.64419" lon="5.93443">
        <ele>745</ele>
        <time>2025-10-08T07:04:43.798+00:00</time>
      </trkpt>
      <trkpt lat="46.64413" lon="5.93441">
        <ele>745</ele>
        <time>2025-10-08T07:04:48.798+00:00</time>
      </trkpt>
      <trkpt lat="46.64407" lon="5.93439">
        <ele>745</ele>
        <time>2025-10-08T07:04:53.481+00:00</time>
      </trkpt>
      <trkpt lat="46.64402" lon="5.93439">
        <ele>745</ele>
        <time>2025-10-08T07:04:57.678+00:00</time>
      </trkpt>
      <trkpt lat="46.64397" lon="5.93439">
        <ele>745</ele>
        <time>2025-10-08T07:05:01.799+00:00</time>
      </trkpt>
      <trkpt lat="46.64391" lon="5.93439">
        <ele>745</ele>
        <time>2025-10-08T07:05:06.634+00:00</time>
      </trkpt>
      <trkpt lat="46.64385" lon="5.93438">
        <ele>745</ele>
        <time>2025-10-08T07:05:11.173+00:00</time>
      </trkpt>
      <trkpt lat="46.6438" lon="5.93439">
        <ele>745</ele>
        <time>2025-10-08T07:05:15.753+00:00</time>
      </trkpt>
      <trkpt lat="46.64375" lon="5.93439">
        <ele>745</ele>
        <time>2025-10-08T07:05:19.798+00:00</time>
      </trkpt>
      <trkpt lat="46.64369" lon="5.93438">
        <ele>745</ele>
        <time>2025-10-08T07:05:24.798+00:00</time>
      </trkpt>
      <trkpt lat="46.64363" lon="5.93438">
        <ele>745</ele>
        <time>2025-10-08T07:05:29.555+00:00</time>
      </trkpt>
      <trkpt lat="46.64357" lon="5.93436">
        <ele>745</ele>
        <time>2025-10-08T07:05:34.180+00:00</time>
      </trkpt>
      <trkpt lat="46.64352" lon="5.93435">
        <ele>745</ele>
        <time>2025-10-08T07:05:38.599+00:00</time>
      </trkpt>
      <trkpt lat="46.64347" lon="5.93435">
        <ele>745</ele>
        <time>2025-10-08T07:05:42.779+00:00</time>
      </trkpt>
      <trkpt lat="46.64341" lon="5.93434">
        <ele>743</ele>
        <time>2025-10-08T07:05:47.701+00:00</time>
      </trkpt>
      <trkpt lat="46.64336" lon="5.93434">
        <ele>743</ele>
        <time>2025-10-08T07:05:51.798+00:00</time>
      </trkpt>
      <trkpt lat="46.64331" lon="5.93434">
        <ele>743</ele>
        <time>2025-10-08T07:05:56.061+00:00</time>
      </trkpt>
      <trkpt lat="46.64326" lon="5.93436">
        <ele>743</ele>
        <time>2025-10-08T07:06:00.582+00:00</time>
      </trkpt>
      <trkpt lat="46.64321" lon="5.9344">
        <ele>743</ele>
        <time>2025-10-08T07:06:04.798+00:00</time>
      </trkpt>
      <trkpt lat="46.64318" lon="5.93445">
        <ele>742</ele>
        <time>2025-10-08T07:06:09.798+00:00</time>
      </trkpt>
      <trkpt lat="46.64316" lon="5.93452">
        <ele>742</ele>
        <time>2025-10-08T07:06:14.757+00:00</time>
      </trkpt>
      <trkpt lat="46.64315" lon="5.93459">
        <ele>744</ele>
        <time>2025-10-08T07:06:18.798+00:00</time>
      </trkpt>
      <trkpt lat="46.64314" lon="5.93466">
        <ele>744</ele>
        <time>2025-10-08T07:06:23.518+00:00</time>
      </trkpt>
      <trkpt lat="46.64313" lon="5.93472">
        <ele>744</ele>
        <time>2025-10-08T07:06:27.798+00:00</time>
      </trkpt>
      <trkpt lat="46.64309" lon="5.93481">
        <ele>744</ele>
        <time>2025-10-08T07:07:52.737+00:00</time>
      </trkpt>
      <trkpt lat="46.64309" lon="5.93482">
        <ele>744</ele>
        <time>2025-10-08T07:07:57.798+00:00</time>
      </trkpt>
      <trkpt lat="46.64308" lon="5.93484">
        <ele>744</ele>
        <time>2025-10-08T07:08:02.799+00:00</time>
      </trkpt>
      <trkpt lat="46.64307" lon="5.93487">
        <ele>747</ele>
        <time>2025-10-08T07:08:07.357+00:00</time>
      </trkpt>
      <trkpt lat="46.64307" lon="5.93488">
        <ele>747</ele>
        <time>2025-10-08T07:08:12.801+00:00</time>
      </trkpt>
      <trkpt lat="46.64306" lon="5.93489">
        <ele>747</ele>
        <time>2025-10-08T07:08:44.754+00:00</time>
      </trkpt>
      <trkpt lat="46.64303" lon="5.93495">
        <ele>747</ele>
        <time>2025-10-08T07:08:48.798+00:00</time>
      </trkpt>
      <trkpt lat="46.64299" lon="5.935">
        <ele>747</ele>
        <time>2025-10-08T07:08:53.277+00:00</time>
      </trkpt>
      <trkpt lat="46.64296" lon="5.93504">
        <ele>747</ele>
        <time>2025-10-08T07:08:57.499+00:00</time>
      </trkpt>
      <trkpt lat="46.64291" lon="5.93507">
        <ele>752</ele>
        <time>2025-10-08T07:09:01.798+00:00</time>
      </trkpt>
      <trkpt lat="46.64284" lon="5.93508">
        <ele>752</ele>
        <time>2025-10-08T07:09:06.798+00:00</time>
      </trkpt>
      <trkpt lat="46.64277" lon="5.93505">
        <ele>752</ele>
        <time>2025-10-08T07:09:11.798+00:00</time>
      </trkpt>
      <trkpt lat="46.64271" lon="5.935">
        <ele>752</ele>
        <time>2025-10-08T07:09:16.478+00:00</time>
      </trkpt>
      <trkpt lat="46.64267" lon="5.93495">
        <ele>752</ele>
        <time>2025-10-08T07:09:20.798+00:00</time>
      </trkpt>
      <trkpt lat="46.64263" lon="5.93492">
        <ele>757</ele>
        <time>2025-10-08T07:09:25.799+00:00</time>
      </trkpt>
      <trkpt lat="46.64258" lon="5.9349">
        <ele>757</ele>
        <time>2025-10-08T07:09:29.897+00:00</time>
      </trkpt>
      <trkpt lat="46.64253" lon="5.93488">
        <ele>757</ele>
        <time>2025-10-08T07:09:34.376+00:00</time>
      </trkpt>
      <trkpt lat="46.64249" lon="5.93486">
        <ele>754</ele>
        <time>2025-10-08T07:09:39.034+00:00</time>
      </trkpt>
      <trkpt lat="46.64244" lon="5.93484">
        <ele>754</ele>
        <time>2025-10-08T07:09:43.537+00:00</time>
      </trkpt>
      <trkpt lat="46.6424" lon="5.93481">
        <ele>754</ele>
        <time>2025-10-08T07:09:47.735+00:00</time>
      </trkpt>
      <trkpt lat="46.64237" lon="5.93477">
        <ele>754</ele>
        <time>2025-10-08T07:09:52.195+00:00</time>
      </trkpt>
      <trkpt lat="46.64233" lon="5.93478">
        <ele>758</ele>
        <time>2025-10-08T07:09:56.798+00:00</time>
      </trkpt>
      <trkpt lat="46.64229" lon="5.93477">
        <ele>758</ele>
        <time>2025-10-08T07:10:01.799+00:00</time>
      </trkpt>
      <trkpt lat="46.64225" lon="5.93474">
        <ele>758</ele>
        <time>2025-10-08T07:10:06.254+00:00</time>
      </trkpt>
      <trkpt lat="46.6422" lon="5.93471">
        <ele>758</ele>
        <time>2025-10-08T07:10:10.655+00:00</time>
      </trkpt>
      <trkpt lat="46.64216" lon="5.93467">
        <ele>758</ele>
        <time>2025-10-08T07:10:15.534+00:00</time>
      </trkpt>
      <trkpt lat="46.64215" lon="5.93463">
        <ele>758</ele>
        <time>2025-10-08T07:10:19.714+00:00</time>
      </trkpt>
      <trkpt lat="46.64212" lon="5.93457">
        <ele>756</ele>
        <time>2025-10-08T07:10:23.798+00:00</time>
      </trkpt>
      <trkpt lat="46.64208" lon="5.93453">
        <ele>761</ele>
        <time>2025-10-08T07:10:28.235+00:00</time>
      </trkpt>
      <trkpt lat="46.64204" lon="5.93448">
        <ele>761</ele>
        <time>2025-10-08T07:10:32.799+00:00</time>
      </trkpt>
      <trkpt lat="46.64201" lon="5.93442">
        <ele>761</ele>
        <time>2025-10-08T07:10:37.236+00:00</time>
      </trkpt>
      <trkpt lat="46.64199" lon="5.93438">
        <ele>761</ele>
        <time>2025-10-08T07:10:41.798+00:00</time>
      </trkpt>
      <trkpt lat="46.64198" lon="5.93435">
        <ele>761</ele>
        <time>2025-10-08T07:10:46.799+00:00</time>
      </trkpt>
      <trkpt lat="46.64197" lon="5.9343">
        <ele>761</ele>
        <time>2025-10-08T07:10:51.395+00:00</time>
      </trkpt>
      <trkpt lat="46.64195" lon="5.93422">
        <ele>761</ele>
        <time>2025-10-08T07:10:55.798+00:00</time>
      </trkpt>
      <trkpt lat="46.64192" lon="5.93417">
        <ele>761</ele>
        <time>2025-10-08T07:11:00.499+00:00</time>
      </trkpt>
      <trkpt lat="46.6419" lon="5.93411">
        <ele>761</ele>
        <time>2025-10-08T07:11:04.754+00:00</time>
      </trkpt>
      <trkpt lat="46.64188" lon="5.93405">
        <ele>761</ele>
        <time>2025-10-08T07:11:08.780+00:00</time>
      </trkpt>
      <trkpt lat="46.64184" lon="5.93401">
        <ele>760</ele>
        <time>2025-10-08T07:11:12.799+00:00</time>
      </trkpt>
      <trkpt lat="46.6418" lon="5.93394">
        <ele>766</ele>
        <time>2025-10-08T07:11:17.293+00:00</time>
      </trkpt>
      <trkpt lat="46.64175" lon="5.9339">
        <ele>766</ele>
        <time>2025-10-08T07:11:21.755+00:00</time>
      </trkpt>
      <trkpt lat="46.64169" lon="5.93389">
        <ele>766</ele>
        <time>2025-10-08T07:11:25.798+00:00</time>
      </trkpt>
      <trkpt lat="46.64162" lon="5.93386">
        <ele>766</ele>
        <time>2025-10-08T07:11:30.677+00:00</time>
      </trkpt>
      <trkpt lat="46.64154" lon="5.93381">
        <ele>766</ele>
        <time>2025-10-08T07:11:35.539+00:00</time>
      </trkpt>
      <trkpt lat="46.64149" lon="5.93377">
        <ele>767</ele>
        <time>2025-10-08T07:11:39.540+00:00</time>
      </trkpt>
      <trkpt lat="46.64142" lon="5.93372">
        <ele>766</ele>
        <time>2025-10-08T07:11:44.454+00:00</time>
      </trkpt>
      <trkpt lat="46.64134" lon="5.93367">
        <ele>766</ele>
        <time>2025-10-08T07:11:49.333+00:00</time>
      </trkpt>
      <trkpt lat="46.64127" lon="5.93364">
        <ele>766</ele>
        <time>2025-10-08T07:11:53.799+00:00</time>
      </trkpt>
      <trkpt lat="46.6412" lon="5.93362">
        <ele>767</ele>
        <time>2025-10-08T07:11:58.299+00:00</time>
      </trkpt>
      <trkpt lat="46.64113" lon="5.93359">
        <ele>767</ele>
        <time>2025-10-08T07:12:02.798+00:00</time>
      </trkpt>
      <trkpt lat="46.64106" lon="5.93356">
        <ele>767</ele>
        <time>2025-10-08T07:12:07.256+00:00</time>
      </trkpt>
      <trkpt lat="46.641" lon="5.93358">
        <ele>767</ele>
        <time>2025-10-08T07:12:11.376+00:00</time>
      </trkpt>
      <trkpt lat="46.64094" lon="5.93363">
        <ele>766</ele>
        <time>2025-10-08T07:12:15.393+00:00</time>
      </trkpt>
      <trkpt lat="46.6409" lon="5.93369">
        <ele>766</ele>
        <time>2025-10-08T07:12:19.478+00:00</time>
      </trkpt>
      <trkpt lat="46.64085" lon="5.93374">
        <ele>766</ele>
        <time>2025-10-08T07:12:23.616+00:00</time>
      </trkpt>
      <trkpt lat="46.6408" lon="5.93379">
        <ele>766</ele>
        <time>2025-10-08T07:12:28.137+00:00</time>
      </trkpt>
      <trkpt lat="46.64076" lon="5.93384">
        <ele>766</ele>
        <time>2025-10-08T07:12:32.334+00:00</time>
      </trkpt>
      <trkpt lat="46.64072" lon="5.93389">
        <ele>766</ele>
        <time>2025-10-08T07:12:36.360+00:00</time>
      </trkpt>
      <trkpt lat="46.64068" lon="5.93394">
        <ele>767</ele>
        <time>2025-10-08T07:12:40.798+00:00</time>
      </trkpt>
      <trkpt lat="46.64063" lon="5.93399">
        <ele>767</ele>
        <time>2025-10-08T07:12:45.319+00:00</time>
      </trkpt>
      <trkpt lat="46.6406" lon="5.93404">
        <ele>768</ele>
        <time>2025-10-08T07:12:49.760+00:00</time>
      </trkpt>
      <trkpt lat="46.64057" lon="5.93409">
        <ele>768</ele>
        <time>2025-10-08T07:12:53.799+00:00</time>
      </trkpt>
      <trkpt lat="46.64053" lon="5.93415">
        <ele>768</ele>
        <time>2025-10-08T07:12:58.677+00:00</time>
      </trkpt>
      <trkpt lat="46.64048" lon="5.93418">
        <ele>768</ele>
        <time>2025-10-08T07:13:02.798+00:00</time>
      </trkpt>
      <trkpt lat="46.64044" lon="5.93423">
        <ele>768</ele>
        <time>2025-10-08T07:13:07.256+00:00</time>
      </trkpt>
      <trkpt lat="46.6404" lon="5.93429">
        <ele>769</ele>
        <time>2025-10-08T07:13:11.538+00:00</time>
      </trkpt>
      <trkpt lat="46.64037" lon="5.93436">
        <ele>768</ele>
        <time>2025-10-08T07:13:15.777+00:00</time>
      </trkpt>
      <trkpt lat="46.64033" lon="5.93442">
        <ele>768</ele>
        <time>2025-10-08T07:13:19.799+00:00</time>
      </trkpt>
      <trkpt lat="46.6403" lon="5.93447">
        <ele>768</ele>
        <time>2025-10-08T07:13:24.333+00:00</time>
      </trkpt>
      <trkpt lat="46.64026" lon="5.93452">
        <ele>768</ele>
        <time>2025-10-08T07:13:28.657+00:00</time>
      </trkpt>
      <trkpt lat="46.64022" lon="5.93457">
        <ele>768</ele>
        <time>2025-10-08T07:13:32.798+00:00</time>
      </trkpt>
      <trkpt lat="46.64018" lon="5.93462">
        <ele>766</ele>
        <time>2025-10-08T07:13:37.555+00:00</time>
      </trkpt>
      <trkpt lat="46.64012" lon="5.93466">
        <ele>763</ele>
        <time>2025-10-08T07:13:42.799+00:00</time>
      </trkpt>
      <trkpt lat="46.64008" lon="5.93469">
        <ele>763</ele>
        <time>2025-10-08T07:13:47.416+00:00</time>
      </trkpt>
      <trkpt lat="46.64003" lon="5.93472">
        <ele>763</ele>
        <time>2025-10-08T07:13:51.798+00:00</time>
      </trkpt>
      <trkpt lat="46.63998" lon="5.93476">
        <ele>763</ele>
        <time>2025-10-08T07:13:56.253+00:00</time>
      </trkpt>
      <trkpt lat="46.63994" lon="5.93481">
        <ele>763</ele>
        <time>2025-10-08T07:14:00.560+00:00</time>
      </trkpt>
      <trkpt lat="46.63989" lon="5.93486">
        <ele>761</ele>
        <time>2025-10-08T07:14:05.483+00:00</time>
      </trkpt>
      <trkpt lat="46.63992" lon="5.93484">
        <ele>763</ele>
        <time>2025-10-08T07:15:16.798+00:00</time>
      </trkpt>
      <trkpt lat="46.63993" lon="5.93484">
        <ele>763</ele>
        <time>2025-10-08T07:15:24.798+00:00</time>
      </trkpt>
      <trkpt lat="46.63996" lon="5.93481">
        <ele>763</ele>
        <time>2025-10-08T07:15:29.798+00:00</time>
      </trkpt>
      <trkpt lat="46.63998" lon="5.93478">
        <ele>763</ele>
        <time>2025-10-08T07:15:33.798+00:00</time>
      </trkpt>
      <trkpt lat="46.64003" lon="5.93474">
        <ele>763</ele>
        <time>2025-10-08T07:15:38.385+00:00</time>
      </trkpt>
      <trkpt lat="46.64007" lon="5.93469">
        <ele>763</ele>
        <time>2025-10-08T07:15:42.504+00:00</time>
      </trkpt>
      <trkpt lat="46.64009" lon="5.9346">
        <ele>763</ele>
        <time>2025-10-08T07:15:47.485+00:00</time>
      </trkpt>
      <trkpt lat="46.64011" lon="5.93452">
        <ele>767</ele>
        <time>2025-10-08T07:15:51.725+00:00</time>
      </trkpt>
      <trkpt lat="46.6401" lon="5.93446">
        <ele>767</ele>
        <time>2025-10-08T07:15:56.306+00:00</time>
      </trkpt>
      <trkpt lat="46.64013" lon="5.93441">
        <ele>767</ele>
        <time>2025-10-08T07:16:00.348+00:00</time>
      </trkpt>
      <trkpt lat="46.64017" lon="5.93435">
        <ele>768</ele>
        <time>2025-10-08T07:16:04.605+00:00</time>
      </trkpt>
      <trkpt lat="46.64021" lon="5.9343">
        <ele>769</ele>
        <time>2025-10-08T07:16:08.665+00:00</time>
      </trkpt>
      <trkpt lat="46.64025" lon="5.93426">
        <ele>769</ele>
        <time>2025-10-08T07:16:12.768+00:00</time>
      </trkpt>
      <trkpt lat="46.64029" lon="5.9342">
        <ele>769</ele>
        <time>2025-10-08T07:16:17.564+00:00</time>
      </trkpt>
      <trkpt lat="46.64032" lon="5.93415">
        <ele>769</ele>
        <time>2025-10-08T07:16:21.798+00:00</time>
      </trkpt>
      <trkpt lat="46.64034" lon="5.93412">
        <ele>769</ele>
        <time>2025-10-08T07:16:26.229+00:00</time>
      </trkpt>
      <trkpt lat="46.64039" lon="5.93407">
        <ele>769</ele>
        <time>2025-10-08T07:16:30.561+00:00</time>
      </trkpt>
      <trkpt lat="46.64042" lon="5.93402">
        <ele>767</ele>
        <time>2025-10-08T07:16:34.605+00:00</time>
      </trkpt>
      <trkpt lat="46.64046" lon="5.93396">
        <ele>767</ele>
        <time>2025-10-08T07:16:38.947+00:00</time>
      </trkpt>
      <trkpt lat="46.64048" lon="5.9339">
        <ele>767</ele>
        <time>2025-10-08T07:16:43.798+00:00</time>
      </trkpt>
      <trkpt lat="46.64052" lon="5.93386">
        <ele>767</ele>
        <time>2025-10-08T07:16:48.082+00:00</time>
      </trkpt>
      <trkpt lat="46.64056" lon="5.93382">
        <ele>767</ele>
        <time>2025-10-08T07:16:52.501+00:00</time>
      </trkpt>
      <trkpt lat="46.64061" lon="5.9338">
        <ele>767</ele>
        <time>2025-10-08T07:16:56.741+00:00</time>
      </trkpt>
      <trkpt lat="46.64065" lon="5.93376">
        <ele>767</ele>
        <time>2025-10-08T07:17:00.798+00:00</time>
      </trkpt>
      <trkpt lat="46.64069" lon="5.93373">
        <ele>769</ele>
        <time>2025-10-08T07:17:05.809+00:00</time>
      </trkpt>
      <trkpt lat="46.64073" lon="5.93368">
        <ele>766</ele>
        <time>2025-10-08T07:17:10.312+00:00</time>
      </trkpt>
      <trkpt lat="46.64075" lon="5.93364">
        <ele>766</ele>
        <time>2025-10-08T07:17:14.799+00:00</time>
      </trkpt>
      <trkpt lat="46.64079" lon="5.93358">
        <ele>766</ele>
        <time>2025-10-08T07:17:19.798+00:00</time>
      </trkpt>
      <trkpt lat="46.64082" lon="5.93353">
        <ele>766</ele>
        <time>2025-10-08T07:17:23.798+00:00</time>
      </trkpt>
      <trkpt lat="46.64086" lon="5.93347">
        <ele>770</ele>
        <time>2025-10-08T07:17:28.727+00:00</time>
      </trkpt>
      <trkpt lat="46.64087" lon="5.93341">
        <ele>770</ele>
        <time>2025-10-08T07:17:32.967+00:00</time>
      </trkpt>
      <trkpt lat="46.64088" lon="5.93334">
        <ele>770</ele>
        <time>2025-10-08T07:17:37.266+00:00</time>
      </trkpt>
      <trkpt lat="46.6409" lon="5.93327">
        <ele>770</ele>
        <time>2025-10-08T07:17:41.798+00:00</time>
      </trkpt>
      <trkpt lat="46.64092" lon="5.93318">
        <ele>771</ele>
        <time>2025-10-08T07:17:46.631+00:00</time>
      </trkpt>
      <trkpt lat="46.64092" lon="5.9331">
        <ele>771</ele>
        <time>2025-10-08T07:17:51.032+00:00</time>
      </trkpt>
      <trkpt lat="46.64091" lon="5.93302">
        <ele>771</ele>
        <time>2025-10-08T07:17:55.289+00:00</time>
      </trkpt>
      <trkpt lat="46.6409" lon="5.93296">
        <ele>771</ele>
        <time>2025-10-08T07:17:59.292+00:00</time>
      </trkpt>
      <trkpt lat="46.6409" lon="5.93287">
        <ele>770</ele>
        <time>2025-10-08T07:18:03.796+00:00</time>
      </trkpt>
      <trkpt lat="46.64092" lon="5.9328">
        <ele>770</ele>
        <time>2025-10-08T07:18:07.799+00:00</time>
      </trkpt>
      <trkpt lat="46.64094" lon="5.93272">
        <ele>770</ele>
        <time>2025-10-08T07:18:12.692+00:00</time>
      </trkpt>
      <trkpt lat="46.64097" lon="5.93266">
        <ele>765</ele>
        <time>2025-10-08T07:18:17.613+00:00</time>
      </trkpt>
      <trkpt lat="46.641" lon="5.9326">
        <ele>759</ele>
        <time>2025-10-08T07:18:21.799+00:00</time>
      </trkpt>
      <trkpt lat="46.64102" lon="5.93254">
        <ele>759</ele>
        <time>2025-10-08T07:18:26.101+00:00</time>
      </trkpt>
      <trkpt lat="46.64104" lon="5.93247">
        <ele>759</ele>
        <time>2025-10-08T07:18:30.374+00:00</time>
      </trkpt>
      <trkpt lat="46.64105" lon="5.9324">
        <ele>759</ele>
        <time>2025-10-08T07:18:34.799+00:00</time>
      </trkpt>
      <trkpt lat="46.64105" lon="5.93233">
        <ele>754</ele>
        <time>2025-10-08T07:18:39.467+00:00</time>
      </trkpt>
      <trkpt lat="46.64105" lon="5.93226">
        <ele>754</ele>
        <time>2025-10-08T07:18:43.798+00:00</time>
      </trkpt>
      <trkpt lat="46.64104" lon="5.93218">
        <ele>754</ele>
        <time>2025-10-08T07:18:48.211+00:00</time>
      </trkpt>
      <trkpt lat="46.64103" lon="5.93211">
        <ele>754</ele>
        <time>2025-10-08T07:18:52.468+00:00</time>
      </trkpt>
      <trkpt lat="46.641" lon="5.93205">
        <ele>750</ele>
        <time>2025-10-08T07:18:56.809+00:00</time>
      </trkpt>
      <trkpt lat="46.64096" lon="5.93197">
        <ele>759</ele>
        <time>2025-10-08T07:19:01.586+00:00</time>
      </trkpt>
      <trkpt lat="46.64094" lon="5.93191">
        <ele>759</ele>
        <time>2025-10-08T07:19:05.799+00:00</time>
      </trkpt>
      <trkpt lat="46.6409" lon="5.93184">
        <ele>759</ele>
        <time>2025-10-08T07:19:10.553+00:00</time>
      </trkpt>
      <trkpt lat="46.64088" lon="5.93178">
        <ele>756</ele>
        <time>2025-10-08T07:19:14.798+00:00</time>
      </trkpt>
      <trkpt lat="46.64084" lon="5.93172">
        <ele>756</ele>
        <time>2025-10-08T07:19:19.269+00:00</time>
      </trkpt>
      <trkpt lat="46.64081" lon="5.93166">
        <ele>756</ele>
        <time>2025-10-08T07:19:23.688+00:00</time>
      </trkpt>
      <trkpt lat="46.64078" lon="5.93161">
        <ele>756</ele>
        <time>2025-10-08T07:19:27.797+00:00</time>
      </trkpt>
      <trkpt lat="46.64075" lon="5.93155">
        <ele>756</ele>
        <time>2025-10-08T07:19:32.311+00:00</time>
      </trkpt>
      <trkpt lat="46.64073" lon="5.93149">
        <ele>753</ele>
        <time>2025-10-08T07:19:36.450+00:00</time>
      </trkpt>
      <trkpt lat="46.6407" lon="5.93143">
        <ele>753</ele>
        <time>2025-10-08T07:19:40.798+00:00</time>
      </trkpt>
      <trkpt lat="46.64067" lon="5.93138">
        <ele>762</ele>
        <time>2025-10-08T07:19:45.090+00:00</time>
      </trkpt>
      <trkpt lat="46.64064" lon="5.93132">
        <ele>762</ele>
        <time>2025-10-08T07:19:49.593+00:00</time>
      </trkpt>
      <trkpt lat="46.64061" lon="5.93127">
        <ele>762</ele>
        <time>2025-10-08T07:19:53.670+00:00</time>
      </trkpt>
      <trkpt lat="46.6406" lon="5.93121">
        <ele>757</ele>
        <time>2025-10-08T07:19:57.797+00:00</time>
      </trkpt>
      <trkpt lat="46.64059" lon="5.93114">
        <ele>757</ele>
        <time>2025-10-08T07:20:02.670+00:00</time>
      </trkpt>
      <trkpt lat="46.64057" lon="5.93107">
        <ele>757</ele>
        <time>2025-10-08T07:20:07.328+00:00</time>
      </trkpt>
      <trkpt lat="46.64055" lon="5.93101">
        <ele>757</ele>
        <time>2025-10-08T07:20:11.797+00:00</time>
      </trkpt>
      <trkpt lat="46.64053" lon="5.93096">
        <ele>751</ele>
        <time>2025-10-08T07:20:15.797+00:00</time>
      </trkpt>
      <trkpt lat="46.64051" lon="5.9309">
        <ele>751</ele>
        <time>2025-10-08T07:20:20.148+00:00</time>
      </trkpt>
      <trkpt lat="46.64046" lon="5.93087">
        <ele>751</ele>
        <time>2025-10-08T07:20:24.669+00:00</time>
      </trkpt>
      <trkpt lat="46.64043" lon="5.93083">
        <ele>751</ele>
        <time>2025-10-08T07:20:29.370+00:00</time>
      </trkpt>
      <trkpt lat="46.64039" lon="5.93079">
        <ele>759</ele>
        <time>2025-10-08T07:20:33.566+00:00</time>
      </trkpt>
      <trkpt lat="46.64035" lon="5.93075">
        <ele>759</ele>
        <time>2025-10-08T07:20:37.797+00:00</time>
      </trkpt>
      <trkpt lat="46.64032" lon="5.93071">
        <ele>759</ele>
        <time>2025-10-08T07:20:42.371+00:00</time>
      </trkpt>
      <trkpt lat="46.64028" lon="5.93067">
        <ele>751</ele>
        <time>2025-10-08T07:20:46.797+00:00</time>
      </trkpt>
      <trkpt lat="46.64023" lon="5.93064">
        <ele>751</ele>
        <time>2025-10-08T07:20:50.797+00:00</time>
      </trkpt>
      <trkpt lat="46.64019" lon="5.93062">
        <ele>751</ele>
        <time>2025-10-08T07:20:55.353+00:00</time>
      </trkpt>
      <trkpt lat="46.64015" lon="5.93057">
        <ele>751</ele>
        <time>2025-10-08T07:20:59.798+00:00</time>
      </trkpt>
      <trkpt lat="46.64011" lon="5.93053">
        <ele>763</ele>
        <time>2025-10-08T07:21:04.659+00:00</time>
      </trkpt>
      <trkpt lat="46.64006" lon="5.9305">
        <ele>763</ele>
        <time>2025-10-08T07:21:08.812+00:00</time>
      </trkpt>
      <trkpt lat="46.64002" lon="5.93048">
        <ele>763</ele>
        <time>2025-10-08T07:21:12.797+00:00</time>
      </trkpt>
      <trkpt lat="46.63998" lon="5.93043">
        <ele>763</ele>
        <time>2025-10-08T07:21:17.797+00:00</time>
      </trkpt>
      <trkpt lat="46.63994" lon="5.93038">
        <ele>755</ele>
        <time>2025-10-08T07:21:22.486+00:00</time>
      </trkpt>
      <trkpt lat="46.6399" lon="5.93035">
        <ele>755</ele>
        <time>2025-10-08T07:21:26.564+00:00</time>
      </trkpt>
      <trkpt lat="46.63985" lon="5.93029">
        <ele>764</ele>
        <time>2025-10-08T07:21:30.797+00:00</time>
      </trkpt>
      <trkpt lat="46.63981" lon="5.93024">
        <ele>764</ele>
        <time>2025-10-08T07:21:35.631+00:00</time>
      </trkpt>
      <trkpt lat="46.63976" lon="5.93021">
        <ele>764</ele>
        <time>2025-10-08T07:21:39.692+00:00</time>
      </trkpt>
      <trkpt lat="46.63971" lon="5.93019">
        <ele>764</ele>
        <time>2025-10-08T07:21:44.231+00:00</time>
      </trkpt>
      <trkpt lat="46.63965" lon="5.93014">
        <ele>764</ele>
        <time>2025-10-08T07:21:48.733+00:00</time>
      </trkpt>
      <trkpt lat="46.63961" lon="5.9301">
        <ele>759</ele>
        <time>2025-10-08T07:21:52.797+00:00</time>
      </trkpt>
      <trkpt lat="46.63958" lon="5.93004">
        <ele>769</ele>
        <time>2025-10-08T07:21:57.289+00:00</time>
      </trkpt>
      <trkpt lat="46.63954" lon="5.92999">
        <ele>769</ele>
        <time>2025-10-08T07:22:01.350+00:00</time>
      </trkpt>
      <trkpt lat="46.63951" lon="5.92995">
        <ele>769</ele>
        <time>2025-10-08T07:22:05.453+00:00</time>
      </trkpt>
      <trkpt lat="46.63947" lon="5.92991">
        <ele>769</ele>
        <time>2025-10-08T07:22:09.797+00:00</time>
      </trkpt>
      <trkpt lat="46.63944" lon="5.92985">
        <ele>764</ele>
        <time>2025-10-08T07:22:14.797+00:00</time>
      </trkpt>
      <trkpt lat="46.6394" lon="5.9298">
        <ele>764</ele>
        <time>2025-10-08T07:22:19.467+00:00</time>
      </trkpt>
      <trkpt lat="46.63937" lon="5.92975">
        <ele>764</ele>
        <time>2025-10-08T07:22:23.706+00:00</time>
      </trkpt>
      <trkpt lat="46.63928" lon="5.92967">
        <ele>772</ele>
        <time>2025-10-08T07:23:45.797+00:00</time>
      </trkpt>
      <trkpt lat="46.63928" lon="5.92967">
        <ele>772</ele>
        <time>2025-10-08T07:23:53.798+00:00</time>
      </trkpt>
      <trkpt lat="46.63925" lon="5.92963">
        <ele>772</ele>
        <time>2025-10-08T07:23:57.797+00:00</time>
      </trkpt>
      <trkpt lat="46.63925" lon="5.92962">
        <ele>772</ele>
        <time>2025-10-08T07:24:02.525+00:00</time>
      </trkpt>
      <trkpt lat="46.63922" lon="5.92959">
        <ele>772</ele>
        <time>2025-10-08T07:24:06.527+00:00</time>
      </trkpt>
      <trkpt lat="46.63918" lon="5.92953">
        <ele>765</ele>
        <time>2025-10-08T07:24:10.612+00:00</time>
      </trkpt>
      <trkpt lat="46.63916" lon="5.92951">
        <ele>765</ele>
        <time>2025-10-08T07:24:14.798+00:00</time>
      </trkpt>
      <trkpt lat="46.63912" lon="5.92947">
        <ele>765</ele>
        <time>2025-10-08T07:24:19.671+00:00</time>
      </trkpt>
      <trkpt lat="46.63909" lon="5.92944">
        <ele>765</ele>
        <time>2025-10-08T07:24:24.372+00:00</time>
      </trkpt>
      <trkpt lat="46.63907" lon="5.9294">
        <ele>765</ele>
        <time>2025-10-08T07:24:28.660+00:00</time>
      </trkpt>
      <trkpt lat="46.63904" lon="5.92939">
        <ele>765</ele>
        <time>2025-10-08T07:24:33.030+00:00</time>
      </trkpt>
      <trkpt lat="46.63901" lon="5.92938">
        <ele>772</ele>
        <time>2025-10-08T07:24:37.210+00:00</time>
      </trkpt>
      <trkpt lat="46.63896" lon="5.92938">
        <ele>772</ele>
        <time>2025-10-08T07:24:41.799+00:00</time>
      </trkpt>
      <trkpt lat="46.63892" lon="5.92936">
        <ele>772</ele>
        <time>2025-10-08T07:24:46.210+00:00</time>
      </trkpt>
      <trkpt lat="46.63889" lon="5.92933">
        <ele>772</ele>
        <time>2025-10-08T07:24:50.311+00:00</time>
      </trkpt>
      <trkpt lat="46.63887" lon="5.92927">
        <ele>767</ele>
        <time>2025-10-08T07:24:54.592+00:00</time>
      </trkpt>
      <trkpt lat="46.63885" lon="5.92921">
        <ele>767</ele>
        <time>2025-10-08T07:24:59.089+00:00</time>
      </trkpt>
      <trkpt lat="46.63883" lon="5.92915">
        <ele>767</ele>
        <time>2025-10-08T07:25:03.310+00:00</time>
      </trkpt>
      <trkpt lat="46.6388" lon="5.9291">
        <ele>767</ele>
        <time>2025-10-08T07:25:07.798+00:00</time>
      </trkpt>
      <trkpt lat="46.63877" lon="5.92905">
        <ele>767</ele>
        <time>2025-10-08T07:25:12.110+00:00</time>
      </trkpt>
      <trkpt lat="46.63874" lon="5.92901">
        <ele>768</ele>
        <time>2025-10-08T07:25:16.451+00:00</time>
      </trkpt>
      <trkpt lat="46.63871" lon="5.92896">
        <ele>768</ele>
        <time>2025-10-08T07:25:20.797+00:00</time>
      </trkpt>
      <trkpt lat="46.63868" lon="5.92892">
        <ele>768</ele>
        <time>2025-10-08T07:25:25.211+00:00</time>
      </trkpt>
      <trkpt lat="46.63864" lon="5.92888">
        <ele>768</ele>
        <time>2025-10-08T07:25:29.673+00:00</time>
      </trkpt>
      <trkpt lat="46.63861" lon="5.92883">
        <ele>768</ele>
        <time>2025-10-08T07:25:34.036+00:00</time>
      </trkpt>
      <trkpt lat="46.63857" lon="5.92877">
        <ele>768</ele>
        <time>2025-10-08T07:25:38.471+00:00</time>
      </trkpt>
      <trkpt lat="46.63854" lon="5.92873">
        <ele>761</ele>
        <time>2025-10-08T07:25:42.738+00:00</time>
      </trkpt>
      <trkpt lat="46.6385" lon="5.92868">
        <ele>761</ele>
        <time>2025-10-08T07:25:47.495+00:00</time>
      </trkpt>
      <trkpt lat="46.63847" lon="5.92861">
        <ele>761</ele>
        <time>2025-10-08T07:25:51.632+00:00</time>
      </trkpt>
      <trkpt lat="46.63844" lon="5.92858">
        <ele>768</ele>
        <time>2025-10-08T07:25:55.797+00:00</time>
      </trkpt>
      <trkpt lat="46.6384" lon="5.92853">
        <ele>768</ele>
        <time>2025-10-08T07:26:00.452+00:00</time>
      </trkpt>
      <trkpt lat="46.63837" lon="5.92848">
        <ele>768</ele>
        <time>2025-10-08T07:26:04.650+00:00</time>
      </trkpt>
      <trkpt lat="46.63833" lon="5.92843">
        <ele>762</ele>
        <time>2025-10-08T07:26:08.798+00:00</time>
      </trkpt>
      <trkpt lat="46.6383" lon="5.92838">
        <ele>762</ele>
        <time>2025-10-08T07:26:13.098+00:00</time>
      </trkpt>
      <trkpt lat="46.63826" lon="5.92833">
        <ele>762</ele>
        <time>2025-10-08T07:26:17.377+00:00</time>
      </trkpt>
      <trkpt lat="46.63824" lon="5.92828">
        <ele>762</ele>
        <time>2025-10-08T07:26:21.395+00:00</time>
      </trkpt>
      <trkpt lat="46.63822" lon="5.92823">
        <ele>762</ele>
        <time>2025-10-08T07:26:25.456+00:00</time>
      </trkpt>
      <trkpt lat="46.63819" lon="5.92818">
        <ele>769</ele>
        <time>2025-10-08T07:26:29.610+00:00</time>
      </trkpt>
      <trkpt lat="46.63815" lon="5.92812">
        <ele>769</ele>
        <time>2025-10-08T07:26:34.775+00:00</time>
      </trkpt>
      <trkpt lat="46.63811" lon="5.92807">
        <ele>769</ele>
        <time>2025-10-08T07:26:39.150+00:00</time>
      </trkpt>
      <trkpt lat="46.63808" lon="5.92801">
        <ele>769</ele>
        <time>2025-10-08T07:26:43.791+00:00</time>
      </trkpt>
      <trkpt lat="46.63806" lon="5.92797">
        <ele>769</ele>
        <time>2025-10-08T07:26:47.797+00:00</time>
      </trkpt>
      <trkpt lat="46.63804" lon="5.92791">
        <ele>766</ele>
        <time>2025-10-08T07:26:52.013+00:00</time>
      </trkpt>
      <trkpt lat="46.63803" lon="5.92783">
        <ele>766</ele>
        <time>2025-10-08T07:26:56.798+00:00</time>
      </trkpt>
      <trkpt lat="46.63799" lon="5.92776">
        <ele>766</ele>
        <time>2025-10-08T07:27:01.798+00:00</time>
      </trkpt>
      <trkpt lat="46.63798" lon="5.92768">
        <ele>766</ele>
        <time>2025-10-08T07:27:06.514+00:00</time>
      </trkpt>
      <trkpt lat="46.63795" lon="5.92763">
        <ele>764</ele>
        <time>2025-10-08T07:27:10.736+00:00</time>
      </trkpt>
      <trkpt lat="46.63792" lon="5.92757">
        <ele>764</ele>
        <time>2025-10-08T07:27:14.798+00:00</time>
      </trkpt>
      <trkpt lat="46.6379" lon="5.92749">
        <ele>773</ele>
        <time>2025-10-08T07:27:19.590+00:00</time>
      </trkpt>
      <trkpt lat="46.63789" lon="5.92741">
        <ele>773</ele>
        <time>2025-10-08T07:27:23.797+00:00</time>
      </trkpt>
      <trkpt lat="46.63788" lon="5.92734">
        <ele>768</ele>
        <time>2025-10-08T07:27:28.153+00:00</time>
      </trkpt>
      <trkpt lat="46.63784" lon="5.9273">
        <ele>768</ele>
        <time>2025-10-08T07:27:32.197+00:00</time>
      </trkpt>
      <trkpt lat="46.63781" lon="5.92725">
        <ele>768</ele>
        <time>2025-10-08T07:27:36.735+00:00</time>
      </trkpt>
      <trkpt lat="46.63778" lon="5.92721">
        <ele>768</ele>
        <time>2025-10-08T07:27:40.798+00:00</time>
      </trkpt>
      <trkpt lat="46.63776" lon="5.92716">
        <ele>768</ele>
        <time>2025-10-08T07:27:44.797+00:00</time>
      </trkpt>
      <trkpt lat="46.63771" lon="5.92712">
        <ele>768</ele>
        <time>2025-10-08T07:27:49.538+00:00</time>
      </trkpt>
      <trkpt lat="46.63767" lon="5.92709">
        <ele>768</ele>
        <time>2025-10-08T07:27:53.735+00:00</time>
      </trkpt>
      <trkpt lat="46.63763" lon="5.92703">
        <ele>767</ele>
        <time>2025-10-08T07:27:58.797+00:00</time>
      </trkpt>
      <trkpt lat="46.63758" lon="5.92698">
        <ele>767</ele>
        <time>2025-10-08T07:28:03.400+00:00</time>
      </trkpt>
      <trkpt lat="46.63755" lon="5.92692">
        <ele>767</ele>
        <time>2025-10-08T07:28:07.460+00:00</time>
      </trkpt>
      <trkpt lat="46.63752" lon="5.92687">
        <ele>767</ele>
        <time>2025-10-08T07:28:11.442+00:00</time>
      </trkpt>
      <trkpt lat="46.63748" lon="5.92683">
        <ele>767</ele>
        <time>2025-10-08T07:28:16.159+00:00</time>
      </trkpt>
      <trkpt lat="46.63746" lon="5.92681">
        <ele>767</ele>
        <time>2025-10-08T07:28:20.696+00:00</time>
      </trkpt>
      <trkpt lat="46.63742" lon="5.92678">
        <ele>760</ele>
        <time>2025-10-08T07:28:24.797+00:00</time>
      </trkpt>
      <trkpt lat="46.63737" lon="5.92672">
        <ele>760</ele>
        <time>2025-10-08T07:28:29.818+00:00</time>
      </trkpt>
      <trkpt lat="46.63733" lon="5.92667">
        <ele>769</ele>
        <time>2025-10-08T07:28:34.556+00:00</time>
      </trkpt>
      <trkpt lat="46.63729" lon="5.92663">
        <ele>769</ele>
        <time>2025-10-08T07:28:38.797+00:00</time>
      </trkpt>
      <trkpt lat="46.63725" lon="5.92657">
        <ele>769</ele>
        <time>2025-10-08T07:28:43.539+00:00</time>
      </trkpt>
      <trkpt lat="46.63722" lon="5.92652">
        <ele>766</ele>
        <time>2025-10-08T07:28:47.794+00:00</time>
      </trkpt>
      <trkpt lat="46.63719" lon="5.92647">
        <ele>766</ele>
        <time>2025-10-08T07:28:52.212+00:00</time>
      </trkpt>
      <trkpt lat="46.63716" lon="5.92644">
        <ele>766</ele>
        <time>2025-10-08T07:28:56.300+00:00</time>
      </trkpt>
      <trkpt lat="46.63712" lon="5.92639">
        <ele>766</ele>
        <time>2025-10-08T07:29:00.797+00:00</time>
      </trkpt>
      <trkpt lat="46.63708" lon="5.92634">
        <ele>778</ele>
        <time>2025-10-08T07:29:05.671+00:00</time>
      </trkpt>
      <trkpt lat="46.63704" lon="5.9263">
        <ele>778</ele>
        <time>2025-10-08T07:29:09.797+00:00</time>
      </trkpt>
      <trkpt lat="46.63701" lon="5.92624">
        <ele>775</ele>
        <time>2025-10-08T07:29:14.397+00:00</time>
      </trkpt>
      <trkpt lat="46.63697" lon="5.92619">
        <ele>775</ele>
        <time>2025-10-08T07:29:18.797+00:00</time>
      </trkpt>
      <trkpt lat="46.63693" lon="5.92613">
        <ele>775</ele>
        <time>2025-10-08T07:29:23.754+00:00</time>
      </trkpt>
      <trkpt lat="46.63691" lon="5.92607">
        <ele>775</ele>
        <time>2025-10-08T07:29:27.798+00:00</time>
      </trkpt>
      <trkpt lat="46.63688" lon="5.92603">
        <ele>775</ele>
        <time>2025-10-08T07:29:32.413+00:00</time>
      </trkpt>
      <trkpt lat="46.63685" lon="5.92597">
        <ele>775</ele>
        <time>2025-10-08T07:29:36.796+00:00</time>
      </trkpt>
      <trkpt lat="46.63682" lon="5.92591">
        <ele>772</ele>
        <time>2025-10-08T07:29:41.795+00:00</time>
      </trkpt>
      <trkpt lat="46.6368" lon="5.92586">
        <ele>781</ele>
        <time>2025-10-08T07:29:45.797+00:00</time>
      </trkpt>
      <trkpt lat="46.63678" lon="5.92578">
        <ele>781</ele>
        <time>2025-10-08T07:29:50.735+00:00</time>
      </trkpt>
      <trkpt lat="46.63677" lon="5.92572">
        <ele>781</ele>
        <time>2025-10-08T07:29:54.797+00:00</time>
      </trkpt>
      <trkpt lat="46.63675" lon="5.92564">
        <ele>778</ele>
        <time>2025-10-08T07:29:59.791+00:00</time>
      </trkpt>
      <trkpt lat="46.63672" lon="5.92558">
        <ele>778</ele>
        <time>2025-10-08T07:30:03.797+00:00</time>
      </trkpt>
      <trkpt lat="46.63669" lon="5.92552">
        <ele>778</ele>
        <time>2025-10-08T07:30:08.372+00:00</time>
      </trkpt>
      <trkpt lat="46.63667" lon="5.92546">
        <ele>778</ele>
        <time>2025-10-08T07:30:12.797+00:00</time>
      </trkpt>
      <trkpt lat="46.63664" lon="5.92538">
        <ele>777</ele>
        <time>2025-10-08T07:30:17.797+00:00</time>
      </trkpt>
      <trkpt lat="46.63661" lon="5.92533">
        <ele>777</ele>
        <time>2025-10-08T07:30:22.130+00:00</time>
      </trkpt>
      <trkpt lat="46.63658" lon="5.92526">
        <ele>777</ele>
        <time>2025-10-08T07:30:26.798+00:00</time>
      </trkpt>
      <trkpt lat="46.63654" lon="5.92521">
        <ele>777</ele>
        <time>2025-10-08T07:30:31.291+00:00</time>
      </trkpt>
      <trkpt lat="46.6365" lon="5.92517">
        <ele>786</ele>
        <time>2025-10-08T07:30:35.797+00:00</time>
      </trkpt>
      <trkpt lat="46.63646" lon="5.92513">
        <ele>783</ele>
        <time>2025-10-08T07:30:39.797+00:00</time>
      </trkpt>
      <trkpt lat="46.6364" lon="5.92507">
        <ele>783</ele>
        <time>2025-10-08T07:30:44.797+00:00</time>
      </trkpt>
      <trkpt lat="46.63637" lon="5.92502">
        <ele>783</ele>
        <time>2025-10-08T07:30:49.151+00:00</time>
      </trkpt>
      <trkpt lat="46.63633" lon="5.92495">
        <ele>783</ele>
        <time>2025-10-08T07:30:53.825+00:00</time>
      </trkpt>
      <trkpt lat="46.63629" lon="5.9249">
        <ele>783</ele>
        <time>2025-10-08T07:30:58.253+00:00</time>
      </trkpt>
      <trkpt lat="46.63626" lon="5.92484">
        <ele>780</ele>
        <time>2025-10-08T07:31:02.797+00:00</time>
      </trkpt>
      <trkpt lat="46.63623" lon="5.92477">
        <ele>788</ele>
        <time>2025-10-08T07:31:07.753+00:00</time>
      </trkpt>
      <trkpt lat="46.6362" lon="5.92471">
        <ele>788</ele>
        <time>2025-10-08T07:31:12.735+00:00</time>
      </trkpt>
      <trkpt lat="46.63617" lon="5.92466">
        <ele>788</ele>
        <time>2025-10-08T07:31:16.797+00:00</time>
      </trkpt>
      <trkpt lat="46.63614" lon="5.9246">
        <ele>788</ele>
        <time>2025-10-08T07:31:20.855+00:00</time>
      </trkpt>
      <trkpt lat="46.63611" lon="5.92454">
        <ele>781</ele>
        <time>2025-10-08T07:31:25.471+00:00</time>
      </trkpt>
      <trkpt lat="46.63608" lon="5.92448">
        <ele>781</ele>
        <time>2025-10-08T07:31:29.798+00:00</time>
      </trkpt>
      <trkpt lat="46.63604" lon="5.92442">
        <ele>781</ele>
        <time>2025-10-08T07:31:34.476+00:00</time>
      </trkpt>
      <trkpt lat="46.636" lon="5.92436">
        <ele>781</ele>
        <time>2025-10-08T07:31:39.475+00:00</time>
      </trkpt>
      <trkpt lat="46.63597" lon="5.92431">
        <ele>781</ele>
        <time>2025-10-08T07:31:43.594+00:00</time>
      </trkpt>
      <trkpt lat="46.63594" lon="5.92425">
        <ele>784</ele>
        <time>2025-10-08T07:31:48.133+00:00</time>
      </trkpt>
      <trkpt lat="46.63591" lon="5.92419">
        <ele>784</ele>
        <time>2025-10-08T07:31:52.798+00:00</time>
      </trkpt>
      <trkpt lat="46.63589" lon="5.92413">
        <ele>784</ele>
        <time>2025-10-08T07:31:56.891+00:00</time>
      </trkpt>
      <trkpt lat="46.63585" lon="5.92407">
        <ele>784</ele>
        <time>2025-10-08T07:32:01.396+00:00</time>
      </trkpt>
      <trkpt lat="46.63583" lon="5.924">
        <ele>779</ele>
        <time>2025-10-08T07:32:05.797+00:00</time>
      </trkpt>
      <trkpt lat="46.6358" lon="5.92394">
        <ele>779</ele>
        <time>2025-10-08T07:32:10.530+00:00</time>
      </trkpt>
      <trkpt lat="46.63576" lon="5.92388">
        <ele>779</ele>
        <time>2025-10-08T07:32:14.797+00:00</time>
      </trkpt>
      <trkpt lat="46.63573" lon="5.92382">
        <ele>779</ele>
        <time>2025-10-08T07:32:19.410+00:00</time>
      </trkpt>
      <trkpt lat="46.63569" lon="5.92377">
        <ele>791</ele>
        <time>2025-10-08T07:32:23.797+00:00</time>
      </trkpt>
      <trkpt lat="46.63566" lon="5.92372">
        <ele>786</ele>
        <time>2025-10-08T07:32:28.050+00:00</time>
      </trkpt>
      <trkpt lat="46.63562" lon="5.92367">
        <ele>786</ele>
        <time>2025-10-08T07:32:32.417+00:00</time>
      </trkpt>
      <trkpt lat="46.63559" lon="5.92361">
        <ele>786</ele>
        <time>2025-10-08T07:32:36.690+00:00</time>
      </trkpt>
      <trkpt lat="46.63554" lon="5.92355">
        <ele>786</ele>
        <time>2025-10-08T07:32:40.797+00:00</time>
      </trkpt>
      <trkpt lat="46.6355" lon="5.92351">
        <ele>786</ele>
        <time>2025-10-08T07:32:45.116+00:00</time>
      </trkpt>
      <trkpt lat="46.63546" lon="5.92346">
        <ele>781</ele>
        <time>2025-10-08T07:32:49.798+00:00</time>
      </trkpt>
      <trkpt lat="46.63542" lon="5.9234">
        <ele>781</ele>
        <time>2025-10-08T07:32:54.414+00:00</time>
      </trkpt>
      <trkpt lat="46.63539" lon="5.92334">
        <ele>790</ele>
        <time>2025-10-08T07:32:58.593+00:00</time>
      </trkpt>
      <trkpt lat="46.63536" lon="5.92328">
        <ele>790</ele>
        <time>2025-10-08T07:33:02.797+00:00</time>
      </trkpt>
      <trkpt lat="46.63534" lon="5.92322">
        <ele>790</ele>
        <time>2025-10-08T07:33:07.037+00:00</time>
      </trkpt>
      <trkpt lat="46.63531" lon="5.92316">
        <ele>783</ele>
        <time>2025-10-08T07:33:11.217+00:00</time>
      </trkpt>
      <trkpt lat="46.63528" lon="5.9231">
        <ele>783</ele>
        <time>2025-10-08T07:33:15.798+00:00</time>
      </trkpt>
      <trkpt lat="46.63526" lon="5.92304">
        <ele>783</ele>
        <time>2025-10-08T07:33:20.130+00:00</time>
      </trkpt>
      <trkpt lat="46.63522" lon="5.92298">
        <ele>783</ele>
        <time>2025-10-08T07:33:24.590+00:00</time>
      </trkpt>
      <trkpt lat="46.63519" lon="5.92292">
        <ele>781</ele>
        <time>2025-10-08T07:33:29.615+00:00</time>
      </trkpt>
      <trkpt lat="46.63515" lon="5.92285">
        <ele>781</ele>
        <time>2025-10-08T07:33:34.393+00:00</time>
      </trkpt>
      <trkpt lat="46.63511" lon="5.92281">
        <ele>788</ele>
        <time>2025-10-08T07:33:38.476+00:00</time>
      </trkpt>
      <trkpt lat="46.63509" lon="5.92278">
        <ele>788</ele>
        <time>2025-10-08T07:33:42.452+00:00</time>
      </trkpt>
      <trkpt lat="46.63507" lon="5.92271">
        <ele>788</ele>
        <time>2025-10-08T07:33:46.972+00:00</time>
      </trkpt>
      <trkpt lat="46.63504" lon="5.92265">
        <ele>788</ele>
        <time>2025-10-08T07:33:51.732+00:00</time>
      </trkpt>
      <trkpt lat="46.63502" lon="5.92259">
        <ele>785</ele>
        <time>2025-10-08T07:34:41.797+00:00</time>
      </trkpt>
      <trkpt lat="46.63499" lon="5.92257">
        <ele>785</ele>
        <time>2025-10-08T07:34:46.335+00:00</time>
      </trkpt>
      <trkpt lat="46.63495" lon="5.92254">
        <ele>785</ele>
        <time>2025-10-08T07:34:50.798+00:00</time>
      </trkpt>
      <trkpt lat="46.63492" lon="5.92253">
        <ele>785</ele>
        <time>2025-10-08T07:34:54.797+00:00</time>
      </trkpt>
      <trkpt lat="46.6349" lon="5.92254">
        <ele>785</ele>
        <time>2025-10-08T07:34:58.805+00:00</time>
      </trkpt>
      <trkpt lat="46.6349" lon="5.92253">
        <ele>785</ele>
        <time>2025-10-08T07:40:40.799+00:00</time>
      </trkpt>
      <trkpt lat="46.6349" lon="5.92253">
        <ele>785</ele>
        <time>2025-10-08T07:40:45.798+00:00</time>
      </trkpt>
      <trkpt lat="46.63486" lon="5.92254">
        <ele>790</ele>
        <time>2025-10-08T07:40:49.798+00:00</time>
      </trkpt>
      <trkpt lat="46.63482" lon="5.92256">
        <ele>790</ele>
        <time>2025-10-08T07:40:53.933+00:00</time>
      </trkpt>
      <trkpt lat="46.6348" lon="5.92259">
        <ele>790</ele>
        <time>2025-10-08T07:40:58.554+00:00</time>
      </trkpt>
      <trkpt lat="46.63477" lon="5.92262">
        <ele>790</ele>
        <time>2025-10-08T07:41:02.798+00:00</time>
      </trkpt>
      <trkpt lat="46.63474" lon="5.92266">
        <ele>798</ele>
        <time>2025-10-08T07:41:07.357+00:00</time>
      </trkpt>
      <trkpt lat="46.63472" lon="5.9227">
        <ele>798</ele>
        <time>2025-10-08T07:41:11.631+00:00</time>
      </trkpt>
      <trkpt lat="46.6347" lon="5.92272">
        <ele>798</ele>
        <time>2025-10-08T07:41:15.673+00:00</time>
      </trkpt>
      <trkpt lat="46.63468" lon="5.92274">
        <ele>798</ele>
        <time>2025-10-08T07:41:20.151+00:00</time>
      </trkpt>
      <trkpt lat="46.63465" lon="5.92275">
        <ele>798</ele>
        <time>2025-10-08T07:41:24.629+00:00</time>
      </trkpt>
      <trkpt lat="46.63461" lon="5.92275">
        <ele>798</ele>
        <time>2025-10-08T07:41:28.799+00:00</time>
      </trkpt>
      <trkpt lat="46.63458" lon="5.92274">
        <ele>807</ele>
        <time>2025-10-08T07:41:33.432+00:00</time>
      </trkpt>
      <trkpt lat="46.63455" lon="5.92275">
        <ele>807</ele>
        <time>2025-10-08T07:41:37.822+00:00</time>
      </trkpt>
      <trkpt lat="46.63452" lon="5.92276">
        <ele>807</ele>
        <time>2025-10-08T07:41:42.117+00:00</time>
      </trkpt>
      <trkpt lat="46.63448" lon="5.92277">
        <ele>807</ele>
        <time>2025-10-08T07:41:46.456+00:00</time>
      </trkpt>
      <trkpt lat="46.63445" lon="5.92277">
        <ele>807</ele>
        <time>2025-10-08T07:41:50.798+00:00</time>
      </trkpt>
      <trkpt lat="46.63441" lon="5.92277">
        <ele>807</ele>
        <time>2025-10-08T07:41:55.275+00:00</time>
      </trkpt>
      <trkpt lat="46.63438" lon="5.92277">
        <ele>807</ele>
        <time>2025-10-08T07:41:59.798+00:00</time>
      </trkpt>
      <trkpt lat="46.63435" lon="5.92276">
        <ele>807</ele>
        <time>2025-10-08T07:42:04.436+00:00</time>
      </trkpt>
      <trkpt lat="46.63431" lon="5.92274">
        <ele>807</ele>
        <time>2025-10-08T07:42:08.908+00:00</time>
      </trkpt>
      <trkpt lat="46.63428" lon="5.92272">
        <ele>817</ele>
        <time>2025-10-08T07:42:13.641+00:00</time>
      </trkpt>
      <trkpt lat="46.63425" lon="5.9227">
        <ele>817</ele>
        <time>2025-10-08T07:42:17.798+00:00</time>
      </trkpt>
      <trkpt lat="46.63421" lon="5.92268">
        <ele>817</ele>
        <time>2025-10-08T07:42:22.461+00:00</time>
      </trkpt>
      <trkpt lat="46.63419" lon="5.92268">
        <ele>817</ele>
        <time>2025-10-08T07:42:26.798+00:00</time>
      </trkpt>
      <trkpt lat="46.63417" lon="5.92273">
        <ele>817</ele>
        <time>2025-10-08T07:42:31.416+00:00</time>
      </trkpt>
      <trkpt lat="46.63419" lon="5.92279">
        <ele>817</ele>
        <time>2025-10-08T07:42:35.502+00:00</time>
      </trkpt>
      <trkpt lat="46.63422" lon="5.92283">
        <ele>817</ele>
        <time>2025-10-08T07:42:39.716+00:00</time>
      </trkpt>
      <trkpt lat="46.63425" lon="5.92287">
        <ele>817</ele>
        <time>2025-10-08T07:42:43.798+00:00</time>
      </trkpt>
      <trkpt lat="46.63427" lon="5.92294">
        <ele>825</ele>
        <time>2025-10-08T07:42:48.603+00:00</time>
      </trkpt>
      <trkpt lat="46.63428" lon="5.923">
        <ele>825</ele>
        <time>2025-10-08T07:42:53.099+00:00</time>
      </trkpt>
      <trkpt lat="46.63428" lon="5.92309">
        <ele>825</ele>
        <time>2025-10-08T07:42:57.575+00:00</time>
      </trkpt>
      <trkpt lat="46.6343" lon="5.92318">
        <ele>825</ele>
        <time>2025-10-08T07:43:01.798+00:00</time>
      </trkpt>
      <trkpt lat="46.63433" lon="5.92322">
        <ele>822</ele>
        <time>2025-10-08T07:43:06.799+00:00</time>
      </trkpt>
      <trkpt lat="46.63431" lon="5.92323">
        <ele>822</ele>
        <time>2025-10-08T07:43:11.615+00:00</time>
      </trkpt>
      <trkpt lat="46.63427" lon="5.9232">
        <ele>832</ele>
        <time>2025-10-08T07:43:16.443+00:00</time>
      </trkpt>
      <trkpt lat="46.63423" lon="5.92316">
        <ele>825</ele>
        <time>2025-10-08T07:43:20.824+00:00</time>
      </trkpt>
      <trkpt lat="46.63417" lon="5.92313">
        <ele>825</ele>
        <time>2025-10-08T07:43:30.364+00:00</time>
      </trkpt>
      <trkpt lat="46.63416" lon="5.92314">
        <ele>825</ele>
        <time>2025-10-08T07:43:34.662+00:00</time>
      </trkpt>
      <trkpt lat="46.63415" lon="5.92319">
        <ele>825</ele>
        <time>2025-10-08T07:43:38.798+00:00</time>
      </trkpt>
      <trkpt lat="46.63415" lon="5.92324">
        <ele>832</ele>
        <time>2025-10-08T07:43:43.431+00:00</time>
      </trkpt>
      <trkpt lat="46.63413" lon="5.92323">
        <ele>832</ele>
        <time>2025-10-08T07:43:47.798+00:00</time>
      </trkpt>
      <trkpt lat="46.63411" lon="5.92332">
        <ele>832</ele>
        <time>2025-10-08T07:44:06.799+00:00</time>
      </trkpt>
      <trkpt lat="46.6341" lon="5.92331">
        <ele>832</ele>
        <time>2025-10-08T07:44:11.220+00:00</time>
      </trkpt>
      <trkpt lat="46.63409" lon="5.92334">
        <ele>832</ele>
        <time>2025-10-08T07:44:15.296+00:00</time>
      </trkpt>
      <trkpt lat="46.63407" lon="5.92336">
        <ele>832</ele>
        <time>2025-10-08T07:44:19.385+00:00</time>
      </trkpt>
      <trkpt lat="46.63406" lon="5.92334">
        <ele>832</ele>
        <time>2025-10-08T07:44:23.684+00:00</time>
      </trkpt>
      <trkpt lat="46.63401" lon="5.92331">
        <ele>843</ele>
        <time>2025-10-08T07:44:32.562+00:00</time>
      </trkpt>
      <trkpt lat="46.634" lon="5.92329">
        <ele>843</ele>
        <time>2025-10-08T07:44:36.798+00:00</time>
      </trkpt>
      <trkpt lat="46.63397" lon="5.92329">
        <ele>843</ele>
        <time>2025-10-08T07:44:41.798+00:00</time>
      </trkpt>
      <trkpt lat="46.63396" lon="5.92327">
        <ele>843</ele>
        <time>2025-10-08T07:44:45.884+00:00</time>
      </trkpt>
      <trkpt lat="46.63394" lon="5.92329">
        <ele>843</ele>
        <time>2025-10-08T07:44:50.559+00:00</time>
      </trkpt>
      <trkpt lat="46.63393" lon="5.92337">
        <ele>843</ele>
        <time>2025-10-08T07:45:03.798+00:00</time>
      </trkpt>
      <trkpt lat="46.63391" lon="5.92339">
        <ele>843</ele>
        <time>2025-10-08T07:45:08.799+00:00</time>
      </trkpt>
      <trkpt lat="46.63388" lon="5.92339">
        <ele>843</ele>
        <time>2025-10-08T07:45:13.383+00:00</time>
      </trkpt>
      <trkpt lat="46.63386" lon="5.92336">
        <ele>843</ele>
        <time>2025-10-08T07:45:17.798+00:00</time>
      </trkpt>
      <trkpt lat="46.63384" lon="5.92333">
        <ele>843</ele>
        <time>2025-10-08T07:45:22.263+00:00</time>
      </trkpt>
      <trkpt lat="46.63382" lon="5.92332">
        <ele>843</ele>
        <time>2025-10-08T07:45:26.297+00:00</time>
      </trkpt>
      <trkpt lat="46.6338" lon="5.92331">
        <ele>843</ele>
        <time>2025-10-08T07:45:30.383+00:00</time>
      </trkpt>
      <trkpt lat="46.63377" lon="5.92331">
        <ele>843</ele>
        <time>2025-10-08T07:45:34.798+00:00</time>
      </trkpt>
      <trkpt lat="46.63374" lon="5.92331">
        <ele>854</ele>
        <time>2025-10-08T07:45:39.603+00:00</time>
      </trkpt>
      <trkpt lat="46.63372" lon="5.92332">
        <ele>854</ele>
        <time>2025-10-08T07:45:44.423+00:00</time>
      </trkpt>
      <trkpt lat="46.63371" lon="5.92331">
        <ele>854</ele>
        <time>2025-10-08T07:45:48.799+00:00</time>
      </trkpt>
      <trkpt lat="46.63369" lon="5.92328">
        <ele>854</ele>
        <time>2025-10-08T07:45:53.677+00:00</time>
      </trkpt>
      <trkpt lat="46.63367" lon="5.92326">
        <ele>854</ele>
        <time>2025-10-08T07:45:58.437+00:00</time>
      </trkpt>
      <trkpt lat="46.63365" lon="5.92323">
        <ele>854</ele>
        <time>2025-10-08T07:46:02.798+00:00</time>
      </trkpt>
      <trkpt lat="46.63363" lon="5.92322">
        <ele>854</ele>
        <time>2025-10-08T07:46:07.798+00:00</time>
      </trkpt>
      <trkpt lat="46.63361" lon="5.92321">
        <ele>854</ele>
        <time>2025-10-08T07:46:16.799+00:00</time>
      </trkpt>
      <trkpt lat="46.63361" lon="5.9232">
        <ele>854</ele>
        <time>2025-10-08T07:46:21.039+00:00</time>
      </trkpt>
      <trkpt lat="46.6336" lon="5.92318">
        <ele>847</ele>
        <time>2025-10-08T07:46:25.304+00:00</time>
      </trkpt>
      <trkpt lat="46.63358" lon="5.92314">
        <ele>847</ele>
        <time>2025-10-08T07:46:29.798+00:00</time>
      </trkpt>
      <trkpt lat="46.63358" lon="5.92312">
        <ele>847</ele>
        <time>2025-10-08T07:46:34.279+00:00</time>
      </trkpt>
      <trkpt lat="46.63357" lon="5.9231">
        <ele>847</ele>
        <time>2025-10-08T07:46:42.798+00:00</time>
      </trkpt>
      <trkpt lat="46.63356" lon="5.9231">
        <ele>847</ele>
        <time>2025-10-08T07:46:47.799+00:00</time>
      </trkpt>
      <trkpt lat="46.63354" lon="5.9231">
        <ele>847</ele>
        <time>2025-10-08T07:46:52.798+00:00</time>
      </trkpt>
      <trkpt lat="46.63351" lon="5.9231">
        <ele>847</ele>
        <time>2025-10-08T07:46:57.461+00:00</time>
      </trkpt>
      <trkpt lat="46.63348" lon="5.92308">
        <ele>847</ele>
        <time>2025-10-08T07:47:01.798+00:00</time>
      </trkpt>
      <trkpt lat="46.63345" lon="5.92305">
        <ele>862</ele>
        <time>2025-10-08T07:47:10.801+00:00</time>
      </trkpt>
      <trkpt lat="46.63343" lon="5.92305">
        <ele>862</ele>
        <time>2025-10-08T07:47:14.798+00:00</time>
      </trkpt>
      <trkpt lat="46.6334" lon="5.92303">
        <ele>862</ele>
        <time>2025-10-08T07:47:19.403+00:00</time>
      </trkpt>
      <trkpt lat="46.63339" lon="5.92302">
        <ele>862</ele>
        <time>2025-10-08T07:47:24.419+00:00</time>
      </trkpt>
      <trkpt lat="46.63336" lon="5.92301">
        <ele>862</ele>
        <time>2025-10-08T07:47:28.798+00:00</time>
      </trkpt>
      <trkpt lat="46.63331" lon="5.923">
        <ele>862</ele>
        <time>2025-10-08T07:47:42.798+00:00</time>
      </trkpt>
      <trkpt lat="46.6333" lon="5.923">
        <ele>862</ele>
        <time>2025-10-08T07:47:48.798+00:00</time>
      </trkpt>
      <trkpt lat="46.63329" lon="5.923">
        <ele>862</ele>
        <time>2025-10-08T07:47:54.341+00:00</time>
      </trkpt>
      <trkpt lat="46.63325" lon="5.92298">
        <ele>862</ele>
        <time>2025-10-08T07:47:58.798+00:00</time>
      </trkpt>
      <trkpt lat="46.63322" lon="5.92297">
        <ele>862</ele>
        <time>2025-10-08T07:48:03.819+00:00</time>
      </trkpt>
      <trkpt lat="46.63321" lon="5.92297">
        <ele>862</ele>
        <time>2025-10-08T07:48:08.124+00:00</time>
      </trkpt>
      <trkpt lat="46.63319" lon="5.92295">
        <ele>879</ele>
        <time>2025-10-08T07:48:12.799+00:00</time>
      </trkpt>
      <trkpt lat="46.63318" lon="5.92297">
        <ele>879</ele>
        <time>2025-10-08T07:48:20.798+00:00</time>
      </trkpt>
      <trkpt lat="46.63318" lon="5.92302">
        <ele>879</ele>
        <time>2025-10-08T07:48:25.158+00:00</time>
      </trkpt>
      <trkpt lat="46.63317" lon="5.92309">
        <ele>879</ele>
        <time>2025-10-08T07:48:29.525+00:00</time>
      </trkpt>
      <trkpt lat="46.63316" lon="5.92318">
        <ele>879</ele>
        <time>2025-10-08T07:48:52.537+00:00</time>
      </trkpt>
      <trkpt lat="46.63315" lon="5.92318">
        <ele>879</ele>
        <time>2025-10-08T07:48:56.799+00:00</time>
      </trkpt>
      <trkpt lat="46.63313" lon="5.92318">
        <ele>879</ele>
        <time>2025-10-08T07:49:01.237+00:00</time>
      </trkpt>
      <trkpt lat="46.63309" lon="5.92316">
        <ele>879</ele>
        <time>2025-10-08T07:49:05.322+00:00</time>
      </trkpt>
      <trkpt lat="46.63307" lon="5.92311">
        <ele>879</ele>
        <time>2025-10-08T07:49:09.724+00:00</time>
      </trkpt>
      <trkpt lat="46.63305" lon="5.92309">
        <ele>879</ele>
        <time>2025-10-08T07:49:14.202+00:00</time>
      </trkpt>
      <trkpt lat="46.63305" lon="5.92317">
        <ele>879</ele>
        <time>2025-10-08T07:49:18.458+00:00</time>
      </trkpt>
      <trkpt lat="46.63308" lon="5.92323">
        <ele>885</ele>
        <time>2025-10-08T07:49:22.783+00:00</time>
      </trkpt>
      <trkpt lat="46.63312" lon="5.92327">
        <ele>885</ele>
        <time>2025-10-08T07:49:26.798+00:00</time>
      </trkpt>
      <trkpt lat="46.63316" lon="5.92331">
        <ele>885</ele>
        <time>2025-10-08T07:49:31.367+00:00</time>
      </trkpt>
      <trkpt lat="46.63316" lon="5.92336">
        <ele>885</ele>
        <time>2025-10-08T07:49:35.798+00:00</time>
      </trkpt>
      <trkpt lat="46.63312" lon="5.92336">
        <ele>885</ele>
        <time>2025-10-08T07:49:40.319+00:00</time>
      </trkpt>
      <trkpt lat="46.63309" lon="5.92332">
        <ele>885</ele>
        <time>2025-10-08T07:49:44.559+00:00</time>
      </trkpt>
      <trkpt lat="46.63305" lon="5.92327">
        <ele>885</ele>
        <time>2025-10-08T07:49:48.645+00:00</time>
      </trkpt>
      <trkpt lat="46.63303" lon="5.92324">
        <ele>885</ele>
        <time>2025-10-08T07:49:52.798+00:00</time>
      </trkpt>
      <trkpt lat="46.63302" lon="5.92318">
        <ele>879</ele>
        <time>2025-10-08T07:49:57.524+00:00</time>
      </trkpt>
      <trkpt lat="46.63302" lon="5.92314">
        <ele>879</ele>
        <time>2025-10-08T07:50:01.644+00:00</time>
      </trkpt>
      <trkpt lat="46.63302" lon="5.9231">
        <ele>879</ele>
        <time>2025-10-08T07:50:06.259+00:00</time>
      </trkpt>
      <trkpt lat="46.633" lon="5.92306">
        <ele>879</ele>
        <time>2025-10-08T07:50:10.798+00:00</time>
      </trkpt>
      <trkpt lat="46.633" lon="5.92303">
        <ele>879</ele>
        <time>2025-10-08T07:50:15.444+00:00</time>
      </trkpt>
      <trkpt lat="46.63297" lon="5.92295">
        <ele>879</ele>
        <time>2025-10-08T07:50:19.798+00:00</time>
      </trkpt>
      <trkpt lat="46.63295" lon="5.92288">
        <ele>870</ele>
        <time>2025-10-08T07:50:24.664+00:00</time>
      </trkpt>
      <trkpt lat="46.63294" lon="5.92282">
        <ele>870</ele>
        <time>2025-10-08T07:50:29.242+00:00</time>
      </trkpt>
      <trkpt lat="46.6329" lon="5.92281">
        <ele>883</ele>
        <time>2025-10-08T07:50:33.344+00:00</time>
      </trkpt>
      <trkpt lat="46.63287" lon="5.92277">
        <ele>883</ele>
        <time>2025-10-08T07:50:37.798+00:00</time>
      </trkpt>
      <trkpt lat="46.63284" lon="5.9227">
        <ele>883</ele>
        <time>2025-10-08T07:50:42.462+00:00</time>
      </trkpt>
      <trkpt lat="46.63282" lon="5.92265">
        <ele>883</ele>
        <time>2025-10-08T07:50:46.788+00:00</time>
      </trkpt>
      <trkpt lat="46.63279" lon="5.92261">
        <ele>877</ele>
        <time>2025-10-08T07:50:50.984+00:00</time>
      </trkpt>
      <trkpt lat="46.63277" lon="5.92259">
        <ele>877</ele>
        <time>2025-10-08T07:50:55.577+00:00</time>
      </trkpt>
      <trkpt lat="46.63273" lon="5.92256">
        <ele>877</ele>
        <time>2025-10-08T07:51:00.069+00:00</time>
      </trkpt>
      <trkpt lat="46.63266" lon="5.92249">
        <ele>877</ele>
        <time>2025-10-08T07:51:13.288+00:00</time>
      </trkpt>
      <trkpt lat="46.63264" lon="5.92249">
        <ele>888</ele>
        <time>2025-10-08T07:51:18.168+00:00</time>
      </trkpt>
      <trkpt lat="46.63263" lon="5.92249">
        <ele>888</ele>
        <time>2025-10-08T07:51:25.299+00:00</time>
      </trkpt>
      <trkpt lat="46.63261" lon="5.92252">
        <ele>888</ele>
        <time>2025-10-08T07:51:29.391+00:00</time>
      </trkpt>
      <trkpt lat="46.63258" lon="5.92253">
        <ele>888</ele>
        <time>2025-10-08T07:51:33.508+00:00</time>
      </trkpt>
      <trkpt lat="46.63255" lon="5.92248">
        <ele>888</ele>
        <time>2025-10-08T07:51:41.809+00:00</time>
      </trkpt>
      <trkpt lat="46.63254" lon="5.92245">
        <ele>888</ele>
        <time>2025-10-08T07:51:46.554+00:00</time>
      </trkpt>
      <trkpt lat="46.63254" lon="5.92242">
        <ele>888</ele>
        <time>2025-10-08T07:51:50.798+00:00</time>
      </trkpt>
      <trkpt lat="46.63255" lon="5.92238">
        <ele>888</ele>
        <time>2025-10-08T07:51:55.668+00:00</time>
      </trkpt>
      <trkpt lat="46.63253" lon="5.92234">
        <ele>885</ele>
        <time>2025-10-08T07:51:59.798+00:00</time>
      </trkpt>
      <trkpt lat="46.63251" lon="5.92232">
        <ele>885</ele>
        <time>2025-10-08T07:52:04.206+00:00</time>
      </trkpt>
      <trkpt lat="46.63248" lon="5.92231">
        <ele>885</ele>
        <time>2025-10-08T07:52:08.325+00:00</time>
      </trkpt>
      <trkpt lat="46.63245" lon="5.92229">
        <ele>885</ele>
        <time>2025-10-08T07:52:12.403+00:00</time>
      </trkpt>
      <trkpt lat="46.63242" lon="5.92227">
        <ele>885</ele>
        <time>2025-10-08T07:52:16.523+00:00</time>
      </trkpt>
      <trkpt lat="46.63238" lon="5.92218">
        <ele>885</ele>
        <time>2025-10-08T07:54:14.798+00:00</time>
      </trkpt>
      <trkpt lat="46.63237" lon="5.92217">
        <ele>885</ele>
        <time>2025-10-08T07:54:18.798+00:00</time>
      </trkpt>
      <trkpt lat="46.63235" lon="5.92214">
        <ele>893</ele>
        <time>2025-10-08T07:54:23.798+00:00</time>
      </trkpt>
      <trkpt lat="46.63235" lon="5.92214">
        <ele>893</ele>
        <time>2025-10-08T07:54:27.798+00:00</time>
      </trkpt>
      <trkpt lat="46.63235" lon="5.92213">
        <ele>893</ele>
        <time>2025-10-08T07:54:33.705+00:00</time>
      </trkpt>
      <trkpt lat="46.63233" lon="5.92216">
        <ele>893</ele>
        <time>2025-10-08T08:02:42.797+00:00</time>
      </trkpt>
      <trkpt lat="46.63233" lon="5.92216">
        <ele>893</ele>
        <time>2025-10-08T08:02:47.797+00:00</time>
      </trkpt>
      <trkpt lat="46.63232" lon="5.92216">
        <ele>893</ele>
        <time>2025-10-08T08:02:52.009+00:00</time>
      </trkpt>
      <trkpt lat="46.63226" lon="5.92215">
        <ele>893</ele>
        <time>2025-10-08T08:02:56.797+00:00</time>
      </trkpt>
      <trkpt lat="46.6322" lon="5.92212">
        <ele>893</ele>
        <time>2025-10-08T08:03:01.187+00:00</time>
      </trkpt>
      <trkpt lat="46.63216" lon="5.92207">
        <ele>890</ele>
        <time>2025-10-08T08:03:05.798+00:00</time>
      </trkpt>
      <trkpt lat="46.63214" lon="5.92203">
        <ele>890</ele>
        <time>2025-10-08T08:03:10.308+00:00</time>
      </trkpt>
      <trkpt lat="46.63212" lon="5.92198">
        <ele>890</ele>
        <time>2025-10-08T08:03:14.547+00:00</time>
      </trkpt>
      <trkpt lat="46.63214" lon="5.92195">
        <ele>890</ele>
        <time>2025-10-08T08:03:18.797+00:00</time>
      </trkpt>
      <trkpt lat="46.63211" lon="5.92191">
        <ele>890</ele>
        <time>2025-10-08T08:03:23.531+00:00</time>
      </trkpt>
      <trkpt lat="46.63207" lon="5.92192">
        <ele>896</ele>
        <time>2025-10-08T08:03:27.549+00:00</time>
      </trkpt>
      <trkpt lat="46.63203" lon="5.92194">
        <ele>896</ele>
        <time>2025-10-08T08:03:32.113+00:00</time>
      </trkpt>
      <trkpt lat="46.632" lon="5.92194">
        <ele>896</ele>
        <time>2025-10-08T08:03:36.797+00:00</time>
      </trkpt>
      <trkpt lat="46.63196" lon="5.92192">
        <ele>896</ele>
        <time>2025-10-08T08:03:40.772+00:00</time>
      </trkpt>
      <trkpt lat="46.63193" lon="5.92191">
        <ele>896</ele>
        <time>2025-10-08T08:03:59.797+00:00</time>
      </trkpt>
      <trkpt lat="46.63193" lon="5.92188">
        <ele>896</ele>
        <time>2025-10-08T08:04:04.574+00:00</time>
      </trkpt>
      <trkpt lat="46.63195" lon="5.92181">
        <ele>896</ele>
        <time>2025-10-08T08:04:08.798+00:00</time>
      </trkpt>
      <trkpt lat="46.63196" lon="5.92178">
        <ele>896</ele>
        <time>2025-10-08T08:04:13.650+00:00</time>
      </trkpt>
      <trkpt lat="46.63195" lon="5.92174">
        <ele>896</ele>
        <time>2025-10-08T08:04:17.797+00:00</time>
      </trkpt>
      <trkpt lat="46.63196" lon="5.9217">
        <ele>896</ele>
        <time>2025-10-08T08:04:22.650+00:00</time>
      </trkpt>
      <trkpt lat="46.63197" lon="5.92165">
        <ele>896</ele>
        <time>2025-10-08T08:04:27.308+00:00</time>
      </trkpt>
      <trkpt lat="46.632" lon="5.9216">
        <ele>896</ele>
        <time>2025-10-08T08:04:31.694+00:00</time>
      </trkpt>
      <trkpt lat="46.63199" lon="5.92157">
        <ele>896</ele>
        <time>2025-10-08T08:04:35.788+00:00</time>
      </trkpt>
      <trkpt lat="46.63198" lon="5.92157">
        <ele>896</ele>
        <time>2025-10-08T08:04:39.798+00:00</time>
      </trkpt>
      <trkpt lat="46.63197" lon="5.92154">
        <ele>896</ele>
        <time>2025-10-08T08:04:44.797+00:00</time>
      </trkpt>
      <trkpt lat="46.63192" lon="5.92148">
        <ele>890</ele>
        <time>2025-10-08T08:04:49.310+00:00</time>
      </trkpt>
      <trkpt lat="46.63191" lon="5.92143">
        <ele>890</ele>
        <time>2025-10-08T08:04:53.806+00:00</time>
      </trkpt>
      <trkpt lat="46.63189" lon="5.9214">
        <ele>890</ele>
        <time>2025-10-08T08:04:58.208+00:00</time>
      </trkpt>
      <trkpt lat="46.63188" lon="5.92137">
        <ele>890</ele>
        <time>2025-10-08T08:05:02.252+00:00</time>
      </trkpt>
      <trkpt lat="46.63186" lon="5.92134">
        <ele>890</ele>
        <time>2025-10-08T08:05:06.509+00:00</time>
      </trkpt>
      <trkpt lat="46.63185" lon="5.92132">
        <ele>890</ele>
        <time>2025-10-08T08:05:10.800+00:00</time>
      </trkpt>
      <trkpt lat="46.63184" lon="5.92128">
        <ele>890</ele>
        <time>2025-10-08T08:05:15.133+00:00</time>
      </trkpt>
      <trkpt lat="46.63182" lon="5.92121">
        <ele>880</ele>
        <time>2025-10-08T08:05:32.793+00:00</time>
      </trkpt>
      <trkpt lat="46.63181" lon="5.92116">
        <ele>880</ele>
        <time>2025-10-08T08:05:37.614+00:00</time>
      </trkpt>
      <trkpt lat="46.6318" lon="5.9211">
        <ele>892</ele>
        <time>2025-10-08T08:05:42.152+00:00</time>
      </trkpt>
      <trkpt lat="46.63177" lon="5.92106">
        <ele>892</ele>
        <time>2025-10-08T08:05:46.186+00:00</time>
      </trkpt>
      <trkpt lat="46.63174" lon="5.92103">
        <ele>892</ele>
        <time>2025-10-08T08:05:50.418+00:00</time>
      </trkpt>
      <trkpt lat="46.63172" lon="5.921">
        <ele>892</ele>
        <time>2025-10-08T08:05:54.487+00:00</time>
      </trkpt>
      <trkpt lat="46.63169" lon="5.92096">
        <ele>885</ele>
        <time>2025-10-08T08:05:58.829+00:00</time>
      </trkpt>
      <trkpt lat="46.6317" lon="5.92093">
        <ele>885</ele>
        <time>2025-10-08T08:06:03.471+00:00</time>
      </trkpt>
      <trkpt lat="46.63168" lon="5.92091">
        <ele>885</ele>
        <time>2025-10-08T08:06:07.991+00:00</time>
      </trkpt>
      <trkpt lat="46.63164" lon="5.92086">
        <ele>885</ele>
        <time>2025-10-08T08:06:12.651+00:00</time>
      </trkpt>
      <trkpt lat="46.63161" lon="5.92082">
        <ele>885</ele>
        <time>2025-10-08T08:06:17.128+00:00</time>
      </trkpt>
      <trkpt lat="46.63157" lon="5.9208">
        <ele>885</ele>
        <time>2025-10-08T08:06:21.454+00:00</time>
      </trkpt>
      <trkpt lat="46.63155" lon="5.92076">
        <ele>885</ele>
        <time>2025-10-08T08:06:25.797+00:00</time>
      </trkpt>
      <trkpt lat="46.63153" lon="5.92072">
        <ele>885</ele>
        <time>2025-10-08T08:06:30.608+00:00</time>
      </trkpt>
      <trkpt lat="46.63151" lon="5.9207">
        <ele>896</ele>
        <time>2025-10-08T08:06:34.797+00:00</time>
      </trkpt>
      <trkpt lat="46.6315" lon="5.9207">
        <ele>896</ele>
        <time>2025-10-08T08:06:39.607+00:00</time>
      </trkpt>
      <trkpt lat="46.6315" lon="5.9207">
        <ele>896</ele>
        <time>2025-10-08T08:06:41.337+00:00</time>
      </trkpt>
      <trkpt lat="46.63148" lon="5.92068">
        <ele>892</ele>
        <time>2025-10-08T08:06:49.798+00:00</time>
      </trkpt>
      <trkpt lat="46.63142" lon="5.92065">
        <ele>892</ele>
        <time>2025-10-08T08:06:54.559+00:00</time>
      </trkpt>
      <trkpt lat="46.63137" lon="5.92064">
        <ele>892</ele>
        <time>2025-10-08T08:06:58.571+00:00</time>
      </trkpt>
      <trkpt lat="46.63133" lon="5.92061">
        <ele>892</ele>
        <time>2025-10-08T08:07:02.797+00:00</time>
      </trkpt>
      <trkpt lat="46.63129" lon="5.92056">
        <ele>892</ele>
        <time>2025-10-08T08:07:07.797+00:00</time>
      </trkpt>
      <trkpt lat="46.63127" lon="5.92054">
        <ele>892</ele>
        <time>2025-10-08T08:07:11.797+00:00</time>
      </trkpt>
      <trkpt lat="46.63124" lon="5.92054">
        <ele>900</ele>
        <time>2025-10-08T08:07:15.798+00:00</time>
      </trkpt>
      <trkpt lat="46.63123" lon="5.9205">
        <ele>900</ele>
        <time>2025-10-08T08:07:20.151+00:00</time>
      </trkpt>
      <trkpt lat="46.63124" lon="5.92046">
        <ele>900</ele>
        <time>2025-10-08T08:07:24.411+00:00</time>
      </trkpt>
      <trkpt lat="46.63123" lon="5.92041">
        <ele>898</ele>
        <time>2025-10-08T08:07:29.309+00:00</time>
      </trkpt>
      <trkpt lat="46.63121" lon="5.92037">
        <ele>898</ele>
        <time>2025-10-08T08:07:33.374+00:00</time>
      </trkpt>
      <trkpt lat="46.63121" lon="5.92034">
        <ele>898</ele>
        <time>2025-10-08T08:07:37.795+00:00</time>
      </trkpt>
      <trkpt lat="46.63119" lon="5.92031">
        <ele>898</ele>
        <time>2025-10-08T08:07:42.575+00:00</time>
      </trkpt>
      <trkpt lat="46.63118" lon="5.92025">
        <ele>898</ele>
        <time>2025-10-08T08:07:47.649+00:00</time>
      </trkpt>
      <trkpt lat="46.63115" lon="5.92024">
        <ele>898</ele>
        <time>2025-10-08T08:07:51.797+00:00</time>
      </trkpt>
      <trkpt lat="46.63112" lon="5.92023">
        <ele>898</ele>
        <time>2025-10-08T08:07:56.651+00:00</time>
      </trkpt>
      <trkpt lat="46.63111" lon="5.92018">
        <ele>898</ele>
        <time>2025-10-08T08:08:01.208+00:00</time>
      </trkpt>
      <trkpt lat="46.6311" lon="5.92013">
        <ele>894</ele>
        <time>2025-10-08T08:08:05.289+00:00</time>
      </trkpt>
      <trkpt lat="46.6311" lon="5.92009">
        <ele>894</ele>
        <time>2025-10-08T08:08:09.557+00:00</time>
      </trkpt>
      <trkpt lat="46.63111" lon="5.92003">
        <ele>894</ele>
        <time>2025-10-08T08:08:14.685+00:00</time>
      </trkpt>
      <trkpt lat="46.63108" lon="5.92001">
        <ele>894</ele>
        <time>2025-10-08T08:08:18.811+00:00</time>
      </trkpt>
      <trkpt lat="46.63107" lon="5.91998">
        <ele>894</ele>
        <time>2025-10-08T08:08:23.260+00:00</time>
      </trkpt>
      <trkpt lat="46.63104" lon="5.91995">
        <ele>894</ele>
        <time>2025-10-08T08:08:27.519+00:00</time>
      </trkpt>
      <trkpt lat="46.63103" lon="5.91989">
        <ele>894</ele>
        <time>2025-10-08T08:08:31.798+00:00</time>
      </trkpt>
      <trkpt lat="46.63099" lon="5.91981">
        <ele>882</ele>
        <time>2025-10-08T08:08:50.797+00:00</time>
      </trkpt>
      <trkpt lat="46.63098" lon="5.9198">
        <ele>882</ele>
        <time>2025-10-08T08:08:55.353+00:00</time>
      </trkpt>
      <trkpt lat="46.63093" lon="5.91974">
        <ele>897</ele>
        <time>2025-10-08T08:08:59.797+00:00</time>
      </trkpt>
      <trkpt lat="46.63089" lon="5.91973">
        <ele>897</ele>
        <time>2025-10-08T08:09:04.269+00:00</time>
      </trkpt>
      <trkpt lat="46.63086" lon="5.91972">
        <ele>897</ele>
        <time>2025-10-08T08:09:08.407+00:00</time>
      </trkpt>
      <trkpt lat="46.63082" lon="5.91969">
        <ele>897</ele>
        <time>2025-10-08T08:09:13.073+00:00</time>
      </trkpt>
      <trkpt lat="46.63077" lon="5.91967">
        <ele>897</ele>
        <time>2025-10-08T08:09:17.797+00:00</time>
      </trkpt>
      <trkpt lat="46.63074" lon="5.91962">
        <ele>897</ele>
        <time>2025-10-08T08:09:22.315+00:00</time>
      </trkpt>
      <trkpt lat="46.63072" lon="5.91958">
        <ele>897</ele>
        <time>2025-10-08T08:09:26.493+00:00</time>
      </trkpt>
      <trkpt lat="46.6307" lon="5.91956">
        <ele>886</ele>
        <time>2025-10-08T08:09:31.352+00:00</time>
      </trkpt>
      <trkpt lat="46.63068" lon="5.91954">
        <ele>903</ele>
        <time>2025-10-08T08:09:35.648+00:00</time>
      </trkpt>
      <trkpt lat="46.63065" lon="5.91957">
        <ele>903</ele>
        <time>2025-10-08T08:09:40.553+00:00</time>
      </trkpt>
      <trkpt lat="46.63062" lon="5.91957">
        <ele>903</ele>
        <time>2025-10-08T08:09:44.797+00:00</time>
      </trkpt>
      <trkpt lat="46.63059" lon="5.91957">
        <ele>903</ele>
        <time>2025-10-08T08:09:49.050+00:00</time>
      </trkpt>
      <trkpt lat="46.63051" lon="5.91946">
        <ele>903</ele>
        <time>2025-10-08T08:10:16.797+00:00</time>
      </trkpt>
      <trkpt lat="46.6305" lon="5.91946">
        <ele>903</ele>
        <time>2025-10-08T08:10:21.814+00:00</time>
      </trkpt>
      <trkpt lat="46.63049" lon="5.91946">
        <ele>903</ele>
        <time>2025-10-08T08:10:26.649+00:00</time>
      </trkpt>
      <trkpt lat="46.63047" lon="5.91946">
        <ele>903</ele>
        <time>2025-10-08T08:10:30.797+00:00</time>
      </trkpt>
      <trkpt lat="46.63044" lon="5.91947">
        <ele>903</ele>
        <time>2025-10-08T08:10:35.797+00:00</time>
      </trkpt>
      <trkpt lat="46.63042" lon="5.91947">
        <ele>903</ele>
        <time>2025-10-08T08:10:40.607+00:00</time>
      </trkpt>
      <trkpt lat="46.6304" lon="5.91946">
        <ele>914</ele>
        <time>2025-10-08T08:10:45.411+00:00</time>
      </trkpt>
      <trkpt lat="46.63038" lon="5.91944">
        <ele>914</ele>
        <time>2025-10-08T08:10:49.797+00:00</time>
      </trkpt>
      <trkpt lat="46.63034" lon="5.91944">
        <ele>914</ele>
        <time>2025-10-08T08:10:54.798+00:00</time>
      </trkpt>
      <trkpt lat="46.63033" lon="5.91939">
        <ele>914</ele>
        <time>2025-10-08T08:10:58.914+00:00</time>
      </trkpt>
      <trkpt lat="46.63031" lon="5.91934">
        <ele>914</ele>
        <time>2025-10-08T08:11:03.130+00:00</time>
      </trkpt>
      <trkpt lat="46.63029" lon="5.91928">
        <ele>911</ele>
        <time>2025-10-08T08:11:07.506+00:00</time>
      </trkpt>
      <trkpt lat="46.63025" lon="5.91922">
        <ele>911</ele>
        <time>2025-10-08T08:11:11.593+00:00</time>
      </trkpt>
      <trkpt lat="46.63022" lon="5.91916">
        <ele>911</ele>
        <time>2025-10-08T08:11:15.612+00:00</time>
      </trkpt>
      <trkpt lat="46.63022" lon="5.91899">
        <ele>905</ele>
        <time>2025-10-08T08:11:51.797+00:00</time>
      </trkpt>
      <trkpt lat="46.63023" lon="5.919">
        <ele>905</ele>
        <time>2025-10-08T08:11:56.450+00:00</time>
      </trkpt>
      <trkpt lat="46.63023" lon="5.91899">
        <ele>905</ele>
        <time>2025-10-08T08:12:00.797+00:00</time>
      </trkpt>
      <trkpt lat="46.63023" lon="5.91899">
        <ele>905</ele>
        <time>2025-10-08T08:12:04.798+00:00</time>
      </trkpt>
      <trkpt lat="46.63023" lon="5.91894">
        <ele>905</ele>
        <time>2025-10-08T08:12:09.798+00:00</time>
      </trkpt>
      <trkpt lat="46.63023" lon="5.9189">
        <ele>905</ele>
        <time>2025-10-08T08:12:14.511+00:00</time>
      </trkpt>
      <trkpt lat="46.63024" lon="5.91886">
        <ele>905</ele>
        <time>2025-10-08T08:12:18.797+00:00</time>
      </trkpt>
      <trkpt lat="46.63024" lon="5.9188">
        <ele>905</ele>
        <time>2025-10-08T08:12:23.290+00:00</time>
      </trkpt>
      <trkpt lat="46.63021" lon="5.91875">
        <ele>905</ele>
        <time>2025-10-08T08:12:27.548+00:00</time>
      </trkpt>
      <trkpt lat="46.6302" lon="5.91872">
        <ele>892</ele>
        <time>2025-10-08T08:12:31.693+00:00</time>
      </trkpt>
      <trkpt lat="46.63019" lon="5.91868">
        <ele>892</ele>
        <time>2025-10-08T08:12:35.798+00:00</time>
      </trkpt>
      <trkpt lat="46.63018" lon="5.91863">
        <ele>892</ele>
        <time>2025-10-08T08:12:40.353+00:00</time>
      </trkpt>
      <trkpt lat="46.63015" lon="5.91859">
        <ele>892</ele>
        <time>2025-10-08T08:12:44.669+00:00</time>
      </trkpt>
      <trkpt lat="46.63013" lon="5.91855">
        <ele>912</ele>
        <time>2025-10-08T08:12:48.729+00:00</time>
      </trkpt>
      <trkpt lat="46.63011" lon="5.91849">
        <ele>912</ele>
        <time>2025-10-08T08:12:52.953+00:00</time>
      </trkpt>
      <trkpt lat="46.63009" lon="5.91843">
        <ele>904</ele>
        <time>2025-10-08T08:12:57.389+00:00</time>
      </trkpt>
      <trkpt lat="46.63007" lon="5.91838">
        <ele>904</ele>
        <time>2025-10-08T08:13:01.797+00:00</time>
      </trkpt>
      <trkpt lat="46.63007" lon="5.91832">
        <ele>904</ele>
        <time>2025-10-08T08:13:06.594+00:00</time>
      </trkpt>
      <trkpt lat="46.63007" lon="5.91831">
        <ele>904</ele>
        <time>2025-10-08T08:13:10.797+00:00</time>
      </trkpt>
      <trkpt lat="46.63006" lon="5.91829">
        <ele>904</ele>
        <time>2025-10-08T08:13:14.797+00:00</time>
      </trkpt>
      <trkpt lat="46.63001" lon="5.91827">
        <ele>904</ele>
        <time>2025-10-08T08:13:19.492+00:00</time>
      </trkpt>
      <trkpt lat="46.62997" lon="5.91823">
        <ele>904</ele>
        <time>2025-10-08T08:13:23.797+00:00</time>
      </trkpt>
      <trkpt lat="46.62993" lon="5.91819">
        <ele>893</ele>
        <time>2025-10-08T08:13:28.553+00:00</time>
      </trkpt>
      <trkpt lat="46.6299" lon="5.91814">
        <ele>893</ele>
        <time>2025-10-08T08:13:33.229+00:00</time>
      </trkpt>
      <trkpt lat="46.62987" lon="5.9181">
        <ele>893</ele>
        <time>2025-10-08T08:13:37.554+00:00</time>
      </trkpt>
      <trkpt lat="46.62988" lon="5.91807">
        <ele>893</ele>
        <time>2025-10-08T08:13:39.797+00:00</time>
      </trkpt>
      <trkpt lat="46.62989" lon="5.91805">
        <ele>893</ele>
        <time>2025-10-08T08:13:48.797+00:00</time>
      </trkpt>
      <trkpt lat="46.62987" lon="5.91804">
        <ele>893</ele>
        <time>2025-10-08T08:13:53.798+00:00</time>
      </trkpt>
      <trkpt lat="46.62985" lon="5.91798">
        <ele>919</ele>
        <time>2025-10-08T08:13:56.368+00:00</time>
      </trkpt>
      <trkpt lat="46.6298" lon="5.91798">
        <ele>919</ele>
        <time>2025-10-08T08:14:05.333+00:00</time>
      </trkpt>
      <trkpt lat="46.62976" lon="5.9179">
        <ele>913</ele>
        <time>2025-10-08T08:14:09.629+00:00</time>
      </trkpt>
      <trkpt lat="46.62971" lon="5.91786">
        <ele>913</ele>
        <time>2025-10-08T08:14:13.797+00:00</time>
      </trkpt>
      <trkpt lat="46.62965" lon="5.91782">
        <ele>913</ele>
        <time>2025-10-08T08:14:18.267+00:00</time>
      </trkpt>
      <trkpt lat="46.62961" lon="5.91777">
        <ele>913</ele>
        <time>2025-10-08T08:14:22.471+00:00</time>
      </trkpt>
      <trkpt lat="46.62958" lon="5.91772">
        <ele>926</ele>
        <time>2025-10-08T08:14:26.797+00:00</time>
      </trkpt>
      <trkpt lat="46.62954" lon="5.91763">
        <ele>921</ele>
        <time>2025-10-08T08:14:31.304+00:00</time>
      </trkpt>
      <trkpt lat="46.62952" lon="5.91753">
        <ele>921</ele>
        <time>2025-10-08T08:14:35.665+00:00</time>
      </trkpt>
      <trkpt lat="46.62948" lon="5.91746">
        <ele>921</ele>
        <time>2025-10-08T08:14:39.848+00:00</time>
      </trkpt>
      <trkpt lat="46.62945" lon="5.91737">
        <ele>921</ele>
        <time>2025-10-08T08:14:44.607+00:00</time>
      </trkpt>
      <trkpt lat="46.62942" lon="5.91731">
        <ele>912</ele>
        <time>2025-10-08T08:14:48.796+00:00</time>
      </trkpt>
      <trkpt lat="46.62939" lon="5.91726">
        <ele>912</ele>
        <time>2025-10-08T08:14:53.211+00:00</time>
      </trkpt>
      <trkpt lat="46.62938" lon="5.9172">
        <ele>912</ele>
        <time>2025-10-08T08:14:57.509+00:00</time>
      </trkpt>
      <trkpt lat="46.62934" lon="5.91715">
        <ele>912</ele>
        <time>2025-10-08T08:15:02.283+00:00</time>
      </trkpt>
      <trkpt lat="46.62931" lon="5.9171">
        <ele>912</ele>
        <time>2025-10-08T08:15:06.761+00:00</time>
      </trkpt>
      <trkpt lat="46.62927" lon="5.91708">
        <ele>918</ele>
        <time>2025-10-08T08:15:11.246+00:00</time>
      </trkpt>
      <trkpt lat="46.62922" lon="5.91705">
        <ele>918</ele>
        <time>2025-10-08T08:15:15.768+00:00</time>
      </trkpt>
      <trkpt lat="46.6292" lon="5.917">
        <ele>918</ele>
        <time>2025-10-08T08:15:19.797+00:00</time>
      </trkpt>
      <trkpt lat="46.62918" lon="5.91697">
        <ele>918</ele>
        <time>2025-10-08T08:15:24.790+00:00</time>
      </trkpt>
      <trkpt lat="46.62915" lon="5.91696">
        <ele>918</ele>
        <time>2025-10-08T08:15:29.784+00:00</time>
      </trkpt>
      <trkpt lat="46.62911" lon="5.91689">
        <ele>918</ele>
        <time>2025-10-08T08:15:34.489+00:00</time>
      </trkpt>
      <trkpt lat="46.62908" lon="5.91683">
        <ele>918</ele>
        <time>2025-10-08T08:15:39.129+00:00</time>
      </trkpt>
      <trkpt lat="46.62904" lon="5.91681">
        <ele>918</ele>
        <time>2025-10-08T08:15:43.428+00:00</time>
      </trkpt>
      <trkpt lat="46.629" lon="5.91681">
        <ele>931</ele>
        <time>2025-10-08T08:15:47.796+00:00</time>
      </trkpt>
      <trkpt lat="46.62895" lon="5.9168">
        <ele>926</ele>
        <time>2025-10-08T08:15:52.164+00:00</time>
      </trkpt>
      <trkpt lat="46.62891" lon="5.9168">
        <ele>926</ele>
        <time>2025-10-08T08:15:56.796+00:00</time>
      </trkpt>
      <trkpt lat="46.62888" lon="5.91676">
        <ele>926</ele>
        <time>2025-10-08T08:16:01.393+00:00</time>
      </trkpt>
      <trkpt lat="46.62886" lon="5.91672">
        <ele>926</ele>
        <time>2025-10-08T08:16:05.585+00:00</time>
      </trkpt>
      <trkpt lat="46.62885" lon="5.91667">
        <ele>926</ele>
        <time>2025-10-08T08:16:09.797+00:00</time>
      </trkpt>
      <trkpt lat="46.62884" lon="5.91661">
        <ele>926</ele>
        <time>2025-10-08T08:16:14.410+00:00</time>
      </trkpt>
      <trkpt lat="46.62883" lon="5.91656">
        <ele>926</ele>
        <time>2025-10-08T08:16:18.796+00:00</time>
      </trkpt>
      <trkpt lat="46.62879" lon="5.91653">
        <ele>920</ele>
        <time>2025-10-08T08:16:23.187+00:00</time>
      </trkpt>
      <trkpt lat="46.62874" lon="5.91652">
        <ele>927</ele>
        <time>2025-10-08T08:16:27.722+00:00</time>
      </trkpt>
      <trkpt lat="46.62871" lon="5.91651">
        <ele>927</ele>
        <time>2025-10-08T08:16:32.511+00:00</time>
      </trkpt>
      <trkpt lat="46.62868" lon="5.91649">
        <ele>927</ele>
        <time>2025-10-08T08:16:36.811+00:00</time>
      </trkpt>
      <trkpt lat="46.62865" lon="5.91649">
        <ele>927</ele>
        <time>2025-10-08T08:16:40.797+00:00</time>
      </trkpt>
      <trkpt lat="46.62861" lon="5.91645">
        <ele>927</ele>
        <time>2025-10-08T08:16:45.611+00:00</time>
      </trkpt>
      <trkpt lat="46.62859" lon="5.91642">
        <ele>927</ele>
        <time>2025-10-08T08:16:49.796+00:00</time>
      </trkpt>
      <trkpt lat="46.62855" lon="5.91639">
        <ele>927</ele>
        <time>2025-10-08T08:16:53.796+00:00</time>
      </trkpt>
      <trkpt lat="46.62853" lon="5.91634">
        <ele>927</ele>
        <time>2025-10-08T08:16:58.411+00:00</time>
      </trkpt>
      <trkpt lat="46.62851" lon="5.91631">
        <ele>927</ele>
        <time>2025-10-08T08:17:02.796+00:00</time>
      </trkpt>
      <trkpt lat="46.62848" lon="5.91628">
        <ele>927</ele>
        <time>2025-10-08T08:17:07.241+00:00</time>
      </trkpt>
      <trkpt lat="46.62847" lon="5.91625">
        <ele>925</ele>
        <time>2025-10-08T08:17:11.563+00:00</time>
      </trkpt>
      <trkpt lat="46.62845" lon="5.91624">
        <ele>923</ele>
        <time>2025-10-08T08:17:15.796+00:00</time>
      </trkpt>
      <trkpt lat="46.62843" lon="5.91619">
        <ele>923</ele>
        <time>2025-10-08T08:17:19.799+00:00</time>
      </trkpt>
      <trkpt lat="46.6284" lon="5.91615">
        <ele>923</ele>
        <time>2025-10-08T08:17:23.860+00:00</time>
      </trkpt>
      <trkpt lat="46.62838" lon="5.91611">
        <ele>923</ele>
        <time>2025-10-08T08:17:28.388+00:00</time>
      </trkpt>
      <trkpt lat="46.62837" lon="5.91606">
        <ele>923</ele>
        <time>2025-10-08T08:17:32.428+00:00</time>
      </trkpt>
      <trkpt lat="46.62837" lon="5.91601">
        <ele>923</ele>
        <time>2025-10-08T08:17:36.642+00:00</time>
      </trkpt>
      <trkpt lat="46.62833" lon="5.91596">
        <ele>918</ele>
        <time>2025-10-08T08:17:41.282+00:00</time>
      </trkpt>
      <trkpt lat="46.62828" lon="5.91594">
        <ele>918</ele>
        <time>2025-10-08T08:17:45.730+00:00</time>
      </trkpt>
      <trkpt lat="46.62824" lon="5.91596">
        <ele>918</ele>
        <time>2025-10-08T08:17:50.311+00:00</time>
      </trkpt>
      <trkpt lat="46.6282" lon="5.91599">
        <ele>923</ele>
        <time>2025-10-08T08:17:55.049+00:00</time>
      </trkpt>
      <trkpt lat="46.62817" lon="5.91595">
        <ele>927</ele>
        <time>2025-10-08T08:17:59.189+00:00</time>
      </trkpt>
      <trkpt lat="46.62814" lon="5.91589">
        <ele>927</ele>
        <time>2025-10-08T08:18:03.424+00:00</time>
      </trkpt>
      <trkpt lat="46.62813" lon="5.91584">
        <ele>927</ele>
        <time>2025-10-08T08:18:07.445+00:00</time>
      </trkpt>
      <trkpt lat="46.62814" lon="5.91578">
        <ele>927</ele>
        <time>2025-10-08T08:18:11.662+00:00</time>
      </trkpt>
      <trkpt lat="46.62811" lon="5.91575">
        <ele>927</ele>
        <time>2025-10-08T08:18:15.796+00:00</time>
      </trkpt>
      <trkpt lat="46.62809" lon="5.91572">
        <ele>927</ele>
        <time>2025-10-08T08:18:20.263+00:00</time>
      </trkpt>
      <trkpt lat="46.62807" lon="5.91568">
        <ele>920</ele>
        <time>2025-10-08T08:18:24.349+00:00</time>
      </trkpt>
      <trkpt lat="46.62807" lon="5.91562">
        <ele>920</ele>
        <time>2025-10-08T08:18:28.796+00:00</time>
      </trkpt>
      <trkpt lat="46.62806" lon="5.91557">
        <ele>920</ele>
        <time>2025-10-08T08:18:33.204+00:00</time>
      </trkpt>
      <trkpt lat="46.62803" lon="5.91552">
        <ele>920</ele>
        <time>2025-10-08T08:18:37.684+00:00</time>
      </trkpt>
      <trkpt lat="46.628" lon="5.9155">
        <ele>920</ele>
        <time>2025-10-08T08:18:41.796+00:00</time>
      </trkpt>
      <trkpt lat="46.62798" lon="5.91546">
        <ele>920</ele>
        <time>2025-10-08T08:18:46.306+00:00</time>
      </trkpt>
      <trkpt lat="46.62795" lon="5.91542">
        <ele>913</ele>
        <time>2025-10-08T08:18:50.807+00:00</time>
      </trkpt>
      <trkpt lat="46.62786" lon="5.91535">
        <ele>922</ele>
        <time>2025-10-08T08:19:15.796+00:00</time>
      </trkpt>
      <trkpt lat="46.62786" lon="5.91534">
        <ele>922</ele>
        <time>2025-10-08T08:19:20.796+00:00</time>
      </trkpt>
      <trkpt lat="46.62786" lon="5.91534">
        <ele>922</ele>
        <time>2025-10-08T08:19:25.587+00:00</time>
      </trkpt>
      <trkpt lat="46.62784" lon="5.91535">
        <ele>922</ele>
        <time>2025-10-08T08:19:29.796+00:00</time>
      </trkpt>
      <trkpt lat="46.62784" lon="5.91535">
        <ele>922</ele>
        <time>2025-10-08T08:19:33.796+00:00</time>
      </trkpt>
      <trkpt lat="46.62783" lon="5.91535">
        <ele>922</ele>
        <time>2025-10-08T08:19:38.796+00:00</time>
      </trkpt>
      <trkpt lat="46.62782" lon="5.9153">
        <ele>922</ele>
        <time>2025-10-08T08:19:43.285+00:00</time>
      </trkpt>
      <trkpt lat="46.62781" lon="5.91527">
        <ele>922</ele>
        <time>2025-10-08T08:19:47.527+00:00</time>
      </trkpt>
      <trkpt lat="46.6278" lon="5.91523">
        <ele>922</ele>
        <time>2025-10-08T08:19:51.796+00:00</time>
      </trkpt>
      <trkpt lat="46.6278" lon="5.91523">
        <ele>922</ele>
        <time>2025-10-08T08:19:56.797+00:00</time>
      </trkpt>
      <trkpt lat="46.62779" lon="5.91523">
        <ele>922</ele>
        <time>2025-10-08T08:20:05.796+00:00</time>
      </trkpt>
      <trkpt lat="46.62779" lon="5.91518">
        <ele>922</ele>
        <time>2025-10-08T08:20:10.796+00:00</time>
      </trkpt>
      <trkpt lat="46.62777" lon="5.9151">
        <ele>915</ele>
        <time>2025-10-08T08:20:15.506+00:00</time>
      </trkpt>
      <trkpt lat="46.62776" lon="5.91506">
        <ele>915</ele>
        <time>2025-10-08T08:20:19.796+00:00</time>
      </trkpt>
      <trkpt lat="46.62774" lon="5.91504">
        <ele>915</ele>
        <time>2025-10-08T08:20:24.227+00:00</time>
      </trkpt>
      <trkpt lat="46.62773" lon="5.91505">
        <ele>915</ele>
        <time>2025-10-08T08:20:28.707+00:00</time>
      </trkpt>
      <trkpt lat="46.62771" lon="5.91504">
        <ele>915</ele>
        <time>2025-10-08T08:20:33.221+00:00</time>
      </trkpt>
      <trkpt lat="46.62767" lon="5.91503">
        <ele>915</ele>
        <time>2025-10-08T08:20:37.386+00:00</time>
      </trkpt>
      <trkpt lat="46.62763" lon="5.91502">
        <ele>928</ele>
        <time>2025-10-08T08:20:51.465+00:00</time>
      </trkpt>
      <trkpt lat="46.62761" lon="5.91501">
        <ele>928</ele>
        <time>2025-10-08T08:20:55.706+00:00</time>
      </trkpt>
      <trkpt lat="46.62759" lon="5.91501">
        <ele>928</ele>
        <time>2025-10-08T08:20:59.796+00:00</time>
      </trkpt>
      <trkpt lat="46.62758" lon="5.91499">
        <ele>928</ele>
        <time>2025-10-08T08:21:04.341+00:00</time>
      </trkpt>
      <trkpt lat="46.62754" lon="5.91498">
        <ele>928</ele>
        <time>2025-10-08T08:21:08.787+00:00</time>
      </trkpt>
      <trkpt lat="46.62748" lon="5.91498">
        <ele>928</ele>
        <time>2025-10-08T08:21:17.795+00:00</time>
      </trkpt>
      <trkpt lat="46.62746" lon="5.915">
        <ele>928</ele>
        <time>2025-10-08T08:21:22.345+00:00</time>
      </trkpt>
      <trkpt lat="46.62746" lon="5.91499">
        <ele>928</ele>
        <time>2025-10-08T08:21:26.795+00:00</time>
      </trkpt>
      <trkpt lat="46.62743" lon="5.915">
        <ele>928</ele>
        <time>2025-10-08T08:21:31.327+00:00</time>
      </trkpt>
      <trkpt lat="46.6274" lon="5.91503">
        <ele>928</ele>
        <time>2025-10-08T08:21:35.795+00:00</time>
      </trkpt>
      <trkpt lat="46.62738" lon="5.91505">
        <ele>928</ele>
        <time>2025-10-08T08:21:40.796+00:00</time>
      </trkpt>
      <trkpt lat="46.62736" lon="5.91506">
        <ele>933</ele>
        <time>2025-10-08T08:21:45.188+00:00</time>
      </trkpt>
      <trkpt lat="46.62732" lon="5.91507">
        <ele>933</ele>
        <time>2025-10-08T08:21:49.804+00:00</time>
      </trkpt>
      <trkpt lat="46.62729" lon="5.91508">
        <ele>933</ele>
        <time>2025-10-08T08:21:54.385+00:00</time>
      </trkpt>
      <trkpt lat="46.62727" lon="5.91508">
        <ele>933</ele>
        <time>2025-10-08T08:21:58.795+00:00</time>
      </trkpt>
      <trkpt lat="46.62721" lon="5.91507">
        <ele>933</ele>
        <time>2025-10-08T08:22:11.795+00:00</time>
      </trkpt>
      <trkpt lat="46.62721" lon="5.91507">
        <ele>933</ele>
        <time>2025-10-08T08:22:17.795+00:00</time>
      </trkpt>
      <trkpt lat="46.62721" lon="5.91506">
        <ele>933</ele>
        <time>2025-10-08T08:22:22.795+00:00</time>
      </trkpt>
      <trkpt lat="46.62719" lon="5.91504">
        <ele>933</ele>
        <time>2025-10-08T08:22:27.288+00:00</time>
      </trkpt>
      <trkpt lat="46.62716" lon="5.91502">
        <ele>933</ele>
        <time>2025-10-08T08:22:31.795+00:00</time>
      </trkpt>
      <trkpt lat="46.62712" lon="5.91502">
        <ele>933</ele>
        <time>2025-10-08T08:22:36.796+00:00</time>
      </trkpt>
      <trkpt lat="46.62709" lon="5.91504">
        <ele>933</ele>
        <time>2025-10-08T08:22:40.907+00:00</time>
      </trkpt>
      <trkpt lat="46.62707" lon="5.91507">
        <ele>937</ele>
        <time>2025-10-08T08:22:45.162+00:00</time>
      </trkpt>
      <trkpt lat="46.62704" lon="5.91509">
        <ele>937</ele>
        <time>2025-10-08T08:22:49.565+00:00</time>
      </trkpt>
      <trkpt lat="46.62702" lon="5.91508">
        <ele>937</ele>
        <time>2025-10-08T08:22:54.342+00:00</time>
      </trkpt>
      <trkpt lat="46.62699" lon="5.91505">
        <ele>937</ele>
        <time>2025-10-08T08:22:58.583+00:00</time>
      </trkpt>
      <trkpt lat="46.62696" lon="5.915">
        <ele>937</ele>
        <time>2025-10-08T08:23:03.524+00:00</time>
      </trkpt>
      <trkpt lat="46.62692" lon="5.91495">
        <ele>937</ele>
        <time>2025-10-08T08:23:08.166+00:00</time>
      </trkpt>
      <trkpt lat="46.62689" lon="5.91494">
        <ele>937</ele>
        <time>2025-10-08T08:23:12.346+00:00</time>
      </trkpt>
      <trkpt lat="46.62681" lon="5.91484">
        <ele>931</ele>
        <time>2025-10-08T08:24:03.795+00:00</time>
      </trkpt>
      <trkpt lat="46.62682" lon="5.91481">
        <ele>931</ele>
        <time>2025-10-08T08:24:08.796+00:00</time>
      </trkpt>
      <trkpt lat="46.62681" lon="5.91479">
        <ele>931</ele>
        <time>2025-10-08T08:24:12.795+00:00</time>
      </trkpt>
      <trkpt lat="46.62681" lon="5.91478">
        <ele>931</ele>
        <time>2025-10-08T08:24:18.045+00:00</time>
      </trkpt>
      <trkpt lat="46.62678" lon="5.91474">
        <ele>934</ele>
        <time>2025-10-08T08:24:22.208+00:00</time>
      </trkpt>
      <trkpt lat="46.62673" lon="5.9147">
        <ele>934</ele>
        <time>2025-10-08T08:24:26.364+00:00</time>
      </trkpt>
      <trkpt lat="46.62668" lon="5.91468">
        <ele>934</ele>
        <time>2025-10-08T08:24:30.560+00:00</time>
      </trkpt>
      <trkpt lat="46.62663" lon="5.91465">
        <ele>934</ele>
        <time>2025-10-08T08:24:34.795+00:00</time>
      </trkpt>
      <trkpt lat="46.62658" lon="5.91462">
        <ele>934</ele>
        <time>2025-10-08T08:24:39.622+00:00</time>
      </trkpt>
      <trkpt lat="46.62654" lon="5.91459">
        <ele>934</ele>
        <time>2025-10-08T08:24:43.786+00:00</time>
      </trkpt>
      <trkpt lat="46.6265" lon="5.91458">
        <ele>933</ele>
        <time>2025-10-08T08:24:47.983+00:00</time>
      </trkpt>
      <trkpt lat="46.62647" lon="5.91454">
        <ele>933</ele>
        <time>2025-10-08T08:24:52.045+00:00</time>
      </trkpt>
      <trkpt lat="46.62642" lon="5.91451">
        <ele>933</ele>
        <time>2025-10-08T08:24:56.362+00:00</time>
      </trkpt>
      <trkpt lat="46.62639" lon="5.9145">
        <ele>933</ele>
        <time>2025-10-08T08:25:00.364+00:00</time>
      </trkpt>
      <trkpt lat="46.62635" lon="5.91448">
        <ele>933</ele>
        <time>2025-10-08T08:25:04.681+00:00</time>
      </trkpt>
      <trkpt lat="46.6263" lon="5.91446">
        <ele>933</ele>
        <time>2025-10-08T08:25:08.725+00:00</time>
      </trkpt>
      <trkpt lat="46.62626" lon="5.91442">
        <ele>933</ele>
        <time>2025-10-08T08:25:13.796+00:00</time>
      </trkpt>
      <trkpt lat="46.62621" lon="5.91436">
        <ele>935</ele>
        <time>2025-10-08T08:25:18.486+00:00</time>
      </trkpt>
      <trkpt lat="46.62616" lon="5.91434">
        <ele>935</ele>
        <time>2025-10-08T08:25:22.487+00:00</time>
      </trkpt>
      <trkpt lat="46.62613" lon="5.9143">
        <ele>934</ele>
        <time>2025-10-08T08:25:27.205+00:00</time>
      </trkpt>
      <trkpt lat="46.62609" lon="5.9143">
        <ele>934</ele>
        <time>2025-10-08T08:25:31.386+00:00</time>
      </trkpt>
      <trkpt lat="46.62606" lon="5.9143">
        <ele>934</ele>
        <time>2025-10-08T08:25:35.703+00:00</time>
      </trkpt>
      <trkpt lat="46.62602" lon="5.9143">
        <ele>934</ele>
        <time>2025-10-08T08:25:40.686+00:00</time>
      </trkpt>
      <trkpt lat="46.62601" lon="5.91427">
        <ele>934</ele>
        <time>2025-10-08T08:25:44.796+00:00</time>
      </trkpt>
      <trkpt lat="46.62598" lon="5.91426">
        <ele>934</ele>
        <time>2025-10-08T08:25:49.005+00:00</time>
      </trkpt>
      <trkpt lat="46.62596" lon="5.91421">
        <ele>936</ele>
        <time>2025-10-08T08:25:53.784+00:00</time>
      </trkpt>
      <trkpt lat="46.626" lon="5.91417">
        <ele>934</ele>
        <time>2025-10-08T08:25:58.041+00:00</time>
      </trkpt>
      <trkpt lat="46.62604" lon="5.91412">
        <ele>934</ele>
        <time>2025-10-08T08:26:02.341+00:00</time>
      </trkpt>
      <trkpt lat="46.62609" lon="5.9141">
        <ele>934</ele>
        <time>2025-10-08T08:26:06.796+00:00</time>
      </trkpt>
      <trkpt lat="46.62611" lon="5.91406">
        <ele>934</ele>
        <time>2025-10-08T08:26:10.864+00:00</time>
      </trkpt>
      <trkpt lat="46.62615" lon="5.91401">
        <ele>932</ele>
        <time>2025-10-08T08:26:15.147+00:00</time>
      </trkpt>
      <trkpt lat="46.62617" lon="5.91393">
        <ele>932</ele>
        <time>2025-10-08T08:26:19.285+00:00</time>
      </trkpt>
      <trkpt lat="46.62616" lon="5.91384">
        <ele>932</ele>
        <time>2025-10-08T08:26:23.646+00:00</time>
      </trkpt>
      <trkpt lat="46.62616" lon="5.91376">
        <ele>932</ele>
        <time>2025-10-08T08:26:28.543+00:00</time>
      </trkpt>
      <trkpt lat="46.62615" lon="5.9137">
        <ele>926</ele>
        <time>2025-10-08T08:26:32.723+00:00</time>
      </trkpt>
      <trkpt lat="46.62614" lon="5.91363">
        <ele>926</ele>
        <time>2025-10-08T08:26:36.796+00:00</time>
      </trkpt>
      <trkpt lat="46.62613" lon="5.91356">
        <ele>926</ele>
        <time>2025-10-08T08:26:41.325+00:00</time>
      </trkpt>
      <trkpt lat="46.62614" lon="5.91351">
        <ele>926</ele>
        <time>2025-10-08T08:26:45.388+00:00</time>
      </trkpt>
      <trkpt lat="46.62613" lon="5.91345">
        <ele>917</ele>
        <time>2025-10-08T08:26:49.626+00:00</time>
      </trkpt>
      <trkpt lat="46.62612" lon="5.91338">
        <ele>917</ele>
        <time>2025-10-08T08:26:54.429+00:00</time>
      </trkpt>
      <trkpt lat="46.62614" lon="5.9133">
        <ele>917</ele>
        <time>2025-10-08T08:26:59.582+00:00</time>
      </trkpt>
      <trkpt lat="46.62616" lon="5.91324">
        <ele>917</ele>
        <time>2025-10-08T08:27:03.795+00:00</time>
      </trkpt>
      <trkpt lat="46.62618" lon="5.91319">
        <ele>908</ele>
        <time>2025-10-08T08:27:08.447+00:00</time>
      </trkpt>
      <trkpt lat="46.62615" lon="5.91315">
        <ele>908</ele>
        <time>2025-10-08T08:27:12.627+00:00</time>
      </trkpt>
      <trkpt lat="46.62611" lon="5.91312">
        <ele>908</ele>
        <time>2025-10-08T08:27:16.795+00:00</time>
      </trkpt>
      <trkpt lat="46.62612" lon="5.91308">
        <ele>908</ele>
        <time>2025-10-08T08:27:21.100+00:00</time>
      </trkpt>
      <trkpt lat="46.62616" lon="5.91306">
        <ele>908</ele>
        <time>2025-10-08T08:27:25.664+00:00</time>
      </trkpt>
      <trkpt lat="46.6262" lon="5.91307">
        <ele>908</ele>
        <time>2025-10-08T08:27:30.127+00:00</time>
      </trkpt>
      <trkpt lat="46.62623" lon="5.91308">
        <ele>908</ele>
        <time>2025-10-08T08:27:34.384+00:00</time>
      </trkpt>
      <trkpt lat="46.62624" lon="5.91308">
        <ele>908</ele>
        <time>2025-10-08T08:27:35.339+00:00</time>
      </trkpt>
      <trkpt lat="46.62625" lon="5.91305">
        <ele>881</ele>
        <time>2025-10-08T08:27:44.795+00:00</time>
      </trkpt>
      <trkpt lat="46.62624" lon="5.91305">
        <ele>908</ele>
        <time>2025-10-08T08:27:49.752+00:00</time>
      </trkpt>
      <trkpt lat="46.62622" lon="5.91304">
        <ele>908</ele>
        <time>2025-10-08T08:27:53.795+00:00</time>
      </trkpt>
      <trkpt lat="46.62616" lon="5.91304">
        <ele>908</ele>
        <time>2025-10-08T08:27:58.463+00:00</time>
      </trkpt>
      <trkpt lat="46.62612" lon="5.913">
        <ele>908</ele>
        <time>2025-10-08T08:28:02.795+00:00</time>
      </trkpt>
      <trkpt lat="46.62611" lon="5.913">
        <ele>908</ele>
        <time>2025-10-08T08:28:27.321+00:00</time>
      </trkpt>
      <trkpt lat="46.62611" lon="5.91301">
        <ele>908</ele>
        <time>2025-10-08T08:28:31.484+00:00</time>
      </trkpt>
      <trkpt lat="46.6261" lon="5.91305">
        <ele>908</ele>
        <time>2025-10-08T08:28:35.507+00:00</time>
      </trkpt>
      <trkpt lat="46.6261" lon="5.91309">
        <ele>908</ele>
        <time>2025-10-08T08:28:39.705+00:00</time>
      </trkpt>
      <trkpt lat="46.62619" lon="5.9131">
        <ele>908</ele>
        <time>2025-10-08T08:28:44.227+00:00</time>
      </trkpt>
      <trkpt lat="46.62619" lon="5.91306">
        <ele>908</ele>
        <time>2025-10-08T08:39:12.793+00:00</time>
      </trkpt>
      <trkpt lat="46.62619" lon="5.91307">
        <ele>908</ele>
        <time>2025-10-08T08:39:24.794+00:00</time>
      </trkpt>
      <trkpt lat="46.62618" lon="5.91307">
        <ele>908</ele>
        <time>2025-10-08T08:39:36.794+00:00</time>
      </trkpt>
      <trkpt lat="46.62615" lon="5.91304">
        <ele>908</ele>
        <time>2025-10-08T08:39:40.793+00:00</time>
      </trkpt>
      <trkpt lat="46.62612" lon="5.91301">
        <ele>908</ele>
        <time>2025-10-08T08:39:45.793+00:00</time>
      </trkpt>
      <trkpt lat="46.6261" lon="5.91297">
        <ele>908</ele>
        <time>2025-10-08T08:39:49.794+00:00</time>
      </trkpt>
      <trkpt lat="46.62605" lon="5.91296">
        <ele>908</ele>
        <time>2025-10-08T08:39:54.353+00:00</time>
      </trkpt>
      <trkpt lat="46.62602" lon="5.91295">
        <ele>908</ele>
        <time>2025-10-08T08:39:58.652+00:00</time>
      </trkpt>
      <trkpt lat="46.626" lon="5.91295">
        <ele>908</ele>
        <time>2025-10-08T08:40:03.668+00:00</time>
      </trkpt>
      <trkpt lat="46.62598" lon="5.91293">
        <ele>908</ele>
        <time>2025-10-08T08:40:07.669+00:00</time>
      </trkpt>
      <trkpt lat="46.62593" lon="5.91291">
        <ele>911</ele>
        <time>2025-10-08T08:40:11.767+00:00</time>
      </trkpt>
      <trkpt lat="46.62591" lon="5.91285">
        <ele>911</ele>
        <time>2025-10-08T08:40:15.793+00:00</time>
      </trkpt>
      <trkpt lat="46.62588" lon="5.9128">
        <ele>911</ele>
        <time>2025-10-08T08:40:20.688+00:00</time>
      </trkpt>
      <trkpt lat="46.62584" lon="5.91279">
        <ele>911</ele>
        <time>2025-10-08T08:40:25.485+00:00</time>
      </trkpt>
      <trkpt lat="46.6258" lon="5.91278">
        <ele>911</ele>
        <time>2025-10-08T08:40:29.928+00:00</time>
      </trkpt>
      <trkpt lat="46.62575" lon="5.91277">
        <ele>911</ele>
        <time>2025-10-08T08:40:34.723+00:00</time>
      </trkpt>
      <trkpt lat="46.62571" lon="5.91277">
        <ele>911</ele>
        <time>2025-10-08T08:40:38.793+00:00</time>
      </trkpt>
      <trkpt lat="46.62567" lon="5.91272">
        <ele>920</ele>
        <time>2025-10-08T08:40:43.187+00:00</time>
      </trkpt>
      <trkpt lat="46.62563" lon="5.91267">
        <ele>920</ele>
        <time>2025-10-08T08:40:47.207+00:00</time>
      </trkpt>
      <trkpt lat="46.62562" lon="5.91259">
        <ele>912</ele>
        <time>2025-10-08T08:40:51.284+00:00</time>
      </trkpt>
      <trkpt lat="46.62559" lon="5.91253">
        <ele>912</ele>
        <time>2025-10-08T08:40:55.789+00:00</time>
      </trkpt>
      <trkpt lat="46.62556" lon="5.91248">
        <ele>912</ele>
        <time>2025-10-08T08:40:59.793+00:00</time>
      </trkpt>
      <trkpt lat="46.62551" lon="5.91248">
        <ele>912</ele>
        <time>2025-10-08T08:41:04.167+00:00</time>
      </trkpt>
      <trkpt lat="46.62548" lon="5.91241">
        <ele>912</ele>
        <time>2025-10-08T08:41:08.509+00:00</time>
      </trkpt>
      <trkpt lat="46.62547" lon="5.91235">
        <ele>905</ele>
        <time>2025-10-08T08:41:12.793+00:00</time>
      </trkpt>
      <trkpt lat="46.62543" lon="5.9123">
        <ele>905</ele>
        <time>2025-10-08T08:41:17.265+00:00</time>
      </trkpt>
      <trkpt lat="46.62541" lon="5.91227">
        <ele>920</ele>
        <time>2025-10-08T08:41:21.667+00:00</time>
      </trkpt>
      <trkpt lat="46.6254" lon="5.91222">
        <ele>920</ele>
        <time>2025-10-08T08:41:25.909+00:00</time>
      </trkpt>
      <trkpt lat="46.62539" lon="5.91216">
        <ele>920</ele>
        <time>2025-10-08T08:41:30.547+00:00</time>
      </trkpt>
      <trkpt lat="46.62537" lon="5.91212">
        <ele>920</ele>
        <time>2025-10-08T08:41:34.727+00:00</time>
      </trkpt>
      <trkpt lat="46.62537" lon="5.91209">
        <ele>920</ele>
        <time>2025-10-08T08:41:38.794+00:00</time>
      </trkpt>
      <trkpt lat="46.62537" lon="5.91206">
        <ele>916</ele>
        <time>2025-10-08T08:41:43.311+00:00</time>
      </trkpt>
      <trkpt lat="46.62535" lon="5.91203">
        <ele>916</ele>
        <time>2025-10-08T08:41:47.793+00:00</time>
      </trkpt>
      <trkpt lat="46.62534" lon="5.912">
        <ele>916</ele>
        <time>2025-10-08T08:41:52.527+00:00</time>
      </trkpt>
      <trkpt lat="46.62533" lon="5.91198">
        <ele>916</ele>
        <time>2025-10-08T08:41:56.794+00:00</time>
      </trkpt>
      <trkpt lat="46.62532" lon="5.91195">
        <ele>916</ele>
        <time>2025-10-08T08:42:01.794+00:00</time>
      </trkpt>
      <trkpt lat="46.6253" lon="5.9119">
        <ele>916</ele>
        <time>2025-10-08T08:42:06.793+00:00</time>
      </trkpt>
      <trkpt lat="46.62528" lon="5.91188">
        <ele>916</ele>
        <time>2025-10-08T08:42:10.794+00:00</time>
      </trkpt>
      <trkpt lat="46.62526" lon="5.91184">
        <ele>916</ele>
        <time>2025-10-08T08:42:15.793+00:00</time>
      </trkpt>
      <trkpt lat="46.62523" lon="5.91181">
        <ele>916</ele>
        <time>2025-10-08T08:42:20.167+00:00</time>
      </trkpt>
      <trkpt lat="46.6252" lon="5.91181">
        <ele>916</ele>
        <time>2025-10-08T08:42:24.649+00:00</time>
      </trkpt>
      <trkpt lat="46.62518" lon="5.91178">
        <ele>907</ele>
        <time>2025-10-08T08:42:28.793+00:00</time>
      </trkpt>
      <trkpt lat="46.62514" lon="5.91175">
        <ele>907</ele>
        <time>2025-10-08T08:42:32.793+00:00</time>
      </trkpt>
      <trkpt lat="46.62514" lon="5.91168">
        <ele>907</ele>
        <time>2025-10-08T08:42:37.811+00:00</time>
      </trkpt>
      <trkpt lat="46.62511" lon="5.91163">
        <ele>923</ele>
        <time>2025-10-08T08:42:42.188+00:00</time>
      </trkpt>
      <trkpt lat="46.62508" lon="5.9116">
        <ele>923</ele>
        <time>2025-10-08T08:42:46.291+00:00</time>
      </trkpt>
      <trkpt lat="46.62504" lon="5.91154">
        <ele>923</ele>
        <time>2025-10-08T08:42:50.771+00:00</time>
      </trkpt>
      <trkpt lat="46.62498" lon="5.91154">
        <ele>923</ele>
        <time>2025-10-08T08:42:54.793+00:00</time>
      </trkpt>
      <trkpt lat="46.62495" lon="5.91149">
        <ele>910</ele>
        <time>2025-10-08T08:42:59.028+00:00</time>
      </trkpt>
      <trkpt lat="46.62494" lon="5.9114">
        <ele>910</ele>
        <time>2025-10-08T08:43:03.389+00:00</time>
      </trkpt>
      <trkpt lat="46.62491" lon="5.91134">
        <ele>910</ele>
        <time>2025-10-08T08:43:07.768+00:00</time>
      </trkpt>
      <trkpt lat="46.62487" lon="5.9113">
        <ele>910</ele>
        <time>2025-10-08T08:43:11.793+00:00</time>
      </trkpt>
      <trkpt lat="46.62485" lon="5.91125">
        <ele>909</ele>
        <time>2025-10-08T08:43:16.306+00:00</time>
      </trkpt>
      <trkpt lat="46.62481" lon="5.91122">
        <ele>909</ele>
        <time>2025-10-08T08:43:20.547+00:00</time>
      </trkpt>
      <trkpt lat="46.62476" lon="5.91122">
        <ele>909</ele>
        <time>2025-10-08T08:43:24.668+00:00</time>
      </trkpt>
      <trkpt lat="46.62473" lon="5.9112">
        <ele>909</ele>
        <time>2025-10-08T08:43:29.231+00:00</time>
      </trkpt>
      <trkpt lat="46.6247" lon="5.91115">
        <ele>909</ele>
        <time>2025-10-08T08:43:33.793+00:00</time>
      </trkpt>
      <trkpt lat="46.62468" lon="5.91109">
        <ele>909</ele>
        <time>2025-10-08T08:43:38.793+00:00</time>
      </trkpt>
      <trkpt lat="46.62467" lon="5.91104">
        <ele>909</ele>
        <time>2025-10-08T08:43:43.291+00:00</time>
      </trkpt>
      <trkpt lat="46.62464" lon="5.91099">
        <ele>909</ele>
        <time>2025-10-08T08:43:47.793+00:00</time>
      </trkpt>
      <trkpt lat="46.62461" lon="5.91095">
        <ele>896</ele>
        <time>2025-10-08T08:43:52.369+00:00</time>
      </trkpt>
      <trkpt lat="46.62458" lon="5.91092">
        <ele>896</ele>
        <time>2025-10-08T08:43:56.388+00:00</time>
      </trkpt>
      <trkpt lat="46.62456" lon="5.91087">
        <ele>913</ele>
        <time>2025-10-08T08:44:00.526+00:00</time>
      </trkpt>
      <trkpt lat="46.62453" lon="5.91083">
        <ele>913</ele>
        <time>2025-10-08T08:44:04.793+00:00</time>
      </trkpt>
      <trkpt lat="46.62449" lon="5.9108">
        <ele>913</ele>
        <time>2025-10-08T08:44:09.794+00:00</time>
      </trkpt>
      <trkpt lat="46.62446" lon="5.91082">
        <ele>913</ele>
        <time>2025-10-08T08:44:13.793+00:00</time>
      </trkpt>
      <trkpt lat="46.62444" lon="5.91085">
        <ele>913</ele>
        <time>2025-10-08T08:44:17.981+00:00</time>
      </trkpt>
      <trkpt lat="46.6244" lon="5.91085">
        <ele>913</ele>
        <time>2025-10-08T08:44:22.682+00:00</time>
      </trkpt>
      <trkpt lat="46.62437" lon="5.91081">
        <ele>913</ele>
        <time>2025-10-08T08:44:26.794+00:00</time>
      </trkpt>
      <trkpt lat="46.62432" lon="5.91078">
        <ele>913</ele>
        <time>2025-10-08T08:44:31.656+00:00</time>
      </trkpt>
      <trkpt lat="46.62428" lon="5.91072">
        <ele>932</ele>
        <time>2025-10-08T08:44:35.793+00:00</time>
      </trkpt>
      <trkpt lat="46.62423" lon="5.9107">
        <ele>932</ele>
        <time>2025-10-08T08:44:40.317+00:00</time>
      </trkpt>
      <trkpt lat="46.62422" lon="5.91063">
        <ele>918</ele>
        <time>2025-10-08T08:44:44.793+00:00</time>
      </trkpt>
      <trkpt lat="46.62418" lon="5.91059">
        <ele>918</ele>
        <time>2025-10-08T08:44:49.463+00:00</time>
      </trkpt>
      <trkpt lat="46.62413" lon="5.9106">
        <ele>918</ele>
        <time>2025-10-08T08:44:53.793+00:00</time>
      </trkpt>
      <trkpt lat="46.62408" lon="5.91058">
        <ele>918</ele>
        <time>2025-10-08T08:44:58.361+00:00</time>
      </trkpt>
      <trkpt lat="46.62405" lon="5.91053">
        <ele>918</ele>
        <time>2025-10-08T08:45:02.661+00:00</time>
      </trkpt>
      <trkpt lat="46.624" lon="5.91051">
        <ele>927</ele>
        <time>2025-10-08T08:45:07.303+00:00</time>
      </trkpt>
      <trkpt lat="46.62395" lon="5.91049">
        <ele>927</ele>
        <time>2025-10-08T08:45:11.793+00:00</time>
      </trkpt>
      <trkpt lat="46.62392" lon="5.91042">
        <ele>927</ele>
        <time>2025-10-08T08:45:16.793+00:00</time>
      </trkpt>
      <trkpt lat="46.62388" lon="5.91037">
        <ele>915</ele>
        <time>2025-10-08T08:45:21.561+00:00</time>
      </trkpt>
      <trkpt lat="46.62385" lon="5.91031">
        <ele>915</ele>
        <time>2025-10-08T08:45:25.793+00:00</time>
      </trkpt>
      <trkpt lat="46.62381" lon="5.91027">
        <ele>915</ele>
        <time>2025-10-08T08:45:30.798+00:00</time>
      </trkpt>
      <trkpt lat="46.6238" lon="5.9102">
        <ele>915</ele>
        <time>2025-10-08T08:45:35.021+00:00</time>
      </trkpt>
      <trkpt lat="46.62377" lon="5.91013">
        <ele>902</ele>
        <time>2025-10-08T08:45:39.794+00:00</time>
      </trkpt>
      <trkpt lat="46.62374" lon="5.91007">
        <ele>918</ele>
        <time>2025-10-08T08:45:44.296+00:00</time>
      </trkpt>
      <trkpt lat="46.62371" lon="5.91003">
        <ele>918</ele>
        <time>2025-10-08T08:45:48.459+00:00</time>
      </trkpt>
      <trkpt lat="46.62369" lon="5.90996">
        <ele>918</ele>
        <time>2025-10-08T08:45:52.793+00:00</time>
      </trkpt>
      <trkpt lat="46.62366" lon="5.9099">
        <ele>918</ele>
        <time>2025-10-08T08:45:56.984+00:00</time>
      </trkpt>
      <trkpt lat="46.62364" lon="5.90985">
        <ele>907</ele>
        <time>2025-10-08T08:46:01.017+00:00</time>
      </trkpt>
      <trkpt lat="46.6236" lon="5.90981">
        <ele>907</ele>
        <time>2025-10-08T08:46:05.539+00:00</time>
      </trkpt>
      <trkpt lat="46.62358" lon="5.90976">
        <ele>907</ele>
        <time>2025-10-08T08:46:09.617+00:00</time>
      </trkpt>
      <trkpt lat="46.62358" lon="5.90977">
        <ele>907</ele>
        <time>2025-10-08T08:47:05.792+00:00</time>
      </trkpt>
      <trkpt lat="46.6236" lon="5.90981">
        <ele>907</ele>
        <time>2025-10-08T08:47:10.792+00:00</time>
      </trkpt>
      <trkpt lat="46.62359" lon="5.90983">
        <ele>907</ele>
        <time>2025-10-08T08:47:14.996+00:00</time>
      </trkpt>
      <trkpt lat="46.62358" lon="5.90984">
        <ele>907</ele>
        <time>2025-10-08T08:47:19.654+00:00</time>
      </trkpt>
      <trkpt lat="46.62358" lon="5.90988">
        <ele>918</ele>
        <time>2025-10-08T08:47:23.962+00:00</time>
      </trkpt>
      <trkpt lat="46.62355" lon="5.90993">
        <ele>918</ele>
        <time>2025-10-08T08:47:28.441+00:00</time>
      </trkpt>
      <trkpt lat="46.62349" lon="5.90991">
        <ele>918</ele>
        <time>2025-10-08T08:47:32.919+00:00</time>
      </trkpt>
      <trkpt lat="46.62344" lon="5.9099">
        <ele>931</ele>
        <time>2025-10-08T08:47:37.478+00:00</time>
      </trkpt>
      <trkpt lat="46.62339" lon="5.9099">
        <ele>931</ele>
        <time>2025-10-08T08:47:41.792+00:00</time>
      </trkpt>
      <trkpt lat="46.62334" lon="5.90989">
        <ele>931</ele>
        <time>2025-10-08T08:47:46.103+00:00</time>
      </trkpt>
      <trkpt lat="46.62329" lon="5.90989">
        <ele>931</ele>
        <time>2025-10-08T08:47:50.277+00:00</time>
      </trkpt>
      <trkpt lat="46.62322" lon="5.90988">
        <ele>931</ele>
        <time>2025-10-08T08:47:54.792+00:00</time>
      </trkpt>
      <trkpt lat="46.62316" lon="5.90986">
        <ele>935</ele>
        <time>2025-10-08T08:47:59.659+00:00</time>
      </trkpt>
      <trkpt lat="46.62311" lon="5.90984">
        <ele>930</ele>
        <time>2025-10-08T08:48:03.792+00:00</time>
      </trkpt>
      <trkpt lat="46.62305" lon="5.90984">
        <ele>930</ele>
        <time>2025-10-08T08:48:08.260+00:00</time>
      </trkpt>
      <trkpt lat="46.623" lon="5.9098">
        <ele>930</ele>
        <time>2025-10-08T08:48:12.792+00:00</time>
      </trkpt>
      <trkpt lat="46.62295" lon="5.90975">
        <ele>930</ele>
        <time>2025-10-08T08:48:17.141+00:00</time>
      </trkpt>
      <trkpt lat="46.6229" lon="5.90973">
        <ele>934</ele>
        <time>2025-10-08T08:48:21.418+00:00</time>
      </trkpt>
      <trkpt lat="46.62286" lon="5.90968">
        <ele>934</ele>
        <time>2025-10-08T08:48:25.657+00:00</time>
      </trkpt>
      <trkpt lat="46.62281" lon="5.90965">
        <ele>934</ele>
        <time>2025-10-08T08:48:29.796+00:00</time>
      </trkpt>
      <trkpt lat="46.62276" lon="5.90964">
        <ele>934</ele>
        <time>2025-10-08T08:48:34.792+00:00</time>
      </trkpt>
      <trkpt lat="46.62272" lon="5.9096">
        <ele>934</ele>
        <time>2025-10-08T08:48:39.599+00:00</time>
      </trkpt>
      <trkpt lat="46.62269" lon="5.90956">
        <ele>929</ele>
        <time>2025-10-08T08:48:43.792+00:00</time>
      </trkpt>
      <trkpt lat="46.62263" lon="5.90953">
        <ele>934</ele>
        <time>2025-10-08T08:48:48.700+00:00</time>
      </trkpt>
      <trkpt lat="46.62258" lon="5.90952">
        <ele>934</ele>
        <time>2025-10-08T08:48:52.792+00:00</time>
      </trkpt>
      <trkpt lat="46.62252" lon="5.90953">
        <ele>934</ele>
        <time>2025-10-08T08:48:57.258+00:00</time>
      </trkpt>
      <trkpt lat="46.62246" lon="5.90956">
        <ele>934</ele>
        <time>2025-10-08T08:49:01.779+00:00</time>
      </trkpt>
      <trkpt lat="46.6224" lon="5.90954">
        <ele>934</ele>
        <time>2025-10-08T08:49:06.576+00:00</time>
      </trkpt>
      <trkpt lat="46.62234" lon="5.90952">
        <ele>937</ele>
        <time>2025-10-08T08:49:11.379+00:00</time>
      </trkpt>
      <trkpt lat="46.6223" lon="5.90946">
        <ele>937</ele>
        <time>2025-10-08T08:49:15.517+00:00</time>
      </trkpt>
      <trkpt lat="46.62227" lon="5.90941">
        <ele>937</ele>
        <time>2025-10-08T08:49:19.739+00:00</time>
      </trkpt>
      <trkpt lat="46.62225" lon="5.90934">
        <ele>937</ele>
        <time>2025-10-08T08:49:23.792+00:00</time>
      </trkpt>
      <trkpt lat="46.62225" lon="5.90926">
        <ele>932</ele>
        <time>2025-10-08T08:49:28.399+00:00</time>
      </trkpt>
      <trkpt lat="46.62225" lon="5.9092">
        <ele>932</ele>
        <time>2025-10-08T08:49:32.792+00:00</time>
      </trkpt>
      <trkpt lat="46.62225" lon="5.90912">
        <ele>932</ele>
        <time>2025-10-08T08:49:37.316+00:00</time>
      </trkpt>
      <trkpt lat="46.62223" lon="5.90905">
        <ele>932</ele>
        <time>2025-10-08T08:49:41.792+00:00</time>
      </trkpt>
      <trkpt lat="46.62221" lon="5.90897">
        <ele>924</ele>
        <time>2025-10-08T08:49:46.639+00:00</time>
      </trkpt>
      <trkpt lat="46.62216" lon="5.90891">
        <ele>924</ele>
        <time>2025-10-08T08:49:51.291+00:00</time>
      </trkpt>
      <trkpt lat="46.62211" lon="5.90887">
        <ele>924</ele>
        <time>2025-10-08T08:49:55.792+00:00</time>
      </trkpt>
      <trkpt lat="46.62206" lon="5.90887">
        <ele>927</ele>
        <time>2025-10-08T08:50:00.420+00:00</time>
      </trkpt>
      <trkpt lat="46.62201" lon="5.90889">
        <ele>927</ele>
        <time>2025-10-08T08:50:04.793+00:00</time>
      </trkpt>
      <trkpt lat="46.62195" lon="5.9089">
        <ele>927</ele>
        <time>2025-10-08T08:50:08.792+00:00</time>
      </trkpt>
      <trkpt lat="46.6219" lon="5.90891">
        <ele>927</ele>
        <time>2025-10-08T08:50:13.792+00:00</time>
      </trkpt>
      <trkpt lat="46.62185" lon="5.90894">
        <ele>927</ele>
        <time>2025-10-08T08:50:17.792+00:00</time>
      </trkpt>
      <trkpt lat="46.62178" lon="5.90894">
        <ele>932</ele>
        <time>2025-10-08T08:50:22.638+00:00</time>
      </trkpt>
      <trkpt lat="46.62172" lon="5.90892">
        <ele>932</ele>
        <time>2025-10-08T08:50:27.182+00:00</time>
      </trkpt>
      <trkpt lat="46.62167" lon="5.9089">
        <ele>932</ele>
        <time>2025-10-08T08:50:31.482+00:00</time>
      </trkpt>
      <trkpt lat="46.62162" lon="5.90888">
        <ele>932</ele>
        <time>2025-10-08T08:50:36.118+00:00</time>
      </trkpt>
      <trkpt lat="46.62157" lon="5.90884">
        <ele>932</ele>
        <time>2025-10-08T08:50:40.297+00:00</time>
      </trkpt>
      <trkpt lat="46.62152" lon="5.90881">
        <ele>939</ele>
        <time>2025-10-08T08:50:44.537+00:00</time>
      </trkpt>
      <trkpt lat="46.62148" lon="5.9088">
        <ele>939</ele>
        <time>2025-10-08T08:50:48.622+00:00</time>
      </trkpt>
      <trkpt lat="46.62142" lon="5.90881">
        <ele>939</ele>
        <time>2025-10-08T08:50:53.502+00:00</time>
      </trkpt>
      <trkpt lat="46.62137" lon="5.90884">
        <ele>939</ele>
        <time>2025-10-08T08:50:57.537+00:00</time>
      </trkpt>
      <trkpt lat="46.62133" lon="5.90887">
        <ele>939</ele>
        <time>2025-10-08T08:51:01.599+00:00</time>
      </trkpt>
      <trkpt lat="46.6213" lon="5.90892">
        <ele>939</ele>
        <time>2025-10-08T08:51:05.978+00:00</time>
      </trkpt>
      <trkpt lat="46.62128" lon="5.90898">
        <ele>939</ele>
        <time>2025-10-08T08:51:10.626+00:00</time>
      </trkpt>
      <trkpt lat="46.62125" lon="5.90904">
        <ele>941</ele>
        <time>2025-10-08T08:51:15.335+00:00</time>
      </trkpt>
      <trkpt lat="46.62122" lon="5.90905">
        <ele>946</ele>
        <time>2025-10-08T08:51:19.793+00:00</time>
      </trkpt>
      <trkpt lat="46.62117" lon="5.90909">
        <ele>946</ele>
        <time>2025-10-08T08:51:24.216+00:00</time>
      </trkpt>
      <trkpt lat="46.62113" lon="5.90912">
        <ele>946</ele>
        <time>2025-10-08T08:51:28.397+00:00</time>
      </trkpt>
      <trkpt lat="46.62109" lon="5.90916">
        <ele>946</ele>
        <time>2025-10-08T08:51:32.517+00:00</time>
      </trkpt>
      <trkpt lat="46.62106" lon="5.90921">
        <ele>946</ele>
        <time>2025-10-08T08:51:36.962+00:00</time>
      </trkpt>
      <trkpt lat="46.62102" lon="5.90924">
        <ele>946</ele>
        <time>2025-10-08T08:51:41.141+00:00</time>
      </trkpt>
      <trkpt lat="46.62098" lon="5.90928">
        <ele>946</ele>
        <time>2025-10-08T08:51:45.382+00:00</time>
      </trkpt>
      <trkpt lat="46.62093" lon="5.9093">
        <ele>951</ele>
        <time>2025-10-08T08:51:49.792+00:00</time>
      </trkpt>
      <trkpt lat="46.62088" lon="5.90933">
        <ele>950</ele>
        <time>2025-10-08T08:51:54.657+00:00</time>
      </trkpt>
      <trkpt lat="46.62085" lon="5.90936">
        <ele>950</ele>
        <time>2025-10-08T08:51:59.017+00:00</time>
      </trkpt>
      <trkpt lat="46.62081" lon="5.90939">
        <ele>950</ele>
        <time>2025-10-08T08:52:03.418+00:00</time>
      </trkpt>
      <trkpt lat="46.62077" lon="5.90943">
        <ele>950</ele>
        <time>2025-10-08T08:52:07.793+00:00</time>
      </trkpt>
      <trkpt lat="46.62073" lon="5.90947">
        <ele>950</ele>
        <time>2025-10-08T08:52:11.976+00:00</time>
      </trkpt>
      <trkpt lat="46.62068" lon="5.90951">
        <ele>953</ele>
        <time>2025-10-08T08:52:16.641+00:00</time>
      </trkpt>
      <trkpt lat="46.62064" lon="5.90953">
        <ele>953</ele>
        <time>2025-10-08T08:52:20.792+00:00</time>
      </trkpt>
      <trkpt lat="46.62059" lon="5.90957">
        <ele>953</ele>
        <time>2025-10-08T08:52:25.438+00:00</time>
      </trkpt>
      <trkpt lat="46.62053" lon="5.90959">
        <ele>951</ele>
        <time>2025-10-08T08:52:30.001+00:00</time>
      </trkpt>
      <trkpt lat="46.62047" lon="5.90961">
        <ele>951</ele>
        <time>2025-10-08T08:52:34.157+00:00</time>
      </trkpt>
      <trkpt lat="46.62041" lon="5.9096">
        <ele>949</ele>
        <time>2025-10-08T08:52:38.720+00:00</time>
      </trkpt>
      <trkpt lat="46.62036" lon="5.90962">
        <ele>949</ele>
        <time>2025-10-08T08:52:42.792+00:00</time>
      </trkpt>
      <trkpt lat="46.62031" lon="5.90967">
        <ele>949</ele>
        <time>2025-10-08T08:52:47.792+00:00</time>
      </trkpt>
      <trkpt lat="46.62025" lon="5.9097">
        <ele>949</ele>
        <time>2025-10-08T08:52:52.319+00:00</time>
      </trkpt>
      <trkpt lat="46.6202" lon="5.90972">
        <ele>949</ele>
        <time>2025-10-08T08:52:56.578+00:00</time>
      </trkpt>
      <trkpt lat="46.62015" lon="5.90976">
        <ele>949</ele>
        <time>2025-10-08T08:53:01.082+00:00</time>
      </trkpt>
      <trkpt lat="46.62003" lon="5.90976">
        <ele>947</ele>
        <time>2025-10-08T08:53:42.793+00:00</time>
      </trkpt>
      <trkpt lat="46.62003" lon="5.90976">
        <ele>947</ele>
        <time>2025-10-08T08:53:47.099+00:00</time>
      </trkpt>
      <trkpt lat="46.62" lon="5.9097">
        <ele>947</ele>
        <time>2025-10-08T08:53:51.459+00:00</time>
      </trkpt>
      <trkpt lat="46.61996" lon="5.90962">
        <ele>947</ele>
        <time>2025-10-08T08:53:55.792+00:00</time>
      </trkpt>
      <trkpt lat="46.61992" lon="5.90957">
        <ele>953</ele>
        <time>2025-10-08T08:54:00.059+00:00</time>
      </trkpt>
      <trkpt lat="46.61984" lon="5.90947">
        <ele>952</ele>
        <time>2025-10-08T08:54:28.792+00:00</time>
      </trkpt>
      <trkpt lat="46.61984" lon="5.90946">
        <ele>952</ele>
        <time>2025-10-08T08:54:33.792+00:00</time>
      </trkpt>
      <trkpt lat="46.61983" lon="5.90945">
        <ele>952</ele>
        <time>2025-10-08T08:54:37.792+00:00</time>
      </trkpt>
      <trkpt lat="46.61982" lon="5.90944">
        <ele>952</ele>
        <time>2025-10-08T08:54:42.793+00:00</time>
      </trkpt>
      <trkpt lat="46.61981" lon="5.90944">
        <ele>952</ele>
        <time>2025-10-08T08:54:47.793+00:00</time>
      </trkpt>
      <trkpt lat="46.61979" lon="5.90945">
        <ele>952</ele>
        <time>2025-10-08T08:57:23.322+00:00</time>
      </trkpt>
      <trkpt lat="46.61981" lon="5.90942">
        <ele>952</ele>
        <time>2025-10-08T08:57:27.579+00:00</time>
      </trkpt>
      <trkpt lat="46.61985" lon="5.90937">
        <ele>952</ele>
        <time>2025-10-08T08:57:31.792+00:00</time>
      </trkpt>
      <trkpt lat="46.61989" lon="5.90932">
        <ele>953</ele>
        <time>2025-10-08T08:57:36.792+00:00</time>
      </trkpt>
      <trkpt lat="46.61993" lon="5.90929">
        <ele>959</ele>
        <time>2025-10-08T08:57:41.479+00:00</time>
      </trkpt>
      <trkpt lat="46.61996" lon="5.90925">
        <ele>959</ele>
        <time>2025-10-08T08:57:45.763+00:00</time>
      </trkpt>
      <trkpt lat="46.62" lon="5.90923">
        <ele>959</ele>
        <time>2025-10-08T08:57:49.791+00:00</time>
      </trkpt>
      <trkpt lat="46.62003" lon="5.90918">
        <ele>959</ele>
        <time>2025-10-08T08:57:54.001+00:00</time>
      </trkpt>
      <trkpt lat="46.62006" lon="5.90912">
        <ele>959</ele>
        <time>2025-10-08T08:57:58.540+00:00</time>
      </trkpt>
      <trkpt lat="46.62009" lon="5.90907">
        <ele>959</ele>
        <time>2025-10-08T08:58:02.636+00:00</time>
      </trkpt>
      <trkpt lat="46.62012" lon="5.90901">
        <ele>964</ele>
        <time>2025-10-08T08:58:06.791+00:00</time>
      </trkpt>
      <trkpt lat="46.62015" lon="5.90895">
        <ele>961</ele>
        <time>2025-10-08T08:58:11.099+00:00</time>
      </trkpt>
      <trkpt lat="46.62019" lon="5.9089">
        <ele>961</ele>
        <time>2025-10-08T08:58:15.657+00:00</time>
      </trkpt>
      <trkpt lat="46.62022" lon="5.90887">
        <ele>961</ele>
        <time>2025-10-08T08:58:19.725+00:00</time>
      </trkpt>
      <trkpt lat="46.62027" lon="5.90883">
        <ele>961</ele>
        <time>2025-10-08T08:58:24.101+00:00</time>
      </trkpt>
      <trkpt lat="46.6203" lon="5.90879">
        <ele>961</ele>
        <time>2025-10-08T08:58:28.478+00:00</time>
      </trkpt>
      <trkpt lat="46.62034" lon="5.90875">
        <ele>962</ele>
        <time>2025-10-08T08:58:33.162+00:00</time>
      </trkpt>
      <trkpt lat="46.62037" lon="5.90867">
        <ele>962</ele>
        <time>2025-10-08T08:58:37.791+00:00</time>
      </trkpt>
      <trkpt lat="46.62039" lon="5.90861">
        <ele>962</ele>
        <time>2025-10-08T08:58:42.795+00:00</time>
      </trkpt>
      <trkpt lat="46.62043" lon="5.90856">
        <ele>956</ele>
        <time>2025-10-08T08:58:47.640+00:00</time>
      </trkpt>
      <trkpt lat="46.62045" lon="5.90849">
        <ele>956</ele>
        <time>2025-10-08T08:58:51.791+00:00</time>
      </trkpt>
      <trkpt lat="46.62046" lon="5.90842">
        <ele>956</ele>
        <time>2025-10-08T08:58:56.071+00:00</time>
      </trkpt>
      <trkpt lat="46.62047" lon="5.90834">
        <ele>956</ele>
        <time>2025-10-08T08:59:00.336+00:00</time>
      </trkpt>
      <trkpt lat="46.6205" lon="5.90826">
        <ele>956</ele>
        <time>2025-10-08T08:59:04.747+00:00</time>
      </trkpt>
      <trkpt lat="46.62052" lon="5.90819">
        <ele>957</ele>
        <time>2025-10-08T08:59:09.226+00:00</time>
      </trkpt>
      <trkpt lat="46.62053" lon="5.90812">
        <ele>957</ele>
        <time>2025-10-08T08:59:13.812+00:00</time>
      </trkpt>
      <trkpt lat="46.62054" lon="5.90805">
        <ele>957</ele>
        <time>2025-10-08T08:59:18.603+00:00</time>
      </trkpt>
      <trkpt lat="46.62056" lon="5.90802">
        <ele>957</ele>
        <time>2025-10-08T08:59:22.647+00:00</time>
      </trkpt>
      <trkpt lat="46.62058" lon="5.90797">
        <ele>957</ele>
        <time>2025-10-08T08:59:26.966+00:00</time>
      </trkpt>
      <trkpt lat="46.62059" lon="5.90792">
        <ele>957</ele>
        <time>2025-10-08T08:59:31.086+00:00</time>
      </trkpt>
      <trkpt lat="46.62062" lon="5.90787">
        <ele>958</ele>
        <time>2025-10-08T08:59:35.744+00:00</time>
      </trkpt>
      <trkpt lat="46.62064" lon="5.90781">
        <ele>958</ele>
        <time>2025-10-08T08:59:40.385+00:00</time>
      </trkpt>
      <trkpt lat="46.62065" lon="5.90777">
        <ele>958</ele>
        <time>2025-10-08T08:59:45.086+00:00</time>
      </trkpt>
      <trkpt lat="46.62065" lon="5.90773">
        <ele>958</ele>
        <time>2025-10-08T08:59:49.792+00:00</time>
      </trkpt>
      <trkpt lat="46.62064" lon="5.9077">
        <ele>958</ele>
        <time>2025-10-08T08:59:54.121+00:00</time>
      </trkpt>
      <trkpt lat="46.62062" lon="5.90762">
        <ele>959</ele>
        <time>2025-10-08T08:59:58.791+00:00</time>
      </trkpt>
      <trkpt lat="46.6206" lon="5.90756">
        <ele>959</ele>
        <time>2025-10-08T09:00:03.286+00:00</time>
      </trkpt>
      <trkpt lat="46.62057" lon="5.9075">
        <ele>959</ele>
        <time>2025-10-08T09:00:07.568+00:00</time>
      </trkpt>
      <trkpt lat="46.62054" lon="5.90743">
        <ele>959</ele>
        <time>2025-10-08T09:00:11.766+00:00</time>
      </trkpt>
      <trkpt lat="46.6205" lon="5.90738">
        <ele>959</ele>
        <time>2025-10-08T09:00:16.185+00:00</time>
      </trkpt>
      <trkpt lat="46.62048" lon="5.90731">
        <ele>959</ele>
        <time>2025-10-08T09:00:20.643+00:00</time>
      </trkpt>
      <trkpt lat="46.62044" lon="5.90724">
        <ele>959</ele>
        <time>2025-10-08T09:00:25.344+00:00</time>
      </trkpt>
      <trkpt lat="46.62042" lon="5.90716">
        <ele>959</ele>
        <time>2025-10-08T09:00:29.687+00:00</time>
      </trkpt>
      <trkpt lat="46.6204" lon="5.9071">
        <ele>962</ele>
        <time>2025-10-08T09:00:33.791+00:00</time>
      </trkpt>
      <trkpt lat="46.62037" lon="5.90702">
        <ele>960</ele>
        <time>2025-10-08T09:00:37.963+00:00</time>
      </trkpt>
      <trkpt lat="46.62036" lon="5.90695">
        <ele>960</ele>
        <time>2025-10-08T09:00:42.381+00:00</time>
      </trkpt>
      <trkpt lat="46.62035" lon="5.90688">
        <ele>960</ele>
        <time>2025-10-08T09:00:46.791+00:00</time>
      </trkpt>
      <trkpt lat="46.6203" lon="5.90684">
        <ele>960</ele>
        <time>2025-10-08T09:00:51.400+00:00</time>
      </trkpt>
      <trkpt lat="46.62025" lon="5.90683">
        <ele>960</ele>
        <time>2025-10-08T09:00:55.726+00:00</time>
      </trkpt>
      <trkpt lat="46.62019" lon="5.90682">
        <ele>960</ele>
        <time>2025-10-08T09:01:00.104+00:00</time>
      </trkpt>
      <trkpt lat="46.62014" lon="5.90678">
        <ele>956</ele>
        <time>2025-10-08T09:01:04.523+00:00</time>
      </trkpt>
      <trkpt lat="46.62009" lon="5.90672">
        <ele>960</ele>
        <time>2025-10-08T09:01:08.589+00:00</time>
      </trkpt>
      <trkpt lat="46.62004" lon="5.90668">
        <ele>960</ele>
        <time>2025-10-08T09:01:12.792+00:00</time>
      </trkpt>
      <trkpt lat="46.61999" lon="5.90665">
        <ele>960</ele>
        <time>2025-10-08T09:01:16.791+00:00</time>
      </trkpt>
      <trkpt lat="46.61995" lon="5.90658">
        <ele>960</ele>
        <time>2025-10-08T09:01:21.503+00:00</time>
      </trkpt>
      <trkpt lat="46.61992" lon="5.90653">
        <ele>960</ele>
        <time>2025-10-08T09:01:25.791+00:00</time>
      </trkpt>
      <trkpt lat="46.61986" lon="5.90654">
        <ele>960</ele>
        <time>2025-10-08T09:01:30.284+00:00</time>
      </trkpt>
      <trkpt lat="46.61981" lon="5.9065">
        <ele>962</ele>
        <time>2025-10-08T09:01:34.448+00:00</time>
      </trkpt>
      <trkpt lat="46.61976" lon="5.90648">
        <ele>962</ele>
        <time>2025-10-08T09:01:38.646+00:00</time>
      </trkpt>
      <trkpt lat="46.61972" lon="5.90643">
        <ele>962</ele>
        <time>2025-10-08T09:01:42.811+00:00</time>
      </trkpt>
      <trkpt lat="46.61966" lon="5.9064">
        <ele>962</ele>
        <time>2025-10-08T09:01:47.708+00:00</time>
      </trkpt>
      <trkpt lat="46.61962" lon="5.90637">
        <ele>962</ele>
        <time>2025-10-08T09:01:52.289+00:00</time>
      </trkpt>
      <trkpt lat="46.61958" lon="5.90634">
        <ele>962</ele>
        <time>2025-10-08T09:01:56.803+00:00</time>
      </trkpt>
      <trkpt lat="46.61956" lon="5.9063">
        <ele>966</ele>
        <time>2025-10-08T09:02:00.966+00:00</time>
      </trkpt>
      <trkpt lat="46.61952" lon="5.90626">
        <ele>966</ele>
        <time>2025-10-08T09:02:05.208+00:00</time>
      </trkpt>
      <trkpt lat="46.61949" lon="5.90622">
        <ele>966</ele>
        <time>2025-10-08T09:02:09.481+00:00</time>
      </trkpt>
      <trkpt lat="46.61945" lon="5.90618">
        <ele>966</ele>
        <time>2025-10-08T09:02:13.688+00:00</time>
      </trkpt>
      <trkpt lat="46.61941" lon="5.90613">
        <ele>966</ele>
        <time>2025-10-08T09:02:18.544+00:00</time>
      </trkpt>
      <trkpt lat="46.61938" lon="5.90608">
        <ele>966</ele>
        <time>2025-10-08T09:02:22.791+00:00</time>
      </trkpt>
      <trkpt lat="46.61934" lon="5.90601">
        <ele>966</ele>
        <time>2025-10-08T09:02:27.792+00:00</time>
      </trkpt>
      <trkpt lat="46.61931" lon="5.90594">
        <ele>964</ele>
        <time>2025-10-08T09:02:31.915+00:00</time>
      </trkpt>
      <trkpt lat="46.61927" lon="5.90589">
        <ele>967</ele>
        <time>2025-10-08T09:02:36.266+00:00</time>
      </trkpt>
      <trkpt lat="46.61923" lon="5.90584">
        <ele>967</ele>
        <time>2025-10-08T09:02:40.792+00:00</time>
      </trkpt>
      <trkpt lat="46.61918" lon="5.90579">
        <ele>967</ele>
        <time>2025-10-08T09:02:44.940+00:00</time>
      </trkpt>
      <trkpt lat="46.61914" lon="5.90572">
        <ele>967</ele>
        <time>2025-10-08T09:02:49.792+00:00</time>
      </trkpt>
      <trkpt lat="46.61909" lon="5.90566">
        <ele>964</ele>
        <time>2025-10-08T09:02:54.404+00:00</time>
      </trkpt>
      <trkpt lat="46.61906" lon="5.9056">
        <ele>964</ele>
        <time>2025-10-08T09:02:58.791+00:00</time>
      </trkpt>
      <trkpt lat="46.61902" lon="5.90554">
        <ele>967</ele>
        <time>2025-10-08T09:03:03.346+00:00</time>
      </trkpt>
      <trkpt lat="46.61897" lon="5.90551">
        <ele>967</ele>
        <time>2025-10-08T09:03:07.628+00:00</time>
      </trkpt>
      <trkpt lat="46.61894" lon="5.90543">
        <ele>967</ele>
        <time>2025-10-08T09:03:11.929+00:00</time>
      </trkpt>
      <trkpt lat="46.61894" lon="5.90535">
        <ele>966</ele>
        <time>2025-10-08T09:03:16.646+00:00</time>
      </trkpt>
      <trkpt lat="46.61889" lon="5.90529">
        <ele>966</ele>
        <time>2025-10-08T09:03:20.791+00:00</time>
      </trkpt>
      <trkpt lat="46.61883" lon="5.90529">
        <ele>966</ele>
        <time>2025-10-08T09:03:25.307+00:00</time>
      </trkpt>
      <trkpt lat="46.61877" lon="5.90527">
        <ele>966</ele>
        <time>2025-10-08T09:03:29.791+00:00</time>
      </trkpt>
      <trkpt lat="46.61871" lon="5.90525">
        <ele>970</ele>
        <time>2025-10-08T09:03:34.368+00:00</time>
      </trkpt>
      <trkpt lat="46.61865" lon="5.90523">
        <ele>970</ele>
        <time>2025-10-08T09:03:38.791+00:00</time>
      </trkpt>
      <trkpt lat="46.61861" lon="5.90519">
        <ele>970</ele>
        <time>2025-10-08T09:03:43.386+00:00</time>
      </trkpt>
      <trkpt lat="46.61859" lon="5.90512">
        <ele>968</ele>
        <time>2025-10-08T09:03:47.791+00:00</time>
      </trkpt>
      <trkpt lat="46.6186" lon="5.90505">
        <ele>968</ele>
        <time>2025-10-08T09:03:52.421+00:00</time>
      </trkpt>
      <trkpt lat="46.61861" lon="5.90501">
        <ele>968</ele>
        <time>2025-10-08T09:03:56.688+00:00</time>
      </trkpt>
      <trkpt lat="46.61859" lon="5.90495">
        <ele>968</ele>
        <time>2025-10-08T09:04:01.388+00:00</time>
      </trkpt>
      <trkpt lat="46.61856" lon="5.9049">
        <ele>968</ele>
        <time>2025-10-08T09:04:05.706+00:00</time>
      </trkpt>
      <trkpt lat="46.61854" lon="5.90487">
        <ele>968</ele>
        <time>2025-10-08T09:04:09.791+00:00</time>
      </trkpt>
      <trkpt lat="46.6185" lon="5.90483">
        <ele>965</ele>
        <time>2025-10-08T09:04:14.561+00:00</time>
      </trkpt>
      <trkpt lat="46.61847" lon="5.90479">
        <ele>965</ele>
        <time>2025-10-08T09:04:18.667+00:00</time>
      </trkpt>
      <trkpt lat="46.61845" lon="5.90475">
        <ele>976</ele>
        <time>2025-10-08T09:04:22.791+00:00</time>
      </trkpt>
      <trkpt lat="46.61841" lon="5.90472">
        <ele>976</ele>
        <time>2025-10-08T09:04:26.791+00:00</time>
      </trkpt>
      <trkpt lat="46.61838" lon="5.90467">
        <ele>976</ele>
        <time>2025-10-08T09:04:31.505+00:00</time>
      </trkpt>
      <trkpt lat="46.61835" lon="5.90463">
        <ele>976</ele>
        <time>2025-10-08T09:04:36.002+00:00</time>
      </trkpt>
      <trkpt lat="46.61832" lon="5.90459">
        <ele>976</ele>
        <time>2025-10-08T09:04:40.268+00:00</time>
      </trkpt>
      <trkpt lat="46.61829" lon="5.90455">
        <ele>972</ele>
        <time>2025-10-08T09:04:44.688+00:00</time>
      </trkpt>
      <trkpt lat="46.61826" lon="5.90451">
        <ele>972</ele>
        <time>2025-10-08T09:04:48.749+00:00</time>
      </trkpt>
      <trkpt lat="46.61822" lon="5.90448">
        <ele>972</ele>
        <time>2025-10-08T09:04:53.321+00:00</time>
      </trkpt>
      <trkpt lat="46.61818" lon="5.90443">
        <ele>982</ele>
        <time>2025-10-08T09:04:57.791+00:00</time>
      </trkpt>
      <trkpt lat="46.61813" lon="5.90439">
        <ele>982</ele>
        <time>2025-10-08T09:05:02.306+00:00</time>
      </trkpt>
      <trkpt lat="46.61808" lon="5.90435">
        <ele>982</ele>
        <time>2025-10-08T09:05:06.622+00:00</time>
      </trkpt>
      <trkpt lat="46.61803" lon="5.90431">
        <ele>982</ele>
        <time>2025-10-08T09:05:11.101+00:00</time>
      </trkpt>
      <trkpt lat="46.61798" lon="5.90428">
        <ele>979</ele>
        <time>2025-10-08T09:05:15.369+00:00</time>
      </trkpt>
      <trkpt lat="46.61792" lon="5.90424">
        <ele>979</ele>
        <time>2025-10-08T09:05:19.626+00:00</time>
      </trkpt>
      <trkpt lat="46.61786" lon="5.90422">
        <ele>981</ele>
        <time>2025-10-08T09:05:23.791+00:00</time>
      </trkpt>
      <trkpt lat="46.6178" lon="5.90419">
        <ele>981</ele>
        <time>2025-10-08T09:05:28.106+00:00</time>
      </trkpt>
      <trkpt lat="46.61775" lon="5.90417">
        <ele>981</ele>
        <time>2025-10-08T09:05:32.303+00:00</time>
      </trkpt>
      <trkpt lat="46.61769" lon="5.90413">
        <ele>981</ele>
        <time>2025-10-08T09:05:36.501+00:00</time>
      </trkpt>
      <trkpt lat="46.61764" lon="5.90405">
        <ele>981</ele>
        <time>2025-10-08T09:06:13.564+00:00</time>
      </trkpt>
      <trkpt lat="46.6176" lon="5.90403">
        <ele>980</ele>
        <time>2025-10-08T09:06:17.792+00:00</time>
      </trkpt>
      <trkpt lat="46.61757" lon="5.90404">
        <ele>980</ele>
        <time>2025-10-08T09:06:21.792+00:00</time>
      </trkpt>
      <trkpt lat="46.61753" lon="5.90399">
        <ele>978</ele>
        <time>2025-10-08T09:06:26.687+00:00</time>
      </trkpt>
      <trkpt lat="46.61748" lon="5.90396">
        <ele>978</ele>
        <time>2025-10-08T09:06:31.027+00:00</time>
      </trkpt>
      <trkpt lat="46.61742" lon="5.90395">
        <ele>978</ele>
        <time>2025-10-08T09:06:35.567+00:00</time>
      </trkpt>
      <trkpt lat="46.61736" lon="5.90395">
        <ele>978</ele>
        <time>2025-10-08T09:06:40.669+00:00</time>
      </trkpt>
      <trkpt lat="46.61732" lon="5.90399">
        <ele>978</ele>
        <time>2025-10-08T09:06:44.791+00:00</time>
      </trkpt>
      <trkpt lat="46.61727" lon="5.90396">
        <ele>978</ele>
        <time>2025-10-08T09:06:49.791+00:00</time>
      </trkpt>
      <trkpt lat="46.61722" lon="5.90398">
        <ele>978</ele>
        <time>2025-10-08T09:06:54.106+00:00</time>
      </trkpt>
      <trkpt lat="46.61718" lon="5.90401">
        <ele>978</ele>
        <time>2025-10-08T09:06:58.380+00:00</time>
      </trkpt>
      <trkpt lat="46.61715" lon="5.90406">
        <ele>981</ele>
        <time>2025-10-08T09:07:03.388+00:00</time>
      </trkpt>
      <trkpt lat="46.61712" lon="5.90409">
        <ele>981</ele>
        <time>2025-10-08T09:07:07.467+00:00</time>
      </trkpt>
      <trkpt lat="46.61709" lon="5.90412">
        <ele>981</ele>
        <time>2025-10-08T09:07:12.262+00:00</time>
      </trkpt>
      <trkpt lat="46.61706" lon="5.90415">
        <ele>983</ele>
        <time>2025-10-08T09:07:16.726+00:00</time>
      </trkpt>
      <trkpt lat="46.61703" lon="5.90418">
        <ele>983</ele>
        <time>2025-10-08T09:07:21.186+00:00</time>
      </trkpt>
      <trkpt lat="46.617" lon="5.9042">
        <ele>983</ele>
        <time>2025-10-08T09:07:25.231+00:00</time>
      </trkpt>
      <trkpt lat="46.61696" lon="5.90424">
        <ele>983</ele>
        <time>2025-10-08T09:07:29.522+00:00</time>
      </trkpt>
      <trkpt lat="46.61692" lon="5.90429">
        <ele>983</ele>
        <time>2025-10-08T09:07:33.881+00:00</time>
      </trkpt>
      <trkpt lat="46.61689" lon="5.90433">
        <ele>984</ele>
        <time>2025-10-08T09:07:38.241+00:00</time>
      </trkpt>
      <trkpt lat="46.61687" lon="5.90438">
        <ele>984</ele>
        <time>2025-10-08T09:07:42.791+00:00</time>
      </trkpt>
      <trkpt lat="46.61683" lon="5.90444">
        <ele>984</ele>
        <time>2025-10-08T09:07:47.686+00:00</time>
      </trkpt>
      <trkpt lat="46.61681" lon="5.90448">
        <ele>984</ele>
        <time>2025-10-08T09:07:52.241+00:00</time>
      </trkpt>
      <trkpt lat="46.61678" lon="5.90451">
        <ele>984</ele>
        <time>2025-10-08T09:07:56.286+00:00</time>
      </trkpt>
      <trkpt lat="46.61673" lon="5.90451">
        <ele>984</ele>
        <time>2025-10-08T09:08:00.784+00:00</time>
      </trkpt>
      <trkpt lat="46.61669" lon="5.90447">
        <ele>984</ele>
        <time>2025-10-08T09:08:05.526+00:00</time>
      </trkpt>
      <trkpt lat="46.61665" lon="5.90442">
        <ele>984</ele>
        <time>2025-10-08T09:08:10.185+00:00</time>
      </trkpt>
      <trkpt lat="46.61661" lon="5.90439">
        <ele>984</ele>
        <time>2025-10-08T09:08:14.790+00:00</time>
      </trkpt>
      <trkpt lat="46.61657" lon="5.90434">
        <ele>984</ele>
        <time>2025-10-08T09:08:19.467+00:00</time>
      </trkpt>
      <trkpt lat="46.61651" lon="5.9043">
        <ele>984</ele>
        <time>2025-10-08T09:08:24.127+00:00</time>
      </trkpt>
      <trkpt lat="46.61646" lon="5.90428">
        <ele>984</ele>
        <time>2025-10-08T09:08:28.545+00:00</time>
      </trkpt>
      <trkpt lat="46.61642" lon="5.90424">
        <ele>984</ele>
        <time>2025-10-08T09:08:32.790+00:00</time>
      </trkpt>
      <trkpt lat="46.61635" lon="5.90422">
        <ele>984</ele>
        <time>2025-10-08T09:08:37.425+00:00</time>
      </trkpt>
      <trkpt lat="46.61631" lon="5.90418">
        <ele>984</ele>
        <time>2025-10-08T09:08:41.683+00:00</time>
      </trkpt>
      <trkpt lat="46.61627" lon="5.90416">
        <ele>984</ele>
        <time>2025-10-08T09:08:45.791+00:00</time>
      </trkpt>
      <trkpt lat="46.61623" lon="5.90412">
        <ele>981</ele>
        <time>2025-10-08T09:08:50.222+00:00</time>
      </trkpt>
      <trkpt lat="46.61619" lon="5.90408">
        <ele>981</ele>
        <time>2025-10-08T09:08:54.523+00:00</time>
      </trkpt>
      <trkpt lat="46.61615" lon="5.90405">
        <ele>981</ele>
        <time>2025-10-08T09:08:58.987+00:00</time>
      </trkpt>
      <trkpt lat="46.6161" lon="5.904">
        <ele>984</ele>
        <time>2025-10-08T09:09:03.790+00:00</time>
      </trkpt>
      <trkpt lat="46.61607" lon="5.90395">
        <ele>984</ele>
        <time>2025-10-08T09:09:08.386+00:00</time>
      </trkpt>
      <trkpt lat="46.61602" lon="5.90393">
        <ele>984</ele>
        <time>2025-10-08T09:09:12.790+00:00</time>
      </trkpt>
      <trkpt lat="46.61599" lon="5.90388">
        <ele>984</ele>
        <time>2025-10-08T09:09:17.482+00:00</time>
      </trkpt>
      <trkpt lat="46.61596" lon="5.90382">
        <ele>982</ele>
        <time>2025-10-08T09:09:22.268+00:00</time>
      </trkpt>
      <trkpt lat="46.61593" lon="5.90378">
        <ele>982</ele>
        <time>2025-10-08T09:09:26.790+00:00</time>
      </trkpt>
      <trkpt lat="46.61589" lon="5.90373">
        <ele>986</ele>
        <time>2025-10-08T09:09:31.791+00:00</time>
      </trkpt>
      <trkpt lat="46.61585" lon="5.90368">
        <ele>986</ele>
        <time>2025-10-08T09:09:36.790+00:00</time>
      </trkpt>
      <trkpt lat="46.61583" lon="5.9036">
        <ele>986</ele>
        <time>2025-10-08T09:09:41.790+00:00</time>
      </trkpt>
      <trkpt lat="46.61581" lon="5.90354">
        <ele>986</ele>
        <time>2025-10-08T09:09:46.548+00:00</time>
      </trkpt>
      <trkpt lat="46.61578" lon="5.90351">
        <ele>986</ele>
        <time>2025-10-08T09:09:50.610+00:00</time>
      </trkpt>
      <trkpt lat="46.61574" lon="5.90347">
        <ele>989</ele>
        <time>2025-10-08T09:09:54.790+00:00</time>
      </trkpt>
      <trkpt lat="46.61569" lon="5.9034">
        <ele>988</ele>
        <time>2025-10-08T09:09:59.791+00:00</time>
      </trkpt>
      <trkpt lat="46.61564" lon="5.90337">
        <ele>988</ele>
        <time>2025-10-08T09:10:04.244+00:00</time>
      </trkpt>
      <trkpt lat="46.6156" lon="5.90333">
        <ele>988</ele>
        <time>2025-10-08T09:10:08.381+00:00</time>
      </trkpt>
      <trkpt lat="46.61557" lon="5.90328">
        <ele>988</ele>
        <time>2025-10-08T09:10:12.427+00:00</time>
      </trkpt>
      <trkpt lat="46.61555" lon="5.90322">
        <ele>988</ele>
        <time>2025-10-08T09:10:16.707+00:00</time>
      </trkpt>
      <trkpt lat="46.61552" lon="5.90317">
        <ele>991</ele>
        <time>2025-10-08T09:10:21.161+00:00</time>
      </trkpt>
      <trkpt lat="46.61549" lon="5.90312">
        <ele>991</ele>
        <time>2025-10-08T09:10:25.488+00:00</time>
      </trkpt>
      <trkpt lat="46.61545" lon="5.90309">
        <ele>991</ele>
        <time>2025-10-08T09:10:29.790+00:00</time>
      </trkpt>
      <trkpt lat="46.61543" lon="5.90305">
        <ele>991</ele>
        <time>2025-10-08T09:10:34.002+00:00</time>
      </trkpt>
      <trkpt lat="46.61538" lon="5.90304">
        <ele>991</ele>
        <time>2025-10-08T09:10:38.387+00:00</time>
      </trkpt>
      <trkpt lat="46.61534" lon="5.90303">
        <ele>991</ele>
        <time>2025-10-08T09:10:42.750+00:00</time>
      </trkpt>
      <trkpt lat="46.6153" lon="5.90287">
        <ele>991</ele>
        <time>2025-10-08T09:11:04.790+00:00</time>
      </trkpt>
      <trkpt lat="46.61531" lon="5.90286">
        <ele>991</ele>
        <time>2025-10-08T09:11:09.588+00:00</time>
      </trkpt>
      <trkpt lat="46.61528" lon="5.90279">
        <ele>991</ele>
        <time>2025-10-08T09:11:14.068+00:00</time>
      </trkpt>
      <trkpt lat="46.61524" lon="5.90276">
        <ele>991</ele>
        <time>2025-10-08T09:11:18.490+00:00</time>
      </trkpt>
      <trkpt lat="46.61521" lon="5.90274">
        <ele>991</ele>
        <time>2025-10-08T09:11:22.688+00:00</time>
      </trkpt>
      <trkpt lat="46.61516" lon="5.90272">
        <ele>991</ele>
        <time>2025-10-08T09:11:27.566+00:00</time>
      </trkpt>
      <trkpt lat="46.61513" lon="5.90265">
        <ele>987</ele>
        <time>2025-10-08T09:11:31.788+00:00</time>
      </trkpt>
      <trkpt lat="46.61514" lon="5.90259">
        <ele>987</ele>
        <time>2025-10-08T09:11:35.791+00:00</time>
      </trkpt>
      <trkpt lat="46.61519" lon="5.90253">
        <ele>987</ele>
        <time>2025-10-08T09:11:40.526+00:00</time>
      </trkpt>
      <trkpt lat="46.6152" lon="5.90249">
        <ele>987</ele>
        <time>2025-10-08T09:11:44.766+00:00</time>
      </trkpt>
      <trkpt lat="46.61518" lon="5.90245">
        <ele>987</ele>
        <time>2025-10-08T09:11:48.790+00:00</time>
      </trkpt>
      <trkpt lat="46.61515" lon="5.90241">
        <ele>987</ele>
        <time>2025-10-08T09:11:53.681+00:00</time>
      </trkpt>
      <trkpt lat="46.61512" lon="5.90239">
        <ele>983</ele>
        <time>2025-10-08T09:11:57.790+00:00</time>
      </trkpt>
      <trkpt lat="46.61509" lon="5.90237">
        <ele>983</ele>
        <time>2025-10-08T09:12:02.606+00:00</time>
      </trkpt>
      <trkpt lat="46.61506" lon="5.90235">
        <ele>976</ele>
        <time>2025-10-08T09:12:06.430+00:00</time>
      </trkpt>
      <trkpt lat="46.61499" lon="5.90228">
        <ele>976</ele>
        <time>2025-10-08T09:12:15.790+00:00</time>
      </trkpt>
      <trkpt lat="46.61497" lon="5.90222">
        <ele>976</ele>
        <time>2025-10-08T09:12:20.790+00:00</time>
      </trkpt>
      <trkpt lat="46.61496" lon="5.90223">
        <ele>976</ele>
        <time>2025-10-08T09:12:25.373+00:00</time>
      </trkpt>
      <trkpt lat="46.61491" lon="5.90225">
        <ele>976</ele>
        <time>2025-10-08T09:12:29.509+00:00</time>
      </trkpt>
      <trkpt lat="46.61486" lon="5.90224">
        <ele>976</ele>
        <time>2025-10-08T09:12:33.790+00:00</time>
      </trkpt>
      <trkpt lat="46.61482" lon="5.90227">
        <ele>970</ele>
        <time>2025-10-08T09:12:38.648+00:00</time>
      </trkpt>
      <trkpt lat="46.61479" lon="5.9023">
        <ele>970</ele>
        <time>2025-10-08T09:12:43.182+00:00</time>
      </trkpt>
      <trkpt lat="46.61475" lon="5.90231">
        <ele>970</ele>
        <time>2025-10-08T09:12:47.530+00:00</time>
      </trkpt>
      <trkpt lat="46.61473" lon="5.9023">
        <ele>970</ele>
        <time>2025-10-08T09:12:51.790+00:00</time>
      </trkpt>
      <trkpt lat="46.61471" lon="5.9023">
        <ele>970</ele>
        <time>2025-10-08T09:12:56.790+00:00</time>
      </trkpt>
      <trkpt lat="46.61468" lon="5.9023">
        <ele>970</ele>
        <time>2025-10-08T09:13:01.563+00:00</time>
      </trkpt>
      <trkpt lat="46.61475" lon="5.90234">
        <ele>970</ele>
        <time>2025-10-08T09:24:05.789+00:00</time>
      </trkpt>
      <trkpt lat="46.61476" lon="5.90233">
        <ele>970</ele>
        <time>2025-10-08T09:24:10.788+00:00</time>
      </trkpt>
      <trkpt lat="46.61477" lon="5.90232">
        <ele>970</ele>
        <time>2025-10-08T09:24:15.437+00:00</time>
      </trkpt>
      <trkpt lat="46.61481" lon="5.90231">
        <ele>970</ele>
        <time>2025-10-08T09:24:19.788+00:00</time>
      </trkpt>
      <trkpt lat="46.61486" lon="5.90225">
        <ele>976</ele>
        <time>2025-10-08T09:24:24.216+00:00</time>
      </trkpt>
      <trkpt lat="46.6149" lon="5.90221">
        <ele>976</ele>
        <time>2025-10-08T09:24:28.279+00:00</time>
      </trkpt>
      <trkpt lat="46.6149" lon="5.90216">
        <ele>976</ele>
        <time>2025-10-08T09:24:32.538+00:00</time>
      </trkpt>
      <trkpt lat="46.61486" lon="5.90211">
        <ele>976</ele>
        <time>2025-10-08T09:24:36.789+00:00</time>
      </trkpt>
      <trkpt lat="46.61488" lon="5.90209">
        <ele>976</ele>
        <time>2025-10-08T09:24:41.789+00:00</time>
      </trkpt>
      <trkpt lat="46.61487" lon="5.90208">
        <ele>963</ele>
        <time>2025-10-08T09:24:50.788+00:00</time>
      </trkpt>
      <trkpt lat="46.61487" lon="5.90208">
        <ele>963</ele>
        <time>2025-10-08T09:24:54.788+00:00</time>
      </trkpt>
      <trkpt lat="46.61487" lon="5.90209">
        <ele>976</ele>
        <time>2025-10-08T09:24:59.343+00:00</time>
      </trkpt>
      <trkpt lat="46.61487" lon="5.90217">
        <ele>976</ele>
        <time>2025-10-08T09:25:03.788+00:00</time>
      </trkpt>
      <trkpt lat="46.61485" lon="5.90226">
        <ele>970</ele>
        <time>2025-10-08T09:25:08.158+00:00</time>
      </trkpt>
      <trkpt lat="46.61484" lon="5.90228">
        <ele>970</ele>
        <time>2025-10-08T09:25:12.788+00:00</time>
      </trkpt>
      <trkpt lat="46.61484" lon="5.90228">
        <ele>970</ele>
        <time>2025-10-08T09:25:17.275+00:00</time>
      </trkpt>
      <trkpt lat="46.61482" lon="5.90229">
        <ele>970</ele>
        <time>2025-10-08T09:25:21.688+00:00</time>
      </trkpt>
      <trkpt lat="46.61478" lon="5.9023">
        <ele>970</ele>
        <time>2025-10-08T09:25:25.788+00:00</time>
      </trkpt>
      <trkpt lat="46.61475" lon="5.9023">
        <ele>970</ele>
        <time>2025-10-08T09:25:30.255+00:00</time>
      </trkpt>
      <trkpt lat="46.61473" lon="5.90234">
        <ele>970</ele>
        <time>2025-10-08T09:33:04.787+00:00</time>
      </trkpt>
      <trkpt lat="46.61475" lon="5.90232">
        <ele>970</ele>
        <time>2025-10-08T09:33:09.211+00:00</time>
      </trkpt>
      <trkpt lat="46.6148" lon="5.9023">
        <ele>970</ele>
        <time>2025-10-08T09:33:13.519+00:00</time>
      </trkpt>
      <trkpt lat="46.61484" lon="5.90225">
        <ele>970</ele>
        <time>2025-10-08T09:33:17.787+00:00</time>
      </trkpt>
      <trkpt lat="46.61486" lon="5.90216">
        <ele>976</ele>
        <time>2025-10-08T09:33:22.419+00:00</time>
      </trkpt>
      <trkpt lat="46.61484" lon="5.9021">
        <ele>970</ele>
        <time>2025-10-08T09:33:26.787+00:00</time>
      </trkpt>
      <trkpt lat="46.6148" lon="5.90208">
        <ele>961</ele>
        <time>2025-10-08T09:33:31.539+00:00</time>
      </trkpt>
      <trkpt lat="46.61477" lon="5.90208">
        <ele>961</ele>
        <time>2025-10-08T09:33:35.787+00:00</time>
      </trkpt>
      <trkpt lat="46.61471" lon="5.90208">
        <ele>961</ele>
        <time>2025-10-08T09:33:40.540+00:00</time>
      </trkpt>
      <trkpt lat="46.61466" lon="5.90207">
        <ele>961</ele>
        <time>2025-10-08T09:34:19.788+00:00</time>
      </trkpt>
      <trkpt lat="46.61465" lon="5.90208">
        <ele>961</ele>
        <time>2025-10-08T09:34:24.787+00:00</time>
      </trkpt>
      <trkpt lat="46.61462" lon="5.90209">
        <ele>970</ele>
        <time>2025-10-08T09:34:28.787+00:00</time>
      </trkpt>
      <trkpt lat="46.61458" lon="5.90207">
        <ele>961</ele>
        <time>2025-10-08T09:34:33.296+00:00</time>
      </trkpt>
      <trkpt lat="46.61455" lon="5.90205">
        <ele>951</ele>
        <time>2025-10-08T09:34:37.596+00:00</time>
      </trkpt>
      <trkpt lat="46.61452" lon="5.90207">
        <ele>951</ele>
        <time>2025-10-08T09:34:42.556+00:00</time>
      </trkpt>
      <trkpt lat="46.6145" lon="5.90211">
        <ele>961</ele>
        <time>2025-10-08T09:34:46.675+00:00</time>
      </trkpt>
      <trkpt lat="46.6145" lon="5.90214">
        <ele>961</ele>
        <time>2025-10-08T09:34:50.788+00:00</time>
      </trkpt>
      <trkpt lat="46.6145" lon="5.90217">
        <ele>961</ele>
        <time>2025-10-08T09:34:55.788+00:00</time>
      </trkpt>
      <trkpt lat="46.61448" lon="5.90222">
        <ele>961</ele>
        <time>2025-10-08T09:35:00.557+00:00</time>
      </trkpt>
      <trkpt lat="46.61445" lon="5.9023">
        <ele>961</ele>
        <time>2025-10-08T09:35:08.756+00:00</time>
      </trkpt>
      <trkpt lat="46.61444" lon="5.90232">
        <ele>961</ele>
        <time>2025-10-08T09:35:12.759+00:00</time>
      </trkpt>
      <trkpt lat="46.61441" lon="5.90233">
        <ele>961</ele>
        <time>2025-10-08T09:35:17.195+00:00</time>
      </trkpt>
      <trkpt lat="46.61441" lon="5.90236">
        <ele>967</ele>
        <time>2025-10-08T09:35:21.299+00:00</time>
      </trkpt>
      <trkpt lat="46.61437" lon="5.90239">
        <ele>967</ele>
        <time>2025-10-08T09:35:25.786+00:00</time>
      </trkpt>
      <trkpt lat="46.61434" lon="5.90243">
        <ele>967</ele>
        <time>2025-10-08T09:35:29.787+00:00</time>
      </trkpt>
      <trkpt lat="46.61432" lon="5.90245">
        <ele>967</ele>
        <time>2025-10-08T09:35:34.219+00:00</time>
      </trkpt>
      <trkpt lat="46.6143" lon="5.90247">
        <ele>963</ele>
        <time>2025-10-08T09:35:38.786+00:00</time>
      </trkpt>
      <trkpt lat="46.61428" lon="5.9025">
        <ele>963</ele>
        <time>2025-10-08T09:35:43.313+00:00</time>
      </trkpt>
      <trkpt lat="46.61429" lon="5.90255">
        <ele>963</ele>
        <time>2025-10-08T09:35:47.786+00:00</time>
      </trkpt>
      <trkpt lat="46.6143" lon="5.90259">
        <ele>963</ele>
        <time>2025-10-08T09:35:52.324+00:00</time>
      </trkpt>
      <trkpt lat="46.61432" lon="5.90265">
        <ele>969</ele>
        <time>2025-10-08T09:35:56.600+00:00</time>
      </trkpt>
      <trkpt lat="46.61433" lon="5.90271">
        <ele>969</ele>
        <time>2025-10-08T09:36:00.787+00:00</time>
      </trkpt>
      <trkpt lat="46.61435" lon="5.90276">
        <ele>969</ele>
        <time>2025-10-08T09:36:05.320+00:00</time>
      </trkpt>
      <trkpt lat="46.61435" lon="5.9028">
        <ele>969</ele>
        <time>2025-10-08T09:36:09.786+00:00</time>
      </trkpt>
      <trkpt lat="46.61433" lon="5.90283">
        <ele>969</ele>
        <time>2025-10-08T09:36:14.176+00:00</time>
      </trkpt>
      <trkpt lat="46.61429" lon="5.90284">
        <ele>962</ele>
        <time>2025-10-08T09:36:18.786+00:00</time>
      </trkpt>
      <trkpt lat="46.61426" lon="5.9028">
        <ele>962</ele>
        <time>2025-10-08T09:36:23.314+00:00</time>
      </trkpt>
      <trkpt lat="46.61422" lon="5.90277">
        <ele>962</ele>
        <time>2025-10-08T09:36:27.615+00:00</time>
      </trkpt>
      <trkpt lat="46.61419" lon="5.90275">
        <ele>962</ele>
        <time>2025-10-08T09:36:31.786+00:00</time>
      </trkpt>
      <trkpt lat="46.61415" lon="5.90273">
        <ele>962</ele>
        <time>2025-10-08T09:36:36.259+00:00</time>
      </trkpt>
      <trkpt lat="46.61412" lon="5.90272">
        <ele>962</ele>
        <time>2025-10-08T09:36:40.699+00:00</time>
      </trkpt>
      <trkpt lat="46.6141" lon="5.90273">
        <ele>962</ele>
        <time>2025-10-08T09:36:44.786+00:00</time>
      </trkpt>
      <trkpt lat="46.61407" lon="5.90276">
        <ele>962</ele>
        <time>2025-10-08T09:36:49.194+00:00</time>
      </trkpt>
      <trkpt lat="46.61404" lon="5.90278">
        <ele>962</ele>
        <time>2025-10-08T09:36:53.495+00:00</time>
      </trkpt>
      <trkpt lat="46.61401" lon="5.90281">
        <ele>953</ele>
        <time>2025-10-08T09:36:57.786+00:00</time>
      </trkpt>
      <trkpt lat="46.61398" lon="5.90281">
        <ele>953</ele>
        <time>2025-10-08T09:37:02.319+00:00</time>
      </trkpt>
      <trkpt lat="46.61396" lon="5.9028">
        <ele>953</ele>
        <time>2025-10-08T09:37:06.473+00:00</time>
      </trkpt>
      <trkpt lat="46.61394" lon="5.90281">
        <ele>953</ele>
        <time>2025-10-08T09:37:10.995+00:00</time>
      </trkpt>
      <trkpt lat="46.61389" lon="5.90281">
        <ele>953</ele>
        <time>2025-10-08T09:37:15.117+00:00</time>
      </trkpt>
      <trkpt lat="46.61386" lon="5.90282">
        <ele>953</ele>
        <time>2025-10-08T09:37:19.665+00:00</time>
      </trkpt>
      <trkpt lat="46.61382" lon="5.90293">
        <ele>949</ele>
        <time>2025-10-08T09:39:18.786+00:00</time>
      </trkpt>
      <trkpt lat="46.61382" lon="5.90293">
        <ele>949</ele>
        <time>2025-10-08T09:39:23.786+00:00</time>
      </trkpt>
      <trkpt lat="46.61382" lon="5.90293">
        <ele>949</ele>
        <time>2025-10-08T09:39:27.786+00:00</time>
      </trkpt>
      <trkpt lat="46.61381" lon="5.90292">
        <ele>949</ele>
        <time>2025-10-08T09:39:32.786+00:00</time>
      </trkpt>
      <trkpt lat="46.61378" lon="5.90287">
        <ele>953</ele>
        <time>2025-10-08T09:39:36.786+00:00</time>
      </trkpt>
      <trkpt lat="46.61375" lon="5.90277">
        <ele>953</ele>
        <time>2025-10-08T09:39:41.732+00:00</time>
      </trkpt>
      <trkpt lat="46.61372" lon="5.9027">
        <ele>945</ele>
        <time>2025-10-08T09:39:45.786+00:00</time>
      </trkpt>
      <trkpt lat="46.61369" lon="5.90265">
        <ele>945</ele>
        <time>2025-10-08T09:39:50.395+00:00</time>
      </trkpt>
      <trkpt lat="46.61365" lon="5.9026">
        <ele>945</ele>
        <time>2025-10-08T09:39:54.786+00:00</time>
      </trkpt>
      <trkpt lat="46.61362" lon="5.90255">
        <ele>945</ele>
        <time>2025-10-08T09:39:59.013+00:00</time>
      </trkpt>
      <trkpt lat="46.6136" lon="5.9025">
        <ele>945</ele>
        <time>2025-10-08T09:40:03.476+00:00</time>
      </trkpt>
      <trkpt lat="46.61357" lon="5.90245">
        <ele>945</ele>
        <time>2025-10-08T09:40:07.786+00:00</time>
      </trkpt>
      <trkpt lat="46.61355" lon="5.90239">
        <ele>945</ele>
        <time>2025-10-08T09:40:12.317+00:00</time>
      </trkpt>
      <trkpt lat="46.61354" lon="5.90233">
        <ele>946</ele>
        <time>2025-10-08T09:40:16.695+00:00</time>
      </trkpt>
      <trkpt lat="46.61353" lon="5.90226">
        <ele>946</ele>
        <time>2025-10-08T09:40:20.787+00:00</time>
      </trkpt>
      <trkpt lat="46.61351" lon="5.9022">
        <ele>946</ele>
        <time>2025-10-08T09:40:25.786+00:00</time>
      </trkpt>
      <trkpt lat="46.61352" lon="5.90214">
        <ele>946</ele>
        <time>2025-10-08T09:40:30.356+00:00</time>
      </trkpt>
      <trkpt lat="46.6135" lon="5.90207">
        <ele>946</ele>
        <time>2025-10-08T09:40:34.787+00:00</time>
      </trkpt>
      <trkpt lat="46.61347" lon="5.90199">
        <ele>941</ele>
        <time>2025-10-08T09:40:39.496+00:00</time>
      </trkpt>
      <trkpt lat="46.61346" lon="5.90192">
        <ele>941</ele>
        <time>2025-10-08T09:40:43.958+00:00</time>
      </trkpt>
      <trkpt lat="46.61345" lon="5.90186">
        <ele>941</ele>
        <time>2025-10-08T09:40:47.995+00:00</time>
      </trkpt>
      <trkpt lat="46.61345" lon="5.90181">
        <ele>941</ele>
        <time>2025-10-08T09:40:52.074+00:00</time>
      </trkpt>
      <trkpt lat="46.61345" lon="5.90177">
        <ele>941</ele>
        <time>2025-10-08T09:40:56.177+00:00</time>
      </trkpt>
      <trkpt lat="46.61344" lon="5.90172">
        <ele>941</ele>
        <time>2025-10-08T09:41:00.513+00:00</time>
      </trkpt>
      <trkpt lat="46.61341" lon="5.90167">
        <ele>941</ele>
        <time>2025-10-08T09:41:04.985+00:00</time>
      </trkpt>
      <trkpt lat="46.6134" lon="5.90161">
        <ele>941</ele>
        <time>2025-10-08T09:41:09.787+00:00</time>
      </trkpt>
      <trkpt lat="46.61339" lon="5.90155">
        <ele>941</ele>
        <time>2025-10-08T09:41:14.653+00:00</time>
      </trkpt>
      <trkpt lat="46.61338" lon="5.90149">
        <ele>942</ele>
        <time>2025-10-08T09:41:18.757+00:00</time>
      </trkpt>
      <trkpt lat="46.61336" lon="5.90144">
        <ele>942</ele>
        <time>2025-10-08T09:41:23.117+00:00</time>
      </trkpt>
      <trkpt lat="46.61334" lon="5.90137">
        <ele>942</ele>
        <time>2025-10-08T09:41:27.478+00:00</time>
      </trkpt>
      <trkpt lat="46.61333" lon="5.90131">
        <ele>942</ele>
        <time>2025-10-08T09:41:31.786+00:00</time>
      </trkpt>
      <trkpt lat="46.6133" lon="5.90125">
        <ele>940</ele>
        <time>2025-10-08T09:41:36.318+00:00</time>
      </trkpt>
      <trkpt lat="46.61328" lon="5.90119">
        <ele>940</ele>
        <time>2025-10-08T09:41:40.786+00:00</time>
      </trkpt>
      <trkpt lat="46.61325" lon="5.90106">
        <ele>940</ele>
        <time>2025-10-08T09:42:31.777+00:00</time>
      </trkpt>
      <trkpt lat="46.6133" lon="5.90108">
        <ele>940</ele>
        <time>2025-10-08T09:42:35.801+00:00</time>
      </trkpt>
      <trkpt lat="46.61335" lon="5.90109">
        <ele>940</ele>
        <time>2025-10-08T09:42:40+00:00</time>
      </trkpt>
      <trkpt lat="46.61337" lon="5.90116">
        <ele>940</ele>
        <time>2025-10-08T09:42:44.476+00:00</time>
      </trkpt>
      <trkpt lat="46.61338" lon="5.90126">
        <ele>942</ele>
        <time>2025-10-08T09:42:48.754+00:00</time>
      </trkpt>
      <trkpt lat="46.61337" lon="5.90134">
        <ele>942</ele>
        <time>2025-10-08T09:42:52.925+00:00</time>
      </trkpt>
      <trkpt lat="46.61339" lon="5.9014">
        <ele>942</ele>
        <time>2025-10-08T09:42:57.518+00:00</time>
      </trkpt>
      <trkpt lat="46.6134" lon="5.90144">
        <ele>942</ele>
        <time>2025-10-08T09:43:01.785+00:00</time>
      </trkpt>
      <trkpt lat="46.61341" lon="5.9015">
        <ele>942</ele>
        <time>2025-10-08T09:43:06.389+00:00</time>
      </trkpt>
      <trkpt lat="46.61342" lon="5.90156">
        <ele>941</ele>
        <time>2025-10-08T09:43:10.764+00:00</time>
      </trkpt>
      <trkpt lat="46.61343" lon="5.90163">
        <ele>941</ele>
        <time>2025-10-08T09:43:15.078+00:00</time>
      </trkpt>
      <trkpt lat="46.61344" lon="5.90167">
        <ele>941</ele>
        <time>2025-10-08T09:43:19.790+00:00</time>
      </trkpt>
      <trkpt lat="46.61343" lon="5.90173">
        <ele>941</ele>
        <time>2025-10-08T09:43:24.362+00:00</time>
      </trkpt>
      <trkpt lat="46.61343" lon="5.90178">
        <ele>941</ele>
        <time>2025-10-08T09:43:28.477+00:00</time>
      </trkpt>
      <trkpt lat="46.61343" lon="5.90184">
        <ele>941</ele>
        <time>2025-10-08T09:43:32.786+00:00</time>
      </trkpt>
      <trkpt lat="46.61343" lon="5.90189">
        <ele>941</ele>
        <time>2025-10-08T09:43:36.860+00:00</time>
      </trkpt>
      <trkpt lat="46.61345" lon="5.90196">
        <ele>941</ele>
        <time>2025-10-08T09:43:41.284+00:00</time>
      </trkpt>
      <trkpt lat="46.61346" lon="5.90204">
        <ele>941</ele>
        <time>2025-10-08T09:43:45.554+00:00</time>
      </trkpt>
      <trkpt lat="46.61348" lon="5.90209">
        <ele>946</ele>
        <time>2025-10-08T09:43:49.785+00:00</time>
      </trkpt>
      <trkpt lat="46.61349" lon="5.90215">
        <ele>946</ele>
        <time>2025-10-08T09:43:54.785+00:00</time>
      </trkpt>
      <trkpt lat="46.61349" lon="5.90222">
        <ele>946</ele>
        <time>2025-10-08T09:43:59.503+00:00</time>
      </trkpt>
      <trkpt lat="46.6135" lon="5.90227">
        <ele>946</ele>
        <time>2025-10-08T09:44:03.623+00:00</time>
      </trkpt>
      <trkpt lat="46.61352" lon="5.90232">
        <ele>946</ele>
        <time>2025-10-08T09:44:07.730+00:00</time>
      </trkpt>
      <trkpt lat="46.61355" lon="5.90238">
        <ele>945</ele>
        <time>2025-10-08T09:44:12.195+00:00</time>
      </trkpt>
      <trkpt lat="46.61358" lon="5.90247">
        <ele>945</ele>
        <time>2025-10-08T09:44:16.697+00:00</time>
      </trkpt>
      <trkpt lat="46.61362" lon="5.90253">
        <ele>945</ele>
        <time>2025-10-08T09:44:21.251+00:00</time>
      </trkpt>
      <trkpt lat="46.61366" lon="5.90258">
        <ele>945</ele>
        <time>2025-10-08T09:44:25.785+00:00</time>
      </trkpt>
      <trkpt lat="46.61367" lon="5.90263">
        <ele>945</ele>
        <time>2025-10-08T09:44:30.035+00:00</time>
      </trkpt>
      <trkpt lat="46.6137" lon="5.90268">
        <ele>945</ele>
        <time>2025-10-08T09:44:34.055+00:00</time>
      </trkpt>
      <trkpt lat="46.61373" lon="5.90275">
        <ele>945</ele>
        <time>2025-10-08T09:44:38.493+00:00</time>
      </trkpt>
      <trkpt lat="46.61372" lon="5.90278">
        <ele>945</ele>
        <time>2025-10-08T09:44:42.785+00:00</time>
      </trkpt>
      <trkpt lat="46.61364" lon="5.90277">
        <ele>945</ele>
        <time>2025-10-08T09:44:47.785+00:00</time>
      </trkpt>
      <trkpt lat="46.61358" lon="5.90271">
        <ele>945</ele>
        <time>2025-10-08T09:44:51.786+00:00</time>
      </trkpt>
      <trkpt lat="46.61353" lon="5.90264">
        <ele>945</ele>
        <time>2025-10-08T09:44:56.696+00:00</time>
      </trkpt>
      <trkpt lat="46.61351" lon="5.90257">
        <ele>945</ele>
        <time>2025-10-08T09:45:01.313+00:00</time>
      </trkpt>
      <trkpt lat="46.61349" lon="5.90252">
        <ele>945</ele>
        <time>2025-10-08T09:45:05.614+00:00</time>
      </trkpt>
      <trkpt lat="46.61346" lon="5.90249">
        <ele>940</ele>
        <time>2025-10-08T09:45:09.796+00:00</time>
      </trkpt>
      <trkpt lat="46.61341" lon="5.90248">
        <ele>940</ele>
        <time>2025-10-08T09:45:13.785+00:00</time>
      </trkpt>
      <trkpt lat="46.61338" lon="5.90243">
        <ele>940</ele>
        <time>2025-10-08T09:45:18.696+00:00</time>
      </trkpt>
      <trkpt lat="46.61335" lon="5.90239">
        <ele>940</ele>
        <time>2025-10-08T09:45:22.785+00:00</time>
      </trkpt>
      <trkpt lat="46.61333" lon="5.90232">
        <ele>939</ele>
        <time>2025-10-08T09:45:26.932+00:00</time>
      </trkpt>
      <trkpt lat="46.6133" lon="5.90224">
        <ele>939</ele>
        <time>2025-10-08T09:45:40.817+00:00</time>
      </trkpt>
      <trkpt lat="46.61325" lon="5.90221">
        <ele>939</ele>
        <time>2025-10-08T09:45:45.785+00:00</time>
      </trkpt>
      <trkpt lat="46.61325" lon="5.90221">
        <ele>939</ele>
        <time>2025-10-08T09:45:50.111+00:00</time>
      </trkpt>
      <trkpt lat="46.61324" lon="5.90221">
        <ele>939</ele>
        <time>2025-10-08T09:45:54.785+00:00</time>
      </trkpt>
      <trkpt lat="46.61318" lon="5.90219">
        <ele>932</ele>
        <time>2025-10-08T09:45:59.438+00:00</time>
      </trkpt>
      <trkpt lat="46.61313" lon="5.90215">
        <ele>932</ele>
        <time>2025-10-08T09:46:03.785+00:00</time>
      </trkpt>
      <trkpt lat="46.61314" lon="5.90214">
        <ele>932</ele>
        <time>2025-10-08T09:46:07.785+00:00</time>
      </trkpt>
      <trkpt lat="46.61313" lon="5.90213">
        <ele>932</ele>
        <time>2025-10-08T09:46:12.569+00:00</time>
      </trkpt>
      <trkpt lat="46.61308" lon="5.90208">
        <ele>930</ele>
        <time>2025-10-08T09:46:16.955+00:00</time>
      </trkpt>
      <trkpt lat="46.61306" lon="5.90203">
        <ele>930</ele>
        <time>2025-10-08T09:46:21.068+00:00</time>
      </trkpt>
      <trkpt lat="46.61303" lon="5.90198">
        <ele>930</ele>
        <time>2025-10-08T09:46:25.335+00:00</time>
      </trkpt>
      <trkpt lat="46.61299" lon="5.90198">
        <ele>930</ele>
        <time>2025-10-08T09:46:29.475+00:00</time>
      </trkpt>
      <trkpt lat="46.61296" lon="5.902">
        <ele>930</ele>
        <time>2025-10-08T09:46:33.595+00:00</time>
      </trkpt>
      <trkpt lat="46.61292" lon="5.90202">
        <ele>930</ele>
        <time>2025-10-08T09:46:37.786+00:00</time>
      </trkpt>
      <trkpt lat="46.61287" lon="5.90205">
        <ele>921</ele>
        <time>2025-10-08T09:46:42.786+00:00</time>
      </trkpt>
      <trkpt lat="46.61284" lon="5.90206">
        <ele>921</ele>
        <time>2025-10-08T09:46:46.786+00:00</time>
      </trkpt>
      <trkpt lat="46.61281" lon="5.902">
        <ele>921</ele>
        <time>2025-10-08T09:46:51.312+00:00</time>
      </trkpt>
      <trkpt lat="46.61282" lon="5.90195">
        <ele>921</ele>
        <time>2025-10-08T09:46:55.785+00:00</time>
      </trkpt>
      <trkpt lat="46.61281" lon="5.90192">
        <ele>921</ele>
        <time>2025-10-08T09:47:00.785+00:00</time>
      </trkpt>
      <trkpt lat="46.61282" lon="5.90192">
        <ele>921</ele>
        <time>2025-10-08T09:47:05.315+00:00</time>
      </trkpt>
      <trkpt lat="46.6128" lon="5.90186">
        <ele>921</ele>
        <time>2025-10-08T09:47:09.555+00:00</time>
      </trkpt>
      <trkpt lat="46.61276" lon="5.90185">
        <ele>921</ele>
        <time>2025-10-08T09:47:13.785+00:00</time>
      </trkpt>
      <trkpt lat="46.61274" lon="5.90185">
        <ele>921</ele>
        <time>2025-10-08T09:47:18.116+00:00</time>
      </trkpt>
      <trkpt lat="46.61269" lon="5.90185">
        <ele>921</ele>
        <time>2025-10-08T09:47:22.785+00:00</time>
      </trkpt>
      <trkpt lat="46.61265" lon="5.90185">
        <ele>921</ele>
        <time>2025-10-08T09:47:26.785+00:00</time>
      </trkpt>
      <trkpt lat="46.61262" lon="5.90185">
        <ele>916</ele>
        <time>2025-10-08T09:47:31.258+00:00</time>
      </trkpt>
      <trkpt lat="46.61261" lon="5.9018">
        <ele>909</ele>
        <time>2025-10-08T09:47:35.785+00:00</time>
      </trkpt>
      <trkpt lat="46.61258" lon="5.90178">
        <ele>909</ele>
        <time>2025-10-08T09:47:40.515+00:00</time>
      </trkpt>
      <trkpt lat="46.61254" lon="5.90177">
        <ele>909</ele>
        <time>2025-10-08T09:47:44.785+00:00</time>
      </trkpt>
      <trkpt lat="46.61251" lon="5.90175">
        <ele>909</ele>
        <time>2025-10-08T09:47:49.416+00:00</time>
      </trkpt>
      <trkpt lat="46.61248" lon="5.90175">
        <ele>909</ele>
        <time>2025-10-08T09:47:53.513+00:00</time>
      </trkpt>
      <trkpt lat="46.61236" lon="5.90166">
        <ele>909</ele>
        <time>2025-10-08T09:48:39.032+00:00</time>
      </trkpt>
      <trkpt lat="46.61236" lon="5.9016">
        <ele>900</ele>
        <time>2025-10-08T09:48:43.797+00:00</time>
      </trkpt>
      <trkpt lat="46.61236" lon="5.90155">
        <ele>900</ele>
        <time>2025-10-08T09:48:47.932+00:00</time>
      </trkpt>
      <trkpt lat="46.61235" lon="5.90148">
        <ele>897</ele>
        <time>2025-10-08T09:48:52.669+00:00</time>
      </trkpt>
      <trkpt lat="46.61235" lon="5.90143">
        <ele>897</ele>
        <time>2025-10-08T09:48:57.072+00:00</time>
      </trkpt>
      <trkpt lat="46.6123" lon="5.90134">
        <ele>897</ele>
        <time>2025-10-08T09:49:14.784+00:00</time>
      </trkpt>
      <trkpt lat="46.6123" lon="5.90134">
        <ele>897</ele>
        <time>2025-10-08T09:49:28.613+00:00</time>
      </trkpt>
      <trkpt lat="46.6123" lon="5.90134">
        <ele>897</ele>
        <time>2025-10-08T09:49:37.784+00:00</time>
      </trkpt>
      <trkpt lat="46.61227" lon="5.90136">
        <ele>897</ele>
        <time>2025-10-08T09:49:42.784+00:00</time>
      </trkpt>
      <trkpt lat="46.61222" lon="5.90141">
        <ele>897</ele>
        <time>2025-10-08T09:49:47.784+00:00</time>
      </trkpt>
      <trkpt lat="46.61219" lon="5.90146">
        <ele>897</ele>
        <time>2025-10-08T09:49:52.784+00:00</time>
      </trkpt>
      <trkpt lat="46.61217" lon="5.9015">
        <ele>897</ele>
        <time>2025-10-08T09:49:57.652+00:00</time>
      </trkpt>
      <trkpt lat="46.61215" lon="5.9015">
        <ele>897</ele>
        <time>2025-10-08T09:50:01.594+00:00</time>
      </trkpt>
      <trkpt lat="46.6121" lon="5.90153">
        <ele>900</ele>
        <time>2025-10-08T09:50:05.784+00:00</time>
      </trkpt>
      <trkpt lat="46.61204" lon="5.90155">
        <ele>893</ele>
        <time>2025-10-08T09:50:10.534+00:00</time>
      </trkpt>
      <trkpt lat="46.61201" lon="5.90152">
        <ele>887</ele>
        <time>2025-10-08T09:50:14.785+00:00</time>
      </trkpt>
      <trkpt lat="46.61206" lon="5.90146">
        <ele>887</ele>
        <time>2025-10-08T09:50:19.784+00:00</time>
      </trkpt>
      <trkpt lat="46.6121" lon="5.90147">
        <ele>897</ele>
        <time>2025-10-08T09:50:23.969+00:00</time>
      </trkpt>
      <trkpt lat="46.61215" lon="5.90145">
        <ele>897</ele>
        <time>2025-10-08T09:50:28.295+00:00</time>
      </trkpt>
      <trkpt lat="46.61217" lon="5.90139">
        <ele>897</ele>
        <time>2025-10-08T09:50:32.785+00:00</time>
      </trkpt>
      <trkpt lat="46.61218" lon="5.90132">
        <ele>897</ele>
        <time>2025-10-08T09:50:37.196+00:00</time>
      </trkpt>
      <trkpt lat="46.61216" lon="5.90123">
        <ele>898</ele>
        <time>2025-10-08T09:50:41.633+00:00</time>
      </trkpt>
      <trkpt lat="46.61213" lon="5.90117">
        <ele>898</ele>
        <time>2025-10-08T09:50:45.995+00:00</time>
      </trkpt>
      <trkpt lat="46.61205" lon="5.90118">
        <ele>885</ele>
        <time>2025-10-08T09:50:55.355+00:00</time>
      </trkpt>
      <trkpt lat="46.61206" lon="5.9012">
        <ele>885</ele>
        <time>2025-10-08T09:50:59.784+00:00</time>
      </trkpt>
      <trkpt lat="46.61206" lon="5.90121">
        <ele>885</ele>
        <time>2025-10-08T09:51:04.112+00:00</time>
      </trkpt>
      <trkpt lat="46.61205" lon="5.90123">
        <ele>885</ele>
        <time>2025-10-08T09:51:08.711+00:00</time>
      </trkpt>
      <trkpt lat="46.61202" lon="5.90126">
        <ele>887</ele>
        <time>2025-10-08T09:51:13.335+00:00</time>
      </trkpt>
      <trkpt lat="46.61201" lon="5.90126">
        <ele>887</ele>
        <time>2025-10-08T09:51:17.372+00:00</time>
      </trkpt>
      <trkpt lat="46.61197" lon="5.90127">
        <ele>887</ele>
        <time>2025-10-08T09:51:21.655+00:00</time>
      </trkpt>
      <trkpt lat="46.61191" lon="5.90127">
        <ele>887</ele>
        <time>2025-10-08T09:51:25.784+00:00</time>
      </trkpt>
      <trkpt lat="46.61188" lon="5.90126">
        <ele>887</ele>
        <time>2025-10-08T09:51:30.787+00:00</time>
      </trkpt>
      <trkpt lat="46.61184" lon="5.90122">
        <ele>885</ele>
        <time>2025-10-08T09:51:35.472+00:00</time>
      </trkpt>
      <trkpt lat="46.6118" lon="5.90122">
        <ele>874</ele>
        <time>2025-10-08T09:51:39.594+00:00</time>
      </trkpt>
      <trkpt lat="46.61176" lon="5.90123">
        <ele>874</ele>
        <time>2025-10-08T09:51:43.631+00:00</time>
      </trkpt>
      <trkpt lat="46.61174" lon="5.90126">
        <ele>879</ele>
        <time>2025-10-08T09:51:47.784+00:00</time>
      </trkpt>
      <trkpt lat="46.6117" lon="5.90126">
        <ele>879</ele>
        <time>2025-10-08T09:51:52.784+00:00</time>
      </trkpt>
      <trkpt lat="46.61166" lon="5.9013">
        <ele>879</ele>
        <time>2025-10-08T09:51:57.188+00:00</time>
      </trkpt>
      <trkpt lat="46.61164" lon="5.90134">
        <ele>879</ele>
        <time>2025-10-08T09:52:01.396+00:00</time>
      </trkpt>
      <trkpt lat="46.61162" lon="5.90138">
        <ele>879</ele>
        <time>2025-10-08T09:52:05.784+00:00</time>
      </trkpt>
      <trkpt lat="46.61155" lon="5.90137">
        <ele>879</ele>
        <time>2025-10-08T09:52:20.784+00:00</time>
      </trkpt>
      <trkpt lat="46.61153" lon="5.90137">
        <ele>879</ele>
        <time>2025-10-08T09:52:25.530+00:00</time>
      </trkpt>
      <trkpt lat="46.61152" lon="5.90137">
        <ele>872</ele>
        <time>2025-10-08T09:52:29.784+00:00</time>
      </trkpt>
      <trkpt lat="46.61152" lon="5.90134">
        <ele>872</ele>
        <time>2025-10-08T09:52:34.583+00:00</time>
      </trkpt>
      <trkpt lat="46.6115" lon="5.90132">
        <ele>872</ele>
        <time>2025-10-08T09:52:38.784+00:00</time>
      </trkpt>
      <trkpt lat="46.61148" lon="5.90131">
        <ele>872</ele>
        <time>2025-10-08T09:52:42.784+00:00</time>
      </trkpt>
      <trkpt lat="46.61149" lon="5.90132">
        <ele>872</ele>
        <time>2025-10-08T09:52:47.785+00:00</time>
      </trkpt>
      <trkpt lat="46.61151" lon="5.90132">
        <ele>872</ele>
        <time>2025-10-08T09:52:52.196+00:00</time>
      </trkpt>
      <trkpt lat="46.61153" lon="5.90131">
        <ele>879</ele>
        <time>2025-10-08T09:52:56.292+00:00</time>
      </trkpt>
      <trkpt lat="46.61157" lon="5.90128">
        <ele>879</ele>
        <time>2025-10-08T09:53:00.784+00:00</time>
      </trkpt>
      <trkpt lat="46.61157" lon="5.90121">
        <ele>874</ele>
        <time>2025-10-08T09:53:33.784+00:00</time>
      </trkpt>
      <trkpt lat="46.61157" lon="5.90118">
        <ele>874</ele>
        <time>2025-10-08T09:53:38.783+00:00</time>
      </trkpt>
      <trkpt lat="46.61158" lon="5.90113">
        <ele>874</ele>
        <time>2025-10-08T09:53:43.783+00:00</time>
      </trkpt>
      <trkpt lat="46.6116" lon="5.90112">
        <ele>874</ele>
        <time>2025-10-08T09:53:48.784+00:00</time>
      </trkpt>
      <trkpt lat="46.61161" lon="5.90105">
        <ele>874</ele>
        <time>2025-10-08T09:53:53.636+00:00</time>
      </trkpt>
      <trkpt lat="46.61161" lon="5.90098">
        <ele>874</ele>
        <time>2025-10-08T09:53:58.034+00:00</time>
      </trkpt>
      <trkpt lat="46.61158" lon="5.90095">
        <ele>871</ele>
        <time>2025-10-08T09:54:02.291+00:00</time>
      </trkpt>
      <trkpt lat="46.61157" lon="5.9009">
        <ele>871</ele>
        <time>2025-10-08T09:54:06.692+00:00</time>
      </trkpt>
      <trkpt lat="46.61156" lon="5.90088">
        <ele>871</ele>
        <time>2025-10-08T09:54:10.783+00:00</time>
      </trkpt>
      <trkpt lat="46.61156" lon="5.90086">
        <ele>871</ele>
        <time>2025-10-08T09:54:15.516+00:00</time>
      </trkpt>
      <trkpt lat="46.61153" lon="5.90084">
        <ele>861</ele>
        <time>2025-10-08T09:54:19.691+00:00</time>
      </trkpt>
      <trkpt lat="46.61151" lon="5.90084">
        <ele>861</ele>
        <time>2025-10-08T09:54:24.434+00:00</time>
      </trkpt>
      <trkpt lat="46.61148" lon="5.90089">
        <ele>861</ele>
        <time>2025-10-08T09:54:28.890+00:00</time>
      </trkpt>
      <trkpt lat="46.61146" lon="5.90096">
        <ele>861</ele>
        <time>2025-10-08T09:54:33.783+00:00</time>
      </trkpt>
      <trkpt lat="46.61142" lon="5.90112">
        <ele>865</ele>
        <time>2025-10-08T09:55:21.783+00:00</time>
      </trkpt>
      <trkpt lat="46.61142" lon="5.90112">
        <ele>865</ele>
        <time>2025-10-08T09:55:26.784+00:00</time>
      </trkpt>
      <trkpt lat="46.61142" lon="5.90112">
        <ele>865</ele>
        <time>2025-10-08T09:55:32.784+00:00</time>
      </trkpt>
      <trkpt lat="46.61142" lon="5.90112">
        <ele>865</ele>
        <time>2025-10-08T09:55:36.784+00:00</time>
      </trkpt>
      <trkpt lat="46.61141" lon="5.90112">
        <ele>865</ele>
        <time>2025-10-08T09:55:44.784+00:00</time>
      </trkpt>
      <trkpt lat="46.6114" lon="5.90106">
        <ele>865</ele>
        <time>2025-10-08T09:58:24.783+00:00</time>
      </trkpt>
      <trkpt lat="46.6114" lon="5.90106">
        <ele>865</ele>
        <time>2025-10-08T09:58:29.636+00:00</time>
      </trkpt>
      <trkpt lat="46.6114" lon="5.90106">
        <ele>865</ele>
        <time>2025-10-08T09:58:35.783+00:00</time>
      </trkpt>
      <trkpt lat="46.6114" lon="5.90106">
        <ele>865</ele>
        <time>2025-10-08T09:58:41.394+00:00</time>
      </trkpt>
      <trkpt lat="46.6114" lon="5.90098">
        <ele>865</ele>
        <time>2025-10-08T09:58:45.592+00:00</time>
      </trkpt>
      <trkpt lat="46.61139" lon="5.90089">
        <ele>861</ele>
        <time>2025-10-08T09:58:50.131+00:00</time>
      </trkpt>
      <trkpt lat="46.61137" lon="5.90083">
        <ele>861</ele>
        <time>2025-10-08T09:58:54.390+00:00</time>
      </trkpt>
      <trkpt lat="46.61137" lon="5.90075">
        <ele>861</ele>
        <time>2025-10-08T09:58:58.735+00:00</time>
      </trkpt>
      <trkpt lat="46.61136" lon="5.90066">
        <ele>857</ele>
        <time>2025-10-08T09:59:03.128+00:00</time>
      </trkpt>
      <trkpt lat="46.61136" lon="5.90058">
        <ele>857</ele>
        <time>2025-10-08T09:59:07.591+00:00</time>
      </trkpt>
      <trkpt lat="46.61137" lon="5.90052">
        <ele>857</ele>
        <time>2025-10-08T09:59:11.783+00:00</time>
      </trkpt>
      <trkpt lat="46.61138" lon="5.90045">
        <ele>857</ele>
        <time>2025-10-08T09:59:16.176+00:00</time>
      </trkpt>
      <trkpt lat="46.61138" lon="5.90037">
        <ele>851</ele>
        <time>2025-10-08T09:59:20.535+00:00</time>
      </trkpt>
      <trkpt lat="46.61139" lon="5.90031">
        <ele>851</ele>
        <time>2025-10-08T09:59:24.572+00:00</time>
      </trkpt>
      <trkpt lat="46.61142" lon="5.90026">
        <ele>851</ele>
        <time>2025-10-08T09:59:28.784+00:00</time>
      </trkpt>
      <trkpt lat="46.61144" lon="5.90019">
        <ele>851</ele>
        <time>2025-10-08T09:59:33.216+00:00</time>
      </trkpt>
      <trkpt lat="46.61145" lon="5.90012">
        <ele>847</ele>
        <time>2025-10-08T09:59:37.517+00:00</time>
      </trkpt>
      <trkpt lat="46.61145" lon="5.90005">
        <ele>847</ele>
        <time>2025-10-08T09:59:41.783+00:00</time>
      </trkpt>
      <trkpt lat="46.61146" lon="5.89997">
        <ele>847</ele>
        <time>2025-10-08T09:59:46.553+00:00</time>
      </trkpt>
      <trkpt lat="46.61149" lon="5.89989">
        <ele>847</ele>
        <time>2025-10-08T09:59:51.554+00:00</time>
      </trkpt>
      <trkpt lat="46.6115" lon="5.89982">
        <ele>845</ele>
        <time>2025-10-08T09:59:55.783+00:00</time>
      </trkpt>
      <trkpt lat="46.61152" lon="5.89974">
        <ele>845</ele>
        <time>2025-10-08T10:00:00.657+00:00</time>
      </trkpt>
      <trkpt lat="46.61154" lon="5.89966">
        <ele>855</ele>
        <time>2025-10-08T10:00:05.470+00:00</time>
      </trkpt>
      <trkpt lat="46.61155" lon="5.89959">
        <ele>855</ele>
        <time>2025-10-08T10:00:09.736+00:00</time>
      </trkpt>
      <trkpt lat="46.61157" lon="5.89952">
        <ele>851</ele>
        <time>2025-10-08T10:00:13.782+00:00</time>
      </trkpt>
      <trkpt lat="46.6116" lon="5.89945">
        <ele>851</ele>
        <time>2025-10-08T10:00:18.176+00:00</time>
      </trkpt>
      <trkpt lat="46.61162" lon="5.89938">
        <ele>851</ele>
        <time>2025-10-08T10:00:22.511+00:00</time>
      </trkpt>
      <trkpt lat="46.61163" lon="5.89931">
        <ele>851</ele>
        <time>2025-10-08T10:00:26.736+00:00</time>
      </trkpt>
      <trkpt lat="46.61163" lon="5.89925">
        <ele>844</ele>
        <time>2025-10-08T10:00:30.782+00:00</time>
      </trkpt>
      <trkpt lat="46.6116" lon="5.89909">
        <ele>844</ele>
        <time>2025-10-08T10:00:52.782+00:00</time>
      </trkpt>
      <trkpt lat="46.61161" lon="5.89908">
        <ele>844</ele>
        <time>2025-10-08T10:00:57.990+00:00</time>
      </trkpt>
      <trkpt lat="46.61163" lon="5.89901">
        <ele>837</ele>
        <time>2025-10-08T10:01:02.529+00:00</time>
      </trkpt>
      <trkpt lat="46.61166" lon="5.89895">
        <ele>837</ele>
        <time>2025-10-08T10:01:06.559+00:00</time>
      </trkpt>
      <trkpt lat="46.6117" lon="5.89891">
        <ele>837</ele>
        <time>2025-10-08T10:01:10.715+00:00</time>
      </trkpt>
      <trkpt lat="46.61175" lon="5.89887">
        <ele>837</ele>
        <time>2025-10-08T10:01:15.135+00:00</time>
      </trkpt>
      <trkpt lat="46.61179" lon="5.89882">
        <ele>837</ele>
        <time>2025-10-08T10:01:19.657+00:00</time>
      </trkpt>
      <trkpt lat="46.61183" lon="5.89877">
        <ele>846</ele>
        <time>2025-10-08T10:01:24.135+00:00</time>
      </trkpt>
      <trkpt lat="46.61187" lon="5.89874">
        <ele>838</ele>
        <time>2025-10-08T10:01:28.675+00:00</time>
      </trkpt>
      <trkpt lat="46.61191" lon="5.8987">
        <ele>838</ele>
        <time>2025-10-08T10:01:32.711+00:00</time>
      </trkpt>
      <trkpt lat="46.61194" lon="5.89867">
        <ele>838</ele>
        <time>2025-10-08T10:01:36.782+00:00</time>
      </trkpt>
      <trkpt lat="46.61194" lon="5.89865">
        <ele>838</ele>
        <time>2025-10-08T10:01:41.579+00:00</time>
      </trkpt>
      <trkpt lat="46.61198" lon="5.8986">
        <ele>838</ele>
        <time>2025-10-08T10:01:45.655+00:00</time>
      </trkpt>
      <trkpt lat="46.61202" lon="5.89855">
        <ele>838</ele>
        <time>2025-10-08T10:01:49.783+00:00</time>
      </trkpt>
      <trkpt lat="46.61206" lon="5.8985">
        <ele>838</ele>
        <time>2025-10-08T10:01:54.782+00:00</time>
      </trkpt>
      <trkpt lat="46.61209" lon="5.89846">
        <ele>834</ele>
        <time>2025-10-08T10:01:58.977+00:00</time>
      </trkpt>
      <trkpt lat="46.61213" lon="5.89842">
        <ele>834</ele>
        <time>2025-10-08T10:02:03.465+00:00</time>
      </trkpt>
      <trkpt lat="46.61217" lon="5.89837">
        <ele>834</ele>
        <time>2025-10-08T10:02:07.783+00:00</time>
      </trkpt>
      <trkpt lat="46.61221" lon="5.89833">
        <ele>834</ele>
        <time>2025-10-08T10:02:12.782+00:00</time>
      </trkpt>
      <trkpt lat="46.61225" lon="5.89829">
        <ele>834</ele>
        <time>2025-10-08T10:02:17.782+00:00</time>
      </trkpt>
      <trkpt lat="46.61228" lon="5.89826">
        <ele>834</ele>
        <time>2025-10-08T10:02:22.783+00:00</time>
      </trkpt>
      <trkpt lat="46.61233" lon="5.89825">
        <ele>834</ele>
        <time>2025-10-08T10:02:27.210+00:00</time>
      </trkpt>
      <trkpt lat="46.61236" lon="5.89821">
        <ele>834</ele>
        <time>2025-10-08T10:02:31.631+00:00</time>
      </trkpt>
      <trkpt lat="46.61239" lon="5.89818">
        <ele>829</ele>
        <time>2025-10-08T10:02:35.782+00:00</time>
      </trkpt>
      <trkpt lat="46.61243" lon="5.89813">
        <ele>829</ele>
        <time>2025-10-08T10:02:40.497+00:00</time>
      </trkpt>
      <trkpt lat="46.61247" lon="5.89808">
        <ele>829</ele>
        <time>2025-10-08T10:02:44.782+00:00</time>
      </trkpt>
      <trkpt lat="46.61251" lon="5.89803">
        <ele>829</ele>
        <time>2025-10-08T10:02:49.783+00:00</time>
      </trkpt>
      <trkpt lat="46.61254" lon="5.89797">
        <ele>829</ele>
        <time>2025-10-08T10:02:53.878+00:00</time>
      </trkpt>
      <trkpt lat="46.61257" lon="5.89793">
        <ele>829</ele>
        <time>2025-10-08T10:02:58.375+00:00</time>
      </trkpt>
      <trkpt lat="46.61261" lon="5.89789">
        <ele>820</ele>
        <time>2025-10-08T10:03:02.692+00:00</time>
      </trkpt>
      <trkpt lat="46.61267" lon="5.89786">
        <ele>824</ele>
        <time>2025-10-08T10:03:06.782+00:00</time>
      </trkpt>
      <trkpt lat="46.61271" lon="5.89783">
        <ele>824</ele>
        <time>2025-10-08T10:03:11.157+00:00</time>
      </trkpt>
      <trkpt lat="46.61276" lon="5.8978">
        <ele>824</ele>
        <time>2025-10-08T10:03:15.278+00:00</time>
      </trkpt>
      <trkpt lat="46.6128" lon="5.89777">
        <ele>824</ele>
        <time>2025-10-08T10:03:19.555+00:00</time>
      </trkpt>
      <trkpt lat="46.61285" lon="5.89775">
        <ele>824</ele>
        <time>2025-10-08T10:03:23.782+00:00</time>
      </trkpt>
      <trkpt lat="46.6129" lon="5.89771">
        <ele>824</ele>
        <time>2025-10-08T10:03:27.976+00:00</time>
      </trkpt>
      <trkpt lat="46.61295" lon="5.89768">
        <ele>829</ele>
        <time>2025-10-08T10:03:32.277+00:00</time>
      </trkpt>
      <trkpt lat="46.613" lon="5.89763">
        <ele>824</ele>
        <time>2025-10-08T10:03:36.517+00:00</time>
      </trkpt>
      <trkpt lat="46.61306" lon="5.89761">
        <ele>824</ele>
        <time>2025-10-08T10:03:40.782+00:00</time>
      </trkpt>
      <trkpt lat="46.61312" lon="5.89758">
        <ele>824</ele>
        <time>2025-10-08T10:03:45.657+00:00</time>
      </trkpt>
      <trkpt lat="46.61316" lon="5.89754">
        <ele>824</ele>
        <time>2025-10-08T10:03:49.692+00:00</time>
      </trkpt>
      <trkpt lat="46.6132" lon="5.89749">
        <ele>827</ele>
        <time>2025-10-08T10:03:53.782+00:00</time>
      </trkpt>
      <trkpt lat="46.61324" lon="5.89742">
        <ele>827</ele>
        <time>2025-10-08T10:03:58.652+00:00</time>
      </trkpt>
      <trkpt lat="46.61327" lon="5.89735">
        <ele>823</ele>
        <time>2025-10-08T10:04:02.783+00:00</time>
      </trkpt>
      <trkpt lat="46.6133" lon="5.89727">
        <ele>823</ele>
        <time>2025-10-08T10:04:07.577+00:00</time>
      </trkpt>
      <trkpt lat="46.61331" lon="5.8972">
        <ele>823</ele>
        <time>2025-10-08T10:04:11.783+00:00</time>
      </trkpt>
      <trkpt lat="46.61333" lon="5.89711">
        <ele>823</ele>
        <time>2025-10-08T10:04:16.418+00:00</time>
      </trkpt>
      <trkpt lat="46.61335" lon="5.89702">
        <ele>820</ele>
        <time>2025-10-08T10:04:21.436+00:00</time>
      </trkpt>
      <trkpt lat="46.61335" lon="5.89696">
        <ele>820</ele>
        <time>2025-10-08T10:04:25.695+00:00</time>
      </trkpt>
      <trkpt lat="46.61337" lon="5.89689">
        <ele>820</ele>
        <time>2025-10-08T10:04:29.782+00:00</time>
      </trkpt>
      <trkpt lat="46.6134" lon="5.89681">
        <ele>820</ele>
        <time>2025-10-08T10:04:34.212+00:00</time>
      </trkpt>
      <trkpt lat="46.61341" lon="5.89673">
        <ele>817</ele>
        <time>2025-10-08T10:04:38.537+00:00</time>
      </trkpt>
      <trkpt lat="46.61342" lon="5.89665">
        <ele>817</ele>
        <time>2025-10-08T10:04:42.782+00:00</time>
      </trkpt>
      <trkpt lat="46.61341" lon="5.89656">
        <ele>817</ele>
        <time>2025-10-08T10:04:47.497+00:00</time>
      </trkpt>
      <trkpt lat="46.61342" lon="5.89648">
        <ele>817</ele>
        <time>2025-10-08T10:04:51.782+00:00</time>
      </trkpt>
      <trkpt lat="46.6134" lon="5.89638">
        <ele>817</ele>
        <time>2025-10-08T10:04:56.398+00:00</time>
      </trkpt>
      <trkpt lat="46.61338" lon="5.89631">
        <ele>817</ele>
        <time>2025-10-08T10:05:00.783+00:00</time>
      </trkpt>
      <trkpt lat="46.61335" lon="5.89623">
        <ele>817</ele>
        <time>2025-10-08T10:05:05.239+00:00</time>
      </trkpt>
      <trkpt lat="46.61333" lon="5.89615">
        <ele>817</ele>
        <time>2025-10-08T10:05:09.777+00:00</time>
      </trkpt>
      <trkpt lat="46.61329" lon="5.89609">
        <ele>817</ele>
        <time>2025-10-08T10:05:14.395+00:00</time>
      </trkpt>
      <trkpt lat="46.61325" lon="5.89603">
        <ele>817</ele>
        <time>2025-10-08T10:05:19.036+00:00</time>
      </trkpt>
      <trkpt lat="46.61322" lon="5.89596">
        <ele>818</ele>
        <time>2025-10-08T10:05:23.575+00:00</time>
      </trkpt>
      <trkpt lat="46.61319" lon="5.89588">
        <ele>813</ele>
        <time>2025-10-08T10:05:28.074+00:00</time>
      </trkpt>
      <trkpt lat="46.61316" lon="5.89581">
        <ele>813</ele>
        <time>2025-10-08T10:05:32.477+00:00</time>
      </trkpt>
      <trkpt lat="46.61314" lon="5.89574">
        <ele>813</ele>
        <time>2025-10-08T10:05:36.796+00:00</time>
      </trkpt>
      <trkpt lat="46.6131" lon="5.89568">
        <ele>815</ele>
        <time>2025-10-08T10:05:41.231+00:00</time>
      </trkpt>
      <trkpt lat="46.61307" lon="5.89561">
        <ele>815</ele>
        <time>2025-10-08T10:05:45.651+00:00</time>
      </trkpt>
      <trkpt lat="46.61304" lon="5.89556">
        <ele>815</ele>
        <time>2025-10-08T10:05:49.799+00:00</time>
      </trkpt>
      <trkpt lat="46.61301" lon="5.8955">
        <ele>815</ele>
        <time>2025-10-08T10:05:54.192+00:00</time>
      </trkpt>
      <trkpt lat="46.61298" lon="5.89544">
        <ele>815</ele>
        <time>2025-10-08T10:05:58.392+00:00</time>
      </trkpt>
      <trkpt lat="46.61296" lon="5.89537">
        <ele>815</ele>
        <time>2025-10-08T10:06:02.632+00:00</time>
      </trkpt>
      <trkpt lat="46.61293" lon="5.8953">
        <ele>815</ele>
        <time>2025-10-08T10:06:07.112+00:00</time>
      </trkpt>
      <trkpt lat="46.61292" lon="5.89522">
        <ele>815</ele>
        <time>2025-10-08T10:06:11.558+00:00</time>
      </trkpt>
      <trkpt lat="46.61291" lon="5.89513">
        <ele>817</ele>
        <time>2025-10-08T10:06:16.099+00:00</time>
      </trkpt>
      <trkpt lat="46.6129" lon="5.89505">
        <ele>817</ele>
        <time>2025-10-08T10:06:20.331+00:00</time>
      </trkpt>
      <trkpt lat="46.6129" lon="5.89498">
        <ele>817</ele>
        <time>2025-10-08T10:06:24.782+00:00</time>
      </trkpt>
      <trkpt lat="46.61289" lon="5.8949">
        <ele>817</ele>
        <time>2025-10-08T10:06:29.782+00:00</time>
      </trkpt>
      <trkpt lat="46.61288" lon="5.89483">
        <ele>816</ele>
        <time>2025-10-08T10:06:34.436+00:00</time>
      </trkpt>
      <trkpt lat="46.61287" lon="5.89478">
        <ele>816</ele>
        <time>2025-10-08T10:06:39.256+00:00</time>
      </trkpt>
      <trkpt lat="46.61287" lon="5.89473">
        <ele>816</ele>
        <time>2025-10-08T10:06:43.294+00:00</time>
      </trkpt>
      <trkpt lat="46.61289" lon="5.8947">
        <ele>816</ele>
        <time>2025-10-08T10:06:47.781+00:00</time>
      </trkpt>
      <trkpt lat="46.61297" lon="5.8947">
        <ele>815</ele>
        <time>2025-10-08T10:07:56.782+00:00</time>
      </trkpt>
      <trkpt lat="46.61302" lon="5.8947">
        <ele>815</ele>
        <time>2025-10-08T10:08:00.781+00:00</time>
      </trkpt>
      <trkpt lat="46.61305" lon="5.89468">
        <ele>815</ele>
        <time>2025-10-08T10:08:05.068+00:00</time>
      </trkpt>
      <trkpt lat="46.61314" lon="5.89465">
        <ele>815</ele>
        <time>2025-10-08T10:08:09.233+00:00</time>
      </trkpt>
      <trkpt lat="46.61319" lon="5.89466">
        <ele>815</ele>
        <time>2025-10-08T10:08:13.782+00:00</time>
      </trkpt>
      <trkpt lat="46.61324" lon="5.89465">
        <ele>815</ele>
        <time>2025-10-08T10:08:18.655+00:00</time>
      </trkpt>
      <trkpt lat="46.61328" lon="5.89462">
        <ele>815</ele>
        <time>2025-10-08T10:08:22.781+00:00</time>
      </trkpt>
      <trkpt lat="46.61333" lon="5.89459">
        <ele>815</ele>
        <time>2025-10-08T10:08:27.409+00:00</time>
      </trkpt>
      <trkpt lat="46.61335" lon="5.89453">
        <ele>814</ele>
        <time>2025-10-08T10:08:31.781+00:00</time>
      </trkpt>
      <trkpt lat="46.61338" lon="5.89446">
        <ele>814</ele>
        <time>2025-10-08T10:08:36.428+00:00</time>
      </trkpt>
      <trkpt lat="46.61342" lon="5.8944">
        <ele>814</ele>
        <time>2025-10-08T10:08:40.900+00:00</time>
      </trkpt>
      <trkpt lat="46.61343" lon="5.89432">
        <ele>814</ele>
        <time>2025-10-08T10:08:45.373+00:00</time>
      </trkpt>
      <trkpt lat="46.61342" lon="5.89425">
        <ele>812</ele>
        <time>2025-10-08T10:08:49.737+00:00</time>
      </trkpt>
      <trkpt lat="46.6134" lon="5.89418">
        <ele>812</ele>
        <time>2025-10-08T10:08:53.782+00:00</time>
      </trkpt>
      <trkpt lat="46.61338" lon="5.89411">
        <ele>812</ele>
        <time>2025-10-08T10:08:58.781+00:00</time>
      </trkpt>
      <trkpt lat="46.61337" lon="5.89403">
        <ele>812</ele>
        <time>2025-10-08T10:09:03.308+00:00</time>
      </trkpt>
      <trkpt lat="46.61335" lon="5.89397">
        <ele>810</ele>
        <time>2025-10-08T10:09:07.628+00:00</time>
      </trkpt>
      <trkpt lat="46.61333" lon="5.8939">
        <ele>810</ele>
        <time>2025-10-08T10:09:12.192+00:00</time>
      </trkpt>
      <trkpt lat="46.61333" lon="5.89381">
        <ele>810</ele>
        <time>2025-10-08T10:09:16.570+00:00</time>
      </trkpt>
      <trkpt lat="46.61333" lon="5.89372">
        <ele>808</ele>
        <time>2025-10-08T10:09:21.186+00:00</time>
      </trkpt>
      <trkpt lat="46.61329" lon="5.89366">
        <ele>808</ele>
        <time>2025-10-08T10:09:25.472+00:00</time>
      </trkpt>
      <trkpt lat="46.61326" lon="5.89362">
        <ele>808</ele>
        <time>2025-10-08T10:09:29.711+00:00</time>
      </trkpt>
      <trkpt lat="46.61321" lon="5.89359">
        <ele>808</ele>
        <time>2025-10-08T10:09:34.711+00:00</time>
      </trkpt>
      <trkpt lat="46.61316" lon="5.89357">
        <ele>808</ele>
        <time>2025-10-08T10:09:38.781+00:00</time>
      </trkpt>
      <trkpt lat="46.61313" lon="5.89353">
        <ele>808</ele>
        <time>2025-10-08T10:09:42.817+00:00</time>
      </trkpt>
      <trkpt lat="46.61309" lon="5.89346">
        <ele>804</ele>
        <time>2025-10-08T10:09:47.781+00:00</time>
      </trkpt>
      <trkpt lat="46.61308" lon="5.89338">
        <ele>804</ele>
        <time>2025-10-08T10:09:52.051+00:00</time>
      </trkpt>
      <trkpt lat="46.61306" lon="5.8933">
        <ele>804</ele>
        <time>2025-10-08T10:09:56.532+00:00</time>
      </trkpt>
      <trkpt lat="46.61305" lon="5.89322">
        <ele>804</ele>
        <time>2025-10-08T10:10:00.781+00:00</time>
      </trkpt>
      <trkpt lat="46.61306" lon="5.89316">
        <ele>800</ele>
        <time>2025-10-08T10:10:05.373+00:00</time>
      </trkpt>
      <trkpt lat="46.61308" lon="5.8931">
        <ele>800</ele>
        <time>2025-10-08T10:10:09.781+00:00</time>
      </trkpt>
      <trkpt lat="46.61312" lon="5.89303">
        <ele>800</ele>
        <time>2025-10-08T10:10:14.691+00:00</time>
      </trkpt>
      <trkpt lat="46.61315" lon="5.89296">
        <ele>800</ele>
        <time>2025-10-08T10:10:19.350+00:00</time>
      </trkpt>
      <trkpt lat="46.61317" lon="5.89289">
        <ele>793</ele>
        <time>2025-10-08T10:10:23.770+00:00</time>
      </trkpt>
      <trkpt lat="46.6132" lon="5.89282">
        <ele>797</ele>
        <time>2025-10-08T10:10:28.074+00:00</time>
      </trkpt>
      <trkpt lat="46.61323" lon="5.89274">
        <ele>797</ele>
        <time>2025-10-08T10:10:32.671+00:00</time>
      </trkpt>
      <trkpt lat="46.61325" lon="5.89268">
        <ele>797</ele>
        <time>2025-10-08T10:10:36.749+00:00</time>
      </trkpt>
      <trkpt lat="46.61327" lon="5.89264">
        <ele>797</ele>
        <time>2025-10-08T10:10:41.051+00:00</time>
      </trkpt>
      <trkpt lat="46.6133" lon="5.8926">
        <ele>792</ele>
        <time>2025-10-08T10:10:45.172+00:00</time>
      </trkpt>
      <trkpt lat="46.61333" lon="5.89256">
        <ele>792</ele>
        <time>2025-10-08T10:10:49.697+00:00</time>
      </trkpt>
      <trkpt lat="46.61335" lon="5.89251">
        <ele>792</ele>
        <time>2025-10-08T10:10:53.782+00:00</time>
      </trkpt>
      <trkpt lat="46.61338" lon="5.89246">
        <ele>792</ele>
        <time>2025-10-08T10:11:06.781+00:00</time>
      </trkpt>
      <trkpt lat="46.6134" lon="5.89243">
        <ele>792</ele>
        <time>2025-10-08T10:11:11.055+00:00</time>
      </trkpt>
      <trkpt lat="46.61343" lon="5.89236">
        <ele>787</ele>
        <time>2025-10-08T10:11:15.236+00:00</time>
      </trkpt>
      <trkpt lat="46.61347" lon="5.89231">
        <ele>787</ele>
        <time>2025-10-08T10:11:19.511+00:00</time>
      </trkpt>
      <trkpt lat="46.61351" lon="5.89225">
        <ele>792</ele>
        <time>2025-10-08T10:11:24.529+00:00</time>
      </trkpt>
      <trkpt lat="46.61355" lon="5.89221">
        <ele>792</ele>
        <time>2025-10-08T10:11:28.800+00:00</time>
      </trkpt>
      <trkpt lat="46.61359" lon="5.89217">
        <ele>792</ele>
        <time>2025-10-08T10:11:33.191+00:00</time>
      </trkpt>
      <trkpt lat="46.61363" lon="5.89213">
        <ele>792</ele>
        <time>2025-10-08T10:11:37.551+00:00</time>
      </trkpt>
      <trkpt lat="46.61367" lon="5.89209">
        <ele>792</ele>
        <time>2025-10-08T10:11:41.782+00:00</time>
      </trkpt>
      <trkpt lat="46.61371" lon="5.89205">
        <ele>788</ele>
        <time>2025-10-08T10:11:46.575+00:00</time>
      </trkpt>
      <trkpt lat="46.61377" lon="5.89202">
        <ele>792</ele>
        <time>2025-10-08T10:11:51.652+00:00</time>
      </trkpt>
      <trkpt lat="46.61381" lon="5.89197">
        <ele>792</ele>
        <time>2025-10-08T10:11:56.299+00:00</time>
      </trkpt>
      <trkpt lat="46.61385" lon="5.89194">
        <ele>792</ele>
        <time>2025-10-08T10:12:00.781+00:00</time>
      </trkpt>
      <trkpt lat="46.61389" lon="5.8919">
        <ele>792</ele>
        <time>2025-10-08T10:12:05.798+00:00</time>
      </trkpt>
      <trkpt lat="46.61393" lon="5.89185">
        <ele>792</ele>
        <time>2025-10-08T10:12:10.417+00:00</time>
      </trkpt>
      <trkpt lat="46.61396" lon="5.89179">
        <ele>787</ele>
        <time>2025-10-08T10:12:14.633+00:00</time>
      </trkpt>
      <trkpt lat="46.614" lon="5.89176">
        <ele>787</ele>
        <time>2025-10-08T10:12:18.781+00:00</time>
      </trkpt>
      <trkpt lat="46.61404" lon="5.89172">
        <ele>790</ele>
        <time>2025-10-08T10:12:23.120+00:00</time>
      </trkpt>
      <trkpt lat="46.61408" lon="5.89169">
        <ele>790</ele>
        <time>2025-10-08T10:12:27.455+00:00</time>
      </trkpt>
      <trkpt lat="46.61412" lon="5.89168">
        <ele>790</ele>
        <time>2025-10-08T10:12:31.781+00:00</time>
      </trkpt>
      <trkpt lat="46.61413" lon="5.89168">
        <ele>790</ele>
        <time>2025-10-08T10:12:36.781+00:00</time>
      </trkpt>
      <trkpt lat="46.61414" lon="5.89161">
        <ele>790</ele>
        <time>2025-10-08T10:12:54.356+00:00</time>
      </trkpt>
      <trkpt lat="46.61419" lon="5.89163">
        <ele>790</ele>
        <time>2025-10-08T10:12:58.538+00:00</time>
      </trkpt>
      <trkpt lat="46.61424" lon="5.89161">
        <ele>790</ele>
        <time>2025-10-08T10:13:02.780+00:00</time>
      </trkpt>
      <trkpt lat="46.61426" lon="5.89155">
        <ele>790</ele>
        <time>2025-10-08T10:13:07.780+00:00</time>
      </trkpt>
      <trkpt lat="46.61429" lon="5.89154">
        <ele>790</ele>
        <time>2025-10-08T10:13:12.781+00:00</time>
      </trkpt>
      <trkpt lat="46.61433" lon="5.89155">
        <ele>791</ele>
        <time>2025-10-08T10:13:17.459+00:00</time>
      </trkpt>
      <trkpt lat="46.61438" lon="5.89154">
        <ele>791</ele>
        <time>2025-10-08T10:13:22.175+00:00</time>
      </trkpt>
      <trkpt lat="46.61443" lon="5.89153">
        <ele>791</ele>
        <time>2025-10-08T10:13:26.399+00:00</time>
      </trkpt>
      <trkpt lat="46.61447" lon="5.89151">
        <ele>786</ele>
        <time>2025-10-08T10:13:30.512+00:00</time>
      </trkpt>
      <trkpt lat="46.61452" lon="5.8915">
        <ele>786</ele>
        <time>2025-10-08T10:13:34.592+00:00</time>
      </trkpt>
      <trkpt lat="46.61456" lon="5.8915">
        <ele>786</ele>
        <time>2025-10-08T10:13:38.780+00:00</time>
      </trkpt>
      <trkpt lat="46.61462" lon="5.8915">
        <ele>783</ele>
        <time>2025-10-08T10:13:43.555+00:00</time>
      </trkpt>
      <trkpt lat="46.61466" lon="5.89149">
        <ele>783</ele>
        <time>2025-10-08T10:13:47.780+00:00</time>
      </trkpt>
      <trkpt lat="46.61472" lon="5.89148">
        <ele>783</ele>
        <time>2025-10-08T10:13:52.231+00:00</time>
      </trkpt>
      <trkpt lat="46.61477" lon="5.89146">
        <ele>783</ele>
        <time>2025-10-08T10:13:56.780+00:00</time>
      </trkpt>
      <trkpt lat="46.61483" lon="5.89144">
        <ele>783</ele>
        <time>2025-10-08T10:14:01.117+00:00</time>
      </trkpt>
      <trkpt lat="46.61489" lon="5.89142">
        <ele>781</ele>
        <time>2025-10-08T10:14:05.575+00:00</time>
      </trkpt>
      <trkpt lat="46.61495" lon="5.89142">
        <ele>781</ele>
        <time>2025-10-08T10:14:10.739+00:00</time>
      </trkpt>
      <trkpt lat="46.615" lon="5.89141">
        <ele>781</ele>
        <time>2025-10-08T10:14:15.800+00:00</time>
      </trkpt>
      <trkpt lat="46.61505" lon="5.89138">
        <ele>781</ele>
        <time>2025-10-08T10:14:20.441+00:00</time>
      </trkpt>
      <trkpt lat="46.61509" lon="5.89135">
        <ele>781</ele>
        <time>2025-10-08T10:14:24.660+00:00</time>
      </trkpt>
      <trkpt lat="46.61513" lon="5.89131">
        <ele>781</ele>
        <time>2025-10-08T10:14:28.780+00:00</time>
      </trkpt>
      <trkpt lat="46.61516" lon="5.89125">
        <ele>780</ele>
        <time>2025-10-08T10:14:33.780+00:00</time>
      </trkpt>
      <trkpt lat="46.61519" lon="5.89116">
        <ele>780</ele>
        <time>2025-10-08T10:14:38.780+00:00</time>
      </trkpt>
      <trkpt lat="46.6152" lon="5.8911">
        <ele>780</ele>
        <time>2025-10-08T10:14:43.058+00:00</time>
      </trkpt>
      <trkpt lat="46.61519" lon="5.89104">
        <ele>780</ele>
        <time>2025-10-08T10:14:47.780+00:00</time>
      </trkpt>
      <trkpt lat="46.61517" lon="5.89098">
        <ele>780</ele>
        <time>2025-10-08T10:14:52.625+00:00</time>
      </trkpt>
      <trkpt lat="46.61513" lon="5.89094">
        <ele>779</ele>
        <time>2025-10-08T10:14:56.780+00:00</time>
      </trkpt>
      <trkpt lat="46.6151" lon="5.89088">
        <ele>779</ele>
        <time>2025-10-08T10:15:01.780+00:00</time>
      </trkpt>
      <trkpt lat="46.61505" lon="5.89083">
        <ele>779</ele>
        <time>2025-10-08T10:15:06.452+00:00</time>
      </trkpt>
      <trkpt lat="46.61501" lon="5.8908">
        <ele>779</ele>
        <time>2025-10-08T10:15:10.780+00:00</time>
      </trkpt>
      <trkpt lat="46.61496" lon="5.89082">
        <ele>779</ele>
        <time>2025-10-08T10:15:14.965+00:00</time>
      </trkpt>
      <trkpt lat="46.61492" lon="5.89079">
        <ele>779</ele>
        <time>2025-10-08T10:15:19.241+00:00</time>
      </trkpt>
      <trkpt lat="46.61488" lon="5.89073">
        <ele>779</ele>
        <time>2025-10-08T10:15:23.737+00:00</time>
      </trkpt>
      <trkpt lat="46.61484" lon="5.89068">
        <ele>779</ele>
        <time>2025-10-08T10:15:27.780+00:00</time>
      </trkpt>
      <trkpt lat="46.61479" lon="5.89063">
        <ele>779</ele>
        <time>2025-10-08T10:15:32.437+00:00</time>
      </trkpt>
      <trkpt lat="46.61474" lon="5.89057">
        <ele>779</ele>
        <time>2025-10-08T10:15:37.459+00:00</time>
      </trkpt>
      <trkpt lat="46.6147" lon="5.89051">
        <ele>779</ele>
        <time>2025-10-08T10:15:41.780+00:00</time>
      </trkpt>
      <trkpt lat="46.61465" lon="5.89046">
        <ele>779</ele>
        <time>2025-10-08T10:15:46.078+00:00</time>
      </trkpt>
      <trkpt lat="46.61461" lon="5.89041">
        <ele>781</ele>
        <time>2025-10-08T10:15:50.319+00:00</time>
      </trkpt>
      <trkpt lat="46.61457" lon="5.89035">
        <ele>778</ele>
        <time>2025-10-08T10:15:54.662+00:00</time>
      </trkpt>
      <trkpt lat="46.61453" lon="5.89029">
        <ele>778</ele>
        <time>2025-10-08T10:15:58.781+00:00</time>
      </trkpt>
      <trkpt lat="46.61449" lon="5.89022">
        <ele>778</ele>
        <time>2025-10-08T10:16:03.239+00:00</time>
      </trkpt>
      <trkpt lat="46.61446" lon="5.89015">
        <ele>778</ele>
        <time>2025-10-08T10:16:07.578+00:00</time>
      </trkpt>
      <trkpt lat="46.61443" lon="5.89008">
        <ele>777</ele>
        <time>2025-10-08T10:16:11.780+00:00</time>
      </trkpt>
      <trkpt lat="46.6144" lon="5.89">
        <ele>777</ele>
        <time>2025-10-08T10:16:16.035+00:00</time>
      </trkpt>
      <trkpt lat="46.61437" lon="5.88993">
        <ele>777</ele>
        <time>2025-10-08T10:16:20.216+00:00</time>
      </trkpt>
      <trkpt lat="46.61433" lon="5.88986">
        <ele>776</ele>
        <time>2025-10-08T10:16:24.594+00:00</time>
      </trkpt>
      <trkpt lat="46.61431" lon="5.88978">
        <ele>776</ele>
        <time>2025-10-08T10:16:28.741+00:00</time>
      </trkpt>
      <trkpt lat="46.61431" lon="5.8897">
        <ele>776</ele>
        <time>2025-10-08T10:16:32.780+00:00</time>
      </trkpt>
      <trkpt lat="46.61431" lon="5.88961">
        <ele>776</ele>
        <time>2025-10-08T10:16:37.565+00:00</time>
      </trkpt>
      <trkpt lat="46.61431" lon="5.88952">
        <ele>777</ele>
        <time>2025-10-08T10:16:41.780+00:00</time>
      </trkpt>
      <trkpt lat="46.61431" lon="5.88944">
        <ele>777</ele>
        <time>2025-10-08T10:16:46.200+00:00</time>
      </trkpt>
      <trkpt lat="46.61431" lon="5.88936">
        <ele>777</ele>
        <time>2025-10-08T10:16:50.427+00:00</time>
      </trkpt>
      <trkpt lat="46.61431" lon="5.88928">
        <ele>778</ele>
        <time>2025-10-08T10:16:54.666+00:00</time>
      </trkpt>
      <trkpt lat="46.61431" lon="5.88919">
        <ele>778</ele>
        <time>2025-10-08T10:16:58.781+00:00</time>
      </trkpt>
      <trkpt lat="46.61431" lon="5.8891">
        <ele>778</ele>
        <time>2025-10-08T10:17:03.405+00:00</time>
      </trkpt>
      <trkpt lat="46.61431" lon="5.88901">
        <ele>776</ele>
        <time>2025-10-08T10:17:07.780+00:00</time>
      </trkpt>
      <trkpt lat="46.61431" lon="5.88892">
        <ele>776</ele>
        <time>2025-10-08T10:17:12.564+00:00</time>
      </trkpt>
      <trkpt lat="46.61432" lon="5.88883">
        <ele>776</ele>
        <time>2025-10-08T10:17:16.746+00:00</time>
      </trkpt>
      <trkpt lat="46.61432" lon="5.88874">
        <ele>773</ele>
        <time>2025-10-08T10:17:20.780+00:00</time>
      </trkpt>
      <trkpt lat="46.61432" lon="5.88866">
        <ele>773</ele>
        <time>2025-10-08T10:17:25.153+00:00</time>
      </trkpt>
      <trkpt lat="46.61433" lon="5.88858">
        <ele>773</ele>
        <time>2025-10-08T10:17:29.248+00:00</time>
      </trkpt>
      <trkpt lat="46.61434" lon="5.8885">
        <ele>773</ele>
        <time>2025-10-08T10:17:33.567+00:00</time>
      </trkpt>
      <trkpt lat="46.61436" lon="5.88841">
        <ele>770</ele>
        <time>2025-10-08T10:17:37.791+00:00</time>
      </trkpt>
      <trkpt lat="46.61437" lon="5.88833">
        <ele>770</ele>
        <time>2025-10-08T10:17:41.989+00:00</time>
      </trkpt>
      <trkpt lat="46.61438" lon="5.88824">
        <ele>770</ele>
        <time>2025-10-08T10:17:46.232+00:00</time>
      </trkpt>
      <trkpt lat="46.61439" lon="5.88816">
        <ele>769</ele>
        <time>2025-10-08T10:17:50.430+00:00</time>
      </trkpt>
      <trkpt lat="46.61441" lon="5.88808">
        <ele>769</ele>
        <time>2025-10-08T10:17:54.568+00:00</time>
      </trkpt>
      <trkpt lat="46.61442" lon="5.888">
        <ele>769</ele>
        <time>2025-10-08T10:17:58.786+00:00</time>
      </trkpt>
      <trkpt lat="46.61443" lon="5.8879">
        <ele>767</ele>
        <time>2025-10-08T10:18:03.367+00:00</time>
      </trkpt>
      <trkpt lat="46.61444" lon="5.88782">
        <ele>767</ele>
        <time>2025-10-08T10:18:07.488+00:00</time>
      </trkpt>
      <trkpt lat="46.61446" lon="5.88773">
        <ele>767</ele>
        <time>2025-10-08T10:18:11.780+00:00</time>
      </trkpt>
      <trkpt lat="46.61446" lon="5.88766">
        <ele>767</ele>
        <time>2025-10-08T10:18:15.780+00:00</time>
      </trkpt>
      <trkpt lat="46.61447" lon="5.88758">
        <ele>768</ele>
        <time>2025-10-08T10:18:20.230+00:00</time>
      </trkpt>
      <trkpt lat="46.61449" lon="5.88751">
        <ele>768</ele>
        <time>2025-10-08T10:18:24.367+00:00</time>
      </trkpt>
      <trkpt lat="46.6145" lon="5.88743">
        <ele>768</ele>
        <time>2025-10-08T10:18:28.533+00:00</time>
      </trkpt>
      <trkpt lat="46.61451" lon="5.88734">
        <ele>768</ele>
        <time>2025-10-08T10:18:32.780+00:00</time>
      </trkpt>
      <trkpt lat="46.61452" lon="5.88726">
        <ele>768</ele>
        <time>2025-10-08T10:18:37.126+00:00</time>
      </trkpt>
      <trkpt lat="46.61454" lon="5.88718">
        <ele>768</ele>
        <time>2025-10-08T10:18:41.327+00:00</time>
      </trkpt>
      <trkpt lat="46.61456" lon="5.88711">
        <ele>768</ele>
        <time>2025-10-08T10:18:45.044+00:00</time>
      </trkpt>
      <trkpt lat="46.61458" lon="5.88695">
        <ele>768</ele>
        <time>2025-10-08T10:18:54.779+00:00</time>
      </trkpt>
      <trkpt lat="46.61459" lon="5.88686">
        <ele>767</ele>
        <time>2025-10-08T10:18:58.779+00:00</time>
      </trkpt>
      <trkpt lat="46.61461" lon="5.88677">
        <ele>768</ele>
        <time>2025-10-08T10:19:03.209+00:00</time>
      </trkpt>
      <trkpt lat="46.61462" lon="5.88669">
        <ele>768</ele>
        <time>2025-10-08T10:19:07.546+00:00</time>
      </trkpt>
      <trkpt lat="46.61466" lon="5.88664">
        <ele>768</ele>
        <time>2025-10-08T10:19:11.786+00:00</time>
      </trkpt>
      <trkpt lat="46.61474" lon="5.88666">
        <ele>768</ele>
        <time>2025-10-08T10:19:16.779+00:00</time>
      </trkpt>
      <trkpt lat="46.61475" lon="5.88665">
        <ele>768</ele>
        <time>2025-10-08T10:19:18.779+00:00</time>
      </trkpt>
      <trkpt lat="46.61477" lon="5.88665">
        <ele>768</ele>
        <time>2025-10-08T10:19:27.779+00:00</time>
      </trkpt>
      <trkpt lat="46.61478" lon="5.88663">
        <ele>768</ele>
        <time>2025-10-08T10:19:32.447+00:00</time>
      </trkpt>
      <trkpt lat="46.61478" lon="5.88655">
        <ele>768</ele>
        <time>2025-10-08T10:19:36.673+00:00</time>
      </trkpt>
      <trkpt lat="46.61472" lon="5.88643">
        <ele>770</ele>
        <time>2025-10-08T10:19:41.779+00:00</time>
      </trkpt>
      <trkpt lat="46.6147" lon="5.88634">
        <ele>770</ele>
        <time>2025-10-08T10:19:46.207+00:00</time>
      </trkpt>
      <trkpt lat="46.61471" lon="5.88626">
        <ele>770</ele>
        <time>2025-10-08T10:19:50.387+00:00</time>
      </trkpt>
      <trkpt lat="46.61474" lon="5.88619">
        <ele>771</ele>
        <time>2025-10-08T10:19:54.586+00:00</time>
      </trkpt>
      <trkpt lat="46.61476" lon="5.88611">
        <ele>771</ele>
        <time>2025-10-08T10:19:58.779+00:00</time>
      </trkpt>
      <trkpt lat="46.61477" lon="5.88602">
        <ele>771</ele>
        <time>2025-10-08T10:20:03.172+00:00</time>
      </trkpt>
      <trkpt lat="46.61479" lon="5.88594">
        <ele>770</ele>
        <time>2025-10-08T10:20:07.472+00:00</time>
      </trkpt>
      <trkpt lat="46.6148" lon="5.88586">
        <ele>770</ele>
        <time>2025-10-08T10:20:11.750+00:00</time>
      </trkpt>
      <trkpt lat="46.61482" lon="5.88578">
        <ele>770</ele>
        <time>2025-10-08T10:20:15.780+00:00</time>
      </trkpt>
      <trkpt lat="46.61484" lon="5.88569">
        <ele>767</ele>
        <time>2025-10-08T10:20:20.368+00:00</time>
      </trkpt>
      <trkpt lat="46.61481" lon="5.88561">
        <ele>767</ele>
        <time>2025-10-08T10:23:12.779+00:00</time>
      </trkpt>
      <trkpt lat="46.6148" lon="5.88559">
        <ele>767</ele>
        <time>2025-10-08T10:23:17.359+00:00</time>
      </trkpt>
      <trkpt lat="46.61477" lon="5.88556">
        <ele>767</ele>
        <time>2025-10-08T10:23:21.779+00:00</time>
      </trkpt>
      <trkpt lat="46.61474" lon="5.88556">
        <ele>767</ele>
        <time>2025-10-08T10:23:25.780+00:00</time>
      </trkpt>
      <trkpt lat="46.61471" lon="5.88553">
        <ele>767</ele>
        <time>2025-10-08T10:23:30.227+00:00</time>
      </trkpt>
      <trkpt lat="46.61466" lon="5.88552">
        <ele>767</ele>
        <time>2025-10-08T10:23:34.779+00:00</time>
      </trkpt>
      <trkpt lat="46.61463" lon="5.88547">
        <ele>767</ele>
        <time>2025-10-08T10:23:39.012+00:00</time>
      </trkpt>
      <trkpt lat="46.61461" lon="5.88542">
        <ele>767</ele>
        <time>2025-10-08T10:23:43.252+00:00</time>
      </trkpt>
      <trkpt lat="46.61458" lon="5.88539">
        <ele>767</ele>
        <time>2025-10-08T10:23:47.779+00:00</time>
      </trkpt>
      <trkpt lat="46.61455" lon="5.88536">
        <ele>767</ele>
        <time>2025-10-08T10:23:51.989+00:00</time>
      </trkpt>
      <trkpt lat="46.6145" lon="5.88535">
        <ele>767</ele>
        <time>2025-10-08T10:23:56.409+00:00</time>
      </trkpt>
      <trkpt lat="46.61445" lon="5.88535">
        <ele>767</ele>
        <time>2025-10-08T10:24:00.856+00:00</time>
      </trkpt>
      <trkpt lat="46.6144" lon="5.88534">
        <ele>767</ele>
        <time>2025-10-08T10:24:05.175+00:00</time>
      </trkpt>
      <trkpt lat="46.61436" lon="5.88533">
        <ele>767</ele>
        <time>2025-10-08T10:24:09.210+00:00</time>
      </trkpt>
      <trkpt lat="46.61431" lon="5.88534">
        <ele>767</ele>
        <time>2025-10-08T10:24:13.489+00:00</time>
      </trkpt>
      <trkpt lat="46.61427" lon="5.88535">
        <ele>770</ele>
        <time>2025-10-08T10:24:17.526+00:00</time>
      </trkpt>
      <trkpt lat="46.61423" lon="5.88535">
        <ele>770</ele>
        <time>2025-10-08T10:24:21.779+00:00</time>
      </trkpt>
      <trkpt lat="46.61418" lon="5.88535">
        <ele>770</ele>
        <time>2025-10-08T10:24:25.816+00:00</time>
      </trkpt>
      <trkpt lat="46.61413" lon="5.88535">
        <ele>770</ele>
        <time>2025-10-08T10:24:30.330+00:00</time>
      </trkpt>
      <trkpt lat="46.61409" lon="5.88531">
        <ele>770</ele>
        <time>2025-10-08T10:24:34.712+00:00</time>
      </trkpt>
      <trkpt lat="46.61405" lon="5.88527">
        <ele>770</ele>
        <time>2025-10-08T10:24:39.371+00:00</time>
      </trkpt>
      <trkpt lat="46.61402" lon="5.88522">
        <ele>769</ele>
        <time>2025-10-08T10:24:43.527+00:00</time>
      </trkpt>
      <trkpt lat="46.61398" lon="5.88517">
        <ele>769</ele>
        <time>2025-10-08T10:24:47.779+00:00</time>
      </trkpt>
      <trkpt lat="46.61395" lon="5.88511">
        <ele>764</ele>
        <time>2025-10-08T10:24:51.872+00:00</time>
      </trkpt>
      <trkpt lat="46.61392" lon="5.88506">
        <ele>764</ele>
        <time>2025-10-08T10:24:56.326+00:00</time>
      </trkpt>
      <trkpt lat="46.61389" lon="5.88501">
        <ele>764</ele>
        <time>2025-10-08T10:25:01.013+00:00</time>
      </trkpt>
      <trkpt lat="46.61385" lon="5.88496">
        <ele>764</ele>
        <time>2025-10-08T10:25:05.192+00:00</time>
      </trkpt>
      <trkpt lat="46.61381" lon="5.88491">
        <ele>764</ele>
        <time>2025-10-08T10:25:09.428+00:00</time>
      </trkpt>
      <trkpt lat="46.61377" lon="5.88487">
        <ele>764</ele>
        <time>2025-10-08T10:25:14.115+00:00</time>
      </trkpt>
      <trkpt lat="46.61373" lon="5.88483">
        <ele>757</ele>
        <time>2025-10-08T10:25:18.778+00:00</time>
      </trkpt>
      <trkpt lat="46.61369" lon="5.8848">
        <ele>757</ele>
        <time>2025-10-08T10:25:22.932+00:00</time>
      </trkpt>
      <trkpt lat="46.61364" lon="5.88477">
        <ele>757</ele>
        <time>2025-10-08T10:25:27.285+00:00</time>
      </trkpt>
      <trkpt lat="46.61358" lon="5.88474">
        <ele>757</ele>
        <time>2025-10-08T10:25:31.778+00:00</time>
      </trkpt>
      <trkpt lat="46.61354" lon="5.88471">
        <ele>757</ele>
        <time>2025-10-08T10:25:36.038+00:00</time>
      </trkpt>
      <trkpt lat="46.6135" lon="5.8847">
        <ele>757</ele>
        <time>2025-10-08T10:25:40.427+00:00</time>
      </trkpt>
      <trkpt lat="46.61344" lon="5.88471">
        <ele>759</ele>
        <time>2025-10-08T10:25:45.171+00:00</time>
      </trkpt>
      <trkpt lat="46.61339" lon="5.88472">
        <ele>759</ele>
        <time>2025-10-08T10:25:49.778+00:00</time>
      </trkpt>
      <trkpt lat="46.61334" lon="5.88472">
        <ele>759</ele>
        <time>2025-10-08T10:25:53.956+00:00</time>
      </trkpt>
      <trkpt lat="46.61329" lon="5.88472">
        <ele>759</ele>
        <time>2025-10-08T10:25:58.291+00:00</time>
      </trkpt>
      <trkpt lat="46.61325" lon="5.8847">
        <ele>759</ele>
        <time>2025-10-08T10:26:02.548+00:00</time>
      </trkpt>
      <trkpt lat="46.61321" lon="5.88469">
        <ele>759</ele>
        <time>2025-10-08T10:26:06.778+00:00</time>
      </trkpt>
      <trkpt lat="46.61317" lon="5.88466">
        <ele>764</ele>
        <time>2025-10-08T10:26:11.146+00:00</time>
      </trkpt>
      <trkpt lat="46.61313" lon="5.88461">
        <ele>764</ele>
        <time>2025-10-08T10:26:15.511+00:00</time>
      </trkpt>
      <trkpt lat="46.61309" lon="5.88457">
        <ele>758</ele>
        <time>2025-10-08T10:26:19.530+00:00</time>
      </trkpt>
      <trkpt lat="46.61305" lon="5.88453">
        <ele>758</ele>
        <time>2025-10-08T10:26:23.691+00:00</time>
      </trkpt>
      <trkpt lat="46.61302" lon="5.88448">
        <ele>758</ele>
        <time>2025-10-08T10:26:27.778+00:00</time>
      </trkpt>
      <trkpt lat="46.61298" lon="5.88445">
        <ele>758</ele>
        <time>2025-10-08T10:26:31.902+00:00</time>
      </trkpt>
      <trkpt lat="46.61294" lon="5.88442">
        <ele>758</ele>
        <time>2025-10-08T10:26:36.078+00:00</time>
      </trkpt>
      <trkpt lat="46.61289" lon="5.88439">
        <ele>765</ele>
        <time>2025-10-08T10:26:40.455+00:00</time>
      </trkpt>
      <trkpt lat="46.61286" lon="5.88434">
        <ele>765</ele>
        <time>2025-10-08T10:26:44.778+00:00</time>
      </trkpt>
      <trkpt lat="46.61283" lon="5.88429">
        <ele>757</ele>
        <time>2025-10-08T10:26:49.431+00:00</time>
      </trkpt>
      <trkpt lat="46.6128" lon="5.88425">
        <ele>757</ele>
        <time>2025-10-08T10:26:53.778+00:00</time>
      </trkpt>
      <trkpt lat="46.61277" lon="5.88418">
        <ele>757</ele>
        <time>2025-10-08T10:26:58.512+00:00</time>
      </trkpt>
      <trkpt lat="46.61273" lon="5.88413">
        <ele>757</ele>
        <time>2025-10-08T10:27:02.569+00:00</time>
      </trkpt>
      <trkpt lat="46.61269" lon="5.88409">
        <ele>757</ele>
        <time>2025-10-08T10:27:06.778+00:00</time>
      </trkpt>
      <trkpt lat="46.61265" lon="5.88404">
        <ele>757</ele>
        <time>2025-10-08T10:27:11.512+00:00</time>
      </trkpt>
      <trkpt lat="46.6126" lon="5.88402">
        <ele>750</ele>
        <time>2025-10-08T10:27:15.591+00:00</time>
      </trkpt>
      <trkpt lat="46.61255" lon="5.88399">
        <ele>750</ele>
        <time>2025-10-08T10:27:19.778+00:00</time>
      </trkpt>
      <trkpt lat="46.6125" lon="5.88398">
        <ele>750</ele>
        <time>2025-10-08T10:27:24.377+00:00</time>
      </trkpt>
      <trkpt lat="46.61246" lon="5.88395">
        <ele>750</ele>
        <time>2025-10-08T10:27:28.396+00:00</time>
      </trkpt>
      <trkpt lat="46.61241" lon="5.88392">
        <ele>750</ele>
        <time>2025-10-08T10:27:32.531+00:00</time>
      </trkpt>
      <trkpt lat="46.61237" lon="5.88388">
        <ele>750</ele>
        <time>2025-10-08T10:27:36.779+00:00</time>
      </trkpt>
      <trkpt lat="46.61233" lon="5.88384">
        <ele>752</ele>
        <time>2025-10-08T10:27:41.778+00:00</time>
      </trkpt>
      <trkpt lat="46.61229" lon="5.88378">
        <ele>752</ele>
        <time>2025-10-08T10:27:46.252+00:00</time>
      </trkpt>
      <trkpt lat="46.61226" lon="5.88372">
        <ele>742</ele>
        <time>2025-10-08T10:27:50.786+00:00</time>
      </trkpt>
      <trkpt lat="46.61222" lon="5.88368">
        <ele>742</ele>
        <time>2025-10-08T10:27:54.779+00:00</time>
      </trkpt>
      <trkpt lat="46.61217" lon="5.88363">
        <ele>742</ele>
        <time>2025-10-08T10:27:59.778+00:00</time>
      </trkpt>
      <trkpt lat="46.61212" lon="5.88359">
        <ele>742</ele>
        <time>2025-10-08T10:28:04.424+00:00</time>
      </trkpt>
      <trkpt lat="46.61208" lon="5.88356">
        <ele>742</ele>
        <time>2025-10-08T10:28:08.928+00:00</time>
      </trkpt>
      <trkpt lat="46.61203" lon="5.88357">
        <ele>742</ele>
        <time>2025-10-08T10:28:13.187+00:00</time>
      </trkpt>
      <trkpt lat="46.612" lon="5.88357">
        <ele>742</ele>
        <time>2025-10-08T10:28:15.779+00:00</time>
      </trkpt>
      <trkpt lat="46.61193" lon="5.88361">
        <ele>742</ele>
        <time>2025-10-08T10:28:24.502+00:00</time>
      </trkpt>
      <trkpt lat="46.61194" lon="5.88364">
        <ele>742</ele>
        <time>2025-10-08T10:28:28.779+00:00</time>
      </trkpt>
      <trkpt lat="46.61194" lon="5.88366">
        <ele>742</ele>
        <time>2025-10-08T10:28:41.778+00:00</time>
      </trkpt>
      <trkpt lat="46.6119" lon="5.88357">
        <ele>742</ele>
        <time>2025-10-08T10:28:46.325+00:00</time>
      </trkpt>
      <trkpt lat="46.61187" lon="5.88354">
        <ele>742</ele>
        <time>2025-10-08T10:28:50.422+00:00</time>
      </trkpt>
      <trkpt lat="46.61182" lon="5.88351">
        <ele>742</ele>
        <time>2025-10-08T10:28:54.711+00:00</time>
      </trkpt>
      <trkpt lat="46.61181" lon="5.8835">
        <ele>742</ele>
        <time>2025-10-08T10:28:59.467+00:00</time>
      </trkpt>
      <trkpt lat="46.61181" lon="5.88354">
        <ele>742</ele>
        <time>2025-10-08T10:29:03.790+00:00</time>
      </trkpt>
      <trkpt lat="46.6118" lon="5.88361">
        <ele>747</ele>
        <time>2025-10-08T10:29:08.779+00:00</time>
      </trkpt>
      <trkpt lat="46.61177" lon="5.88364">
        <ele>747</ele>
        <time>2025-10-08T10:29:13.065+00:00</time>
      </trkpt>
      <trkpt lat="46.61173" lon="5.88365">
        <ele>747</ele>
        <time>2025-10-08T10:29:17.225+00:00</time>
      </trkpt>
      <trkpt lat="46.61171" lon="5.88366">
        <ele>747</ele>
        <time>2025-10-08T10:29:21.778+00:00</time>
      </trkpt>
      <trkpt lat="46.61173" lon="5.88372">
        <ele>747</ele>
        <time>2025-10-08T10:29:26.092+00:00</time>
      </trkpt>
      <trkpt lat="46.61173" lon="5.88378">
        <ele>755</ele>
        <time>2025-10-08T10:29:30.400+00:00</time>
      </trkpt>
      <trkpt lat="46.61172" lon="5.88384">
        <ele>755</ele>
        <time>2025-10-08T10:29:34.779+00:00</time>
      </trkpt>
      <trkpt lat="46.61175" lon="5.88392">
        <ele>755</ele>
        <time>2025-10-08T10:33:01.777+00:00</time>
      </trkpt>
      <trkpt lat="46.61176" lon="5.88386">
        <ele>755</ele>
        <time>2025-10-08T10:33:06.777+00:00</time>
      </trkpt>
      <trkpt lat="46.61176" lon="5.8838">
        <ele>755</ele>
        <time>2025-10-08T10:33:11.502+00:00</time>
      </trkpt>
      <trkpt lat="46.61176" lon="5.88377">
        <ele>755</ele>
        <time>2025-10-08T10:33:14.777+00:00</time>
      </trkpt>
      <trkpt lat="46.61176" lon="5.88376">
        <ele>755</ele>
        <time>2025-10-08T10:33:23.777+00:00</time>
      </trkpt>
      <trkpt lat="46.61176" lon="5.88376">
        <ele>755</ele>
        <time>2025-10-08T10:33:30.063+00:00</time>
      </trkpt>
      <trkpt lat="46.61177" lon="5.88372">
        <ele>747</ele>
        <time>2025-10-08T10:33:34.777+00:00</time>
      </trkpt>
      <trkpt lat="46.61177" lon="5.88365">
        <ele>747</ele>
        <time>2025-10-08T10:33:38.777+00:00</time>
      </trkpt>
      <trkpt lat="46.61176" lon="5.88362">
        <ele>747</ele>
        <time>2025-10-08T10:33:43.386+00:00</time>
      </trkpt>
      <trkpt lat="46.61175" lon="5.88358">
        <ele>747</ele>
        <time>2025-10-08T10:33:47.777+00:00</time>
      </trkpt>
      <trkpt lat="46.61175" lon="5.88355">
        <ele>747</ele>
        <time>2025-10-08T10:33:52.287+00:00</time>
      </trkpt>
      <trkpt lat="46.61172" lon="5.88348">
        <ele>747</ele>
        <time>2025-10-08T10:33:56.777+00:00</time>
      </trkpt>
      <trkpt lat="46.61169" lon="5.88344">
        <ele>738</ele>
        <time>2025-10-08T10:34:01.241+00:00</time>
      </trkpt>
      <trkpt lat="46.61165" lon="5.88339">
        <ele>738</ele>
        <time>2025-10-08T10:34:05.566+00:00</time>
      </trkpt>
      <trkpt lat="46.61159" lon="5.88336">
        <ele>738</ele>
        <time>2025-10-08T10:34:09.922+00:00</time>
      </trkpt>
      <trkpt lat="46.61154" lon="5.88333">
        <ele>738</ele>
        <time>2025-10-08T10:34:13.930+00:00</time>
      </trkpt>
      <trkpt lat="46.61151" lon="5.88327">
        <ele>745</ele>
        <time>2025-10-08T10:34:18.777+00:00</time>
      </trkpt>
      <trkpt lat="46.61154" lon="5.8832">
        <ele>738</ele>
        <time>2025-10-08T10:34:23.343+00:00</time>
      </trkpt>
      <trkpt lat="46.61159" lon="5.88317">
        <ele>733</ele>
        <time>2025-10-08T10:34:27.721+00:00</time>
      </trkpt>
      <trkpt lat="46.61161" lon="5.88313">
        <ele>733</ele>
        <time>2025-10-08T10:34:31.777+00:00</time>
      </trkpt>
      <trkpt lat="46.61164" lon="5.88305">
        <ele>733</ele>
        <time>2025-10-08T10:34:36.605+00:00</time>
      </trkpt>
      <trkpt lat="46.61165" lon="5.88297">
        <ele>733</ele>
        <time>2025-10-08T10:34:40.778+00:00</time>
      </trkpt>
      <trkpt lat="46.61164" lon="5.8829">
        <ele>732</ele>
        <time>2025-10-08T10:34:44.777+00:00</time>
      </trkpt>
      <trkpt lat="46.61164" lon="5.88282">
        <ele>732</ele>
        <time>2025-10-08T10:34:48.778+00:00</time>
      </trkpt>
      <trkpt lat="46.61163" lon="5.88274">
        <ele>732</ele>
        <time>2025-10-08T10:34:53.365+00:00</time>
      </trkpt>
      <trkpt lat="46.61161" lon="5.88267">
        <ele>732</ele>
        <time>2025-10-08T10:34:57.778+00:00</time>
      </trkpt>
      <trkpt lat="46.61159" lon="5.88259">
        <ele>730</ele>
        <time>2025-10-08T10:35:02.181+00:00</time>
      </trkpt>
      <trkpt lat="46.61158" lon="5.88251">
        <ele>730</ele>
        <time>2025-10-08T10:35:06.745+00:00</time>
      </trkpt>
      <trkpt lat="46.61156" lon="5.88244">
        <ele>730</ele>
        <time>2025-10-08T10:35:11.063+00:00</time>
      </trkpt>
      <trkpt lat="46.61154" lon="5.88238">
        <ele>730</ele>
        <time>2025-10-08T10:35:15.262+00:00</time>
      </trkpt>
      <trkpt lat="46.61152" lon="5.88232">
        <ele>736</ele>
        <time>2025-10-08T10:35:19.366+00:00</time>
      </trkpt>
      <trkpt lat="46.6115" lon="5.88226">
        <ele>736</ele>
        <time>2025-10-08T10:35:23.777+00:00</time>
      </trkpt>
      <trkpt lat="46.61147" lon="5.8822">
        <ele>736</ele>
        <time>2025-10-08T10:35:28.224+00:00</time>
      </trkpt>
      <trkpt lat="46.61142" lon="5.88217">
        <ele>736</ele>
        <time>2025-10-08T10:35:32.777+00:00</time>
      </trkpt>
      <trkpt lat="46.61136" lon="5.88214">
        <ele>736</ele>
        <time>2025-10-08T10:35:37.765+00:00</time>
      </trkpt>
      <trkpt lat="46.61132" lon="5.88211">
        <ele>736</ele>
        <time>2025-10-08T10:35:41.777+00:00</time>
      </trkpt>
      <trkpt lat="46.61128" lon="5.88206">
        <ele>737</ele>
        <time>2025-10-08T10:35:46.503+00:00</time>
      </trkpt>
      <trkpt lat="46.61124" lon="5.88201">
        <ele>739</ele>
        <time>2025-10-08T10:35:50.745+00:00</time>
      </trkpt>
      <trkpt lat="46.6112" lon="5.88198">
        <ele>739</ele>
        <time>2025-10-08T10:35:54.911+00:00</time>
      </trkpt>
      <trkpt lat="46.61116" lon="5.88192">
        <ele>739</ele>
        <time>2025-10-08T10:35:59.423+00:00</time>
      </trkpt>
      <trkpt lat="46.61113" lon="5.88188">
        <ele>739</ele>
        <time>2025-10-08T10:36:03.502+00:00</time>
      </trkpt>
      <trkpt lat="46.61109" lon="5.88183">
        <ele>739</ele>
        <time>2025-10-08T10:36:07.776+00:00</time>
      </trkpt>
      <trkpt lat="46.61105" lon="5.88178">
        <ele>739</ele>
        <time>2025-10-08T10:36:12.051+00:00</time>
      </trkpt>
      <trkpt lat="46.61101" lon="5.88172">
        <ele>739</ele>
        <time>2025-10-08T10:36:16.380+00:00</time>
      </trkpt>
      <trkpt lat="46.61098" lon="5.88164">
        <ele>739</ele>
        <time>2025-10-08T10:36:21.202+00:00</time>
      </trkpt>
      <trkpt lat="46.61096" lon="5.88158">
        <ele>741</ele>
        <time>2025-10-08T10:36:25.776+00:00</time>
      </trkpt>
      <trkpt lat="46.61092" lon="5.88152">
        <ele>739</ele>
        <time>2025-10-08T10:36:30.641+00:00</time>
      </trkpt>
      <trkpt lat="46.61089" lon="5.88148">
        <ele>739</ele>
        <time>2025-10-08T10:36:34.728+00:00</time>
      </trkpt>
      <trkpt lat="46.61085" lon="5.88143">
        <ele>739</ele>
        <time>2025-10-08T10:36:38.776+00:00</time>
      </trkpt>
      <trkpt lat="46.61082" lon="5.88137">
        <ele>739</ele>
        <time>2025-10-08T10:36:43.526+00:00</time>
      </trkpt>
      <trkpt lat="46.6108" lon="5.88132">
        <ele>739</ele>
        <time>2025-10-08T10:36:47.776+00:00</time>
      </trkpt>
      <trkpt lat="46.61079" lon="5.88125">
        <ele>739</ele>
        <time>2025-10-08T10:36:52.461+00:00</time>
      </trkpt>
      <trkpt lat="46.61076" lon="5.8812">
        <ele>739</ele>
        <time>2025-10-08T10:36:56.776+00:00</time>
      </trkpt>
      <trkpt lat="46.61074" lon="5.88115">
        <ele>739</ele>
        <time>2025-10-08T10:37:24.776+00:00</time>
      </trkpt>
      <trkpt lat="46.6108" lon="5.88113">
        <ele>739</ele>
        <time>2025-10-08T10:37:29.777+00:00</time>
      </trkpt>
      <trkpt lat="46.61081" lon="5.881">
        <ele>739</ele>
        <time>2025-10-08T10:37:34.575+00:00</time>
      </trkpt>
      <trkpt lat="46.61082" lon="5.88096">
        <ele>740</ele>
        <time>2025-10-08T10:37:38.719+00:00</time>
      </trkpt>
      <trkpt lat="46.61084" lon="5.8809">
        <ele>740</ele>
        <time>2025-10-08T10:37:42.988+00:00</time>
      </trkpt>
      <trkpt lat="46.61087" lon="5.88084">
        <ele>740</ele>
        <time>2025-10-08T10:37:47.615+00:00</time>
      </trkpt>
      <trkpt lat="46.61091" lon="5.88079">
        <ele>740</ele>
        <time>2025-10-08T10:37:52.215+00:00</time>
      </trkpt>
      <trkpt lat="46.61095" lon="5.88073">
        <ele>740</ele>
        <time>2025-10-08T10:37:56.756+00:00</time>
      </trkpt>
      <trkpt lat="46.61098" lon="5.88068">
        <ele>736</ele>
        <time>2025-10-08T10:38:00.776+00:00</time>
      </trkpt>
      <trkpt lat="46.61104" lon="5.88061">
        <ele>736</ele>
        <time>2025-10-08T10:38:05.587+00:00</time>
      </trkpt>
      <trkpt lat="46.61107" lon="5.88055">
        <ele>736</ele>
        <time>2025-10-08T10:38:09.776+00:00</time>
      </trkpt>
      <trkpt lat="46.61112" lon="5.88048">
        <ele>736</ele>
        <time>2025-10-08T10:38:14.351+00:00</time>
      </trkpt>
      <trkpt lat="46.61117" lon="5.88042">
        <ele>736</ele>
        <time>2025-10-08T10:38:18.776+00:00</time>
      </trkpt>
      <trkpt lat="46.61121" lon="5.88034">
        <ele>739</ele>
        <time>2025-10-08T10:38:23.356+00:00</time>
      </trkpt>
      <trkpt lat="46.61125" lon="5.88027">
        <ele>739</ele>
        <time>2025-10-08T10:38:27.777+00:00</time>
      </trkpt>
      <trkpt lat="46.61129" lon="5.8802">
        <ele>731</ele>
        <time>2025-10-08T10:38:32.409+00:00</time>
      </trkpt>
      <trkpt lat="46.61134" lon="5.88013">
        <ele>734</ele>
        <time>2025-10-08T10:38:36.776+00:00</time>
      </trkpt>
      <trkpt lat="46.61138" lon="5.88005">
        <ele>734</ele>
        <time>2025-10-08T10:38:41.608+00:00</time>
      </trkpt>
      <trkpt lat="46.6114" lon="5.87999">
        <ele>734</ele>
        <time>2025-10-08T10:38:45.831+00:00</time>
      </trkpt>
      <trkpt lat="46.61143" lon="5.87995">
        <ele>734</ele>
        <time>2025-10-08T10:38:50.286+00:00</time>
      </trkpt>
      <trkpt lat="46.61144" lon="5.87989">
        <ele>734</ele>
        <time>2025-10-08T10:38:54.467+00:00</time>
      </trkpt>
      <trkpt lat="46.61144" lon="5.87981">
        <ele>738</ele>
        <time>2025-10-08T10:38:58.752+00:00</time>
      </trkpt>
      <trkpt lat="46.61145" lon="5.87974">
        <ele>738</ele>
        <time>2025-10-08T10:39:03.351+00:00</time>
      </trkpt>
      <trkpt lat="46.61146" lon="5.87968">
        <ele>738</ele>
        <time>2025-10-08T10:39:07.568+00:00</time>
      </trkpt>
      <trkpt lat="46.61147" lon="5.87962">
        <ele>738</ele>
        <time>2025-10-08T10:39:11.776+00:00</time>
      </trkpt>
      <trkpt lat="46.61149" lon="5.87956">
        <ele>742</ele>
        <time>2025-10-08T10:39:16.255+00:00</time>
      </trkpt>
      <trkpt lat="46.61152" lon="5.87951">
        <ele>742</ele>
        <time>2025-10-08T10:39:20.709+00:00</time>
      </trkpt>
      <trkpt lat="46.61153" lon="5.87946">
        <ele>734</ele>
        <time>2025-10-08T10:39:24.777+00:00</time>
      </trkpt>
      <trkpt lat="46.61155" lon="5.87941">
        <ele>734</ele>
        <time>2025-10-08T10:39:29.073+00:00</time>
      </trkpt>
      <trkpt lat="46.61157" lon="5.87936">
        <ele>734</ele>
        <time>2025-10-08T10:39:33.587+00:00</time>
      </trkpt>
      <trkpt lat="46.6116" lon="5.8793">
        <ele>738</ele>
        <time>2025-10-08T10:39:37.855+00:00</time>
      </trkpt>
      <trkpt lat="46.61163" lon="5.87926">
        <ele>738</ele>
        <time>2025-10-08T10:39:42.130+00:00</time>
      </trkpt>
      <trkpt lat="46.61168" lon="5.87922">
        <ele>738</ele>
        <time>2025-10-08T10:39:46.329+00:00</time>
      </trkpt>
      <trkpt lat="46.61172" lon="5.87919">
        <ele>738</ele>
        <time>2025-10-08T10:39:50.777+00:00</time>
      </trkpt>
      <trkpt lat="46.61175" lon="5.87914">
        <ele>738</ele>
        <time>2025-10-08T10:39:55.735+00:00</time>
      </trkpt>
      <trkpt lat="46.61178" lon="5.87913">
        <ele>738</ele>
        <time>2025-10-08T10:40:00.051+00:00</time>
      </trkpt>
      <trkpt lat="46.61182" lon="5.87915">
        <ele>727</ele>
        <time>2025-10-08T10:40:04.531+00:00</time>
      </trkpt>
      <trkpt lat="46.61186" lon="5.87916">
        <ele>727</ele>
        <time>2025-10-08T10:40:09.012+00:00</time>
      </trkpt>
      <trkpt lat="46.6119" lon="5.87913">
        <ele>727</ele>
        <time>2025-10-08T10:40:13.031+00:00</time>
      </trkpt>
      <trkpt lat="46.61194" lon="5.87915">
        <ele>727</ele>
        <time>2025-10-08T10:40:17.777+00:00</time>
      </trkpt>
      <trkpt lat="46.61198" lon="5.87914">
        <ele>727</ele>
        <time>2025-10-08T10:40:21.776+00:00</time>
      </trkpt>
      <trkpt lat="46.61201" lon="5.8791">
        <ele>727</ele>
        <time>2025-10-08T10:40:26.429+00:00</time>
      </trkpt>
      <trkpt lat="46.61202" lon="5.87901">
        <ele>731</ele>
        <time>2025-10-08T10:40:30.776+00:00</time>
      </trkpt>
      <trkpt lat="46.61204" lon="5.87893">
        <ele>731</ele>
        <time>2025-10-08T10:40:35.776+00:00</time>
      </trkpt>
      <trkpt lat="46.61205" lon="5.87889">
        <ele>731</ele>
        <time>2025-10-08T10:40:40.375+00:00</time>
      </trkpt>
      <trkpt lat="46.61204" lon="5.87883">
        <ele>731</ele>
        <time>2025-10-08T10:40:44.691+00:00</time>
      </trkpt>
      <trkpt lat="46.61204" lon="5.87877">
        <ele>731</ele>
        <time>2025-10-08T10:40:49.368+00:00</time>
      </trkpt>
      <trkpt lat="46.61207" lon="5.87873">
        <ele>733</ele>
        <time>2025-10-08T10:40:53.771+00:00</time>
      </trkpt>
      <trkpt lat="46.61209" lon="5.87869">
        <ele>727</ele>
        <time>2025-10-08T10:40:57.809+00:00</time>
      </trkpt>
      <trkpt lat="46.61211" lon="5.87863">
        <ele>727</ele>
        <time>2025-10-08T10:41:02.629+00:00</time>
      </trkpt>
      <trkpt lat="46.61212" lon="5.87858">
        <ele>727</ele>
        <time>2025-10-08T10:41:06.776+00:00</time>
      </trkpt>
      <trkpt lat="46.61214" lon="5.87852">
        <ele>727</ele>
        <time>2025-10-08T10:41:11.385+00:00</time>
      </trkpt>
      <trkpt lat="46.61216" lon="5.87843">
        <ele>729</ele>
        <time>2025-10-08T10:41:16.636+00:00</time>
      </trkpt>
      <trkpt lat="46.61218" lon="5.87838">
        <ele>729</ele>
        <time>2025-10-08T10:41:21.055+00:00</time>
      </trkpt>
      <trkpt lat="46.61219" lon="5.87831">
        <ele>729</ele>
        <time>2025-10-08T10:41:25.772+00:00</time>
      </trkpt>
      <trkpt lat="46.61219" lon="5.87824">
        <ele>729</ele>
        <time>2025-10-08T10:41:30.465+00:00</time>
      </trkpt>
      <trkpt lat="46.61219" lon="5.87817">
        <ele>732</ele>
        <time>2025-10-08T10:41:34.776+00:00</time>
      </trkpt>
      <trkpt lat="46.61219" lon="5.8781">
        <ele>732</ele>
        <time>2025-10-08T10:41:39.068+00:00</time>
      </trkpt>
      <trkpt lat="46.6122" lon="5.87803">
        <ele>732</ele>
        <time>2025-10-08T10:41:43.207+00:00</time>
      </trkpt>
      <trkpt lat="46.61223" lon="5.87796">
        <ele>732</ele>
        <time>2025-10-08T10:41:47.448+00:00</time>
      </trkpt>
      <trkpt lat="46.61225" lon="5.87789">
        <ele>737</ele>
        <time>2025-10-08T10:41:52.228+00:00</time>
      </trkpt>
      <trkpt lat="46.61228" lon="5.87783">
        <ele>737</ele>
        <time>2025-10-08T10:41:56.749+00:00</time>
      </trkpt>
      <trkpt lat="46.6123" lon="5.87777">
        <ele>737</ele>
        <time>2025-10-08T10:42:01.366+00:00</time>
      </trkpt>
      <trkpt lat="46.61232" lon="5.87771">
        <ele>737</ele>
        <time>2025-10-08T10:42:05.787+00:00</time>
      </trkpt>
      <trkpt lat="46.61235" lon="5.87765">
        <ele>737</ele>
        <time>2025-10-08T10:42:10.233+00:00</time>
      </trkpt>
      <trkpt lat="46.61238" lon="5.8776">
        <ele>733</ele>
        <time>2025-10-08T10:42:14.776+00:00</time>
      </trkpt>
      <trkpt lat="46.61242" lon="5.87755">
        <ele>733</ele>
        <time>2025-10-08T10:42:19.313+00:00</time>
      </trkpt>
      <trkpt lat="46.61245" lon="5.87752">
        <ele>733</ele>
        <time>2025-10-08T10:42:23.776+00:00</time>
      </trkpt>
      <trkpt lat="46.61244" lon="5.87749">
        <ele>733</ele>
        <time>2025-10-08T10:42:27.776+00:00</time>
      </trkpt>
      <trkpt lat="46.61244" lon="5.87747">
        <ele>733</ele>
        <time>2025-10-08T10:42:45.775+00:00</time>
      </trkpt>
      <trkpt lat="46.61244" lon="5.87746">
        <ele>733</ele>
        <time>2025-10-08T10:42:50.775+00:00</time>
      </trkpt>
      <trkpt lat="46.61244" lon="5.87743">
        <ele>733</ele>
        <time>2025-10-08T10:42:55.487+00:00</time>
      </trkpt>
      <trkpt lat="46.61248" lon="5.87739">
        <ele>733</ele>
        <time>2025-10-08T10:42:59.775+00:00</time>
      </trkpt>
      <trkpt lat="46.6125" lon="5.87734">
        <ele>735</ele>
        <time>2025-10-08T10:43:03.775+00:00</time>
      </trkpt>
      <trkpt lat="46.61253" lon="5.87727">
        <ele>735</ele>
        <time>2025-10-08T10:43:08.493+00:00</time>
      </trkpt>
      <trkpt lat="46.6125" lon="5.87723">
        <ele>735</ele>
        <time>2025-10-08T10:43:12.572+00:00</time>
      </trkpt>
      <trkpt lat="46.61252" lon="5.87714">
        <ele>735</ele>
        <time>2025-10-08T10:43:16.933+00:00</time>
      </trkpt>
      <trkpt lat="46.61256" lon="5.87706">
        <ele>736</ele>
        <time>2025-10-08T10:43:21.360+00:00</time>
      </trkpt>
      <trkpt lat="46.6126" lon="5.877">
        <ele>736</ele>
        <time>2025-10-08T10:43:25.433+00:00</time>
      </trkpt>
      <trkpt lat="46.61263" lon="5.87691">
        <ele>736</ele>
        <time>2025-10-08T10:43:30.075+00:00</time>
      </trkpt>
      <trkpt lat="46.61266" lon="5.87683">
        <ele>732</ele>
        <time>2025-10-08T10:43:34.333+00:00</time>
      </trkpt>
      <trkpt lat="46.61267" lon="5.87674">
        <ele>732</ele>
        <time>2025-10-08T10:43:38.532+00:00</time>
      </trkpt>
      <trkpt lat="46.61269" lon="5.87665">
        <ele>732</ele>
        <time>2025-10-08T10:43:42.776+00:00</time>
      </trkpt>
      <trkpt lat="46.61269" lon="5.87656">
        <ele>732</ele>
        <time>2025-10-08T10:43:46.775+00:00</time>
      </trkpt>
      <trkpt lat="46.61271" lon="5.87646">
        <ele>733</ele>
        <time>2025-10-08T10:43:51.749+00:00</time>
      </trkpt>
      <trkpt lat="46.61272" lon="5.87638">
        <ele>733</ele>
        <time>2025-10-08T10:43:56.213+00:00</time>
      </trkpt>
      <trkpt lat="46.61273" lon="5.8763">
        <ele>733</ele>
        <time>2025-10-08T10:44:00.548+00:00</time>
      </trkpt>
      <trkpt lat="46.61273" lon="5.87623">
        <ele>734</ele>
        <time>2025-10-08T10:44:04.670+00:00</time>
      </trkpt>
      <trkpt lat="46.61274" lon="5.87615">
        <ele>734</ele>
        <time>2025-10-08T10:44:09.644+00:00</time>
      </trkpt>
      <trkpt lat="46.61276" lon="5.87607">
        <ele>734</ele>
        <time>2025-10-08T10:44:14.183+00:00</time>
      </trkpt>
      <trkpt lat="46.61277" lon="5.87598">
        <ele>734</ele>
        <time>2025-10-08T10:44:18.776+00:00</time>
      </trkpt>
      <trkpt lat="46.61278" lon="5.8759">
        <ele>736</ele>
        <time>2025-10-08T10:44:23.143+00:00</time>
      </trkpt>
      <trkpt lat="46.6128" lon="5.87583">
        <ele>736</ele>
        <time>2025-10-08T10:44:27.478+00:00</time>
      </trkpt>
      <trkpt lat="46.61283" lon="5.87576">
        <ele>736</ele>
        <time>2025-10-08T10:44:32.018+00:00</time>
      </trkpt>
      <trkpt lat="46.61285" lon="5.8757">
        <ele>736</ele>
        <time>2025-10-08T10:44:36.286+00:00</time>
      </trkpt>
      <trkpt lat="46.61287" lon="5.87563">
        <ele>738</ele>
        <time>2025-10-08T10:44:40.458+00:00</time>
      </trkpt>
      <trkpt lat="46.61291" lon="5.87557">
        <ele>738</ele>
        <time>2025-10-08T10:44:44.775+00:00</time>
      </trkpt>
      <trkpt lat="46.6129" lon="5.8755">
        <ele>738</ele>
        <time>2025-10-08T10:44:49.775+00:00</time>
      </trkpt>
      <trkpt lat="46.61287" lon="5.87542">
        <ele>738</ele>
        <time>2025-10-08T10:44:54.504+00:00</time>
      </trkpt>
      <trkpt lat="46.6129" lon="5.87536">
        <ele>740</ele>
        <time>2025-10-08T10:44:58.775+00:00</time>
      </trkpt>
      <trkpt lat="46.61297" lon="5.87532">
        <ele>728</ele>
        <time>2025-10-08T10:45:03.775+00:00</time>
      </trkpt>
      <trkpt lat="46.613" lon="5.87527">
        <ele>728</ele>
        <time>2025-10-08T10:45:08.080+00:00</time>
      </trkpt>
      <trkpt lat="46.61304" lon="5.87522">
        <ele>728</ele>
        <time>2025-10-08T10:45:12.542+00:00</time>
      </trkpt>
      <trkpt lat="46.61307" lon="5.87518">
        <ele>728</ele>
        <time>2025-10-08T10:45:16.638+00:00</time>
      </trkpt>
      <trkpt lat="46.6131" lon="5.87514">
        <ele>730</ele>
        <time>2025-10-08T10:45:20.624+00:00</time>
      </trkpt>
      <trkpt lat="46.61314" lon="5.87507">
        <ele>730</ele>
        <time>2025-10-08T10:45:25.479+00:00</time>
      </trkpt>
      <trkpt lat="46.61319" lon="5.87503">
        <ele>730</ele>
        <time>2025-10-08T10:45:30.103+00:00</time>
      </trkpt>
      <trkpt lat="46.61325" lon="5.87501">
        <ele>723</ele>
        <time>2025-10-08T10:45:34.776+00:00</time>
      </trkpt>
      <trkpt lat="46.61329" lon="5.87498">
        <ele>723</ele>
        <time>2025-10-08T10:45:38.842+00:00</time>
      </trkpt>
      <trkpt lat="46.61333" lon="5.87493">
        <ele>723</ele>
        <time>2025-10-08T10:45:43.202+00:00</time>
      </trkpt>
      <trkpt lat="46.61338" lon="5.87489">
        <ele>723</ele>
        <time>2025-10-08T10:45:47.283+00:00</time>
      </trkpt>
      <trkpt lat="46.61342" lon="5.87485">
        <ele>722</ele>
        <time>2025-10-08T10:45:51.523+00:00</time>
      </trkpt>
      <trkpt lat="46.61344" lon="5.87483">
        <ele>722</ele>
        <time>2025-10-08T10:45:54.776+00:00</time>
      </trkpt>
      <trkpt lat="46.61348" lon="5.87478">
        <ele>719</ele>
        <time>2025-10-08T10:46:03.661+00:00</time>
      </trkpt>
      <trkpt lat="46.61349" lon="5.87472">
        <ele>719</ele>
        <time>2025-10-08T10:46:07.775+00:00</time>
      </trkpt>
      <trkpt lat="46.61352" lon="5.87468">
        <ele>719</ele>
        <time>2025-10-08T10:46:12.776+00:00</time>
      </trkpt>
      <trkpt lat="46.61352" lon="5.87468">
        <ele>719</ele>
        <time>2025-10-08T10:46:17.381+00:00</time>
      </trkpt>
      <trkpt lat="46.61352" lon="5.87461">
        <ele>719</ele>
        <time>2025-10-08T10:46:21.743+00:00</time>
      </trkpt>
      <trkpt lat="46.61353" lon="5.8746">
        <ele>719</ele>
        <time>2025-10-08T10:46:25.776+00:00</time>
      </trkpt>
      <trkpt lat="46.61353" lon="5.8746">
        <ele>719</ele>
        <time>2025-10-08T10:46:30.775+00:00</time>
      </trkpt>
      <trkpt lat="46.61353" lon="5.87459">
        <ele>719</ele>
        <time>2025-10-08T10:46:35.405+00:00</time>
      </trkpt>
      <trkpt lat="46.61354" lon="5.87455">
        <ele>720</ele>
        <time>2025-10-08T10:46:39.543+00:00</time>
      </trkpt>
      <trkpt lat="46.61354" lon="5.87446">
        <ele>720</ele>
        <time>2025-10-08T10:46:43.806+00:00</time>
      </trkpt>
      <trkpt lat="46.61354" lon="5.87438">
        <ele>720</ele>
        <time>2025-10-08T10:46:48.180+00:00</time>
      </trkpt>
      <trkpt lat="46.61357" lon="5.87432">
        <ele>720</ele>
        <time>2025-10-08T10:46:52.762+00:00</time>
      </trkpt>
      <trkpt lat="46.6136" lon="5.87427">
        <ele>722</ele>
        <time>2025-10-08T10:46:56.915+00:00</time>
      </trkpt>
      <trkpt lat="46.61364" lon="5.87422">
        <ele>722</ele>
        <time>2025-10-08T10:47:01.185+00:00</time>
      </trkpt>
      <trkpt lat="46.61369" lon="5.87421">
        <ele>722</ele>
        <time>2025-10-08T10:47:05.775+00:00</time>
      </trkpt>
      <trkpt lat="46.61373" lon="5.87419">
        <ele>722</ele>
        <time>2025-10-08T10:47:10.238+00:00</time>
      </trkpt>
      <trkpt lat="46.61377" lon="5.87415">
        <ele>722</ele>
        <time>2025-10-08T10:47:14.659+00:00</time>
      </trkpt>
      <trkpt lat="46.61381" lon="5.87409">
        <ele>722</ele>
        <time>2025-10-08T10:47:18.775+00:00</time>
      </trkpt>
      <trkpt lat="46.61383" lon="5.87402">
        <ele>723</ele>
        <time>2025-10-08T10:47:23.406+00:00</time>
      </trkpt>
      <trkpt lat="46.6138" lon="5.87394">
        <ele>723</ele>
        <time>2025-10-08T10:47:27.782+00:00</time>
      </trkpt>
      <trkpt lat="46.61376" lon="5.87388">
        <ele>723</ele>
        <time>2025-10-08T10:47:32.545+00:00</time>
      </trkpt>
      <trkpt lat="46.61374" lon="5.87382">
        <ele>724</ele>
        <time>2025-10-08T10:47:36.776+00:00</time>
      </trkpt>
      <trkpt lat="46.61369" lon="5.87378">
        <ele>724</ele>
        <time>2025-10-08T10:47:41.775+00:00</time>
      </trkpt>
      <trkpt lat="46.61365" lon="5.87372">
        <ele>724</ele>
        <time>2025-10-08T10:47:46.774+00:00</time>
      </trkpt>
      <trkpt lat="46.61361" lon="5.87367">
        <ele>724</ele>
        <time>2025-10-08T10:47:51.775+00:00</time>
      </trkpt>
      <trkpt lat="46.61358" lon="5.87361">
        <ele>724</ele>
        <time>2025-10-08T10:47:56.775+00:00</time>
      </trkpt>
      <trkpt lat="46.61358" lon="5.87359">
        <ele>724</ele>
        <time>2025-10-08T10:48:39.774+00:00</time>
      </trkpt>
      <trkpt lat="46.61355" lon="5.87355">
        <ele>724</ele>
        <time>2025-10-08T10:48:44.774+00:00</time>
      </trkpt>
      <trkpt lat="46.61352" lon="5.87348">
        <ele>724</ele>
        <time>2025-10-08T10:48:49.599+00:00</time>
      </trkpt>
      <trkpt lat="46.6135" lon="5.87344">
        <ele>721</ele>
        <time>2025-10-08T10:48:53.774+00:00</time>
      </trkpt>
      <trkpt lat="46.61348" lon="5.87339">
        <ele>721</ele>
        <time>2025-10-08T10:48:57.774+00:00</time>
      </trkpt>
      <trkpt lat="46.61346" lon="5.87333">
        <ele>728</ele>
        <time>2025-10-08T10:49:02.381+00:00</time>
      </trkpt>
      <trkpt lat="46.61346" lon="5.87328">
        <ele>728</ele>
        <time>2025-10-08T10:49:06.439+00:00</time>
      </trkpt>
      <trkpt lat="46.61345" lon="5.87322">
        <ele>728</ele>
        <time>2025-10-08T10:49:10.775+00:00</time>
      </trkpt>
      <trkpt lat="46.61344" lon="5.87315">
        <ele>727</ele>
        <time>2025-10-08T10:49:15+00:00</time>
      </trkpt>
      <trkpt lat="46.61343" lon="5.87307">
        <ele>727</ele>
        <time>2025-10-08T10:49:19.026+00:00</time>
      </trkpt>
      <trkpt lat="46.61341" lon="5.87299">
        <ele>727</ele>
        <time>2025-10-08T10:49:23.480+00:00</time>
      </trkpt>
      <trkpt lat="46.61339" lon="5.87292">
        <ele>725</ele>
        <time>2025-10-08T10:49:27.775+00:00</time>
      </trkpt>
      <trkpt lat="46.61338" lon="5.87283">
        <ele>725</ele>
        <time>2025-10-08T10:49:32.774+00:00</time>
      </trkpt>
      <trkpt lat="46.61338" lon="5.87274">
        <ele>725</ele>
        <time>2025-10-08T10:49:37.500+00:00</time>
      </trkpt>
      <trkpt lat="46.61338" lon="5.87267">
        <ele>725</ele>
        <time>2025-10-08T10:49:41.604+00:00</time>
      </trkpt>
      <trkpt lat="46.61337" lon="5.87259">
        <ele>723</ele>
        <time>2025-10-08T10:49:45.981+00:00</time>
      </trkpt>
      <trkpt lat="46.61336" lon="5.87251">
        <ele>723</ele>
        <time>2025-10-08T10:49:50.163+00:00</time>
      </trkpt>
      <trkpt lat="46.61334" lon="5.87244">
        <ele>723</ele>
        <time>2025-10-08T10:49:54.480+00:00</time>
      </trkpt>
      <trkpt lat="46.61332" lon="5.87237">
        <ele>723</ele>
        <time>2025-10-08T10:49:58.918+00:00</time>
      </trkpt>
      <trkpt lat="46.61331" lon="5.8723">
        <ele>721</ele>
        <time>2025-10-08T10:50:03.264+00:00</time>
      </trkpt>
      <trkpt lat="46.61331" lon="5.87223">
        <ele>721</ele>
        <time>2025-10-08T10:50:07.324+00:00</time>
      </trkpt>
      <trkpt lat="46.61331" lon="5.87216">
        <ele>721</ele>
        <time>2025-10-08T10:50:11.683+00:00</time>
      </trkpt>
      <trkpt lat="46.6133" lon="5.87208">
        <ele>721</ele>
        <time>2025-10-08T10:50:16.326+00:00</time>
      </trkpt>
      <trkpt lat="46.6133" lon="5.872">
        <ele>721</ele>
        <time>2025-10-08T10:50:20.775+00:00</time>
      </trkpt>
      <trkpt lat="46.61332" lon="5.87194">
        <ele>721</ele>
        <time>2025-10-08T10:50:24.774+00:00</time>
      </trkpt>
      <trkpt lat="46.61332" lon="5.87185">
        <ele>721</ele>
        <time>2025-10-08T10:50:29.543+00:00</time>
      </trkpt>
      <trkpt lat="46.61332" lon="5.87176">
        <ele>721</ele>
        <time>2025-10-08T10:50:33.724+00:00</time>
      </trkpt>
      <trkpt lat="46.61333" lon="5.87167">
        <ele>721</ele>
        <time>2025-10-08T10:50:38.521+00:00</time>
      </trkpt>
      <trkpt lat="46.61336" lon="5.8716">
        <ele>721</ele>
        <time>2025-10-08T10:50:42.718+00:00</time>
      </trkpt>
      <trkpt lat="46.61337" lon="5.87154">
        <ele>721</ele>
        <time>2025-10-08T10:50:46.774+00:00</time>
      </trkpt>
      <trkpt lat="46.61337" lon="5.87146">
        <ele>723</ele>
        <time>2025-10-08T10:50:51.404+00:00</time>
      </trkpt>
      <trkpt lat="46.61335" lon="5.87139">
        <ele>723</ele>
        <time>2025-10-08T10:50:55.764+00:00</time>
      </trkpt>
      <trkpt lat="46.61334" lon="5.87134">
        <ele>723</ele>
        <time>2025-10-08T10:50:59.774+00:00</time>
      </trkpt>
      <trkpt lat="46.61336" lon="5.87129">
        <ele>723</ele>
        <time>2025-10-08T10:51:03.999+00:00</time>
      </trkpt>
      <trkpt lat="46.61335" lon="5.87118">
        <ele>724</ele>
        <time>2025-10-08T10:51:08.775+00:00</time>
      </trkpt>
      <trkpt lat="46.61335" lon="5.87114">
        <ele>724</ele>
        <time>2025-10-08T10:51:13.281+00:00</time>
      </trkpt>
      <trkpt lat="46.61338" lon="5.87112">
        <ele>724</ele>
        <time>2025-10-08T10:51:17.480+00:00</time>
      </trkpt>
      <trkpt lat="46.61339" lon="5.87107">
        <ele>724</ele>
        <time>2025-10-08T10:51:21.774+00:00</time>
      </trkpt>
      <trkpt lat="46.61338" lon="5.871">
        <ele>724</ele>
        <time>2025-10-08T10:51:26.421+00:00</time>
      </trkpt>
      <trkpt lat="46.61338" lon="5.87093">
        <ele>725</ele>
        <time>2025-10-08T10:51:30.709+00:00</time>
      </trkpt>
      <trkpt lat="46.61338" lon="5.87086">
        <ele>725</ele>
        <time>2025-10-08T10:51:35.279+00:00</time>
      </trkpt>
      <trkpt lat="46.61338" lon="5.87079">
        <ele>725</ele>
        <time>2025-10-08T10:51:39.774+00:00</time>
      </trkpt>
      <trkpt lat="46.61338" lon="5.8707">
        <ele>725</ele>
        <time>2025-10-08T10:51:44.518+00:00</time>
      </trkpt>
      <trkpt lat="46.61337" lon="5.87061">
        <ele>724</ele>
        <time>2025-10-08T10:51:49.459+00:00</time>
      </trkpt>
      <trkpt lat="46.61338" lon="5.87053">
        <ele>724</ele>
        <time>2025-10-08T10:51:53.774+00:00</time>
      </trkpt>
      <trkpt lat="46.61338" lon="5.87044">
        <ele>724</ele>
        <time>2025-10-08T10:51:58.580+00:00</time>
      </trkpt>
      <trkpt lat="46.61338" lon="5.87036">
        <ele>723</ele>
        <time>2025-10-08T10:52:03.162+00:00</time>
      </trkpt>
      <trkpt lat="46.61339" lon="5.87028">
        <ele>723</ele>
        <time>2025-10-08T10:52:07.774+00:00</time>
      </trkpt>
      <trkpt lat="46.6134" lon="5.8702">
        <ele>723</ele>
        <time>2025-10-08T10:52:12.658+00:00</time>
      </trkpt>
      <trkpt lat="46.61344" lon="5.87015">
        <ele>723</ele>
        <time>2025-10-08T10:52:16.775+00:00</time>
      </trkpt>
      <trkpt lat="46.61347" lon="5.8701">
        <ele>719</ele>
        <time>2025-10-08T10:52:20.774+00:00</time>
      </trkpt>
      <trkpt lat="46.61349" lon="5.87004">
        <ele>719</ele>
        <time>2025-10-08T10:52:25.363+00:00</time>
      </trkpt>
      <trkpt lat="46.61348" lon="5.86998">
        <ele>719</ele>
        <time>2025-10-08T10:52:29.500+00:00</time>
      </trkpt>
      <trkpt lat="46.61347" lon="5.86993">
        <ele>723</ele>
        <time>2025-10-08T10:52:33.775+00:00</time>
      </trkpt>
      <trkpt lat="46.61348" lon="5.86987">
        <ele>719</ele>
        <time>2025-10-08T10:52:38.160+00:00</time>
      </trkpt>
      <trkpt lat="46.61352" lon="5.86982">
        <ele>718</ele>
        <time>2025-10-08T10:52:42.775+00:00</time>
      </trkpt>
      <trkpt lat="46.61355" lon="5.86977">
        <ele>718</ele>
        <time>2025-10-08T10:52:47.774+00:00</time>
      </trkpt>
      <trkpt lat="46.61354" lon="5.86978">
        <ele>718</ele>
        <time>2025-10-08T10:52:52.774+00:00</time>
      </trkpt>
      <trkpt lat="46.61353" lon="5.86976">
        <ele>718</ele>
        <time>2025-10-08T10:52:58.775+00:00</time>
      </trkpt>
      <trkpt lat="46.61354" lon="5.86969">
        <ele>718</ele>
        <time>2025-10-08T10:53:03.280+00:00</time>
      </trkpt>
      <trkpt lat="46.61354" lon="5.86962">
        <ele>718</ele>
        <time>2025-10-08T10:53:07.774+00:00</time>
      </trkpt>
      <trkpt lat="46.61354" lon="5.86956">
        <ele>718</ele>
        <time>2025-10-08T10:53:11.774+00:00</time>
      </trkpt>
      <trkpt lat="46.61354" lon="5.8695">
        <ele>718</ele>
        <time>2025-10-08T10:53:16.328+00:00</time>
      </trkpt>
      <trkpt lat="46.61353" lon="5.86943">
        <ele>718</ele>
        <time>2025-10-08T10:53:20.744+00:00</time>
      </trkpt>
      <trkpt lat="46.61354" lon="5.86936">
        <ele>718</ele>
        <time>2025-10-08T10:53:25.775+00:00</time>
      </trkpt>
      <trkpt lat="46.61356" lon="5.86929">
        <ele>718</ele>
        <time>2025-10-08T10:53:30.774+00:00</time>
      </trkpt>
      <trkpt lat="46.6136" lon="5.86923">
        <ele>718</ele>
        <time>2025-10-08T10:53:35.774+00:00</time>
      </trkpt>
      <trkpt lat="46.61363" lon="5.86917">
        <ele>718</ele>
        <time>2025-10-08T10:53:40.024+00:00</time>
      </trkpt>
      <trkpt lat="46.61367" lon="5.86916">
        <ele>718</ele>
        <time>2025-10-08T10:53:44.763+00:00</time>
      </trkpt>
      <trkpt lat="46.61371" lon="5.86911">
        <ele>718</ele>
        <time>2025-10-08T10:53:49.618+00:00</time>
      </trkpt>
      <trkpt lat="46.61373" lon="5.86904">
        <ele>718</ele>
        <time>2025-10-08T10:53:53.774+00:00</time>
      </trkpt>
      <trkpt lat="46.61376" lon="5.86899">
        <ele>716</ele>
        <time>2025-10-08T10:53:58.440+00:00</time>
      </trkpt>
      <trkpt lat="46.61382" lon="5.86897">
        <ele>716</ele>
        <time>2025-10-08T10:54:02.723+00:00</time>
      </trkpt>
      <trkpt lat="46.61386" lon="5.86891">
        <ele>716</ele>
        <time>2025-10-08T10:54:06.774+00:00</time>
      </trkpt>
      <trkpt lat="46.6139" lon="5.86884">
        <ele>716</ele>
        <time>2025-10-08T10:54:11.681+00:00</time>
      </trkpt>
      <trkpt lat="46.61393" lon="5.86879">
        <ele>716</ele>
        <time>2025-10-08T10:54:15.775+00:00</time>
      </trkpt>
      <trkpt lat="46.61397" lon="5.86875">
        <ele>716</ele>
        <time>2025-10-08T10:54:20.565+00:00</time>
      </trkpt>
      <trkpt lat="46.61402" lon="5.86877">
        <ele>716</ele>
        <time>2025-10-08T10:54:24.625+00:00</time>
      </trkpt>
      <trkpt lat="46.61405" lon="5.8688">
        <ele>711</ele>
        <time>2025-10-08T10:54:28.805+00:00</time>
      </trkpt>
      <trkpt lat="46.61409" lon="5.86883">
        <ele>711</ele>
        <time>2025-10-08T10:54:33.403+00:00</time>
      </trkpt>
      <trkpt lat="46.61412" lon="5.86885">
        <ele>711</ele>
        <time>2025-10-08T10:54:37.765+00:00</time>
      </trkpt>
      <trkpt lat="46.61414" lon="5.86889">
        <ele>711</ele>
        <time>2025-10-08T10:55:15.202+00:00</time>
      </trkpt>
      <trkpt lat="46.61412" lon="5.86883">
        <ele>711</ele>
        <time>2025-10-08T10:55:19.361+00:00</time>
      </trkpt>
      <trkpt lat="46.61408" lon="5.86877">
        <ele>711</ele>
        <time>2025-10-08T10:55:23.773+00:00</time>
      </trkpt>
      <trkpt lat="46.61403" lon="5.86874">
        <ele>712</ele>
        <time>2025-10-08T10:55:28.773+00:00</time>
      </trkpt>
      <trkpt lat="46.61404" lon="5.86873">
        <ele>712</ele>
        <time>2025-10-08T10:55:33.784+00:00</time>
      </trkpt>
      <trkpt lat="46.61404" lon="5.86863">
        <ele>712</ele>
        <time>2025-10-08T10:56:18.604+00:00</time>
      </trkpt>
      <trkpt lat="46.61404" lon="5.86862">
        <ele>712</ele>
        <time>2025-10-08T10:56:22.742+00:00</time>
      </trkpt>
      <trkpt lat="46.61404" lon="5.86861">
        <ele>712</ele>
        <time>2025-10-08T10:56:26.773+00:00</time>
      </trkpt>
      <trkpt lat="46.61406" lon="5.86859">
        <ele>712</ele>
        <time>2025-10-08T10:56:31.343+00:00</time>
      </trkpt>
      <trkpt lat="46.61407" lon="5.86857">
        <ele>712</ele>
        <time>2025-10-08T10:56:35.779+00:00</time>
      </trkpt>
      <trkpt lat="46.61408" lon="5.8684">
        <ele>714</ele>
        <time>2025-10-08T10:57:02.773+00:00</time>
      </trkpt>
      <trkpt lat="46.61409" lon="5.86839">
        <ele>714</ele>
        <time>2025-10-08T10:57:04.773+00:00</time>
      </trkpt>
      <trkpt lat="46.6141" lon="5.86839">
        <ele>714</ele>
        <time>2025-10-08T10:57:13.774+00:00</time>
      </trkpt>
      <trkpt lat="46.6141" lon="5.86839">
        <ele>714</ele>
        <time>2025-10-08T10:57:18.774+00:00</time>
      </trkpt>
      <trkpt lat="46.6141" lon="5.86837">
        <ele>714</ele>
        <time>2025-10-08T10:57:23.773+00:00</time>
      </trkpt>
      <trkpt lat="46.6141" lon="5.86836">
        <ele>714</ele>
        <time>2025-10-08T10:57:33.459+00:00</time>
      </trkpt>
      <trkpt lat="46.61415" lon="5.86829">
        <ele>714</ele>
        <time>2025-10-08T10:57:38.566+00:00</time>
      </trkpt>
      <trkpt lat="46.61413" lon="5.86824">
        <ele>714</ele>
        <time>2025-10-08T10:57:42.773+00:00</time>
      </trkpt>
      <trkpt lat="46.61413" lon="5.86824">
        <ele>714</ele>
        <time>2025-10-08T10:57:47.018+00:00</time>
      </trkpt>
      <trkpt lat="46.61414" lon="5.86817">
        <ele>716</ele>
        <time>2025-10-08T10:57:51.773+00:00</time>
      </trkpt>
      <trkpt lat="46.61415" lon="5.86816">
        <ele>716</ele>
        <time>2025-10-08T10:57:56.774+00:00</time>
      </trkpt>
      <trkpt lat="46.61418" lon="5.86816">
        <ele>716</ele>
        <time>2025-10-08T10:58:00.774+00:00</time>
      </trkpt>
      <trkpt lat="46.6142" lon="5.86806">
        <ele>716</ele>
        <time>2025-10-08T10:58:05.785+00:00</time>
      </trkpt>
      <trkpt lat="46.6142" lon="5.86797">
        <ele>716</ele>
        <time>2025-10-08T10:58:10.246+00:00</time>
      </trkpt>
      <trkpt lat="46.61422" lon="5.86782">
        <ele>720</ele>
        <time>2025-10-08T10:58:23.773+00:00</time>
      </trkpt>
      <trkpt lat="46.61421" lon="5.86782">
        <ele>720</ele>
        <time>2025-10-08T10:58:28.773+00:00</time>
      </trkpt>
      <trkpt lat="46.61422" lon="5.8678">
        <ele>720</ele>
        <time>2025-10-08T10:58:32.774+00:00</time>
      </trkpt>
      <trkpt lat="46.61427" lon="5.86773">
        <ele>720</ele>
        <time>2025-10-08T10:58:37.738+00:00</time>
      </trkpt>
      <trkpt lat="46.61435" lon="5.86775">
        <ele>710</ele>
        <time>2025-10-08T10:58:41.787+00:00</time>
      </trkpt>
      <trkpt lat="46.61434" lon="5.86771">
        <ele>710</ele>
        <time>2025-10-08T10:58:45.980+00:00</time>
      </trkpt>
      <trkpt lat="46.61437" lon="5.86762">
        <ele>713</ele>
        <time>2025-10-08T10:58:50.403+00:00</time>
      </trkpt>
      <trkpt lat="46.6144" lon="5.86757">
        <ele>713</ele>
        <time>2025-10-08T10:58:54.539+00:00</time>
      </trkpt>
      <trkpt lat="46.61443" lon="5.86751">
        <ele>713</ele>
        <time>2025-10-08T10:58:58.719+00:00</time>
      </trkpt>
      <trkpt lat="46.61445" lon="5.86745">
        <ele>713</ele>
        <time>2025-10-08T10:59:03.225+00:00</time>
      </trkpt>
      <trkpt lat="46.61448" lon="5.86739">
        <ele>713</ele>
        <time>2025-10-08T10:59:07.774+00:00</time>
      </trkpt>
      <trkpt lat="46.6145" lon="5.86731">
        <ele>716</ele>
        <time>2025-10-08T10:59:12.380+00:00</time>
      </trkpt>
      <trkpt lat="46.61452" lon="5.86723">
        <ele>716</ele>
        <time>2025-10-08T10:59:16.800+00:00</time>
      </trkpt>
      <trkpt lat="46.61453" lon="5.86714">
        <ele>716</ele>
        <time>2025-10-08T10:59:21.460+00:00</time>
      </trkpt>
      <trkpt lat="46.61456" lon="5.86706">
        <ele>718</ele>
        <time>2025-10-08T10:59:26.075+00:00</time>
      </trkpt>
      <trkpt lat="46.61459" lon="5.86699">
        <ele>708</ele>
        <time>2025-10-08T10:59:30.795+00:00</time>
      </trkpt>
      <trkpt lat="46.61462" lon="5.86692">
        <ele>708</ele>
        <time>2025-10-08T10:59:35.614+00:00</time>
      </trkpt>
      <trkpt lat="46.61464" lon="5.86686">
        <ele>708</ele>
        <time>2025-10-08T10:59:40.300+00:00</time>
      </trkpt>
      <trkpt lat="46.61467" lon="5.86681">
        <ele>708</ele>
        <time>2025-10-08T10:59:44.317+00:00</time>
      </trkpt>
      <trkpt lat="46.6147" lon="5.86676">
        <ele>710</ele>
        <time>2025-10-08T10:59:48.635+00:00</time>
      </trkpt>
      <trkpt lat="46.61473" lon="5.8667">
        <ele>710</ele>
        <time>2025-10-08T10:59:53.276+00:00</time>
      </trkpt>
      <trkpt lat="46.61477" lon="5.86664">
        <ele>710</ele>
        <time>2025-10-08T10:59:57.773+00:00</time>
      </trkpt>
      <trkpt lat="46.61482" lon="5.86661">
        <ele>710</ele>
        <time>2025-10-08T11:00:01.997+00:00</time>
      </trkpt>
      <trkpt lat="46.61487" lon="5.86663">
        <ele>704</ele>
        <time>2025-10-08T11:00:06.296+00:00</time>
      </trkpt>
      <trkpt lat="46.61493" lon="5.86664">
        <ele>704</ele>
        <time>2025-10-08T11:00:10.537+00:00</time>
      </trkpt>
      <trkpt lat="46.61497" lon="5.86659">
        <ele>704</ele>
        <time>2025-10-08T11:00:14.773+00:00</time>
      </trkpt>
      <trkpt lat="46.61499" lon="5.86651">
        <ele>705</ele>
        <time>2025-10-08T11:00:19.240+00:00</time>
      </trkpt>
      <trkpt lat="46.61498" lon="5.86645">
        <ele>705</ele>
        <time>2025-10-08T11:00:23.354+00:00</time>
      </trkpt>
      <trkpt lat="46.61498" lon="5.86643">
        <ele>705</ele>
        <time>2025-10-08T11:00:27.381+00:00</time>
      </trkpt>
      <trkpt lat="46.61499" lon="5.86641">
        <ele>705</ele>
        <time>2025-10-08T11:00:31.398+00:00</time>
      </trkpt>
      <trkpt lat="46.61502" lon="5.86638">
        <ele>705</ele>
        <time>2025-10-08T11:00:35.434+00:00</time>
      </trkpt>
      <trkpt lat="46.61506" lon="5.86638">
        <ele>705</ele>
        <time>2025-10-08T11:00:39.641+00:00</time>
      </trkpt>
      <trkpt lat="46.61509" lon="5.86642">
        <ele>705</ele>
        <time>2025-10-08T11:00:43.773+00:00</time>
      </trkpt>
      <trkpt lat="46.61512" lon="5.86639">
        <ele>705</ele>
        <time>2025-10-08T11:00:48.773+00:00</time>
      </trkpt>
      <trkpt lat="46.61511" lon="5.86639">
        <ele>705</ele>
        <time>2025-10-08T11:00:52.773+00:00</time>
      </trkpt>
      <trkpt lat="46.61515" lon="5.86632">
        <ele>700</ele>
        <time>2025-10-08T11:00:57.217+00:00</time>
      </trkpt>
      <trkpt lat="46.61519" lon="5.86629">
        <ele>700</ele>
        <time>2025-10-08T11:01:01.296+00:00</time>
      </trkpt>
      <trkpt lat="46.61513" lon="5.86635">
        <ele>705</ele>
        <time>2025-10-08T11:02:04.773+00:00</time>
      </trkpt>
      <trkpt lat="46.61513" lon="5.86635">
        <ele>705</ele>
        <time>2025-10-08T11:02:08.773+00:00</time>
      </trkpt>
      <trkpt lat="46.61512" lon="5.86635">
        <ele>705</ele>
        <time>2025-10-08T11:02:12.774+00:00</time>
      </trkpt>
      <trkpt lat="46.61509" lon="5.8663">
        <ele>705</ele>
        <time>2025-10-08T11:02:17.419+00:00</time>
      </trkpt>
      <trkpt lat="46.61509" lon="5.86627">
        <ele>705</ele>
        <time>2025-10-08T11:02:21.773+00:00</time>
      </trkpt>
      <trkpt lat="46.61504" lon="5.86613">
        <ele>705</ele>
        <time>2025-10-08T11:04:00.772+00:00</time>
      </trkpt>
      <trkpt lat="46.61504" lon="5.86612">
        <ele>705</ele>
        <time>2025-10-08T11:04:05.159+00:00</time>
      </trkpt>
      <trkpt lat="46.61505" lon="5.86608">
        <ele>705</ele>
        <time>2025-10-08T11:04:09.622+00:00</time>
      </trkpt>
      <trkpt lat="46.61504" lon="5.86602">
        <ele>705</ele>
        <time>2025-10-08T11:04:14.045+00:00</time>
      </trkpt>
      <trkpt lat="46.61502" lon="5.86593">
        <ele>705</ele>
        <time>2025-10-08T11:04:18.182+00:00</time>
      </trkpt>
      <trkpt lat="46.61503" lon="5.86586">
        <ele>705</ele>
        <time>2025-10-08T11:04:22.772+00:00</time>
      </trkpt>
      <trkpt lat="46.61504" lon="5.8658">
        <ele>705</ele>
        <time>2025-10-08T11:04:27.441+00:00</time>
      </trkpt>
      <trkpt lat="46.61506" lon="5.86575">
        <ele>705</ele>
        <time>2025-10-08T11:04:31.503+00:00</time>
      </trkpt>
      <trkpt lat="46.61507" lon="5.8657">
        <ele>705</ele>
        <time>2025-10-08T11:04:35.772+00:00</time>
      </trkpt>
      <trkpt lat="46.61507" lon="5.86566">
        <ele>708</ele>
        <time>2025-10-08T11:04:40.702+00:00</time>
      </trkpt>
      <trkpt lat="46.61508" lon="5.86562">
        <ele>708</ele>
        <time>2025-10-08T11:04:44.781+00:00</time>
      </trkpt>
      <trkpt lat="46.61509" lon="5.86558">
        <ele>708</ele>
        <time>2025-10-08T11:04:48.773+00:00</time>
      </trkpt>
      <trkpt lat="46.6151" lon="5.86554">
        <ele>708</ele>
        <time>2025-10-08T11:04:53.101+00:00</time>
      </trkpt>
      <trkpt lat="46.6151" lon="5.86548">
        <ele>708</ele>
        <time>2025-10-08T11:04:57.105+00:00</time>
      </trkpt>
      <trkpt lat="46.6151" lon="5.86543">
        <ele>708</ele>
        <time>2025-10-08T11:05:01.277+00:00</time>
      </trkpt>
      <trkpt lat="46.61509" lon="5.86538">
        <ele>709</ele>
        <time>2025-10-08T11:05:05.760+00:00</time>
      </trkpt>
      <trkpt lat="46.61509" lon="5.86532">
        <ele>709</ele>
        <time>2025-10-08T11:05:10.772+00:00</time>
      </trkpt>
      <trkpt lat="46.61509" lon="5.86526">
        <ele>709</ele>
        <time>2025-10-08T11:05:15.772+00:00</time>
      </trkpt>
      <trkpt lat="46.61509" lon="5.86523">
        <ele>709</ele>
        <time>2025-10-08T11:05:19.772+00:00</time>
      </trkpt>
      <trkpt lat="46.61509" lon="5.86522">
        <ele>709</ele>
        <time>2025-10-08T11:05:24.418+00:00</time>
      </trkpt>
      <trkpt lat="46.61509" lon="5.86516">
        <ele>709</ele>
        <time>2025-10-08T11:05:28.883+00:00</time>
      </trkpt>
      <trkpt lat="46.61508" lon="5.8651">
        <ele>709</ele>
        <time>2025-10-08T11:05:33.720+00:00</time>
      </trkpt>
      <trkpt lat="46.61504" lon="5.86503">
        <ele>709</ele>
        <time>2025-10-08T11:05:51.239+00:00</time>
      </trkpt>
      <trkpt lat="46.61503" lon="5.86501">
        <ele>709</ele>
        <time>2025-10-08T11:05:55.616+00:00</time>
      </trkpt>
      <trkpt lat="46.61503" lon="5.86499">
        <ele>709</ele>
        <time>2025-10-08T11:06:00.772+00:00</time>
      </trkpt>
      <trkpt lat="46.61502" lon="5.86497">
        <ele>709</ele>
        <time>2025-10-08T11:06:05.772+00:00</time>
      </trkpt>
      <trkpt lat="46.61501" lon="5.86495">
        <ele>709</ele>
        <time>2025-10-08T11:06:10.420+00:00</time>
      </trkpt>
      <trkpt lat="46.61499" lon="5.86489">
        <ele>709</ele>
        <time>2025-10-08T11:06:18.773+00:00</time>
      </trkpt>
      <trkpt lat="46.61499" lon="5.86487">
        <ele>709</ele>
        <time>2025-10-08T11:06:23.772+00:00</time>
      </trkpt>
      <trkpt lat="46.61499" lon="5.86484">
        <ele>708</ele>
        <time>2025-10-08T11:06:28.121+00:00</time>
      </trkpt>
      <trkpt lat="46.615" lon="5.86477">
        <ele>708</ele>
        <time>2025-10-08T11:06:32.283+00:00</time>
      </trkpt>
      <trkpt lat="46.61502" lon="5.86472">
        <ele>708</ele>
        <time>2025-10-08T11:06:36.736+00:00</time>
      </trkpt>
      <trkpt lat="46.61502" lon="5.86465">
        <ele>708</ele>
        <time>2025-10-08T11:06:41.181+00:00</time>
      </trkpt>
      <trkpt lat="46.61503" lon="5.86459">
        <ele>708</ele>
        <time>2025-10-08T11:06:45.772+00:00</time>
      </trkpt>
      <trkpt lat="46.61505" lon="5.86455">
        <ele>708</ele>
        <time>2025-10-08T11:06:49.772+00:00</time>
      </trkpt>
      <trkpt lat="46.61507" lon="5.8645">
        <ele>708</ele>
        <time>2025-10-08T11:06:54.117+00:00</time>
      </trkpt>
      <trkpt lat="46.61507" lon="5.86448">
        <ele>708</ele>
        <time>2025-10-08T11:06:59.772+00:00</time>
      </trkpt>
      <trkpt lat="46.61509" lon="5.86445">
        <ele>708</ele>
        <time>2025-10-08T11:07:04.117+00:00</time>
      </trkpt>
      <trkpt lat="46.61512" lon="5.86442">
        <ele>708</ele>
        <time>2025-10-08T11:07:08.759+00:00</time>
      </trkpt>
      <trkpt lat="46.61515" lon="5.8644">
        <ele>701</ele>
        <time>2025-10-08T11:07:12.772+00:00</time>
      </trkpt>
      <trkpt lat="46.61518" lon="5.86428">
        <ele>700</ele>
        <time>2025-10-08T11:07:30.772+00:00</time>
      </trkpt>
      <trkpt lat="46.61518" lon="5.86428">
        <ele>700</ele>
        <time>2025-10-08T11:07:35.565+00:00</time>
      </trkpt>
      <trkpt lat="46.6152" lon="5.86423">
        <ele>700</ele>
        <time>2025-10-08T11:07:40.579+00:00</time>
      </trkpt>
      <trkpt lat="46.6152" lon="5.86418">
        <ele>700</ele>
        <time>2025-10-08T11:07:44.772+00:00</time>
      </trkpt>
      <trkpt lat="46.61519" lon="5.86412">
        <ele>700</ele>
        <time>2025-10-08T11:07:49.016+00:00</time>
      </trkpt>
      <trkpt lat="46.61518" lon="5.86406">
        <ele>700</ele>
        <time>2025-10-08T11:07:53.641+00:00</time>
      </trkpt>
      <trkpt lat="46.61517" lon="5.86403">
        <ele>700</ele>
        <time>2025-10-08T11:07:58.164+00:00</time>
      </trkpt>
      <trkpt lat="46.61515" lon="5.86399">
        <ele>702</ele>
        <time>2025-10-08T11:08:02.439+00:00</time>
      </trkpt>
      <trkpt lat="46.61513" lon="5.86396">
        <ele>711</ele>
        <time>2025-10-08T11:08:06.602+00:00</time>
      </trkpt>
      <trkpt lat="46.61513" lon="5.86393">
        <ele>711</ele>
        <time>2025-10-08T11:08:10.772+00:00</time>
      </trkpt>
      <trkpt lat="46.61517" lon="5.86383">
        <ele>702</ele>
        <time>2025-10-08T11:08:39.773+00:00</time>
      </trkpt>
      <trkpt lat="46.61517" lon="5.86383">
        <ele>702</ele>
        <time>2025-10-08T11:08:44.772+00:00</time>
      </trkpt>
      <trkpt lat="46.61517" lon="5.86383">
        <ele>702</ele>
        <time>2025-10-08T11:08:50.528+00:00</time>
      </trkpt>
      <trkpt lat="46.61518" lon="5.86381">
        <ele>702</ele>
        <time>2025-10-08T11:08:54.772+00:00</time>
      </trkpt>
      <trkpt lat="46.61519" lon="5.86376">
        <ele>702</ele>
        <time>2025-10-08T11:08:59.772+00:00</time>
      </trkpt>
      <trkpt lat="46.61527" lon="5.86366">
        <ele>706</ele>
        <time>2025-10-08T11:09:44.772+00:00</time>
      </trkpt>
      <trkpt lat="46.61527" lon="5.86366">
        <ele>706</ele>
        <time>2025-10-08T11:09:49.772+00:00</time>
      </trkpt>
      <trkpt lat="46.61528" lon="5.86365">
        <ele>706</ele>
        <time>2025-10-08T11:09:54.771+00:00</time>
      </trkpt>
      <trkpt lat="46.61528" lon="5.86365">
        <ele>706</ele>
        <time>2025-10-08T11:09:59.771+00:00</time>
      </trkpt>
      <trkpt lat="46.61528" lon="5.86364">
        <ele>706</ele>
        <time>2025-10-08T11:10:04.226+00:00</time>
      </trkpt>
      <trkpt lat="46.61537" lon="5.86346">
        <ele>708</ele>
        <time>2025-10-08T11:10:22.018+00:00</time>
      </trkpt>
      <trkpt lat="46.61539" lon="5.86342">
        <ele>708</ele>
        <time>2025-10-08T11:10:26.150+00:00</time>
      </trkpt>
      <trkpt lat="46.6154" lon="5.86339">
        <ele>708</ele>
        <time>2025-10-08T11:10:30.267+00:00</time>
      </trkpt>
      <trkpt lat="46.6154" lon="5.86333">
        <ele>708</ele>
        <time>2025-10-08T11:10:34.484+00:00</time>
      </trkpt>
      <trkpt lat="46.61538" lon="5.86329">
        <ele>708</ele>
        <time>2025-10-08T11:10:38.771+00:00</time>
      </trkpt>
      <trkpt lat="46.61539" lon="5.86328">
        <ele>708</ele>
        <time>2025-10-08T11:11:08.771+00:00</time>
      </trkpt>
      <trkpt lat="46.61536" lon="5.86324">
        <ele>708</ele>
        <time>2025-10-08T11:11:13.771+00:00</time>
      </trkpt>
      <trkpt lat="46.61536" lon="5.86322">
        <ele>708</ele>
        <time>2025-10-08T11:11:17.771+00:00</time>
      </trkpt>
      <trkpt lat="46.61537" lon="5.86318">
        <ele>706</ele>
        <time>2025-10-08T11:11:21.771+00:00</time>
      </trkpt>
      <trkpt lat="46.61535" lon="5.86309">
        <ele>706</ele>
        <time>2025-10-08T11:11:26.403+00:00</time>
      </trkpt>
      <trkpt lat="46.61535" lon="5.86304">
        <ele>706</ele>
        <time>2025-10-08T11:11:30.421+00:00</time>
      </trkpt>
      <trkpt lat="46.61533" lon="5.86299">
        <ele>706</ele>
        <time>2025-10-08T11:11:34.441+00:00</time>
      </trkpt>
      <trkpt lat="46.6153" lon="5.86293">
        <ele>706</ele>
        <time>2025-10-08T11:11:38.520+00:00</time>
      </trkpt>
      <trkpt lat="46.61528" lon="5.86289">
        <ele>703</ele>
        <time>2025-10-08T11:11:42.771+00:00</time>
      </trkpt>
      <trkpt lat="46.61528" lon="5.86286">
        <ele>703</ele>
        <time>2025-10-08T11:11:58.771+00:00</time>
      </trkpt>
      <trkpt lat="46.61527" lon="5.86284">
        <ele>703</ele>
        <time>2025-10-08T11:12:03.380+00:00</time>
      </trkpt>
      <trkpt lat="46.61525" lon="5.86277">
        <ele>703</ele>
        <time>2025-10-08T11:12:07.560+00:00</time>
      </trkpt>
      <trkpt lat="46.61523" lon="5.86274">
        <ele>703</ele>
        <time>2025-10-08T11:12:11.784+00:00</time>
      </trkpt>
      <trkpt lat="46.6152" lon="5.8627">
        <ele>703</ele>
        <time>2025-10-08T11:12:16.059+00:00</time>
      </trkpt>
      <trkpt lat="46.61512" lon="5.86257">
        <ele>708</ele>
        <time>2025-10-08T11:13:22.771+00:00</time>
      </trkpt>
      <trkpt lat="46.61512" lon="5.86257">
        <ele>708</ele>
        <time>2025-10-08T11:13:37.771+00:00</time>
      </trkpt>
      <trkpt lat="46.6151" lon="5.86257">
        <ele>708</ele>
        <time>2025-10-08T11:13:41.771+00:00</time>
      </trkpt>
      <trkpt lat="46.61508" lon="5.86255">
        <ele>708</ele>
        <time>2025-10-08T11:13:46.595+00:00</time>
      </trkpt>
      <trkpt lat="46.61505" lon="5.86251">
        <ele>708</ele>
        <time>2025-10-08T11:13:50.771+00:00</time>
      </trkpt>
      <trkpt lat="46.61503" lon="5.86247">
        <ele>708</ele>
        <time>2025-10-08T11:13:54.745+00:00</time>
      </trkpt>
      <trkpt lat="46.61499" lon="5.8624">
        <ele>708</ele>
        <time>2025-10-08T11:13:59.379+00:00</time>
      </trkpt>
      <trkpt lat="46.61496" lon="5.86237">
        <ele>708</ele>
        <time>2025-10-08T11:14:03.534+00:00</time>
      </trkpt>
      <trkpt lat="46.61495" lon="5.86235">
        <ele>704</ele>
        <time>2025-10-08T11:14:07.758+00:00</time>
      </trkpt>
      <trkpt lat="46.61496" lon="5.8623">
        <ele>704</ele>
        <time>2025-10-08T11:14:11.771+00:00</time>
      </trkpt>
      <trkpt lat="46.61497" lon="5.86223">
        <ele>704</ele>
        <time>2025-10-08T11:14:16.556+00:00</time>
      </trkpt>
      <trkpt lat="46.61497" lon="5.86219">
        <ele>704</ele>
        <time>2025-10-08T11:14:21.539+00:00</time>
      </trkpt>
      <trkpt lat="46.61498" lon="5.86211">
        <ele>704</ele>
        <time>2025-10-08T11:14:25.771+00:00</time>
      </trkpt>
      <trkpt lat="46.61497" lon="5.86208">
        <ele>704</ele>
        <time>2025-10-08T11:15:31.415+00:00</time>
      </trkpt>
      <trkpt lat="46.61492" lon="5.86202">
        <ele>702</ele>
        <time>2025-10-08T11:15:35.770+00:00</time>
      </trkpt>
      <trkpt lat="46.61489" lon="5.86194">
        <ele>702</ele>
        <time>2025-10-08T11:15:40.495+00:00</time>
      </trkpt>
      <trkpt lat="46.61487" lon="5.86185">
        <ele>702</ele>
        <time>2025-10-08T11:15:45.497+00:00</time>
      </trkpt>
      <trkpt lat="46.61488" lon="5.8618">
        <ele>700</ele>
        <time>2025-10-08T11:15:49.635+00:00</time>
      </trkpt>
      <trkpt lat="46.61492" lon="5.86177">
        <ele>700</ele>
        <time>2025-10-08T11:15:54.770+00:00</time>
      </trkpt>
      <trkpt lat="46.61494" lon="5.86172">
        <ele>700</ele>
        <time>2025-10-08T11:15:59.619+00:00</time>
      </trkpt>
      <trkpt lat="46.61494" lon="5.86166">
        <ele>700</ele>
        <time>2025-10-08T11:16:04.771+00:00</time>
      </trkpt>
      <trkpt lat="46.61491" lon="5.8616">
        <ele>700</ele>
        <time>2025-10-08T11:16:09.270+00:00</time>
      </trkpt>
      <trkpt lat="46.61488" lon="5.86155">
        <ele>700</ele>
        <time>2025-10-08T11:16:13.770+00:00</time>
      </trkpt>
      <trkpt lat="46.61485" lon="5.86151">
        <ele>708</ele>
        <time>2025-10-08T11:16:18.189+00:00</time>
      </trkpt>
      <trkpt lat="46.61485" lon="5.86147">
        <ele>708</ele>
        <time>2025-10-08T11:16:22.770+00:00</time>
      </trkpt>
      <trkpt lat="46.61484" lon="5.86139">
        <ele>708</ele>
        <time>2025-10-08T11:16:27.566+00:00</time>
      </trkpt>
      <trkpt lat="46.61483" lon="5.86138">
        <ele>708</ele>
        <time>2025-10-08T11:16:36.771+00:00</time>
      </trkpt>
      <trkpt lat="46.61483" lon="5.86132">
        <ele>708</ele>
        <time>2025-10-08T11:16:41.770+00:00</time>
      </trkpt>
      <trkpt lat="46.61484" lon="5.86131">
        <ele>708</ele>
        <time>2025-10-08T11:16:46.770+00:00</time>
      </trkpt>
      <trkpt lat="46.61484" lon="5.86129">
        <ele>708</ele>
        <time>2025-10-08T11:16:51.770+00:00</time>
      </trkpt>
      <trkpt lat="46.61485" lon="5.86125">
        <ele>708</ele>
        <time>2025-10-08T11:16:56.129+00:00</time>
      </trkpt>
      <trkpt lat="46.61485" lon="5.86108">
        <ele>708</ele>
        <time>2025-10-08T11:17:18.770+00:00</time>
      </trkpt>
      <trkpt lat="46.61484" lon="5.86108">
        <ele>708</ele>
        <time>2025-10-08T11:17:23.770+00:00</time>
      </trkpt>
      <trkpt lat="46.61483" lon="5.86108">
        <ele>708</ele>
        <time>2025-10-08T11:17:27.770+00:00</time>
      </trkpt>
      <trkpt lat="46.61485" lon="5.86106">
        <ele>708</ele>
        <time>2025-10-08T11:17:32.671+00:00</time>
      </trkpt>
      <trkpt lat="46.61482" lon="5.86098">
        <ele>708</ele>
        <time>2025-10-08T11:17:37.770+00:00</time>
      </trkpt>
      <trkpt lat="46.61479" lon="5.86088">
        <ele>705</ele>
        <time>2025-10-08T11:17:42.648+00:00</time>
      </trkpt>
      <trkpt lat="46.61481" lon="5.86082">
        <ele>705</ele>
        <time>2025-10-08T11:17:46.692+00:00</time>
      </trkpt>
      <trkpt lat="46.61483" lon="5.86077">
        <ele>705</ele>
        <time>2025-10-08T11:17:50.770+00:00</time>
      </trkpt>
      <trkpt lat="46.61484" lon="5.86074">
        <ele>705</ele>
        <time>2025-10-08T11:17:55.772+00:00</time>
      </trkpt>
      <trkpt lat="46.61478" lon="5.8608">
        <ele>705</ele>
        <time>2025-10-08T11:18:43.770+00:00</time>
      </trkpt>
      <trkpt lat="46.61477" lon="5.86079">
        <ele>705</ele>
        <time>2025-10-08T11:18:48.770+00:00</time>
      </trkpt>
      <trkpt lat="46.61476" lon="5.86079">
        <ele>705</ele>
        <time>2025-10-08T11:18:52.770+00:00</time>
      </trkpt>
      <trkpt lat="46.61474" lon="5.86078">
        <ele>705</ele>
        <time>2025-10-08T11:18:57.155+00:00</time>
      </trkpt>
      <trkpt lat="46.61472" lon="5.86073">
        <ele>705</ele>
        <time>2025-10-08T11:19:01.325+00:00</time>
      </trkpt>
      <trkpt lat="46.61468" lon="5.86066">
        <ele>696</ele>
        <time>2025-10-08T11:20:39.769+00:00</time>
      </trkpt>
      <trkpt lat="46.61464" lon="5.86066">
        <ele>696</ele>
        <time>2025-10-08T11:20:44.769+00:00</time>
      </trkpt>
      <trkpt lat="46.61463" lon="5.86065">
        <ele>696</ele>
        <time>2025-10-08T11:20:49.769+00:00</time>
      </trkpt>
      <trkpt lat="46.61463" lon="5.86064">
        <ele>696</ele>
        <time>2025-10-08T11:20:53.770+00:00</time>
      </trkpt>
      <trkpt lat="46.61461" lon="5.86063">
        <ele>696</ele>
        <time>2025-10-08T11:20:58.477+00:00</time>
      </trkpt>
      <trkpt lat="46.61456" lon="5.86057">
        <ele>715</ele>
        <time>2025-10-08T11:21:02.769+00:00</time>
      </trkpt>
      <trkpt lat="46.61452" lon="5.8605">
        <ele>715</ele>
        <time>2025-10-08T11:21:07.231+00:00</time>
      </trkpt>
      <trkpt lat="46.61449" lon="5.86045">
        <ele>715</ele>
        <time>2025-10-08T11:21:11.769+00:00</time>
      </trkpt>
      <trkpt lat="46.61444" lon="5.86042">
        <ele>715</ele>
        <time>2025-10-08T11:21:16.593+00:00</time>
      </trkpt>
      <trkpt lat="46.61442" lon="5.86036">
        <ele>698</ele>
        <time>2025-10-08T11:21:21.234+00:00</time>
      </trkpt>
      <trkpt lat="46.6144" lon="5.86033">
        <ele>698</ele>
        <time>2025-10-08T11:21:25.770+00:00</time>
      </trkpt>
      <trkpt lat="46.61438" lon="5.86025">
        <ele>698</ele>
        <time>2025-10-08T11:21:30.750+00:00</time>
      </trkpt>
      <trkpt lat="46.61439" lon="5.86019">
        <ele>698</ele>
        <time>2025-10-08T11:21:35.511+00:00</time>
      </trkpt>
      <trkpt lat="46.61433" lon="5.86014">
        <ele>698</ele>
        <time>2025-10-08T11:21:53.769+00:00</time>
      </trkpt>
      <trkpt lat="46.6143" lon="5.86009">
        <ele>698</ele>
        <time>2025-10-08T11:21:58.605+00:00</time>
      </trkpt>
      <trkpt lat="46.61427" lon="5.86002">
        <ele>698</ele>
        <time>2025-10-08T11:22:02.769+00:00</time>
      </trkpt>
      <trkpt lat="46.61425" lon="5.8599">
        <ele>698</ele>
        <time>2025-10-08T11:22:07.286+00:00</time>
      </trkpt>
      <trkpt lat="46.61422" lon="5.85982">
        <ele>691</ele>
        <time>2025-10-08T11:22:11.769+00:00</time>
      </trkpt>
      <trkpt lat="46.61421" lon="5.85981">
        <ele>691</ele>
        <time>2025-10-08T11:22:16.769+00:00</time>
      </trkpt>
      <trkpt lat="46.6142" lon="5.8598">
        <ele>691</ele>
        <time>2025-10-08T11:22:21.770+00:00</time>
      </trkpt>
      <trkpt lat="46.61414" lon="5.85975">
        <ele>691</ele>
        <time>2025-10-08T11:22:26.732+00:00</time>
      </trkpt>
      <trkpt lat="46.61412" lon="5.85965">
        <ele>691</ele>
        <time>2025-10-08T11:22:30.769+00:00</time>
      </trkpt>
      <trkpt lat="46.61408" lon="5.85959">
        <ele>691</ele>
        <time>2025-10-08T11:22:35.625+00:00</time>
      </trkpt>
      <trkpt lat="46.61406" lon="5.85949">
        <ele>687</ele>
        <time>2025-10-08T11:22:40.071+00:00</time>
      </trkpt>
      <trkpt lat="46.61403" lon="5.8594">
        <ele>687</ele>
        <time>2025-10-08T11:22:44.567+00:00</time>
      </trkpt>
      <trkpt lat="46.614" lon="5.85933">
        <ele>697</ele>
        <time>2025-10-08T11:22:48.707+00:00</time>
      </trkpt>
      <trkpt lat="46.61394" lon="5.85916">
        <ele>689</ele>
        <time>2025-10-08T11:23:16.769+00:00</time>
      </trkpt>
      <trkpt lat="46.61393" lon="5.85914">
        <ele>689</ele>
        <time>2025-10-08T11:23:21.177+00:00</time>
      </trkpt>
      <trkpt lat="46.61385" lon="5.85909">
        <ele>689</ele>
        <time>2025-10-08T11:23:25.769+00:00</time>
      </trkpt>
      <trkpt lat="46.61382" lon="5.85903">
        <ele>679</ele>
        <time>2025-10-08T11:23:30.085+00:00</time>
      </trkpt>
      <trkpt lat="46.6138" lon="5.85896">
        <ele>679</ele>
        <time>2025-10-08T11:23:34.590+00:00</time>
      </trkpt>
      <trkpt lat="46.61377" lon="5.85893">
        <ele>679</ele>
        <time>2025-10-08T11:23:38.770+00:00</time>
      </trkpt>
      <trkpt lat="46.61375" lon="5.85888">
        <ele>679</ele>
        <time>2025-10-08T11:23:43.370+00:00</time>
      </trkpt>
      <trkpt lat="46.61375" lon="5.85884">
        <ele>699</ele>
        <time>2025-10-08T11:23:47.748+00:00</time>
      </trkpt>
      <trkpt lat="46.61374" lon="5.85879">
        <ele>699</ele>
        <time>2025-10-08T11:23:51.769+00:00</time>
      </trkpt>
      <trkpt lat="46.61373" lon="5.85874">
        <ele>689</ele>
        <time>2025-10-08T11:23:56.349+00:00</time>
      </trkpt>
      <trkpt lat="46.61376" lon="5.85874">
        <ele>676</ele>
        <time>2025-10-08T11:24:00.769+00:00</time>
      </trkpt>
      <trkpt lat="46.61379" lon="5.85878">
        <ele>679</ele>
        <time>2025-10-08T11:24:05.769+00:00</time>
      </trkpt>
      <trkpt lat="46.61381" lon="5.85883">
        <ele>679</ele>
        <time>2025-10-08T11:24:10.372+00:00</time>
      </trkpt>
      <trkpt lat="46.61382" lon="5.85885">
        <ele>679</ele>
        <time>2025-10-08T11:24:14.507+00:00</time>
      </trkpt>
      <trkpt lat="46.61384" lon="5.8589">
        <ele>679</ele>
        <time>2025-10-08T11:24:18.969+00:00</time>
      </trkpt>
      <trkpt lat="46.61386" lon="5.85896">
        <ele>679</ele>
        <time>2025-10-08T11:24:23.407+00:00</time>
      </trkpt>
      <trkpt lat="46.61388" lon="5.85902">
        <ele>679</ele>
        <time>2025-10-08T11:24:28.211+00:00</time>
      </trkpt>
      <trkpt lat="46.61393" lon="5.85908">
        <ele>689</ele>
        <time>2025-10-08T11:24:42.769+00:00</time>
      </trkpt>
      <trkpt lat="46.61394" lon="5.85907">
        <ele>689</ele>
        <time>2025-10-08T11:24:51.381+00:00</time>
      </trkpt>
      <trkpt lat="46.61396" lon="5.85914">
        <ele>689</ele>
        <time>2025-10-08T11:24:55.995+00:00</time>
      </trkpt>
      <trkpt lat="46.61399" lon="5.85921">
        <ele>689</ele>
        <time>2025-10-08T11:25:00.249+00:00</time>
      </trkpt>
      <trkpt lat="46.61403" lon="5.85925">
        <ele>689</ele>
        <time>2025-10-08T11:25:04.450+00:00</time>
      </trkpt>
      <trkpt lat="46.61409" lon="5.85921">
        <ele>676</ele>
        <time>2025-10-08T11:28:52.534+00:00</time>
      </trkpt>
      <trkpt lat="46.61407" lon="5.85914">
        <ele>676</ele>
        <time>2025-10-08T11:28:56.652+00:00</time>
      </trkpt>
      <trkpt lat="46.61401" lon="5.85908">
        <ele>689</ele>
        <time>2025-10-08T11:29:01.004+00:00</time>
      </trkpt>
      <trkpt lat="46.61398" lon="5.85902">
        <ele>679</ele>
        <time>2025-10-08T11:29:05.487+00:00</time>
      </trkpt>
      <trkpt lat="46.61394" lon="5.85899">
        <ele>679</ele>
        <time>2025-10-08T11:29:09.769+00:00</time>
      </trkpt>
      <trkpt lat="46.61391" lon="5.85896">
        <ele>679</ele>
        <time>2025-10-08T11:29:14.144+00:00</time>
      </trkpt>
      <trkpt lat="46.61389" lon="5.85893">
        <ele>679</ele>
        <time>2025-10-08T11:29:18.583+00:00</time>
      </trkpt>
      <trkpt lat="46.61388" lon="5.85891">
        <ele>679</ele>
        <time>2025-10-08T11:29:22.763+00:00</time>
      </trkpt>
      <trkpt lat="46.61386" lon="5.85886">
        <ele>679</ele>
        <time>2025-10-08T11:29:27.406+00:00</time>
      </trkpt>
      <trkpt lat="46.61384" lon="5.85883">
        <ele>679</ele>
        <time>2025-10-08T11:29:31.513+00:00</time>
      </trkpt>
      <trkpt lat="46.61383" lon="5.8588">
        <ele>679</ele>
        <time>2025-10-08T11:29:35.769+00:00</time>
      </trkpt>
      <trkpt lat="46.61383" lon="5.85879">
        <ele>679</ele>
        <time>2025-10-08T11:29:40.206+00:00</time>
      </trkpt>
      <trkpt lat="46.61381" lon="5.85873">
        <ele>676</ele>
        <time>2025-10-08T11:29:44.679+00:00</time>
      </trkpt>
      <trkpt lat="46.61381" lon="5.8587">
        <ele>676</ele>
        <time>2025-10-08T11:29:48.777+00:00</time>
      </trkpt>
      <trkpt lat="46.61381" lon="5.85865">
        <ele>676</ele>
        <time>2025-10-08T11:29:53.364+00:00</time>
      </trkpt>
      <trkpt lat="46.61381" lon="5.85859">
        <ele>676</ele>
        <time>2025-10-08T11:29:57.726+00:00</time>
      </trkpt>
      <trkpt lat="46.61381" lon="5.85854">
        <ele>676</ele>
        <time>2025-10-08T11:30:02.164+00:00</time>
      </trkpt>
      <trkpt lat="46.61381" lon="5.8585">
        <ele>676</ele>
        <time>2025-10-08T11:30:06.562+00:00</time>
      </trkpt>
      <trkpt lat="46.6138" lon="5.85845">
        <ele>658</ele>
        <time>2025-10-08T11:30:10.646+00:00</time>
      </trkpt>
      <trkpt lat="46.6138" lon="5.85841">
        <ele>658</ele>
        <time>2025-10-08T11:30:15.201+00:00</time>
      </trkpt>
      <trkpt lat="46.61382" lon="5.85838">
        <ele>658</ele>
        <time>2025-10-08T11:30:19.768+00:00</time>
      </trkpt>
      <trkpt lat="46.61383" lon="5.85837">
        <ele>658</ele>
        <time>2025-10-08T11:30:25.539+00:00</time>
      </trkpt>
      <trkpt lat="46.61385" lon="5.85834">
        <ele>658</ele>
        <time>2025-10-08T11:30:29.637+00:00</time>
      </trkpt>
      <trkpt lat="46.61387" lon="5.85829">
        <ele>658</ele>
        <time>2025-10-08T11:30:33.768+00:00</time>
      </trkpt>
      <trkpt lat="46.61392" lon="5.85816">
        <ele>649</ele>
        <time>2025-10-08T11:30:55.768+00:00</time>
      </trkpt>
      <trkpt lat="46.61389" lon="5.85813">
        <ele>649</ele>
        <time>2025-10-08T11:31:00.617+00:00</time>
      </trkpt>
      <trkpt lat="46.61386" lon="5.85809">
        <ele>649</ele>
        <time>2025-10-08T11:31:05.005+00:00</time>
      </trkpt>
      <trkpt lat="46.61385" lon="5.85804">
        <ele>649</ele>
        <time>2025-10-08T11:31:09.609+00:00</time>
      </trkpt>
      <trkpt lat="46.61386" lon="5.858">
        <ele>649</ele>
        <time>2025-10-08T11:31:13.768+00:00</time>
      </trkpt>
      <trkpt lat="46.61388" lon="5.85798">
        <ele>649</ele>
        <time>2025-10-08T11:31:18.043+00:00</time>
      </trkpt>
      <trkpt lat="46.61389" lon="5.85791">
        <ele>644</ele>
        <time>2025-10-08T11:31:22.241+00:00</time>
      </trkpt>
      <trkpt lat="46.61389" lon="5.85784">
        <ele>644</ele>
        <time>2025-10-08T11:31:26.679+00:00</time>
      </trkpt>
      <trkpt lat="46.61387" lon="5.85777">
        <ele>644</ele>
        <time>2025-10-08T11:31:30.979+00:00</time>
      </trkpt>
      <trkpt lat="46.61386" lon="5.85768">
        <ele>644</ele>
        <time>2025-10-08T11:31:35.263+00:00</time>
      </trkpt>
      <trkpt lat="46.61384" lon="5.85762">
        <ele>637</ele>
        <time>2025-10-08T11:31:39.768+00:00</time>
      </trkpt>
      <trkpt lat="46.61384" lon="5.85755">
        <ele>637</ele>
        <time>2025-10-08T11:31:44.257+00:00</time>
      </trkpt>
      <trkpt lat="46.61384" lon="5.85749">
        <ele>637</ele>
        <time>2025-10-08T11:31:48.585+00:00</time>
      </trkpt>
      <trkpt lat="46.61385" lon="5.85743">
        <ele>637</ele>
        <time>2025-10-08T11:31:52.769+00:00</time>
      </trkpt>
      <trkpt lat="46.61384" lon="5.85737">
        <ele>637</ele>
        <time>2025-10-08T11:31:57.324+00:00</time>
      </trkpt>
      <trkpt lat="46.61384" lon="5.85732">
        <ele>635</ele>
        <time>2025-10-08T11:32:01.768+00:00</time>
      </trkpt>
      <trkpt lat="46.61385" lon="5.85726">
        <ele>635</ele>
        <time>2025-10-08T11:32:06.444+00:00</time>
      </trkpt>
      <trkpt lat="46.61384" lon="5.85721">
        <ele>635</ele>
        <time>2025-10-08T11:32:10.626+00:00</time>
      </trkpt>
      <trkpt lat="46.6139" lon="5.85718">
        <ele>635</ele>
        <time>2025-10-08T11:32:15.497+00:00</time>
      </trkpt>
      <trkpt lat="46.61389" lon="5.85711">
        <ele>635</ele>
        <time>2025-10-08T11:32:19.769+00:00</time>
      </trkpt>
      <trkpt lat="46.61389" lon="5.85707">
        <ele>634</ele>
        <time>2025-10-08T11:32:23.816+00:00</time>
      </trkpt>
      <trkpt lat="46.6139" lon="5.85702">
        <ele>634</ele>
        <time>2025-10-08T11:32:28.297+00:00</time>
      </trkpt>
      <trkpt lat="46.61392" lon="5.85698">
        <ele>634</ele>
        <time>2025-10-08T11:32:32.623+00:00</time>
      </trkpt>
      <trkpt lat="46.61391" lon="5.85694">
        <ele>634</ele>
        <time>2025-10-08T11:32:37.018+00:00</time>
      </trkpt>
      <trkpt lat="46.61394" lon="5.85691">
        <ele>634</ele>
        <time>2025-10-08T11:32:41.539+00:00</time>
      </trkpt>
      <trkpt lat="46.61397" lon="5.85688">
        <ele>634</ele>
        <time>2025-10-08T11:32:45.768+00:00</time>
      </trkpt>
      <trkpt lat="46.614" lon="5.85686">
        <ele>634</ele>
        <time>2025-10-08T11:32:50.081+00:00</time>
      </trkpt>
      <trkpt lat="46.61401" lon="5.85682">
        <ele>634</ele>
        <time>2025-10-08T11:32:54.119+00:00</time>
      </trkpt>
      <trkpt lat="46.614" lon="5.85678">
        <ele>629</ele>
        <time>2025-10-08T11:32:58.340+00:00</time>
      </trkpt>
      <trkpt lat="46.61398" lon="5.85674">
        <ele>629</ele>
        <time>2025-10-08T11:33:02.420+00:00</time>
      </trkpt>
      <trkpt lat="46.61398" lon="5.85671">
        <ele>629</ele>
        <time>2025-10-08T11:33:06.769+00:00</time>
      </trkpt>
      <trkpt lat="46.61396" lon="5.85669">
        <ele>629</ele>
        <time>2025-10-08T11:33:11.600+00:00</time>
      </trkpt>
      <trkpt lat="46.61394" lon="5.85667">
        <ele>629</ele>
        <time>2025-10-08T11:33:16.158+00:00</time>
      </trkpt>
      <trkpt lat="46.61393" lon="5.85662">
        <ele>629</ele>
        <time>2025-10-08T11:33:20.543+00:00</time>
      </trkpt>
      <trkpt lat="46.61392" lon="5.85656">
        <ele>629</ele>
        <time>2025-10-08T11:33:24.639+00:00</time>
      </trkpt>
      <trkpt lat="46.61392" lon="5.85651">
        <ele>623</ele>
        <time>2025-10-08T11:33:29.342+00:00</time>
      </trkpt>
      <trkpt lat="46.61394" lon="5.85649">
        <ele>623</ele>
        <time>2025-10-08T11:33:33.522+00:00</time>
      </trkpt>
      <trkpt lat="46.61397" lon="5.85647">
        <ele>623</ele>
        <time>2025-10-08T11:33:37.768+00:00</time>
      </trkpt>
      <trkpt lat="46.61399" lon="5.85644">
        <ele>623</ele>
        <time>2025-10-08T11:33:42.703+00:00</time>
      </trkpt>
      <trkpt lat="46.61403" lon="5.85646">
        <ele>624</ele>
        <time>2025-10-08T11:33:46.767+00:00</time>
      </trkpt>
      <trkpt lat="46.61406" lon="5.85647">
        <ele>624</ele>
        <time>2025-10-08T11:33:50.768+00:00</time>
      </trkpt>
      <trkpt lat="46.61408" lon="5.85645">
        <ele>624</ele>
        <time>2025-10-08T11:33:55.788+00:00</time>
      </trkpt>
      <trkpt lat="46.61411" lon="5.8564">
        <ele>624</ele>
        <time>2025-10-08T11:34:00.129+00:00</time>
      </trkpt>
      <trkpt lat="46.61413" lon="5.85636">
        <ele>624</ele>
        <time>2025-10-08T11:34:04.778+00:00</time>
      </trkpt>
      <trkpt lat="46.61411" lon="5.85629">
        <ele>624</ele>
        <time>2025-10-08T11:34:09.121+00:00</time>
      </trkpt>
      <trkpt lat="46.61408" lon="5.85621">
        <ele>615</ele>
        <time>2025-10-08T11:34:13.480+00:00</time>
      </trkpt>
      <trkpt lat="46.61404" lon="5.85613">
        <ele>615</ele>
        <time>2025-10-08T11:34:18.378+00:00</time>
      </trkpt>
      <trkpt lat="46.61402" lon="5.85607">
        <ele>619</ele>
        <time>2025-10-08T11:34:22.768+00:00</time>
      </trkpt>
      <trkpt lat="46.61409" lon="5.85606">
        <ele>615</ele>
        <time>2025-10-08T11:35:26.767+00:00</time>
      </trkpt>
      <trkpt lat="46.61411" lon="5.85603">
        <ele>615</ele>
        <time>2025-10-08T11:35:31.535+00:00</time>
      </trkpt>
      <trkpt lat="46.6141" lon="5.85595">
        <ele>608</ele>
        <time>2025-10-08T11:35:35.656+00:00</time>
      </trkpt>
      <trkpt lat="46.61411" lon="5.85586">
        <ele>608</ele>
        <time>2025-10-08T11:35:40.298+00:00</time>
      </trkpt>
      <trkpt lat="46.61413" lon="5.8558">
        <ele>608</ele>
        <time>2025-10-08T11:35:44.418+00:00</time>
      </trkpt>
      <trkpt lat="46.61415" lon="5.85574">
        <ele>608</ele>
        <time>2025-10-08T11:35:48.616+00:00</time>
      </trkpt>
      <trkpt lat="46.61414" lon="5.85571">
        <ele>608</ele>
        <time>2025-10-08T11:35:52.767+00:00</time>
      </trkpt>
      <trkpt lat="46.61411" lon="5.85565">
        <ele>606</ele>
        <time>2025-10-08T11:35:57.320+00:00</time>
      </trkpt>
      <trkpt lat="46.61409" lon="5.85558">
        <ele>606</ele>
        <time>2025-10-08T11:36:01.339+00:00</time>
      </trkpt>
      <trkpt lat="46.6141" lon="5.85552">
        <ele>606</ele>
        <time>2025-10-08T11:36:05.759+00:00</time>
      </trkpt>
      <trkpt lat="46.61407" lon="5.85548">
        <ele>606</ele>
        <time>2025-10-08T11:36:10.417+00:00</time>
      </trkpt>
      <trkpt lat="46.61407" lon="5.85542">
        <ele>602</ele>
        <time>2025-10-08T11:36:14.767+00:00</time>
      </trkpt>
      <trkpt lat="46.61406" lon="5.85535">
        <ele>602</ele>
        <time>2025-10-08T11:36:19.718+00:00</time>
      </trkpt>
      <trkpt lat="46.61404" lon="5.85531">
        <ele>602</ele>
        <time>2025-10-08T11:36:23.767+00:00</time>
      </trkpt>
      <trkpt lat="46.614" lon="5.85531">
        <ele>603</ele>
        <time>2025-10-08T11:36:28.355+00:00</time>
      </trkpt>
      <trkpt lat="46.61397" lon="5.85527">
        <ele>603</ele>
        <time>2025-10-08T11:36:32.595+00:00</time>
      </trkpt>
      <trkpt lat="46.61395" lon="5.85524">
        <ele>603</ele>
        <time>2025-10-08T11:36:37.193+00:00</time>
      </trkpt>
      <trkpt lat="46.61405" lon="5.85534">
        <ele>602</ele>
        <time>2025-10-08T11:38:06.202+00:00</time>
      </trkpt>
      <trkpt lat="46.61405" lon="5.85535">
        <ele>602</ele>
        <time>2025-10-08T11:38:10.767+00:00</time>
      </trkpt>
      <trkpt lat="46.61407" lon="5.85537">
        <ele>602</ele>
        <time>2025-10-08T11:38:15.239+00:00</time>
      </trkpt>
      <trkpt lat="46.61411" lon="5.85538">
        <ele>602</ele>
        <time>2025-10-08T11:38:19.767+00:00</time>
      </trkpt>
      <trkpt lat="46.61412" lon="5.85539">
        <ele>602</ele>
        <time>2025-10-08T11:38:23.767+00:00</time>
      </trkpt>
      <trkpt lat="46.61413" lon="5.85539">
        <ele>602</ele>
        <time>2025-10-08T11:38:27.767+00:00</time>
      </trkpt>
      <trkpt lat="46.61418" lon="5.85542">
        <ele>606</ele>
        <time>2025-10-08T11:38:32.533+00:00</time>
      </trkpt>
      <trkpt lat="46.61422" lon="5.85541">
        <ele>602</ele>
        <time>2025-10-08T11:38:36.767+00:00</time>
      </trkpt>
      <trkpt lat="46.61425" lon="5.85538">
        <ele>602</ele>
        <time>2025-10-08T11:38:41.698+00:00</time>
      </trkpt>
      <trkpt lat="46.6143" lon="5.85535">
        <ele>602</ele>
        <time>2025-10-08T11:38:46.400+00:00</time>
      </trkpt>
      <trkpt lat="46.61435" lon="5.85532">
        <ele>617</ele>
        <time>2025-10-08T11:38:50.720+00:00</time>
      </trkpt>
      <trkpt lat="46.61438" lon="5.85529">
        <ele>617</ele>
        <time>2025-10-08T11:38:54.755+00:00</time>
      </trkpt>
      <trkpt lat="46.61441" lon="5.85525">
        <ele>617</ele>
        <time>2025-10-08T11:38:59.039+00:00</time>
      </trkpt>
      <trkpt lat="46.61444" lon="5.85518">
        <ele>617</ele>
        <time>2025-10-08T11:39:03.577+00:00</time>
      </trkpt>
      <trkpt lat="46.61446" lon="5.85511">
        <ele>612</ele>
        <time>2025-10-08T11:39:07.913+00:00</time>
      </trkpt>
      <trkpt lat="46.61447" lon="5.85503">
        <ele>612</ele>
        <time>2025-10-08T11:39:12.376+00:00</time>
      </trkpt>
      <trkpt lat="46.6145" lon="5.85498">
        <ele>612</ele>
        <time>2025-10-08T11:39:16.456+00:00</time>
      </trkpt>
      <trkpt lat="46.61449" lon="5.85492">
        <ele>612</ele>
        <time>2025-10-08T11:39:20.804+00:00</time>
      </trkpt>
      <trkpt lat="46.6145" lon="5.85486">
        <ele>606</ele>
        <time>2025-10-08T11:39:25.593+00:00</time>
      </trkpt>
      <trkpt lat="46.61448" lon="5.85481">
        <ele>606</ele>
        <time>2025-10-08T11:39:29.612+00:00</time>
      </trkpt>
      <trkpt lat="46.61448" lon="5.85474">
        <ele>606</ele>
        <time>2025-10-08T11:39:33.999+00:00</time>
      </trkpt>
      <trkpt lat="46.61448" lon="5.85467">
        <ele>606</ele>
        <time>2025-10-08T11:39:38.239+00:00</time>
      </trkpt>
      <trkpt lat="46.61451" lon="5.85461">
        <ele>606</ele>
        <time>2025-10-08T11:39:42.767+00:00</time>
      </trkpt>
      <trkpt lat="46.61455" lon="5.85457">
        <ele>597</ele>
        <time>2025-10-08T11:39:47.173+00:00</time>
      </trkpt>
      <trkpt lat="46.61458" lon="5.85453">
        <ele>597</ele>
        <time>2025-10-08T11:39:51.200+00:00</time>
      </trkpt>
      <trkpt lat="46.61458" lon="5.85448">
        <ele>620</ele>
        <time>2025-10-08T11:39:55.339+00:00</time>
      </trkpt>
      <trkpt lat="46.61458" lon="5.8544">
        <ele>597</ele>
        <time>2025-10-08T11:40:00.458+00:00</time>
      </trkpt>
      <trkpt lat="46.61459" lon="5.85433">
        <ele>620</ele>
        <time>2025-10-08T11:40:05.160+00:00</time>
      </trkpt>
      <trkpt lat="46.61459" lon="5.85427">
        <ele>620</ele>
        <time>2025-10-08T11:40:09.316+00:00</time>
      </trkpt>
      <trkpt lat="46.6146" lon="5.8542">
        <ele>620</ele>
        <time>2025-10-08T11:40:13.781+00:00</time>
      </trkpt>
      <trkpt lat="46.61461" lon="5.85414">
        <ele>620</ele>
        <time>2025-10-08T11:40:18.079+00:00</time>
      </trkpt>
      <trkpt lat="46.61461" lon="5.85407">
        <ele>620</ele>
        <time>2025-10-08T11:40:22.216+00:00</time>
      </trkpt>
      <trkpt lat="46.61461" lon="5.85399">
        <ele>616</ele>
        <time>2025-10-08T11:40:26.679+00:00</time>
      </trkpt>
      <trkpt lat="46.61461" lon="5.85391">
        <ele>616</ele>
        <time>2025-10-08T11:40:31.372+00:00</time>
      </trkpt>
      <trkpt lat="46.61462" lon="5.85385">
        <ele>616</ele>
        <time>2025-10-08T11:40:35.597+00:00</time>
      </trkpt>
      <trkpt lat="46.61462" lon="5.85378">
        <ele>616</ele>
        <time>2025-10-08T11:40:39.656+00:00</time>
      </trkpt>
      <trkpt lat="46.61459" lon="5.85378">
        <ele>616</ele>
        <time>2025-10-08T11:40:44.196+00:00</time>
      </trkpt>
      <trkpt lat="46.61455" lon="5.85384">
        <ele>594</ele>
        <time>2025-10-08T11:40:48.766+00:00</time>
      </trkpt>
      <trkpt lat="46.61451" lon="5.85387">
        <ele>594</ele>
        <time>2025-10-08T11:40:53.514+00:00</time>
      </trkpt>
      <trkpt lat="46.61447" lon="5.85389">
        <ele>594</ele>
        <time>2025-10-08T11:40:58.053+00:00</time>
      </trkpt>
      <trkpt lat="46.61444" lon="5.85392">
        <ele>594</ele>
        <time>2025-10-08T11:41:02.380+00:00</time>
      </trkpt>
      <trkpt lat="46.61442" lon="5.85394">
        <ele>594</ele>
        <time>2025-10-08T11:41:06.766+00:00</time>
      </trkpt>
      <trkpt lat="46.61439" lon="5.85397">
        <ele>594</ele>
        <time>2025-10-08T11:41:11.766+00:00</time>
      </trkpt>
      <trkpt lat="46.61438" lon="5.85398">
        <ele>594</ele>
        <time>2025-10-08T11:41:16.552+00:00</time>
      </trkpt>
      <trkpt lat="46.61435" lon="5.85401">
        <ele>594</ele>
        <time>2025-10-08T11:41:20.766+00:00</time>
      </trkpt>
      <trkpt lat="46.61433" lon="5.85404">
        <ele>596</ele>
        <time>2025-10-08T11:41:25.418+00:00</time>
      </trkpt>
      <trkpt lat="46.61431" lon="5.85407">
        <ele>596</ele>
        <time>2025-10-08T11:41:29.658+00:00</time>
      </trkpt>
      <trkpt lat="46.61429" lon="5.85409">
        <ele>574</ele>
        <time>2025-10-08T11:41:33.766+00:00</time>
      </trkpt>
      <trkpt lat="46.61427" lon="5.85412">
        <ele>574</ele>
        <time>2025-10-08T11:41:38.378+00:00</time>
      </trkpt>
      <trkpt lat="46.61425" lon="5.85414">
        <ele>574</ele>
        <time>2025-10-08T11:41:42.559+00:00</time>
      </trkpt>
      <trkpt lat="46.61423" lon="5.85418">
        <ele>574</ele>
        <time>2025-10-08T11:41:47.098+00:00</time>
      </trkpt>
      <trkpt lat="46.61421" lon="5.85422">
        <ele>574</ele>
        <time>2025-10-08T11:41:51.767+00:00</time>
      </trkpt>
      <trkpt lat="46.61421" lon="5.85423">
        <ele>574</ele>
        <time>2025-10-08T11:41:56.160+00:00</time>
      </trkpt>
      <trkpt lat="46.61419" lon="5.85429">
        <ele>574</ele>
        <time>2025-10-08T11:42:00.579+00:00</time>
      </trkpt>
      <trkpt lat="46.61417" lon="5.85434">
        <ele>579</ele>
        <time>2025-10-08T11:42:05.556+00:00</time>
      </trkpt>
      <trkpt lat="46.61415" lon="5.85436">
        <ele>579</ele>
        <time>2025-10-08T11:42:09.766+00:00</time>
      </trkpt>
      <trkpt lat="46.61414" lon="5.85445">
        <ele>579</ele>
        <time>2025-10-08T11:42:18.766+00:00</time>
      </trkpt>
      <trkpt lat="46.61416" lon="5.85451">
        <ele>579</ele>
        <time>2025-10-08T11:42:23.438+00:00</time>
      </trkpt>
      <trkpt lat="46.61416" lon="5.85452">
        <ele>579</ele>
        <time>2025-10-08T11:42:27.766+00:00</time>
      </trkpt>
      <trkpt lat="46.61411" lon="5.85451">
        <ele>579</ele>
        <time>2025-10-08T11:42:46.300+00:00</time>
      </trkpt>
      <trkpt lat="46.61412" lon="5.85448">
        <ele>579</ele>
        <time>2025-10-08T11:42:50.756+00:00</time>
      </trkpt>
      <trkpt lat="46.61412" lon="5.85437">
        <ele>579</ele>
        <time>2025-10-08T11:42:54.781+00:00</time>
      </trkpt>
      <trkpt lat="46.61407" lon="5.85428">
        <ele>574</ele>
        <time>2025-10-08T11:42:59.764+00:00</time>
      </trkpt>
      <trkpt lat="46.61405" lon="5.85424">
        <ele>574</ele>
        <time>2025-10-08T11:43:04.767+00:00</time>
      </trkpt>
      <trkpt lat="46.61405" lon="5.85423">
        <ele>574</ele>
        <time>2025-10-08T11:48:56.353+00:00</time>
      </trkpt>
      <trkpt lat="46.6141" lon="5.85417">
        <ele>574</ele>
        <time>2025-10-08T11:49:00.765+00:00</time>
      </trkpt>
      <trkpt lat="46.61413" lon="5.85414">
        <ele>574</ele>
        <time>2025-10-08T11:49:05.119+00:00</time>
      </trkpt>
      <trkpt lat="46.61416" lon="5.85411">
        <ele>574</ele>
        <time>2025-10-08T11:49:09.529+00:00</time>
      </trkpt>
      <trkpt lat="46.61419" lon="5.85406">
        <ele>574</ele>
        <time>2025-10-08T11:49:13.765+00:00</time>
      </trkpt>
      <trkpt lat="46.61414" lon="5.85403">
        <ele>574</ele>
        <time>2025-10-08T11:49:18.765+00:00</time>
      </trkpt>
      <trkpt lat="46.61412" lon="5.85402">
        <ele>576</ele>
        <time>2025-10-08T11:49:27.757+00:00</time>
      </trkpt>
      <trkpt lat="46.61412" lon="5.85392">
        <ele>576</ele>
        <time>2025-10-08T11:49:32.592+00:00</time>
      </trkpt>
      <trkpt lat="46.61411" lon="5.85385">
        <ele>576</ele>
        <time>2025-10-08T11:49:36.765+00:00</time>
      </trkpt>
      <trkpt lat="46.61408" lon="5.85381">
        <ele>576</ele>
        <time>2025-10-08T11:49:41.298+00:00</time>
      </trkpt>
      <trkpt lat="46.61406" lon="5.85373">
        <ele>570</ele>
        <time>2025-10-08T11:49:45.496+00:00</time>
      </trkpt>
      <trkpt lat="46.61406" lon="5.85367">
        <ele>570</ele>
        <time>2025-10-08T11:49:49.765+00:00</time>
      </trkpt>
      <trkpt lat="46.61404" lon="5.8536">
        <ele>570</ele>
        <time>2025-10-08T11:49:54.072+00:00</time>
      </trkpt>
      <trkpt lat="46.61405" lon="5.85353">
        <ele>570</ele>
        <time>2025-10-08T11:49:58.765+00:00</time>
      </trkpt>
      <trkpt lat="46.61404" lon="5.85348">
        <ele>570</ele>
        <time>2025-10-08T11:50:03.297+00:00</time>
      </trkpt>
      <trkpt lat="46.61402" lon="5.85343">
        <ele>553</ele>
        <time>2025-10-08T11:50:07.766+00:00</time>
      </trkpt>
      <trkpt lat="46.614" lon="5.85338">
        <ele>553</ele>
        <time>2025-10-08T11:50:12.632+00:00</time>
      </trkpt>
      <trkpt lat="46.61386" lon="5.85326">
        <ele>553</ele>
        <time>2025-10-08T11:51:10.176+00:00</time>
      </trkpt>
      <trkpt lat="46.61388" lon="5.85324">
        <ele>553</ele>
        <time>2025-10-08T11:51:14.765+00:00</time>
      </trkpt>
      <trkpt lat="46.61388" lon="5.85323">
        <ele>553</ele>
        <time>2025-10-08T11:51:19.495+00:00</time>
      </trkpt>
      <trkpt lat="46.6139" lon="5.8532">
        <ele>553</ele>
        <time>2025-10-08T11:51:23.766+00:00</time>
      </trkpt>
      <trkpt lat="46.61398" lon="5.85317">
        <ele>553</ele>
        <time>2025-10-08T11:51:28.531+00:00</time>
      </trkpt>
      <trkpt lat="46.61397" lon="5.85305">
        <ele>553</ele>
        <time>2025-10-08T11:51:33.116+00:00</time>
      </trkpt>
      <trkpt lat="46.61394" lon="5.85294">
        <ele>553</ele>
        <time>2025-10-08T11:51:37.765+00:00</time>
      </trkpt>
      <trkpt lat="46.61394" lon="5.85285">
        <ele>553</ele>
        <time>2025-10-08T11:51:41.811+00:00</time>
      </trkpt>
      <trkpt lat="46.61392" lon="5.85276">
        <ele>553</ele>
        <time>2025-10-08T11:51:46.256+00:00</time>
      </trkpt>
      <trkpt lat="46.6139" lon="5.85269">
        <ele>553</ele>
        <time>2025-10-08T11:51:50.695+00:00</time>
      </trkpt>
      <trkpt lat="46.61387" lon="5.85262">
        <ele>556</ele>
        <time>2025-10-08T11:51:54.892+00:00</time>
      </trkpt>
      <trkpt lat="46.61383" lon="5.85254">
        <ele>556</ele>
        <time>2025-10-08T11:51:59.492+00:00</time>
      </trkpt>
      <trkpt lat="46.61381" lon="5.85247">
        <ele>556</ele>
        <time>2025-10-08T11:52:03.765+00:00</time>
      </trkpt>
      <trkpt lat="46.61376" lon="5.85241">
        <ele>556</ele>
        <time>2025-10-08T11:52:08.556+00:00</time>
      </trkpt>
      <trkpt lat="46.61374" lon="5.85236">
        <ele>545</ele>
        <time>2025-10-08T11:52:12.651+00:00</time>
      </trkpt>
      <trkpt lat="46.6137" lon="5.8523">
        <ele>545</ele>
        <time>2025-10-08T11:52:17.764+00:00</time>
      </trkpt>
      <trkpt lat="46.61368" lon="5.85223">
        <ele>545</ele>
        <time>2025-10-08T11:52:22.235+00:00</time>
      </trkpt>
      <trkpt lat="46.61365" lon="5.85216">
        <ele>545</ele>
        <time>2025-10-08T11:52:55.573+00:00</time>
      </trkpt>
      <trkpt lat="46.61365" lon="5.85215">
        <ele>545</ele>
        <time>2025-10-08T11:52:59.755+00:00</time>
      </trkpt>
      <trkpt lat="46.61366" lon="5.85211">
        <ele>545</ele>
        <time>2025-10-08T11:53:03.901+00:00</time>
      </trkpt>
      <trkpt lat="46.61365" lon="5.85204">
        <ele>549</ele>
        <time>2025-10-08T11:53:08.093+00:00</time>
      </trkpt>
      <trkpt lat="46.61363" lon="5.85196">
        <ele>549</ele>
        <time>2025-10-08T11:53:12.172+00:00</time>
      </trkpt>
      <trkpt lat="46.61361" lon="5.85188">
        <ele>549</ele>
        <time>2025-10-08T11:53:16.369+00:00</time>
      </trkpt>
      <trkpt lat="46.61358" lon="5.85179">
        <ele>545</ele>
        <time>2025-10-08T11:53:20.764+00:00</time>
      </trkpt>
      <trkpt lat="46.61353" lon="5.85171">
        <ele>545</ele>
        <time>2025-10-08T11:53:25.558+00:00</time>
      </trkpt>
      <trkpt lat="46.61349" lon="5.85163">
        <ele>545</ele>
        <time>2025-10-08T11:53:29.764+00:00</time>
      </trkpt>
      <trkpt lat="46.61344" lon="5.85157">
        <ele>543</ele>
        <time>2025-10-08T11:53:34.764+00:00</time>
      </trkpt>
      <trkpt lat="46.61339" lon="5.85151">
        <ele>538</ele>
        <time>2025-10-08T11:53:39.468+00:00</time>
      </trkpt>
      <trkpt lat="46.61336" lon="5.85143">
        <ele>538</ele>
        <time>2025-10-08T11:53:43.764+00:00</time>
      </trkpt>
      <trkpt lat="46.61335" lon="5.85135">
        <ele>538</ele>
        <time>2025-10-08T11:53:48.036+00:00</time>
      </trkpt>
      <trkpt lat="46.61333" lon="5.85128">
        <ele>538</ele>
        <time>2025-10-08T11:53:52.575+00:00</time>
      </trkpt>
      <trkpt lat="46.6133" lon="5.85122">
        <ele>536</ele>
        <time>2025-10-08T11:53:56.764+00:00</time>
      </trkpt>
      <trkpt lat="46.6133" lon="5.85114">
        <ele>536</ele>
        <time>2025-10-08T11:54:00.955+00:00</time>
      </trkpt>
      <trkpt lat="46.6133" lon="5.85107">
        <ele>536</ele>
        <time>2025-10-08T11:54:05.113+00:00</time>
      </trkpt>
      <trkpt lat="46.6133" lon="5.851">
        <ele>536</ele>
        <time>2025-10-08T11:54:09.764+00:00</time>
      </trkpt>
      <trkpt lat="46.6133" lon="5.85092">
        <ele>536</ele>
        <time>2025-10-08T11:54:14.764+00:00</time>
      </trkpt>
      <trkpt lat="46.61329" lon="5.85083">
        <ele>536</ele>
        <time>2025-10-08T11:54:19.574+00:00</time>
      </trkpt>
      <trkpt lat="46.61329" lon="5.85076">
        <ele>536</ele>
        <time>2025-10-08T11:54:24.216+00:00</time>
      </trkpt>
      <trkpt lat="46.6133" lon="5.85068">
        <ele>534</ele>
        <time>2025-10-08T11:54:28.764+00:00</time>
      </trkpt>
      <trkpt lat="46.61331" lon="5.8506">
        <ele>534</ele>
        <time>2025-10-08T11:54:33.517+00:00</time>
      </trkpt>
      <trkpt lat="46.61333" lon="5.85054">
        <ele>534</ele>
        <time>2025-10-08T11:54:37.764+00:00</time>
      </trkpt>
      <trkpt lat="46.61334" lon="5.85047">
        <ele>534</ele>
        <time>2025-10-08T11:54:42.631+00:00</time>
      </trkpt>
      <trkpt lat="46.61335" lon="5.85035">
        <ele>532</ele>
        <time>2025-10-08T11:55:05.335+00:00</time>
      </trkpt>
      <trkpt lat="46.61337" lon="5.85032">
        <ele>532</ele>
        <time>2025-10-08T11:55:09.764+00:00</time>
      </trkpt>
      <trkpt lat="46.6134" lon="5.85037">
        <ele>532</ele>
        <time>2025-10-08T11:55:14.764+00:00</time>
      </trkpt>
      <trkpt lat="46.6134" lon="5.85038">
        <ele>532</ele>
        <time>2025-10-08T11:55:19.764+00:00</time>
      </trkpt>
      <trkpt lat="46.6134" lon="5.85041">
        <ele>532</ele>
        <time>2025-10-08T11:55:24.765+00:00</time>
      </trkpt>
      <trkpt lat="46.61337" lon="5.85049">
        <ele>534</ele>
        <time>2025-10-08T11:56:26.764+00:00</time>
      </trkpt>
      <trkpt lat="46.61336" lon="5.85049">
        <ele>534</ele>
        <time>2025-10-08T11:56:30.765+00:00</time>
      </trkpt>
      <trkpt lat="46.61336" lon="5.8505">
        <ele>534</ele>
        <time>2025-10-08T11:56:35.764+00:00</time>
      </trkpt>
      <trkpt lat="46.61335" lon="5.8505">
        <ele>534</ele>
        <time>2025-10-08T11:56:41.764+00:00</time>
      </trkpt>
      <trkpt lat="46.61334" lon="5.85051">
        <ele>534</ele>
        <time>2025-10-08T11:56:46.764+00:00</time>
      </trkpt>
      <trkpt lat="46.6133" lon="5.85054">
        <ele>534</ele>
        <time>2025-10-08T11:58:35.764+00:00</time>
      </trkpt>
      <trkpt lat="46.61329" lon="5.85054">
        <ele>534</ele>
        <time>2025-10-08T11:58:39.764+00:00</time>
      </trkpt>
      <trkpt lat="46.61326" lon="5.85058">
        <ele>534</ele>
        <time>2025-10-08T11:58:44.765+00:00</time>
      </trkpt>
      <trkpt lat="46.61326" lon="5.85059">
        <ele>534</ele>
        <time>2025-10-08T11:58:49.764+00:00</time>
      </trkpt>
      <trkpt lat="46.61325" lon="5.85058">
        <ele>534</ele>
        <time>2025-10-08T11:58:55.764+00:00</time>
      </trkpt>
      <trkpt lat="46.61321" lon="5.85061">
        <ele>534</ele>
        <time>2025-10-08T12:10:35.699+00:00</time>
      </trkpt>
      <trkpt lat="46.61334" lon="5.85045">
        <ele>534</ele>
        <time>2025-10-08T12:10:39.762+00:00</time>
      </trkpt>
      <trkpt lat="46.61338" lon="5.8504">
        <ele>532</ele>
        <time>2025-10-08T12:10:43.974+00:00</time>
      </trkpt>
      <trkpt lat="46.61342" lon="5.85031">
        <ele>532</ele>
        <time>2025-10-08T12:10:48.762+00:00</time>
      </trkpt>
      <trkpt lat="46.61348" lon="5.85022">
        <ele>536</ele>
        <time>2025-10-08T12:10:53.696+00:00</time>
      </trkpt>
      <trkpt lat="46.61351" lon="5.85014">
        <ele>536</ele>
        <time>2025-10-08T12:10:57.763+00:00</time>
      </trkpt>
      <trkpt lat="46.61352" lon="5.85003">
        <ele>535</ele>
        <time>2025-10-08T12:11:02.438+00:00</time>
      </trkpt>
      <trkpt lat="46.61352" lon="5.84995">
        <ele>535</ele>
        <time>2025-10-08T12:11:06.636+00:00</time>
      </trkpt>
      <trkpt lat="46.61353" lon="5.84985">
        <ele>534</ele>
        <time>2025-10-08T12:11:11.635+00:00</time>
      </trkpt>
      <trkpt lat="46.61352" lon="5.84977">
        <ele>534</ele>
        <time>2025-10-08T12:11:15.762+00:00</time>
      </trkpt>
      <trkpt lat="46.61351" lon="5.84969">
        <ele>534</ele>
        <time>2025-10-08T12:11:20.356+00:00</time>
      </trkpt>
      <trkpt lat="46.61346" lon="5.84969">
        <ele>530</ele>
        <time>2025-10-08T12:11:24.421+00:00</time>
      </trkpt>
      <trkpt lat="46.61342" lon="5.84968">
        <ele>530</ele>
        <time>2025-10-08T12:11:28.762+00:00</time>
      </trkpt>
      <trkpt lat="46.61339" lon="5.84968">
        <ele>530</ele>
        <time>2025-10-08T12:11:54.762+00:00</time>
      </trkpt>
      <trkpt lat="46.61339" lon="5.84968">
        <ele>530</ele>
        <time>2025-10-08T12:11:59.762+00:00</time>
      </trkpt>
      <trkpt lat="46.61341" lon="5.84966">
        <ele>530</ele>
        <time>2025-10-08T12:12:04.763+00:00</time>
      </trkpt>
      <trkpt lat="46.61343" lon="5.8497">
        <ele>530</ele>
        <time>2025-10-08T12:12:09.621+00:00</time>
      </trkpt>
      <trkpt lat="46.61346" lon="5.84979">
        <ele>530</ele>
        <time>2025-10-08T12:12:13.762+00:00</time>
      </trkpt>
      <trkpt lat="46.61349" lon="5.84987">
        <ele>535</ele>
        <time>2025-10-08T12:12:17.762+00:00</time>
      </trkpt>
      <trkpt lat="46.6135" lon="5.84994">
        <ele>535</ele>
        <time>2025-10-08T12:12:22.456+00:00</time>
      </trkpt>
      <trkpt lat="46.61349" lon="5.84999">
        <ele>535</ele>
        <time>2025-10-08T12:12:26.762+00:00</time>
      </trkpt>
      <trkpt lat="46.61348" lon="5.85006">
        <ele>535</ele>
        <time>2025-10-08T12:12:31.762+00:00</time>
      </trkpt>
      <trkpt lat="46.61345" lon="5.85005">
        <ele>531</ele>
        <time>2025-10-08T12:12:50.762+00:00</time>
      </trkpt>
      <trkpt lat="46.61345" lon="5.85005">
        <ele>531</ele>
        <time>2025-10-08T12:13:06.763+00:00</time>
      </trkpt>
      <trkpt lat="46.61347" lon="5.85009">
        <ele>535</ele>
        <time>2025-10-08T12:13:11.763+00:00</time>
      </trkpt>
      <trkpt lat="46.61348" lon="5.85015">
        <ele>536</ele>
        <time>2025-10-08T12:13:16.762+00:00</time>
      </trkpt>
      <trkpt lat="46.61345" lon="5.85022">
        <ele>532</ele>
        <time>2025-10-08T12:13:21.762+00:00</time>
      </trkpt>
      <trkpt lat="46.61341" lon="5.85028">
        <ele>532</ele>
        <time>2025-10-08T12:13:26.762+00:00</time>
      </trkpt>
      <trkpt lat="46.61339" lon="5.85033">
        <ele>532</ele>
        <time>2025-10-08T12:13:30.763+00:00</time>
      </trkpt>
      <trkpt lat="46.61336" lon="5.85038">
        <ele>532</ele>
        <time>2025-10-08T12:13:35.762+00:00</time>
      </trkpt>
      <trkpt lat="46.61333" lon="5.85043">
        <ele>534</ele>
        <time>2025-10-08T12:13:40.762+00:00</time>
      </trkpt>
      <trkpt lat="46.61329" lon="5.85045">
        <ele>534</ele>
        <time>2025-10-08T12:13:44.960+00:00</time>
      </trkpt>
      <trkpt lat="46.61326" lon="5.85042">
        <ele>534</ele>
        <time>2025-10-08T12:13:49.560+00:00</time>
      </trkpt>
      <trkpt lat="46.61324" lon="5.85036">
        <ele>532</ele>
        <time>2025-10-08T12:13:53.762+00:00</time>
      </trkpt>
      <trkpt lat="46.61321" lon="5.85028">
        <ele>532</ele>
        <time>2025-10-08T12:13:58.196+00:00</time>
      </trkpt>
      <trkpt lat="46.61324" lon="5.85026">
        <ele>532</ele>
        <time>2025-10-08T12:14:02.333+00:00</time>
      </trkpt>
      <trkpt lat="46.61328" lon="5.85032">
        <ele>532</ele>
        <time>2025-10-08T12:14:06.557+00:00</time>
      </trkpt>
      <trkpt lat="46.61331" lon="5.85031">
        <ele>532</ele>
        <time>2025-10-08T12:14:10.762+00:00</time>
      </trkpt>
      <trkpt lat="46.61335" lon="5.85034">
        <ele>532</ele>
        <time>2025-10-08T12:14:15.762+00:00</time>
      </trkpt>
      <trkpt lat="46.61336" lon="5.85034">
        <ele>532</ele>
        <time>2025-10-08T12:14:20.763+00:00</time>
      </trkpt>
      <trkpt lat="46.61335" lon="5.85036">
        <ele>532</ele>
        <time>2025-10-08T12:14:24.763+00:00</time>
      </trkpt>
      <trkpt lat="46.61332" lon="5.85038">
        <ele>532</ele>
        <time>2025-10-08T12:14:29.762+00:00</time>
      </trkpt>
      <trkpt lat="46.61328" lon="5.85042">
        <ele>534</ele>
        <time>2025-10-08T12:14:34.762+00:00</time>
      </trkpt>
      <trkpt lat="46.61327" lon="5.85048">
        <ele>534</ele>
        <time>2025-10-08T12:28:02.893+00:00</time>
      </trkpt>
      <trkpt lat="46.61332" lon="5.85034">
        <ele>532</ele>
        <time>2025-10-08T12:28:07.569+00:00</time>
      </trkpt>
      <trkpt lat="46.61335" lon="5.85026">
        <ele>532</ele>
        <time>2025-10-08T12:28:11.760+00:00</time>
      </trkpt>
      <trkpt lat="46.61339" lon="5.85018">
        <ele>532</ele>
        <time>2025-10-08T12:28:16.760+00:00</time>
      </trkpt>
      <trkpt lat="46.61347" lon="5.85017">
        <ele>532</ele>
        <time>2025-10-08T12:28:21.531+00:00</time>
      </trkpt>
      <trkpt lat="46.61351" lon="5.85011">
        <ele>535</ele>
        <time>2025-10-08T12:28:25.760+00:00</time>
      </trkpt>
      <trkpt lat="46.61352" lon="5.85001">
        <ele>535</ele>
        <time>2025-10-08T12:28:30.549+00:00</time>
      </trkpt>
      <trkpt lat="46.61353" lon="5.84996">
        <ele>535</ele>
        <time>2025-10-08T12:28:34.760+00:00</time>
      </trkpt>
      <trkpt lat="46.61354" lon="5.84988">
        <ele>535</ele>
        <time>2025-10-08T12:28:39.312+00:00</time>
      </trkpt>
      <trkpt lat="46.61355" lon="5.8498">
        <ele>534</ele>
        <time>2025-10-08T12:28:43.407+00:00</time>
      </trkpt>
      <trkpt lat="46.61356" lon="5.84973">
        <ele>534</ele>
        <time>2025-10-08T12:28:47.649+00:00</time>
      </trkpt>
      <trkpt lat="46.61357" lon="5.84966">
        <ele>534</ele>
        <time>2025-10-08T12:28:51.761+00:00</time>
      </trkpt>
      <trkpt lat="46.61358" lon="5.8496">
        <ele>534</ele>
        <time>2025-10-08T12:28:55.760+00:00</time>
      </trkpt>
      <trkpt lat="46.6136" lon="5.84955">
        <ele>529</ele>
        <time>2025-10-08T12:29:00.352+00:00</time>
      </trkpt>
      <trkpt lat="46.61362" lon="5.8495">
        <ele>529</ele>
        <time>2025-10-08T12:29:04.760+00:00</time>
      </trkpt>
      <trkpt lat="46.61365" lon="5.84943">
        <ele>529</ele>
        <time>2025-10-08T12:29:09.760+00:00</time>
      </trkpt>
      <trkpt lat="46.61367" lon="5.84938">
        <ele>529</ele>
        <time>2025-10-08T12:29:14.234+00:00</time>
      </trkpt>
      <trkpt lat="46.6137" lon="5.84932">
        <ele>529</ele>
        <time>2025-10-08T12:29:18.389+00:00</time>
      </trkpt>
      <trkpt lat="46.61376" lon="5.84929">
        <ele>530</ele>
        <time>2025-10-08T12:29:22.755+00:00</time>
      </trkpt>
      <trkpt lat="46.61384" lon="5.8493">
        <ele>530</ele>
        <time>2025-10-08T12:29:27.033+00:00</time>
      </trkpt>
      <trkpt lat="46.61391" lon="5.84927">
        <ele>530</ele>
        <time>2025-10-08T12:29:31.437+00:00</time>
      </trkpt>
      <trkpt lat="46.61397" lon="5.84925">
        <ele>530</ele>
        <time>2025-10-08T12:29:35.760+00:00</time>
      </trkpt>
      <trkpt lat="46.61401" lon="5.8492">
        <ele>530</ele>
        <time>2025-10-08T12:29:40.760+00:00</time>
      </trkpt>
      <trkpt lat="46.61406" lon="5.84916">
        <ele>543</ele>
        <time>2025-10-08T12:29:45.677+00:00</time>
      </trkpt>
      <trkpt lat="46.61408" lon="5.84908">
        <ele>543</ele>
        <time>2025-10-08T12:29:49.760+00:00</time>
      </trkpt>
      <trkpt lat="46.6141" lon="5.84901">
        <ele>537</ele>
        <time>2025-10-08T12:29:54.114+00:00</time>
      </trkpt>
      <trkpt lat="46.61412" lon="5.84894">
        <ele>537</ele>
        <time>2025-10-08T12:29:58.473+00:00</time>
      </trkpt>
      <trkpt lat="46.61414" lon="5.84889">
        <ele>537</ele>
        <time>2025-10-08T12:30:02.595+00:00</time>
      </trkpt>
      <trkpt lat="46.61416" lon="5.84884">
        <ele>537</ele>
        <time>2025-10-08T12:30:06.613+00:00</time>
      </trkpt>
      <trkpt lat="46.61417" lon="5.8488">
        <ele>537</ele>
        <time>2025-10-08T12:30:10.759+00:00</time>
      </trkpt>
      <trkpt lat="46.6142" lon="5.84876">
        <ele>537</ele>
        <time>2025-10-08T12:30:15.759+00:00</time>
      </trkpt>
      <trkpt lat="46.61422" lon="5.84871">
        <ele>533</ele>
        <time>2025-10-08T12:30:20.759+00:00</time>
      </trkpt>
      <trkpt lat="46.61423" lon="5.84866">
        <ele>533</ele>
        <time>2025-10-08T12:30:25.282+00:00</time>
      </trkpt>
      <trkpt lat="46.61426" lon="5.8486">
        <ele>533</ele>
        <time>2025-10-08T12:30:29.759+00:00</time>
      </trkpt>
      <trkpt lat="46.61429" lon="5.84856">
        <ele>533</ele>
        <time>2025-10-08T12:30:34.410+00:00</time>
      </trkpt>
      <trkpt lat="46.61432" lon="5.84852">
        <ele>538</ele>
        <time>2025-10-08T12:30:38.759+00:00</time>
      </trkpt>
      <trkpt lat="46.61436" lon="5.84851">
        <ele>538</ele>
        <time>2025-10-08T12:30:42.759+00:00</time>
      </trkpt>
      <trkpt lat="46.6144" lon="5.84851">
        <ele>538</ele>
        <time>2025-10-08T12:30:47.760+00:00</time>
      </trkpt>
      <trkpt lat="46.61444" lon="5.8485">
        <ele>538</ele>
        <time>2025-10-08T12:30:52.311+00:00</time>
      </trkpt>
      <trkpt lat="46.61448" lon="5.84848">
        <ele>538</ele>
        <time>2025-10-08T12:30:56.759+00:00</time>
      </trkpt>
      <trkpt lat="46.61452" lon="5.84844">
        <ele>530</ele>
        <time>2025-10-08T12:31:01.759+00:00</time>
      </trkpt>
      <trkpt lat="46.61463" lon="5.84833">
        <ele>541</ele>
        <time>2025-10-08T12:31:20.759+00:00</time>
      </trkpt>
      <trkpt lat="46.61463" lon="5.84833">
        <ele>541</ele>
        <time>2025-10-08T12:31:28.759+00:00</time>
      </trkpt>
      <trkpt lat="46.61464" lon="5.84832">
        <ele>541</ele>
        <time>2025-10-08T12:31:33.760+00:00</time>
      </trkpt>
      <trkpt lat="46.61468" lon="5.84829">
        <ele>541</ele>
        <time>2025-10-08T12:31:38.350+00:00</time>
      </trkpt>
      <trkpt lat="46.61472" lon="5.84831">
        <ele>541</ele>
        <time>2025-10-08T12:31:42.394+00:00</time>
      </trkpt>
      <trkpt lat="46.61476" lon="5.84826">
        <ele>541</ele>
        <time>2025-10-08T12:31:47.137+00:00</time>
      </trkpt>
      <trkpt lat="46.6148" lon="5.84818">
        <ele>535</ele>
        <time>2025-10-08T12:31:51.715+00:00</time>
      </trkpt>
      <trkpt lat="46.61484" lon="5.84812">
        <ele>535</ele>
        <time>2025-10-08T12:31:55.759+00:00</time>
      </trkpt>
      <trkpt lat="46.61488" lon="5.84804">
        <ele>547</ele>
        <time>2025-10-08T12:32:00.691+00:00</time>
      </trkpt>
      <trkpt lat="46.61493" lon="5.84799">
        <ele>547</ele>
        <time>2025-10-08T12:32:05.590+00:00</time>
      </trkpt>
      <trkpt lat="46.61497" lon="5.84794">
        <ele>547</ele>
        <time>2025-10-08T12:32:09.632+00:00</time>
      </trkpt>
      <trkpt lat="46.61499" lon="5.84789">
        <ele>541</ele>
        <time>2025-10-08T12:32:13.855+00:00</time>
      </trkpt>
      <trkpt lat="46.61503" lon="5.84783">
        <ele>541</ele>
        <time>2025-10-08T12:32:18.395+00:00</time>
      </trkpt>
      <trkpt lat="46.61507" lon="5.84781">
        <ele>541</ele>
        <time>2025-10-08T12:32:22.695+00:00</time>
      </trkpt>
      <trkpt lat="46.61509" lon="5.84778">
        <ele>541</ele>
        <time>2025-10-08T12:32:26.760+00:00</time>
      </trkpt>
      <trkpt lat="46.61512" lon="5.84771">
        <ele>541</ele>
        <time>2025-10-08T12:32:31.184+00:00</time>
      </trkpt>
      <trkpt lat="46.61515" lon="5.84765">
        <ele>558</ele>
        <time>2025-10-08T12:32:35.732+00:00</time>
      </trkpt>
      <trkpt lat="46.61521" lon="5.8476">
        <ele>551</ele>
        <time>2025-10-08T12:33:56.759+00:00</time>
      </trkpt>
      <trkpt lat="46.61522" lon="5.8476">
        <ele>551</ele>
        <time>2025-10-08T12:34:01.928+00:00</time>
      </trkpt>
      <trkpt lat="46.61526" lon="5.84757">
        <ele>551</ele>
        <time>2025-10-08T12:34:06.372+00:00</time>
      </trkpt>
      <trkpt lat="46.6153" lon="5.84753">
        <ele>551</ele>
        <time>2025-10-08T12:34:10.570+00:00</time>
      </trkpt>
      <trkpt lat="46.61532" lon="5.84748">
        <ele>551</ele>
        <time>2025-10-08T12:34:14.760+00:00</time>
      </trkpt>
      <trkpt lat="46.61535" lon="5.84741">
        <ele>551</ele>
        <time>2025-10-08T12:34:19.733+00:00</time>
      </trkpt>
      <trkpt lat="46.61537" lon="5.84734">
        <ele>545</ele>
        <time>2025-10-08T12:34:24.212+00:00</time>
      </trkpt>
      <trkpt lat="46.61539" lon="5.84727">
        <ele>545</ele>
        <time>2025-10-08T12:34:28.750+00:00</time>
      </trkpt>
      <trkpt lat="46.61542" lon="5.84721">
        <ele>562</ele>
        <time>2025-10-08T12:34:33.110+00:00</time>
      </trkpt>
      <trkpt lat="46.61546" lon="5.84716">
        <ele>562</ele>
        <time>2025-10-08T12:34:37.650+00:00</time>
      </trkpt>
      <trkpt lat="46.6155" lon="5.84711">
        <ele>562</ele>
        <time>2025-10-08T12:34:42.009+00:00</time>
      </trkpt>
      <trkpt lat="46.61553" lon="5.84706">
        <ele>555</ele>
        <time>2025-10-08T12:34:46.037+00:00</time>
      </trkpt>
      <trkpt lat="46.61556" lon="5.847">
        <ele>555</ele>
        <time>2025-10-08T12:34:50.635+00:00</time>
      </trkpt>
      <trkpt lat="46.6156" lon="5.84695">
        <ele>555</ele>
        <time>2025-10-08T12:34:54.730+00:00</time>
      </trkpt>
      <trkpt lat="46.61563" lon="5.84689">
        <ele>555</ele>
        <time>2025-10-08T12:34:59.192+00:00</time>
      </trkpt>
      <trkpt lat="46.61567" lon="5.84683">
        <ele>555</ele>
        <time>2025-10-08T12:35:03.714+00:00</time>
      </trkpt>
      <trkpt lat="46.61571" lon="5.84677">
        <ele>571</ele>
        <time>2025-10-08T12:35:07.750+00:00</time>
      </trkpt>
      <trkpt lat="46.61573" lon="5.84673">
        <ele>571</ele>
        <time>2025-10-08T12:35:11.769+00:00</time>
      </trkpt>
      <trkpt lat="46.61576" lon="5.84666">
        <ele>571</ele>
        <time>2025-10-08T12:35:16.094+00:00</time>
      </trkpt>
      <trkpt lat="46.61578" lon="5.8466">
        <ele>571</ele>
        <time>2025-10-08T12:35:20.129+00:00</time>
      </trkpt>
      <trkpt lat="46.61579" lon="5.84653">
        <ele>571</ele>
        <time>2025-10-08T12:35:24.609+00:00</time>
      </trkpt>
      <trkpt lat="46.61581" lon="5.84647">
        <ele>566</ele>
        <time>2025-10-08T12:35:28.933+00:00</time>
      </trkpt>
      <trkpt lat="46.61584" lon="5.84642">
        <ele>566</ele>
        <time>2025-10-08T12:35:33.149+00:00</time>
      </trkpt>
      <trkpt lat="46.61587" lon="5.84636">
        <ele>566</ele>
        <time>2025-10-08T12:35:37.654+00:00</time>
      </trkpt>
      <trkpt lat="46.6159" lon="5.8463">
        <ele>566</ele>
        <time>2025-10-08T12:35:42.175+00:00</time>
      </trkpt>
      <trkpt lat="46.61593" lon="5.84625">
        <ele>561</ele>
        <time>2025-10-08T12:35:46.432+00:00</time>
      </trkpt>
      <trkpt lat="46.61596" lon="5.84619">
        <ele>561</ele>
        <time>2025-10-08T12:35:50.511+00:00</time>
      </trkpt>
      <trkpt lat="46.61598" lon="5.84614">
        <ele>582</ele>
        <time>2025-10-08T12:35:54.648+00:00</time>
      </trkpt>
      <trkpt lat="46.616" lon="5.84608">
        <ele>582</ele>
        <time>2025-10-08T12:35:58.760+00:00</time>
      </trkpt>
      <trkpt lat="46.61603" lon="5.84602">
        <ele>582</ele>
        <time>2025-10-08T12:36:03.548+00:00</time>
      </trkpt>
      <trkpt lat="46.61606" lon="5.84596">
        <ele>575</ele>
        <time>2025-10-08T12:36:08.036+00:00</time>
      </trkpt>
      <trkpt lat="46.61609" lon="5.84591">
        <ele>575</ele>
        <time>2025-10-08T12:36:12.293+00:00</time>
      </trkpt>
      <trkpt lat="46.61613" lon="5.84586">
        <ele>575</ele>
        <time>2025-10-08T12:36:16.533+00:00</time>
      </trkpt>
      <trkpt lat="46.61615" lon="5.84581">
        <ele>575</ele>
        <time>2025-10-08T12:36:20.760+00:00</time>
      </trkpt>
      <trkpt lat="46.61617" lon="5.84576">
        <ele>575</ele>
        <time>2025-10-08T12:36:24.836+00:00</time>
      </trkpt>
      <trkpt lat="46.6162" lon="5.8457">
        <ele>575</ele>
        <time>2025-10-08T12:36:29.315+00:00</time>
      </trkpt>
      <trkpt lat="46.61622" lon="5.84564">
        <ele>570</ele>
        <time>2025-10-08T12:36:33.315+00:00</time>
      </trkpt>
      <trkpt lat="46.61622" lon="5.84557">
        <ele>570</ele>
        <time>2025-10-08T12:36:37.496+00:00</time>
      </trkpt>
      <trkpt lat="46.61624" lon="5.8455">
        <ele>570</ele>
        <time>2025-10-08T12:36:41.532+00:00</time>
      </trkpt>
      <trkpt lat="46.61625" lon="5.84544">
        <ele>593</ele>
        <time>2025-10-08T12:36:45.550+00:00</time>
      </trkpt>
      <trkpt lat="46.61627" lon="5.84538">
        <ele>588</ele>
        <time>2025-10-08T12:36:49.611+00:00</time>
      </trkpt>
      <trkpt lat="46.61628" lon="5.84533">
        <ele>588</ele>
        <time>2025-10-08T12:36:53.759+00:00</time>
      </trkpt>
      <trkpt lat="46.6163" lon="5.84525">
        <ele>588</ele>
        <time>2025-10-08T12:36:58.569+00:00</time>
      </trkpt>
      <trkpt lat="46.61631" lon="5.84517">
        <ele>588</ele>
        <time>2025-10-08T12:37:03.136+00:00</time>
      </trkpt>
      <trkpt lat="46.61632" lon="5.84509">
        <ele>585</ele>
        <time>2025-10-08T12:37:07.690+00:00</time>
      </trkpt>
      <trkpt lat="46.61634" lon="5.84501">
        <ele>585</ele>
        <time>2025-10-08T12:37:12.332+00:00</time>
      </trkpt>
      <trkpt lat="46.61635" lon="5.84492">
        <ele>585</ele>
        <time>2025-10-08T12:37:17.288+00:00</time>
      </trkpt>
      <trkpt lat="46.61637" lon="5.84485">
        <ele>585</ele>
        <time>2025-10-08T12:37:21.759+00:00</time>
      </trkpt>
      <trkpt lat="46.61639" lon="5.84478">
        <ele>585</ele>
        <time>2025-10-08T12:37:25.854+00:00</time>
      </trkpt>
      <trkpt lat="46.6164" lon="5.84471">
        <ele>585</ele>
        <time>2025-10-08T12:37:30.308+00:00</time>
      </trkpt>
      <trkpt lat="46.61641" lon="5.84464">
        <ele>585</ele>
        <time>2025-10-08T12:37:34.759+00:00</time>
      </trkpt>
      <trkpt lat="46.61642" lon="5.84457">
        <ele>585</ele>
        <time>2025-10-08T12:37:39.097+00:00</time>
      </trkpt>
      <trkpt lat="46.61643" lon="5.84449">
        <ele>585</ele>
        <time>2025-10-08T12:37:43.771+00:00</time>
      </trkpt>
      <trkpt lat="46.61644" lon="5.84443">
        <ele>585</ele>
        <time>2025-10-08T12:37:47.903+00:00</time>
      </trkpt>
      <trkpt lat="46.61645" lon="5.84437">
        <ele>585</ele>
        <time>2025-10-08T12:37:52.115+00:00</time>
      </trkpt>
      <trkpt lat="46.61647" lon="5.84429">
        <ele>583</ele>
        <time>2025-10-08T12:37:56.630+00:00</time>
      </trkpt>
      <trkpt lat="46.6165" lon="5.84423">
        <ele>583</ele>
        <time>2025-10-08T12:38:00.770+00:00</time>
      </trkpt>
      <trkpt lat="46.61652" lon="5.84417">
        <ele>583</ele>
        <time>2025-10-08T12:38:04.905+00:00</time>
      </trkpt>
      <trkpt lat="46.61652" lon="5.8441">
        <ele>583</ele>
        <time>2025-10-08T12:38:08.995+00:00</time>
      </trkpt>
      <trkpt lat="46.61652" lon="5.84402">
        <ele>580</ele>
        <time>2025-10-08T12:38:13.535+00:00</time>
      </trkpt>
      <trkpt lat="46.61646" lon="5.84402">
        <ele>580</ele>
        <time>2025-10-08T12:38:18.252+00:00</time>
      </trkpt>
      <trkpt lat="46.61645" lon="5.84393">
        <ele>580</ele>
        <time>2025-10-08T12:38:22.510+00:00</time>
      </trkpt>
      <trkpt lat="46.61647" lon="5.84385">
        <ele>580</ele>
        <time>2025-10-08T12:38:26.751+00:00</time>
      </trkpt>
      <trkpt lat="46.6165" lon="5.84376">
        <ele>580</ele>
        <time>2025-10-08T12:38:30.973+00:00</time>
      </trkpt>
      <trkpt lat="46.61652" lon="5.84369">
        <ele>577</ele>
        <time>2025-10-08T12:38:35.035+00:00</time>
      </trkpt>
      <trkpt lat="46.61654" lon="5.84362">
        <ele>597</ele>
        <time>2025-10-08T12:38:39.310+00:00</time>
      </trkpt>
      <trkpt lat="46.61654" lon="5.84354">
        <ele>597</ele>
        <time>2025-10-08T12:38:43.579+00:00</time>
      </trkpt>
      <trkpt lat="46.61655" lon="5.84348">
        <ele>597</ele>
        <time>2025-10-08T12:38:47.654+00:00</time>
      </trkpt>
      <trkpt lat="46.61652" lon="5.84344">
        <ele>575</ele>
        <time>2025-10-08T12:38:51.671+00:00</time>
      </trkpt>
      <trkpt lat="46.61652" lon="5.84338">
        <ele>575</ele>
        <time>2025-10-08T12:38:55.760+00:00</time>
      </trkpt>
      <trkpt lat="46.61653" lon="5.84331">
        <ele>599</ele>
        <time>2025-10-08T12:39:00.289+00:00</time>
      </trkpt>
      <trkpt lat="46.61654" lon="5.84325">
        <ele>599</ele>
        <time>2025-10-08T12:39:04.759+00:00</time>
      </trkpt>
      <trkpt lat="46.61655" lon="5.84318">
        <ele>597</ele>
        <time>2025-10-08T12:39:09.274+00:00</time>
      </trkpt>
      <trkpt lat="46.61657" lon="5.84311">
        <ele>597</ele>
        <time>2025-10-08T12:39:13.759+00:00</time>
      </trkpt>
      <trkpt lat="46.61658" lon="5.84303">
        <ele>597</ele>
        <time>2025-10-08T12:39:18.335+00:00</time>
      </trkpt>
      <trkpt lat="46.61658" lon="5.84296">
        <ele>597</ele>
        <time>2025-10-08T12:39:22.755+00:00</time>
      </trkpt>
      <trkpt lat="46.6166" lon="5.8429">
        <ele>598</ele>
        <time>2025-10-08T12:39:26.759+00:00</time>
      </trkpt>
      <trkpt lat="46.61662" lon="5.84281">
        <ele>598</ele>
        <time>2025-10-08T12:39:31.191+00:00</time>
      </trkpt>
      <trkpt lat="46.61665" lon="5.84273">
        <ele>598</ele>
        <time>2025-10-08T12:39:35.759+00:00</time>
      </trkpt>
      <trkpt lat="46.61667" lon="5.84265">
        <ele>598</ele>
        <time>2025-10-08T12:39:40.507+00:00</time>
      </trkpt>
      <trkpt lat="46.61669" lon="5.84258">
        <ele>602</ele>
        <time>2025-10-08T12:39:44.536+00:00</time>
      </trkpt>
      <trkpt lat="46.61669" lon="5.84251">
        <ele>602</ele>
        <time>2025-10-08T12:39:48.758+00:00</time>
      </trkpt>
      <trkpt lat="46.61667" lon="5.84242">
        <ele>602</ele>
        <time>2025-10-08T12:39:53.538+00:00</time>
      </trkpt>
      <trkpt lat="46.61664" lon="5.84234">
        <ele>600</ele>
        <time>2025-10-08T12:39:57.917+00:00</time>
      </trkpt>
      <trkpt lat="46.61663" lon="5.84226">
        <ele>600</ele>
        <time>2025-10-08T12:40:02.170+00:00</time>
      </trkpt>
      <trkpt lat="46.61664" lon="5.84216">
        <ele>600</ele>
        <time>2025-10-08T12:40:06.616+00:00</time>
      </trkpt>
      <trkpt lat="46.61664" lon="5.8421">
        <ele>600</ele>
        <time>2025-10-08T12:40:10.949+00:00</time>
      </trkpt>
      <trkpt lat="46.61665" lon="5.84201">
        <ele>600</ele>
        <time>2025-10-08T12:40:15.275+00:00</time>
      </trkpt>
      <trkpt lat="46.61665" lon="5.84193">
        <ele>600</ele>
        <time>2025-10-08T12:40:19.635+00:00</time>
      </trkpt>
      <trkpt lat="46.61666" lon="5.84185">
        <ele>600</ele>
        <time>2025-10-08T12:40:23.759+00:00</time>
      </trkpt>
      <trkpt lat="46.61667" lon="5.84177">
        <ele>601</ele>
        <time>2025-10-08T12:40:28.312+00:00</time>
      </trkpt>
      <trkpt lat="46.61668" lon="5.84169">
        <ele>601</ele>
        <time>2025-10-08T12:40:32.476+00:00</time>
      </trkpt>
      <trkpt lat="46.61668" lon="5.84161">
        <ele>601</ele>
        <time>2025-10-08T12:40:36.781+00:00</time>
      </trkpt>
      <trkpt lat="46.61667" lon="5.84152">
        <ele>600</ele>
        <time>2025-10-08T12:40:41.136+00:00</time>
      </trkpt>
      <trkpt lat="46.61667" lon="5.84144">
        <ele>600</ele>
        <time>2025-10-08T12:40:45.392+00:00</time>
      </trkpt>
      <trkpt lat="46.61669" lon="5.84136">
        <ele>600</ele>
        <time>2025-10-08T12:40:49.758+00:00</time>
      </trkpt>
      <trkpt lat="46.6167" lon="5.84128">
        <ele>600</ele>
        <time>2025-10-08T12:40:54.573+00:00</time>
      </trkpt>
      <trkpt lat="46.61669" lon="5.84119">
        <ele>602</ele>
        <time>2025-10-08T12:40:59.291+00:00</time>
      </trkpt>
      <trkpt lat="46.61668" lon="5.8411">
        <ele>602</ele>
        <time>2025-10-08T12:41:03.695+00:00</time>
      </trkpt>
      <trkpt lat="46.61668" lon="5.84102">
        <ele>602</ele>
        <time>2025-10-08T12:41:07.758+00:00</time>
      </trkpt>
      <trkpt lat="46.61669" lon="5.84092">
        <ele>607</ele>
        <time>2025-10-08T12:41:12.610+00:00</time>
      </trkpt>
      <trkpt lat="46.61669" lon="5.84084">
        <ele>607</ele>
        <time>2025-10-08T12:41:16.902+00:00</time>
      </trkpt>
      <trkpt lat="46.61669" lon="5.84075">
        <ele>607</ele>
        <time>2025-10-08T12:41:21.192+00:00</time>
      </trkpt>
      <trkpt lat="46.61669" lon="5.84066">
        <ele>611</ele>
        <time>2025-10-08T12:41:25.416+00:00</time>
      </trkpt>
      <trkpt lat="46.61669" lon="5.84058">
        <ele>611</ele>
        <time>2025-10-08T12:41:29.715+00:00</time>
      </trkpt>
      <trkpt lat="46.61668" lon="5.84048">
        <ele>611</ele>
        <time>2025-10-08T12:41:34.417+00:00</time>
      </trkpt>
      <trkpt lat="46.61668" lon="5.84039">
        <ele>610</ele>
        <time>2025-10-08T12:41:38.631+00:00</time>
      </trkpt>
      <trkpt lat="46.61668" lon="5.84031">
        <ele>610</ele>
        <time>2025-10-08T12:41:42.758+00:00</time>
      </trkpt>
      <trkpt lat="46.61667" lon="5.84023">
        <ele>610</ele>
        <time>2025-10-08T12:41:47.095+00:00</time>
      </trkpt>
      <trkpt lat="46.61665" lon="5.84015">
        <ele>610</ele>
        <time>2025-10-08T12:41:51.249+00:00</time>
      </trkpt>
      <trkpt lat="46.61664" lon="5.84006">
        <ele>611</ele>
        <time>2025-10-08T12:41:55.489+00:00</time>
      </trkpt>
      <trkpt lat="46.61665" lon="5.83998">
        <ele>611</ele>
        <time>2025-10-08T12:41:59.673+00:00</time>
      </trkpt>
      <trkpt lat="46.61665" lon="5.83987">
        <ele>611</ele>
        <time>2025-10-08T12:42:04.730+00:00</time>
      </trkpt>
      <trkpt lat="46.61667" lon="5.83978">
        <ele>610</ele>
        <time>2025-10-08T12:42:09.014+00:00</time>
      </trkpt>
      <trkpt lat="46.61666" lon="5.83969">
        <ele>610</ele>
        <time>2025-10-08T12:42:13.194+00:00</time>
      </trkpt>
      <trkpt lat="46.61666" lon="5.8396">
        <ele>610</ele>
        <time>2025-10-08T12:42:17.255+00:00</time>
      </trkpt>
      <trkpt lat="46.61666" lon="5.83952">
        <ele>622</ele>
        <time>2025-10-08T12:42:21.333+00:00</time>
      </trkpt>
      <trkpt lat="46.61667" lon="5.83943">
        <ele>622</ele>
        <time>2025-10-08T12:42:25.334+00:00</time>
      </trkpt>
      <trkpt lat="46.61668" lon="5.83934">
        <ele>622</ele>
        <time>2025-10-08T12:42:29.634+00:00</time>
      </trkpt>
      <trkpt lat="46.61669" lon="5.83927">
        <ele>622</ele>
        <time>2025-10-08T12:42:33.758+00:00</time>
      </trkpt>
      <trkpt lat="46.6167" lon="5.83918">
        <ele>622</ele>
        <time>2025-10-08T12:42:38.294+00:00</time>
      </trkpt>
      <trkpt lat="46.61671" lon="5.83908">
        <ele>622</ele>
        <time>2025-10-08T12:42:42.758+00:00</time>
      </trkpt>
      <trkpt lat="46.61671" lon="5.839">
        <ele>619</ele>
        <time>2025-10-08T12:42:46.758+00:00</time>
      </trkpt>
      <trkpt lat="46.61671" lon="5.83888">
        <ele>619</ele>
        <time>2025-10-08T12:42:51.595+00:00</time>
      </trkpt>
      <trkpt lat="46.61671" lon="5.8388">
        <ele>619</ele>
        <time>2025-10-08T12:42:55.631+00:00</time>
      </trkpt>
      <trkpt lat="46.61672" lon="5.83871">
        <ele>620</ele>
        <time>2025-10-08T12:42:59.650+00:00</time>
      </trkpt>
      <trkpt lat="46.61673" lon="5.83863">
        <ele>620</ele>
        <time>2025-10-08T12:43:03.711+00:00</time>
      </trkpt>
      <trkpt lat="46.61674" lon="5.83853">
        <ele>620</ele>
        <time>2025-10-08T12:43:08.395+00:00</time>
      </trkpt>
      <trkpt lat="46.61676" lon="5.83845">
        <ele>623</ele>
        <time>2025-10-08T12:43:12.473+00:00</time>
      </trkpt>
      <trkpt lat="46.61676" lon="5.83836">
        <ele>623</ele>
        <time>2025-10-08T12:43:17.114+00:00</time>
      </trkpt>
      <trkpt lat="46.61677" lon="5.83828">
        <ele>623</ele>
        <time>2025-10-08T12:43:21.235+00:00</time>
      </trkpt>
      <trkpt lat="46.61677" lon="5.8382">
        <ele>623</ele>
        <time>2025-10-08T12:43:25.493+00:00</time>
      </trkpt>
      <trkpt lat="46.61677" lon="5.8381">
        <ele>625</ele>
        <time>2025-10-08T12:43:30.749+00:00</time>
      </trkpt>
      <trkpt lat="46.61676" lon="5.838">
        <ele>625</ele>
        <time>2025-10-08T12:43:35.331+00:00</time>
      </trkpt>
      <trkpt lat="46.61676" lon="5.83791">
        <ele>626</ele>
        <time>2025-10-08T12:43:39.476+00:00</time>
      </trkpt>
      <trkpt lat="46.61676" lon="5.83783">
        <ele>626</ele>
        <time>2025-10-08T12:43:43.512+00:00</time>
      </trkpt>
      <trkpt lat="46.61675" lon="5.83774">
        <ele>626</ele>
        <time>2025-10-08T12:43:48.010+00:00</time>
      </trkpt>
      <trkpt lat="46.61675" lon="5.83764">
        <ele>626</ele>
        <time>2025-10-08T12:43:52.513+00:00</time>
      </trkpt>
      <trkpt lat="46.61674" lon="5.83754">
        <ele>625</ele>
        <time>2025-10-08T12:43:57.035+00:00</time>
      </trkpt>
      <trkpt lat="46.61674" lon="5.83743">
        <ele>625</ele>
        <time>2025-10-08T12:44:01.694+00:00</time>
      </trkpt>
      <trkpt lat="46.61675" lon="5.83735">
        <ele>626</ele>
        <time>2025-10-08T12:44:05.758+00:00</time>
      </trkpt>
      <trkpt lat="46.61677" lon="5.83728">
        <ele>626</ele>
        <time>2025-10-08T12:44:09.834+00:00</time>
      </trkpt>
      <trkpt lat="46.61679" lon="5.83718">
        <ele>626</ele>
        <time>2025-10-08T12:44:14.415+00:00</time>
      </trkpt>
      <trkpt lat="46.6168" lon="5.83709">
        <ele>626</ele>
        <time>2025-10-08T12:44:18.493+00:00</time>
      </trkpt>
      <trkpt lat="46.61681" lon="5.83701">
        <ele>644</ele>
        <time>2025-10-08T12:44:22.536+00:00</time>
      </trkpt>
      <trkpt lat="46.61682" lon="5.83692">
        <ele>644</ele>
        <time>2025-10-08T12:44:26.555+00:00</time>
      </trkpt>
      <trkpt lat="46.61682" lon="5.83682">
        <ele>644</ele>
        <time>2025-10-08T12:44:30.758+00:00</time>
      </trkpt>
      <trkpt lat="46.61682" lon="5.83672">
        <ele>644</ele>
        <time>2025-10-08T12:44:35.233+00:00</time>
      </trkpt>
      <trkpt lat="46.61683" lon="5.83663">
        <ele>644</ele>
        <time>2025-10-08T12:44:39.758+00:00</time>
      </trkpt>
      <trkpt lat="46.61685" lon="5.83652">
        <ele>641</ele>
        <time>2025-10-08T12:44:44.593+00:00</time>
      </trkpt>
      <trkpt lat="46.61689" lon="5.83643">
        <ele>641</ele>
        <time>2025-10-08T12:44:49.037+00:00</time>
      </trkpt>
      <trkpt lat="46.61692" lon="5.83635">
        <ele>641</ele>
        <time>2025-10-08T12:44:53.576+00:00</time>
      </trkpt>
      <trkpt lat="46.61696" lon="5.83626">
        <ele>641</ele>
        <time>2025-10-08T12:44:58.133+00:00</time>
      </trkpt>
      <trkpt lat="46.61699" lon="5.83619">
        <ele>636</ele>
        <time>2025-10-08T12:45:02.475+00:00</time>
      </trkpt>
      <trkpt lat="46.61703" lon="5.83611">
        <ele>636</ele>
        <time>2025-10-08T12:45:06.877+00:00</time>
      </trkpt>
      <trkpt lat="46.61705" lon="5.83602">
        <ele>636</ele>
        <time>2025-10-08T12:45:11.416+00:00</time>
      </trkpt>
      <trkpt lat="46.61708" lon="5.83594">
        <ele>633</ele>
        <time>2025-10-08T12:45:15.759+00:00</time>
      </trkpt>
      <trkpt lat="46.61709" lon="5.83583">
        <ele>652</ele>
        <time>2025-10-08T12:45:20.758+00:00</time>
      </trkpt>
      <trkpt lat="46.61709" lon="5.83573">
        <ele>652</ele>
        <time>2025-10-08T12:45:25.155+00:00</time>
      </trkpt>
      <trkpt lat="46.61707" lon="5.83563">
        <ele>633</ele>
        <time>2025-10-08T12:45:29.557+00:00</time>
      </trkpt>
      <trkpt lat="46.61705" lon="5.83555">
        <ele>633</ele>
        <time>2025-10-08T12:45:33.615+00:00</time>
      </trkpt>
      <trkpt lat="46.61702" lon="5.83546">
        <ele>633</ele>
        <time>2025-10-08T12:45:37.758+00:00</time>
      </trkpt>
      <trkpt lat="46.61701" lon="5.83536">
        <ele>636</ele>
        <time>2025-10-08T12:45:42.080+00:00</time>
      </trkpt>
      <trkpt lat="46.61702" lon="5.83526">
        <ele>636</ele>
        <time>2025-10-08T12:45:46.499+00:00</time>
      </trkpt>
      <trkpt lat="46.61703" lon="5.83516">
        <ele>636</ele>
        <time>2025-10-08T12:45:50.758+00:00</time>
      </trkpt>
      <trkpt lat="46.61704" lon="5.83508">
        <ele>640</ele>
        <time>2025-10-08T12:45:54.913+00:00</time>
      </trkpt>
      <trkpt lat="46.61705" lon="5.83497">
        <ele>640</ele>
        <time>2025-10-08T12:45:59.758+00:00</time>
      </trkpt>
      <trkpt lat="46.61705" lon="5.83487">
        <ele>640</ele>
        <time>2025-10-08T12:46:04.176+00:00</time>
      </trkpt>
      <trkpt lat="46.61706" lon="5.83477">
        <ele>639</ele>
        <time>2025-10-08T12:46:08.673+00:00</time>
      </trkpt>
      <trkpt lat="46.61709" lon="5.83469">
        <ele>653</ele>
        <time>2025-10-08T12:46:13.136+00:00</time>
      </trkpt>
      <trkpt lat="46.61713" lon="5.8346">
        <ele>653</ele>
        <time>2025-10-08T12:46:17.597+00:00</time>
      </trkpt>
      <trkpt lat="46.61717" lon="5.83453">
        <ele>651</ele>
        <time>2025-10-08T12:46:22.094+00:00</time>
      </trkpt>
      <trkpt lat="46.61722" lon="5.83446">
        <ele>651</ele>
        <time>2025-10-08T12:46:26.316+00:00</time>
      </trkpt>
      <trkpt lat="46.61727" lon="5.8344">
        <ele>651</ele>
        <time>2025-10-08T12:46:30.758+00:00</time>
      </trkpt>
      <trkpt lat="46.61731" lon="5.83434">
        <ele>651</ele>
        <time>2025-10-08T12:46:35.376+00:00</time>
      </trkpt>
      <trkpt lat="46.61735" lon="5.83428">
        <ele>644</ele>
        <time>2025-10-08T12:46:39.759+00:00</time>
      </trkpt>
      <trkpt lat="46.61737" lon="5.83422">
        <ele>662</ele>
        <time>2025-10-08T12:46:43.857+00:00</time>
      </trkpt>
      <trkpt lat="46.61738" lon="5.83414">
        <ele>662</ele>
        <time>2025-10-08T12:46:48.097+00:00</time>
      </trkpt>
      <trkpt lat="46.6174" lon="5.83408">
        <ele>662</ele>
        <time>2025-10-08T12:46:52.159+00:00</time>
      </trkpt>
      <trkpt lat="46.61742" lon="5.83401">
        <ele>660</ele>
        <time>2025-10-08T12:46:56.758+00:00</time>
      </trkpt>
      <trkpt lat="46.61745" lon="5.83394">
        <ele>660</ele>
        <time>2025-10-08T12:47:01.092+00:00</time>
      </trkpt>
      <trkpt lat="46.61747" lon="5.83387">
        <ele>660</ele>
        <time>2025-10-08T12:47:05.135+00:00</time>
      </trkpt>
      <trkpt lat="46.6175" lon="5.83381">
        <ele>660</ele>
        <time>2025-10-08T12:47:09.758+00:00</time>
      </trkpt>
      <trkpt lat="46.61752" lon="5.83374">
        <ele>658</ele>
        <time>2025-10-08T12:47:14.479+00:00</time>
      </trkpt>
      <trkpt lat="46.61753" lon="5.83367">
        <ele>658</ele>
        <time>2025-10-08T12:47:18.577+00:00</time>
      </trkpt>
      <trkpt lat="46.61755" lon="5.83362">
        <ele>658</ele>
        <time>2025-10-08T12:47:23.204+00:00</time>
      </trkpt>
      <trkpt lat="46.61755" lon="5.83359">
        <ele>658</ele>
        <time>2025-10-08T12:47:27.258+00:00</time>
      </trkpt>
      <trkpt lat="46.61757" lon="5.83358">
        <ele>658</ele>
        <time>2025-10-08T12:47:31.758+00:00</time>
      </trkpt>
      <trkpt lat="46.61757" lon="5.83356">
        <ele>658</ele>
        <time>2025-10-08T12:47:36.758+00:00</time>
      </trkpt>
      <trkpt lat="46.6176" lon="5.83349">
        <ele>658</ele>
        <time>2025-10-08T12:47:40.935+00:00</time>
      </trkpt>
      <trkpt lat="46.61761" lon="5.83339">
        <ele>652</ele>
        <time>2025-10-08T12:47:45.758+00:00</time>
      </trkpt>
      <trkpt lat="46.61764" lon="5.83331">
        <ele>665</ele>
        <time>2025-10-08T12:47:50.235+00:00</time>
      </trkpt>
      <trkpt lat="46.61768" lon="5.83326">
        <ele>665</ele>
        <time>2025-10-08T12:47:54.758+00:00</time>
      </trkpt>
      <trkpt lat="46.61771" lon="5.83318">
        <ele>662</ele>
        <time>2025-10-08T12:47:59.356+00:00</time>
      </trkpt>
      <trkpt lat="46.61773" lon="5.83312">
        <ele>662</ele>
        <time>2025-10-08T12:48:03.758+00:00</time>
      </trkpt>
      <trkpt lat="46.61775" lon="5.83305">
        <ele>662</ele>
        <time>2025-10-08T12:48:08.434+00:00</time>
      </trkpt>
      <trkpt lat="46.61777" lon="5.83298">
        <ele>662</ele>
        <time>2025-10-08T12:48:12.554+00:00</time>
      </trkpt>
      <trkpt lat="46.61779" lon="5.83292">
        <ele>662</ele>
        <time>2025-10-08T12:48:16.758+00:00</time>
      </trkpt>
      <trkpt lat="46.61782" lon="5.83285">
        <ele>657</ele>
        <time>2025-10-08T12:48:21.394+00:00</time>
      </trkpt>
      <trkpt lat="46.61784" lon="5.83278">
        <ele>657</ele>
        <time>2025-10-08T12:48:25.574+00:00</time>
      </trkpt>
      <trkpt lat="46.61786" lon="5.83272">
        <ele>657</ele>
        <time>2025-10-08T12:48:29.678+00:00</time>
      </trkpt>
      <trkpt lat="46.61789" lon="5.83266">
        <ele>657</ele>
        <time>2025-10-08T12:48:33.696+00:00</time>
      </trkpt>
      <trkpt lat="46.6179" lon="5.8326">
        <ele>653</ele>
        <time>2025-10-08T12:48:37.758+00:00</time>
      </trkpt>
      <trkpt lat="46.61793" lon="5.83254">
        <ele>669</ele>
        <time>2025-10-08T12:48:41.837+00:00</time>
      </trkpt>
      <trkpt lat="46.61795" lon="5.83248">
        <ele>669</ele>
        <time>2025-10-08T12:48:45.854+00:00</time>
      </trkpt>
      <trkpt lat="46.61797" lon="5.83241">
        <ele>669</ele>
        <time>2025-10-08T12:48:50.053+00:00</time>
      </trkpt>
      <trkpt lat="46.61799" lon="5.83234">
        <ele>667</ele>
        <time>2025-10-08T12:48:54.634+00:00</time>
      </trkpt>
      <trkpt lat="46.61801" lon="5.83228">
        <ele>667</ele>
        <time>2025-10-08T12:48:58.677+00:00</time>
      </trkpt>
      <trkpt lat="46.61805" lon="5.83223">
        <ele>667</ele>
        <time>2025-10-08T12:49:02.759+00:00</time>
      </trkpt>
      <trkpt lat="46.61807" lon="5.83217">
        <ele>667</ele>
        <time>2025-10-08T12:49:07.217+00:00</time>
      </trkpt>
      <trkpt lat="46.61809" lon="5.83211">
        <ele>667</ele>
        <time>2025-10-08T12:49:11.493+00:00</time>
      </trkpt>
      <trkpt lat="46.61812" lon="5.83203">
        <ele>667</ele>
        <time>2025-10-08T12:49:16.116+00:00</time>
      </trkpt>
      <trkpt lat="46.61815" lon="5.83196">
        <ele>667</ele>
        <time>2025-10-08T12:49:20.758+00:00</time>
      </trkpt>
      <trkpt lat="46.61818" lon="5.8319">
        <ele>667</ele>
        <time>2025-10-08T12:49:25.758+00:00</time>
      </trkpt>
      <trkpt lat="46.61828" lon="5.83196">
        <ele>675</ele>
        <time>2025-10-08T12:50:24.184+00:00</time>
      </trkpt>
      <trkpt lat="46.61828" lon="5.83186">
        <ele>675</ele>
        <time>2025-10-08T12:50:28.595+00:00</time>
      </trkpt>
      <trkpt lat="46.61828" lon="5.83178">
        <ele>673</ele>
        <time>2025-10-08T12:50:32.758+00:00</time>
      </trkpt>
      <trkpt lat="46.61829" lon="5.83168">
        <ele>673</ele>
        <time>2025-10-08T12:50:37.699+00:00</time>
      </trkpt>
      <trkpt lat="46.61829" lon="5.83161">
        <ele>673</ele>
        <time>2025-10-08T12:50:41.757+00:00</time>
      </trkpt>
      <trkpt lat="46.61831" lon="5.83162">
        <ele>673</ele>
        <time>2025-10-08T12:57:01.758+00:00</time>
      </trkpt>
      <trkpt lat="46.61834" lon="5.83157">
        <ele>673</ele>
        <time>2025-10-08T12:57:05.758+00:00</time>
      </trkpt>
      <trkpt lat="46.61836" lon="5.83151">
        <ele>667</ele>
        <time>2025-10-08T12:57:10.524+00:00</time>
      </trkpt>
      <trkpt lat="46.61838" lon="5.83147">
        <ele>667</ele>
        <time>2025-10-08T12:57:14.757+00:00</time>
      </trkpt>
      <trkpt lat="46.6184" lon="5.83143">
        <ele>667</ele>
        <time>2025-10-08T12:57:19.406+00:00</time>
      </trkpt>
      <trkpt lat="46.61842" lon="5.83138">
        <ele>667</ele>
        <time>2025-10-08T12:57:23.766+00:00</time>
      </trkpt>
      <trkpt lat="46.61843" lon="5.83134">
        <ele>667</ele>
        <time>2025-10-08T12:57:28.100+00:00</time>
      </trkpt>
      <trkpt lat="46.61844" lon="5.83134">
        <ele>667</ele>
        <time>2025-10-08T12:57:32.757+00:00</time>
      </trkpt>
      <trkpt lat="46.61844" lon="5.83131">
        <ele>667</ele>
        <time>2025-10-08T12:57:37.401+00:00</time>
      </trkpt>
      <trkpt lat="46.61846" lon="5.83124">
        <ele>661</ele>
        <time>2025-10-08T12:57:41.461+00:00</time>
      </trkpt>
      <trkpt lat="46.61849" lon="5.83117">
        <ele>675</ele>
        <time>2025-10-08T12:57:45.985+00:00</time>
      </trkpt>
      <trkpt lat="46.6185" lon="5.83111">
        <ele>675</ele>
        <time>2025-10-08T12:57:50.626+00:00</time>
      </trkpt>
      <trkpt lat="46.61852" lon="5.83108">
        <ele>675</ele>
        <time>2025-10-08T12:57:55.140+00:00</time>
      </trkpt>
      <trkpt lat="46.61852" lon="5.83108">
        <ele>675</ele>
        <time>2025-10-08T12:57:59.757+00:00</time>
      </trkpt>
      <trkpt lat="46.61854" lon="5.83104">
        <ele>675</ele>
        <time>2025-10-08T12:58:04.126+00:00</time>
      </trkpt>
      <trkpt lat="46.61858" lon="5.83099">
        <ele>675</ele>
        <time>2025-10-08T12:58:08.219+00:00</time>
      </trkpt>
      <trkpt lat="46.61861" lon="5.83094">
        <ele>671</ele>
        <time>2025-10-08T12:58:12.546+00:00</time>
      </trkpt>
      <trkpt lat="46.61863" lon="5.83087">
        <ele>671</ele>
        <time>2025-10-08T12:58:17.504+00:00</time>
      </trkpt>
      <trkpt lat="46.61865" lon="5.83082">
        <ele>671</ele>
        <time>2025-10-08T12:58:21.538+00:00</time>
      </trkpt>
      <trkpt lat="46.61867" lon="5.83077">
        <ele>671</ele>
        <time>2025-10-08T12:58:25.584+00:00</time>
      </trkpt>
      <trkpt lat="46.6187" lon="5.83073">
        <ele>671</ele>
        <time>2025-10-08T12:58:29.645+00:00</time>
      </trkpt>
      <trkpt lat="46.61873" lon="5.83069">
        <ele>667</ele>
        <time>2025-10-08T12:58:33.920+00:00</time>
      </trkpt>
      <trkpt lat="46.61877" lon="5.83065">
        <ele>676</ele>
        <time>2025-10-08T12:58:38.441+00:00</time>
      </trkpt>
      <trkpt lat="46.61881" lon="5.83061">
        <ele>676</ele>
        <time>2025-10-08T12:58:43.143+00:00</time>
      </trkpt>
      <trkpt lat="46.61885" lon="5.83057">
        <ele>676</ele>
        <time>2025-10-08T12:58:47.444+00:00</time>
      </trkpt>
      <trkpt lat="46.61889" lon="5.83053">
        <ele>676</ele>
        <time>2025-10-08T12:58:51.701+00:00</time>
      </trkpt>
      <trkpt lat="46.61892" lon="5.83048">
        <ele>676</ele>
        <time>2025-10-08T12:58:56.266+00:00</time>
      </trkpt>
      <trkpt lat="46.61895" lon="5.83045">
        <ele>676</ele>
        <time>2025-10-08T12:59:00.405+00:00</time>
      </trkpt>
      <trkpt lat="46.61899" lon="5.83042">
        <ele>676</ele>
        <time>2025-10-08T12:59:04.926+00:00</time>
      </trkpt>
      <trkpt lat="46.61904" lon="5.83039">
        <ele>680</ele>
        <time>2025-10-08T12:59:09.498+00:00</time>
      </trkpt>
      <trkpt lat="46.61908" lon="5.83035">
        <ele>680</ele>
        <time>2025-10-08T12:59:14.595+00:00</time>
      </trkpt>
      <trkpt lat="46.61913" lon="5.83032">
        <ele>680</ele>
        <time>2025-10-08T12:59:18.756+00:00</time>
      </trkpt>
      <trkpt lat="46.61917" lon="5.83029">
        <ele>680</ele>
        <time>2025-10-08T12:59:23.458+00:00</time>
      </trkpt>
      <trkpt lat="46.61922" lon="5.83027">
        <ele>680</ele>
        <time>2025-10-08T12:59:27.759+00:00</time>
      </trkpt>
      <trkpt lat="46.61927" lon="5.83023">
        <ele>680</ele>
        <time>2025-10-08T12:59:32.357+00:00</time>
      </trkpt>
      <trkpt lat="46.61932" lon="5.8302">
        <ele>682</ele>
        <time>2025-10-08T12:59:36.635+00:00</time>
      </trkpt>
      <trkpt lat="46.61936" lon="5.83017">
        <ele>682</ele>
        <time>2025-10-08T12:59:40.756+00:00</time>
      </trkpt>
      <trkpt lat="46.61941" lon="5.83014">
        <ele>682</ele>
        <time>2025-10-08T12:59:45.756+00:00</time>
      </trkpt>
      <trkpt lat="46.61946" lon="5.83012">
        <ele>679</ele>
        <time>2025-10-08T12:59:50.539+00:00</time>
      </trkpt>
      <trkpt lat="46.61951" lon="5.83009">
        <ele>679</ele>
        <time>2025-10-08T12:59:54.618+00:00</time>
      </trkpt>
      <trkpt lat="46.61956" lon="5.83006">
        <ele>679</ele>
        <time>2025-10-08T12:59:58.756+00:00</time>
      </trkpt>
      <trkpt lat="46.61961" lon="5.83005">
        <ele>683</ele>
        <time>2025-10-08T13:00:03.279+00:00</time>
      </trkpt>
      <trkpt lat="46.61966" lon="5.83003">
        <ele>683</ele>
        <time>2025-10-08T13:00:07.756+00:00</time>
      </trkpt>
      <trkpt lat="46.61972" lon="5.83">
        <ele>683</ele>
        <time>2025-10-08T13:00:12.756+00:00</time>
      </trkpt>
      <trkpt lat="46.61978" lon="5.82997">
        <ele>683</ele>
        <time>2025-10-08T13:00:17.673+00:00</time>
      </trkpt>
      <trkpt lat="46.61982" lon="5.82994">
        <ele>683</ele>
        <time>2025-10-08T13:00:21.760+00:00</time>
      </trkpt>
      <trkpt lat="46.61988" lon="5.82992">
        <ele>685</ele>
        <time>2025-10-08T13:00:26.256+00:00</time>
      </trkpt>
      <trkpt lat="46.61993" lon="5.82988">
        <ele>685</ele>
        <time>2025-10-08T13:00:30.599+00:00</time>
      </trkpt>
      <trkpt lat="46.61997" lon="5.82985">
        <ele>682</ele>
        <time>2025-10-08T13:00:34.756+00:00</time>
      </trkpt>
      <trkpt lat="46.62002" lon="5.82982">
        <ele>682</ele>
        <time>2025-10-08T13:00:39.319+00:00</time>
      </trkpt>
      <trkpt lat="46.62007" lon="5.82978">
        <ele>682</ele>
        <time>2025-10-08T13:00:43.679+00:00</time>
      </trkpt>
      <trkpt lat="46.62012" lon="5.82977">
        <ele>682</ele>
        <time>2025-10-08T13:00:47.835+00:00</time>
      </trkpt>
      <trkpt lat="46.62018" lon="5.82976">
        <ele>680</ele>
        <time>2025-10-08T13:00:52.331+00:00</time>
      </trkpt>
      <trkpt lat="46.62023" lon="5.82976">
        <ele>680</ele>
        <time>2025-10-08T13:00:56.616+00:00</time>
      </trkpt>
      <trkpt lat="46.62028" lon="5.82976">
        <ele>680</ele>
        <time>2025-10-08T13:01:00.756+00:00</time>
      </trkpt>
      <trkpt lat="46.62035" lon="5.82977">
        <ele>680</ele>
        <time>2025-10-08T13:01:05.756+00:00</time>
      </trkpt>
      <trkpt lat="46.6204" lon="5.82977">
        <ele>680</ele>
        <time>2025-10-08T13:01:10.479+00:00</time>
      </trkpt>
      <trkpt lat="46.62046" lon="5.82977">
        <ele>682</ele>
        <time>2025-10-08T13:01:14.757+00:00</time>
      </trkpt>
      <trkpt lat="46.62051" lon="5.82976">
        <ele>682</ele>
        <time>2025-10-08T13:01:18.776+00:00</time>
      </trkpt>
      <trkpt lat="46.62057" lon="5.82978">
        <ele>682</ele>
        <time>2025-10-08T13:01:23.757+00:00</time>
      </trkpt>
      <trkpt lat="46.62063" lon="5.82976">
        <ele>682</ele>
        <time>2025-10-08T13:01:28.339+00:00</time>
      </trkpt>
      <trkpt lat="46.62068" lon="5.82974">
        <ele>682</ele>
        <time>2025-10-08T13:01:32.757+00:00</time>
      </trkpt>
      <trkpt lat="46.62074" lon="5.82973">
        <ele>684</ele>
        <time>2025-10-08T13:01:37.341+00:00</time>
      </trkpt>
      <trkpt lat="46.62079" lon="5.82971">
        <ele>684</ele>
        <time>2025-10-08T13:01:41.375+00:00</time>
      </trkpt>
      <trkpt lat="46.62083" lon="5.82968">
        <ele>684</ele>
        <time>2025-10-08T13:01:45.395+00:00</time>
      </trkpt>
      <trkpt lat="46.62088" lon="5.82965">
        <ele>684</ele>
        <time>2025-10-08T13:01:49.497+00:00</time>
      </trkpt>
      <trkpt lat="46.62093" lon="5.82963">
        <ele>684</ele>
        <time>2025-10-08T13:01:53.635+00:00</time>
      </trkpt>
      <trkpt lat="46.621" lon="5.82961">
        <ele>682</ele>
        <time>2025-10-08T13:01:59.756+00:00</time>
      </trkpt>
      <trkpt lat="46.62106" lon="5.82961">
        <ele>682</ele>
        <time>2025-10-08T13:02:04.515+00:00</time>
      </trkpt>
      <trkpt lat="46.62111" lon="5.8296">
        <ele>682</ele>
        <time>2025-10-08T13:02:08.756+00:00</time>
      </trkpt>
      <trkpt lat="46.62117" lon="5.82961">
        <ele>682</ele>
        <time>2025-10-08T13:02:13.397+00:00</time>
      </trkpt>
      <trkpt lat="46.62122" lon="5.82962">
        <ele>682</ele>
        <time>2025-10-08T13:02:17.493+00:00</time>
      </trkpt>
      <trkpt lat="46.62127" lon="5.82963">
        <ele>676</ele>
        <time>2025-10-08T13:02:21.639+00:00</time>
      </trkpt>
      <trkpt lat="46.62132" lon="5.82964">
        <ele>676</ele>
        <time>2025-10-08T13:02:25.734+00:00</time>
      </trkpt>
      <trkpt lat="46.62136" lon="5.82963">
        <ele>676</ele>
        <time>2025-10-08T13:02:29.756+00:00</time>
      </trkpt>
      <trkpt lat="46.62141" lon="5.82961">
        <ele>676</ele>
        <time>2025-10-08T13:02:34.439+00:00</time>
      </trkpt>
      <trkpt lat="46.62145" lon="5.82957">
        <ele>675</ele>
        <time>2025-10-08T13:02:38.620+00:00</time>
      </trkpt>
      <trkpt lat="46.62149" lon="5.82952">
        <ele>675</ele>
        <time>2025-10-08T13:02:42.895+00:00</time>
      </trkpt>
      <trkpt lat="46.62153" lon="5.82949">
        <ele>674</ele>
        <time>2025-10-08T13:02:47.756+00:00</time>
      </trkpt>
      <trkpt lat="46.62155" lon="5.82944">
        <ele>674</ele>
        <time>2025-10-08T13:02:51.837+00:00</time>
      </trkpt>
      <trkpt lat="46.62159" lon="5.82938">
        <ele>674</ele>
        <time>2025-10-08T13:02:56.392+00:00</time>
      </trkpt>
      <trkpt lat="46.62163" lon="5.82934">
        <ele>674</ele>
        <time>2025-10-08T13:03:00.659+00:00</time>
      </trkpt>
      <trkpt lat="46.62167" lon="5.8293">
        <ele>673</ele>
        <time>2025-10-08T13:03:04.789+00:00</time>
      </trkpt>
      <trkpt lat="46.6218" lon="5.82919">
        <ele>673</ele>
        <time>2025-10-08T13:04:19.757+00:00</time>
      </trkpt>
      <trkpt lat="46.62182" lon="5.82918">
        <ele>672</ele>
        <time>2025-10-08T13:04:24.757+00:00</time>
      </trkpt>
      <trkpt lat="46.62183" lon="5.82919">
        <ele>672</ele>
        <time>2025-10-08T13:04:29.756+00:00</time>
      </trkpt>
      <trkpt lat="46.62183" lon="5.8292">
        <ele>672</ele>
        <time>2025-10-08T13:04:34.778+00:00</time>
      </trkpt>
      <trkpt lat="46.62185" lon="5.8292">
        <ele>672</ele>
        <time>2025-10-08T13:04:39.775+00:00</time>
      </trkpt>
      <trkpt lat="46.62189" lon="5.82922">
        <ele>672</ele>
        <time>2025-10-08T13:04:43.757+00:00</time>
      </trkpt>
      <trkpt lat="46.62193" lon="5.82926">
        <ele>672</ele>
        <time>2025-10-08T13:04:47.974+00:00</time>
      </trkpt>
      <trkpt lat="46.62196" lon="5.82933">
        <ele>674</ele>
        <time>2025-10-08T13:04:52.376+00:00</time>
      </trkpt>
      <trkpt lat="46.62198" lon="5.82939">
        <ele>674</ele>
        <time>2025-10-08T13:04:56.756+00:00</time>
      </trkpt>
      <trkpt lat="46.62202" lon="5.82944">
        <ele>674</ele>
        <time>2025-10-08T13:05:01.441+00:00</time>
      </trkpt>
      <trkpt lat="46.62205" lon="5.8295">
        <ele>674</ele>
        <time>2025-10-08T13:05:06.113+00:00</time>
      </trkpt>
      <trkpt lat="46.62209" lon="5.82955">
        <ele>674</ele>
        <time>2025-10-08T13:05:10.756+00:00</time>
      </trkpt>
      <trkpt lat="46.62212" lon="5.8296">
        <ele>676</ele>
        <time>2025-10-08T13:05:15.542+00:00</time>
      </trkpt>
      <trkpt lat="46.62217" lon="5.82966">
        <ele>676</ele>
        <time>2025-10-08T13:05:20.559+00:00</time>
      </trkpt>
      <trkpt lat="46.62223" lon="5.82967">
        <ele>676</ele>
        <time>2025-10-08T13:05:25.715+00:00</time>
      </trkpt>
      <trkpt lat="46.62226" lon="5.82967">
        <ele>676</ele>
        <time>2025-10-08T13:05:29.756+00:00</time>
      </trkpt>
      <trkpt lat="46.6223" lon="5.82966">
        <ele>676</ele>
        <time>2025-10-08T13:05:33.756+00:00</time>
      </trkpt>
      <trkpt lat="46.62234" lon="5.82961">
        <ele>676</ele>
        <time>2025-10-08T13:05:38.536+00:00</time>
      </trkpt>
      <trkpt lat="46.62238" lon="5.82956">
        <ele>677</ele>
        <time>2025-10-08T13:05:42.776+00:00</time>
      </trkpt>
      <trkpt lat="46.62242" lon="5.8295">
        <ele>677</ele>
        <time>2025-10-08T13:05:47.599+00:00</time>
      </trkpt>
      <trkpt lat="46.62246" lon="5.82946">
        <ele>677</ele>
        <time>2025-10-08T13:05:51.889+00:00</time>
      </trkpt>
      <trkpt lat="46.62251" lon="5.82942">
        <ele>677</ele>
        <time>2025-10-08T13:05:56.453+00:00</time>
      </trkpt>
      <trkpt lat="46.62255" lon="5.82941">
        <ele>677</ele>
        <time>2025-10-08T13:06:00.757+00:00</time>
      </trkpt>
      <trkpt lat="46.62255" lon="5.82933">
        <ele>677</ele>
        <time>2025-10-08T13:06:05.096+00:00</time>
      </trkpt>
      <trkpt lat="46.62259" lon="5.82929">
        <ele>674</ele>
        <time>2025-10-08T13:06:09.457+00:00</time>
      </trkpt>
      <trkpt lat="46.62265" lon="5.82927">
        <ele>676</ele>
        <time>2025-10-08T13:06:13.919+00:00</time>
      </trkpt>
      <trkpt lat="46.6227" lon="5.82924">
        <ele>676</ele>
        <time>2025-10-08T13:06:18.493+00:00</time>
      </trkpt>
      <trkpt lat="46.62276" lon="5.82922">
        <ele>676</ele>
        <time>2025-10-08T13:06:22.756+00:00</time>
      </trkpt>
      <trkpt lat="46.6228" lon="5.82918">
        <ele>676</ele>
        <time>2025-10-08T13:06:26.854+00:00</time>
      </trkpt>
      <trkpt lat="46.62286" lon="5.82916">
        <ele>676</ele>
        <time>2025-10-08T13:06:31.317+00:00</time>
      </trkpt>
      <trkpt lat="46.62291" lon="5.82914">
        <ele>676</ele>
        <time>2025-10-08T13:06:35.676+00:00</time>
      </trkpt>
      <trkpt lat="46.62295" lon="5.82911">
        <ele>676</ele>
        <time>2025-10-08T13:06:39.756+00:00</time>
      </trkpt>
      <trkpt lat="46.623" lon="5.82908">
        <ele>676</ele>
        <time>2025-10-08T13:06:44.294+00:00</time>
      </trkpt>
      <trkpt lat="46.62305" lon="5.82906">
        <ele>676</ele>
        <time>2025-10-08T13:06:48.654+00:00</time>
      </trkpt>
      <trkpt lat="46.6231" lon="5.82904">
        <ele>676</ele>
        <time>2025-10-08T13:06:52.756+00:00</time>
      </trkpt>
      <trkpt lat="46.62315" lon="5.829">
        <ele>673</ele>
        <time>2025-10-08T13:06:57.220+00:00</time>
      </trkpt>
      <trkpt lat="46.6232" lon="5.82897">
        <ele>673</ele>
        <time>2025-10-08T13:07:01.392+00:00</time>
      </trkpt>
      <trkpt lat="46.62325" lon="5.82895">
        <ele>673</ele>
        <time>2025-10-08T13:07:05.540+00:00</time>
      </trkpt>
      <trkpt lat="46.62329" lon="5.82892">
        <ele>673</ele>
        <time>2025-10-08T13:07:09.755+00:00</time>
      </trkpt>
      <trkpt lat="46.62334" lon="5.82889">
        <ele>673</ele>
        <time>2025-10-08T13:07:14.755+00:00</time>
      </trkpt>
      <trkpt lat="46.62339" lon="5.82887">
        <ele>673</ele>
        <time>2025-10-08T13:07:19.618+00:00</time>
      </trkpt>
      <trkpt lat="46.62344" lon="5.82885">
        <ele>673</ele>
        <time>2025-10-08T13:07:23.755+00:00</time>
      </trkpt>
      <trkpt lat="46.62349" lon="5.82887">
        <ele>673</ele>
        <time>2025-10-08T13:07:28.516+00:00</time>
      </trkpt>
      <trkpt lat="46.62353" lon="5.82888">
        <ele>673</ele>
        <time>2025-10-08T13:07:32.755+00:00</time>
      </trkpt>
      <trkpt lat="46.62359" lon="5.8289">
        <ele>673</ele>
        <time>2025-10-08T13:07:37.339+00:00</time>
      </trkpt>
      <trkpt lat="46.62364" lon="5.82891">
        <ele>673</ele>
        <time>2025-10-08T13:07:41.879+00:00</time>
      </trkpt>
      <trkpt lat="46.6237" lon="5.82894">
        <ele>673</ele>
        <time>2025-10-08T13:07:46.520+00:00</time>
      </trkpt>
      <trkpt lat="46.62374" lon="5.82897">
        <ele>673</ele>
        <time>2025-10-08T13:07:50.756+00:00</time>
      </trkpt>
      <trkpt lat="46.62378" lon="5.82899">
        <ele>669</ele>
        <time>2025-10-08T13:07:55.333+00:00</time>
      </trkpt>
      <trkpt lat="46.62382" lon="5.82903">
        <ele>669</ele>
        <time>2025-10-08T13:07:59.574+00:00</time>
      </trkpt>
      <trkpt lat="46.62387" lon="5.82904">
        <ele>672</ele>
        <time>2025-10-08T13:08:03.763+00:00</time>
      </trkpt>
      <trkpt lat="46.62392" lon="5.82907">
        <ele>672</ele>
        <time>2025-10-08T13:08:07.953+00:00</time>
      </trkpt>
      <trkpt lat="46.62398" lon="5.82909">
        <ele>672</ele>
        <time>2025-10-08T13:08:12.295+00:00</time>
      </trkpt>
      <trkpt lat="46.62401" lon="5.82914">
        <ele>672</ele>
        <time>2025-10-08T13:08:16.519+00:00</time>
      </trkpt>
      <trkpt lat="46.62407" lon="5.82916">
        <ele>666</ele>
        <time>2025-10-08T13:08:21.134+00:00</time>
      </trkpt>
      <trkpt lat="46.62413" lon="5.82918">
        <ele>666</ele>
        <time>2025-10-08T13:08:25.733+00:00</time>
      </trkpt>
      <trkpt lat="46.62417" lon="5.82922">
        <ele>666</ele>
        <time>2025-10-08T13:08:30.700+00:00</time>
      </trkpt>
      <trkpt lat="46.62423" lon="5.82926">
        <ele>666</ele>
        <time>2025-10-08T13:08:35.655+00:00</time>
      </trkpt>
      <trkpt lat="46.62428" lon="5.82929">
        <ele>666</ele>
        <time>2025-10-08T13:08:40.434+00:00</time>
      </trkpt>
      <trkpt lat="46.62431" lon="5.82935">
        <ele>665</ele>
        <time>2025-10-08T13:08:44.641+00:00</time>
      </trkpt>
      <trkpt lat="46.62435" lon="5.82941">
        <ele>665</ele>
        <time>2025-10-08T13:08:49.120+00:00</time>
      </trkpt>
      <trkpt lat="46.6244" lon="5.82943">
        <ele>665</ele>
        <time>2025-10-08T13:08:53.497+00:00</time>
      </trkpt>
      <trkpt lat="46.62446" lon="5.82941">
        <ele>665</ele>
        <time>2025-10-08T13:08:57.756+00:00</time>
      </trkpt>
      <trkpt lat="46.62452" lon="5.82941">
        <ele>665</ele>
        <time>2025-10-08T13:09:02.276+00:00</time>
      </trkpt>
      <trkpt lat="46.62458" lon="5.82943">
        <ele>665</ele>
        <time>2025-10-08T13:09:06.758+00:00</time>
      </trkpt>
      <trkpt lat="46.6246" lon="5.82942">
        <ele>666</ele>
        <time>2025-10-08T13:09:11.379+00:00</time>
      </trkpt>
      <trkpt lat="46.62459" lon="5.8294">
        <ele>666</ele>
        <time>2025-10-08T13:09:16.150+00:00</time>
      </trkpt>
      <trkpt lat="46.62468" lon="5.82947">
        <ele>666</ele>
        <time>2025-10-08T13:09:20.620+00:00</time>
      </trkpt>
      <trkpt lat="46.62477" lon="5.82953">
        <ele>666</ele>
        <time>2025-10-08T13:09:25.398+00:00</time>
      </trkpt>
      <trkpt lat="46.62483" lon="5.82954">
        <ele>666</ele>
        <time>2025-10-08T13:09:29.758+00:00</time>
      </trkpt>
      <trkpt lat="46.6249" lon="5.82955">
        <ele>667</ele>
        <time>2025-10-08T13:09:34.537+00:00</time>
      </trkpt>
      <trkpt lat="46.62497" lon="5.82954">
        <ele>667</ele>
        <time>2025-10-08T13:09:38.657+00:00</time>
      </trkpt>
      <trkpt lat="46.62502" lon="5.82949">
        <ele>667</ele>
        <time>2025-10-08T13:09:43.178+00:00</time>
      </trkpt>
      <trkpt lat="46.62508" lon="5.82946">
        <ele>667</ele>
        <time>2025-10-08T13:09:47.692+00:00</time>
      </trkpt>
      <trkpt lat="46.62513" lon="5.82944">
        <ele>667</ele>
        <time>2025-10-08T13:09:51.755+00:00</time>
      </trkpt>
      <trkpt lat="46.62518" lon="5.82941">
        <ele>666</ele>
        <time>2025-10-08T13:09:56.694+00:00</time>
      </trkpt>
      <trkpt lat="46.62524" lon="5.82938">
        <ele>666</ele>
        <time>2025-10-08T13:10:00.755+00:00</time>
      </trkpt>
      <trkpt lat="46.62529" lon="5.82935">
        <ele>666</ele>
        <time>2025-10-08T13:10:05.200+00:00</time>
      </trkpt>
      <trkpt lat="46.62534" lon="5.82931">
        <ele>666</ele>
        <time>2025-10-08T13:10:09.218+00:00</time>
      </trkpt>
      <trkpt lat="46.62539" lon="5.82928">
        <ele>664</ele>
        <time>2025-10-08T13:10:13.399+00:00</time>
      </trkpt>
      <trkpt lat="46.62544" lon="5.82927">
        <ele>663</ele>
        <time>2025-10-08T13:10:17.755+00:00</time>
      </trkpt>
      <trkpt lat="46.6255" lon="5.82924">
        <ele>663</ele>
        <time>2025-10-08T13:10:22.375+00:00</time>
      </trkpt>
      <trkpt lat="46.62555" lon="5.82921">
        <ele>663</ele>
        <time>2025-10-08T13:10:26.692+00:00</time>
      </trkpt>
      <trkpt lat="46.62561" lon="5.82918">
        <ele>663</ele>
        <time>2025-10-08T13:10:31.023+00:00</time>
      </trkpt>
      <trkpt lat="46.62566" lon="5.82916">
        <ele>663</ele>
        <time>2025-10-08T13:10:35.438+00:00</time>
      </trkpt>
      <trkpt lat="46.62571" lon="5.82913">
        <ele>662</ele>
        <time>2025-10-08T13:10:39.756+00:00</time>
      </trkpt>
      <trkpt lat="46.62576" lon="5.82912">
        <ele>662</ele>
        <time>2025-10-08T13:10:43.835+00:00</time>
      </trkpt>
      <trkpt lat="46.62581" lon="5.82909">
        <ele>662</ele>
        <time>2025-10-08T13:10:48.416+00:00</time>
      </trkpt>
      <trkpt lat="46.62585" lon="5.82906">
        <ele>662</ele>
        <time>2025-10-08T13:10:52.436+00:00</time>
      </trkpt>
      <trkpt lat="46.62589" lon="5.82902">
        <ele>659</ele>
        <time>2025-10-08T13:10:56.589+00:00</time>
      </trkpt>
      <trkpt lat="46.62595" lon="5.829">
        <ele>659</ele>
        <time>2025-10-08T13:11:01.037+00:00</time>
      </trkpt>
      <trkpt lat="46.626" lon="5.82897">
        <ele>656</ele>
        <time>2025-10-08T13:11:05.496+00:00</time>
      </trkpt>
      <trkpt lat="46.62605" lon="5.82894">
        <ele>656</ele>
        <time>2025-10-08T13:11:10.112+00:00</time>
      </trkpt>
      <trkpt lat="46.6261" lon="5.82891">
        <ele>656</ele>
        <time>2025-10-08T13:11:14.617+00:00</time>
      </trkpt>
      <trkpt lat="46.62616" lon="5.82887">
        <ele>656</ele>
        <time>2025-10-08T13:11:19.116+00:00</time>
      </trkpt>
      <trkpt lat="46.62621" lon="5.82884">
        <ele>656</ele>
        <time>2025-10-08T13:11:23.533+00:00</time>
      </trkpt>
      <trkpt lat="46.62626" lon="5.82881">
        <ele>654</ele>
        <time>2025-10-08T13:11:28.157+00:00</time>
      </trkpt>
      <trkpt lat="46.62631" lon="5.82878">
        <ele>654</ele>
        <time>2025-10-08T13:11:32.535+00:00</time>
      </trkpt>
      <trkpt lat="46.62636" lon="5.82874">
        <ele>653</ele>
        <time>2025-10-08T13:11:37.499+00:00</time>
      </trkpt>
      <trkpt lat="46.62642" lon="5.82872">
        <ele>653</ele>
        <time>2025-10-08T13:11:41.756+00:00</time>
      </trkpt>
      <trkpt lat="46.62647" lon="5.82869">
        <ele>653</ele>
        <time>2025-10-08T13:11:46.356+00:00</time>
      </trkpt>
      <trkpt lat="46.62653" lon="5.82866">
        <ele>652</ele>
        <time>2025-10-08T13:11:50.578+00:00</time>
      </trkpt>
      <trkpt lat="46.62658" lon="5.82864">
        <ele>652</ele>
        <time>2025-10-08T13:11:54.538+00:00</time>
      </trkpt>
      <trkpt lat="46.62663" lon="5.8286">
        <ele>652</ele>
        <time>2025-10-08T13:11:58.756+00:00</time>
      </trkpt>
      <trkpt lat="46.62669" lon="5.82856">
        <ele>652</ele>
        <time>2025-10-08T13:12:03.756+00:00</time>
      </trkpt>
      <trkpt lat="46.62675" lon="5.82854">
        <ele>652</ele>
        <time>2025-10-08T13:12:08.257+00:00</time>
      </trkpt>
      <trkpt lat="46.6268" lon="5.82851">
        <ele>652</ele>
        <time>2025-10-08T13:12:12.660+00:00</time>
      </trkpt>
      <trkpt lat="46.62685" lon="5.82848">
        <ele>652</ele>
        <time>2025-10-08T13:12:16.755+00:00</time>
      </trkpt>
      <trkpt lat="46.62691" lon="5.82845">
        <ele>652</ele>
        <time>2025-10-08T13:12:21.295+00:00</time>
      </trkpt>
      <trkpt lat="46.62695" lon="5.82842">
        <ele>652</ele>
        <time>2025-10-08T13:12:25.655+00:00</time>
      </trkpt>
      <trkpt lat="46.62701" lon="5.82839">
        <ele>652</ele>
        <time>2025-10-08T13:12:29.756+00:00</time>
      </trkpt>
      <trkpt lat="46.62705" lon="5.82835">
        <ele>652</ele>
        <time>2025-10-08T13:12:33.956+00:00</time>
      </trkpt>
      <trkpt lat="46.62711" lon="5.82831">
        <ele>652</ele>
        <time>2025-10-08T13:12:38.555+00:00</time>
      </trkpt>
      <trkpt lat="46.62717" lon="5.82829">
        <ele>652</ele>
        <time>2025-10-08T13:12:42.756+00:00</time>
      </trkpt>
      <trkpt lat="46.62723" lon="5.82827">
        <ele>652</ele>
        <time>2025-10-08T13:12:47.035+00:00</time>
      </trkpt>
      <trkpt lat="46.62728" lon="5.82824">
        <ele>652</ele>
        <time>2025-10-08T13:12:51.540+00:00</time>
      </trkpt>
      <trkpt lat="46.62733" lon="5.82821">
        <ele>652</ele>
        <time>2025-10-08T13:12:55.737+00:00</time>
      </trkpt>
      <trkpt lat="46.62738" lon="5.82818">
        <ele>651</ele>
        <time>2025-10-08T13:12:59.755+00:00</time>
      </trkpt>
      <trkpt lat="46.62744" lon="5.82814">
        <ele>651</ele>
        <time>2025-10-08T13:13:04.355+00:00</time>
      </trkpt>
      <trkpt lat="46.62749" lon="5.8281">
        <ele>651</ele>
        <time>2025-10-08T13:13:08.536+00:00</time>
      </trkpt>
      <trkpt lat="46.62754" lon="5.82807">
        <ele>651</ele>
        <time>2025-10-08T13:13:12.964+00:00</time>
      </trkpt>
      <trkpt lat="46.6276" lon="5.82805">
        <ele>651</ele>
        <time>2025-10-08T13:13:17.776+00:00</time>
      </trkpt>
      <trkpt lat="46.62765" lon="5.82803">
        <ele>652</ele>
        <time>2025-10-08T13:13:22.152+00:00</time>
      </trkpt>
      <trkpt lat="46.6277" lon="5.828">
        <ele>652</ele>
        <time>2025-10-08T13:13:26.700+00:00</time>
      </trkpt>
      <trkpt lat="46.62775" lon="5.82798">
        <ele>652</ele>
        <time>2025-10-08T13:13:31.078+00:00</time>
      </trkpt>
      <trkpt lat="46.6278" lon="5.82797">
        <ele>652</ele>
        <time>2025-10-08T13:13:35.539+00:00</time>
      </trkpt>
      <trkpt lat="46.62786" lon="5.82798">
        <ele>652</ele>
        <time>2025-10-08T13:13:39.755+00:00</time>
      </trkpt>
      <trkpt lat="46.62791" lon="5.828">
        <ele>652</ele>
        <time>2025-10-08T13:13:44.413+00:00</time>
      </trkpt>
      <trkpt lat="46.62797" lon="5.82799">
        <ele>651</ele>
        <time>2025-10-08T13:13:48.755+00:00</time>
      </trkpt>
      <trkpt lat="46.62803" lon="5.82796">
        <ele>651</ele>
        <time>2025-10-08T13:13:53.559+00:00</time>
      </trkpt>
      <trkpt lat="46.62809" lon="5.82793">
        <ele>651</ele>
        <time>2025-10-08T13:13:58.013+00:00</time>
      </trkpt>
      <trkpt lat="46.62814" lon="5.82788">
        <ele>649</ele>
        <time>2025-10-08T13:14:02.474+00:00</time>
      </trkpt>
      <trkpt lat="46.6282" lon="5.82782">
        <ele>646</ele>
        <time>2025-10-08T13:14:07.398+00:00</time>
      </trkpt>
      <trkpt lat="46.62824" lon="5.82777">
        <ele>646</ele>
        <time>2025-10-08T13:14:11.755+00:00</time>
      </trkpt>
      <trkpt lat="46.62829" lon="5.82771">
        <ele>646</ele>
        <time>2025-10-08T13:14:16.313+00:00</time>
      </trkpt>
      <trkpt lat="46.62834" lon="5.82767">
        <ele>646</ele>
        <time>2025-10-08T13:14:20.755+00:00</time>
      </trkpt>
      <trkpt lat="46.62839" lon="5.82762">
        <ele>645</ele>
        <time>2025-10-08T13:14:25.391+00:00</time>
      </trkpt>
      <trkpt lat="46.62843" lon="5.82758">
        <ele>645</ele>
        <time>2025-10-08T13:14:29.751+00:00</time>
      </trkpt>
      <trkpt lat="46.62847" lon="5.82754">
        <ele>644</ele>
        <time>2025-10-08T13:14:33.755+00:00</time>
      </trkpt>
      <trkpt lat="46.62852" lon="5.82749">
        <ele>644</ele>
        <time>2025-10-08T13:14:38.752+00:00</time>
      </trkpt>
      <trkpt lat="46.62857" lon="5.82745">
        <ele>644</ele>
        <time>2025-10-08T13:14:43.367+00:00</time>
      </trkpt>
      <trkpt lat="46.62862" lon="5.82743">
        <ele>644</ele>
        <time>2025-10-08T13:14:47.755+00:00</time>
      </trkpt>
      <trkpt lat="46.62867" lon="5.8274">
        <ele>644</ele>
        <time>2025-10-08T13:14:52.756+00:00</time>
      </trkpt>
      <trkpt lat="46.62873" lon="5.82737">
        <ele>644</ele>
        <time>2025-10-08T13:14:57.411+00:00</time>
      </trkpt>
      <trkpt lat="46.62878" lon="5.82733">
        <ele>644</ele>
        <time>2025-10-08T13:15:01.755+00:00</time>
      </trkpt>
      <trkpt lat="46.62883" lon="5.82729">
        <ele>644</ele>
        <time>2025-10-08T13:15:06.549+00:00</time>
      </trkpt>
      <trkpt lat="46.62887" lon="5.82724">
        <ele>644</ele>
        <time>2025-10-08T13:15:10.755+00:00</time>
      </trkpt>
      <trkpt lat="46.62893" lon="5.82723">
        <ele>644</ele>
        <time>2025-10-08T13:15:15.551+00:00</time>
      </trkpt>
      <trkpt lat="46.62899" lon="5.82722">
        <ele>644</ele>
        <time>2025-10-08T13:15:19.755+00:00</time>
      </trkpt>
      <trkpt lat="46.62904" lon="5.82718">
        <ele>642</ele>
        <time>2025-10-08T13:15:24.527+00:00</time>
      </trkpt>
      <trkpt lat="46.6291" lon="5.82715">
        <ele>642</ele>
        <time>2025-10-08T13:15:29.133+00:00</time>
      </trkpt>
      <trkpt lat="46.62915" lon="5.8271">
        <ele>642</ele>
        <time>2025-10-08T13:15:33.732+00:00</time>
      </trkpt>
      <trkpt lat="46.62919" lon="5.82705">
        <ele>643</ele>
        <time>2025-10-08T13:15:37.755+00:00</time>
      </trkpt>
      <trkpt lat="46.62923" lon="5.827">
        <ele>643</ele>
        <time>2025-10-08T13:15:42.152+00:00</time>
      </trkpt>
      <trkpt lat="46.62926" lon="5.82694">
        <ele>643</ele>
        <time>2025-10-08T13:15:46.294+00:00</time>
      </trkpt>
      <trkpt lat="46.6293" lon="5.82688">
        <ele>643</ele>
        <time>2025-10-08T13:15:50.756+00:00</time>
      </trkpt>
      <trkpt lat="46.62934" lon="5.82684">
        <ele>639</ele>
        <time>2025-10-08T13:15:55.173+00:00</time>
      </trkpt>
      <trkpt lat="46.62937" lon="5.82678">
        <ele>640</ele>
        <time>2025-10-08T13:15:59.267+00:00</time>
      </trkpt>
      <trkpt lat="46.62938" lon="5.82671">
        <ele>640</ele>
        <time>2025-10-08T13:16:03.755+00:00</time>
      </trkpt>
      <trkpt lat="46.62944" lon="5.82667">
        <ele>640</ele>
        <time>2025-10-08T13:16:08.567+00:00</time>
      </trkpt>
      <trkpt lat="46.62949" lon="5.82665">
        <ele>640</ele>
        <time>2025-10-08T13:16:13.227+00:00</time>
      </trkpt>
      <trkpt lat="46.62954" lon="5.82664">
        <ele>640</ele>
        <time>2025-10-08T13:16:17.270+00:00</time>
      </trkpt>
      <trkpt lat="46.62959" lon="5.82664">
        <ele>635</ele>
        <time>2025-10-08T13:16:21.451+00:00</time>
      </trkpt>
      <trkpt lat="46.62964" lon="5.82663">
        <ele>635</ele>
        <time>2025-10-08T13:16:25.754+00:00</time>
      </trkpt>
      <trkpt lat="46.62969" lon="5.82663">
        <ele>635</ele>
        <time>2025-10-08T13:16:30.290+00:00</time>
      </trkpt>
      <trkpt lat="46.62974" lon="5.82664">
        <ele>635</ele>
        <time>2025-10-08T13:16:34.692+00:00</time>
      </trkpt>
      <trkpt lat="46.6298" lon="5.82662">
        <ele>635</ele>
        <time>2025-10-08T13:16:39.453+00:00</time>
      </trkpt>
      <trkpt lat="46.62985" lon="5.82658">
        <ele>635</ele>
        <time>2025-10-08T13:16:43.754+00:00</time>
      </trkpt>
      <trkpt lat="46.6299" lon="5.82652">
        <ele>632</ele>
        <time>2025-10-08T13:16:48.754+00:00</time>
      </trkpt>
      <trkpt lat="46.62994" lon="5.82646">
        <ele>632</ele>
        <time>2025-10-08T13:16:53.591+00:00</time>
      </trkpt>
      <trkpt lat="46.62998" lon="5.8264">
        <ele>632</ele>
        <time>2025-10-08T13:16:57.874+00:00</time>
      </trkpt>
      <trkpt lat="46.63001" lon="5.82632">
        <ele>632</ele>
        <time>2025-10-08T13:17:02.533+00:00</time>
      </trkpt>
      <trkpt lat="46.63004" lon="5.82625">
        <ele>632</ele>
        <time>2025-10-08T13:17:07.113+00:00</time>
      </trkpt>
      <trkpt lat="46.63007" lon="5.82618">
        <ele>632</ele>
        <time>2025-10-08T13:17:11.669+00:00</time>
      </trkpt>
      <trkpt lat="46.63008" lon="5.8261">
        <ele>632</ele>
        <time>2025-10-08T13:17:16.168+00:00</time>
      </trkpt>
      <trkpt lat="46.6301" lon="5.82602">
        <ele>632</ele>
        <time>2025-10-08T13:17:20.754+00:00</time>
      </trkpt>
      <trkpt lat="46.63012" lon="5.82594">
        <ele>631</ele>
        <time>2025-10-08T13:17:25.287+00:00</time>
      </trkpt>
      <trkpt lat="46.63014" lon="5.82586">
        <ele>629</ele>
        <time>2025-10-08T13:17:29.748+00:00</time>
      </trkpt>
      <trkpt lat="46.63016" lon="5.82577">
        <ele>629</ele>
        <time>2025-10-08T13:17:34.407+00:00</time>
      </trkpt>
      <trkpt lat="46.63018" lon="5.8257">
        <ele>629</ele>
        <time>2025-10-08T13:17:39.032+00:00</time>
      </trkpt>
      <trkpt lat="46.63019" lon="5.82563">
        <ele>628</ele>
        <time>2025-10-08T13:17:43.707+00:00</time>
      </trkpt>
      <trkpt lat="46.6302" lon="5.82556">
        <ele>628</ele>
        <time>2025-10-08T13:17:47.754+00:00</time>
      </trkpt>
      <trkpt lat="46.63023" lon="5.82547">
        <ele>628</ele>
        <time>2025-10-08T13:17:52.754+00:00</time>
      </trkpt>
      <trkpt lat="46.63025" lon="5.82539">
        <ele>628</ele>
        <time>2025-10-08T13:17:57.417+00:00</time>
      </trkpt>
      <trkpt lat="46.63027" lon="5.82532">
        <ele>628</ele>
        <time>2025-10-08T13:18:01.754+00:00</time>
      </trkpt>
      <trkpt lat="46.63027" lon="5.82523">
        <ele>628</ele>
        <time>2025-10-08T13:18:06.564+00:00</time>
      </trkpt>
      <trkpt lat="46.63025" lon="5.82514">
        <ele>628</ele>
        <time>2025-10-08T13:18:10.755+00:00</time>
      </trkpt>
      <trkpt lat="46.63024" lon="5.82505">
        <ele>628</ele>
        <time>2025-10-08T13:18:15.701+00:00</time>
      </trkpt>
      <trkpt lat="46.63022" lon="5.82498">
        <ele>628</ele>
        <time>2025-10-08T13:18:19.754+00:00</time>
      </trkpt>
      <trkpt lat="46.63019" lon="5.8249">
        <ele>628</ele>
        <time>2025-10-08T13:18:24.754+00:00</time>
      </trkpt>
      <trkpt lat="46.63015" lon="5.82483">
        <ele>627</ele>
        <time>2025-10-08T13:18:29.439+00:00</time>
      </trkpt>
      <trkpt lat="46.63012" lon="5.82477">
        <ele>631</ele>
        <time>2025-10-08T13:18:33.754+00:00</time>
      </trkpt>
      <trkpt lat="46.63009" lon="5.82469">
        <ele>631</ele>
        <time>2025-10-08T13:18:38.619+00:00</time>
      </trkpt>
      <trkpt lat="46.63007" lon="5.82462">
        <ele>631</ele>
        <time>2025-10-08T13:18:42.755+00:00</time>
      </trkpt>
      <trkpt lat="46.63004" lon="5.82454">
        <ele>627</ele>
        <time>2025-10-08T13:18:47.722+00:00</time>
      </trkpt>
      <trkpt lat="46.63002" lon="5.82447">
        <ele>627</ele>
        <time>2025-10-08T13:18:51.755+00:00</time>
      </trkpt>
      <trkpt lat="46.62998" lon="5.82441">
        <ele>627</ele>
        <time>2025-10-08T13:18:56.322+00:00</time>
      </trkpt>
      <trkpt lat="46.62995" lon="5.82435">
        <ele>627</ele>
        <time>2025-10-08T13:19:00.443+00:00</time>
      </trkpt>
      <trkpt lat="46.62993" lon="5.82428">
        <ele>625</ele>
        <time>2025-10-08T13:19:05.161+00:00</time>
      </trkpt>
      <trkpt lat="46.62991" lon="5.82421">
        <ele>625</ele>
        <time>2025-10-08T13:19:09.285+00:00</time>
      </trkpt>
      <trkpt lat="46.6299" lon="5.82415">
        <ele>625</ele>
        <time>2025-10-08T13:19:13.677+00:00</time>
      </trkpt>
      <trkpt lat="46.62988" lon="5.82409">
        <ele>625</ele>
        <time>2025-10-08T13:19:17.839+00:00</time>
      </trkpt>
      <trkpt lat="46.62987" lon="5.82401">
        <ele>623</ele>
        <time>2025-10-08T13:19:22.559+00:00</time>
      </trkpt>
      <trkpt lat="46.62987" lon="5.82394">
        <ele>623</ele>
        <time>2025-10-08T13:19:26.661+00:00</time>
      </trkpt>
      <trkpt lat="46.62988" lon="5.82386">
        <ele>623</ele>
        <time>2025-10-08T13:19:31.158+00:00</time>
      </trkpt>
      <trkpt lat="46.62989" lon="5.82377">
        <ele>623</ele>
        <time>2025-10-08T13:19:35.638+00:00</time>
      </trkpt>
      <trkpt lat="46.62991" lon="5.82369">
        <ele>623</ele>
        <time>2025-10-08T13:19:40.203+00:00</time>
      </trkpt>
      <trkpt lat="46.62992" lon="5.82361">
        <ele>623</ele>
        <time>2025-10-08T13:19:44.740+00:00</time>
      </trkpt>
      <trkpt lat="46.62992" lon="5.82354">
        <ele>623</ele>
        <time>2025-10-08T13:19:49.160+00:00</time>
      </trkpt>
      <trkpt lat="46.62994" lon="5.82345">
        <ele>623</ele>
        <time>2025-10-08T13:19:53.742+00:00</time>
      </trkpt>
      <trkpt lat="46.62995" lon="5.82338">
        <ele>623</ele>
        <time>2025-10-08T13:19:57.754+00:00</time>
      </trkpt>
      <trkpt lat="46.62996" lon="5.82329">
        <ele>623</ele>
        <time>2025-10-08T13:20:02.754+00:00</time>
      </trkpt>
      <trkpt lat="46.62995" lon="5.8232">
        <ele>623</ele>
        <time>2025-10-08T13:20:07.299+00:00</time>
      </trkpt>
      <trkpt lat="46.62996" lon="5.82313">
        <ele>622</ele>
        <time>2025-10-08T13:20:11.343+00:00</time>
      </trkpt>
      <trkpt lat="46.62998" lon="5.82306">
        <ele>622</ele>
        <time>2025-10-08T13:20:15.498+00:00</time>
      </trkpt>
      <trkpt lat="46.62998" lon="5.82298">
        <ele>622</ele>
        <time>2025-10-08T13:20:20.182+00:00</time>
      </trkpt>
      <trkpt lat="46.62999" lon="5.8229">
        <ele>623</ele>
        <time>2025-10-08T13:20:24.755+00:00</time>
      </trkpt>
      <trkpt lat="46.63" lon="5.82281">
        <ele>623</ele>
        <time>2025-10-08T13:20:29.517+00:00</time>
      </trkpt>
      <trkpt lat="46.63002" lon="5.82273">
        <ele>623</ele>
        <time>2025-10-08T13:20:34.182+00:00</time>
      </trkpt>
      <trkpt lat="46.63005" lon="5.82266">
        <ele>623</ele>
        <time>2025-10-08T13:20:38.754+00:00</time>
      </trkpt>
      <trkpt lat="46.63008" lon="5.8226">
        <ele>623</ele>
        <time>2025-10-08T13:20:43.039+00:00</time>
      </trkpt>
      <trkpt lat="46.63012" lon="5.82254">
        <ele>623</ele>
        <time>2025-10-08T13:20:47.339+00:00</time>
      </trkpt>
      <trkpt lat="46.63015" lon="5.82248">
        <ele>620</ele>
        <time>2025-10-08T13:20:51.698+00:00</time>
      </trkpt>
      <trkpt lat="46.63018" lon="5.82243">
        <ele>620</ele>
        <time>2025-10-08T13:20:55.754+00:00</time>
      </trkpt>
      <trkpt lat="46.63022" lon="5.82237">
        <ele>620</ele>
        <time>2025-10-08T13:21:00.197+00:00</time>
      </trkpt>
      <trkpt lat="46.63026" lon="5.82231">
        <ele>620</ele>
        <time>2025-10-08T13:21:04.343+00:00</time>
      </trkpt>
      <trkpt lat="46.63029" lon="5.82224">
        <ele>620</ele>
        <time>2025-10-08T13:21:08.754+00:00</time>
      </trkpt>
      <trkpt lat="46.63033" lon="5.82218">
        <ele>620</ele>
        <time>2025-10-08T13:21:13.524+00:00</time>
      </trkpt>
      <trkpt lat="46.63037" lon="5.82211">
        <ele>620</ele>
        <time>2025-10-08T13:21:18.122+00:00</time>
      </trkpt>
      <trkpt lat="46.63041" lon="5.82206">
        <ele>621</ele>
        <time>2025-10-08T13:21:22.379+00:00</time>
      </trkpt>
      <trkpt lat="46.63045" lon="5.822">
        <ele>617</ele>
        <time>2025-10-08T13:21:26.782+00:00</time>
      </trkpt>
      <trkpt lat="46.63049" lon="5.82193">
        <ele>617</ele>
        <time>2025-10-08T13:21:31.423+00:00</time>
      </trkpt>
      <trkpt lat="46.63053" lon="5.82186">
        <ele>617</ele>
        <time>2025-10-08T13:21:36.119+00:00</time>
      </trkpt>
      <trkpt lat="46.63056" lon="5.82181">
        <ele>617</ele>
        <time>2025-10-08T13:21:40.271+00:00</time>
      </trkpt>
      <trkpt lat="46.6306" lon="5.82174">
        <ele>615</ele>
        <time>2025-10-08T13:21:44.754+00:00</time>
      </trkpt>
      <trkpt lat="46.63064" lon="5.82168">
        <ele>615</ele>
        <time>2025-10-08T13:21:49.263+00:00</time>
      </trkpt>
      <trkpt lat="46.63068" lon="5.82164">
        <ele>615</ele>
        <time>2025-10-08T13:21:53.538+00:00</time>
      </trkpt>
      <trkpt lat="46.63072" lon="5.82159">
        <ele>613</ele>
        <time>2025-10-08T13:21:58.239+00:00</time>
      </trkpt>
      <trkpt lat="46.63076" lon="5.82153">
        <ele>613</ele>
        <time>2025-10-08T13:22:02.721+00:00</time>
      </trkpt>
      <trkpt lat="46.63079" lon="5.82148">
        <ele>611</ele>
        <time>2025-10-08T13:22:06.755+00:00</time>
      </trkpt>
      <trkpt lat="46.63083" lon="5.82142">
        <ele>611</ele>
        <time>2025-10-08T13:22:11.755+00:00</time>
      </trkpt>
      <trkpt lat="46.63088" lon="5.82136">
        <ele>611</ele>
        <time>2025-10-08T13:22:16.300+00:00</time>
      </trkpt>
      <trkpt lat="46.63092" lon="5.8213">
        <ele>611</ele>
        <time>2025-10-08T13:22:20.754+00:00</time>
      </trkpt>
      <trkpt lat="46.63096" lon="5.82124">
        <ele>611</ele>
        <time>2025-10-08T13:22:25.277+00:00</time>
      </trkpt>
      <trkpt lat="46.631" lon="5.82119">
        <ele>609</ele>
        <time>2025-10-08T13:22:29.757+00:00</time>
      </trkpt>
      <trkpt lat="46.63104" lon="5.82115">
        <ele>609</ele>
        <time>2025-10-08T13:22:33.754+00:00</time>
      </trkpt>
      <trkpt lat="46.63108" lon="5.82109">
        <ele>609</ele>
        <time>2025-10-08T13:22:38.527+00:00</time>
      </trkpt>
      <trkpt lat="46.63111" lon="5.82102">
        <ele>609</ele>
        <time>2025-10-08T13:22:42.755+00:00</time>
      </trkpt>
      <trkpt lat="46.63116" lon="5.82096">
        <ele>608</ele>
        <time>2025-10-08T13:22:47.220+00:00</time>
      </trkpt>
      <trkpt lat="46.63119" lon="5.82092">
        <ele>608</ele>
        <time>2025-10-08T13:22:51.341+00:00</time>
      </trkpt>
      <trkpt lat="46.63124" lon="5.82088">
        <ele>608</ele>
        <time>2025-10-08T13:22:55.754+00:00</time>
      </trkpt>
      <trkpt lat="46.63128" lon="5.82085">
        <ele>606</ele>
        <time>2025-10-08T13:22:59.754+00:00</time>
      </trkpt>
      <trkpt lat="46.63133" lon="5.82081">
        <ele>606</ele>
        <time>2025-10-08T13:23:04.277+00:00</time>
      </trkpt>
      <trkpt lat="46.63137" lon="5.82075">
        <ele>606</ele>
        <time>2025-10-08T13:23:08.363+00:00</time>
      </trkpt>
      <trkpt lat="46.63141" lon="5.82069">
        <ele>606</ele>
        <time>2025-10-08T13:23:12.755+00:00</time>
      </trkpt>
      <trkpt lat="46.63145" lon="5.82064">
        <ele>604</ele>
        <time>2025-10-08T13:23:17.620+00:00</time>
      </trkpt>
      <trkpt lat="46.6315" lon="5.8206">
        <ele>604</ele>
        <time>2025-10-08T13:23:22.117+00:00</time>
      </trkpt>
      <trkpt lat="46.63154" lon="5.82055">
        <ele>601</ele>
        <time>2025-10-08T13:23:26.598+00:00</time>
      </trkpt>
      <trkpt lat="46.63159" lon="5.82052">
        <ele>601</ele>
        <time>2025-10-08T13:23:30.755+00:00</time>
      </trkpt>
      <trkpt lat="46.63165" lon="5.82049">
        <ele>601</ele>
        <time>2025-10-08T13:23:35.699+00:00</time>
      </trkpt>
      <trkpt lat="46.6317" lon="5.82047">
        <ele>601</ele>
        <time>2025-10-08T13:23:39.754+00:00</time>
      </trkpt>
      <trkpt lat="46.63175" lon="5.82043">
        <ele>601</ele>
        <time>2025-10-08T13:23:44.719+00:00</time>
      </trkpt>
      <trkpt lat="46.6318" lon="5.82038">
        <ele>600</ele>
        <time>2025-10-08T13:23:49.407+00:00</time>
      </trkpt>
      <trkpt lat="46.63186" lon="5.82036">
        <ele>600</ele>
        <time>2025-10-08T13:23:54.103+00:00</time>
      </trkpt>
      <trkpt lat="46.63191" lon="5.82038">
        <ele>600</ele>
        <time>2025-10-08T13:23:58.761+00:00</time>
      </trkpt>
      <trkpt lat="46.63196" lon="5.82041">
        <ele>600</ele>
        <time>2025-10-08T13:24:03.240+00:00</time>
      </trkpt>
      <trkpt lat="46.63202" lon="5.82043">
        <ele>600</ele>
        <time>2025-10-08T13:24:07.754+00:00</time>
      </trkpt>
      <trkpt lat="46.63207" lon="5.82043">
        <ele>600</ele>
        <time>2025-10-08T13:24:12.480+00:00</time>
      </trkpt>
      <trkpt lat="46.63212" lon="5.82043">
        <ele>598</ele>
        <time>2025-10-08T13:24:16.541+00:00</time>
      </trkpt>
      <trkpt lat="46.63218" lon="5.82043">
        <ele>598</ele>
        <time>2025-10-08T13:24:20.603+00:00</time>
      </trkpt>
      <trkpt lat="46.63223" lon="5.82043">
        <ele>598</ele>
        <time>2025-10-08T13:24:25.022+00:00</time>
      </trkpt>
      <trkpt lat="46.63228" lon="5.82043">
        <ele>598</ele>
        <time>2025-10-08T13:24:29.322+00:00</time>
      </trkpt>
      <trkpt lat="46.6323" lon="5.82044">
        <ele>598</ele>
        <time>2025-10-08T13:24:33.754+00:00</time>
      </trkpt>
      <trkpt lat="46.63232" lon="5.82047">
        <ele>598</ele>
        <time>2025-10-08T13:24:37.923+00:00</time>
      </trkpt>
      <trkpt lat="46.63237" lon="5.82051">
        <ele>595</ele>
        <time>2025-10-08T13:24:42.402+00:00</time>
      </trkpt>
      <trkpt lat="46.63241" lon="5.82054">
        <ele>595</ele>
        <time>2025-10-08T13:24:46.523+00:00</time>
      </trkpt>
      <trkpt lat="46.63246" lon="5.82058">
        <ele>595</ele>
        <time>2025-10-08T13:24:51.019+00:00</time>
      </trkpt>
      <trkpt lat="46.63251" lon="5.8206">
        <ele>595</ele>
        <time>2025-10-08T13:24:55.737+00:00</time>
      </trkpt>
      <trkpt lat="46.63255" lon="5.82062">
        <ele>595</ele>
        <time>2025-10-08T13:25:00.242+00:00</time>
      </trkpt>
      <trkpt lat="46.6326" lon="5.82062">
        <ele>595</ele>
        <time>2025-10-08T13:25:04.542+00:00</time>
      </trkpt>
      <trkpt lat="46.63264" lon="5.82062">
        <ele>595</ele>
        <time>2025-10-08T13:25:08.723+00:00</time>
      </trkpt>
      <trkpt lat="46.63269" lon="5.8206">
        <ele>595</ele>
        <time>2025-10-08T13:25:12.846+00:00</time>
      </trkpt>
      <trkpt lat="46.63274" lon="5.82059">
        <ele>595</ele>
        <time>2025-10-08T13:25:17.502+00:00</time>
      </trkpt>
      <trkpt lat="46.63279" lon="5.82058">
        <ele>595</ele>
        <time>2025-10-08T13:25:21.754+00:00</time>
      </trkpt>
      <trkpt lat="46.63284" lon="5.82058">
        <ele>595</ele>
        <time>2025-10-08T13:25:26.580+00:00</time>
      </trkpt>
      <trkpt lat="46.63288" lon="5.82055">
        <ele>595</ele>
        <time>2025-10-08T13:25:30.754+00:00</time>
      </trkpt>
      <trkpt lat="46.63292" lon="5.8205">
        <ele>596</ele>
        <time>2025-10-08T13:25:34.859+00:00</time>
      </trkpt>
      <trkpt lat="46.63295" lon="5.82046">
        <ele>596</ele>
        <time>2025-10-08T13:25:39.754+00:00</time>
      </trkpt>
      <trkpt lat="46.63299" lon="5.82045">
        <ele>596</ele>
        <time>2025-10-08T13:25:44.361+00:00</time>
      </trkpt>
      <trkpt lat="46.63304" lon="5.82046">
        <ele>596</ele>
        <time>2025-10-08T13:25:48.643+00:00</time>
      </trkpt>
      <trkpt lat="46.63308" lon="5.82048">
        <ele>596</ele>
        <time>2025-10-08T13:25:52.755+00:00</time>
      </trkpt>
      <trkpt lat="46.63313" lon="5.82048">
        <ele>596</ele>
        <time>2025-10-08T13:25:57.721+00:00</time>
      </trkpt>
      <trkpt lat="46.63318" lon="5.82048">
        <ele>596</ele>
        <time>2025-10-08T13:26:01.754+00:00</time>
      </trkpt>
      <trkpt lat="46.63322" lon="5.82048">
        <ele>596</ele>
        <time>2025-10-08T13:26:06.339+00:00</time>
      </trkpt>
      <trkpt lat="46.63327" lon="5.82048">
        <ele>596</ele>
        <time>2025-10-08T13:26:10.754+00:00</time>
      </trkpt>
      <trkpt lat="46.63332" lon="5.82047">
        <ele>596</ele>
        <time>2025-10-08T13:26:15.753+00:00</time>
      </trkpt>
      <trkpt lat="46.63337" lon="5.82048">
        <ele>596</ele>
        <time>2025-10-08T13:26:20.753+00:00</time>
      </trkpt>
      <trkpt lat="46.63342" lon="5.82046">
        <ele>596</ele>
        <time>2025-10-08T13:26:25.477+00:00</time>
      </trkpt>
      <trkpt lat="46.63347" lon="5.82045">
        <ele>596</ele>
        <time>2025-10-08T13:26:29.502+00:00</time>
      </trkpt>
      <trkpt lat="46.63352" lon="5.82044">
        <ele>596</ele>
        <time>2025-10-08T13:26:33.754+00:00</time>
      </trkpt>
      <trkpt lat="46.63358" lon="5.82043">
        <ele>596</ele>
        <time>2025-10-08T13:26:38.760+00:00</time>
      </trkpt>
      <trkpt lat="46.63363" lon="5.82043">
        <ele>596</ele>
        <time>2025-10-08T13:26:43.520+00:00</time>
      </trkpt>
      <trkpt lat="46.63369" lon="5.82042">
        <ele>596</ele>
        <time>2025-10-08T13:26:47.753+00:00</time>
      </trkpt>
      <trkpt lat="46.63373" lon="5.82041">
        <ele>595</ele>
        <time>2025-10-08T13:26:51.763+00:00</time>
      </trkpt>
      <trkpt lat="46.63379" lon="5.82039">
        <ele>595</ele>
        <time>2025-10-08T13:26:56.524+00:00</time>
      </trkpt>
      <trkpt lat="46.63384" lon="5.82038">
        <ele>595</ele>
        <time>2025-10-08T13:27:01.157+00:00</time>
      </trkpt>
      <trkpt lat="46.6339" lon="5.82036">
        <ele>595</ele>
        <time>2025-10-08T13:27:05.754+00:00</time>
      </trkpt>
      <trkpt lat="46.63395" lon="5.82034">
        <ele>595</ele>
        <time>2025-10-08T13:27:10.439+00:00</time>
      </trkpt>
      <trkpt lat="46.634" lon="5.82032">
        <ele>595</ele>
        <time>2025-10-08T13:27:14.753+00:00</time>
      </trkpt>
      <trkpt lat="46.63406" lon="5.82032">
        <ele>595</ele>
        <time>2025-10-08T13:27:19.379+00:00</time>
      </trkpt>
      <trkpt lat="46.63411" lon="5.8203">
        <ele>595</ele>
        <time>2025-10-08T13:27:23.561+00:00</time>
      </trkpt>
      <trkpt lat="46.63416" lon="5.82025">
        <ele>595</ele>
        <time>2025-10-08T13:27:27.753+00:00</time>
      </trkpt>
      <trkpt lat="46.63421" lon="5.8202">
        <ele>595</ele>
        <time>2025-10-08T13:27:32.358+00:00</time>
      </trkpt>
      <trkpt lat="46.63426" lon="5.82016">
        <ele>595</ele>
        <time>2025-10-08T13:27:36.753+00:00</time>
      </trkpt>
      <trkpt lat="46.63431" lon="5.82012">
        <ele>597</ele>
        <time>2025-10-08T13:27:41.520+00:00</time>
      </trkpt>
      <trkpt lat="46.63436" lon="5.82008">
        <ele>597</ele>
        <time>2025-10-08T13:27:46.221+00:00</time>
      </trkpt>
      <trkpt lat="46.63441" lon="5.82005">
        <ele>597</ele>
        <time>2025-10-08T13:27:50.753+00:00</time>
      </trkpt>
      <trkpt lat="46.63446" lon="5.81999">
        <ele>597</ele>
        <time>2025-10-08T13:27:55.580+00:00</time>
      </trkpt>
      <trkpt lat="46.6345" lon="5.81996">
        <ele>597</ele>
        <time>2025-10-08T13:28:00.214+00:00</time>
      </trkpt>
      <trkpt lat="46.63456" lon="5.81995">
        <ele>597</ele>
        <time>2025-10-08T13:28:04.753+00:00</time>
      </trkpt>
      <trkpt lat="46.63461" lon="5.81992">
        <ele>600</ele>
        <time>2025-10-08T13:28:09.359+00:00</time>
      </trkpt>
      <trkpt lat="46.63466" lon="5.8199">
        <ele>600</ele>
        <time>2025-10-08T13:28:13.753+00:00</time>
      </trkpt>
      <trkpt lat="46.63471" lon="5.81988">
        <ele>600</ele>
        <time>2025-10-08T13:28:18.421+00:00</time>
      </trkpt>
      <trkpt lat="46.63476" lon="5.81986">
        <ele>600</ele>
        <time>2025-10-08T13:28:22.421+00:00</time>
      </trkpt>
      <trkpt lat="46.63481" lon="5.81985">
        <ele>595</ele>
        <time>2025-10-08T13:28:26.754+00:00</time>
      </trkpt>
      <trkpt lat="46.63485" lon="5.81982">
        <ele>595</ele>
        <time>2025-10-08T13:28:31.141+00:00</time>
      </trkpt>
      <trkpt lat="46.63489" lon="5.81979">
        <ele>598</ele>
        <time>2025-10-08T13:28:35.603+00:00</time>
      </trkpt>
      <trkpt lat="46.63493" lon="5.81977">
        <ele>598</ele>
        <time>2025-10-08T13:28:39.979+00:00</time>
      </trkpt>
      <trkpt lat="46.63498" lon="5.81975">
        <ele>598</ele>
        <time>2025-10-08T13:28:44.297+00:00</time>
      </trkpt>
      <trkpt lat="46.63502" lon="5.81974">
        <ele>598</ele>
        <time>2025-10-08T13:28:48.753+00:00</time>
      </trkpt>
      <trkpt lat="46.63506" lon="5.81972">
        <ele>598</ele>
        <time>2025-10-08T13:28:53.165+00:00</time>
      </trkpt>
      <trkpt lat="46.63511" lon="5.81971">
        <ele>598</ele>
        <time>2025-10-08T13:28:57.538+00:00</time>
      </trkpt>
      <trkpt lat="46.63515" lon="5.81969">
        <ele>605</ele>
        <time>2025-10-08T13:29:01.940+00:00</time>
      </trkpt>
      <trkpt lat="46.63519" lon="5.81967">
        <ele>605</ele>
        <time>2025-10-08T13:29:06.300+00:00</time>
      </trkpt>
      <trkpt lat="46.63522" lon="5.81964">
        <ele>605</ele>
        <time>2025-10-08T13:29:10.481+00:00</time>
      </trkpt>
      <trkpt lat="46.63526" lon="5.81962">
        <ele>605</ele>
        <time>2025-10-08T13:29:14.753+00:00</time>
      </trkpt>
      <trkpt lat="46.6353" lon="5.8196">
        <ele>605</ele>
        <time>2025-10-08T13:29:19.526+00:00</time>
      </trkpt>
      <trkpt lat="46.63534" lon="5.81957">
        <ele>601</ele>
        <time>2025-10-08T13:29:23.753+00:00</time>
      </trkpt>
      <trkpt lat="46.63538" lon="5.81955">
        <ele>601</ele>
        <time>2025-10-08T13:29:28.169+00:00</time>
      </trkpt>
      <trkpt lat="46.63543" lon="5.81953">
        <ele>605</ele>
        <time>2025-10-08T13:29:32.771+00:00</time>
      </trkpt>
      <trkpt lat="46.63547" lon="5.81951">
        <ele>605</ele>
        <time>2025-10-08T13:29:37.307+00:00</time>
      </trkpt>
      <trkpt lat="46.63551" lon="5.81949">
        <ele>605</ele>
        <time>2025-10-08T13:29:41.667+00:00</time>
      </trkpt>
      <trkpt lat="46.63555" lon="5.81944">
        <ele>605</ele>
        <time>2025-10-08T13:29:46.753+00:00</time>
      </trkpt>
      <trkpt lat="46.63558" lon="5.8194">
        <ele>605</ele>
        <time>2025-10-08T13:29:51.290+00:00</time>
      </trkpt>
      <trkpt lat="46.63562" lon="5.81935">
        <ele>605</ele>
        <time>2025-10-08T13:29:55.709+00:00</time>
      </trkpt>
      <trkpt lat="46.63565" lon="5.8193">
        <ele>599</ele>
        <time>2025-10-08T13:30:00.128+00:00</time>
      </trkpt>
      <trkpt lat="46.63568" lon="5.81925">
        <ele>599</ele>
        <time>2025-10-08T13:30:04.566+00:00</time>
      </trkpt>
      <trkpt lat="46.63571" lon="5.81921">
        <ele>609</ele>
        <time>2025-10-08T13:30:09.190+00:00</time>
      </trkpt>
      <trkpt lat="46.63575" lon="5.81917">
        <ele>609</ele>
        <time>2025-10-08T13:30:13.687+00:00</time>
      </trkpt>
      <trkpt lat="46.63579" lon="5.81914">
        <ele>609</ele>
        <time>2025-10-08T13:30:17.927+00:00</time>
      </trkpt>
      <trkpt lat="46.63582" lon="5.8191">
        <ele>609</ele>
        <time>2025-10-08T13:30:22.311+00:00</time>
      </trkpt>
      <trkpt lat="46.63586" lon="5.81905">
        <ele>609</ele>
        <time>2025-10-08T13:30:26.766+00:00</time>
      </trkpt>
      <trkpt lat="46.63589" lon="5.81903">
        <ele>609</ele>
        <time>2025-10-08T13:30:31.753+00:00</time>
      </trkpt>
      <trkpt lat="46.63592" lon="5.819">
        <ele>604</ele>
        <time>2025-10-08T13:30:35.910+00:00</time>
      </trkpt>
      <trkpt lat="46.63596" lon="5.81897">
        <ele>604</ele>
        <time>2025-10-08T13:30:40.571+00:00</time>
      </trkpt>
      <trkpt lat="46.636" lon="5.81893">
        <ele>612</ele>
        <time>2025-10-08T13:30:44.753+00:00</time>
      </trkpt>
      <trkpt lat="46.63604" lon="5.81889">
        <ele>612</ele>
        <time>2025-10-08T13:30:49.348+00:00</time>
      </trkpt>
      <trkpt lat="46.63613" lon="5.81886">
        <ele>612</ele>
        <time>2025-10-08T13:31:28.754+00:00</time>
      </trkpt>
      <trkpt lat="46.63614" lon="5.81888">
        <ele>612</ele>
        <time>2025-10-08T13:31:33.753+00:00</time>
      </trkpt>
      <trkpt lat="46.63614" lon="5.81889">
        <ele>612</ele>
        <time>2025-10-08T13:31:38.331+00:00</time>
      </trkpt>
      <trkpt lat="46.63618" lon="5.8189">
        <ele>612</ele>
        <time>2025-10-08T13:31:42.753+00:00</time>
      </trkpt>
      <trkpt lat="46.63621" lon="5.81888">
        <ele>612</ele>
        <time>2025-10-08T13:31:47.453+00:00</time>
      </trkpt>
      <trkpt lat="46.63627" lon="5.81877">
        <ele>613</ele>
        <time>2025-10-08T13:36:50.752+00:00</time>
      </trkpt>
      <trkpt lat="46.63629" lon="5.81877">
        <ele>613</ele>
        <time>2025-10-08T13:36:54.752+00:00</time>
      </trkpt>
      <trkpt lat="46.63633" lon="5.81877">
        <ele>613</ele>
        <time>2025-10-08T13:36:58.752+00:00</time>
      </trkpt>
      <trkpt lat="46.63637" lon="5.81877">
        <ele>613</ele>
        <time>2025-10-08T13:37:03.527+00:00</time>
      </trkpt>
      <trkpt lat="46.63641" lon="5.81877">
        <ele>613</ele>
        <time>2025-10-08T13:37:07.529+00:00</time>
      </trkpt>
      <trkpt lat="46.63646" lon="5.81876">
        <ele>613</ele>
        <time>2025-10-08T13:37:11.752+00:00</time>
      </trkpt>
      <trkpt lat="46.6365" lon="5.81873">
        <ele>611</ele>
        <time>2025-10-08T13:37:16.712+00:00</time>
      </trkpt>
      <trkpt lat="46.63655" lon="5.81873">
        <ele>613</ele>
        <time>2025-10-08T13:37:21.231+00:00</time>
      </trkpt>
      <trkpt lat="46.6366" lon="5.81872">
        <ele>613</ele>
        <time>2025-10-08T13:37:25.752+00:00</time>
      </trkpt>
      <trkpt lat="46.63662" lon="5.81873">
        <ele>613</ele>
        <time>2025-10-08T13:37:30.285+00:00</time>
      </trkpt>
      <trkpt lat="46.63664" lon="5.81877">
        <ele>613</ele>
        <time>2025-10-08T13:37:34.752+00:00</time>
      </trkpt>
      <trkpt lat="46.63667" lon="5.81879">
        <ele>613</ele>
        <time>2025-10-08T13:37:39.328+00:00</time>
      </trkpt>
      <trkpt lat="46.63672" lon="5.8188">
        <ele>613</ele>
        <time>2025-10-08T13:37:43.752+00:00</time>
      </trkpt>
      <trkpt lat="46.63675" lon="5.81882">
        <ele>613</ele>
        <time>2025-10-08T13:37:48.322+00:00</time>
      </trkpt>
      <trkpt lat="46.63675" lon="5.81883">
        <ele>613</ele>
        <time>2025-10-08T13:37:52.570+00:00</time>
      </trkpt>
      <trkpt lat="46.63677" lon="5.81888">
        <ele>613</ele>
        <time>2025-10-08T13:37:57.752+00:00</time>
      </trkpt>
      <trkpt lat="46.63679" lon="5.81893">
        <ele>613</ele>
        <time>2025-10-08T13:38:02.305+00:00</time>
      </trkpt>
      <trkpt lat="46.63681" lon="5.81896">
        <ele>611</ele>
        <time>2025-10-08T13:38:06.752+00:00</time>
      </trkpt>
      <trkpt lat="46.63686" lon="5.81898">
        <ele>611</ele>
        <time>2025-10-08T13:38:11.367+00:00</time>
      </trkpt>
      <trkpt lat="46.6369" lon="5.81897">
        <ele>611</ele>
        <time>2025-10-08T13:38:15.530+00:00</time>
      </trkpt>
      <trkpt lat="46.63694" lon="5.819">
        <ele>611</ele>
        <time>2025-10-08T13:38:19.745+00:00</time>
      </trkpt>
      <trkpt lat="46.63698" lon="5.81902">
        <ele>611</ele>
        <time>2025-10-08T13:38:23.831+00:00</time>
      </trkpt>
      <trkpt lat="46.63703" lon="5.81904">
        <ele>612</ele>
        <time>2025-10-08T13:38:28.166+00:00</time>
      </trkpt>
      <trkpt lat="46.63707" lon="5.81905">
        <ele>612</ele>
        <time>2025-10-08T13:38:32.185+00:00</time>
      </trkpt>
      <trkpt lat="46.63712" lon="5.81905">
        <ele>611</ele>
        <time>2025-10-08T13:38:36.648+00:00</time>
      </trkpt>
      <trkpt lat="46.63716" lon="5.81904">
        <ele>611</ele>
        <time>2025-10-08T13:38:41.229+00:00</time>
      </trkpt>
      <trkpt lat="46.6372" lon="5.81904">
        <ele>611</ele>
        <time>2025-10-08T13:38:45.470+00:00</time>
      </trkpt>
      <trkpt lat="46.63725" lon="5.81904">
        <ele>611</ele>
        <time>2025-10-08T13:38:49.752+00:00</time>
      </trkpt>
      <trkpt lat="46.63729" lon="5.81903">
        <ele>611</ele>
        <time>2025-10-08T13:38:53.752+00:00</time>
      </trkpt>
      <trkpt lat="46.63733" lon="5.81899">
        <ele>610</ele>
        <time>2025-10-08T13:38:58.285+00:00</time>
      </trkpt>
      <trkpt lat="46.63736" lon="5.81895">
        <ele>610</ele>
        <time>2025-10-08T13:39:02.312+00:00</time>
      </trkpt>
      <trkpt lat="46.6374" lon="5.81891">
        <ele>610</ele>
        <time>2025-10-08T13:39:06.569+00:00</time>
      </trkpt>
      <trkpt lat="46.63745" lon="5.81889">
        <ele>610</ele>
        <time>2025-10-08T13:39:11.049+00:00</time>
      </trkpt>
      <trkpt lat="46.6375" lon="5.81887">
        <ele>610</ele>
        <time>2025-10-08T13:39:15.529+00:00</time>
      </trkpt>
      <trkpt lat="46.63756" lon="5.81884">
        <ele>610</ele>
        <time>2025-10-08T13:39:20.752+00:00</time>
      </trkpt>
      <trkpt lat="46.63761" lon="5.81883">
        <ele>610</ele>
        <time>2025-10-08T13:39:25.050+00:00</time>
      </trkpt>
      <trkpt lat="46.63766" lon="5.81883">
        <ele>613</ele>
        <time>2025-10-08T13:39:29.752+00:00</time>
      </trkpt>
      <trkpt lat="46.63772" lon="5.81886">
        <ele>613</ele>
        <time>2025-10-08T13:39:34.231+00:00</time>
      </trkpt>
      <trkpt lat="46.63778" lon="5.81885">
        <ele>613</ele>
        <time>2025-10-08T13:39:38.753+00:00</time>
      </trkpt>
      <trkpt lat="46.63784" lon="5.81884">
        <ele>613</ele>
        <time>2025-10-08T13:39:43.752+00:00</time>
      </trkpt>
      <trkpt lat="46.63788" lon="5.81884">
        <ele>613</ele>
        <time>2025-10-08T13:39:48.070+00:00</time>
      </trkpt>
      <trkpt lat="46.63793" lon="5.81883">
        <ele>616</ele>
        <time>2025-10-08T13:39:52.626+00:00</time>
      </trkpt>
      <trkpt lat="46.63796" lon="5.81883">
        <ele>616</ele>
        <time>2025-10-08T13:39:56.752+00:00</time>
      </trkpt>
      <trkpt lat="46.638" lon="5.81882">
        <ele>616</ele>
        <time>2025-10-08T13:40:01.346+00:00</time>
      </trkpt>
      <trkpt lat="46.63804" lon="5.81881">
        <ele>616</ele>
        <time>2025-10-08T13:40:05.753+00:00</time>
      </trkpt>
      <trkpt lat="46.63808" lon="5.81879">
        <ele>616</ele>
        <time>2025-10-08T13:40:10.365+00:00</time>
      </trkpt>
      <trkpt lat="46.63812" lon="5.81875">
        <ele>616</ele>
        <time>2025-10-08T13:40:15.245+00:00</time>
      </trkpt>
      <trkpt lat="46.63815" lon="5.81873">
        <ele>615</ele>
        <time>2025-10-08T13:40:19.752+00:00</time>
      </trkpt>
      <trkpt lat="46.6382" lon="5.8187">
        <ele>616</ele>
        <time>2025-10-08T13:40:24.752+00:00</time>
      </trkpt>
      <trkpt lat="46.63824" lon="5.81868">
        <ele>616</ele>
        <time>2025-10-08T13:40:28.828+00:00</time>
      </trkpt>
      <trkpt lat="46.63828" lon="5.81864">
        <ele>616</ele>
        <time>2025-10-08T13:40:33.351+00:00</time>
      </trkpt>
      <trkpt lat="46.63831" lon="5.81862">
        <ele>616</ele>
        <time>2025-10-08T13:40:37.752+00:00</time>
      </trkpt>
      <trkpt lat="46.63835" lon="5.8186">
        <ele>616</ele>
        <time>2025-10-08T13:40:42.752+00:00</time>
      </trkpt>
      <trkpt lat="46.63838" lon="5.8186">
        <ele>616</ele>
        <time>2025-10-08T13:40:46.909+00:00</time>
      </trkpt>
      <trkpt lat="46.63843" lon="5.81864">
        <ele>616</ele>
        <time>2025-10-08T13:40:51.752+00:00</time>
      </trkpt>
      <trkpt lat="46.63849" lon="5.8187">
        <ele>615</ele>
        <time>2025-10-08T13:40:56.268+00:00</time>
      </trkpt>
      <trkpt lat="46.63854" lon="5.81875">
        <ele>615</ele>
        <time>2025-10-08T13:41:00.670+00:00</time>
      </trkpt>
      <trkpt lat="46.63858" lon="5.8188">
        <ele>618</ele>
        <time>2025-10-08T13:41:05.185+00:00</time>
      </trkpt>
      <trkpt lat="46.63861" lon="5.81883">
        <ele>618</ele>
        <time>2025-10-08T13:41:09.752+00:00</time>
      </trkpt>
      <trkpt lat="46.63865" lon="5.81887">
        <ele>618</ele>
        <time>2025-10-08T13:41:14.705+00:00</time>
      </trkpt>
      <trkpt lat="46.6387" lon="5.81888">
        <ele>618</ele>
        <time>2025-10-08T13:41:19.339+00:00</time>
      </trkpt>
      <trkpt lat="46.63875" lon="5.81889">
        <ele>617</ele>
        <time>2025-10-08T13:41:24.126+00:00</time>
      </trkpt>
      <trkpt lat="46.63881" lon="5.81891">
        <ele>617</ele>
        <time>2025-10-08T13:41:28.750+00:00</time>
      </trkpt>
      <trkpt lat="46.63886" lon="5.81891">
        <ele>617</ele>
        <time>2025-10-08T13:41:32.752+00:00</time>
      </trkpt>
      <trkpt lat="46.63892" lon="5.81893">
        <ele>617</ele>
        <time>2025-10-08T13:41:37.752+00:00</time>
      </trkpt>
      <trkpt lat="46.63897" lon="5.81895">
        <ele>617</ele>
        <time>2025-10-08T13:41:42.206+00:00</time>
      </trkpt>
      <trkpt lat="46.63902" lon="5.81895">
        <ele>617</ele>
        <time>2025-10-08T13:41:46.727+00:00</time>
      </trkpt>
      <trkpt lat="46.63908" lon="5.81897">
        <ele>615</ele>
        <time>2025-10-08T13:41:51.232+00:00</time>
      </trkpt>
      <trkpt lat="46.63913" lon="5.81899">
        <ele>615</ele>
        <time>2025-10-08T13:41:55.686+00:00</time>
      </trkpt>
      <trkpt lat="46.63919" lon="5.81901">
        <ele>615</ele>
        <time>2025-10-08T13:41:59.752+00:00</time>
      </trkpt>
      <trkpt lat="46.63925" lon="5.819">
        <ele>615</ele>
        <time>2025-10-08T13:42:04.212+00:00</time>
      </trkpt>
      <trkpt lat="46.6393" lon="5.81899">
        <ele>615</ele>
        <time>2025-10-08T13:42:08.425+00:00</time>
      </trkpt>
      <trkpt lat="46.63934" lon="5.81897">
        <ele>614</ele>
        <time>2025-10-08T13:42:12.753+00:00</time>
      </trkpt>
      <trkpt lat="46.6394" lon="5.81896">
        <ele>614</ele>
        <time>2025-10-08T13:42:17.597+00:00</time>
      </trkpt>
      <trkpt lat="46.63945" lon="5.81894">
        <ele>614</ele>
        <time>2025-10-08T13:42:21.752+00:00</time>
      </trkpt>
      <trkpt lat="46.6395" lon="5.81891">
        <ele>614</ele>
        <time>2025-10-08T13:42:26.367+00:00</time>
      </trkpt>
      <trkpt lat="46.63955" lon="5.81888">
        <ele>614</ele>
        <time>2025-10-08T13:42:30.685+00:00</time>
      </trkpt>
      <trkpt lat="46.63959" lon="5.81886">
        <ele>614</ele>
        <time>2025-10-08T13:42:35.387+00:00</time>
      </trkpt>
      <trkpt lat="46.63965" lon="5.81885">
        <ele>614</ele>
        <time>2025-10-08T13:42:39.303+00:00</time>
      </trkpt>
      <trkpt lat="46.6397" lon="5.81882">
        <ele>614</ele>
        <time>2025-10-08T13:42:43.508+00:00</time>
      </trkpt>
      <trkpt lat="46.63975" lon="5.81881">
        <ele>614</ele>
        <time>2025-10-08T13:42:47.752+00:00</time>
      </trkpt>
      <trkpt lat="46.63981" lon="5.81882">
        <ele>614</ele>
        <time>2025-10-08T13:42:52.752+00:00</time>
      </trkpt>
      <trkpt lat="46.63986" lon="5.81884">
        <ele>615</ele>
        <time>2025-10-08T13:42:57.731+00:00</time>
      </trkpt>
      <trkpt lat="46.63992" lon="5.81889">
        <ele>615</ele>
        <time>2025-10-08T13:43:02.552+00:00</time>
      </trkpt>
      <trkpt lat="46.63997" lon="5.81892">
        <ele>615</ele>
        <time>2025-10-08T13:43:06.752+00:00</time>
      </trkpt>
      <trkpt lat="46.64002" lon="5.81894">
        <ele>615</ele>
        <time>2025-10-08T13:43:10.947+00:00</time>
      </trkpt>
      <trkpt lat="46.64008" lon="5.81895">
        <ele>615</ele>
        <time>2025-10-08T13:43:15.529+00:00</time>
      </trkpt>
      <trkpt lat="46.64013" lon="5.81895">
        <ele>615</ele>
        <time>2025-10-08T13:43:19.709+00:00</time>
      </trkpt>
      <trkpt lat="46.64018" lon="5.81895">
        <ele>616</ele>
        <time>2025-10-08T13:43:23.752+00:00</time>
      </trkpt>
      <trkpt lat="46.64024" lon="5.81897">
        <ele>616</ele>
        <time>2025-10-08T13:43:28.224+00:00</time>
      </trkpt>
      <trkpt lat="46.64029" lon="5.81899">
        <ele>616</ele>
        <time>2025-10-08T13:43:32.467+00:00</time>
      </trkpt>
      <trkpt lat="46.64033" lon="5.81906">
        <ele>618</ele>
        <time>2025-10-08T13:43:36.630+00:00</time>
      </trkpt>
      <trkpt lat="46.64036" lon="5.8191">
        <ele>618</ele>
        <time>2025-10-08T13:43:40.931+00:00</time>
      </trkpt>
      <trkpt lat="46.6404" lon="5.81916">
        <ele>618</ele>
        <time>2025-10-08T13:43:45.152+00:00</time>
      </trkpt>
      <trkpt lat="46.64043" lon="5.81921">
        <ele>620</ele>
        <time>2025-10-08T13:43:49.772+00:00</time>
      </trkpt>
      <trkpt lat="46.64047" lon="5.81925">
        <ele>620</ele>
        <time>2025-10-08T13:43:54.265+00:00</time>
      </trkpt>
      <trkpt lat="46.64051" lon="5.8193">
        <ele>620</ele>
        <time>2025-10-08T13:43:58.746+00:00</time>
      </trkpt>
      <trkpt lat="46.64056" lon="5.81936">
        <ele>622</ele>
        <time>2025-10-08T13:44:03.130+00:00</time>
      </trkpt>
      <trkpt lat="46.64059" lon="5.81943">
        <ele>622</ele>
        <time>2025-10-08T13:44:07.652+00:00</time>
      </trkpt>
      <trkpt lat="46.64062" lon="5.81949">
        <ele>622</ele>
        <time>2025-10-08T13:44:12.285+00:00</time>
      </trkpt>
      <trkpt lat="46.64066" lon="5.81955">
        <ele>622</ele>
        <time>2025-10-08T13:44:16.752+00:00</time>
      </trkpt>
      <trkpt lat="46.6407" lon="5.8196">
        <ele>625</ele>
        <time>2025-10-08T13:44:21.279+00:00</time>
      </trkpt>
      <trkpt lat="46.64072" lon="5.81965">
        <ele>625</ele>
        <time>2025-10-08T13:44:25.577+00:00</time>
      </trkpt>
      <trkpt lat="46.64075" lon="5.8197">
        <ele>625</ele>
        <time>2025-10-08T13:44:29.716+00:00</time>
      </trkpt>
      <trkpt lat="46.64078" lon="5.81974">
        <ele>625</ele>
        <time>2025-10-08T13:44:33.751+00:00</time>
      </trkpt>
      <trkpt lat="46.64083" lon="5.81978">
        <ele>625</ele>
        <time>2025-10-08T13:44:38.404+00:00</time>
      </trkpt>
      <trkpt lat="46.64088" lon="5.81981">
        <ele>625</ele>
        <time>2025-10-08T13:44:42.752+00:00</time>
      </trkpt>
      <trkpt lat="46.64092" lon="5.81987">
        <ele>624</ele>
        <time>2025-10-08T13:44:47.479+00:00</time>
      </trkpt>
      <trkpt lat="46.64096" lon="5.8199">
        <ele>624</ele>
        <time>2025-10-08T13:44:52.001+00:00</time>
      </trkpt>
      <trkpt lat="46.641" lon="5.81994">
        <ele>626</ele>
        <time>2025-10-08T13:44:56.659+00:00</time>
      </trkpt>
      <trkpt lat="46.64105" lon="5.81997">
        <ele>626</ele>
        <time>2025-10-08T13:45:00.751+00:00</time>
      </trkpt>
      <trkpt lat="46.64109" lon="5.82">
        <ele>626</ele>
        <time>2025-10-08T13:45:04.790+00:00</time>
      </trkpt>
      <trkpt lat="46.64114" lon="5.82004">
        <ele>626</ele>
        <time>2025-10-08T13:45:09.751+00:00</time>
      </trkpt>
      <trkpt lat="46.64119" lon="5.82007">
        <ele>626</ele>
        <time>2025-10-08T13:45:14.416+00:00</time>
      </trkpt>
      <trkpt lat="46.64123" lon="5.82012">
        <ele>626</ele>
        <time>2025-10-08T13:45:18.655+00:00</time>
      </trkpt>
      <trkpt lat="46.64128" lon="5.82016">
        <ele>627</ele>
        <time>2025-10-08T13:45:23.441+00:00</time>
      </trkpt>
      <trkpt lat="46.64132" lon="5.8202">
        <ele>627</ele>
        <time>2025-10-08T13:45:27.459+00:00</time>
      </trkpt>
      <trkpt lat="46.64138" lon="5.82024">
        <ele>627</ele>
        <time>2025-10-08T13:45:32.315+00:00</time>
      </trkpt>
      <trkpt lat="46.64145" lon="5.8203">
        <ele>627</ele>
        <time>2025-10-08T13:45:36.751+00:00</time>
      </trkpt>
      <trkpt lat="46.64152" lon="5.82034">
        <ele>627</ele>
        <time>2025-10-08T13:45:41.751+00:00</time>
      </trkpt>
      <trkpt lat="46.64159" lon="5.82037">
        <ele>628</ele>
        <time>2025-10-08T13:45:46.615+00:00</time>
      </trkpt>
      <trkpt lat="46.64165" lon="5.8204">
        <ele>628</ele>
        <time>2025-10-08T13:45:51.375+00:00</time>
      </trkpt>
      <trkpt lat="46.64171" lon="5.82043">
        <ele>627</ele>
        <time>2025-10-08T13:45:55.538+00:00</time>
      </trkpt>
      <trkpt lat="46.64177" lon="5.82045">
        <ele>627</ele>
        <time>2025-10-08T13:45:59.751+00:00</time>
      </trkpt>
      <trkpt lat="46.64184" lon="5.82048">
        <ele>625</ele>
        <time>2025-10-08T13:46:04.360+00:00</time>
      </trkpt>
      <trkpt lat="46.64189" lon="5.82051">
        <ele>625</ele>
        <time>2025-10-08T13:46:08.720+00:00</time>
      </trkpt>
      <trkpt lat="46.64194" lon="5.82053">
        <ele>625</ele>
        <time>2025-10-08T13:46:12.751+00:00</time>
      </trkpt>
      <trkpt lat="46.642" lon="5.82055">
        <ele>625</ele>
        <time>2025-10-08T13:46:16.997+00:00</time>
      </trkpt>
      <trkpt lat="46.64207" lon="5.82055">
        <ele>625</ele>
        <time>2025-10-08T13:46:21.751+00:00</time>
      </trkpt>
      <trkpt lat="46.64214" lon="5.82057">
        <ele>620</ele>
        <time>2025-10-08T13:46:26.296+00:00</time>
      </trkpt>
      <trkpt lat="46.6422" lon="5.82061">
        <ele>620</ele>
        <time>2025-10-08T13:46:30.751+00:00</time>
      </trkpt>
      <trkpt lat="46.64227" lon="5.82062">
        <ele>620</ele>
        <time>2025-10-08T13:46:35.399+00:00</time>
      </trkpt>
      <trkpt lat="46.64233" lon="5.82061">
        <ele>620</ele>
        <time>2025-10-08T13:46:39.460+00:00</time>
      </trkpt>
      <trkpt lat="46.64239" lon="5.82059">
        <ele>612</ele>
        <time>2025-10-08T13:46:43.479+00:00</time>
      </trkpt>
      <trkpt lat="46.64245" lon="5.82056">
        <ele>612</ele>
        <time>2025-10-08T13:46:48.019+00:00</time>
      </trkpt>
      <trkpt lat="46.64252" lon="5.82054">
        <ele>612</ele>
        <time>2025-10-08T13:46:52.038+00:00</time>
      </trkpt>
      <trkpt lat="46.64258" lon="5.82054">
        <ele>612</ele>
        <time>2025-10-08T13:46:56.157+00:00</time>
      </trkpt>
      <trkpt lat="46.64265" lon="5.82056">
        <ele>608</ele>
        <time>2025-10-08T13:47:00.237+00:00</time>
      </trkpt>
      <trkpt lat="46.64272" lon="5.82058">
        <ele>608</ele>
        <time>2025-10-08T13:47:04.751+00:00</time>
      </trkpt>
      <trkpt lat="46.6428" lon="5.8206">
        <ele>608</ele>
        <time>2025-10-08T13:47:09.255+00:00</time>
      </trkpt>
      <trkpt lat="46.64286" lon="5.82061">
        <ele>608</ele>
        <time>2025-10-08T13:47:13.375+00:00</time>
      </trkpt>
      <trkpt lat="46.64293" lon="5.82063">
        <ele>606</ele>
        <time>2025-10-08T13:47:17.496+00:00</time>
      </trkpt>
      <trkpt lat="46.64299" lon="5.82064">
        <ele>606</ele>
        <time>2025-10-08T13:47:21.600+00:00</time>
      </trkpt>
      <trkpt lat="46.64306" lon="5.82066">
        <ele>606</ele>
        <time>2025-10-08T13:47:25.755+00:00</time>
      </trkpt>
      <trkpt lat="46.64312" lon="5.82067">
        <ele>606</ele>
        <time>2025-10-08T13:47:29.751+00:00</time>
      </trkpt>
      <trkpt lat="46.64319" lon="5.82067">
        <ele>606</ele>
        <time>2025-10-08T13:47:34.116+00:00</time>
      </trkpt>
      <trkpt lat="46.64325" lon="5.82067">
        <ele>604</ele>
        <time>2025-10-08T13:47:38.751+00:00</time>
      </trkpt>
      <trkpt lat="46.64331" lon="5.82068">
        <ele>604</ele>
        <time>2025-10-08T13:47:43.219+00:00</time>
      </trkpt>
      <trkpt lat="46.64337" lon="5.82069">
        <ele>604</ele>
        <time>2025-10-08T13:47:47.700+00:00</time>
      </trkpt>
      <trkpt lat="46.64343" lon="5.8207">
        <ele>605</ele>
        <time>2025-10-08T13:47:52.297+00:00</time>
      </trkpt>
      <trkpt lat="46.64349" lon="5.8207">
        <ele>603</ele>
        <time>2025-10-08T13:47:56.751+00:00</time>
      </trkpt>
      <trkpt lat="46.64355" lon="5.82071">
        <ele>603</ele>
        <time>2025-10-08T13:48:01.717+00:00</time>
      </trkpt>
      <trkpt lat="46.6436" lon="5.82073">
        <ele>603</ele>
        <time>2025-10-08T13:48:06.537+00:00</time>
      </trkpt>
      <trkpt lat="46.64364" lon="5.82074">
        <ele>603</ele>
        <time>2025-10-08T13:48:10.616+00:00</time>
      </trkpt>
      <trkpt lat="46.64366" lon="5.82067">
        <ele>602</ele>
        <time>2025-10-08T13:48:47.751+00:00</time>
      </trkpt>
      <trkpt lat="46.64366" lon="5.82066">
        <ele>602</ele>
        <time>2025-10-08T13:48:51.752+00:00</time>
      </trkpt>
      <trkpt lat="46.64365" lon="5.82066">
        <ele>602</ele>
        <time>2025-10-08T13:48:58.751+00:00</time>
      </trkpt>
      <trkpt lat="46.64367" lon="5.82062">
        <ele>602</ele>
        <time>2025-10-08T13:49:02.751+00:00</time>
      </trkpt>
      <trkpt lat="46.64373" lon="5.8206">
        <ele>602</ele>
        <time>2025-10-08T13:49:07.751+00:00</time>
      </trkpt>
      <trkpt lat="46.64378" lon="5.82059">
        <ele>603</ele>
        <time>2025-10-08T13:49:11.751+00:00</time>
      </trkpt>
      <trkpt lat="46.64383" lon="5.82061">
        <ele>603</ele>
        <time>2025-10-08T13:49:15.752+00:00</time>
      </trkpt>
      <trkpt lat="46.64387" lon="5.82063">
        <ele>603</ele>
        <time>2025-10-08T13:49:20.001+00:00</time>
      </trkpt>
      <trkpt lat="46.6439" lon="5.82062">
        <ele>603</ele>
        <time>2025-10-08T13:49:24.751+00:00</time>
      </trkpt>
      <trkpt lat="46.64395" lon="5.82061">
        <ele>603</ele>
        <time>2025-10-08T13:49:29.138+00:00</time>
      </trkpt>
      <trkpt lat="46.644" lon="5.82058">
        <ele>603</ele>
        <time>2025-10-08T13:49:33.752+00:00</time>
      </trkpt>
      <trkpt lat="46.64405" lon="5.82054">
        <ele>605</ele>
        <time>2025-10-08T13:49:38.575+00:00</time>
      </trkpt>
      <trkpt lat="46.64411" lon="5.82049">
        <ele>605</ele>
        <time>2025-10-08T13:49:43.139+00:00</time>
      </trkpt>
      <trkpt lat="46.64416" lon="5.82045">
        <ele>605</ele>
        <time>2025-10-08T13:49:47.695+00:00</time>
      </trkpt>
      <trkpt lat="46.6442" lon="5.82041">
        <ele>605</ele>
        <time>2025-10-08T13:49:51.751+00:00</time>
      </trkpt>
      <trkpt lat="46.64425" lon="5.82038">
        <ele>605</ele>
        <time>2025-10-08T13:49:56.040+00:00</time>
      </trkpt>
      <trkpt lat="46.64431" lon="5.82035">
        <ele>605</ele>
        <time>2025-10-08T13:50:00.752+00:00</time>
      </trkpt>
      <trkpt lat="46.64437" lon="5.82032">
        <ele>605</ele>
        <time>2025-10-08T13:50:05.614+00:00</time>
      </trkpt>
      <trkpt lat="46.64442" lon="5.82029">
        <ele>605</ele>
        <time>2025-10-08T13:50:10.161+00:00</time>
      </trkpt>
      <trkpt lat="46.64447" lon="5.82024">
        <ele>605</ele>
        <time>2025-10-08T13:50:14.751+00:00</time>
      </trkpt>
      <trkpt lat="46.64452" lon="5.8202">
        <ele>605</ele>
        <time>2025-10-08T13:50:19.275+00:00</time>
      </trkpt>
      <trkpt lat="46.64457" lon="5.82016">
        <ele>605</ele>
        <time>2025-10-08T13:50:23.377+00:00</time>
      </trkpt>
      <trkpt lat="46.64461" lon="5.82013">
        <ele>603</ele>
        <time>2025-10-08T13:50:27.559+00:00</time>
      </trkpt>
      <trkpt lat="46.64467" lon="5.8201">
        <ele>603</ele>
        <time>2025-10-08T13:50:31.751+00:00</time>
      </trkpt>
      <trkpt lat="46.64473" lon="5.82005">
        <ele>603</ele>
        <time>2025-10-08T13:50:36.751+00:00</time>
      </trkpt>
      <trkpt lat="46.64479" lon="5.82004">
        <ele>603</ele>
        <time>2025-10-08T13:50:41.278+00:00</time>
      </trkpt>
      <trkpt lat="46.64484" lon="5.82003">
        <ele>603</ele>
        <time>2025-10-08T13:50:45.751+00:00</time>
      </trkpt>
      <trkpt lat="46.6449" lon="5.82003">
        <ele>602</ele>
        <time>2025-10-08T13:50:50.342+00:00</time>
      </trkpt>
      <trkpt lat="46.64495" lon="5.82006">
        <ele>602</ele>
        <time>2025-10-08T13:50:54.751+00:00</time>
      </trkpt>
      <trkpt lat="46.645" lon="5.8201">
        <ele>602</ele>
        <time>2025-10-08T13:50:59.256+00:00</time>
      </trkpt>
      <trkpt lat="46.64506" lon="5.82013">
        <ele>602</ele>
        <time>2025-10-08T13:51:03.700+00:00</time>
      </trkpt>
      <trkpt lat="46.64511" lon="5.82013">
        <ele>602</ele>
        <time>2025-10-08T13:51:08.001+00:00</time>
      </trkpt>
      <trkpt lat="46.64517" lon="5.82016">
        <ele>603</ele>
        <time>2025-10-08T13:51:12.096+00:00</time>
      </trkpt>
      <trkpt lat="46.64523" lon="5.82017">
        <ele>603</ele>
        <time>2025-10-08T13:51:16.618+00:00</time>
      </trkpt>
      <trkpt lat="46.6453" lon="5.8202">
        <ele>603</ele>
        <time>2025-10-08T13:51:21.660+00:00</time>
      </trkpt>
      <trkpt lat="46.64535" lon="5.82021">
        <ele>603</ele>
        <time>2025-10-08T13:51:25.752+00:00</time>
      </trkpt>
      <trkpt lat="46.64541" lon="5.8202">
        <ele>603</ele>
        <time>2025-10-08T13:51:30.475+00:00</time>
      </trkpt>
      <trkpt lat="46.64547" lon="5.8202">
        <ele>604</ele>
        <time>2025-10-08T13:51:34.758+00:00</time>
      </trkpt>
      <trkpt lat="46.64554" lon="5.82019">
        <ele>604</ele>
        <time>2025-10-08T13:51:39.655+00:00</time>
      </trkpt>
      <trkpt lat="46.6456" lon="5.82015">
        <ele>604</ele>
        <time>2025-10-08T13:51:43.751+00:00</time>
      </trkpt>
      <trkpt lat="46.64566" lon="5.82012">
        <ele>601</ele>
        <time>2025-10-08T13:51:48.528+00:00</time>
      </trkpt>
      <trkpt lat="46.64572" lon="5.82008">
        <ele>602</ele>
        <time>2025-10-08T13:51:53.391+00:00</time>
      </trkpt>
      <trkpt lat="46.64577" lon="5.82004">
        <ele>602</ele>
        <time>2025-10-08T13:51:58.050+00:00</time>
      </trkpt>
      <trkpt lat="46.64582" lon="5.82">
        <ele>602</ele>
        <time>2025-10-08T13:52:02.555+00:00</time>
      </trkpt>
      <trkpt lat="46.64587" lon="5.81996">
        <ele>602</ele>
        <time>2025-10-08T13:52:07.111+00:00</time>
      </trkpt>
      <trkpt lat="46.64592" lon="5.81992">
        <ele>602</ele>
        <time>2025-10-08T13:52:11.574+00:00</time>
      </trkpt>
      <trkpt lat="46.64597" lon="5.81989">
        <ele>602</ele>
        <time>2025-10-08T13:52:15.751+00:00</time>
      </trkpt>
      <trkpt lat="46.64602" lon="5.81984">
        <ele>599</ele>
        <time>2025-10-08T13:52:20.267+00:00</time>
      </trkpt>
      <trkpt lat="46.64607" lon="5.8198">
        <ele>599</ele>
        <time>2025-10-08T13:52:24.655+00:00</time>
      </trkpt>
      <trkpt lat="46.64612" lon="5.81978">
        <ele>599</ele>
        <time>2025-10-08T13:52:28.751+00:00</time>
      </trkpt>
      <trkpt lat="46.64616" lon="5.81974">
        <ele>599</ele>
        <time>2025-10-08T13:52:32.895+00:00</time>
      </trkpt>
      <trkpt lat="46.64621" lon="5.8197">
        <ele>599</ele>
        <time>2025-10-08T13:52:37.256+00:00</time>
      </trkpt>
      <trkpt lat="46.64628" lon="5.81967">
        <ele>597</ele>
        <time>2025-10-08T13:52:41.751+00:00</time>
      </trkpt>
      <trkpt lat="46.64634" lon="5.81964">
        <ele>597</ele>
        <time>2025-10-08T13:52:46.436+00:00</time>
      </trkpt>
      <trkpt lat="46.64639" lon="5.81961">
        <ele>597</ele>
        <time>2025-10-08T13:52:50.574+00:00</time>
      </trkpt>
      <trkpt lat="46.64644" lon="5.81958">
        <ele>596</ele>
        <time>2025-10-08T13:52:54.773+00:00</time>
      </trkpt>
      <trkpt lat="46.6465" lon="5.81954">
        <ele>596</ele>
        <time>2025-10-08T13:52:59.131+00:00</time>
      </trkpt>
      <trkpt lat="46.64655" lon="5.81952">
        <ele>595</ele>
        <time>2025-10-08T13:53:03.637+00:00</time>
      </trkpt>
      <trkpt lat="46.6466" lon="5.81949">
        <ele>595</ele>
        <time>2025-10-08T13:53:07.752+00:00</time>
      </trkpt>
      <trkpt lat="46.64665" lon="5.81946">
        <ele>595</ele>
        <time>2025-10-08T13:53:12.315+00:00</time>
      </trkpt>
      <trkpt lat="46.6467" lon="5.81944">
        <ele>595</ele>
        <time>2025-10-08T13:53:16.408+00:00</time>
      </trkpt>
      <trkpt lat="46.64675" lon="5.81943">
        <ele>595</ele>
        <time>2025-10-08T13:53:20.496+00:00</time>
      </trkpt>
      <trkpt lat="46.64681" lon="5.81942">
        <ele>594</ele>
        <time>2025-10-08T13:53:25.173+00:00</time>
      </trkpt>
      <trkpt lat="46.64685" lon="5.81942">
        <ele>594</ele>
        <time>2025-10-08T13:53:29.514+00:00</time>
      </trkpt>
      <trkpt lat="46.64691" lon="5.81941">
        <ele>594</ele>
        <time>2025-10-08T13:53:34.172+00:00</time>
      </trkpt>
      <trkpt lat="46.64696" lon="5.81941">
        <ele>594</ele>
        <time>2025-10-08T13:53:38.668+00:00</time>
      </trkpt>
      <trkpt lat="46.64702" lon="5.81941">
        <ele>594</ele>
        <time>2025-10-08T13:53:43.115+00:00</time>
      </trkpt>
      <trkpt lat="46.64708" lon="5.81939">
        <ele>594</ele>
        <time>2025-10-08T13:53:47.576+00:00</time>
      </trkpt>
      <trkpt lat="46.64713" lon="5.81935">
        <ele>592</ele>
        <time>2025-10-08T13:53:52.174+00:00</time>
      </trkpt>
      <trkpt lat="46.64718" lon="5.81931">
        <ele>592</ele>
        <time>2025-10-08T13:53:56.731+00:00</time>
      </trkpt>
      <trkpt lat="46.64724" lon="5.81926">
        <ele>591</ele>
        <time>2025-10-08T13:54:00.750+00:00</time>
      </trkpt>
      <trkpt lat="46.64728" lon="5.81922">
        <ele>591</ele>
        <time>2025-10-08T13:54:05.050+00:00</time>
      </trkpt>
      <trkpt lat="46.64733" lon="5.81916">
        <ele>591</ele>
        <time>2025-10-08T13:54:09.495+00:00</time>
      </trkpt>
      <trkpt lat="46.64738" lon="5.81913">
        <ele>589</ele>
        <time>2025-10-08T13:54:13.650+00:00</time>
      </trkpt>
      <trkpt lat="46.64744" lon="5.81913">
        <ele>589</ele>
        <time>2025-10-08T13:54:18.035+00:00</time>
      </trkpt>
      <trkpt lat="46.6475" lon="5.81914">
        <ele>589</ele>
        <time>2025-10-08T13:54:22.532+00:00</time>
      </trkpt>
      <trkpt lat="46.64755" lon="5.81916">
        <ele>589</ele>
        <time>2025-10-08T13:54:26.751+00:00</time>
      </trkpt>
      <trkpt lat="46.64761" lon="5.81918">
        <ele>589</ele>
        <time>2025-10-08T13:54:31.295+00:00</time>
      </trkpt>
      <trkpt lat="46.64766" lon="5.81919">
        <ele>591</ele>
        <time>2025-10-08T13:54:35.671+00:00</time>
      </trkpt>
      <trkpt lat="46.64771" lon="5.81919">
        <ele>591</ele>
        <time>2025-10-08T13:54:39.715+00:00</time>
      </trkpt>
      <trkpt lat="46.64776" lon="5.81917">
        <ele>591</ele>
        <time>2025-10-08T13:54:43.750+00:00</time>
      </trkpt>
      <trkpt lat="46.64781" lon="5.81913">
        <ele>591</ele>
        <time>2025-10-08T13:54:48.334+00:00</time>
      </trkpt>
      <trkpt lat="46.64786" lon="5.81912">
        <ele>591</ele>
        <time>2025-10-08T13:54:52.750+00:00</time>
      </trkpt>
      <trkpt lat="46.64792" lon="5.81911">
        <ele>591</ele>
        <time>2025-10-08T13:54:57.530+00:00</time>
      </trkpt>
      <trkpt lat="46.64797" lon="5.8191">
        <ele>591</ele>
        <time>2025-10-08T13:55:02.154+00:00</time>
      </trkpt>
      <trkpt lat="46.64803" lon="5.81908">
        <ele>591</ele>
        <time>2025-10-08T13:55:06.651+00:00</time>
      </trkpt>
      <trkpt lat="46.64806" lon="5.81902">
        <ele>590</ele>
        <time>2025-10-08T13:55:10.750+00:00</time>
      </trkpt>
      <trkpt lat="46.64808" lon="5.81893">
        <ele>590</ele>
        <time>2025-10-08T13:55:15.311+00:00</time>
      </trkpt>
      <trkpt lat="46.6481" lon="5.81884">
        <ele>590</ele>
        <time>2025-10-08T13:55:19.750+00:00</time>
      </trkpt>
      <trkpt lat="46.64812" lon="5.81876">
        <ele>590</ele>
        <time>2025-10-08T13:55:24.627+00:00</time>
      </trkpt>
      <trkpt lat="46.64815" lon="5.81867">
        <ele>589</ele>
        <time>2025-10-08T13:55:29.254+00:00</time>
      </trkpt>
      <trkpt lat="46.64818" lon="5.81859">
        <ele>589</ele>
        <time>2025-10-08T13:55:33.655+00:00</time>
      </trkpt>
      <trkpt lat="46.64819" lon="5.81852">
        <ele>589</ele>
        <time>2025-10-08T13:55:38.074+00:00</time>
      </trkpt>
      <trkpt lat="46.64822" lon="5.81845">
        <ele>589</ele>
        <time>2025-10-08T13:55:42.511+00:00</time>
      </trkpt>
      <trkpt lat="46.64825" lon="5.81838">
        <ele>589</ele>
        <time>2025-10-08T13:55:46.750+00:00</time>
      </trkpt>
      <trkpt lat="46.64829" lon="5.81832">
        <ele>589</ele>
        <time>2025-10-08T13:55:51.615+00:00</time>
      </trkpt>
      <trkpt lat="46.64832" lon="5.81825">
        <ele>589</ele>
        <time>2025-10-08T13:55:55.651+00:00</time>
      </trkpt>
      <trkpt lat="46.64835" lon="5.81817">
        <ele>589</ele>
        <time>2025-10-08T13:56:00.249+00:00</time>
      </trkpt>
      <trkpt lat="46.64838" lon="5.8181">
        <ele>589</ele>
        <time>2025-10-08T13:56:04.534+00:00</time>
      </trkpt>
      <trkpt lat="46.64841" lon="5.81804">
        <ele>589</ele>
        <time>2025-10-08T13:56:08.654+00:00</time>
      </trkpt>
      <trkpt lat="46.64844" lon="5.81797">
        <ele>589</ele>
        <time>2025-10-08T13:56:12.750+00:00</time>
      </trkpt>
      <trkpt lat="46.64846" lon="5.8179">
        <ele>589</ele>
        <time>2025-10-08T13:56:17.314+00:00</time>
      </trkpt>
      <trkpt lat="46.64848" lon="5.81782">
        <ele>588</ele>
        <time>2025-10-08T13:56:21.435+00:00</time>
      </trkpt>
      <trkpt lat="46.6485" lon="5.81775">
        <ele>588</ele>
        <time>2025-10-08T13:56:25.750+00:00</time>
      </trkpt>
      <trkpt lat="46.64852" lon="5.81766">
        <ele>588</ele>
        <time>2025-10-08T13:56:30.188+00:00</time>
      </trkpt>
      <trkpt lat="46.64853" lon="5.81758">
        <ele>586</ele>
        <time>2025-10-08T13:56:34.711+00:00</time>
      </trkpt>
      <trkpt lat="46.64855" lon="5.81752">
        <ele>586</ele>
        <time>2025-10-08T13:56:38.995+00:00</time>
      </trkpt>
      <trkpt lat="46.64857" lon="5.81744">
        <ele>586</ele>
        <time>2025-10-08T13:56:43.269+00:00</time>
      </trkpt>
      <trkpt lat="46.64858" lon="5.81736">
        <ele>586</ele>
        <time>2025-10-08T13:56:47.569+00:00</time>
      </trkpt>
      <trkpt lat="46.6486" lon="5.81728">
        <ele>583</ele>
        <time>2025-10-08T13:56:51.750+00:00</time>
      </trkpt>
      <trkpt lat="46.64862" lon="5.81719">
        <ele>583</ele>
        <time>2025-10-08T13:56:56.315+00:00</time>
      </trkpt>
      <trkpt lat="46.64864" lon="5.81712">
        <ele>583</ele>
        <time>2025-10-08T13:57:00.750+00:00</time>
      </trkpt>
      <trkpt lat="46.64867" lon="5.81705">
        <ele>581</ele>
        <time>2025-10-08T13:57:05.274+00:00</time>
      </trkpt>
      <trkpt lat="46.6487" lon="5.81698">
        <ele>581</ele>
        <time>2025-10-08T13:57:09.751+00:00</time>
      </trkpt>
      <trkpt lat="46.64873" lon="5.8169">
        <ele>581</ele>
        <time>2025-10-08T13:57:14.275+00:00</time>
      </trkpt>
      <trkpt lat="46.64875" lon="5.81682">
        <ele>583</ele>
        <time>2025-10-08T13:57:18.717+00:00</time>
      </trkpt>
      <trkpt lat="46.64877" lon="5.81674">
        <ele>581</ele>
        <time>2025-10-08T13:57:23.071+00:00</time>
      </trkpt>
      <trkpt lat="46.6488" lon="5.81667">
        <ele>581</ele>
        <time>2025-10-08T13:57:27.491+00:00</time>
      </trkpt>
      <trkpt lat="46.64882" lon="5.81659">
        <ele>581</ele>
        <time>2025-10-08T13:57:31.751+00:00</time>
      </trkpt>
      <trkpt lat="46.64885" lon="5.81652">
        <ele>581</ele>
        <time>2025-10-08T13:57:36.390+00:00</time>
      </trkpt>
      <trkpt lat="46.64888" lon="5.81646">
        <ele>581</ele>
        <time>2025-10-08T13:57:40.750+00:00</time>
      </trkpt>
      <trkpt lat="46.64891" lon="5.81638">
        <ele>581</ele>
        <time>2025-10-08T13:57:44.751+00:00</time>
      </trkpt>
      <trkpt lat="46.64893" lon="5.81629">
        <ele>581</ele>
        <time>2025-10-08T13:57:49.615+00:00</time>
      </trkpt>
      <trkpt lat="46.64895" lon="5.8162">
        <ele>581</ele>
        <time>2025-10-08T13:57:53.974+00:00</time>
      </trkpt>
      <trkpt lat="46.64897" lon="5.81612">
        <ele>581</ele>
        <time>2025-10-08T13:57:58.309+00:00</time>
      </trkpt>
      <trkpt lat="46.64898" lon="5.81605">
        <ele>581</ele>
        <time>2025-10-08T13:58:02.750+00:00</time>
      </trkpt>
      <trkpt lat="46.649" lon="5.81596">
        <ele>580</ele>
        <time>2025-10-08T13:58:07.234+00:00</time>
      </trkpt>
      <trkpt lat="46.64901" lon="5.81588">
        <ele>580</ele>
        <time>2025-10-08T13:58:11.568+00:00</time>
      </trkpt>
      <trkpt lat="46.64901" lon="5.8158">
        <ele>580</ele>
        <time>2025-10-08T13:58:15.750+00:00</time>
      </trkpt>
      <trkpt lat="46.64902" lon="5.81572">
        <ele>580</ele>
        <time>2025-10-08T13:58:20.288+00:00</time>
      </trkpt>
      <trkpt lat="46.64903" lon="5.81565">
        <ele>579</ele>
        <time>2025-10-08T13:58:24.291+00:00</time>
      </trkpt>
      <trkpt lat="46.64904" lon="5.81558">
        <ele>579</ele>
        <time>2025-10-08T13:58:28.615+00:00</time>
      </trkpt>
      <trkpt lat="46.64905" lon="5.81549">
        <ele>579</ele>
        <time>2025-10-08T13:58:32.936+00:00</time>
      </trkpt>
      <trkpt lat="46.64906" lon="5.8154">
        <ele>578</ele>
        <time>2025-10-08T13:58:37.414+00:00</time>
      </trkpt>
      <trkpt lat="46.64907" lon="5.81532">
        <ele>578</ele>
        <time>2025-10-08T13:58:41.750+00:00</time>
      </trkpt>
      <trkpt lat="46.64907" lon="5.81523">
        <ele>578</ele>
        <time>2025-10-08T13:58:46.255+00:00</time>
      </trkpt>
      <trkpt lat="46.64908" lon="5.81515">
        <ele>578</ele>
        <time>2025-10-08T13:58:50.673+00:00</time>
      </trkpt>
      <trkpt lat="46.64909" lon="5.81507">
        <ele>579</ele>
        <time>2025-10-08T13:58:55.033+00:00</time>
      </trkpt>
      <trkpt lat="46.6491" lon="5.81498">
        <ele>579</ele>
        <time>2025-10-08T13:58:59.375+00:00</time>
      </trkpt>
      <trkpt lat="46.64912" lon="5.81489">
        <ele>579</ele>
        <time>2025-10-08T13:59:03.694+00:00</time>
      </trkpt>
      <trkpt lat="46.64913" lon="5.81481">
        <ele>579</ele>
        <time>2025-10-08T13:59:07.751+00:00</time>
      </trkpt>
      <trkpt lat="46.64913" lon="5.81472">
        <ele>579</ele>
        <time>2025-10-08T13:59:12.335+00:00</time>
      </trkpt>
      <trkpt lat="46.64913" lon="5.81463">
        <ele>579</ele>
        <time>2025-10-08T13:59:16.732+00:00</time>
      </trkpt>
      <trkpt lat="46.64913" lon="5.81455">
        <ele>581</ele>
        <time>2025-10-08T13:59:20.751+00:00</time>
      </trkpt>
      <trkpt lat="46.64913" lon="5.81446">
        <ele>581</ele>
        <time>2025-10-08T13:59:25.535+00:00</time>
      </trkpt>
      <trkpt lat="46.64912" lon="5.81436">
        <ele>581</ele>
        <time>2025-10-08T13:59:30.374+00:00</time>
      </trkpt>
      <trkpt lat="46.64911" lon="5.81426">
        <ele>582</ele>
        <time>2025-10-08T13:59:35.416+00:00</time>
      </trkpt>
      <trkpt lat="46.6491" lon="5.81418">
        <ele>582</ele>
        <time>2025-10-08T13:59:39.587+00:00</time>
      </trkpt>
      <trkpt lat="46.64909" lon="5.81411">
        <ele>582</ele>
        <time>2025-10-08T13:59:43.750+00:00</time>
      </trkpt>
      <trkpt lat="46.64909" lon="5.81401">
        <ele>581</ele>
        <time>2025-10-08T13:59:48.394+00:00</time>
      </trkpt>
      <trkpt lat="46.64907" lon="5.81393">
        <ele>581</ele>
        <time>2025-10-08T13:59:52.471+00:00</time>
      </trkpt>
      <trkpt lat="46.64908" lon="5.81385">
        <ele>581</ele>
        <time>2025-10-08T13:59:56.751+00:00</time>
      </trkpt>
      <trkpt lat="46.64907" lon="5.81375">
        <ele>580</ele>
        <time>2025-10-08T14:00:01.371+00:00</time>
      </trkpt>
      <trkpt lat="46.64909" lon="5.81367">
        <ele>580</ele>
        <time>2025-10-08T14:00:05.535+00:00</time>
      </trkpt>
      <trkpt lat="46.6491" lon="5.81358">
        <ele>580</ele>
        <time>2025-10-08T14:00:10.417+00:00</time>
      </trkpt>
      <trkpt lat="46.64911" lon="5.81351">
        <ele>580</ele>
        <time>2025-10-08T14:00:14.615+00:00</time>
      </trkpt>
      <trkpt lat="46.64913" lon="5.81344">
        <ele>579</ele>
        <time>2025-10-08T14:00:18.750+00:00</time>
      </trkpt>
      <trkpt lat="46.64916" lon="5.81335">
        <ele>579</ele>
        <time>2025-10-08T14:00:23.469+00:00</time>
      </trkpt>
      <trkpt lat="46.64917" lon="5.81327">
        <ele>579</ele>
        <time>2025-10-08T14:00:27.750+00:00</time>
      </trkpt>
      <trkpt lat="46.64919" lon="5.81318">
        <ele>578</ele>
        <time>2025-10-08T14:00:32.218+00:00</time>
      </trkpt>
      <trkpt lat="46.64921" lon="5.81309">
        <ele>578</ele>
        <time>2025-10-08T14:00:36.651+00:00</time>
      </trkpt>
      <trkpt lat="46.64923" lon="5.81303">
        <ele>578</ele>
        <time>2025-10-08T14:00:40.750+00:00</time>
      </trkpt>
      <trkpt lat="46.64924" lon="5.81294">
        <ele>578</ele>
        <time>2025-10-08T14:00:45.074+00:00</time>
      </trkpt>
      <trkpt lat="46.64925" lon="5.81285">
        <ele>577</ele>
        <time>2025-10-08T14:00:49.494+00:00</time>
      </trkpt>
      <trkpt lat="46.64925" lon="5.81278">
        <ele>577</ele>
        <time>2025-10-08T14:00:53.751+00:00</time>
      </trkpt>
      <trkpt lat="46.64924" lon="5.81269">
        <ele>577</ele>
        <time>2025-10-08T14:00:58.273+00:00</time>
      </trkpt>
      <trkpt lat="46.64922" lon="5.8126">
        <ele>576</ele>
        <time>2025-10-08T14:01:02.736+00:00</time>
      </trkpt>
      <trkpt lat="46.64921" lon="5.81253">
        <ele>576</ele>
        <time>2025-10-08T14:01:06.750+00:00</time>
      </trkpt>
      <trkpt lat="46.64918" lon="5.81245">
        <ele>576</ele>
        <time>2025-10-08T14:01:11.728+00:00</time>
      </trkpt>
      <trkpt lat="46.64917" lon="5.81237">
        <ele>576</ele>
        <time>2025-10-08T14:01:16.216+00:00</time>
      </trkpt>
      <trkpt lat="46.64916" lon="5.81228">
        <ele>575</ele>
        <time>2025-10-08T14:01:20.552+00:00</time>
      </trkpt>
      <trkpt lat="46.64916" lon="5.8122">
        <ele>575</ele>
        <time>2025-10-08T14:01:24.751+00:00</time>
      </trkpt>
      <trkpt lat="46.64914" lon="5.81211">
        <ele>575</ele>
        <time>2025-10-08T14:01:29.315+00:00</time>
      </trkpt>
      <trkpt lat="46.64912" lon="5.81203">
        <ele>574</ele>
        <time>2025-10-08T14:01:33.511+00:00</time>
      </trkpt>
      <trkpt lat="46.64912" lon="5.81195">
        <ele>574</ele>
        <time>2025-10-08T14:01:37.751+00:00</time>
      </trkpt>
      <trkpt lat="46.64911" lon="5.81185">
        <ele>574</ele>
        <time>2025-10-08T14:01:42.454+00:00</time>
      </trkpt>
      <trkpt lat="46.64909" lon="5.81176">
        <ele>573</ele>
        <time>2025-10-08T14:01:47.435+00:00</time>
      </trkpt>
      <trkpt lat="46.64908" lon="5.81168">
        <ele>573</ele>
        <time>2025-10-08T14:01:51.634+00:00</time>
      </trkpt>
      <trkpt lat="46.64907" lon="5.81161">
        <ele>573</ele>
        <time>2025-10-08T14:01:55.668+00:00</time>
      </trkpt>
      <trkpt lat="46.64905" lon="5.81153">
        <ele>572</ele>
        <time>2025-10-08T14:01:59.909+00:00</time>
      </trkpt>
      <trkpt lat="46.64903" lon="5.81144">
        <ele>572</ele>
        <time>2025-10-08T14:02:04.236+00:00</time>
      </trkpt>
      <trkpt lat="46.649" lon="5.81136">
        <ele>572</ele>
        <time>2025-10-08T14:02:08.451+00:00</time>
      </trkpt>
      <trkpt lat="46.64898" lon="5.81128">
        <ele>572</ele>
        <time>2025-10-08T14:02:12.709+00:00</time>
      </trkpt>
      <trkpt lat="46.64898" lon="5.8112">
        <ele>571</ele>
        <time>2025-10-08T14:02:16.949+00:00</time>
      </trkpt>
      <trkpt lat="46.64897" lon="5.81111">
        <ele>571</ele>
        <time>2025-10-08T14:02:21.217+00:00</time>
      </trkpt>
      <trkpt lat="46.64897" lon="5.81102">
        <ele>571</ele>
        <time>2025-10-08T14:02:25.636+00:00</time>
      </trkpt>
      <trkpt lat="46.64898" lon="5.81095">
        <ele>571</ele>
        <time>2025-10-08T14:02:29.749+00:00</time>
      </trkpt>
      <trkpt lat="46.64901" lon="5.81087">
        <ele>571</ele>
        <time>2025-10-08T14:02:33.912+00:00</time>
      </trkpt>
      <trkpt lat="46.64904" lon="5.8108">
        <ele>572</ele>
        <time>2025-10-08T14:02:38.391+00:00</time>
      </trkpt>
      <trkpt lat="46.64908" lon="5.81073">
        <ele>572</ele>
        <time>2025-10-08T14:02:42.469+00:00</time>
      </trkpt>
      <trkpt lat="46.64912" lon="5.81068">
        <ele>571</ele>
        <time>2025-10-08T14:02:46.749+00:00</time>
      </trkpt>
      <trkpt lat="46.64916" lon="5.81062">
        <ele>571</ele>
        <time>2025-10-08T14:02:51.455+00:00</time>
      </trkpt>
      <trkpt lat="46.6492" lon="5.81056">
        <ele>571</ele>
        <time>2025-10-08T14:02:55.749+00:00</time>
      </trkpt>
      <trkpt lat="46.64925" lon="5.81049">
        <ele>571</ele>
        <time>2025-10-08T14:03:00.234+00:00</time>
      </trkpt>
      <trkpt lat="46.64928" lon="5.81043">
        <ele>571</ele>
        <time>2025-10-08T14:03:04.714+00:00</time>
      </trkpt>
      <trkpt lat="46.64931" lon="5.81036">
        <ele>571</ele>
        <time>2025-10-08T14:03:08.749+00:00</time>
      </trkpt>
      <trkpt lat="46.64933" lon="5.81029">
        <ele>571</ele>
        <time>2025-10-08T14:03:12.749+00:00</time>
      </trkpt>
      <trkpt lat="46.64934" lon="5.81019">
        <ele>571</ele>
        <time>2025-10-08T14:03:17.214+00:00</time>
      </trkpt>
      <trkpt lat="46.64936" lon="5.81011">
        <ele>570</ele>
        <time>2025-10-08T14:03:21.749+00:00</time>
      </trkpt>
      <trkpt lat="46.64937" lon="5.81003">
        <ele>570</ele>
        <time>2025-10-08T14:03:26.088+00:00</time>
      </trkpt>
      <trkpt lat="46.64939" lon="5.80995">
        <ele>570</ele>
        <time>2025-10-08T14:03:30.610+00:00</time>
      </trkpt>
      <trkpt lat="46.64941" lon="5.80988">
        <ele>570</ele>
        <time>2025-10-08T14:03:34.629+00:00</time>
      </trkpt>
      <trkpt lat="46.64943" lon="5.8098">
        <ele>569</ele>
        <time>2025-10-08T14:03:39.194+00:00</time>
      </trkpt>
      <trkpt lat="46.64945" lon="5.80972">
        <ele>569</ele>
        <time>2025-10-08T14:03:43.631+00:00</time>
      </trkpt>
      <trkpt lat="46.64946" lon="5.80963">
        <ele>569</ele>
        <time>2025-10-08T14:03:48.096+00:00</time>
      </trkpt>
      <trkpt lat="46.64948" lon="5.80955">
        <ele>569</ele>
        <time>2025-10-08T14:03:52.428+00:00</time>
      </trkpt>
      <trkpt lat="46.6495" lon="5.80947">
        <ele>569</ele>
        <time>2025-10-08T14:03:56.669+00:00</time>
      </trkpt>
      <trkpt lat="46.64952" lon="5.80939">
        <ele>569</ele>
        <time>2025-10-08T14:04:01.054+00:00</time>
      </trkpt>
      <trkpt lat="46.64953" lon="5.8093">
        <ele>569</ele>
        <time>2025-10-08T14:04:05.414+00:00</time>
      </trkpt>
      <trkpt lat="46.64954" lon="5.80922">
        <ele>569</ele>
        <time>2025-10-08T14:04:09.750+00:00</time>
      </trkpt>
      <trkpt lat="46.64954" lon="5.80914">
        <ele>569</ele>
        <time>2025-10-08T14:04:13.869+00:00</time>
      </trkpt>
      <trkpt lat="46.64953" lon="5.80907">
        <ele>569</ele>
        <time>2025-10-08T14:04:18.170+00:00</time>
      </trkpt>
      <trkpt lat="46.64953" lon="5.80899">
        <ele>570</ele>
        <time>2025-10-08T14:04:22.633+00:00</time>
      </trkpt>
      <trkpt lat="46.64953" lon="5.80891">
        <ele>570</ele>
        <time>2025-10-08T14:04:26.950+00:00</time>
      </trkpt>
      <trkpt lat="46.64952" lon="5.80882">
        <ele>570</ele>
        <time>2025-10-08T14:04:31.294+00:00</time>
      </trkpt>
      <trkpt lat="46.64952" lon="5.80874">
        <ele>570</ele>
        <time>2025-10-08T14:04:35.689+00:00</time>
      </trkpt>
      <trkpt lat="46.64951" lon="5.80866">
        <ele>570</ele>
        <time>2025-10-08T14:04:40.073+00:00</time>
      </trkpt>
      <trkpt lat="46.6495" lon="5.80858">
        <ele>570</ele>
        <time>2025-10-08T14:04:44.614+00:00</time>
      </trkpt>
      <trkpt lat="46.6495" lon="5.80849">
        <ele>570</ele>
        <time>2025-10-08T14:04:48.749+00:00</time>
      </trkpt>
      <trkpt lat="46.64951" lon="5.8084">
        <ele>570</ele>
        <time>2025-10-08T14:04:53.556+00:00</time>
      </trkpt>
      <trkpt lat="46.64952" lon="5.80832">
        <ele>570</ele>
        <time>2025-10-08T14:04:57.749+00:00</time>
      </trkpt>
      <trkpt lat="46.64952" lon="5.80823">
        <ele>570</ele>
        <time>2025-10-08T14:05:02.609+00:00</time>
      </trkpt>
      <trkpt lat="46.64953" lon="5.80816">
        <ele>570</ele>
        <time>2025-10-08T14:05:06.750+00:00</time>
      </trkpt>
      <trkpt lat="46.64954" lon="5.80809">
        <ele>570</ele>
        <time>2025-10-08T14:05:10.904+00:00</time>
      </trkpt>
      <trkpt lat="46.64955" lon="5.808">
        <ele>570</ele>
        <time>2025-10-08T14:05:15.749+00:00</time>
      </trkpt>
      <trkpt lat="46.64956" lon="5.80792">
        <ele>570</ele>
        <time>2025-10-08T14:05:19.843+00:00</time>
      </trkpt>
      <trkpt lat="46.64957" lon="5.80785">
        <ele>569</ele>
        <time>2025-10-08T14:05:23.934+00:00</time>
      </trkpt>
      <trkpt lat="46.64958" lon="5.80777">
        <ele>569</ele>
        <time>2025-10-08T14:05:28.614+00:00</time>
      </trkpt>
      <trkpt lat="46.6496" lon="5.8077">
        <ele>573</ele>
        <time>2025-10-08T14:05:32.749+00:00</time>
      </trkpt>
      <trkpt lat="46.64962" lon="5.80762">
        <ele>572</ele>
        <time>2025-10-08T14:05:37.677+00:00</time>
      </trkpt>
      <trkpt lat="46.64964" lon="5.80756">
        <ele>572</ele>
        <time>2025-10-08T14:05:41.874+00:00</time>
      </trkpt>
      <trkpt lat="46.64967" lon="5.80749">
        <ele>572</ele>
        <time>2025-10-08T14:05:46.251+00:00</time>
      </trkpt>
      <trkpt lat="46.64969" lon="5.80741">
        <ele>572</ele>
        <time>2025-10-08T14:05:50.749+00:00</time>
      </trkpt>
      <trkpt lat="46.64972" lon="5.80732">
        <ele>571</ele>
        <time>2025-10-08T14:05:55.749+00:00</time>
      </trkpt>
      <trkpt lat="46.64975" lon="5.80724">
        <ele>571</ele>
        <time>2025-10-08T14:06:00.389+00:00</time>
      </trkpt>
      <trkpt lat="46.64977" lon="5.80718">
        <ele>571</ele>
        <time>2025-10-08T14:06:04.749+00:00</time>
      </trkpt>
      <trkpt lat="46.6498" lon="5.80709">
        <ele>571</ele>
        <time>2025-10-08T14:06:09.152+00:00</time>
      </trkpt>
      <trkpt lat="46.64983" lon="5.80702">
        <ele>571</ele>
        <time>2025-10-08T14:06:13.529+00:00</time>
      </trkpt>
      <trkpt lat="46.64986" lon="5.80695">
        <ele>571</ele>
        <time>2025-10-08T14:06:17.749+00:00</time>
      </trkpt>
      <trkpt lat="46.64989" lon="5.80687">
        <ele>574</ele>
        <time>2025-10-08T14:06:22.308+00:00</time>
      </trkpt>
      <trkpt lat="46.64993" lon="5.80682">
        <ele>574</ele>
        <time>2025-10-08T14:06:26.687+00:00</time>
      </trkpt>
      <trkpt lat="46.64997" lon="5.80675">
        <ele>573</ele>
        <time>2025-10-08T14:06:30.750+00:00</time>
      </trkpt>
      <trkpt lat="46.65" lon="5.80667">
        <ele>573</ele>
        <time>2025-10-08T14:06:35.269+00:00</time>
      </trkpt>
      <trkpt lat="46.65003" lon="5.80659">
        <ele>573</ele>
        <time>2025-10-08T14:06:39.612+00:00</time>
      </trkpt>
      <trkpt lat="46.65006" lon="5.80653">
        <ele>572</ele>
        <time>2025-10-08T14:06:43.749+00:00</time>
      </trkpt>
      <trkpt lat="46.6501" lon="5.80646">
        <ele>572</ele>
        <time>2025-10-08T14:06:48.153+00:00</time>
      </trkpt>
      <trkpt lat="46.65013" lon="5.80639">
        <ele>572</ele>
        <time>2025-10-08T14:06:52.294+00:00</time>
      </trkpt>
      <trkpt lat="46.65018" lon="5.80632">
        <ele>572</ele>
        <time>2025-10-08T14:06:56.531+00:00</time>
      </trkpt>
      <trkpt lat="46.65021" lon="5.80625">
        <ele>572</ele>
        <time>2025-10-08T14:07:00.750+00:00</time>
      </trkpt>
      <trkpt lat="46.65026" lon="5.80618">
        <ele>570</ele>
        <time>2025-10-08T14:07:05.490+00:00</time>
      </trkpt>
      <trkpt lat="46.65031" lon="5.80612">
        <ele>570</ele>
        <time>2025-10-08T14:07:09.953+00:00</time>
      </trkpt>
      <trkpt lat="46.65036" lon="5.80606">
        <ele>570</ele>
        <time>2025-10-08T14:07:14.288+00:00</time>
      </trkpt>
      <trkpt lat="46.65041" lon="5.806">
        <ele>570</ele>
        <time>2025-10-08T14:07:18.690+00:00</time>
      </trkpt>
      <trkpt lat="46.65046" lon="5.80595">
        <ele>569</ele>
        <time>2025-10-08T14:07:22.990+00:00</time>
      </trkpt>
      <trkpt lat="46.6505" lon="5.8059">
        <ele>569</ele>
        <time>2025-10-08T14:07:27.273+00:00</time>
      </trkpt>
      <trkpt lat="46.65055" lon="5.80584">
        <ele>569</ele>
        <time>2025-10-08T14:07:31.292+00:00</time>
      </trkpt>
      <trkpt lat="46.6506" lon="5.80578">
        <ele>569</ele>
        <time>2025-10-08T14:07:35.627+00:00</time>
      </trkpt>
      <trkpt lat="46.65064" lon="5.80573">
        <ele>569</ele>
        <time>2025-10-08T14:07:39.749+00:00</time>
      </trkpt>
      <trkpt lat="46.65069" lon="5.80567">
        <ele>569</ele>
        <time>2025-10-08T14:07:44.209+00:00</time>
      </trkpt>
      <trkpt lat="46.65074" lon="5.80562">
        <ele>570</ele>
        <time>2025-10-08T14:07:48.492+00:00</time>
      </trkpt>
      <trkpt lat="46.65079" lon="5.80557">
        <ele>570</ele>
        <time>2025-10-08T14:07:52.749+00:00</time>
      </trkpt>
      <trkpt lat="46.65084" lon="5.80551">
        <ele>570</ele>
        <time>2025-10-08T14:07:57.128+00:00</time>
      </trkpt>
      <trkpt lat="46.65089" lon="5.80545">
        <ele>570</ele>
        <time>2025-10-08T14:08:01.411+00:00</time>
      </trkpt>
      <trkpt lat="46.65093" lon="5.8054">
        <ele>571</ele>
        <time>2025-10-08T14:08:05.651+00:00</time>
      </trkpt>
      <trkpt lat="46.65097" lon="5.80533">
        <ele>571</ele>
        <time>2025-10-08T14:08:09.749+00:00</time>
      </trkpt>
      <trkpt lat="46.65101" lon="5.80526">
        <ele>571</ele>
        <time>2025-10-08T14:08:14.388+00:00</time>
      </trkpt>
      <trkpt lat="46.65104" lon="5.80518">
        <ele>571</ele>
        <time>2025-10-08T14:08:18.647+00:00</time>
      </trkpt>
      <trkpt lat="46.65106" lon="5.8051">
        <ele>572</ele>
        <time>2025-10-08T14:08:22.749+00:00</time>
      </trkpt>
      <trkpt lat="46.65108" lon="5.80501">
        <ele>572</ele>
        <time>2025-10-08T14:08:27.367+00:00</time>
      </trkpt>
      <trkpt lat="46.6511" lon="5.80493">
        <ele>572</ele>
        <time>2025-10-08T14:08:31.649+00:00</time>
      </trkpt>
      <trkpt lat="46.65113" lon="5.80485">
        <ele>575</ele>
        <time>2025-10-08T14:08:36.249+00:00</time>
      </trkpt>
      <trkpt lat="46.65116" lon="5.80479">
        <ele>575</ele>
        <time>2025-10-08T14:08:40.531+00:00</time>
      </trkpt>
      <trkpt lat="46.65119" lon="5.80474">
        <ele>575</ele>
        <time>2025-10-08T14:08:44.750+00:00</time>
      </trkpt>
      <trkpt lat="46.65122" lon="5.80469">
        <ele>575</ele>
        <time>2025-10-08T14:08:49.310+00:00</time>
      </trkpt>
      <trkpt lat="46.65126" lon="5.80463">
        <ele>574</ele>
        <time>2025-10-08T14:08:53.749+00:00</time>
      </trkpt>
      <trkpt lat="46.6513" lon="5.80458">
        <ele>576</ele>
        <time>2025-10-08T14:08:57.894+00:00</time>
      </trkpt>
      <trkpt lat="46.65134" lon="5.80452">
        <ele>576</ele>
        <time>2025-10-08T14:09:02.433+00:00</time>
      </trkpt>
      <trkpt lat="46.65136" lon="5.80447">
        <ele>576</ele>
        <time>2025-10-08T14:09:06.452+00:00</time>
      </trkpt>
      <trkpt lat="46.65138" lon="5.8044">
        <ele>576</ele>
        <time>2025-10-08T14:09:10.990+00:00</time>
      </trkpt>
      <trkpt lat="46.6514" lon="5.80433">
        <ele>576</ele>
        <time>2025-10-08T14:09:15.668+00:00</time>
      </trkpt>
      <trkpt lat="46.65142" lon="5.80427">
        <ele>579</ele>
        <time>2025-10-08T14:09:20.171+00:00</time>
      </trkpt>
      <trkpt lat="46.65144" lon="5.80422">
        <ele>579</ele>
        <time>2025-10-08T14:09:24.292+00:00</time>
      </trkpt>
      <trkpt lat="46.65146" lon="5.80416">
        <ele>579</ele>
        <time>2025-10-08T14:09:28.628+00:00</time>
      </trkpt>
      <trkpt lat="46.65148" lon="5.8041">
        <ele>579</ele>
        <time>2025-10-08T14:09:32.690+00:00</time>
      </trkpt>
      <trkpt lat="46.65148" lon="5.80404">
        <ele>579</ele>
        <time>2025-10-08T14:09:36.750+00:00</time>
      </trkpt>
      <trkpt lat="46.65148" lon="5.80396">
        <ele>581</ele>
        <time>2025-10-08T14:09:41.408+00:00</time>
      </trkpt>
      <trkpt lat="46.65147" lon="5.80389">
        <ele>581</ele>
        <time>2025-10-08T14:09:45.633+00:00</time>
      </trkpt>
      <trkpt lat="46.65145" lon="5.80388">
        <ele>581</ele>
        <time>2025-10-08T14:09:49.752+00:00</time>
      </trkpt>
      <trkpt lat="46.65147" lon="5.8038">
        <ele>581</ele>
        <time>2025-10-08T14:09:54.307+00:00</time>
      </trkpt>
      <trkpt lat="46.65149" lon="5.80373">
        <ele>582</ele>
        <time>2025-10-08T14:09:58.625+00:00</time>
      </trkpt>
      <trkpt lat="46.65151" lon="5.80368">
        <ele>582</ele>
        <time>2025-10-08T14:10:02.749+00:00</time>
      </trkpt>
      <trkpt lat="46.65153" lon="5.80362">
        <ele>582</ele>
        <time>2025-10-08T14:10:07.550+00:00</time>
      </trkpt>
      <trkpt lat="46.65156" lon="5.80356">
        <ele>582</ele>
        <time>2025-10-08T14:10:11.698+00:00</time>
      </trkpt>
      <trkpt lat="46.6516" lon="5.80349">
        <ele>582</ele>
        <time>2025-10-08T14:10:16.227+00:00</time>
      </trkpt>
      <trkpt lat="46.65164" lon="5.80343">
        <ele>583</ele>
        <time>2025-10-08T14:10:20.468+00:00</time>
      </trkpt>
      <trkpt lat="46.65168" lon="5.80337">
        <ele>583</ele>
        <time>2025-10-08T14:10:24.749+00:00</time>
      </trkpt>
      <trkpt lat="46.65173" lon="5.80333">
        <ele>583</ele>
        <time>2025-10-08T14:10:29.171+00:00</time>
      </trkpt>
      <trkpt lat="46.65178" lon="5.8033">
        <ele>583</ele>
        <time>2025-10-08T14:10:33.207+00:00</time>
      </trkpt>
      <trkpt lat="46.65183" lon="5.8033">
        <ele>583</ele>
        <time>2025-10-08T14:10:37.209+00:00</time>
      </trkpt>
      <trkpt lat="46.65189" lon="5.80333">
        <ele>583</ele>
        <time>2025-10-08T14:10:41.749+00:00</time>
      </trkpt>
      <trkpt lat="46.65195" lon="5.80336">
        <ele>583</ele>
        <time>2025-10-08T14:10:46.252+00:00</time>
      </trkpt>
      <trkpt lat="46.652" lon="5.80338">
        <ele>583</ele>
        <time>2025-10-08T14:10:50.587+00:00</time>
      </trkpt>
      <trkpt lat="46.65206" lon="5.8034">
        <ele>583</ele>
        <time>2025-10-08T14:10:54.748+00:00</time>
      </trkpt>
      <trkpt lat="46.65212" lon="5.80342">
        <ele>585</ele>
        <time>2025-10-08T14:10:59.306+00:00</time>
      </trkpt>
      <trkpt lat="46.65218" lon="5.80343">
        <ele>585</ele>
        <time>2025-10-08T14:11:03.666+00:00</time>
      </trkpt>
      <trkpt lat="46.65224" lon="5.80346">
        <ele>585</ele>
        <time>2025-10-08T14:11:08.111+00:00</time>
      </trkpt>
      <trkpt lat="46.65229" lon="5.80348">
        <ele>585</ele>
        <time>2025-10-08T14:11:12.592+00:00</time>
      </trkpt>
      <trkpt lat="46.65235" lon="5.80351">
        <ele>585</ele>
        <time>2025-10-08T14:11:17.053+00:00</time>
      </trkpt>
      <trkpt lat="46.65241" lon="5.80353">
        <ele>586</ele>
        <time>2025-10-08T14:11:21.749+00:00</time>
      </trkpt>
      <trkpt lat="46.65246" lon="5.80357">
        <ele>586</ele>
        <time>2025-10-08T14:11:26.293+00:00</time>
      </trkpt>
      <trkpt lat="46.65251" lon="5.80361">
        <ele>586</ele>
        <time>2025-10-08T14:11:30.296+00:00</time>
      </trkpt>
      <trkpt lat="46.65256" lon="5.80365">
        <ele>586</ele>
        <time>2025-10-08T14:11:34.674+00:00</time>
      </trkpt>
      <trkpt lat="46.65261" lon="5.80369">
        <ele>586</ele>
        <time>2025-10-08T14:11:39.032+00:00</time>
      </trkpt>
      <trkpt lat="46.65266" lon="5.80373">
        <ele>587</ele>
        <time>2025-10-08T14:11:43.451+00:00</time>
      </trkpt>
      <trkpt lat="46.65271" lon="5.80374">
        <ele>587</ele>
        <time>2025-10-08T14:11:47.752+00:00</time>
      </trkpt>
      <trkpt lat="46.65277" lon="5.80371">
        <ele>587</ele>
        <time>2025-10-08T14:11:52.453+00:00</time>
      </trkpt>
      <trkpt lat="46.65282" lon="5.80365">
        <ele>587</ele>
        <time>2025-10-08T14:11:56.748+00:00</time>
      </trkpt>
      <trkpt lat="46.65285" lon="5.80358">
        <ele>587</ele>
        <time>2025-10-08T14:12:00.959+00:00</time>
      </trkpt>
      <trkpt lat="46.65288" lon="5.80351">
        <ele>587</ele>
        <time>2025-10-08T14:12:05.472+00:00</time>
      </trkpt>
      <trkpt lat="46.65292" lon="5.80342">
        <ele>586</ele>
        <time>2025-10-08T14:12:10.447+00:00</time>
      </trkpt>
      <trkpt lat="46.65295" lon="5.80336">
        <ele>586</ele>
        <time>2025-10-08T14:12:14.749+00:00</time>
      </trkpt>
      <trkpt lat="46.65299" lon="5.80328">
        <ele>586</ele>
        <time>2025-10-08T14:12:19.346+00:00</time>
      </trkpt>
      <trkpt lat="46.65302" lon="5.80322">
        <ele>586</ele>
        <time>2025-10-08T14:12:23.671+00:00</time>
      </trkpt>
      <trkpt lat="46.65305" lon="5.80314">
        <ele>586</ele>
        <time>2025-10-08T14:12:27.748+00:00</time>
      </trkpt>
      <trkpt lat="46.65309" lon="5.80307">
        <ele>586</ele>
        <time>2025-10-08T14:12:32.332+00:00</time>
      </trkpt>
      <trkpt lat="46.65313" lon="5.80301">
        <ele>586</ele>
        <time>2025-10-08T14:12:36.711+00:00</time>
      </trkpt>
      <trkpt lat="46.65316" lon="5.80294">
        <ele>586</ele>
        <time>2025-10-08T14:12:40.748+00:00</time>
      </trkpt>
      <trkpt lat="46.6532" lon="5.80286">
        <ele>587</ele>
        <time>2025-10-08T14:12:45.351+00:00</time>
      </trkpt>
      <trkpt lat="46.65323" lon="5.80279">
        <ele>587</ele>
        <time>2025-10-08T14:12:49.668+00:00</time>
      </trkpt>
      <trkpt lat="46.65326" lon="5.80271">
        <ele>587</ele>
        <time>2025-10-08T14:12:54.028+00:00</time>
      </trkpt>
      <trkpt lat="46.6533" lon="5.80264">
        <ele>587</ele>
        <time>2025-10-08T14:12:58.749+00:00</time>
      </trkpt>
      <trkpt lat="46.65334" lon="5.80257">
        <ele>588</ele>
        <time>2025-10-08T14:13:03.356+00:00</time>
      </trkpt>
      <trkpt lat="46.65338" lon="5.80249">
        <ele>588</ele>
        <time>2025-10-08T14:13:08.413+00:00</time>
      </trkpt>
      <trkpt lat="46.6534" lon="5.80242">
        <ele>588</ele>
        <time>2025-10-08T14:13:12.748+00:00</time>
      </trkpt>
      <trkpt lat="46.65343" lon="5.80233">
        <ele>589</ele>
        <time>2025-10-08T14:13:17.210+00:00</time>
      </trkpt>
      <trkpt lat="46.65345" lon="5.80226">
        <ele>589</ele>
        <time>2025-10-08T14:13:21.749+00:00</time>
      </trkpt>
      <trkpt lat="46.65348" lon="5.80219">
        <ele>590</ele>
        <time>2025-10-08T14:13:25.749+00:00</time>
      </trkpt>
      <trkpt lat="46.65351" lon="5.80211">
        <ele>590</ele>
        <time>2025-10-08T14:13:30.391+00:00</time>
      </trkpt>
      <trkpt lat="46.65354" lon="5.80204">
        <ele>591</ele>
        <time>2025-10-08T14:13:34.749+00:00</time>
      </trkpt>
      <trkpt lat="46.65356" lon="5.80196">
        <ele>591</ele>
        <time>2025-10-08T14:13:39.155+00:00</time>
      </trkpt>
      <trkpt lat="46.65358" lon="5.8019">
        <ele>591</ele>
        <time>2025-10-08T14:13:43.268+00:00</time>
      </trkpt>
      <trkpt lat="46.65358" lon="5.80187">
        <ele>591</ele>
        <time>2025-10-08T14:13:47.609+00:00</time>
      </trkpt>
      <trkpt lat="46.65362" lon="5.80179">
        <ele>592</ele>
        <time>2025-10-08T14:13:52.115+00:00</time>
      </trkpt>
      <trkpt lat="46.65366" lon="5.80173">
        <ele>592</ele>
        <time>2025-10-08T14:13:56.491+00:00</time>
      </trkpt>
      <trkpt lat="46.65368" lon="5.80165">
        <ele>592</ele>
        <time>2025-10-08T14:14:01.013+00:00</time>
      </trkpt>
      <trkpt lat="46.65375" lon="5.80149">
        <ele>592</ele>
        <time>2025-10-08T14:20:12.748+00:00</time>
      </trkpt>
      <trkpt lat="46.65375" lon="5.80149">
        <ele>592</ele>
        <time>2025-10-08T14:20:17.748+00:00</time>
      </trkpt>
      <trkpt lat="46.65377" lon="5.80148">
        <ele>592</ele>
        <time>2025-10-08T14:20:22.754+00:00</time>
      </trkpt>
      <trkpt lat="46.65381" lon="5.80144">
        <ele>592</ele>
        <time>2025-10-08T14:20:26.968+00:00</time>
      </trkpt>
      <trkpt lat="46.65381" lon="5.80142">
        <ele>592</ele>
        <time>2025-10-08T14:20:31.559+00:00</time>
      </trkpt>
      <trkpt lat="46.65382" lon="5.80142">
        <ele>592</ele>
        <time>2025-10-08T14:20:35.747+00:00</time>
      </trkpt>
      <trkpt lat="46.65386" lon="5.80135">
        <ele>592</ele>
        <time>2025-10-08T14:20:40.244+00:00</time>
      </trkpt>
      <trkpt lat="46.65389" lon="5.80129">
        <ele>592</ele>
        <time>2025-10-08T14:20:44.747+00:00</time>
      </trkpt>
      <trkpt lat="46.65392" lon="5.80124">
        <ele>593</ele>
        <time>2025-10-08T14:20:49.346+00:00</time>
      </trkpt>
      <trkpt lat="46.65394" lon="5.8012">
        <ele>593</ele>
        <time>2025-10-08T14:20:53.366+00:00</time>
      </trkpt>
      <trkpt lat="46.65397" lon="5.80114">
        <ele>593</ele>
        <time>2025-10-08T14:20:57.748+00:00</time>
      </trkpt>
      <trkpt lat="46.654" lon="5.80108">
        <ele>593</ele>
        <time>2025-10-08T14:21:02.306+00:00</time>
      </trkpt>
      <trkpt lat="46.65402" lon="5.80102">
        <ele>593</ele>
        <time>2025-10-08T14:21:06.428+00:00</time>
      </trkpt>
      <trkpt lat="46.65406" lon="5.80094">
        <ele>595</ele>
        <time>2025-10-08T14:21:11.521+00:00</time>
      </trkpt>
      <trkpt lat="46.65409" lon="5.80088">
        <ele>595</ele>
        <time>2025-10-08T14:21:15.923+00:00</time>
      </trkpt>
      <trkpt lat="46.65412" lon="5.80081">
        <ele>595</ele>
        <time>2025-10-08T14:21:20.384+00:00</time>
      </trkpt>
      <trkpt lat="46.65411" lon="5.80077">
        <ele>595</ele>
        <time>2025-10-08T14:21:24.669+00:00</time>
      </trkpt>
      <trkpt lat="46.65414" lon="5.8007">
        <ele>595</ele>
        <time>2025-10-08T14:21:29.433+00:00</time>
      </trkpt>
      <trkpt lat="46.65417" lon="5.80064">
        <ele>595</ele>
        <time>2025-10-08T14:21:33.732+00:00</time>
      </trkpt>
      <trkpt lat="46.65421" lon="5.80057">
        <ele>595</ele>
        <time>2025-10-08T14:21:37.747+00:00</time>
      </trkpt>
      <trkpt lat="46.65426" lon="5.8005">
        <ele>595</ele>
        <time>2025-10-08T14:21:42.227+00:00</time>
      </trkpt>
      <trkpt lat="46.65429" lon="5.80044">
        <ele>595</ele>
        <time>2025-10-08T14:21:46.261+00:00</time>
      </trkpt>
      <trkpt lat="46.65432" lon="5.80037">
        <ele>595</ele>
        <time>2025-10-08T14:21:50.527+00:00</time>
      </trkpt>
      <trkpt lat="46.65435" lon="5.80031">
        <ele>595</ele>
        <time>2025-10-08T14:21:54.747+00:00</time>
      </trkpt>
      <trkpt lat="46.65439" lon="5.80023">
        <ele>595</ele>
        <time>2025-10-08T14:21:59.623+00:00</time>
      </trkpt>
      <trkpt lat="46.65442" lon="5.80016">
        <ele>595</ele>
        <time>2025-10-08T14:22:04.008+00:00</time>
      </trkpt>
      <trkpt lat="46.65445" lon="5.8001">
        <ele>595</ele>
        <time>2025-10-08T14:22:08.206+00:00</time>
      </trkpt>
      <trkpt lat="46.65448" lon="5.80003">
        <ele>595</ele>
        <time>2025-10-08T14:22:12.311+00:00</time>
      </trkpt>
      <trkpt lat="46.65451" lon="5.79997">
        <ele>595</ele>
        <time>2025-10-08T14:22:16.361+00:00</time>
      </trkpt>
      <trkpt lat="46.65454" lon="5.79991">
        <ele>595</ele>
        <time>2025-10-08T14:22:20.567+00:00</time>
      </trkpt>
      <trkpt lat="46.65457" lon="5.79985">
        <ele>596</ele>
        <time>2025-10-08T14:22:24.748+00:00</time>
      </trkpt>
      <trkpt lat="46.6546" lon="5.79979">
        <ele>595</ele>
        <time>2025-10-08T14:22:29.346+00:00</time>
      </trkpt>
      <trkpt lat="46.65463" lon="5.79974">
        <ele>595</ele>
        <time>2025-10-08T14:22:33.604+00:00</time>
      </trkpt>
      <trkpt lat="46.65465" lon="5.79968">
        <ele>595</ele>
        <time>2025-10-08T14:22:37.682+00:00</time>
      </trkpt>
      <trkpt lat="46.65467" lon="5.79963">
        <ele>595</ele>
        <time>2025-10-08T14:22:41.748+00:00</time>
      </trkpt>
      <trkpt lat="46.6547" lon="5.79957">
        <ele>596</ele>
        <time>2025-10-08T14:22:46.591+00:00</time>
      </trkpt>
      <trkpt lat="46.65472" lon="5.79951">
        <ele>596</ele>
        <time>2025-10-08T14:22:50.747+00:00</time>
      </trkpt>
      <trkpt lat="46.65474" lon="5.79948">
        <ele>596</ele>
        <time>2025-10-08T14:22:55.607+00:00</time>
      </trkpt>
      <trkpt lat="46.65478" lon="5.7994">
        <ele>596</ele>
        <time>2025-10-08T14:23:00.130+00:00</time>
      </trkpt>
      <trkpt lat="46.65481" lon="5.79934">
        <ele>596</ele>
        <time>2025-10-08T14:23:04.326+00:00</time>
      </trkpt>
      <trkpt lat="46.65484" lon="5.79928">
        <ele>596</ele>
        <time>2025-10-08T14:23:08.686+00:00</time>
      </trkpt>
      <trkpt lat="46.65488" lon="5.79921">
        <ele>594</ele>
        <time>2025-10-08T14:23:13.267+00:00</time>
      </trkpt>
      <trkpt lat="46.6549" lon="5.79916">
        <ele>594</ele>
        <time>2025-10-08T14:23:17.464+00:00</time>
      </trkpt>
      <trkpt lat="46.65493" lon="5.79911">
        <ele>594</ele>
        <time>2025-10-08T14:23:21.543+00:00</time>
      </trkpt>
      <trkpt lat="46.65496" lon="5.79906">
        <ele>594</ele>
        <time>2025-10-08T14:23:26.167+00:00</time>
      </trkpt>
      <trkpt lat="46.655" lon="5.799">
        <ele>595</ele>
        <time>2025-10-08T14:23:30.705+00:00</time>
      </trkpt>
      <trkpt lat="46.65503" lon="5.79894">
        <ele>595</ele>
        <time>2025-10-08T14:23:35.347+00:00</time>
      </trkpt>
      <trkpt lat="46.65506" lon="5.79889">
        <ele>595</ele>
        <time>2025-10-08T14:23:39.747+00:00</time>
      </trkpt>
      <trkpt lat="46.65509" lon="5.79883">
        <ele>595</ele>
        <time>2025-10-08T14:23:44.467+00:00</time>
      </trkpt>
      <trkpt lat="46.65512" lon="5.79876">
        <ele>595</ele>
        <time>2025-10-08T14:23:48.748+00:00</time>
      </trkpt>
      <trkpt lat="46.65514" lon="5.7987">
        <ele>594</ele>
        <time>2025-10-08T14:23:53.024+00:00</time>
      </trkpt>
      <trkpt lat="46.65518" lon="5.79865">
        <ele>594</ele>
        <time>2025-10-08T14:23:57.401+00:00</time>
      </trkpt>
      <trkpt lat="46.65521" lon="5.79859">
        <ele>594</ele>
        <time>2025-10-08T14:24:01.747+00:00</time>
      </trkpt>
      <trkpt lat="46.65525" lon="5.79851">
        <ele>594</ele>
        <time>2025-10-08T14:24:06.748+00:00</time>
      </trkpt>
      <trkpt lat="46.65528" lon="5.79845">
        <ele>594</ele>
        <time>2025-10-08T14:24:10.864+00:00</time>
      </trkpt>
      <trkpt lat="46.65531" lon="5.79839">
        <ele>594</ele>
        <time>2025-10-08T14:24:14.970+00:00</time>
      </trkpt>
      <trkpt lat="46.65535" lon="5.79833">
        <ele>594</ele>
        <time>2025-10-08T14:24:19.541+00:00</time>
      </trkpt>
      <trkpt lat="46.65538" lon="5.79826">
        <ele>594</ele>
        <time>2025-10-08T14:24:24.286+00:00</time>
      </trkpt>
      <trkpt lat="46.65541" lon="5.7982">
        <ele>594</ele>
        <time>2025-10-08T14:24:28.747+00:00</time>
      </trkpt>
      <trkpt lat="46.65544" lon="5.79813">
        <ele>592</ele>
        <time>2025-10-08T14:24:33.747+00:00</time>
      </trkpt>
      <trkpt lat="46.65547" lon="5.79806">
        <ele>592</ele>
        <time>2025-10-08T14:24:38.721+00:00</time>
      </trkpt>
      <trkpt lat="46.65551" lon="5.79799">
        <ele>592</ele>
        <time>2025-10-08T14:24:43.543+00:00</time>
      </trkpt>
      <trkpt lat="46.65554" lon="5.79793">
        <ele>592</ele>
        <time>2025-10-08T14:24:47.747+00:00</time>
      </trkpt>
      <trkpt lat="46.65557" lon="5.79788">
        <ele>591</ele>
        <time>2025-10-08T14:24:51.747+00:00</time>
      </trkpt>
      <trkpt lat="46.6556" lon="5.79783">
        <ele>591</ele>
        <time>2025-10-08T14:24:56.186+00:00</time>
      </trkpt>
      <trkpt lat="46.65563" lon="5.79778">
        <ele>591</ele>
        <time>2025-10-08T14:25:00.747+00:00</time>
      </trkpt>
      <trkpt lat="46.65566" lon="5.79771">
        <ele>591</ele>
        <time>2025-10-08T14:25:05.747+00:00</time>
      </trkpt>
      <trkpt lat="46.65569" lon="5.79764">
        <ele>590</ele>
        <time>2025-10-08T14:25:10.604+00:00</time>
      </trkpt>
      <trkpt lat="46.65571" lon="5.79758">
        <ele>589</ele>
        <time>2025-10-08T14:25:14.682+00:00</time>
      </trkpt>
      <trkpt lat="46.65574" lon="5.79752">
        <ele>589</ele>
        <time>2025-10-08T14:25:18.748+00:00</time>
      </trkpt>
      <trkpt lat="46.65575" lon="5.79746">
        <ele>589</ele>
        <time>2025-10-08T14:25:22.821+00:00</time>
      </trkpt>
      <trkpt lat="46.65577" lon="5.79739">
        <ele>589</ele>
        <time>2025-10-08T14:25:26.968+00:00</time>
      </trkpt>
      <trkpt lat="46.65579" lon="5.79732">
        <ele>588</ele>
        <time>2025-10-08T14:25:31.611+00:00</time>
      </trkpt>
      <trkpt lat="46.65581" lon="5.79723">
        <ele>588</ele>
        <time>2025-10-08T14:25:36.224+00:00</time>
      </trkpt>
      <trkpt lat="46.65583" lon="5.79716">
        <ele>588</ele>
        <time>2025-10-08T14:25:40.644+00:00</time>
      </trkpt>
      <trkpt lat="46.65585" lon="5.79707">
        <ele>587</ele>
        <time>2025-10-08T14:25:45.166+00:00</time>
      </trkpt>
      <trkpt lat="46.65587" lon="5.797">
        <ele>587</ele>
        <time>2025-10-08T14:25:49.603+00:00</time>
      </trkpt>
      <trkpt lat="46.65589" lon="5.79692">
        <ele>587</ele>
        <time>2025-10-08T14:25:53.747+00:00</time>
      </trkpt>
      <trkpt lat="46.65591" lon="5.79683">
        <ele>587</ele>
        <time>2025-10-08T14:25:58.381+00:00</time>
      </trkpt>
      <trkpt lat="46.65594" lon="5.79675">
        <ele>585</ele>
        <time>2025-10-08T14:26:02.748+00:00</time>
      </trkpt>
      <trkpt lat="46.65596" lon="5.79667">
        <ele>585</ele>
        <time>2025-10-08T14:26:07.705+00:00</time>
      </trkpt>
      <trkpt lat="46.65596" lon="5.79659">
        <ele>585</ele>
        <time>2025-10-08T14:26:11.747+00:00</time>
      </trkpt>
      <trkpt lat="46.65598" lon="5.79653">
        <ele>585</ele>
        <time>2025-10-08T14:26:15.306+00:00</time>
      </trkpt>
      <trkpt lat="46.656" lon="5.79641">
        <ele>584</ele>
        <time>2025-10-08T14:26:22.025+00:00</time>
      </trkpt>
      <trkpt lat="46.65602" lon="5.79633">
        <ele>584</ele>
        <time>2025-10-08T14:26:26.028+00:00</time>
      </trkpt>
      <trkpt lat="46.65604" lon="5.79625">
        <ele>584</ele>
        <time>2025-10-08T14:26:30.524+00:00</time>
      </trkpt>
      <trkpt lat="46.65606" lon="5.79618">
        <ele>583</ele>
        <time>2025-10-08T14:26:34.544+00:00</time>
      </trkpt>
      <trkpt lat="46.65607" lon="5.7961">
        <ele>583</ele>
        <time>2025-10-08T14:26:38.987+00:00</time>
      </trkpt>
      <trkpt lat="46.65609" lon="5.796">
        <ele>583</ele>
        <time>2025-10-08T14:26:43.747+00:00</time>
      </trkpt>
      <trkpt lat="46.6561" lon="5.79593">
        <ele>583</ele>
        <time>2025-10-08T14:26:48.169+00:00</time>
      </trkpt>
      <trkpt lat="46.65612" lon="5.79586">
        <ele>583</ele>
        <time>2025-10-08T14:26:52.245+00:00</time>
      </trkpt>
      <trkpt lat="46.65613" lon="5.79579">
        <ele>583</ele>
        <time>2025-10-08T14:26:56.247+00:00</time>
      </trkpt>
      <trkpt lat="46.65615" lon="5.79571">
        <ele>583</ele>
        <time>2025-10-08T14:27:00.747+00:00</time>
      </trkpt>
      <trkpt lat="46.65617" lon="5.79563">
        <ele>583</ele>
        <time>2025-10-08T14:27:05.462+00:00</time>
      </trkpt>
      <trkpt lat="46.6562" lon="5.79556">
        <ele>583</ele>
        <time>2025-10-08T14:27:09.747+00:00</time>
      </trkpt>
      <trkpt lat="46.65621" lon="5.79548">
        <ele>583</ele>
        <time>2025-10-08T14:27:13.921+00:00</time>
      </trkpt>
      <trkpt lat="46.65623" lon="5.7954">
        <ele>584</ele>
        <time>2025-10-08T14:27:18.428+00:00</time>
      </trkpt>
      <trkpt lat="46.65625" lon="5.79533">
        <ele>584</ele>
        <time>2025-10-08T14:27:22.581+00:00</time>
      </trkpt>
      <trkpt lat="46.65628" lon="5.79526">
        <ele>584</ele>
        <time>2025-10-08T14:27:27.129+00:00</time>
      </trkpt>
      <trkpt lat="46.65632" lon="5.79521">
        <ele>584</ele>
        <time>2025-10-08T14:27:31.182+00:00</time>
      </trkpt>
      <trkpt lat="46.65637" lon="5.79518">
        <ele>584</ele>
        <time>2025-10-08T14:27:35.747+00:00</time>
      </trkpt>
      <trkpt lat="46.6564" lon="5.7951">
        <ele>585</ele>
        <time>2025-10-08T14:27:40.449+00:00</time>
      </trkpt>
      <trkpt lat="46.65639" lon="5.79501">
        <ele>585</ele>
        <time>2025-10-08T14:27:44.748+00:00</time>
      </trkpt>
      <trkpt lat="46.65639" lon="5.79493">
        <ele>585</ele>
        <time>2025-10-08T14:27:48.936+00:00</time>
      </trkpt>
      <trkpt lat="46.65639" lon="5.79484">
        <ele>584</ele>
        <time>2025-10-08T14:27:53.748+00:00</time>
      </trkpt>
      <trkpt lat="46.65639" lon="5.79476">
        <ele>584</ele>
        <time>2025-10-08T14:27:58.525+00:00</time>
      </trkpt>
      <trkpt lat="46.65638" lon="5.79469">
        <ele>584</ele>
        <time>2025-10-08T14:28:02.747+00:00</time>
      </trkpt>
      <trkpt lat="46.65641" lon="5.79463">
        <ele>584</ele>
        <time>2025-10-08T14:28:07.382+00:00</time>
      </trkpt>
      <trkpt lat="46.65645" lon="5.79457">
        <ele>584</ele>
        <time>2025-10-08T14:28:11.747+00:00</time>
      </trkpt>
      <trkpt lat="46.65645" lon="5.79445">
        <ele>584</ele>
        <time>2025-10-08T14:28:26.747+00:00</time>
      </trkpt>
      <trkpt lat="46.65644" lon="5.79445">
        <ele>584</ele>
        <time>2025-10-08T14:28:32.688+00:00</time>
      </trkpt>
      <trkpt lat="46.65641" lon="5.7944">
        <ele>584</ele>
        <time>2025-10-08T14:28:36.749+00:00</time>
      </trkpt>
      <trkpt lat="46.65643" lon="5.79429">
        <ele>584</ele>
        <time>2025-10-08T14:28:41.245+00:00</time>
      </trkpt>
      <trkpt lat="46.65647" lon="5.79423">
        <ele>584</ele>
        <time>2025-10-08T14:28:45.484+00:00</time>
      </trkpt>
      <trkpt lat="46.65652" lon="5.79421">
        <ele>584</ele>
        <time>2025-10-08T14:28:49.529+00:00</time>
      </trkpt>
      <trkpt lat="46.65659" lon="5.7942">
        <ele>584</ele>
        <time>2025-10-08T14:28:53.949+00:00</time>
      </trkpt>
      <trkpt lat="46.65665" lon="5.7942">
        <ele>584</ele>
        <time>2025-10-08T14:28:58.748+00:00</time>
      </trkpt>
      <trkpt lat="46.65669" lon="5.79415">
        <ele>584</ele>
        <time>2025-10-08T14:29:03.206+00:00</time>
      </trkpt>
      <trkpt lat="46.65672" lon="5.79407">
        <ele>584</ele>
        <time>2025-10-08T14:29:07.329+00:00</time>
      </trkpt>
      <trkpt lat="46.65675" lon="5.794">
        <ele>583</ele>
        <time>2025-10-08T14:29:11.747+00:00</time>
      </trkpt>
      <trkpt lat="46.65678" lon="5.79392">
        <ele>583</ele>
        <time>2025-10-08T14:29:16.175+00:00</time>
      </trkpt>
      <trkpt lat="46.65681" lon="5.79385">
        <ele>585</ele>
        <time>2025-10-08T14:29:20.747+00:00</time>
      </trkpt>
      <trkpt lat="46.65684" lon="5.79378">
        <ele>585</ele>
        <time>2025-10-08T14:29:25.311+00:00</time>
      </trkpt>
      <trkpt lat="46.65687" lon="5.79371">
        <ele>584</ele>
        <time>2025-10-08T14:29:29.747+00:00</time>
      </trkpt>
      <trkpt lat="46.6569" lon="5.79365">
        <ele>584</ele>
        <time>2025-10-08T14:29:33.955+00:00</time>
      </trkpt>
      <trkpt lat="46.65694" lon="5.79358">
        <ele>584</ele>
        <time>2025-10-08T14:29:38.747+00:00</time>
      </trkpt>
      <trkpt lat="46.65697" lon="5.79351">
        <ele>584</ele>
        <time>2025-10-08T14:29:43.135+00:00</time>
      </trkpt>
      <trkpt lat="46.65699" lon="5.79344">
        <ele>584</ele>
        <time>2025-10-08T14:29:47.153+00:00</time>
      </trkpt>
      <trkpt lat="46.65702" lon="5.79335">
        <ele>584</ele>
        <time>2025-10-08T14:29:51.748+00:00</time>
      </trkpt>
      <trkpt lat="46.65705" lon="5.79327">
        <ele>584</ele>
        <time>2025-10-08T14:29:56.317+00:00</time>
      </trkpt>
      <trkpt lat="46.65708" lon="5.79319">
        <ele>582</ele>
        <time>2025-10-08T14:30:00.753+00:00</time>
      </trkpt>
      <trkpt lat="46.65711" lon="5.79312">
        <ele>586</ele>
        <time>2025-10-08T14:30:05.097+00:00</time>
      </trkpt>
      <trkpt lat="46.65715" lon="5.79304">
        <ele>586</ele>
        <time>2025-10-08T14:30:09.438+00:00</time>
      </trkpt>
      <trkpt lat="46.65716" lon="5.79296">
        <ele>586</ele>
        <time>2025-10-08T14:30:13.756+00:00</time>
      </trkpt>
      <trkpt lat="46.6572" lon="5.7929">
        <ele>583</ele>
        <time>2025-10-08T14:30:17.926+00:00</time>
      </trkpt>
      <trkpt lat="46.65724" lon="5.79283">
        <ele>583</ele>
        <time>2025-10-08T14:30:22.237+00:00</time>
      </trkpt>
      <trkpt lat="46.65728" lon="5.79277">
        <ele>583</ele>
        <time>2025-10-08T14:30:26.553+00:00</time>
      </trkpt>
      <trkpt lat="46.65732" lon="5.79271">
        <ele>583</ele>
        <time>2025-10-08T14:30:30.747+00:00</time>
      </trkpt>
      <trkpt lat="46.65736" lon="5.79267">
        <ele>583</ele>
        <time>2025-10-08T14:30:35.204+00:00</time>
      </trkpt>
      <trkpt lat="46.65741" lon="5.79262">
        <ele>586</ele>
        <time>2025-10-08T14:30:39.453+00:00</time>
      </trkpt>
      <trkpt lat="46.65746" lon="5.79254">
        <ele>586</ele>
        <time>2025-10-08T14:30:43.747+00:00</time>
      </trkpt>
      <trkpt lat="46.6575" lon="5.79249">
        <ele>586</ele>
        <time>2025-10-08T14:30:48.215+00:00</time>
      </trkpt>
      <trkpt lat="46.65753" lon="5.79243">
        <ele>586</ele>
        <time>2025-10-08T14:30:52.747+00:00</time>
      </trkpt>
      <trkpt lat="46.65757" lon="5.79236">
        <ele>585</ele>
        <time>2025-10-08T14:30:57.352+00:00</time>
      </trkpt>
      <trkpt lat="46.65761" lon="5.79231">
        <ele>585</ele>
        <time>2025-10-08T14:31:01.712+00:00</time>
      </trkpt>
      <trkpt lat="46.65765" lon="5.79225">
        <ele>590</ele>
        <time>2025-10-08T14:31:05.746+00:00</time>
      </trkpt>
      <trkpt lat="46.6577" lon="5.79218">
        <ele>590</ele>
        <time>2025-10-08T14:31:10.337+00:00</time>
      </trkpt>
      <trkpt lat="46.65773" lon="5.79213">
        <ele>590</ele>
        <time>2025-10-08T14:31:14.432+00:00</time>
      </trkpt>
      <trkpt lat="46.65778" lon="5.79207">
        <ele>591</ele>
        <time>2025-10-08T14:31:19.058+00:00</time>
      </trkpt>
      <trkpt lat="46.65782" lon="5.79203">
        <ele>591</ele>
        <time>2025-10-08T14:31:23.492+00:00</time>
      </trkpt>
      <trkpt lat="46.65788" lon="5.79199">
        <ele>591</ele>
        <time>2025-10-08T14:31:27.746+00:00</time>
      </trkpt>
      <trkpt lat="46.65793" lon="5.79193">
        <ele>594</ele>
        <time>2025-10-08T14:31:32.746+00:00</time>
      </trkpt>
      <trkpt lat="46.65797" lon="5.79187">
        <ele>594</ele>
        <time>2025-10-08T14:31:37.238+00:00</time>
      </trkpt>
      <trkpt lat="46.658" lon="5.7918">
        <ele>594</ele>
        <time>2025-10-08T14:31:41.435+00:00</time>
      </trkpt>
      <trkpt lat="46.65803" lon="5.79173">
        <ele>594</ele>
        <time>2025-10-08T14:31:46.477+00:00</time>
      </trkpt>
      <trkpt lat="46.65806" lon="5.79167">
        <ele>594</ele>
        <time>2025-10-08T14:31:50.746+00:00</time>
      </trkpt>
      <trkpt lat="46.65811" lon="5.79164">
        <ele>594</ele>
        <time>2025-10-08T14:31:55.747+00:00</time>
      </trkpt>
      <trkpt lat="46.65815" lon="5.7916">
        <ele>594</ele>
        <time>2025-10-08T14:32:00.746+00:00</time>
      </trkpt>
      <trkpt lat="46.65818" lon="5.79155">
        <ele>594</ele>
        <time>2025-10-08T14:32:05.078+00:00</time>
      </trkpt>
      <trkpt lat="46.6582" lon="5.79148">
        <ele>594</ele>
        <time>2025-10-08T14:32:09.746+00:00</time>
      </trkpt>
      <trkpt lat="46.65823" lon="5.79141">
        <ele>594</ele>
        <time>2025-10-08T14:32:14.632+00:00</time>
      </trkpt>
      <trkpt lat="46.65826" lon="5.79136">
        <ele>594</ele>
        <time>2025-10-08T14:32:18.746+00:00</time>
      </trkpt>
      <trkpt lat="46.65829" lon="5.7913">
        <ele>594</ele>
        <time>2025-10-08T14:32:23.113+00:00</time>
      </trkpt>
      <trkpt lat="46.65832" lon="5.79123">
        <ele>595</ele>
        <time>2025-10-08T14:32:27.355+00:00</time>
      </trkpt>
      <trkpt lat="46.65835" lon="5.79118">
        <ele>595</ele>
        <time>2025-10-08T14:32:31.747+00:00</time>
      </trkpt>
      <trkpt lat="46.65839" lon="5.79112">
        <ele>595</ele>
        <time>2025-10-08T14:32:36.400+00:00</time>
      </trkpt>
      <trkpt lat="46.65843" lon="5.79106">
        <ele>595</ele>
        <time>2025-10-08T14:32:40.746+00:00</time>
      </trkpt>
      <trkpt lat="46.65846" lon="5.79099">
        <ele>595</ele>
        <time>2025-10-08T14:32:45.377+00:00</time>
      </trkpt>
      <trkpt lat="46.6585" lon="5.79094">
        <ele>594</ele>
        <time>2025-10-08T14:32:49.746+00:00</time>
      </trkpt>
      <trkpt lat="46.65854" lon="5.79089">
        <ele>594</ele>
        <time>2025-10-08T14:32:53.797+00:00</time>
      </trkpt>
      <trkpt lat="46.65858" lon="5.79084">
        <ele>594</ele>
        <time>2025-10-08T14:32:58.353+00:00</time>
      </trkpt>
      <trkpt lat="46.65861" lon="5.79078">
        <ele>594</ele>
        <time>2025-10-08T14:33:02.398+00:00</time>
      </trkpt>
      <trkpt lat="46.65865" lon="5.79072">
        <ele>594</ele>
        <time>2025-10-08T14:33:06.732+00:00</time>
      </trkpt>
      <trkpt lat="46.65868" lon="5.79067">
        <ele>594</ele>
        <time>2025-10-08T14:33:11.060+00:00</time>
      </trkpt>
      <trkpt lat="46.65872" lon="5.79062">
        <ele>594</ele>
        <time>2025-10-08T14:33:15.093+00:00</time>
      </trkpt>
      <trkpt lat="46.65875" lon="5.79056">
        <ele>593</ele>
        <time>2025-10-08T14:33:19.351+00:00</time>
      </trkpt>
      <trkpt lat="46.65878" lon="5.79051">
        <ele>593</ele>
        <time>2025-10-08T14:33:23.746+00:00</time>
      </trkpt>
      <trkpt lat="46.65882" lon="5.79047">
        <ele>593</ele>
        <time>2025-10-08T14:33:28.557+00:00</time>
      </trkpt>
      <trkpt lat="46.65885" lon="5.79041">
        <ele>591</ele>
        <time>2025-10-08T14:33:33.634+00:00</time>
      </trkpt>
      <trkpt lat="46.65886" lon="5.79033">
        <ele>591</ele>
        <time>2025-10-08T14:33:37.746+00:00</time>
      </trkpt>
      <trkpt lat="46.65886" lon="5.79027">
        <ele>591</ele>
        <time>2025-10-08T14:33:42.234+00:00</time>
      </trkpt>
      <trkpt lat="46.65888" lon="5.79022">
        <ele>591</ele>
        <time>2025-10-08T14:33:46.338+00:00</time>
      </trkpt>
      <trkpt lat="46.6589" lon="5.79015">
        <ele>591</ele>
        <time>2025-10-08T14:33:51.474+00:00</time>
      </trkpt>
      <trkpt lat="46.65892" lon="5.79007">
        <ele>589</ele>
        <time>2025-10-08T14:33:55.715+00:00</time>
      </trkpt>
      <trkpt lat="46.65893" lon="5.79001">
        <ele>589</ele>
        <time>2025-10-08T14:33:59.733+00:00</time>
      </trkpt>
      <trkpt lat="46.65892" lon="5.78995">
        <ele>589</ele>
        <time>2025-10-08T14:34:03.753+00:00</time>
      </trkpt>
      <trkpt lat="46.6589" lon="5.78987">
        <ele>589</ele>
        <time>2025-10-08T14:34:08.394+00:00</time>
      </trkpt>
      <trkpt lat="46.6589" lon="5.78981">
        <ele>587</ele>
        <time>2025-10-08T14:34:12.746+00:00</time>
      </trkpt>
      <trkpt lat="46.6589" lon="5.78973">
        <ele>587</ele>
        <time>2025-10-08T14:34:17.693+00:00</time>
      </trkpt>
      <trkpt lat="46.65889" lon="5.78967">
        <ele>587</ele>
        <time>2025-10-08T14:34:22.037+00:00</time>
      </trkpt>
      <trkpt lat="46.65889" lon="5.7896">
        <ele>587</ele>
        <time>2025-10-08T14:34:26.746+00:00</time>
      </trkpt>
      <trkpt lat="46.65887" lon="5.78952">
        <ele>586</ele>
        <time>2025-10-08T14:34:31.747+00:00</time>
      </trkpt>
      <trkpt lat="46.65885" lon="5.78945">
        <ele>586</ele>
        <time>2025-10-08T14:34:36.559+00:00</time>
      </trkpt>
      <trkpt lat="46.65884" lon="5.78939">
        <ele>586</ele>
        <time>2025-10-08T14:34:40.747+00:00</time>
      </trkpt>
      <trkpt lat="46.65884" lon="5.78931">
        <ele>586</ele>
        <time>2025-10-08T14:34:45.415+00:00</time>
      </trkpt>
      <trkpt lat="46.65883" lon="5.78923">
        <ele>585</ele>
        <time>2025-10-08T14:34:49.715+00:00</time>
      </trkpt>
      <trkpt lat="46.65882" lon="5.78917">
        <ele>585</ele>
        <time>2025-10-08T14:34:53.747+00:00</time>
      </trkpt>
      <trkpt lat="46.65882" lon="5.78916">
        <ele>585</ele>
        <time>2025-10-08T14:34:58.747+00:00</time>
      </trkpt>
      <trkpt lat="46.65882" lon="5.78917">
        <ele>585</ele>
        <time>2025-10-08T14:35:03.746+00:00</time>
      </trkpt>
      <trkpt lat="46.65881" lon="5.78913">
        <ele>585</ele>
        <time>2025-10-08T14:35:07.915+00:00</time>
      </trkpt>
      <trkpt lat="46.6588" lon="5.78905">
        <ele>585</ele>
        <time>2025-10-08T14:35:12.747+00:00</time>
      </trkpt>
      <trkpt lat="46.65881" lon="5.78899">
        <ele>584</ele>
        <time>2025-10-08T14:35:17.746+00:00</time>
      </trkpt>
      <trkpt lat="46.65879" lon="5.78892">
        <ele>584</ele>
        <time>2025-10-08T14:35:55.746+00:00</time>
      </trkpt>
      <trkpt lat="46.65878" lon="5.78884">
        <ele>584</ele>
        <time>2025-10-08T14:36:00.296+00:00</time>
      </trkpt>
      <trkpt lat="46.65878" lon="5.78876">
        <ele>584</ele>
        <time>2025-10-08T14:36:04.746+00:00</time>
      </trkpt>
      <trkpt lat="46.65879" lon="5.78873">
        <ele>580</ele>
        <time>2025-10-08T14:36:09.746+00:00</time>
      </trkpt>
      <trkpt lat="46.65877" lon="5.78866">
        <ele>580</ele>
        <time>2025-10-08T14:36:13.974+00:00</time>
      </trkpt>
      <trkpt lat="46.65876" lon="5.78859">
        <ele>580</ele>
        <time>2025-10-08T14:36:18.513+00:00</time>
      </trkpt>
      <trkpt lat="46.65877" lon="5.7885">
        <ele>580</ele>
        <time>2025-10-08T14:36:22.960+00:00</time>
      </trkpt>
      <trkpt lat="46.65877" lon="5.78842">
        <ele>577</ele>
        <time>2025-10-08T14:36:27.457+00:00</time>
      </trkpt>
      <trkpt lat="46.65879" lon="5.78835">
        <ele>577</ele>
        <time>2025-10-08T14:36:31.877+00:00</time>
      </trkpt>
      <trkpt lat="46.65879" lon="5.78829">
        <ele>577</ele>
        <time>2025-10-08T14:36:35.893+00:00</time>
      </trkpt>
      <trkpt lat="46.65877" lon="5.78822">
        <ele>577</ele>
        <time>2025-10-08T14:36:40.380+00:00</time>
      </trkpt>
      <trkpt lat="46.65877" lon="5.78814">
        <ele>575</ele>
        <time>2025-10-08T14:36:44.758+00:00</time>
      </trkpt>
      <trkpt lat="46.65877" lon="5.78808">
        <ele>575</ele>
        <time>2025-10-08T14:36:48.746+00:00</time>
      </trkpt>
      <trkpt lat="46.65879" lon="5.78802">
        <ele>575</ele>
        <time>2025-10-08T14:36:53.542+00:00</time>
      </trkpt>
      <trkpt lat="46.65878" lon="5.78796">
        <ele>575</ele>
        <time>2025-10-08T14:36:58.053+00:00</time>
      </trkpt>
      <trkpt lat="46.65879" lon="5.7879">
        <ele>573</ele>
        <time>2025-10-08T14:37:02.172+00:00</time>
      </trkpt>
      <trkpt lat="46.65878" lon="5.78782">
        <ele>573</ele>
        <time>2025-10-08T14:37:06.533+00:00</time>
      </trkpt>
      <trkpt lat="46.65878" lon="5.78776">
        <ele>573</ele>
        <time>2025-10-08T14:37:10.746+00:00</time>
      </trkpt>
      <trkpt lat="46.65877" lon="5.78768">
        <ele>573</ele>
        <time>2025-10-08T14:37:15.039+00:00</time>
      </trkpt>
      <trkpt lat="46.65877" lon="5.78761">
        <ele>570</ele>
        <time>2025-10-08T14:37:19.176+00:00</time>
      </trkpt>
      <trkpt lat="46.65877" lon="5.78754">
        <ele>570</ele>
        <time>2025-10-08T14:37:23.357+00:00</time>
      </trkpt>
      <trkpt lat="46.65877" lon="5.78746">
        <ele>570</ele>
        <time>2025-10-08T14:37:27.746+00:00</time>
      </trkpt>
      <trkpt lat="46.65876" lon="5.78737">
        <ele>570</ele>
        <time>2025-10-08T14:37:32.418+00:00</time>
      </trkpt>
      <trkpt lat="46.65876" lon="5.7873">
        <ele>569</ele>
        <time>2025-10-08T14:37:36.747+00:00</time>
      </trkpt>
      <trkpt lat="46.65875" lon="5.78723">
        <ele>581</ele>
        <time>2025-10-08T14:37:41.137+00:00</time>
      </trkpt>
      <trkpt lat="46.65873" lon="5.78716">
        <ele>581</ele>
        <time>2025-10-08T14:37:45.471+00:00</time>
      </trkpt>
      <trkpt lat="46.65874" lon="5.78711">
        <ele>581</ele>
        <time>2025-10-08T14:37:49.746+00:00</time>
      </trkpt>
      <trkpt lat="46.65875" lon="5.78701">
        <ele>568</ele>
        <time>2025-10-08T14:37:54.541+00:00</time>
      </trkpt>
      <trkpt lat="46.65879" lon="5.78694">
        <ele>568</ele>
        <time>2025-10-08T14:37:58.747+00:00</time>
      </trkpt>
      <trkpt lat="46.65879" lon="5.78685">
        <ele>568</ele>
        <time>2025-10-08T14:38:03.637+00:00</time>
      </trkpt>
      <trkpt lat="46.65878" lon="5.78675">
        <ele>567</ele>
        <time>2025-10-08T14:38:07.775+00:00</time>
      </trkpt>
      <trkpt lat="46.65877" lon="5.78663">
        <ele>567</ele>
        <time>2025-10-08T14:38:12.237+00:00</time>
      </trkpt>
      <trkpt lat="46.65877" lon="5.78652">
        <ele>568</ele>
        <time>2025-10-08T14:38:16.746+00:00</time>
      </trkpt>
      <trkpt lat="46.65877" lon="5.78643">
        <ele>568</ele>
        <time>2025-10-08T14:38:21.494+00:00</time>
      </trkpt>
      <trkpt lat="46.65878" lon="5.78634">
        <ele>568</ele>
        <time>2025-10-08T14:38:25.732+00:00</time>
      </trkpt>
      <trkpt lat="46.6588" lon="5.78627">
        <ele>568</ele>
        <time>2025-10-08T14:38:29.746+00:00</time>
      </trkpt>
      <trkpt lat="46.65884" lon="5.78622">
        <ele>568</ele>
        <time>2025-10-08T14:38:34.477+00:00</time>
      </trkpt>
      <trkpt lat="46.6589" lon="5.78627">
        <ele>568</ele>
        <time>2025-10-08T14:38:38.746+00:00</time>
      </trkpt>
      <trkpt lat="46.65888" lon="5.78636">
        <ele>568</ele>
        <time>2025-10-08T14:38:42.838+00:00</time>
      </trkpt>
      <trkpt lat="46.65887" lon="5.78644">
        <ele>568</ele>
        <time>2025-10-08T14:38:47.633+00:00</time>
      </trkpt>
      <trkpt lat="46.65888" lon="5.78649">
        <ele>568</ele>
        <time>2025-10-08T14:38:51.746+00:00</time>
      </trkpt>
      <trkpt lat="46.65889" lon="5.78656">
        <ele>567</ele>
        <time>2025-10-08T14:38:56.651+00:00</time>
      </trkpt>
      <trkpt lat="46.65891" lon="5.78662">
        <ele>567</ele>
        <time>2025-10-08T14:39:00.746+00:00</time>
      </trkpt>
      <trkpt lat="46.65892" lon="5.7867">
        <ele>567</ele>
        <time>2025-10-08T14:39:05.516+00:00</time>
      </trkpt>
      <trkpt lat="46.65893" lon="5.78678">
        <ele>567</ele>
        <time>2025-10-08T14:39:09.746+00:00</time>
      </trkpt>
      <trkpt lat="46.65894" lon="5.78687">
        <ele>568</ele>
        <time>2025-10-08T14:39:14.517+00:00</time>
      </trkpt>
      <trkpt lat="46.65896" lon="5.78694">
        <ele>568</ele>
        <time>2025-10-08T14:39:18.747+00:00</time>
      </trkpt>
      <trkpt lat="46.65899" lon="5.78702">
        <ele>568</ele>
        <time>2025-10-08T14:39:23.415+00:00</time>
      </trkpt>
      <trkpt lat="46.65901" lon="5.78709">
        <ele>569</ele>
        <time>2025-10-08T14:39:27.746+00:00</time>
      </trkpt>
      <trkpt lat="46.65902" lon="5.78718">
        <ele>569</ele>
        <time>2025-10-08T14:39:32.578+00:00</time>
      </trkpt>
      <trkpt lat="46.65902" lon="5.78727">
        <ele>569</ele>
        <time>2025-10-08T14:39:37.091+00:00</time>
      </trkpt>
      <trkpt lat="46.65903" lon="5.78734">
        <ele>560</ele>
        <time>2025-10-08T14:39:41.746+00:00</time>
      </trkpt>
      <trkpt lat="46.65903" lon="5.78741">
        <ele>561</ele>
        <time>2025-10-08T14:39:46.033+00:00</time>
      </trkpt>
      <trkpt lat="46.65904" lon="5.78748">
        <ele>561</ele>
        <time>2025-10-08T14:39:50.273+00:00</time>
      </trkpt>
      <trkpt lat="46.65905" lon="5.78756">
        <ele>561</ele>
        <time>2025-10-08T14:39:54.745+00:00</time>
      </trkpt>
      <trkpt lat="46.65907" lon="5.78765">
        <ele>562</ele>
        <time>2025-10-08T14:39:59.453+00:00</time>
      </trkpt>
      <trkpt lat="46.65909" lon="5.78772">
        <ele>562</ele>
        <time>2025-10-08T14:40:04.138+00:00</time>
      </trkpt>
      <trkpt lat="46.6591" lon="5.7878">
        <ele>562</ele>
        <time>2025-10-08T14:40:08.736+00:00</time>
      </trkpt>
      <trkpt lat="46.65911" lon="5.78789">
        <ele>562</ele>
        <time>2025-10-08T14:40:13.215+00:00</time>
      </trkpt>
      <trkpt lat="46.65912" lon="5.78798">
        <ele>564</ele>
        <time>2025-10-08T14:40:17.713+00:00</time>
      </trkpt>
      <trkpt lat="46.65914" lon="5.78806">
        <ele>564</ele>
        <time>2025-10-08T14:40:21.745+00:00</time>
      </trkpt>
      <trkpt lat="46.65916" lon="5.78815">
        <ele>564</ele>
        <time>2025-10-08T14:40:26.745+00:00</time>
      </trkpt>
      <trkpt lat="46.65918" lon="5.78824">
        <ele>565</ele>
        <time>2025-10-08T14:40:31.432+00:00</time>
      </trkpt>
      <trkpt lat="46.65919" lon="5.78831">
        <ele>565</ele>
        <time>2025-10-08T14:40:35.746+00:00</time>
      </trkpt>
      <trkpt lat="46.65922" lon="5.78839">
        <ele>565</ele>
        <time>2025-10-08T14:40:40.476+00:00</time>
      </trkpt>
      <trkpt lat="46.65925" lon="5.78846">
        <ele>565</ele>
        <time>2025-10-08T14:40:44.745+00:00</time>
      </trkpt>
      <trkpt lat="46.65928" lon="5.78854">
        <ele>568</ele>
        <time>2025-10-08T14:40:48.897+00:00</time>
      </trkpt>
      <trkpt lat="46.65932" lon="5.78862">
        <ele>563</ele>
        <time>2025-10-08T14:40:53.316+00:00</time>
      </trkpt>
      <trkpt lat="46.65936" lon="5.78871">
        <ele>563</ele>
        <time>2025-10-08T14:40:58.360+00:00</time>
      </trkpt>
      <trkpt lat="46.6594" lon="5.78877">
        <ele>567</ele>
        <time>2025-10-08T14:41:02.746+00:00</time>
      </trkpt>
      <trkpt lat="46.65944" lon="5.78884">
        <ele>567</ele>
        <time>2025-10-08T14:41:07.354+00:00</time>
      </trkpt>
      <trkpt lat="46.65948" lon="5.78889">
        <ele>567</ele>
        <time>2025-10-08T14:41:11.745+00:00</time>
      </trkpt>
      <trkpt lat="46.65953" lon="5.78894">
        <ele>567</ele>
        <time>2025-10-08T14:41:15.745+00:00</time>
      </trkpt>
      <trkpt lat="46.65957" lon="5.78897">
        <ele>567</ele>
        <time>2025-10-08T14:41:19.919+00:00</time>
      </trkpt>
      <trkpt lat="46.65963" lon="5.78902">
        <ele>566</ele>
        <time>2025-10-08T14:41:24.535+00:00</time>
      </trkpt>
      <trkpt lat="46.65967" lon="5.78906">
        <ele>570</ele>
        <time>2025-10-08T14:41:29.014+00:00</time>
      </trkpt>
      <trkpt lat="46.65972" lon="5.7891">
        <ele>570</ele>
        <time>2025-10-08T14:41:33.374+00:00</time>
      </trkpt>
      <trkpt lat="46.65977" lon="5.78913">
        <ele>570</ele>
        <time>2025-10-08T14:41:37.746+00:00</time>
      </trkpt>
      <trkpt lat="46.6598" lon="5.78921">
        <ele>570</ele>
        <time>2025-10-08T14:41:42.673+00:00</time>
      </trkpt>
      <trkpt lat="46.65983" lon="5.78926">
        <ele>570</ele>
        <time>2025-10-08T14:41:46.752+00:00</time>
      </trkpt>
      <trkpt lat="46.65986" lon="5.78933">
        <ele>574</ele>
        <time>2025-10-08T14:41:51.436+00:00</time>
      </trkpt>
      <trkpt lat="46.65989" lon="5.78938">
        <ele>574</ele>
        <time>2025-10-08T14:41:55.456+00:00</time>
      </trkpt>
      <trkpt lat="46.65989" lon="5.78942">
        <ele>574</ele>
        <time>2025-10-08T14:41:59.541+00:00</time>
      </trkpt>
      <trkpt lat="46.65989" lon="5.78947">
        <ele>574</ele>
        <time>2025-10-08T14:42:03.745+00:00</time>
      </trkpt>
      <trkpt lat="46.65994" lon="5.78949">
        <ele>574</ele>
        <time>2025-10-08T14:42:08.773+00:00</time>
      </trkpt>
      <trkpt lat="46.65998" lon="5.78952">
        <ele>574</ele>
        <time>2025-10-08T14:42:13.575+00:00</time>
      </trkpt>
      <trkpt lat="46.66001" lon="5.78956">
        <ele>574</ele>
        <time>2025-10-08T14:42:17.745+00:00</time>
      </trkpt>
      <trkpt lat="46.66004" lon="5.78961">
        <ele>576</ele>
        <time>2025-10-08T14:42:22.013+00:00</time>
      </trkpt>
      <trkpt lat="46.66009" lon="5.78965">
        <ele>576</ele>
        <time>2025-10-08T14:42:26.745+00:00</time>
      </trkpt>
      <trkpt lat="46.66014" lon="5.7897">
        <ele>576</ele>
        <time>2025-10-08T14:42:31.091+00:00</time>
      </trkpt>
      <trkpt lat="46.66018" lon="5.78975">
        <ele>576</ele>
        <time>2025-10-08T14:42:35.553+00:00</time>
      </trkpt>
      <trkpt lat="46.66022" lon="5.7898">
        <ele>576</ele>
        <time>2025-10-08T14:42:39.745+00:00</time>
      </trkpt>
      <trkpt lat="46.66026" lon="5.78988">
        <ele>578</ele>
        <time>2025-10-08T14:42:44.673+00:00</time>
      </trkpt>
      <trkpt lat="46.6603" lon="5.78994">
        <ele>578</ele>
        <time>2025-10-08T14:42:48.745+00:00</time>
      </trkpt>
      <trkpt lat="46.66035" lon="5.78999">
        <ele>578</ele>
        <time>2025-10-08T14:42:53.199+00:00</time>
      </trkpt>
      <trkpt lat="46.66039" lon="5.79003">
        <ele>578</ele>
        <time>2025-10-08T14:42:57.556+00:00</time>
      </trkpt>
      <trkpt lat="46.66044" lon="5.79006">
        <ele>576</ele>
        <time>2025-10-08T14:43:01.745+00:00</time>
      </trkpt>
      <trkpt lat="46.6605" lon="5.7901">
        <ele>576</ele>
        <time>2025-10-08T14:43:06.653+00:00</time>
      </trkpt>
      <trkpt lat="46.66055" lon="5.79013">
        <ele>576</ele>
        <time>2025-10-08T14:43:10.978+00:00</time>
      </trkpt>
      <trkpt lat="46.6606" lon="5.79016">
        <ele>580</ele>
        <time>2025-10-08T14:43:15.039+00:00</time>
      </trkpt>
      <trkpt lat="46.66065" lon="5.7902">
        <ele>580</ele>
        <time>2025-10-08T14:43:19.594+00:00</time>
      </trkpt>
      <trkpt lat="46.66071" lon="5.79022">
        <ele>578</ele>
        <time>2025-10-08T14:43:23.745+00:00</time>
      </trkpt>
      <trkpt lat="46.66076" lon="5.79023">
        <ele>578</ele>
        <time>2025-10-08T14:43:28.458+00:00</time>
      </trkpt>
      <trkpt lat="46.66082" lon="5.79023">
        <ele>578</ele>
        <time>2025-10-08T14:43:32.746+00:00</time>
      </trkpt>
      <trkpt lat="46.66088" lon="5.79025">
        <ele>578</ele>
        <time>2025-10-08T14:43:37.195+00:00</time>
      </trkpt>
      <trkpt lat="46.66093" lon="5.79026">
        <ele>578</ele>
        <time>2025-10-08T14:43:41.512+00:00</time>
      </trkpt>
      <trkpt lat="46.66099" lon="5.79027">
        <ele>576</ele>
        <time>2025-10-08T14:43:45.745+00:00</time>
      </trkpt>
      <trkpt lat="46.66105" lon="5.79028">
        <ele>576</ele>
        <time>2025-10-08T14:43:50.138+00:00</time>
      </trkpt>
      <trkpt lat="46.6611" lon="5.79028">
        <ele>576</ele>
        <time>2025-10-08T14:43:54.471+00:00</time>
      </trkpt>
      <trkpt lat="46.66116" lon="5.79028">
        <ele>576</ele>
        <time>2025-10-08T14:43:58.746+00:00</time>
      </trkpt>
      <trkpt lat="46.66122" lon="5.79028">
        <ele>576</ele>
        <time>2025-10-08T14:44:02.745+00:00</time>
      </trkpt>
      <trkpt lat="46.66128" lon="5.79027">
        <ele>574</ele>
        <time>2025-10-08T14:44:07.340+00:00</time>
      </trkpt>
      <trkpt lat="46.66134" lon="5.79026">
        <ele>574</ele>
        <time>2025-10-08T14:44:11.536+00:00</time>
      </trkpt>
      <trkpt lat="46.6614" lon="5.79027">
        <ele>574</ele>
        <time>2025-10-08T14:44:16.133+00:00</time>
      </trkpt>
      <trkpt lat="46.66146" lon="5.79027">
        <ele>574</ele>
        <time>2025-10-08T14:44:20.655+00:00</time>
      </trkpt>
      <trkpt lat="46.66152" lon="5.79025">
        <ele>574</ele>
        <time>2025-10-08T14:44:24.745+00:00</time>
      </trkpt>
      <trkpt lat="46.66158" lon="5.79023">
        <ele>572</ele>
        <time>2025-10-08T14:44:29.639+00:00</time>
      </trkpt>
      <trkpt lat="46.66162" lon="5.79022">
        <ele>572</ele>
        <time>2025-10-08T14:44:33.745+00:00</time>
      </trkpt>
      <trkpt lat="46.66168" lon="5.79021">
        <ele>572</ele>
        <time>2025-10-08T14:44:38.763+00:00</time>
      </trkpt>
      <trkpt lat="46.66173" lon="5.7902">
        <ele>572</ele>
        <time>2025-10-08T14:44:43.136+00:00</time>
      </trkpt>
      <trkpt lat="46.66179" lon="5.79019">
        <ele>572</ele>
        <time>2025-10-08T14:44:47.556+00:00</time>
      </trkpt>
      <trkpt lat="46.66184" lon="5.79019">
        <ele>572</ele>
        <time>2025-10-08T14:44:52.060+00:00</time>
      </trkpt>
      <trkpt lat="46.6619" lon="5.7902">
        <ele>572</ele>
        <time>2025-10-08T14:44:56.514+00:00</time>
      </trkpt>
      <trkpt lat="46.66196" lon="5.79021">
        <ele>572</ele>
        <time>2025-10-08T14:45:00.745+00:00</time>
      </trkpt>
      <trkpt lat="46.66202" lon="5.7902">
        <ele>572</ele>
        <time>2025-10-08T14:45:05.259+00:00</time>
      </trkpt>
      <trkpt lat="46.66207" lon="5.79018">
        <ele>572</ele>
        <time>2025-10-08T14:45:09.516+00:00</time>
      </trkpt>
      <trkpt lat="46.66212" lon="5.79013">
        <ele>570</ele>
        <time>2025-10-08T14:45:13.561+00:00</time>
      </trkpt>
      <trkpt lat="46.66217" lon="5.79009">
        <ele>570</ele>
        <time>2025-10-08T14:45:17.656+00:00</time>
      </trkpt>
      <trkpt lat="46.66222" lon="5.79006">
        <ele>570</ele>
        <time>2025-10-08T14:45:21.745+00:00</time>
      </trkpt>
      <trkpt lat="46.66226" lon="5.79003">
        <ele>570</ele>
        <time>2025-10-08T14:45:26.745+00:00</time>
      </trkpt>
      <trkpt lat="46.66226" lon="5.79001">
        <ele>570</ele>
        <time>2025-10-08T14:45:30.999+00:00</time>
      </trkpt>
      <trkpt lat="46.66228" lon="5.78997">
        <ele>570</ele>
        <time>2025-10-08T14:45:35.184+00:00</time>
      </trkpt>
      <trkpt lat="46.66232" lon="5.78993">
        <ele>570</ele>
        <time>2025-10-08T14:45:39.675+00:00</time>
      </trkpt>
      <trkpt lat="46.66235" lon="5.78992">
        <ele>570</ele>
        <time>2025-10-08T14:45:43.840+00:00</time>
      </trkpt>
      <trkpt lat="46.66239" lon="5.78991">
        <ele>571</ele>
        <time>2025-10-08T14:45:48.319+00:00</time>
      </trkpt>
      <trkpt lat="46.66243" lon="5.78987">
        <ele>571</ele>
        <time>2025-10-08T14:45:52.739+00:00</time>
      </trkpt>
      <trkpt lat="46.66247" lon="5.78986">
        <ele>566</ele>
        <time>2025-10-08T14:45:57.021+00:00</time>
      </trkpt>
      <trkpt lat="46.66252" lon="5.78985">
        <ele>566</ele>
        <time>2025-10-08T14:46:01.745+00:00</time>
      </trkpt>
      <trkpt lat="46.66252" lon="5.78985">
        <ele>566</ele>
        <time>2025-10-08T14:46:11.745+00:00</time>
      </trkpt>
      <trkpt lat="46.66252" lon="5.78984">
        <ele>566</ele>
        <time>2025-10-08T14:46:16.746+00:00</time>
      </trkpt>
      <trkpt lat="46.66252" lon="5.78984">
        <ele>566</ele>
        <time>2025-10-08T14:46:22.745+00:00</time>
      </trkpt>
      <trkpt lat="46.66253" lon="5.78977">
        <ele>566</ele>
        <time>2025-10-08T14:46:27.121+00:00</time>
      </trkpt>
      <trkpt lat="46.66254" lon="5.78968">
        <ele>566</ele>
        <time>2025-10-08T14:46:31.600+00:00</time>
      </trkpt>
      <trkpt lat="46.66257" lon="5.78962">
        <ele>566</ele>
        <time>2025-10-08T14:46:35.745+00:00</time>
      </trkpt>
      <trkpt lat="46.66261" lon="5.7896">
        <ele>566</ele>
        <time>2025-10-08T14:46:40.039+00:00</time>
      </trkpt>
      <trkpt lat="46.66266" lon="5.78958">
        <ele>561</ele>
        <time>2025-10-08T14:46:44.456+00:00</time>
      </trkpt>
      <trkpt lat="46.66268" lon="5.78952">
        <ele>561</ele>
        <time>2025-10-08T14:46:48.745+00:00</time>
      </trkpt>
      <trkpt lat="46.66267" lon="5.78946">
        <ele>561</ele>
        <time>2025-10-08T14:46:53.355+00:00</time>
      </trkpt>
      <trkpt lat="46.66261" lon="5.78942">
        <ele>561</ele>
        <time>2025-10-08T14:46:57.681+00:00</time>
      </trkpt>
      <trkpt lat="46.66255" lon="5.78941">
        <ele>561</ele>
        <time>2025-10-08T14:47:01.745+00:00</time>
      </trkpt>
      <trkpt lat="46.66248" lon="5.78938">
        <ele>561</ele>
        <time>2025-10-08T14:47:06.745+00:00</time>
      </trkpt>
      <trkpt lat="46.66242" lon="5.78936">
        <ele>561</ele>
        <time>2025-10-08T14:47:10.956+00:00</time>
      </trkpt>
      <trkpt lat="46.66236" lon="5.7893">
        <ele>558</ele>
        <time>2025-10-08T14:47:16.437+00:00</time>
      </trkpt>
      <trkpt lat="46.66231" lon="5.78925">
        <ele>559</ele>
        <time>2025-10-08T14:47:21.078+00:00</time>
      </trkpt>
      <trkpt lat="46.66227" lon="5.78919">
        <ele>559</ele>
        <time>2025-10-08T14:47:25.422+00:00</time>
      </trkpt>
      <trkpt lat="46.66225" lon="5.78912">
        <ele>559</ele>
        <time>2025-10-08T14:47:29.482+00:00</time>
      </trkpt>
      <trkpt lat="46.66225" lon="5.78904">
        <ele>559</ele>
        <time>2025-10-08T14:47:33.962+00:00</time>
      </trkpt>
      <trkpt lat="46.66226" lon="5.78897">
        <ele>556</ele>
        <time>2025-10-08T14:47:38.022+00:00</time>
      </trkpt>
      <trkpt lat="46.66231" lon="5.78894">
        <ele>556</ele>
        <time>2025-10-08T14:47:42.745+00:00</time>
      </trkpt>
      <trkpt lat="46.66234" lon="5.78894">
        <ele>556</ele>
        <time>2025-10-08T14:47:46.745+00:00</time>
      </trkpt>
      <trkpt lat="46.66235" lon="5.78895">
        <ele>556</ele>
        <time>2025-10-08T14:47:51.239+00:00</time>
      </trkpt>
      <trkpt lat="46.66237" lon="5.78895">
        <ele>554</ele>
        <time>2025-10-08T14:47:55.703+00:00</time>
      </trkpt>
      <trkpt lat="46.66241" lon="5.78894">
        <ele>554</ele>
        <time>2025-10-08T14:48:00.035+00:00</time>
      </trkpt>
      <trkpt lat="46.66245" lon="5.78894">
        <ele>554</ele>
        <time>2025-10-08T14:48:04.243+00:00</time>
      </trkpt>
      <trkpt lat="46.66248" lon="5.78898">
        <ele>554</ele>
        <time>2025-10-08T14:48:08.379+00:00</time>
      </trkpt>
      <trkpt lat="46.66252" lon="5.78901">
        <ele>554</ele>
        <time>2025-10-08T14:48:12.517+00:00</time>
      </trkpt>
      <trkpt lat="46.66257" lon="5.78897">
        <ele>554</ele>
        <time>2025-10-08T14:48:16.623+00:00</time>
      </trkpt>
      <trkpt lat="46.66262" lon="5.78894">
        <ele>554</ele>
        <time>2025-10-08T14:48:20.745+00:00</time>
      </trkpt>
      <trkpt lat="46.66267" lon="5.78893">
        <ele>552</ele>
        <time>2025-10-08T14:48:25.284+00:00</time>
      </trkpt>
      <trkpt lat="46.6627" lon="5.78888">
        <ele>552</ele>
        <time>2025-10-08T14:48:29.745+00:00</time>
      </trkpt>
      <trkpt lat="46.66275" lon="5.78885">
        <ele>552</ele>
        <time>2025-10-08T14:48:34.376+00:00</time>
      </trkpt>
      <trkpt lat="46.66279" lon="5.78883">
        <ele>552</ele>
        <time>2025-10-08T14:48:38.746+00:00</time>
      </trkpt>
      <trkpt lat="46.66284" lon="5.78879">
        <ele>552</ele>
        <time>2025-10-08T14:48:43.539+00:00</time>
      </trkpt>
      <trkpt lat="46.66288" lon="5.78876">
        <ele>552</ele>
        <time>2025-10-08T14:48:47.745+00:00</time>
      </trkpt>
      <trkpt lat="46.66294" lon="5.78875">
        <ele>550</ele>
        <time>2025-10-08T14:48:52.363+00:00</time>
      </trkpt>
      <trkpt lat="46.66299" lon="5.78874">
        <ele>543</ele>
        <time>2025-10-08T14:48:56.576+00:00</time>
      </trkpt>
      <trkpt lat="46.66304" lon="5.78869">
        <ele>543</ele>
        <time>2025-10-08T14:49:00.746+00:00</time>
      </trkpt>
      <trkpt lat="46.66309" lon="5.78866">
        <ele>543</ele>
        <time>2025-10-08T14:49:05.383+00:00</time>
      </trkpt>
      <trkpt lat="46.66314" lon="5.78861">
        <ele>543</ele>
        <time>2025-10-08T14:49:09.502+00:00</time>
      </trkpt>
      <trkpt lat="46.66319" lon="5.78857">
        <ele>543</ele>
        <time>2025-10-08T14:49:13.699+00:00</time>
      </trkpt>
      <trkpt lat="46.66322" lon="5.78849">
        <ele>546</ele>
        <time>2025-10-08T14:49:17.745+00:00</time>
      </trkpt>
      <trkpt lat="46.66326" lon="5.78844">
        <ele>540</ele>
        <time>2025-10-08T14:49:22.095+00:00</time>
      </trkpt>
      <trkpt lat="46.66331" lon="5.78839">
        <ele>540</ele>
        <time>2025-10-08T14:49:26.575+00:00</time>
      </trkpt>
      <trkpt lat="46.66336" lon="5.78837">
        <ele>540</ele>
        <time>2025-10-08T14:49:31.038+00:00</time>
      </trkpt>
      <trkpt lat="46.66339" lon="5.78837">
        <ele>540</ele>
        <time>2025-10-08T14:49:35.075+00:00</time>
      </trkpt>
      <trkpt lat="46.66344" lon="5.78835">
        <ele>540</ele>
        <time>2025-10-08T14:49:39.255+00:00</time>
      </trkpt>
      <trkpt lat="46.66348" lon="5.78831">
        <ele>543</ele>
        <time>2025-10-08T14:49:43.642+00:00</time>
      </trkpt>
      <trkpt lat="46.66352" lon="5.78827">
        <ele>543</ele>
        <time>2025-10-08T14:49:47.659+00:00</time>
      </trkpt>
      <trkpt lat="46.66356" lon="5.78821">
        <ele>543</ele>
        <time>2025-10-08T14:49:52.157+00:00</time>
      </trkpt>
      <trkpt lat="46.6636" lon="5.78816">
        <ele>536</ele>
        <time>2025-10-08T14:49:56.738+00:00</time>
      </trkpt>
      <trkpt lat="46.66364" lon="5.78812">
        <ele>536</ele>
        <time>2025-10-08T14:50:00.744+00:00</time>
      </trkpt>
      <trkpt lat="46.66367" lon="5.78807">
        <ele>536</ele>
        <time>2025-10-08T14:50:05.237+00:00</time>
      </trkpt>
      <trkpt lat="46.66367" lon="5.78799">
        <ele>536</ele>
        <time>2025-10-08T14:50:09.555+00:00</time>
      </trkpt>
      <trkpt lat="46.66368" lon="5.78793">
        <ele>536</ele>
        <time>2025-10-08T14:50:13.745+00:00</time>
      </trkpt>
      <trkpt lat="46.66366" lon="5.78785">
        <ele>530</ele>
        <time>2025-10-08T14:50:18.768+00:00</time>
      </trkpt>
      <trkpt lat="46.6636" lon="5.78783">
        <ele>530</ele>
        <time>2025-10-08T14:50:23.480+00:00</time>
      </trkpt>
      <trkpt lat="46.66354" lon="5.78773">
        <ele>530</ele>
        <time>2025-10-08T14:52:24.744+00:00</time>
      </trkpt>
      <trkpt lat="46.66354" lon="5.78771">
        <ele>530</ele>
        <time>2025-10-08T14:52:28.744+00:00</time>
      </trkpt>
      <trkpt lat="46.66351" lon="5.78764">
        <ele>530</ele>
        <time>2025-10-08T14:52:33.355+00:00</time>
      </trkpt>
      <trkpt lat="46.6635" lon="5.78756">
        <ele>524</ele>
        <time>2025-10-08T14:52:38.098+00:00</time>
      </trkpt>
      <trkpt lat="46.66348" lon="5.7875">
        <ele>524</ele>
        <time>2025-10-08T14:52:42.629+00:00</time>
      </trkpt>
      <trkpt lat="46.66348" lon="5.7874">
        <ele>524</ele>
        <time>2025-10-08T14:53:05.922+00:00</time>
      </trkpt>
      <trkpt lat="46.66348" lon="5.78747">
        <ele>524</ele>
        <time>2025-10-08T14:53:10.745+00:00</time>
      </trkpt>
      <trkpt lat="46.66348" lon="5.78752">
        <ele>524</ele>
        <time>2025-10-08T14:53:15.300+00:00</time>
      </trkpt>
      <trkpt lat="46.66349" lon="5.78757">
        <ele>524</ele>
        <time>2025-10-08T14:53:19.745+00:00</time>
      </trkpt>
      <trkpt lat="46.66351" lon="5.78762">
        <ele>524</ele>
        <time>2025-10-08T14:53:23.979+00:00</time>
      </trkpt>
      <trkpt lat="46.66353" lon="5.78767">
        <ele>530</ele>
        <time>2025-10-08T14:53:28.560+00:00</time>
      </trkpt>
      <trkpt lat="46.66356" lon="5.78772">
        <ele>530</ele>
        <time>2025-10-08T14:53:33.260+00:00</time>
      </trkpt>
      <trkpt lat="46.66359" lon="5.78777">
        <ele>530</ele>
        <time>2025-10-08T14:53:37.399+00:00</time>
      </trkpt>
      <trkpt lat="46.66363" lon="5.78781">
        <ele>530</ele>
        <time>2025-10-08T14:53:41.538+00:00</time>
      </trkpt>
      <trkpt lat="46.66367" lon="5.78785">
        <ele>530</ele>
        <time>2025-10-08T14:53:45.745+00:00</time>
      </trkpt>
      <trkpt lat="46.6637" lon="5.78787">
        <ele>530</ele>
        <time>2025-10-08T14:53:49.745+00:00</time>
      </trkpt>
      <trkpt lat="46.66375" lon="5.78789">
        <ele>530</ele>
        <time>2025-10-08T14:53:54.660+00:00</time>
      </trkpt>
      <trkpt lat="46.6638" lon="5.78793">
        <ele>538</ele>
        <time>2025-10-08T14:53:59.259+00:00</time>
      </trkpt>
      <trkpt lat="46.66385" lon="5.78791">
        <ele>530</ele>
        <time>2025-10-08T14:54:03.679+00:00</time>
      </trkpt>
      <trkpt lat="46.66391" lon="5.78785">
        <ele>530</ele>
        <time>2025-10-08T14:54:08.636+00:00</time>
      </trkpt>
      <trkpt lat="46.66398" lon="5.78784">
        <ele>530</ele>
        <time>2025-10-08T14:54:13.158+00:00</time>
      </trkpt>
      <trkpt lat="46.66403" lon="5.78783">
        <ele>530</ele>
        <time>2025-10-08T14:54:17.219+00:00</time>
      </trkpt>
      <trkpt lat="46.66408" lon="5.78784">
        <ele>530</ele>
        <time>2025-10-08T14:54:21.639+00:00</time>
      </trkpt>
      <trkpt lat="46.66412" lon="5.78785">
        <ele>530</ele>
        <time>2025-10-08T14:54:25.744+00:00</time>
      </trkpt>
      <trkpt lat="46.66418" lon="5.78782">
        <ele>530</ele>
        <time>2025-10-08T14:54:30.495+00:00</time>
      </trkpt>
      <trkpt lat="46.66423" lon="5.78781">
        <ele>530</ele>
        <time>2025-10-08T14:54:34.744+00:00</time>
      </trkpt>
      <trkpt lat="46.66428" lon="5.78783">
        <ele>530</ele>
        <time>2025-10-08T14:54:39.181+00:00</time>
      </trkpt>
      <trkpt lat="46.66434" lon="5.78784">
        <ele>526</ele>
        <time>2025-10-08T14:54:43.660+00:00</time>
      </trkpt>
      <trkpt lat="46.66438" lon="5.78785">
        <ele>526</ele>
        <time>2025-10-08T14:54:47.760+00:00</time>
      </trkpt>
      <trkpt lat="46.66445" lon="5.78786">
        <ele>526</ele>
        <time>2025-10-08T14:54:52.744+00:00</time>
      </trkpt>
      <trkpt lat="46.66451" lon="5.78789">
        <ele>526</ele>
        <time>2025-10-08T14:54:57.745+00:00</time>
      </trkpt>
      <trkpt lat="46.66456" lon="5.78791">
        <ele>526</ele>
        <time>2025-10-08T14:55:01.744+00:00</time>
      </trkpt>
      <trkpt lat="46.66462" lon="5.78794">
        <ele>529</ele>
        <time>2025-10-08T14:55:06.439+00:00</time>
      </trkpt>
      <trkpt lat="46.66467" lon="5.78796">
        <ele>529</ele>
        <time>2025-10-08T14:55:10.744+00:00</time>
      </trkpt>
      <trkpt lat="46.66472" lon="5.78798">
        <ele>529</ele>
        <time>2025-10-08T14:55:15.295+00:00</time>
      </trkpt>
      <trkpt lat="46.66478" lon="5.788">
        <ele>529</ele>
        <time>2025-10-08T14:55:19.744+00:00</time>
      </trkpt>
      <trkpt lat="46.66482" lon="5.78795">
        <ele>529</ele>
        <time>2025-10-08T14:55:24.443+00:00</time>
      </trkpt>
      <trkpt lat="46.66485" lon="5.78786">
        <ele>523</ele>
        <time>2025-10-08T14:55:29.178+00:00</time>
      </trkpt>
      <trkpt lat="46.66486" lon="5.78778">
        <ele>523</ele>
        <time>2025-10-08T14:55:33.621+00:00</time>
      </trkpt>
      <trkpt lat="46.66485" lon="5.7877">
        <ele>523</ele>
        <time>2025-10-08T14:55:38.435+00:00</time>
      </trkpt>
      <trkpt lat="46.66486" lon="5.78761">
        <ele>521</ele>
        <time>2025-10-08T14:55:43.045+00:00</time>
      </trkpt>
      <trkpt lat="46.66488" lon="5.78753">
        <ele>521</ele>
        <time>2025-10-08T14:55:47.700+00:00</time>
      </trkpt>
      <trkpt lat="46.66488" lon="5.78744">
        <ele>521</ele>
        <time>2025-10-08T14:55:51.745+00:00</time>
      </trkpt>
      <trkpt lat="46.66488" lon="5.78737">
        <ele>521</ele>
        <time>2025-10-08T14:55:56.123+00:00</time>
      </trkpt>
      <trkpt lat="46.66487" lon="5.78728">
        <ele>523</ele>
        <time>2025-10-08T14:56:00.218+00:00</time>
      </trkpt>
      <trkpt lat="46.66487" lon="5.7872">
        <ele>523</ele>
        <time>2025-10-08T14:56:04.745+00:00</time>
      </trkpt>
      <trkpt lat="46.66487" lon="5.78711">
        <ele>523</ele>
        <time>2025-10-08T14:56:09.338+00:00</time>
      </trkpt>
      <trkpt lat="46.66486" lon="5.78703">
        <ele>524</ele>
        <time>2025-10-08T14:56:13.744+00:00</time>
      </trkpt>
      <trkpt lat="46.66485" lon="5.78695">
        <ele>523</ele>
        <time>2025-10-08T14:56:18.340+00:00</time>
      </trkpt>
      <trkpt lat="46.66484" lon="5.78686">
        <ele>523</ele>
        <time>2025-10-08T14:56:22.744+00:00</time>
      </trkpt>
      <trkpt lat="46.66482" lon="5.78678">
        <ele>523</ele>
        <time>2025-10-08T14:56:26.744+00:00</time>
      </trkpt>
      <trkpt lat="46.6648" lon="5.7867">
        <ele>523</ele>
        <time>2025-10-08T14:56:31.198+00:00</time>
      </trkpt>
      <trkpt lat="46.66479" lon="5.78662">
        <ele>523</ele>
        <time>2025-10-08T14:56:35.217+00:00</time>
      </trkpt>
      <trkpt lat="46.66478" lon="5.78654">
        <ele>523</ele>
        <time>2025-10-08T14:56:39.756+00:00</time>
      </trkpt>
      <trkpt lat="46.66476" lon="5.78646">
        <ele>522</ele>
        <time>2025-10-08T14:56:44.295+00:00</time>
      </trkpt>
      <trkpt lat="46.66474" lon="5.78638">
        <ele>522</ele>
        <time>2025-10-08T14:56:48.744+00:00</time>
      </trkpt>
      <trkpt lat="46.66473" lon="5.78629">
        <ele>522</ele>
        <time>2025-10-08T14:56:53.262+00:00</time>
      </trkpt>
      <trkpt lat="46.66473" lon="5.78622">
        <ele>522</ele>
        <time>2025-10-08T14:56:57.580+00:00</time>
      </trkpt>
      <trkpt lat="46.66474" lon="5.78611">
        <ele>522</ele>
        <time>2025-10-08T14:57:02.101+00:00</time>
      </trkpt>
      <trkpt lat="46.66474" lon="5.78603">
        <ele>522</ele>
        <time>2025-10-08T14:57:06.479+00:00</time>
      </trkpt>
      <trkpt lat="46.66473" lon="5.78595">
        <ele>520</ele>
        <time>2025-10-08T14:57:10.744+00:00</time>
      </trkpt>
      <trkpt lat="46.66472" lon="5.78587">
        <ele>520</ele>
        <time>2025-10-08T14:57:14.745+00:00</time>
      </trkpt>
      <trkpt lat="46.66472" lon="5.78578">
        <ele>520</ele>
        <time>2025-10-08T14:57:19.174+00:00</time>
      </trkpt>
      <trkpt lat="46.66472" lon="5.78571">
        <ele>520</ele>
        <time>2025-10-08T14:57:23.323+00:00</time>
      </trkpt>
      <trkpt lat="46.66471" lon="5.78563">
        <ele>519</ele>
        <time>2025-10-08T14:57:27.744+00:00</time>
      </trkpt>
      <trkpt lat="46.6647" lon="5.78554">
        <ele>519</ele>
        <time>2025-10-08T14:57:32.254+00:00</time>
      </trkpt>
      <trkpt lat="46.6647" lon="5.78546">
        <ele>519</ele>
        <time>2025-10-08T14:57:36.719+00:00</time>
      </trkpt>
      <trkpt lat="46.6647" lon="5.78537">
        <ele>519</ele>
        <time>2025-10-08T14:57:41.223+00:00</time>
      </trkpt>
      <trkpt lat="46.66469" lon="5.78529">
        <ele>519</ele>
        <time>2025-10-08T14:57:45.766+00:00</time>
      </trkpt>
      <trkpt lat="46.66469" lon="5.78521">
        <ele>519</ele>
        <time>2025-10-08T14:57:50.206+00:00</time>
      </trkpt>
      <trkpt lat="46.66469" lon="5.78513">
        <ele>519</ele>
        <time>2025-10-08T14:57:54.616+00:00</time>
      </trkpt>
      <trkpt lat="46.66469" lon="5.78504">
        <ele>519</ele>
        <time>2025-10-08T14:57:59.142+00:00</time>
      </trkpt>
      <trkpt lat="46.66468" lon="5.78496">
        <ele>519</ele>
        <time>2025-10-08T14:58:03.576+00:00</time>
      </trkpt>
      <trkpt lat="46.66467" lon="5.78487">
        <ele>519</ele>
        <time>2025-10-08T14:58:07.743+00:00</time>
      </trkpt>
      <trkpt lat="46.66466" lon="5.7848">
        <ele>519</ele>
        <time>2025-10-08T14:58:12.015+00:00</time>
      </trkpt>
      <trkpt lat="46.66465" lon="5.78472">
        <ele>519</ele>
        <time>2025-10-08T14:58:16.221+00:00</time>
      </trkpt>
      <trkpt lat="46.66464" lon="5.78464">
        <ele>519</ele>
        <time>2025-10-08T14:58:20.317+00:00</time>
      </trkpt>
      <trkpt lat="46.66464" lon="5.78456">
        <ele>519</ele>
        <time>2025-10-08T14:58:24.765+00:00</time>
      </trkpt>
      <trkpt lat="46.66465" lon="5.78448">
        <ele>519</ele>
        <time>2025-10-08T14:58:29.122+00:00</time>
      </trkpt>
      <trkpt lat="46.66468" lon="5.78442">
        <ele>519</ele>
        <time>2025-10-08T14:58:33.737+00:00</time>
      </trkpt>
      <trkpt lat="46.66471" lon="5.78436">
        <ele>519</ele>
        <time>2025-10-08T14:58:37.816+00:00</time>
      </trkpt>
      <trkpt lat="46.66475" lon="5.7843">
        <ele>518</ele>
        <time>2025-10-08T14:58:42.457+00:00</time>
      </trkpt>
      <trkpt lat="46.66478" lon="5.78425">
        <ele>518</ele>
        <time>2025-10-08T14:58:46.476+00:00</time>
      </trkpt>
      <trkpt lat="46.66482" lon="5.78419">
        <ele>518</ele>
        <time>2025-10-08T14:58:50.743+00:00</time>
      </trkpt>
      <trkpt lat="46.66485" lon="5.78411">
        <ele>518</ele>
        <time>2025-10-08T14:58:55.477+00:00</time>
      </trkpt>
      <trkpt lat="46.66487" lon="5.78404">
        <ele>517</ele>
        <time>2025-10-08T14:58:59.743+00:00</time>
      </trkpt>
      <trkpt lat="46.66489" lon="5.78396">
        <ele>516</ele>
        <time>2025-10-08T14:59:04.061+00:00</time>
      </trkpt>
      <trkpt lat="46.6649" lon="5.78389">
        <ele>516</ele>
        <time>2025-10-08T14:59:08.336+00:00</time>
      </trkpt>
      <trkpt lat="46.66492" lon="5.78381">
        <ele>516</ele>
        <time>2025-10-08T14:59:12.743+00:00</time>
      </trkpt>
      <trkpt lat="46.66493" lon="5.78373">
        <ele>515</ele>
        <time>2025-10-08T14:59:17.391+00:00</time>
      </trkpt>
      <trkpt lat="46.66494" lon="5.78365">
        <ele>515</ele>
        <time>2025-10-08T14:59:21.743+00:00</time>
      </trkpt>
      <trkpt lat="46.66494" lon="5.78357">
        <ele>515</ele>
        <time>2025-10-08T14:59:25.744+00:00</time>
      </trkpt>
      <trkpt lat="46.66494" lon="5.7835">
        <ele>515</ele>
        <time>2025-10-08T14:59:29.771+00:00</time>
      </trkpt>
      <trkpt lat="46.66492" lon="5.78343">
        <ele>514</ele>
        <time>2025-10-08T14:59:34.264+00:00</time>
      </trkpt>
      <trkpt lat="46.66492" lon="5.78336">
        <ele>514</ele>
        <time>2025-10-08T14:59:38.224+00:00</time>
      </trkpt>
      <trkpt lat="46.66492" lon="5.78327">
        <ele>514</ele>
        <time>2025-10-08T14:59:42.743+00:00</time>
      </trkpt>
      <trkpt lat="46.66492" lon="5.7832">
        <ele>514</ele>
        <time>2025-10-08T14:59:47.029+00:00</time>
      </trkpt>
      <trkpt lat="46.66491" lon="5.78313">
        <ele>512</ele>
        <time>2025-10-08T14:59:51.022+00:00</time>
      </trkpt>
      <trkpt lat="46.66489" lon="5.78307">
        <ele>512</ele>
        <time>2025-10-08T15:00:14.743+00:00</time>
      </trkpt>
      <trkpt lat="46.66486" lon="5.78309">
        <ele>513</ele>
        <time>2025-10-08T15:00:19.007+00:00</time>
      </trkpt>
      <trkpt lat="46.66486" lon="5.78316">
        <ele>513</ele>
        <time>2025-10-08T15:00:23.265+00:00</time>
      </trkpt>
      <trkpt lat="46.66486" lon="5.78323">
        <ele>514</ele>
        <time>2025-10-08T15:00:27.667+00:00</time>
      </trkpt>
      <trkpt lat="46.66492" lon="5.78324">
        <ele>514</ele>
        <time>2025-10-08T15:00:32.071+00:00</time>
      </trkpt>
      <trkpt lat="46.66496" lon="5.7832">
        <ele>514</ele>
        <time>2025-10-08T15:01:33.512+00:00</time>
      </trkpt>
      <trkpt lat="46.6649" lon="5.78314">
        <ele>512</ele>
        <time>2025-10-08T15:01:37.708+00:00</time>
      </trkpt>
      <trkpt lat="46.66488" lon="5.78305">
        <ele>512</ele>
        <time>2025-10-08T15:01:41.743+00:00</time>
      </trkpt>
      <trkpt lat="46.66491" lon="5.78299">
        <ele>512</ele>
        <time>2025-10-08T15:01:45.743+00:00</time>
      </trkpt>
      <trkpt lat="46.66492" lon="5.78296">
        <ele>512</ele>
        <time>2025-10-08T15:01:50.744+00:00</time>
      </trkpt>
      <trkpt lat="46.66489" lon="5.78294">
        <ele>512</ele>
        <time>2025-10-08T15:02:22.743+00:00</time>
      </trkpt>
      <trkpt lat="46.66492" lon="5.78291">
        <ele>512</ele>
        <time>2025-10-08T15:02:27.743+00:00</time>
      </trkpt>
      <trkpt lat="46.66492" lon="5.78284">
        <ele>512</ele>
        <time>2025-10-08T15:02:31.871+00:00</time>
      </trkpt>
      <trkpt lat="46.66487" lon="5.78283">
        <ele>512</ele>
        <time>2025-10-08T15:02:35.948+00:00</time>
      </trkpt>
      <trkpt lat="46.66482" lon="5.78281">
        <ele>513</ele>
        <time>2025-10-08T15:02:40.249+00:00</time>
      </trkpt>
      <trkpt lat="46.66477" lon="5.78277">
        <ele>513</ele>
        <time>2025-10-08T15:02:44.507+00:00</time>
      </trkpt>
      <trkpt lat="46.66473" lon="5.78271">
        <ele>513</ele>
        <time>2025-10-08T15:02:48.743+00:00</time>
      </trkpt>
      <trkpt lat="46.66472" lon="5.78261">
        <ele>514</ele>
        <time>2025-10-08T15:02:53.743+00:00</time>
      </trkpt>
      <trkpt lat="46.6647" lon="5.78254">
        <ele>514</ele>
        <time>2025-10-08T15:02:58.047+00:00</time>
      </trkpt>
      <trkpt lat="46.66469" lon="5.78246">
        <ele>514</ele>
        <time>2025-10-08T15:03:02.271+00:00</time>
      </trkpt>
      <trkpt lat="46.66472" lon="5.78241">
        <ele>514</ele>
        <time>2025-10-08T15:03:06.468+00:00</time>
      </trkpt>
      <trkpt lat="46.66475" lon="5.78235">
        <ele>516</ele>
        <time>2025-10-08T15:03:11.574+00:00</time>
      </trkpt>
      <trkpt lat="46.6648" lon="5.78233">
        <ele>516</ele>
        <time>2025-10-08T15:03:15.743+00:00</time>
      </trkpt>
      <trkpt lat="46.66486" lon="5.78231">
        <ele>514</ele>
        <time>2025-10-08T15:03:20.265+00:00</time>
      </trkpt>
      <trkpt lat="46.66492" lon="5.78228">
        <ele>514</ele>
        <time>2025-10-08T15:03:24.743+00:00</time>
      </trkpt>
      <trkpt lat="46.66496" lon="5.78224">
        <ele>514</ele>
        <time>2025-10-08T15:03:29.343+00:00</time>
      </trkpt>
      <trkpt lat="46.66501" lon="5.78221">
        <ele>514</ele>
        <time>2025-10-08T15:03:33.766+00:00</time>
      </trkpt>
      <trkpt lat="46.66507" lon="5.78218">
        <ele>514</ele>
        <time>2025-10-08T15:03:38.584+00:00</time>
      </trkpt>
      <trkpt lat="46.66512" lon="5.78214">
        <ele>514</ele>
        <time>2025-10-08T15:03:43.550+00:00</time>
      </trkpt>
      <trkpt lat="46.66516" lon="5.78209">
        <ele>511</ele>
        <time>2025-10-08T15:03:47.743+00:00</time>
      </trkpt>
      <trkpt lat="46.66521" lon="5.78203">
        <ele>510</ele>
        <time>2025-10-08T15:03:52.585+00:00</time>
      </trkpt>
      <trkpt lat="46.66525" lon="5.78197">
        <ele>510</ele>
        <time>2025-10-08T15:03:56.705+00:00</time>
      </trkpt>
      <trkpt lat="46.66528" lon="5.78192">
        <ele>510</ele>
        <time>2025-10-08T15:04:00.743+00:00</time>
      </trkpt>
      <trkpt lat="46.66532" lon="5.78186">
        <ele>510</ele>
        <time>2025-10-08T15:04:05.231+00:00</time>
      </trkpt>
      <trkpt lat="46.66537" lon="5.78182">
        <ele>510</ele>
        <time>2025-10-08T15:04:09.624+00:00</time>
      </trkpt>
      <trkpt lat="46.66543" lon="5.78185">
        <ele>506</ele>
        <time>2025-10-08T15:04:13.744+00:00</time>
      </trkpt>
      <trkpt lat="46.6655" lon="5.78188">
        <ele>506</ele>
        <time>2025-10-08T15:04:18.548+00:00</time>
      </trkpt>
      <trkpt lat="46.66555" lon="5.78189">
        <ele>506</ele>
        <time>2025-10-08T15:04:23.087+00:00</time>
      </trkpt>
      <trkpt lat="46.66561" lon="5.78189">
        <ele>506</ele>
        <time>2025-10-08T15:04:27.743+00:00</time>
      </trkpt>
      <trkpt lat="46.66567" lon="5.78189">
        <ele>506</ele>
        <time>2025-10-08T15:04:32.372+00:00</time>
      </trkpt>
      <trkpt lat="46.66572" lon="5.78187">
        <ele>504</ele>
        <time>2025-10-08T15:04:36.744+00:00</time>
      </trkpt>
      <trkpt lat="46.66578" lon="5.78187">
        <ele>504</ele>
        <time>2025-10-08T15:04:41.244+00:00</time>
      </trkpt>
      <trkpt lat="46.66584" lon="5.78189">
        <ele>504</ele>
        <time>2025-10-08T15:04:45.705+00:00</time>
      </trkpt>
      <trkpt lat="46.66588" lon="5.78191">
        <ele>504</ele>
        <time>2025-10-08T15:04:49.744+00:00</time>
      </trkpt>
      <trkpt lat="46.66594" lon="5.78192">
        <ele>504</ele>
        <time>2025-10-08T15:04:54.409+00:00</time>
      </trkpt>
      <trkpt lat="46.66599" lon="5.78193">
        <ele>501</ele>
        <time>2025-10-08T15:04:58.744+00:00</time>
      </trkpt>
      <trkpt lat="46.66605" lon="5.78193">
        <ele>501</ele>
        <time>2025-10-08T15:05:03.427+00:00</time>
      </trkpt>
      <trkpt lat="46.66611" lon="5.78193">
        <ele>501</ele>
        <time>2025-10-08T15:05:07.743+00:00</time>
      </trkpt>
      <trkpt lat="46.66616" lon="5.78192">
        <ele>501</ele>
        <time>2025-10-08T15:05:12.391+00:00</time>
      </trkpt>
      <trkpt lat="46.66621" lon="5.78193">
        <ele>501</ele>
        <time>2025-10-08T15:05:16.743+00:00</time>
      </trkpt>
      <trkpt lat="46.66626" lon="5.7819">
        <ele>496</ele>
        <time>2025-10-08T15:05:21.371+00:00</time>
      </trkpt>
      <trkpt lat="46.66631" lon="5.78189">
        <ele>496</ele>
        <time>2025-10-08T15:05:25.851+00:00</time>
      </trkpt>
      <trkpt lat="46.66637" lon="5.78186">
        <ele>496</ele>
        <time>2025-10-08T15:05:30.743+00:00</time>
      </trkpt>
      <trkpt lat="46.66642" lon="5.7818">
        <ele>495</ele>
        <time>2025-10-08T15:05:35.183+00:00</time>
      </trkpt>
      <trkpt lat="46.66645" lon="5.78174">
        <ele>495</ele>
        <time>2025-10-08T15:05:39.245+00:00</time>
      </trkpt>
      <trkpt lat="46.66645" lon="5.78165">
        <ele>495</ele>
        <time>2025-10-08T15:05:43.528+00:00</time>
      </trkpt>
      <trkpt lat="46.66645" lon="5.78157">
        <ele>495</ele>
        <time>2025-10-08T15:05:47.743+00:00</time>
      </trkpt>
      <trkpt lat="46.66644" lon="5.78147">
        <ele>494</ele>
        <time>2025-10-08T15:05:52.367+00:00</time>
      </trkpt>
      <trkpt lat="46.66643" lon="5.78139">
        <ele>494</ele>
        <time>2025-10-08T15:05:56.796+00:00</time>
      </trkpt>
      <trkpt lat="46.66642" lon="5.7813">
        <ele>494</ele>
        <time>2025-10-08T15:06:01.430+00:00</time>
      </trkpt>
      <trkpt lat="46.66643" lon="5.78122">
        <ele>494</ele>
        <time>2025-10-08T15:06:06.011+00:00</time>
      </trkpt>
      <trkpt lat="46.66643" lon="5.78113">
        <ele>494</ele>
        <time>2025-10-08T15:06:10.743+00:00</time>
      </trkpt>
      <trkpt lat="46.66642" lon="5.78104">
        <ele>494</ele>
        <time>2025-10-08T15:06:15.430+00:00</time>
      </trkpt>
      <trkpt lat="46.66641" lon="5.78095">
        <ele>495</ele>
        <time>2025-10-08T15:06:19.850+00:00</time>
      </trkpt>
      <trkpt lat="46.66641" lon="5.78086">
        <ele>495</ele>
        <time>2025-10-08T15:06:24.269+00:00</time>
      </trkpt>
      <trkpt lat="46.6664" lon="5.78077">
        <ele>495</ele>
        <time>2025-10-08T15:06:28.743+00:00</time>
      </trkpt>
      <trkpt lat="46.6664" lon="5.78068">
        <ele>495</ele>
        <time>2025-10-08T15:06:33.272+00:00</time>
      </trkpt>
      <trkpt lat="46.66644" lon="5.78067">
        <ele>495</ele>
        <time>2025-10-08T15:06:36.743+00:00</time>
      </trkpt>
      <trkpt lat="46.66644" lon="5.7807">
        <ele>495</ele>
        <time>2025-10-08T15:06:45.233+00:00</time>
      </trkpt>
      <trkpt lat="46.66644" lon="5.7806">
        <ele>495</ele>
        <time>2025-10-08T15:06:49.742+00:00</time>
      </trkpt>
      <trkpt lat="46.66645" lon="5.78049">
        <ele>495</ele>
        <time>2025-10-08T15:06:53.742+00:00</time>
      </trkpt>
      <trkpt lat="46.66645" lon="5.78037">
        <ele>495</ele>
        <time>2025-10-08T15:06:58.591+00:00</time>
      </trkpt>
      <trkpt lat="46.66639" lon="5.78027">
        <ele>495</ele>
        <time>2025-10-08T15:07:02.742+00:00</time>
      </trkpt>
      <trkpt lat="46.66638" lon="5.78015">
        <ele>495</ele>
        <time>2025-10-08T15:07:07.742+00:00</time>
      </trkpt>
      <trkpt lat="46.66638" lon="5.78003">
        <ele>496</ele>
        <time>2025-10-08T15:07:12.742+00:00</time>
      </trkpt>
      <trkpt lat="46.66638" lon="5.77991">
        <ele>496</ele>
        <time>2025-10-08T15:07:17.445+00:00</time>
      </trkpt>
      <trkpt lat="46.66638" lon="5.77978">
        <ele>497</ele>
        <time>2025-10-08T15:07:22.742+00:00</time>
      </trkpt>
      <trkpt lat="46.66637" lon="5.77968">
        <ele>497</ele>
        <time>2025-10-08T15:07:27.071+00:00</time>
      </trkpt>
      <trkpt lat="46.66637" lon="5.7796">
        <ele>497</ele>
        <time>2025-10-08T15:07:31.643+00:00</time>
      </trkpt>
      <trkpt lat="46.66637" lon="5.77952">
        <ele>497</ele>
        <time>2025-10-08T15:07:35.742+00:00</time>
      </trkpt>
      <trkpt lat="46.66639" lon="5.77944">
        <ele>497</ele>
        <time>2025-10-08T15:07:39.749+00:00</time>
      </trkpt>
      <trkpt lat="46.66642" lon="5.77938">
        <ele>497</ele>
        <time>2025-10-08T15:07:43.742+00:00</time>
      </trkpt>
      <trkpt lat="46.66644" lon="5.77931">
        <ele>497</ele>
        <time>2025-10-08T15:07:47.846+00:00</time>
      </trkpt>
      <trkpt lat="46.66649" lon="5.77921">
        <ele>497</ele>
        <time>2025-10-08T15:08:08.950+00:00</time>
      </trkpt>
      <trkpt lat="46.66648" lon="5.77915">
        <ele>497</ele>
        <time>2025-10-08T15:08:13.271+00:00</time>
      </trkpt>
      <trkpt lat="46.66646" lon="5.77903">
        <ele>497</ele>
        <time>2025-10-08T15:08:17.711+00:00</time>
      </trkpt>
      <trkpt lat="46.66648" lon="5.77892">
        <ele>497</ele>
        <time>2025-10-08T15:08:23.007+00:00</time>
      </trkpt>
      <trkpt lat="46.66651" lon="5.77883">
        <ele>497</ele>
        <time>2025-10-08T15:08:27.350+00:00</time>
      </trkpt>
      <trkpt lat="46.66653" lon="5.77876">
        <ele>487</ele>
        <time>2025-10-08T15:08:31.608+00:00</time>
      </trkpt>
      <trkpt lat="46.66655" lon="5.77867">
        <ele>489</ele>
        <time>2025-10-08T15:08:35.865+00:00</time>
      </trkpt>
      <trkpt lat="46.66656" lon="5.77859">
        <ele>489</ele>
        <time>2025-10-08T15:08:40.371+00:00</time>
      </trkpt>
      <trkpt lat="46.66656" lon="5.77851">
        <ele>489</ele>
        <time>2025-10-08T15:08:44.423+00:00</time>
      </trkpt>
      <trkpt lat="46.66655" lon="5.77843">
        <ele>492</ele>
        <time>2025-10-08T15:08:48.743+00:00</time>
      </trkpt>
      <trkpt lat="46.66654" lon="5.77834">
        <ele>492</ele>
        <time>2025-10-08T15:08:53.143+00:00</time>
      </trkpt>
      <trkpt lat="46.66653" lon="5.77824">
        <ele>492</ele>
        <time>2025-10-08T15:08:57.590+00:00</time>
      </trkpt>
      <trkpt lat="46.66653" lon="5.77816">
        <ele>492</ele>
        <time>2025-10-08T15:09:02.012+00:00</time>
      </trkpt>
      <trkpt lat="46.66654" lon="5.77807">
        <ele>492</ele>
        <time>2025-10-08T15:09:06.584+00:00</time>
      </trkpt>
      <trkpt lat="46.66653" lon="5.77799">
        <ele>495</ele>
        <time>2025-10-08T15:09:11.064+00:00</time>
      </trkpt>
      <trkpt lat="46.66651" lon="5.77789">
        <ele>493</ele>
        <time>2025-10-08T15:09:15.742+00:00</time>
      </trkpt>
      <trkpt lat="46.66651" lon="5.7778">
        <ele>493</ele>
        <time>2025-10-08T15:09:19.909+00:00</time>
      </trkpt>
      <trkpt lat="46.66651" lon="5.77771">
        <ele>493</ele>
        <time>2025-10-08T15:09:24.128+00:00</time>
      </trkpt>
      <trkpt lat="46.6665" lon="5.77762">
        <ele>491</ele>
        <time>2025-10-08T15:09:28.742+00:00</time>
      </trkpt>
      <trkpt lat="46.66649" lon="5.77754">
        <ele>491</ele>
        <time>2025-10-08T15:09:32.742+00:00</time>
      </trkpt>
      <trkpt lat="46.66649" lon="5.77744">
        <ele>491</ele>
        <time>2025-10-08T15:09:37.703+00:00</time>
      </trkpt>
      <trkpt lat="46.66649" lon="5.77735">
        <ele>489</ele>
        <time>2025-10-08T15:09:41.742+00:00</time>
      </trkpt>
      <trkpt lat="46.66649" lon="5.77726">
        <ele>489</ele>
        <time>2025-10-08T15:09:46.365+00:00</time>
      </trkpt>
      <trkpt lat="46.66648" lon="5.77716">
        <ele>489</ele>
        <time>2025-10-08T15:09:50.503+00:00</time>
      </trkpt>
      <trkpt lat="46.66647" lon="5.77706">
        <ele>487</ele>
        <time>2025-10-08T15:09:54.746+00:00</time>
      </trkpt>
      <trkpt lat="46.66647" lon="5.77695">
        <ele>487</ele>
        <time>2025-10-08T15:09:58.742+00:00</time>
      </trkpt>
      <trkpt lat="46.66647" lon="5.77685">
        <ele>487</ele>
        <time>2025-10-08T15:10:03.550+00:00</time>
      </trkpt>
      <trkpt lat="46.66647" lon="5.77675">
        <ele>485</ele>
        <time>2025-10-08T15:10:07.742+00:00</time>
      </trkpt>
      <trkpt lat="46.66647" lon="5.77666">
        <ele>485</ele>
        <time>2025-10-08T15:10:12.584+00:00</time>
      </trkpt>
      <trkpt lat="46.66647" lon="5.77658">
        <ele>485</ele>
        <time>2025-10-08T15:10:16.749+00:00</time>
      </trkpt>
      <trkpt lat="46.66647" lon="5.7765">
        <ele>487</ele>
        <time>2025-10-08T15:10:21.288+00:00</time>
      </trkpt>
      <trkpt lat="46.66645" lon="5.77641">
        <ele>487</ele>
        <time>2025-10-08T15:10:25.742+00:00</time>
      </trkpt>
      <trkpt lat="46.66645" lon="5.77632">
        <ele>487</ele>
        <time>2025-10-08T15:10:30.665+00:00</time>
      </trkpt>
      <trkpt lat="46.66644" lon="5.77624">
        <ele>490</ele>
        <time>2025-10-08T15:10:34.742+00:00</time>
      </trkpt>
      <trkpt lat="46.66643" lon="5.77615">
        <ele>490</ele>
        <time>2025-10-08T15:10:39.530+00:00</time>
      </trkpt>
      <trkpt lat="46.66641" lon="5.77607">
        <ele>490</ele>
        <time>2025-10-08T15:10:43.743+00:00</time>
      </trkpt>
      <trkpt lat="46.66637" lon="5.77599">
        <ele>490</ele>
        <time>2025-10-08T15:10:48.344+00:00</time>
      </trkpt>
      <trkpt lat="46.66634" lon="5.77594">
        <ele>492</ele>
        <time>2025-10-08T15:10:52.626+00:00</time>
      </trkpt>
      <trkpt lat="46.66632" lon="5.77587">
        <ele>492</ele>
        <time>2025-10-08T15:10:56.731+00:00</time>
      </trkpt>
      <trkpt lat="46.6663" lon="5.77582">
        <ele>492</ele>
        <time>2025-10-08T15:11:00.742+00:00</time>
      </trkpt>
      <trkpt lat="46.6663" lon="5.77576">
        <ele>492</ele>
        <time>2025-10-08T15:11:05.348+00:00</time>
      </trkpt>
      <trkpt lat="46.66627" lon="5.77568">
        <ele>493</ele>
        <time>2025-10-08T15:11:18.742+00:00</time>
      </trkpt>
      <trkpt lat="46.66627" lon="5.77565">
        <ele>493</ele>
        <time>2025-10-08T15:11:23.743+00:00</time>
      </trkpt>
      <trkpt lat="46.66628" lon="5.77563">
        <ele>493</ele>
        <time>2025-10-08T15:11:28.010+00:00</time>
      </trkpt>
      <trkpt lat="46.66628" lon="5.77559">
        <ele>493</ele>
        <time>2025-10-08T15:11:32.742+00:00</time>
      </trkpt>
      <trkpt lat="46.6663" lon="5.77555">
        <ele>493</ele>
        <time>2025-10-08T15:11:37.343+00:00</time>
      </trkpt>
      <trkpt lat="46.66636" lon="5.77544">
        <ele>493</ele>
        <time>2025-10-08T15:12:40.743+00:00</time>
      </trkpt>
      <trkpt lat="46.66636" lon="5.77535">
        <ele>492</ele>
        <time>2025-10-08T15:12:45.743+00:00</time>
      </trkpt>
      <trkpt lat="46.66637" lon="5.77528">
        <ele>492</ele>
        <time>2025-10-08T15:12:50.743+00:00</time>
      </trkpt>
      <trkpt lat="46.66637" lon="5.77519">
        <ele>492</ele>
        <time>2025-10-08T15:12:54.884+00:00</time>
      </trkpt>
      <trkpt lat="46.66639" lon="5.77511">
        <ele>492</ele>
        <time>2025-10-08T15:12:59.109+00:00</time>
      </trkpt>
      <trkpt lat="46.6664" lon="5.77502">
        <ele>492</ele>
        <time>2025-10-08T15:13:03.742+00:00</time>
      </trkpt>
      <trkpt lat="46.6664" lon="5.77494">
        <ele>492</ele>
        <time>2025-10-08T15:13:08.485+00:00</time>
      </trkpt>
      <trkpt lat="46.66641" lon="5.77485">
        <ele>493</ele>
        <time>2025-10-08T15:13:13.143+00:00</time>
      </trkpt>
      <trkpt lat="46.66642" lon="5.77477">
        <ele>493</ele>
        <time>2025-10-08T15:13:17.771+00:00</time>
      </trkpt>
      <trkpt lat="46.66643" lon="5.77469">
        <ele>493</ele>
        <time>2025-10-08T15:13:22.530+00:00</time>
      </trkpt>
      <trkpt lat="46.66643" lon="5.77461">
        <ele>493</ele>
        <time>2025-10-08T15:13:27.145+00:00</time>
      </trkpt>
      <trkpt lat="46.66644" lon="5.77454">
        <ele>493</ele>
        <time>2025-10-08T15:13:31.742+00:00</time>
      </trkpt>
      <trkpt lat="46.66645" lon="5.77444">
        <ele>493</ele>
        <time>2025-10-08T15:13:36.651+00:00</time>
      </trkpt>
      <trkpt lat="46.66647" lon="5.77435">
        <ele>493</ele>
        <time>2025-10-08T15:13:41.385+00:00</time>
      </trkpt>
      <trkpt lat="46.66648" lon="5.77427">
        <ele>493</ele>
        <time>2025-10-08T15:13:46.070+00:00</time>
      </trkpt>
      <trkpt lat="46.66648" lon="5.77419">
        <ele>493</ele>
        <time>2025-10-08T15:13:50.686+00:00</time>
      </trkpt>
      <trkpt lat="46.66649" lon="5.77411">
        <ele>493</ele>
        <time>2025-10-08T15:13:54.742+00:00</time>
      </trkpt>
      <trkpt lat="46.66649" lon="5.77403">
        <ele>493</ele>
        <time>2025-10-08T15:13:59.232+00:00</time>
      </trkpt>
      <trkpt lat="46.6665" lon="5.77395">
        <ele>494</ele>
        <time>2025-10-08T15:14:03.510+00:00</time>
      </trkpt>
      <trkpt lat="46.66652" lon="5.77387">
        <ele>494</ele>
        <time>2025-10-08T15:14:08.289+00:00</time>
      </trkpt>
      <trkpt lat="46.66653" lon="5.77379">
        <ele>494</ele>
        <time>2025-10-08T15:14:12.742+00:00</time>
      </trkpt>
      <trkpt lat="46.66654" lon="5.77371">
        <ele>490</ele>
        <time>2025-10-08T15:14:16.785+00:00</time>
      </trkpt>
      <trkpt lat="46.66656" lon="5.77364">
        <ele>490</ele>
        <time>2025-10-08T15:14:21.481+00:00</time>
      </trkpt>
      <trkpt lat="46.66657" lon="5.77357">
        <ele>490</ele>
        <time>2025-10-08T15:14:25.678+00:00</time>
      </trkpt>
      <trkpt lat="46.66658" lon="5.7735">
        <ele>490</ele>
        <time>2025-10-08T15:14:29.742+00:00</time>
      </trkpt>
      <trkpt lat="46.66659" lon="5.77342">
        <ele>490</ele>
        <time>2025-10-08T15:14:34.201+00:00</time>
      </trkpt>
      <trkpt lat="46.6666" lon="5.77335">
        <ele>490</ele>
        <time>2025-10-08T15:14:38.212+00:00</time>
      </trkpt>
      <trkpt lat="46.66661" lon="5.77327">
        <ele>490</ele>
        <time>2025-10-08T15:14:42.741+00:00</time>
      </trkpt>
      <trkpt lat="46.66662" lon="5.77318">
        <ele>491</ele>
        <time>2025-10-08T15:14:47.743+00:00</time>
      </trkpt>
      <trkpt lat="46.66664" lon="5.77311">
        <ele>491</ele>
        <time>2025-10-08T15:14:52.418+00:00</time>
      </trkpt>
      <trkpt lat="46.66665" lon="5.77303">
        <ele>491</ele>
        <time>2025-10-08T15:14:57.103+00:00</time>
      </trkpt>
      <trkpt lat="46.66666" lon="5.77295">
        <ele>491</ele>
        <time>2025-10-08T15:15:01.497+00:00</time>
      </trkpt>
      <trkpt lat="46.66666" lon="5.77287">
        <ele>492</ele>
        <time>2025-10-08T15:15:05.742+00:00</time>
      </trkpt>
      <trkpt lat="46.66667" lon="5.7728">
        <ele>492</ele>
        <time>2025-10-08T15:15:09.816+00:00</time>
      </trkpt>
      <trkpt lat="46.66668" lon="5.77272">
        <ele>492</ele>
        <time>2025-10-08T15:15:14.442+00:00</time>
      </trkpt>
      <trkpt lat="46.66669" lon="5.77264">
        <ele>492</ele>
        <time>2025-10-08T15:15:18.639+00:00</time>
      </trkpt>
      <trkpt lat="46.6667" lon="5.77256">
        <ele>494</ele>
        <time>2025-10-08T15:15:23.119+00:00</time>
      </trkpt>
      <trkpt lat="46.66672" lon="5.77247">
        <ele>494</ele>
        <time>2025-10-08T15:15:27.762+00:00</time>
      </trkpt>
      <trkpt lat="46.66673" lon="5.77238">
        <ele>494</ele>
        <time>2025-10-08T15:15:32.256+00:00</time>
      </trkpt>
      <trkpt lat="46.66674" lon="5.77229">
        <ele>494</ele>
        <time>2025-10-08T15:15:36.741+00:00</time>
      </trkpt>
      <trkpt lat="46.66676" lon="5.77221">
        <ele>494</ele>
        <time>2025-10-08T15:15:41.420+00:00</time>
      </trkpt>
      <trkpt lat="46.66677" lon="5.77213">
        <ele>494</ele>
        <time>2025-10-08T15:15:45.741+00:00</time>
      </trkpt>
      <trkpt lat="46.66678" lon="5.77204">
        <ele>494</ele>
        <time>2025-10-08T15:15:50.483+00:00</time>
      </trkpt>
      <trkpt lat="46.66679" lon="5.77197">
        <ele>494</ele>
        <time>2025-10-08T15:15:54.741+00:00</time>
      </trkpt>
      <trkpt lat="46.6668" lon="5.77189">
        <ele>494</ele>
        <time>2025-10-08T15:15:58.998+00:00</time>
      </trkpt>
      <trkpt lat="46.66682" lon="5.7718">
        <ele>492</ele>
        <time>2025-10-08T15:16:03.742+00:00</time>
      </trkpt>
      <trkpt lat="46.66683" lon="5.77172">
        <ele>492</ele>
        <time>2025-10-08T15:16:07.982+00:00</time>
      </trkpt>
      <trkpt lat="46.66684" lon="5.77164">
        <ele>492</ele>
        <time>2025-10-08T15:16:12.402+00:00</time>
      </trkpt>
      <trkpt lat="46.66686" lon="5.77156">
        <ele>492</ele>
        <time>2025-10-08T15:16:16.497+00:00</time>
      </trkpt>
      <trkpt lat="46.66687" lon="5.77148">
        <ele>492</ele>
        <time>2025-10-08T15:16:20.741+00:00</time>
      </trkpt>
      <trkpt lat="46.66687" lon="5.77139">
        <ele>492</ele>
        <time>2025-10-08T15:16:24.843+00:00</time>
      </trkpt>
      <trkpt lat="46.66688" lon="5.77131">
        <ele>492</ele>
        <time>2025-10-08T15:16:29.041+00:00</time>
      </trkpt>
      <trkpt lat="46.6669" lon="5.77123">
        <ele>491</ele>
        <time>2025-10-08T15:16:33.622+00:00</time>
      </trkpt>
      <trkpt lat="46.66691" lon="5.77115">
        <ele>491</ele>
        <time>2025-10-08T15:16:37.741+00:00</time>
      </trkpt>
      <trkpt lat="46.66692" lon="5.77107">
        <ele>491</ele>
        <time>2025-10-08T15:16:42.196+00:00</time>
      </trkpt>
      <trkpt lat="46.66693" lon="5.77099">
        <ele>491</ele>
        <time>2025-10-08T15:16:46.343+00:00</time>
      </trkpt>
      <trkpt lat="46.66694" lon="5.77092">
        <ele>491</ele>
        <time>2025-10-08T15:16:50.741+00:00</time>
      </trkpt>
      <trkpt lat="46.66695" lon="5.77084">
        <ele>491</ele>
        <time>2025-10-08T15:16:54.901+00:00</time>
      </trkpt>
      <trkpt lat="46.66696" lon="5.77076">
        <ele>491</ele>
        <time>2025-10-08T15:16:59.024+00:00</time>
      </trkpt>
      <trkpt lat="46.66697" lon="5.77068">
        <ele>492</ele>
        <time>2025-10-08T15:17:03.623+00:00</time>
      </trkpt>
      <trkpt lat="46.66698" lon="5.7706">
        <ele>492</ele>
        <time>2025-10-08T15:17:07.741+00:00</time>
      </trkpt>
      <trkpt lat="46.667" lon="5.77052">
        <ele>492</ele>
        <time>2025-10-08T15:17:12.343+00:00</time>
      </trkpt>
      <trkpt lat="46.66702" lon="5.77045">
        <ele>492</ele>
        <time>2025-10-08T15:17:16.582+00:00</time>
      </trkpt>
      <trkpt lat="46.66703" lon="5.77038">
        <ele>493</ele>
        <time>2025-10-08T15:17:21.164+00:00</time>
      </trkpt>
      <trkpt lat="46.66708" lon="5.77033">
        <ele>493</ele>
        <time>2025-10-08T15:17:25.616+00:00</time>
      </trkpt>
      <trkpt lat="46.66713" lon="5.77033">
        <ele>490</ele>
        <time>2025-10-08T15:17:34.720+00:00</time>
      </trkpt>
      <trkpt lat="46.66716" lon="5.77032">
        <ele>490</ele>
        <time>2025-10-08T15:17:38.741+00:00</time>
      </trkpt>
      <trkpt lat="46.66718" lon="5.77031">
        <ele>490</ele>
        <time>2025-10-08T15:17:43.603+00:00</time>
      </trkpt>
      <trkpt lat="46.66719" lon="5.77037">
        <ele>490</ele>
        <time>2025-10-08T15:17:48.380+00:00</time>
      </trkpt>
      <trkpt lat="46.66727" lon="5.77018">
        <ele>490</ele>
        <time>2025-10-08T15:17:52.620+00:00</time>
      </trkpt>
      <trkpt lat="46.66731" lon="5.77017">
        <ele>490</ele>
        <time>2025-10-08T15:17:56.683+00:00</time>
      </trkpt>
      <trkpt lat="46.66737" lon="5.77014">
        <ele>491</ele>
        <time>2025-10-08T15:18:01.058+00:00</time>
      </trkpt>
      <trkpt lat="46.66744" lon="5.77016">
        <ele>491</ele>
        <time>2025-10-08T15:18:05.741+00:00</time>
      </trkpt>
      <trkpt lat="46.6675" lon="5.77017">
        <ele>491</ele>
        <time>2025-10-08T15:18:10.741+00:00</time>
      </trkpt>
      <trkpt lat="46.66756" lon="5.77018">
        <ele>491</ele>
        <time>2025-10-08T15:18:15.378+00:00</time>
      </trkpt>
      <trkpt lat="46.66762" lon="5.77019">
        <ele>491</ele>
        <time>2025-10-08T15:18:19.741+00:00</time>
      </trkpt>
      <trkpt lat="46.66767" lon="5.7702">
        <ele>493</ele>
        <time>2025-10-08T15:18:24.182+00:00</time>
      </trkpt>
      <trkpt lat="46.66773" lon="5.77021">
        <ele>493</ele>
        <time>2025-10-08T15:18:28.320+00:00</time>
      </trkpt>
      <trkpt lat="46.66778" lon="5.77021">
        <ele>493</ele>
        <time>2025-10-08T15:18:32.518+00:00</time>
      </trkpt>
      <trkpt lat="46.66784" lon="5.77021">
        <ele>493</ele>
        <time>2025-10-08T15:18:37.100+00:00</time>
      </trkpt>
      <trkpt lat="46.6679" lon="5.77022">
        <ele>493</ele>
        <time>2025-10-08T15:18:41.639+00:00</time>
      </trkpt>
      <trkpt lat="46.66795" lon="5.77023">
        <ele>493</ele>
        <time>2025-10-08T15:18:45.742+00:00</time>
      </trkpt>
      <trkpt lat="46.66801" lon="5.77023">
        <ele>493</ele>
        <time>2025-10-08T15:18:49.976+00:00</time>
      </trkpt>
      <trkpt lat="46.66807" lon="5.77023">
        <ele>493</ele>
        <time>2025-10-08T15:18:54.420+00:00</time>
      </trkpt>
      <trkpt lat="46.66813" lon="5.77024">
        <ele>493</ele>
        <time>2025-10-08T15:18:58.456+00:00</time>
      </trkpt>
      <trkpt lat="46.66818" lon="5.77025">
        <ele>493</ele>
        <time>2025-10-08T15:19:02.741+00:00</time>
      </trkpt>
      <trkpt lat="46.66829" lon="5.77027">
        <ele>492</ele>
        <time>2025-10-08T15:19:30.742+00:00</time>
      </trkpt>
      <trkpt lat="46.66829" lon="5.77027">
        <ele>492</ele>
        <time>2025-10-08T15:19:36.741+00:00</time>
      </trkpt>
      <trkpt lat="46.6683" lon="5.77025">
        <ele>492</ele>
        <time>2025-10-08T15:19:41.741+00:00</time>
      </trkpt>
      <trkpt lat="46.66832" lon="5.7702">
        <ele>492</ele>
        <time>2025-10-08T15:19:46.399+00:00</time>
      </trkpt>
      <trkpt lat="46.66833" lon="5.77008">
        <ele>492</ele>
        <time>2025-10-08T15:19:51.137+00:00</time>
      </trkpt>
      <trkpt lat="46.66833" lon="5.77">
        <ele>492</ele>
        <time>2025-10-08T15:19:55.742+00:00</time>
      </trkpt>
      <trkpt lat="46.66833" lon="5.7699">
        <ele>492</ele>
        <time>2025-10-08T15:20:00.339+00:00</time>
      </trkpt>
      <trkpt lat="46.66833" lon="5.76981">
        <ele>492</ele>
        <time>2025-10-08T15:20:04.741+00:00</time>
      </trkpt>
      <trkpt lat="46.66833" lon="5.76972">
        <ele>492</ele>
        <time>2025-10-08T15:20:09.341+00:00</time>
      </trkpt>
      <trkpt lat="46.66833" lon="5.76963">
        <ele>492</ele>
        <time>2025-10-08T15:20:13.741+00:00</time>
      </trkpt>
      <trkpt lat="46.66833" lon="5.76953">
        <ele>493</ele>
        <time>2025-10-08T15:20:18.419+00:00</time>
      </trkpt>
      <trkpt lat="46.66832" lon="5.76946">
        <ele>493</ele>
        <time>2025-10-08T15:20:22.456+00:00</time>
      </trkpt>
      <trkpt lat="46.66832" lon="5.76939">
        <ele>493</ele>
        <time>2025-10-08T15:20:26.741+00:00</time>
      </trkpt>
      <trkpt lat="46.66832" lon="5.76931">
        <ele>493</ele>
        <time>2025-10-08T15:20:31.296+00:00</time>
      </trkpt>
      <trkpt lat="46.66831" lon="5.76923">
        <ele>493</ele>
        <time>2025-10-08T15:20:35.742+00:00</time>
      </trkpt>
      <trkpt lat="46.66831" lon="5.76915">
        <ele>493</ele>
        <time>2025-10-08T15:20:39.896+00:00</time>
      </trkpt>
      <trkpt lat="46.66831" lon="5.76906">
        <ele>493</ele>
        <time>2025-10-08T15:20:44.519+00:00</time>
      </trkpt>
      <trkpt lat="46.66831" lon="5.76897">
        <ele>494</ele>
        <time>2025-10-08T15:20:48.640+00:00</time>
      </trkpt>
      <trkpt lat="46.66831" lon="5.7689">
        <ele>494</ele>
        <time>2025-10-08T15:20:53.198+00:00</time>
      </trkpt>
      <trkpt lat="46.66831" lon="5.76882">
        <ele>494</ele>
        <time>2025-10-08T15:20:57.693+00:00</time>
      </trkpt>
      <trkpt lat="46.6683" lon="5.76874">
        <ele>494</ele>
        <time>2025-10-08T15:21:01.741+00:00</time>
      </trkpt>
      <trkpt lat="46.6683" lon="5.76865">
        <ele>494</ele>
        <time>2025-10-08T15:21:06.097+00:00</time>
      </trkpt>
      <trkpt lat="46.6683" lon="5.76857">
        <ele>494</ele>
        <time>2025-10-08T15:21:10.201+00:00</time>
      </trkpt>
      <trkpt lat="46.66829" lon="5.7685">
        <ele>494</ele>
        <time>2025-10-08T15:21:14.741+00:00</time>
      </trkpt>
      <trkpt lat="46.66829" lon="5.76841">
        <ele>494</ele>
        <time>2025-10-08T15:21:19.297+00:00</time>
      </trkpt>
      <trkpt lat="46.66829" lon="5.76832">
        <ele>494</ele>
        <time>2025-10-08T15:21:23.741+00:00</time>
      </trkpt>
      <trkpt lat="46.66829" lon="5.76823">
        <ele>494</ele>
        <time>2025-10-08T15:21:28.136+00:00</time>
      </trkpt>
      <trkpt lat="46.66829" lon="5.76815">
        <ele>494</ele>
        <time>2025-10-08T15:21:32.539+00:00</time>
      </trkpt>
      <trkpt lat="46.6683" lon="5.76807">
        <ele>494</ele>
        <time>2025-10-08T15:21:36.659+00:00</time>
      </trkpt>
      <trkpt lat="46.66832" lon="5.76797">
        <ele>494</ele>
        <time>2025-10-08T15:21:51.741+00:00</time>
      </trkpt>
      <trkpt lat="46.66832" lon="5.76795">
        <ele>494</ele>
        <time>2025-10-08T15:21:56.741+00:00</time>
      </trkpt>
      <trkpt lat="46.66832" lon="5.76795">
        <ele>494</ele>
        <time>2025-10-08T15:22:01.742+00:00</time>
      </trkpt>
      <trkpt lat="46.66829" lon="5.76791">
        <ele>494</ele>
        <time>2025-10-08T15:22:06.317+00:00</time>
      </trkpt>
      <trkpt lat="46.66826" lon="5.76784">
        <ele>494</ele>
        <time>2025-10-08T15:22:10.353+00:00</time>
      </trkpt>
      <trkpt lat="46.66822" lon="5.76778">
        <ele>494</ele>
        <time>2025-10-08T15:22:14.741+00:00</time>
      </trkpt>
      <trkpt lat="46.66819" lon="5.76776">
        <ele>495</ele>
        <time>2025-10-08T15:22:19.456+00:00</time>
      </trkpt>
      <trkpt lat="46.66815" lon="5.76774">
        <ele>495</ele>
        <time>2025-10-08T15:22:23.503+00:00</time>
      </trkpt>
      <trkpt lat="46.6681" lon="5.76771">
        <ele>495</ele>
        <time>2025-10-08T15:22:28.578+00:00</time>
      </trkpt>
      <trkpt lat="46.66806" lon="5.76769">
        <ele>495</ele>
        <time>2025-10-08T15:22:32.741+00:00</time>
      </trkpt>
      <trkpt lat="46.66801" lon="5.76766">
        <ele>495</ele>
        <time>2025-10-08T15:22:37.281+00:00</time>
      </trkpt>
      <trkpt lat="46.66796" lon="5.76764">
        <ele>496</ele>
        <time>2025-10-08T15:22:41.539+00:00</time>
      </trkpt>
      <trkpt lat="46.66792" lon="5.76762">
        <ele>496</ele>
        <time>2025-10-08T15:22:45.660+00:00</time>
      </trkpt>
      <trkpt lat="46.66787" lon="5.7676">
        <ele>498</ele>
        <time>2025-10-08T15:22:49.741+00:00</time>
      </trkpt>
      <trkpt lat="46.66782" lon="5.76757">
        <ele>498</ele>
        <time>2025-10-08T15:22:54.216+00:00</time>
      </trkpt>
      <trkpt lat="46.66777" lon="5.76756">
        <ele>498</ele>
        <time>2025-10-08T15:22:58.560+00:00</time>
      </trkpt>
      <trkpt lat="46.66772" lon="5.76753">
        <ele>498</ele>
        <time>2025-10-08T15:23:02.597+00:00</time>
      </trkpt>
      <trkpt lat="46.66767" lon="5.76751">
        <ele>498</ele>
        <time>2025-10-08T15:23:06.741+00:00</time>
      </trkpt>
      <trkpt lat="46.66762" lon="5.76748">
        <ele>501</ele>
        <time>2025-10-08T15:23:11.034+00:00</time>
      </trkpt>
      <trkpt lat="46.66757" lon="5.76746">
        <ele>501</ele>
        <time>2025-10-08T15:23:15.164+00:00</time>
      </trkpt>
      <trkpt lat="46.66752" lon="5.76743">
        <ele>501</ele>
        <time>2025-10-08T15:23:19.740+00:00</time>
      </trkpt>
      <trkpt lat="46.66747" lon="5.76742">
        <ele>501</ele>
        <time>2025-10-08T15:23:24.157+00:00</time>
      </trkpt>
      <trkpt lat="46.66742" lon="5.7674">
        <ele>501</ele>
        <time>2025-10-08T15:23:28.604+00:00</time>
      </trkpt>
      <trkpt lat="46.66738" lon="5.76738">
        <ele>501</ele>
        <time>2025-10-08T15:23:32.740+00:00</time>
      </trkpt>
      <trkpt lat="46.66732" lon="5.76737">
        <ele>500</ele>
        <time>2025-10-08T15:23:37.475+00:00</time>
      </trkpt>
      <trkpt lat="46.66727" lon="5.76737">
        <ele>500</ele>
        <time>2025-10-08T15:23:41.682+00:00</time>
      </trkpt>
      <trkpt lat="46.66723" lon="5.76736">
        <ele>500</ele>
        <time>2025-10-08T15:23:45.717+00:00</time>
      </trkpt>
      <trkpt lat="46.66718" lon="5.76736">
        <ele>502</ele>
        <time>2025-10-08T15:23:49.740+00:00</time>
      </trkpt>
      <trkpt lat="46.66713" lon="5.76736">
        <ele>502</ele>
        <time>2025-10-08T15:23:54.199+00:00</time>
      </trkpt>
      <trkpt lat="46.66708" lon="5.76737">
        <ele>500</ele>
        <time>2025-10-08T15:23:58.296+00:00</time>
      </trkpt>
      <trkpt lat="46.66704" lon="5.76733">
        <ele>501</ele>
        <time>2025-10-08T15:24:02.740+00:00</time>
      </trkpt>
      <trkpt lat="46.66699" lon="5.76731">
        <ele>501</ele>
        <time>2025-10-08T15:24:06.816+00:00</time>
      </trkpt>
      <trkpt lat="46.66694" lon="5.76733">
        <ele>501</ele>
        <time>2025-10-08T15:24:11.220+00:00</time>
      </trkpt>
      <trkpt lat="46.66688" lon="5.76733">
        <ele>501</ele>
        <time>2025-10-08T15:24:15.740+00:00</time>
      </trkpt>
      <trkpt lat="46.66684" lon="5.76729">
        <ele>501</ele>
        <time>2025-10-08T15:24:19.740+00:00</time>
      </trkpt>
      <trkpt lat="46.66681" lon="5.76721">
        <ele>501</ele>
        <time>2025-10-08T15:24:24.600+00:00</time>
      </trkpt>
      <trkpt lat="46.6668" lon="5.76712">
        <ele>506</ele>
        <time>2025-10-08T15:24:29.155+00:00</time>
      </trkpt>
      <trkpt lat="46.66681" lon="5.76704">
        <ele>504</ele>
        <time>2025-10-08T15:24:33.676+00:00</time>
      </trkpt>
      <trkpt lat="46.66682" lon="5.76695">
        <ele>504</ele>
        <time>2025-10-08T15:24:38.156+00:00</time>
      </trkpt>
      <trkpt lat="46.66682" lon="5.76688">
        <ele>504</ele>
        <time>2025-10-08T15:24:42.740+00:00</time>
      </trkpt>
      <trkpt lat="46.66683" lon="5.76679">
        <ele>506</ele>
        <time>2025-10-08T15:24:47.380+00:00</time>
      </trkpt>
      <trkpt lat="46.66684" lon="5.76671">
        <ele>506</ele>
        <time>2025-10-08T15:24:51.740+00:00</time>
      </trkpt>
      <trkpt lat="46.66684" lon="5.76662">
        <ele>506</ele>
        <time>2025-10-08T15:24:56.441+00:00</time>
      </trkpt>
      <trkpt lat="46.66685" lon="5.76654">
        <ele>506</ele>
        <time>2025-10-08T15:25:00.740+00:00</time>
      </trkpt>
      <trkpt lat="46.66687" lon="5.76647">
        <ele>506</ele>
        <time>2025-10-08T15:25:05.059+00:00</time>
      </trkpt>
      <trkpt lat="46.66688" lon="5.76639">
        <ele>506</ele>
        <time>2025-10-08T15:25:09.213+00:00</time>
      </trkpt>
      <trkpt lat="46.66688" lon="5.76631">
        <ele>506</ele>
        <time>2025-10-08T15:25:13.740+00:00</time>
      </trkpt>
      <trkpt lat="46.66691" lon="5.76624">
        <ele>508</ele>
        <time>2025-10-08T15:25:18.122+00:00</time>
      </trkpt>
      <trkpt lat="46.66691" lon="5.76617">
        <ele>508</ele>
        <time>2025-10-08T15:25:22.336+00:00</time>
      </trkpt>
      <trkpt lat="46.66691" lon="5.76609">
        <ele>508</ele>
        <time>2025-10-08T15:25:26.499+00:00</time>
      </trkpt>
      <trkpt lat="46.66691" lon="5.76602">
        <ele>508</ele>
        <time>2025-10-08T15:25:30.740+00:00</time>
      </trkpt>
      <trkpt lat="46.66692" lon="5.76594">
        <ele>509</ele>
        <time>2025-10-08T15:25:35.120+00:00</time>
      </trkpt>
      <trkpt lat="46.66693" lon="5.76587">
        <ele>509</ele>
        <time>2025-10-08T15:25:39.315+00:00</time>
      </trkpt>
      <trkpt lat="46.66694" lon="5.7658">
        <ele>509</ele>
        <time>2025-10-08T15:25:43.458+00:00</time>
      </trkpt>
      <trkpt lat="46.66695" lon="5.76572">
        <ele>509</ele>
        <time>2025-10-08T15:25:47.639+00:00</time>
      </trkpt>
      <trkpt lat="46.66695" lon="5.76565">
        <ele>510</ele>
        <time>2025-10-08T15:25:51.740+00:00</time>
      </trkpt>
      <trkpt lat="46.66696" lon="5.76558">
        <ele>510</ele>
        <time>2025-10-08T15:25:55.917+00:00</time>
      </trkpt>
      <trkpt lat="46.66697" lon="5.76551">
        <ele>510</ele>
        <time>2025-10-08T15:26:00.096+00:00</time>
      </trkpt>
      <trkpt lat="46.66698" lon="5.76543">
        <ele>510</ele>
        <time>2025-10-08T15:26:04.201+00:00</time>
      </trkpt>
      <trkpt lat="46.66698" lon="5.76536">
        <ele>512</ele>
        <time>2025-10-08T15:26:08.281+00:00</time>
      </trkpt>
      <trkpt lat="46.667" lon="5.76529">
        <ele>512</ele>
        <time>2025-10-08T15:26:12.494+00:00</time>
      </trkpt>
      <trkpt lat="46.667" lon="5.76522">
        <ele>512</ele>
        <time>2025-10-08T15:26:16.740+00:00</time>
      </trkpt>
      <trkpt lat="46.66701" lon="5.76514">
        <ele>512</ele>
        <time>2025-10-08T15:26:20.881+00:00</time>
      </trkpt>
      <trkpt lat="46.66701" lon="5.76506">
        <ele>513</ele>
        <time>2025-10-08T15:26:25.018+00:00</time>
      </trkpt>
      <trkpt lat="46.66703" lon="5.765">
        <ele>513</ele>
        <time>2025-10-08T15:26:29.260+00:00</time>
      </trkpt>
      <trkpt lat="46.66704" lon="5.76492">
        <ele>513</ele>
        <time>2025-10-08T15:26:33.441+00:00</time>
      </trkpt>
      <trkpt lat="46.66704" lon="5.76485">
        <ele>514</ele>
        <time>2025-10-08T15:26:37.595+00:00</time>
      </trkpt>
      <trkpt lat="46.66705" lon="5.76478">
        <ele>514</ele>
        <time>2025-10-08T15:26:41.675+00:00</time>
      </trkpt>
      <trkpt lat="46.66706" lon="5.76469">
        <ele>514</ele>
        <time>2025-10-08T15:26:46.740+00:00</time>
      </trkpt>
      <trkpt lat="46.66707" lon="5.76461">
        <ele>514</ele>
        <time>2025-10-08T15:26:51.479+00:00</time>
      </trkpt>
      <trkpt lat="46.66708" lon="5.76453">
        <ele>515</ele>
        <time>2025-10-08T15:26:55.740+00:00</time>
      </trkpt>
      <trkpt lat="46.6671" lon="5.76446">
        <ele>511</ele>
        <time>2025-10-08T15:27:00.336+00:00</time>
      </trkpt>
      <trkpt lat="46.66711" lon="5.76438">
        <ele>511</ele>
        <time>2025-10-08T15:27:04.566+00:00</time>
      </trkpt>
      <trkpt lat="46.6671" lon="5.7643">
        <ele>514</ele>
        <time>2025-10-08T15:27:08.621+00:00</time>
      </trkpt>
      <trkpt lat="46.66711" lon="5.76421">
        <ele>514</ele>
        <time>2025-10-08T15:27:12.699+00:00</time>
      </trkpt>
      <trkpt lat="46.66712" lon="5.76414">
        <ele>514</ele>
        <time>2025-10-08T15:27:16.740+00:00</time>
      </trkpt>
      <trkpt lat="46.66713" lon="5.76407">
        <ele>514</ele>
        <time>2025-10-08T15:27:21+00:00</time>
      </trkpt>
      <trkpt lat="46.66714" lon="5.764">
        <ele>518</ele>
        <time>2025-10-08T15:27:25.113+00:00</time>
      </trkpt>
      <trkpt lat="46.66714" lon="5.76393">
        <ele>518</ele>
        <time>2025-10-08T15:27:29.259+00:00</time>
      </trkpt>
      <trkpt lat="46.66715" lon="5.76386">
        <ele>518</ele>
        <time>2025-10-08T15:27:33.414+00:00</time>
      </trkpt>
      <trkpt lat="46.66716" lon="5.76378">
        <ele>518</ele>
        <time>2025-10-08T15:27:37.623+00:00</time>
      </trkpt>
      <trkpt lat="46.66717" lon="5.76369">
        <ele>519</ele>
        <time>2025-10-08T15:27:42.076+00:00</time>
      </trkpt>
      <trkpt lat="46.66717" lon="5.76363">
        <ele>519</ele>
        <time>2025-10-08T15:27:46.741+00:00</time>
      </trkpt>
      <trkpt lat="46.66717" lon="5.76355">
        <ele>519</ele>
        <time>2025-10-08T15:27:51.414+00:00</time>
      </trkpt>
      <trkpt lat="46.66719" lon="5.76347">
        <ele>520</ele>
        <time>2025-10-08T15:27:55.740+00:00</time>
      </trkpt>
      <trkpt lat="46.66721" lon="5.76339">
        <ele>520</ele>
        <time>2025-10-08T15:28:00.500+00:00</time>
      </trkpt>
      <trkpt lat="46.66722" lon="5.76331">
        <ele>520</ele>
        <time>2025-10-08T15:28:05.176+00:00</time>
      </trkpt>
      <trkpt lat="46.66723" lon="5.76323">
        <ele>520</ele>
        <time>2025-10-08T15:28:09.743+00:00</time>
      </trkpt>
      <trkpt lat="46.66724" lon="5.76315">
        <ele>522</ele>
        <time>2025-10-08T15:28:14.536+00:00</time>
      </trkpt>
      <trkpt lat="46.66725" lon="5.76309">
        <ele>522</ele>
        <time>2025-10-08T15:28:18.657+00:00</time>
      </trkpt>
      <trkpt lat="46.66726" lon="5.76302">
        <ele>522</ele>
        <time>2025-10-08T15:28:22.740+00:00</time>
      </trkpt>
      <trkpt lat="46.66726" lon="5.76295">
        <ele>522</ele>
        <time>2025-10-08T15:28:26.740+00:00</time>
      </trkpt>
      <trkpt lat="46.66727" lon="5.76286">
        <ele>522</ele>
        <time>2025-10-08T15:28:31.616+00:00</time>
      </trkpt>
      <trkpt lat="46.66729" lon="5.76277">
        <ele>522</ele>
        <time>2025-10-08T15:28:36.335+00:00</time>
      </trkpt>
      <trkpt lat="46.66729" lon="5.76269">
        <ele>522</ele>
        <time>2025-10-08T15:28:40.456+00:00</time>
      </trkpt>
      <trkpt lat="46.66731" lon="5.76261">
        <ele>522</ele>
        <time>2025-10-08T15:28:45.541+00:00</time>
      </trkpt>
      <trkpt lat="46.66732" lon="5.76253">
        <ele>522</ele>
        <time>2025-10-08T15:28:49.741+00:00</time>
      </trkpt>
      <trkpt lat="46.66733" lon="5.76244">
        <ele>522</ele>
        <time>2025-10-08T15:28:54.336+00:00</time>
      </trkpt>
      <trkpt lat="46.66733" lon="5.76237">
        <ele>522</ele>
        <time>2025-10-08T15:28:58.459+00:00</time>
      </trkpt>
      <trkpt lat="46.66734" lon="5.76229">
        <ele>521</ele>
        <time>2025-10-08T15:29:02.740+00:00</time>
      </trkpt>
      <trkpt lat="46.66734" lon="5.76221">
        <ele>521</ele>
        <time>2025-10-08T15:29:07.161+00:00</time>
      </trkpt>
      <trkpt lat="46.66734" lon="5.76213">
        <ele>521</ele>
        <time>2025-10-08T15:29:11.299+00:00</time>
      </trkpt>
      <trkpt lat="46.66736" lon="5.76205">
        <ele>520</ele>
        <time>2025-10-08T15:29:15.889+00:00</time>
      </trkpt>
      <trkpt lat="46.66737" lon="5.76197">
        <ele>518</ele>
        <time>2025-10-08T15:29:19.924+00:00</time>
      </trkpt>
      <trkpt lat="46.66738" lon="5.76189">
        <ele>518</ele>
        <time>2025-10-08T15:29:24.489+00:00</time>
      </trkpt>
      <trkpt lat="46.66739" lon="5.76181">
        <ele>518</ele>
        <time>2025-10-08T15:29:28.549+00:00</time>
      </trkpt>
      <trkpt lat="46.66739" lon="5.76174">
        <ele>517</ele>
        <time>2025-10-08T15:29:32.611+00:00</time>
      </trkpt>
      <trkpt lat="46.6674" lon="5.76166">
        <ele>517</ele>
        <time>2025-10-08T15:29:37.151+00:00</time>
      </trkpt>
      <trkpt lat="46.66741" lon="5.76158">
        <ele>517</ele>
        <time>2025-10-08T15:29:41.645+00:00</time>
      </trkpt>
      <trkpt lat="46.66742" lon="5.7615">
        <ele>517</ele>
        <time>2025-10-08T15:29:46.211+00:00</time>
      </trkpt>
      <trkpt lat="46.66743" lon="5.76143">
        <ele>517</ele>
        <time>2025-10-08T15:29:50.246+00:00</time>
      </trkpt>
      <trkpt lat="46.66744" lon="5.76136">
        <ele>517</ele>
        <time>2025-10-08T15:29:54.350+00:00</time>
      </trkpt>
      <trkpt lat="46.66745" lon="5.76129">
        <ele>517</ele>
        <time>2025-10-08T15:29:58.356+00:00</time>
      </trkpt>
      <trkpt lat="46.66746" lon="5.7612">
        <ele>518</ele>
        <time>2025-10-08T15:30:02.740+00:00</time>
      </trkpt>
      <trkpt lat="46.66747" lon="5.76113">
        <ele>518</ele>
        <time>2025-10-08T15:30:07.531+00:00</time>
      </trkpt>
      <trkpt lat="46.66748" lon="5.76105">
        <ele>518</ele>
        <time>2025-10-08T15:30:11.551+00:00</time>
      </trkpt>
      <trkpt lat="46.6675" lon="5.76099">
        <ele>518</ele>
        <time>2025-10-08T15:30:15.780+00:00</time>
      </trkpt>
      <trkpt lat="46.6675" lon="5.76091">
        <ele>519</ele>
        <time>2025-10-08T15:30:20.254+00:00</time>
      </trkpt>
      <trkpt lat="46.6675" lon="5.76082">
        <ele>519</ele>
        <time>2025-10-08T15:30:24.740+00:00</time>
      </trkpt>
      <trkpt lat="46.66751" lon="5.76075">
        <ele>519</ele>
        <time>2025-10-08T15:30:28.969+00:00</time>
      </trkpt>
      <trkpt lat="46.66752" lon="5.76066">
        <ele>520</ele>
        <time>2025-10-08T15:30:33.613+00:00</time>
      </trkpt>
      <trkpt lat="46.66752" lon="5.76059">
        <ele>520</ele>
        <time>2025-10-08T15:30:37.672+00:00</time>
      </trkpt>
      <trkpt lat="46.66753" lon="5.76052">
        <ele>520</ele>
        <time>2025-10-08T15:30:41.740+00:00</time>
      </trkpt>
      <trkpt lat="46.66755" lon="5.76044">
        <ele>520</ele>
        <time>2025-10-08T15:30:46.423+00:00</time>
      </trkpt>
      <trkpt lat="46.66755" lon="5.76036">
        <ele>521</ele>
        <time>2025-10-08T15:30:50.740+00:00</time>
      </trkpt>
      <trkpt lat="46.66755" lon="5.76028">
        <ele>521</ele>
        <time>2025-10-08T15:30:54.930+00:00</time>
      </trkpt>
      <trkpt lat="46.66757" lon="5.76019">
        <ele>521</ele>
        <time>2025-10-08T15:30:59.110+00:00</time>
      </trkpt>
      <trkpt lat="46.66758" lon="5.76011">
        <ele>522</ele>
        <time>2025-10-08T15:31:03.725+00:00</time>
      </trkpt>
      <trkpt lat="46.6676" lon="5.76004">
        <ele>522</ele>
        <time>2025-10-08T15:31:07.740+00:00</time>
      </trkpt>
      <trkpt lat="46.66762" lon="5.75997">
        <ele>522</ele>
        <time>2025-10-08T15:31:12.740+00:00</time>
      </trkpt>
      <trkpt lat="46.66762" lon="5.75998">
        <ele>522</ele>
        <time>2025-10-08T15:31:18.741+00:00</time>
      </trkpt>
      <trkpt lat="46.66763" lon="5.75997">
        <ele>522</ele>
        <time>2025-10-08T15:31:23.212+00:00</time>
      </trkpt>
      <trkpt lat="46.66764" lon="5.75991">
        <ele>520</ele>
        <time>2025-10-08T15:31:27.409+00:00</time>
      </trkpt>
      <trkpt lat="46.66766" lon="5.75985">
        <ele>520</ele>
        <time>2025-10-08T15:31:31.741+00:00</time>
      </trkpt>
      <trkpt lat="46.66767" lon="5.75978">
        <ele>520</ele>
        <time>2025-10-08T15:31:35.740+00:00</time>
      </trkpt>
      <trkpt lat="46.66768" lon="5.7597">
        <ele>520</ele>
        <time>2025-10-08T15:31:40.026+00:00</time>
      </trkpt>
      <trkpt lat="46.66769" lon="5.75963">
        <ele>520</ele>
        <time>2025-10-08T15:31:44.740+00:00</time>
      </trkpt>
      <trkpt lat="46.66771" lon="5.75955">
        <ele>520</ele>
        <time>2025-10-08T15:31:49.512+00:00</time>
      </trkpt>
      <trkpt lat="46.66772" lon="5.75949">
        <ele>520</ele>
        <time>2025-10-08T15:31:53.741+00:00</time>
      </trkpt>
      <trkpt lat="46.66773" lon="5.75942">
        <ele>520</ele>
        <time>2025-10-08T15:31:58.023+00:00</time>
      </trkpt>
      <trkpt lat="46.66771" lon="5.75935">
        <ele>520</ele>
        <time>2025-10-08T15:32:02.649+00:00</time>
      </trkpt>
      <trkpt lat="46.66767" lon="5.75931">
        <ele>520</ele>
        <time>2025-10-08T15:32:07.170+00:00</time>
      </trkpt>
      <trkpt lat="46.66765" lon="5.75925">
        <ele>520</ele>
        <time>2025-10-08T15:32:11.740+00:00</time>
      </trkpt>
      <trkpt lat="46.66766" lon="5.75921">
        <ele>520</ele>
        <time>2025-10-08T15:32:15.740+00:00</time>
      </trkpt>
      <trkpt lat="46.66763" lon="5.75917">
        <ele>520</ele>
        <time>2025-10-08T15:32:20.627+00:00</time>
      </trkpt>
      <trkpt lat="46.6676" lon="5.75914">
        <ele>520</ele>
        <time>2025-10-08T15:32:24.740+00:00</time>
      </trkpt>
      <trkpt lat="46.66758" lon="5.75911">
        <ele>520</ele>
        <time>2025-10-08T15:32:28.739+00:00</time>
      </trkpt>
      <trkpt lat="46.66755" lon="5.7591">
        <ele>520</ele>
        <time>2025-10-08T15:32:33.064+00:00</time>
      </trkpt>
      <trkpt lat="46.66752" lon="5.75908">
        <ele>520</ele>
        <time>2025-10-08T15:32:37.475+00:00</time>
      </trkpt>
      <trkpt lat="46.66748" lon="5.75906">
        <ele>520</ele>
        <time>2025-10-08T15:32:42.212+00:00</time>
      </trkpt>
      <trkpt lat="46.66745" lon="5.75903">
        <ele>520</ele>
        <time>2025-10-08T15:32:46.306+00:00</time>
      </trkpt>
      <trkpt lat="46.66743" lon="5.75901">
        <ele>521</ele>
        <time>2025-10-08T15:32:50.739+00:00</time>
      </trkpt>
      <trkpt lat="46.6674" lon="5.75896">
        <ele>521</ele>
        <time>2025-10-08T15:32:55.597+00:00</time>
      </trkpt>
      <trkpt lat="46.66738" lon="5.75891">
        <ele>521</ele>
        <time>2025-10-08T15:32:59.739+00:00</time>
      </trkpt>
      <trkpt lat="46.6674" lon="5.75891">
        <ele>521</ele>
        <time>2025-10-08T15:33:03.740+00:00</time>
      </trkpt>
      <trkpt lat="46.66737" lon="5.75887">
        <ele>521</ele>
        <time>2025-10-08T15:33:08.549+00:00</time>
      </trkpt>
      <trkpt lat="46.66735" lon="5.75885">
        <ele>519</ele>
        <time>2025-10-08T15:33:12.739+00:00</time>
      </trkpt>
      <trkpt lat="46.66732" lon="5.75882">
        <ele>519</ele>
        <time>2025-10-08T15:33:17.268+00:00</time>
      </trkpt>
    </trkseg>
  </trk>
</gpx>